<?xml version="1.0" encoding="UTF-8" standalone="no" ?>
<gpx xmlns="http://www.topografix.com/GPX/1/1" xmlns:xsi="http://www.w3.org/2001/XMLSchema-instance" xsi:schemaLocation="http://www.topografix.com/GPX/1/1 http://www.topografix.com/GPX/1/1/gpx.xsd" version="1.1" creator="VisuGPX - https://www.visugpx.com">
  <metadata>
    <name>Col de Plain Palais</name>
    <desc><![CDATA[Troisième jour du Tour des Bauges.
Très bel itinéraire au final.]]></desc>
  </metadata>
  <trk>
    <name><![CDATA[Col de Plain Palais]]></name>
    <trkseg>
      <trkpt lat="45.76613" lon="6.03083">
        <ele>547.4</ele>
        <time>2021-08-28T06:52:27Z</time>
      </trkpt>
      <trkpt lat="45.76613" lon="6.03084">
        <ele>547.3</ele>
        <time>2021-08-28T06:52:28Z</time>
      </trkpt>
      <trkpt lat="45.76614" lon="6.03086">
        <ele>547.3</ele>
        <time>2021-08-28T06:52:29Z</time>
      </trkpt>
      <trkpt lat="45.76614" lon="6.03087">
        <ele>547.3</ele>
        <time>2021-08-28T06:52:30Z</time>
      </trkpt>
      <trkpt lat="45.76614" lon="6.03088">
        <ele>547.3</ele>
        <time>2021-08-28T06:52:31Z</time>
      </trkpt>
      <trkpt lat="45.76614" lon="6.03088">
        <ele>547.3</ele>
        <time>2021-08-28T06:52:32Z</time>
      </trkpt>
      <trkpt lat="45.76614" lon="6.03089">
        <ele>547.3</ele>
        <time>2021-08-28T06:52:33Z</time>
      </trkpt>
      <trkpt lat="45.76614" lon="6.03088">
        <ele>547.3</ele>
        <time>2021-08-28T06:52:34Z</time>
      </trkpt>
      <trkpt lat="45.76614" lon="6.03088">
        <ele>547.3</ele>
        <time>2021-08-28T06:52:35Z</time>
      </trkpt>
      <trkpt lat="45.76614" lon="6.03088">
        <ele>547.3</ele>
        <time>2021-08-28T06:52:36Z</time>
      </trkpt>
      <trkpt lat="45.76614" lon="6.03088">
        <ele>547.3</ele>
        <time>2021-08-28T06:52:37Z</time>
      </trkpt>
      <trkpt lat="45.76614" lon="6.03088">
        <ele>547.3</ele>
        <time>2021-08-28T06:52:38Z</time>
      </trkpt>
      <trkpt lat="45.76614" lon="6.03088">
        <ele>547.3</ele>
        <time>2021-08-28T06:52:39Z</time>
      </trkpt>
      <trkpt lat="45.76614" lon="6.03089">
        <ele>547.3</ele>
        <time>2021-08-28T06:52:40Z</time>
      </trkpt>
      <trkpt lat="45.76614" lon="6.03089">
        <ele>547.3</ele>
        <time>2021-08-28T06:52:41Z</time>
      </trkpt>
      <trkpt lat="45.76614" lon="6.03089">
        <ele>547.3</ele>
        <time>2021-08-28T06:52:42Z</time>
      </trkpt>
      <trkpt lat="45.76614" lon="6.03089">
        <ele>547.3</ele>
        <time>2021-08-28T06:52:43Z</time>
      </trkpt>
      <trkpt lat="45.76612" lon="6.03091">
        <ele>547.2</ele>
        <time>2021-08-28T06:53:26Z</time>
      </trkpt>
      <trkpt lat="45.76611" lon="6.0309">
        <ele>547.2</ele>
        <time>2021-08-28T06:53:27Z</time>
      </trkpt>
      <trkpt lat="45.7661" lon="6.03089">
        <ele>547.2</ele>
        <time>2021-08-28T06:53:28Z</time>
      </trkpt>
      <trkpt lat="45.7661" lon="6.03087">
        <ele>547.1</ele>
        <time>2021-08-28T06:53:29Z</time>
      </trkpt>
      <trkpt lat="45.76611" lon="6.03083">
        <ele>547.1</ele>
        <time>2021-08-28T06:53:30Z</time>
      </trkpt>
      <trkpt lat="45.76612" lon="6.0308">
        <ele>547.1</ele>
        <time>2021-08-28T06:53:31Z</time>
      </trkpt>
      <trkpt lat="45.76614" lon="6.03077">
        <ele>547</ele>
        <time>2021-08-28T06:53:33Z</time>
      </trkpt>
      <trkpt lat="45.76618" lon="6.03074">
        <ele>546.9</ele>
        <time>2021-08-28T06:53:34Z</time>
      </trkpt>
      <trkpt lat="45.76623" lon="6.03068">
        <ele>546.8</ele>
        <time>2021-08-28T06:53:35Z</time>
      </trkpt>
      <trkpt lat="45.76626" lon="6.03065">
        <ele>546.8</ele>
        <time>2021-08-28T06:53:36Z</time>
      </trkpt>
      <trkpt lat="45.76628" lon="6.0306">
        <ele>546.7</ele>
        <time>2021-08-28T06:53:38Z</time>
      </trkpt>
      <trkpt lat="45.76631" lon="6.03052">
        <ele>546.6</ele>
        <time>2021-08-28T06:53:40Z</time>
      </trkpt>
      <trkpt lat="45.76633" lon="6.03047">
        <ele>546.5</ele>
        <time>2021-08-28T06:53:41Z</time>
      </trkpt>
      <trkpt lat="45.76633" lon="6.03044">
        <ele>546.5</ele>
        <time>2021-08-28T06:53:42Z</time>
      </trkpt>
      <trkpt lat="45.76632" lon="6.03038">
        <ele>546.4</ele>
        <time>2021-08-28T06:53:44Z</time>
      </trkpt>
      <trkpt lat="45.76631" lon="6.0303">
        <ele>546.4</ele>
        <time>2021-08-28T06:53:46Z</time>
      </trkpt>
      <trkpt lat="45.76628" lon="6.03026">
        <ele>546.4</ele>
        <time>2021-08-28T06:53:47Z</time>
      </trkpt>
      <trkpt lat="45.76624" lon="6.0302">
        <ele>546.5</ele>
        <time>2021-08-28T06:53:49Z</time>
      </trkpt>
      <trkpt lat="45.76622" lon="6.03017">
        <ele>546.6</ele>
        <time>2021-08-28T06:53:50Z</time>
      </trkpt>
      <trkpt lat="45.76617" lon="6.03016">
        <ele>546.6</ele>
        <time>2021-08-28T06:53:51Z</time>
      </trkpt>
      <trkpt lat="45.76614" lon="6.03014">
        <ele>546.7</ele>
        <time>2021-08-28T06:53:52Z</time>
      </trkpt>
      <trkpt lat="45.76606" lon="6.03015">
        <ele>546.8</ele>
        <time>2021-08-28T06:53:54Z</time>
      </trkpt>
      <trkpt lat="45.76603" lon="6.03018">
        <ele>546.9</ele>
        <time>2021-08-28T06:53:55Z</time>
      </trkpt>
      <trkpt lat="45.76598" lon="6.03025">
        <ele>547</ele>
        <time>2021-08-28T06:53:56Z</time>
      </trkpt>
      <trkpt lat="45.76595" lon="6.03029">
        <ele>547.1</ele>
        <time>2021-08-28T06:53:57Z</time>
      </trkpt>
      <trkpt lat="45.76593" lon="6.03035">
        <ele>547.1</ele>
        <time>2021-08-28T06:53:58Z</time>
      </trkpt>
      <trkpt lat="45.76591" lon="6.03039">
        <ele>547.2</ele>
        <time>2021-08-28T06:54:00Z</time>
      </trkpt>
      <trkpt lat="45.76586" lon="6.03046">
        <ele>547.3</ele>
        <time>2021-08-28T06:54:01Z</time>
      </trkpt>
      <trkpt lat="45.76584" lon="6.03051">
        <ele>547.3</ele>
        <time>2021-08-28T06:54:03Z</time>
      </trkpt>
      <trkpt lat="45.76583" lon="6.03052">
        <ele>547.4</ele>
        <time>2021-08-28T06:54:04Z</time>
      </trkpt>
      <trkpt lat="45.76579" lon="6.03054">
        <ele>547.4</ele>
        <time>2021-08-28T06:54:05Z</time>
      </trkpt>
      <trkpt lat="45.76575" lon="6.03054">
        <ele>547.5</ele>
        <time>2021-08-28T06:54:07Z</time>
      </trkpt>
      <trkpt lat="45.76574" lon="6.03054">
        <ele>547.5</ele>
        <time>2021-08-28T06:54:08Z</time>
      </trkpt>
      <trkpt lat="45.76569" lon="6.03052">
        <ele>547.6</ele>
        <time>2021-08-28T06:54:09Z</time>
      </trkpt>
      <trkpt lat="45.76566" lon="6.03048">
        <ele>547.6</ele>
        <time>2021-08-28T06:54:10Z</time>
      </trkpt>
      <trkpt lat="45.76565" lon="6.03043">
        <ele>547.7</ele>
        <time>2021-08-28T06:54:12Z</time>
      </trkpt>
      <trkpt lat="45.76568" lon="6.03032">
        <ele>547.8</ele>
        <time>2021-08-28T06:54:14Z</time>
      </trkpt>
      <trkpt lat="45.76573" lon="6.03026">
        <ele>547.9</ele>
        <time>2021-08-28T06:54:15Z</time>
      </trkpt>
      <trkpt lat="45.76578" lon="6.0302">
        <ele>548</ele>
        <time>2021-08-28T06:54:16Z</time>
      </trkpt>
      <trkpt lat="45.76583" lon="6.03015">
        <ele>548.1</ele>
        <time>2021-08-28T06:54:17Z</time>
      </trkpt>
      <trkpt lat="45.76591" lon="6.0301">
        <ele>548.3</ele>
        <time>2021-08-28T06:54:20Z</time>
      </trkpt>
      <trkpt lat="45.76593" lon="6.03008">
        <ele>548.3</ele>
        <time>2021-08-28T06:54:21Z</time>
      </trkpt>
      <trkpt lat="45.76594" lon="6.03005">
        <ele>548.4</ele>
        <time>2021-08-28T06:54:22Z</time>
      </trkpt>
      <trkpt lat="45.76594" lon="6.03004">
        <ele>548.4</ele>
        <time>2021-08-28T06:54:23Z</time>
      </trkpt>
      <trkpt lat="45.76594" lon="6.03004">
        <ele>548.4</ele>
        <time>2021-08-28T06:54:24Z</time>
      </trkpt>
      <trkpt lat="45.76594" lon="6.03004">
        <ele>548.4</ele>
        <time>2021-08-28T06:54:25Z</time>
      </trkpt>
      <trkpt lat="45.76594" lon="6.03003">
        <ele>548.4</ele>
        <time>2021-08-28T06:54:26Z</time>
      </trkpt>
      <trkpt lat="45.76593" lon="6.03003">
        <ele>548.4</ele>
        <time>2021-08-28T06:54:27Z</time>
      </trkpt>
      <trkpt lat="45.76593" lon="6.03002">
        <ele>548.4</ele>
        <time>2021-08-28T06:54:28Z</time>
      </trkpt>
      <trkpt lat="45.76593" lon="6.03002">
        <ele>548.4</ele>
        <time>2021-08-28T06:54:29Z</time>
      </trkpt>
      <trkpt lat="45.76592" lon="6.03001">
        <ele>548.4</ele>
        <time>2021-08-28T06:54:30Z</time>
      </trkpt>
      <trkpt lat="45.76592" lon="6.03001">
        <ele>548.4</ele>
        <time>2021-08-28T06:54:31Z</time>
      </trkpt>
      <trkpt lat="45.76592" lon="6.03001">
        <ele>548.4</ele>
        <time>2021-08-28T06:54:32Z</time>
      </trkpt>
      <trkpt lat="45.76591" lon="6.03">
        <ele>548.4</ele>
        <time>2021-08-28T06:54:33Z</time>
      </trkpt>
      <trkpt lat="45.76588" lon="6.03001">
        <ele>548.5</ele>
        <time>2021-08-28T06:54:34Z</time>
      </trkpt>
      <trkpt lat="45.76586" lon="6.03002">
        <ele>548.5</ele>
        <time>2021-08-28T06:54:35Z</time>
      </trkpt>
      <trkpt lat="45.76583" lon="6.03002">
        <ele>548.6</ele>
        <time>2021-08-28T06:54:36Z</time>
      </trkpt>
      <trkpt lat="45.76582" lon="6.03002">
        <ele>548.6</ele>
        <time>2021-08-28T06:54:37Z</time>
      </trkpt>
      <trkpt lat="45.76578" lon="6.03003">
        <ele>548.7</ele>
        <time>2021-08-28T06:54:38Z</time>
      </trkpt>
      <trkpt lat="45.76576" lon="6.03003">
        <ele>548.7</ele>
        <time>2021-08-28T06:54:39Z</time>
      </trkpt>
      <trkpt lat="45.76573" lon="6.03004">
        <ele>548.7</ele>
        <time>2021-08-28T06:54:40Z</time>
      </trkpt>
      <trkpt lat="45.76571" lon="6.03004">
        <ele>548.8</ele>
        <time>2021-08-28T06:54:41Z</time>
      </trkpt>
      <trkpt lat="45.76568" lon="6.03004">
        <ele>548.8</ele>
        <time>2021-08-28T06:54:42Z</time>
      </trkpt>
      <trkpt lat="45.76564" lon="6.03005">
        <ele>548.9</ele>
        <time>2021-08-28T06:54:43Z</time>
      </trkpt>
      <trkpt lat="45.76563" lon="6.03005">
        <ele>548.9</ele>
        <time>2021-08-28T06:54:44Z</time>
      </trkpt>
      <trkpt lat="45.76559" lon="6.03005">
        <ele>549</ele>
        <time>2021-08-28T06:54:45Z</time>
      </trkpt>
      <trkpt lat="45.76558" lon="6.03006">
        <ele>549</ele>
        <time>2021-08-28T06:54:46Z</time>
      </trkpt>
      <trkpt lat="45.76555" lon="6.03006">
        <ele>549</ele>
        <time>2021-08-28T06:54:47Z</time>
      </trkpt>
      <trkpt lat="45.76554" lon="6.03006">
        <ele>549</ele>
        <time>2021-08-28T06:54:48Z</time>
      </trkpt>
      <trkpt lat="45.76549" lon="6.03005">
        <ele>549.1</ele>
        <time>2021-08-28T06:54:49Z</time>
      </trkpt>
      <trkpt lat="45.76547" lon="6.03005">
        <ele>549.1</ele>
        <time>2021-08-28T06:54:50Z</time>
      </trkpt>
      <trkpt lat="45.76542" lon="6.03004">
        <ele>549.2</ele>
        <time>2021-08-28T06:54:51Z</time>
      </trkpt>
      <trkpt lat="45.76534" lon="6.03005">
        <ele>549.3</ele>
        <time>2021-08-28T06:54:53Z</time>
      </trkpt>
      <trkpt lat="45.76531" lon="6.03007">
        <ele>549.3</ele>
        <time>2021-08-28T06:54:54Z</time>
      </trkpt>
      <trkpt lat="45.76522" lon="6.0301">
        <ele>549.4</ele>
        <time>2021-08-28T06:54:56Z</time>
      </trkpt>
      <trkpt lat="45.76519" lon="6.03012">
        <ele>549.5</ele>
        <time>2021-08-28T06:54:57Z</time>
      </trkpt>
      <trkpt lat="45.76516" lon="6.03012">
        <ele>549.5</ele>
        <time>2021-08-28T06:54:58Z</time>
      </trkpt>
      <trkpt lat="45.76509" lon="6.03013">
        <ele>549.6</ele>
        <time>2021-08-28T06:54:59Z</time>
      </trkpt>
      <trkpt lat="45.76505" lon="6.03013">
        <ele>549.6</ele>
        <time>2021-08-28T06:55:01Z</time>
      </trkpt>
      <trkpt lat="45.76497" lon="6.03016">
        <ele>549.7</ele>
        <time>2021-08-28T06:55:03Z</time>
      </trkpt>
      <trkpt lat="45.76494" lon="6.03021">
        <ele>549.7</ele>
        <time>2021-08-28T06:55:04Z</time>
      </trkpt>
      <trkpt lat="45.76492" lon="6.03024">
        <ele>549.7</ele>
        <time>2021-08-28T06:55:05Z</time>
      </trkpt>
      <trkpt lat="45.76495" lon="6.03035">
        <ele>549.8</ele>
        <time>2021-08-28T06:55:07Z</time>
      </trkpt>
      <trkpt lat="45.76497" lon="6.03048">
        <ele>549.8</ele>
        <time>2021-08-28T06:55:09Z</time>
      </trkpt>
      <trkpt lat="45.76497" lon="6.03053">
        <ele>549.9</ele>
        <time>2021-08-28T06:55:10Z</time>
      </trkpt>
      <trkpt lat="45.76494" lon="6.03064">
        <ele>550</ele>
        <time>2021-08-28T06:55:12Z</time>
      </trkpt>
      <trkpt lat="45.76493" lon="6.03069">
        <ele>550</ele>
        <time>2021-08-28T06:55:13Z</time>
      </trkpt>
      <trkpt lat="45.76488" lon="6.0307">
        <ele>550.1</ele>
        <time>2021-08-28T06:55:16Z</time>
      </trkpt>
      <trkpt lat="45.76487" lon="6.03074">
        <ele>550.1</ele>
        <time>2021-08-28T06:55:17Z</time>
      </trkpt>
      <trkpt lat="45.76485" lon="6.03079">
        <ele>550.2</ele>
        <time>2021-08-28T06:55:18Z</time>
      </trkpt>
      <trkpt lat="45.76484" lon="6.03083">
        <ele>550.2</ele>
        <time>2021-08-28T06:55:19Z</time>
      </trkpt>
      <trkpt lat="45.76484" lon="6.03088">
        <ele>550.3</ele>
        <time>2021-08-28T06:55:20Z</time>
      </trkpt>
      <trkpt lat="45.76483" lon="6.03093">
        <ele>550.4</ele>
        <time>2021-08-28T06:55:21Z</time>
      </trkpt>
      <trkpt lat="45.76482" lon="6.03097">
        <ele>550.4</ele>
        <time>2021-08-28T06:55:22Z</time>
      </trkpt>
      <trkpt lat="45.76482" lon="6.03102">
        <ele>550.5</ele>
        <time>2021-08-28T06:55:23Z</time>
      </trkpt>
      <trkpt lat="45.76482" lon="6.03107">
        <ele>550.5</ele>
        <time>2021-08-28T06:55:24Z</time>
      </trkpt>
      <trkpt lat="45.76481" lon="6.03112">
        <ele>550.6</ele>
        <time>2021-08-28T06:55:25Z</time>
      </trkpt>
      <trkpt lat="45.76481" lon="6.03116">
        <ele>550.7</ele>
        <time>2021-08-28T06:55:26Z</time>
      </trkpt>
      <trkpt lat="45.76481" lon="6.0312">
        <ele>550.7</ele>
        <time>2021-08-28T06:55:27Z</time>
      </trkpt>
      <trkpt lat="45.7648" lon="6.03125">
        <ele>550.8</ele>
        <time>2021-08-28T06:55:28Z</time>
      </trkpt>
      <trkpt lat="45.7648" lon="6.0313">
        <ele>550.8</ele>
        <time>2021-08-28T06:55:29Z</time>
      </trkpt>
      <trkpt lat="45.7648" lon="6.03134">
        <ele>550.9</ele>
        <time>2021-08-28T06:55:30Z</time>
      </trkpt>
      <trkpt lat="45.76479" lon="6.03139">
        <ele>551</ele>
        <time>2021-08-28T06:55:31Z</time>
      </trkpt>
      <trkpt lat="45.76478" lon="6.03144">
        <ele>551</ele>
        <time>2021-08-28T06:55:32Z</time>
      </trkpt>
      <trkpt lat="45.76478" lon="6.03148">
        <ele>551.1</ele>
        <time>2021-08-28T06:55:33Z</time>
      </trkpt>
      <trkpt lat="45.76477" lon="6.03153">
        <ele>551.2</ele>
        <time>2021-08-28T06:55:34Z</time>
      </trkpt>
      <trkpt lat="45.76478" lon="6.03157">
        <ele>551.3</ele>
        <time>2021-08-28T06:55:35Z</time>
      </trkpt>
      <trkpt lat="45.76479" lon="6.03162">
        <ele>551.3</ele>
        <time>2021-08-28T06:55:36Z</time>
      </trkpt>
      <trkpt lat="45.76481" lon="6.03167">
        <ele>551.4</ele>
        <time>2021-08-28T06:55:37Z</time>
      </trkpt>
      <trkpt lat="45.76481" lon="6.03169">
        <ele>551.5</ele>
        <time>2021-08-28T06:55:38Z</time>
      </trkpt>
      <trkpt lat="45.76482" lon="6.03173">
        <ele>551.5</ele>
        <time>2021-08-28T06:55:39Z</time>
      </trkpt>
      <trkpt lat="45.76483" lon="6.03178">
        <ele>551.7</ele>
        <time>2021-08-28T06:55:40Z</time>
      </trkpt>
      <trkpt lat="45.76482" lon="6.03182">
        <ele>551.8</ele>
        <time>2021-08-28T06:55:41Z</time>
      </trkpt>
      <trkpt lat="45.76482" lon="6.03187">
        <ele>551.9</ele>
        <time>2021-08-28T06:55:42Z</time>
      </trkpt>
      <trkpt lat="45.76482" lon="6.03192">
        <ele>552</ele>
        <time>2021-08-28T06:55:43Z</time>
      </trkpt>
      <trkpt lat="45.76482" lon="6.03194">
        <ele>552.1</ele>
        <time>2021-08-28T06:55:44Z</time>
      </trkpt>
      <trkpt lat="45.76482" lon="6.03198">
        <ele>552.2</ele>
        <time>2021-08-28T06:55:45Z</time>
      </trkpt>
      <trkpt lat="45.76483" lon="6.03202">
        <ele>552.3</ele>
        <time>2021-08-28T06:55:46Z</time>
      </trkpt>
      <trkpt lat="45.76483" lon="6.03208">
        <ele>552.5</ele>
        <time>2021-08-28T06:55:47Z</time>
      </trkpt>
      <trkpt lat="45.76483" lon="6.0321">
        <ele>552.5</ele>
        <time>2021-08-28T06:55:48Z</time>
      </trkpt>
      <trkpt lat="45.76483" lon="6.03214">
        <ele>552.6</ele>
        <time>2021-08-28T06:55:49Z</time>
      </trkpt>
      <trkpt lat="45.76484" lon="6.03219">
        <ele>552.8</ele>
        <time>2021-08-28T06:55:50Z</time>
      </trkpt>
      <trkpt lat="45.76484" lon="6.03222">
        <ele>552.9</ele>
        <time>2021-08-28T06:55:51Z</time>
      </trkpt>
      <trkpt lat="45.76484" lon="6.03227">
        <ele>553</ele>
        <time>2021-08-28T06:55:52Z</time>
      </trkpt>
      <trkpt lat="45.76483" lon="6.03228">
        <ele>553.1</ele>
        <time>2021-08-28T06:55:53Z</time>
      </trkpt>
      <trkpt lat="45.76483" lon="6.03232">
        <ele>553.2</ele>
        <time>2021-08-28T06:55:54Z</time>
      </trkpt>
      <trkpt lat="45.76483" lon="6.03238">
        <ele>553.4</ele>
        <time>2021-08-28T06:55:55Z</time>
      </trkpt>
      <trkpt lat="45.76483" lon="6.0324">
        <ele>553.5</ele>
        <time>2021-08-28T06:55:56Z</time>
      </trkpt>
      <trkpt lat="45.76484" lon="6.03245">
        <ele>553.7</ele>
        <time>2021-08-28T06:55:57Z</time>
      </trkpt>
      <trkpt lat="45.76483" lon="6.03247">
        <ele>553.7</ele>
        <time>2021-08-28T06:55:58Z</time>
      </trkpt>
      <trkpt lat="45.76484" lon="6.03253">
        <ele>553.9</ele>
        <time>2021-08-28T06:55:59Z</time>
      </trkpt>
      <trkpt lat="45.76484" lon="6.03255">
        <ele>554</ele>
        <time>2021-08-28T06:56:00Z</time>
      </trkpt>
      <trkpt lat="45.76484" lon="6.0326">
        <ele>554.2</ele>
        <time>2021-08-28T06:56:01Z</time>
      </trkpt>
      <trkpt lat="45.76484" lon="6.03261">
        <ele>554.3</ele>
        <time>2021-08-28T06:56:02Z</time>
      </trkpt>
      <trkpt lat="45.76484" lon="6.03263">
        <ele>554.4</ele>
        <time>2021-08-28T06:56:03Z</time>
      </trkpt>
      <trkpt lat="45.76485" lon="6.03266">
        <ele>554.5</ele>
        <time>2021-08-28T06:56:04Z</time>
      </trkpt>
      <trkpt lat="45.76485" lon="6.0327">
        <ele>554.7</ele>
        <time>2021-08-28T06:56:05Z</time>
      </trkpt>
      <trkpt lat="45.76485" lon="6.03271">
        <ele>554.8</ele>
        <time>2021-08-28T06:56:06Z</time>
      </trkpt>
      <trkpt lat="45.76486" lon="6.03277">
        <ele>555</ele>
        <time>2021-08-28T06:56:07Z</time>
      </trkpt>
      <trkpt lat="45.76486" lon="6.03279">
        <ele>555.1</ele>
        <time>2021-08-28T06:56:08Z</time>
      </trkpt>
      <trkpt lat="45.76486" lon="6.03283">
        <ele>555.3</ele>
        <time>2021-08-28T06:56:09Z</time>
      </trkpt>
      <trkpt lat="45.76486" lon="6.03284">
        <ele>555.4</ele>
        <time>2021-08-28T06:56:10Z</time>
      </trkpt>
      <trkpt lat="45.76486" lon="6.03289">
        <ele>555.6</ele>
        <time>2021-08-28T06:56:11Z</time>
      </trkpt>
      <trkpt lat="45.76486" lon="6.03291">
        <ele>555.7</ele>
        <time>2021-08-28T06:56:12Z</time>
      </trkpt>
      <trkpt lat="45.76487" lon="6.03295">
        <ele>555.9</ele>
        <time>2021-08-28T06:56:13Z</time>
      </trkpt>
      <trkpt lat="45.76488" lon="6.03301">
        <ele>556.2</ele>
        <time>2021-08-28T06:56:14Z</time>
      </trkpt>
      <trkpt lat="45.76489" lon="6.0331">
        <ele>556.7</ele>
        <time>2021-08-28T06:56:16Z</time>
      </trkpt>
      <trkpt lat="45.76489" lon="6.03315">
        <ele>556.9</ele>
        <time>2021-08-28T06:56:19Z</time>
      </trkpt>
      <trkpt lat="45.76489" lon="6.03317">
        <ele>557</ele>
        <time>2021-08-28T06:56:20Z</time>
      </trkpt>
      <trkpt lat="45.76489" lon="6.0332">
        <ele>557.1</ele>
        <time>2021-08-28T06:56:21Z</time>
      </trkpt>
      <trkpt lat="45.76489" lon="6.03324">
        <ele>557.3</ele>
        <time>2021-08-28T06:56:22Z</time>
      </trkpt>
      <trkpt lat="45.76488" lon="6.03332">
        <ele>557.5</ele>
        <time>2021-08-28T06:56:24Z</time>
      </trkpt>
      <trkpt lat="45.76488" lon="6.0334">
        <ele>557.8</ele>
        <time>2021-08-28T06:56:27Z</time>
      </trkpt>
      <trkpt lat="45.76488" lon="6.03342">
        <ele>557.9</ele>
        <time>2021-08-28T06:56:28Z</time>
      </trkpt>
      <trkpt lat="45.76488" lon="6.03345">
        <ele>558</ele>
        <time>2021-08-28T06:56:29Z</time>
      </trkpt>
      <trkpt lat="45.76488" lon="6.03349">
        <ele>558.1</ele>
        <time>2021-08-28T06:56:30Z</time>
      </trkpt>
      <trkpt lat="45.76487" lon="6.0335">
        <ele>558.1</ele>
        <time>2021-08-28T06:56:31Z</time>
      </trkpt>
      <trkpt lat="45.76487" lon="6.03356">
        <ele>558.3</ele>
        <time>2021-08-28T06:56:32Z</time>
      </trkpt>
      <trkpt lat="45.76487" lon="6.03359">
        <ele>558.4</ele>
        <time>2021-08-28T06:56:33Z</time>
      </trkpt>
      <trkpt lat="45.76487" lon="6.03366">
        <ele>558.7</ele>
        <time>2021-08-28T06:56:35Z</time>
      </trkpt>
      <trkpt lat="45.76488" lon="6.03375">
        <ele>559.1</ele>
        <time>2021-08-28T06:56:38Z</time>
      </trkpt>
      <trkpt lat="45.76487" lon="6.03379">
        <ele>559.3</ele>
        <time>2021-08-28T06:56:39Z</time>
      </trkpt>
      <trkpt lat="45.76487" lon="6.0338">
        <ele>559.4</ele>
        <time>2021-08-28T06:56:40Z</time>
      </trkpt>
      <trkpt lat="45.76487" lon="6.03384">
        <ele>559.5</ele>
        <time>2021-08-28T06:56:41Z</time>
      </trkpt>
      <trkpt lat="45.76487" lon="6.03385">
        <ele>559.6</ele>
        <time>2021-08-28T06:56:42Z</time>
      </trkpt>
      <trkpt lat="45.76487" lon="6.03389">
        <ele>559.7</ele>
        <time>2021-08-28T06:56:43Z</time>
      </trkpt>
      <trkpt lat="45.76487" lon="6.03395">
        <ele>560</ele>
        <time>2021-08-28T06:56:45Z</time>
      </trkpt>
      <trkpt lat="45.76487" lon="6.034">
        <ele>560.2</ele>
        <time>2021-08-28T06:56:46Z</time>
      </trkpt>
      <trkpt lat="45.76487" lon="6.03401">
        <ele>560.3</ele>
        <time>2021-08-28T06:56:47Z</time>
      </trkpt>
      <trkpt lat="45.76488" lon="6.03406">
        <ele>560.5</ele>
        <time>2021-08-28T06:56:48Z</time>
      </trkpt>
      <trkpt lat="45.76488" lon="6.03407">
        <ele>560.6</ele>
        <time>2021-08-28T06:56:49Z</time>
      </trkpt>
      <trkpt lat="45.76489" lon="6.03412">
        <ele>560.8</ele>
        <time>2021-08-28T06:56:50Z</time>
      </trkpt>
      <trkpt lat="45.76489" lon="6.03413">
        <ele>560.8</ele>
        <time>2021-08-28T06:56:51Z</time>
      </trkpt>
      <trkpt lat="45.76489" lon="6.03418">
        <ele>561</ele>
        <time>2021-08-28T06:56:52Z</time>
      </trkpt>
      <trkpt lat="45.76489" lon="6.0342">
        <ele>561.1</ele>
        <time>2021-08-28T06:56:53Z</time>
      </trkpt>
      <trkpt lat="45.76489" lon="6.03425">
        <ele>561.3</ele>
        <time>2021-08-28T06:56:54Z</time>
      </trkpt>
      <trkpt lat="45.76489" lon="6.03426">
        <ele>561.4</ele>
        <time>2021-08-28T06:56:55Z</time>
      </trkpt>
      <trkpt lat="45.76489" lon="6.03431">
        <ele>561.6</ele>
        <time>2021-08-28T06:56:56Z</time>
      </trkpt>
      <trkpt lat="45.76489" lon="6.03433">
        <ele>561.7</ele>
        <time>2021-08-28T06:56:57Z</time>
      </trkpt>
      <trkpt lat="45.7649" lon="6.03437">
        <ele>561.9</ele>
        <time>2021-08-28T06:56:58Z</time>
      </trkpt>
      <trkpt lat="45.7649" lon="6.03439">
        <ele>561.9</ele>
        <time>2021-08-28T06:56:59Z</time>
      </trkpt>
      <trkpt lat="45.7649" lon="6.03443">
        <ele>562.1</ele>
        <time>2021-08-28T06:57:00Z</time>
      </trkpt>
      <trkpt lat="45.7649" lon="6.03445">
        <ele>562.2</ele>
        <time>2021-08-28T06:57:01Z</time>
      </trkpt>
      <trkpt lat="45.7649" lon="6.03449">
        <ele>562.4</ele>
        <time>2021-08-28T06:57:02Z</time>
      </trkpt>
      <trkpt lat="45.76491" lon="6.03453">
        <ele>562.5</ele>
        <time>2021-08-28T06:57:03Z</time>
      </trkpt>
      <trkpt lat="45.76491" lon="6.03454">
        <ele>562.6</ele>
        <time>2021-08-28T06:57:04Z</time>
      </trkpt>
      <trkpt lat="45.76491" lon="6.03458">
        <ele>562.8</ele>
        <time>2021-08-28T06:57:05Z</time>
      </trkpt>
      <trkpt lat="45.76491" lon="6.0346">
        <ele>562.9</ele>
        <time>2021-08-28T06:57:06Z</time>
      </trkpt>
      <trkpt lat="45.76491" lon="6.03465">
        <ele>563.1</ele>
        <time>2021-08-28T06:57:07Z</time>
      </trkpt>
      <trkpt lat="45.76491" lon="6.03466">
        <ele>563.1</ele>
        <time>2021-08-28T06:57:08Z</time>
      </trkpt>
      <trkpt lat="45.76491" lon="6.03471">
        <ele>563.3</ele>
        <time>2021-08-28T06:57:09Z</time>
      </trkpt>
      <trkpt lat="45.76491" lon="6.03473">
        <ele>563.4</ele>
        <time>2021-08-28T06:57:10Z</time>
      </trkpt>
      <trkpt lat="45.76491" lon="6.03477">
        <ele>563.6</ele>
        <time>2021-08-28T06:57:11Z</time>
      </trkpt>
      <trkpt lat="45.76492" lon="6.03479">
        <ele>563.7</ele>
        <time>2021-08-28T06:57:12Z</time>
      </trkpt>
      <trkpt lat="45.76492" lon="6.03486">
        <ele>564</ele>
        <time>2021-08-28T06:57:13Z</time>
      </trkpt>
      <trkpt lat="45.76492" lon="6.0349">
        <ele>564.1</ele>
        <time>2021-08-28T06:57:14Z</time>
      </trkpt>
      <trkpt lat="45.76492" lon="6.03495">
        <ele>564.3</ele>
        <time>2021-08-28T06:57:17Z</time>
      </trkpt>
      <trkpt lat="45.76492" lon="6.03499">
        <ele>564.5</ele>
        <time>2021-08-28T06:57:18Z</time>
      </trkpt>
      <trkpt lat="45.76492" lon="6.03501">
        <ele>564.6</ele>
        <time>2021-08-28T06:57:19Z</time>
      </trkpt>
      <trkpt lat="45.76492" lon="6.03508">
        <ele>564.9</ele>
        <time>2021-08-28T06:57:20Z</time>
      </trkpt>
      <trkpt lat="45.76492" lon="6.03512">
        <ele>565.1</ele>
        <time>2021-08-28T06:57:22Z</time>
      </trkpt>
      <trkpt lat="45.76493" lon="6.03521">
        <ele>565.4</ele>
        <time>2021-08-28T06:57:24Z</time>
      </trkpt>
      <trkpt lat="45.76493" lon="6.03527">
        <ele>565.5</ele>
        <time>2021-08-28T06:57:25Z</time>
      </trkpt>
      <trkpt lat="45.76494" lon="6.03532">
        <ele>565.7</ele>
        <time>2021-08-28T06:57:26Z</time>
      </trkpt>
      <trkpt lat="45.76494" lon="6.03534">
        <ele>565.7</ele>
        <time>2021-08-28T06:57:27Z</time>
      </trkpt>
      <trkpt lat="45.76495" lon="6.03539">
        <ele>565.8</ele>
        <time>2021-08-28T06:57:29Z</time>
      </trkpt>
      <trkpt lat="45.76495" lon="6.03541">
        <ele>565.9</ele>
        <time>2021-08-28T06:57:30Z</time>
      </trkpt>
      <trkpt lat="45.76497" lon="6.03549">
        <ele>566</ele>
        <time>2021-08-28T06:57:32Z</time>
      </trkpt>
      <trkpt lat="45.765" lon="6.03561">
        <ele>566.3</ele>
        <time>2021-08-28T06:57:35Z</time>
      </trkpt>
      <trkpt lat="45.765" lon="6.03564">
        <ele>566.4</ele>
        <time>2021-08-28T06:57:36Z</time>
      </trkpt>
      <trkpt lat="45.76502" lon="6.03575">
        <ele>566.6</ele>
        <time>2021-08-28T06:57:39Z</time>
      </trkpt>
      <trkpt lat="45.76503" lon="6.03584">
        <ele>566.8</ele>
        <time>2021-08-28T06:57:41Z</time>
      </trkpt>
      <trkpt lat="45.76504" lon="6.03589">
        <ele>566.9</ele>
        <time>2021-08-28T06:57:43Z</time>
      </trkpt>
      <trkpt lat="45.76506" lon="6.03598">
        <ele>567</ele>
        <time>2021-08-28T06:57:45Z</time>
      </trkpt>
      <trkpt lat="45.76506" lon="6.03603">
        <ele>567.1</ele>
        <time>2021-08-28T06:57:46Z</time>
      </trkpt>
      <trkpt lat="45.76507" lon="6.0361">
        <ele>567.3</ele>
        <time>2021-08-28T06:57:47Z</time>
      </trkpt>
      <trkpt lat="45.76508" lon="6.03615">
        <ele>567.3</ele>
        <time>2021-08-28T06:57:50Z</time>
      </trkpt>
      <trkpt lat="45.7651" lon="6.0362">
        <ele>567.4</ele>
        <time>2021-08-28T06:57:51Z</time>
      </trkpt>
      <trkpt lat="45.7651" lon="6.03625">
        <ele>567.6</ele>
        <time>2021-08-28T06:57:53Z</time>
      </trkpt>
      <trkpt lat="45.76512" lon="6.03635">
        <ele>567.8</ele>
        <time>2021-08-28T06:57:54Z</time>
      </trkpt>
      <trkpt lat="45.76514" lon="6.03641">
        <ele>567.9</ele>
        <time>2021-08-28T06:57:56Z</time>
      </trkpt>
      <trkpt lat="45.76514" lon="6.03651">
        <ele>568.1</ele>
        <time>2021-08-28T06:57:58Z</time>
      </trkpt>
      <trkpt lat="45.76514" lon="6.03655">
        <ele>568.2</ele>
        <time>2021-08-28T06:57:59Z</time>
      </trkpt>
      <trkpt lat="45.76515" lon="6.03662">
        <ele>568.3</ele>
        <time>2021-08-28T06:58:01Z</time>
      </trkpt>
      <trkpt lat="45.76515" lon="6.03671">
        <ele>568.5</ele>
        <time>2021-08-28T06:58:03Z</time>
      </trkpt>
      <trkpt lat="45.76515" lon="6.03675">
        <ele>568.6</ele>
        <time>2021-08-28T06:58:04Z</time>
      </trkpt>
      <trkpt lat="45.76515" lon="6.03682">
        <ele>568.7</ele>
        <time>2021-08-28T06:58:06Z</time>
      </trkpt>
      <trkpt lat="45.76516" lon="6.03693">
        <ele>568.9</ele>
        <time>2021-08-28T06:58:07Z</time>
      </trkpt>
      <trkpt lat="45.76515" lon="6.03703">
        <ele>569.1</ele>
        <time>2021-08-28T06:58:10Z</time>
      </trkpt>
      <trkpt lat="45.76517" lon="6.03714">
        <ele>569.4</ele>
        <time>2021-08-28T06:58:13Z</time>
      </trkpt>
      <trkpt lat="45.76517" lon="6.0372">
        <ele>569.5</ele>
        <time>2021-08-28T06:58:14Z</time>
      </trkpt>
      <trkpt lat="45.76517" lon="6.03729">
        <ele>569.7</ele>
        <time>2021-08-28T06:58:16Z</time>
      </trkpt>
      <trkpt lat="45.76517" lon="6.03735">
        <ele>569.9</ele>
        <time>2021-08-28T06:58:17Z</time>
      </trkpt>
      <trkpt lat="45.76516" lon="6.03742">
        <ele>570</ele>
        <time>2021-08-28T06:58:19Z</time>
      </trkpt>
      <trkpt lat="45.76516" lon="6.03747">
        <ele>570.1</ele>
        <time>2021-08-28T06:58:21Z</time>
      </trkpt>
      <trkpt lat="45.76516" lon="6.03753">
        <ele>570.3</ele>
        <time>2021-08-28T06:58:22Z</time>
      </trkpt>
      <trkpt lat="45.76516" lon="6.03759">
        <ele>570.5</ele>
        <time>2021-08-28T06:58:23Z</time>
      </trkpt>
      <trkpt lat="45.76516" lon="6.03763">
        <ele>570.6</ele>
        <time>2021-08-28T06:58:24Z</time>
      </trkpt>
      <trkpt lat="45.76515" lon="6.03775">
        <ele>570.9</ele>
        <time>2021-08-28T06:58:26Z</time>
      </trkpt>
      <trkpt lat="45.76515" lon="6.03781">
        <ele>571.1</ele>
        <time>2021-08-28T06:58:28Z</time>
      </trkpt>
      <trkpt lat="45.76515" lon="6.03783">
        <ele>571.2</ele>
        <time>2021-08-28T06:58:29Z</time>
      </trkpt>
      <trkpt lat="45.76516" lon="6.03793">
        <ele>571.5</ele>
        <time>2021-08-28T06:58:31Z</time>
      </trkpt>
      <trkpt lat="45.76516" lon="6.03797">
        <ele>571.6</ele>
        <time>2021-08-28T06:58:32Z</time>
      </trkpt>
      <trkpt lat="45.76516" lon="6.03802">
        <ele>571.8</ele>
        <time>2021-08-28T06:58:34Z</time>
      </trkpt>
      <trkpt lat="45.76516" lon="6.0381">
        <ele>572.1</ele>
        <time>2021-08-28T06:58:36Z</time>
      </trkpt>
      <trkpt lat="45.76516" lon="6.03818">
        <ele>572.3</ele>
        <time>2021-08-28T06:58:38Z</time>
      </trkpt>
      <trkpt lat="45.76516" lon="6.03824">
        <ele>572.6</ele>
        <time>2021-08-28T06:58:41Z</time>
      </trkpt>
      <trkpt lat="45.76516" lon="6.03831">
        <ele>572.9</ele>
        <time>2021-08-28T06:58:43Z</time>
      </trkpt>
      <trkpt lat="45.76517" lon="6.03837">
        <ele>573</ele>
        <time>2021-08-28T06:58:45Z</time>
      </trkpt>
      <trkpt lat="45.76518" lon="6.03845">
        <ele>573.4</ele>
        <time>2021-08-28T06:58:47Z</time>
      </trkpt>
      <trkpt lat="45.76519" lon="6.03852">
        <ele>573.6</ele>
        <time>2021-08-28T06:58:50Z</time>
      </trkpt>
      <trkpt lat="45.76519" lon="6.03856">
        <ele>573.8</ele>
        <time>2021-08-28T06:58:51Z</time>
      </trkpt>
      <trkpt lat="45.7652" lon="6.03862">
        <ele>574</ele>
        <time>2021-08-28T06:58:52Z</time>
      </trkpt>
      <trkpt lat="45.76521" lon="6.03867">
        <ele>574.2</ele>
        <time>2021-08-28T06:58:55Z</time>
      </trkpt>
      <trkpt lat="45.76521" lon="6.03873">
        <ele>574.4</ele>
        <time>2021-08-28T06:58:56Z</time>
      </trkpt>
      <trkpt lat="45.76523" lon="6.03882">
        <ele>574.8</ele>
        <time>2021-08-28T06:58:59Z</time>
      </trkpt>
      <trkpt lat="45.76523" lon="6.03885">
        <ele>574.9</ele>
        <time>2021-08-28T06:59:00Z</time>
      </trkpt>
      <trkpt lat="45.76523" lon="6.03887">
        <ele>575</ele>
        <time>2021-08-28T06:59:01Z</time>
      </trkpt>
      <trkpt lat="45.76524" lon="6.03892">
        <ele>575.2</ele>
        <time>2021-08-28T06:59:02Z</time>
      </trkpt>
      <trkpt lat="45.76525" lon="6.03901">
        <ele>575.5</ele>
        <time>2021-08-28T06:59:03Z</time>
      </trkpt>
      <trkpt lat="45.76526" lon="6.03909">
        <ele>575.8</ele>
        <time>2021-08-28T06:59:06Z</time>
      </trkpt>
      <trkpt lat="45.76527" lon="6.03915">
        <ele>576.1</ele>
        <time>2021-08-28T06:59:08Z</time>
      </trkpt>
      <trkpt lat="45.76528" lon="6.0392">
        <ele>576.2</ele>
        <time>2021-08-28T06:59:10Z</time>
      </trkpt>
      <trkpt lat="45.76528" lon="6.03923">
        <ele>576.4</ele>
        <time>2021-08-28T06:59:11Z</time>
      </trkpt>
      <trkpt lat="45.76529" lon="6.03931">
        <ele>576.7</ele>
        <time>2021-08-28T06:59:13Z</time>
      </trkpt>
      <trkpt lat="45.76529" lon="6.0394">
        <ele>577</ele>
        <time>2021-08-28T06:59:16Z</time>
      </trkpt>
      <trkpt lat="45.7653" lon="6.03949">
        <ele>577.3</ele>
        <time>2021-08-28T06:59:18Z</time>
      </trkpt>
      <trkpt lat="45.76529" lon="6.03954">
        <ele>577.5</ele>
        <time>2021-08-28T06:59:21Z</time>
      </trkpt>
      <trkpt lat="45.76529" lon="6.03958">
        <ele>577.7</ele>
        <time>2021-08-28T06:59:22Z</time>
      </trkpt>
      <trkpt lat="45.76529" lon="6.03967">
        <ele>578.1</ele>
        <time>2021-08-28T06:59:25Z</time>
      </trkpt>
      <trkpt lat="45.76528" lon="6.03972">
        <ele>578.3</ele>
        <time>2021-08-28T06:59:26Z</time>
      </trkpt>
      <trkpt lat="45.76525" lon="6.03981">
        <ele>578.7</ele>
        <time>2021-08-28T06:59:28Z</time>
      </trkpt>
      <trkpt lat="45.76523" lon="6.03989">
        <ele>579.1</ele>
        <time>2021-08-28T06:59:31Z</time>
      </trkpt>
      <trkpt lat="45.76522" lon="6.03998">
        <ele>579.4</ele>
        <time>2021-08-28T06:59:34Z</time>
      </trkpt>
      <trkpt lat="45.76521" lon="6.04005">
        <ele>579.8</ele>
        <time>2021-08-28T06:59:36Z</time>
      </trkpt>
      <trkpt lat="45.76518" lon="6.04015">
        <ele>580.2</ele>
        <time>2021-08-28T06:59:39Z</time>
      </trkpt>
      <trkpt lat="45.76518" lon="6.0402">
        <ele>580.4</ele>
        <time>2021-08-28T06:59:41Z</time>
      </trkpt>
      <trkpt lat="45.76516" lon="6.04027">
        <ele>580.7</ele>
        <time>2021-08-28T06:59:43Z</time>
      </trkpt>
      <trkpt lat="45.76515" lon="6.04032">
        <ele>581</ele>
        <time>2021-08-28T06:59:45Z</time>
      </trkpt>
      <trkpt lat="45.76514" lon="6.04038">
        <ele>581.2</ele>
        <time>2021-08-28T06:59:47Z</time>
      </trkpt>
      <trkpt lat="45.76513" lon="6.04045">
        <ele>581.5</ele>
        <time>2021-08-28T06:59:49Z</time>
      </trkpt>
      <trkpt lat="45.76512" lon="6.04052">
        <ele>581.8</ele>
        <time>2021-08-28T06:59:51Z</time>
      </trkpt>
      <trkpt lat="45.76511" lon="6.04055">
        <ele>582</ele>
        <time>2021-08-28T06:59:52Z</time>
      </trkpt>
      <trkpt lat="45.7651" lon="6.04062">
        <ele>582.3</ele>
        <time>2021-08-28T06:59:54Z</time>
      </trkpt>
      <trkpt lat="45.76508" lon="6.04068">
        <ele>582.6</ele>
        <time>2021-08-28T06:59:56Z</time>
      </trkpt>
      <trkpt lat="45.76507" lon="6.04075">
        <ele>582.9</ele>
        <time>2021-08-28T06:59:58Z</time>
      </trkpt>
      <trkpt lat="45.76507" lon="6.04082">
        <ele>583.2</ele>
        <time>2021-08-28T07:00:00Z</time>
      </trkpt>
      <trkpt lat="45.76506" lon="6.04086">
        <ele>583.4</ele>
        <time>2021-08-28T07:00:01Z</time>
      </trkpt>
      <trkpt lat="45.76504" lon="6.04096">
        <ele>583.8</ele>
        <time>2021-08-28T07:00:04Z</time>
      </trkpt>
      <trkpt lat="45.76503" lon="6.04101">
        <ele>584</ele>
        <time>2021-08-28T07:00:06Z</time>
      </trkpt>
      <trkpt lat="45.76503" lon="6.04105">
        <ele>584.2</ele>
        <time>2021-08-28T07:00:09Z</time>
      </trkpt>
      <trkpt lat="45.76501" lon="6.04109">
        <ele>584.3</ele>
        <time>2021-08-28T07:00:10Z</time>
      </trkpt>
      <trkpt lat="45.765" lon="6.04118">
        <ele>584.4</ele>
        <time>2021-08-28T07:00:13Z</time>
      </trkpt>
      <trkpt lat="45.76499" lon="6.04123">
        <ele>584.6</ele>
        <time>2021-08-28T07:00:14Z</time>
      </trkpt>
      <trkpt lat="45.76498" lon="6.04129">
        <ele>584.7</ele>
        <time>2021-08-28T07:00:16Z</time>
      </trkpt>
      <trkpt lat="45.76497" lon="6.04135">
        <ele>584.8</ele>
        <time>2021-08-28T07:00:17Z</time>
      </trkpt>
      <trkpt lat="45.76496" lon="6.04144">
        <ele>585</ele>
        <time>2021-08-28T07:00:20Z</time>
      </trkpt>
      <trkpt lat="45.76494" lon="6.04152">
        <ele>585.2</ele>
        <time>2021-08-28T07:00:21Z</time>
      </trkpt>
      <trkpt lat="45.76492" lon="6.04161">
        <ele>585.3</ele>
        <time>2021-08-28T07:00:23Z</time>
      </trkpt>
      <trkpt lat="45.76491" lon="6.04168">
        <ele>585.5</ele>
        <time>2021-08-28T07:00:25Z</time>
      </trkpt>
      <trkpt lat="45.76489" lon="6.0418">
        <ele>585.7</ele>
        <time>2021-08-28T07:00:27Z</time>
      </trkpt>
      <trkpt lat="45.76486" lon="6.04187">
        <ele>585.9</ele>
        <time>2021-08-28T07:00:29Z</time>
      </trkpt>
      <trkpt lat="45.76485" lon="6.04194">
        <ele>586</ele>
        <time>2021-08-28T07:00:30Z</time>
      </trkpt>
      <trkpt lat="45.76484" lon="6.04203">
        <ele>586.2</ele>
        <time>2021-08-28T07:00:31Z</time>
      </trkpt>
      <trkpt lat="45.76483" lon="6.04207">
        <ele>586.2</ele>
        <time>2021-08-28T07:00:33Z</time>
      </trkpt>
      <trkpt lat="45.76482" lon="6.04211">
        <ele>586.3</ele>
        <time>2021-08-28T07:00:34Z</time>
      </trkpt>
      <trkpt lat="45.76479" lon="6.0422">
        <ele>586.5</ele>
        <time>2021-08-28T07:00:35Z</time>
      </trkpt>
      <trkpt lat="45.76477" lon="6.04225">
        <ele>586.6</ele>
        <time>2021-08-28T07:00:36Z</time>
      </trkpt>
      <trkpt lat="45.76474" lon="6.04234">
        <ele>586.7</ele>
        <time>2021-08-28T07:00:38Z</time>
      </trkpt>
      <trkpt lat="45.76473" lon="6.04239">
        <ele>586.8</ele>
        <time>2021-08-28T07:00:41Z</time>
      </trkpt>
      <trkpt lat="45.76471" lon="6.04243">
        <ele>586.9</ele>
        <time>2021-08-28T07:00:42Z</time>
      </trkpt>
      <trkpt lat="45.7647" lon="6.04247">
        <ele>587</ele>
        <time>2021-08-28T07:00:43Z</time>
      </trkpt>
      <trkpt lat="45.76468" lon="6.04252">
        <ele>587.1</ele>
        <time>2021-08-28T07:00:44Z</time>
      </trkpt>
      <trkpt lat="45.76465" lon="6.0426">
        <ele>587.2</ele>
        <time>2021-08-28T07:00:46Z</time>
      </trkpt>
      <trkpt lat="45.76462" lon="6.04268">
        <ele>587.3</ele>
        <time>2021-08-28T07:00:48Z</time>
      </trkpt>
      <trkpt lat="45.76459" lon="6.0428">
        <ele>587.5</ele>
        <time>2021-08-28T07:00:50Z</time>
      </trkpt>
      <trkpt lat="45.76457" lon="6.04288">
        <ele>587.7</ele>
        <time>2021-08-28T07:00:52Z</time>
      </trkpt>
      <trkpt lat="45.76452" lon="6.04301">
        <ele>587.9</ele>
        <time>2021-08-28T07:00:55Z</time>
      </trkpt>
      <trkpt lat="45.7645" lon="6.04312">
        <ele>588</ele>
        <time>2021-08-28T07:00:57Z</time>
      </trkpt>
      <trkpt lat="45.76446" lon="6.04321">
        <ele>588.2</ele>
        <time>2021-08-28T07:00:59Z</time>
      </trkpt>
      <trkpt lat="45.76443" lon="6.04331">
        <ele>588.4</ele>
        <time>2021-08-28T07:01:01Z</time>
      </trkpt>
      <trkpt lat="45.76439" lon="6.04347">
        <ele>588.7</ele>
        <time>2021-08-28T07:01:04Z</time>
      </trkpt>
      <trkpt lat="45.76436" lon="6.04357">
        <ele>588.9</ele>
        <time>2021-08-28T07:01:06Z</time>
      </trkpt>
      <trkpt lat="45.76434" lon="6.04363">
        <ele>589</ele>
        <time>2021-08-28T07:01:07Z</time>
      </trkpt>
      <trkpt lat="45.76433" lon="6.04365">
        <ele>589</ele>
        <time>2021-08-28T07:01:08Z</time>
      </trkpt>
      <trkpt lat="45.76432" lon="6.0437">
        <ele>589.1</ele>
        <time>2021-08-28T07:01:09Z</time>
      </trkpt>
      <trkpt lat="45.76431" lon="6.04372">
        <ele>589.2</ele>
        <time>2021-08-28T07:01:10Z</time>
      </trkpt>
      <trkpt lat="45.76428" lon="6.04384">
        <ele>589.3</ele>
        <time>2021-08-28T07:01:13Z</time>
      </trkpt>
      <trkpt lat="45.76426" lon="6.04395">
        <ele>589.5</ele>
        <time>2021-08-28T07:01:16Z</time>
      </trkpt>
      <trkpt lat="45.76425" lon="6.04401">
        <ele>589.6</ele>
        <time>2021-08-28T07:01:17Z</time>
      </trkpt>
      <trkpt lat="45.76423" lon="6.04414">
        <ele>589.8</ele>
        <time>2021-08-28T07:01:20Z</time>
      </trkpt>
      <trkpt lat="45.76421" lon="6.0442">
        <ele>589.9</ele>
        <time>2021-08-28T07:01:21Z</time>
      </trkpt>
      <trkpt lat="45.76419" lon="6.04431">
        <ele>590.1</ele>
        <time>2021-08-28T07:01:22Z</time>
      </trkpt>
      <trkpt lat="45.76418" lon="6.04437">
        <ele>590.2</ele>
        <time>2021-08-28T07:01:24Z</time>
      </trkpt>
      <trkpt lat="45.76416" lon="6.04442">
        <ele>590.2</ele>
        <time>2021-08-28T07:01:25Z</time>
      </trkpt>
      <trkpt lat="45.76415" lon="6.04453">
        <ele>590.4</ele>
        <time>2021-08-28T07:01:26Z</time>
      </trkpt>
      <trkpt lat="45.76414" lon="6.04458">
        <ele>590.5</ele>
        <time>2021-08-28T07:01:27Z</time>
      </trkpt>
      <trkpt lat="45.76412" lon="6.04463">
        <ele>590.6</ele>
        <time>2021-08-28T07:01:28Z</time>
      </trkpt>
      <trkpt lat="45.76411" lon="6.04467">
        <ele>590.6</ele>
        <time>2021-08-28T07:01:30Z</time>
      </trkpt>
      <trkpt lat="45.7641" lon="6.04471">
        <ele>590.7</ele>
        <time>2021-08-28T07:01:31Z</time>
      </trkpt>
      <trkpt lat="45.76409" lon="6.04482">
        <ele>590.9</ele>
        <time>2021-08-28T07:01:32Z</time>
      </trkpt>
      <trkpt lat="45.76408" lon="6.04488">
        <ele>591</ele>
        <time>2021-08-28T07:01:34Z</time>
      </trkpt>
      <trkpt lat="45.76406" lon="6.04493">
        <ele>591.1</ele>
        <time>2021-08-28T07:01:35Z</time>
      </trkpt>
      <trkpt lat="45.76404" lon="6.04504">
        <ele>591.2</ele>
        <time>2021-08-28T07:01:36Z</time>
      </trkpt>
      <trkpt lat="45.76402" lon="6.04511">
        <ele>591.3</ele>
        <time>2021-08-28T07:01:38Z</time>
      </trkpt>
      <trkpt lat="45.764" lon="6.04523">
        <ele>591.5</ele>
        <time>2021-08-28T07:01:40Z</time>
      </trkpt>
      <trkpt lat="45.764" lon="6.0453">
        <ele>591.6</ele>
        <time>2021-08-28T07:01:42Z</time>
      </trkpt>
      <trkpt lat="45.76398" lon="6.04543">
        <ele>591.8</ele>
        <time>2021-08-28T07:01:44Z</time>
      </trkpt>
      <trkpt lat="45.76397" lon="6.0455">
        <ele>592</ele>
        <time>2021-08-28T07:01:46Z</time>
      </trkpt>
      <trkpt lat="45.76397" lon="6.04555">
        <ele>592.1</ele>
        <time>2021-08-28T07:01:47Z</time>
      </trkpt>
      <trkpt lat="45.76397" lon="6.04561">
        <ele>592.2</ele>
        <time>2021-08-28T07:01:48Z</time>
      </trkpt>
      <trkpt lat="45.76397" lon="6.04571">
        <ele>592.3</ele>
        <time>2021-08-28T07:01:50Z</time>
      </trkpt>
      <trkpt lat="45.76397" lon="6.04575">
        <ele>592.4</ele>
        <time>2021-08-28T07:01:51Z</time>
      </trkpt>
      <trkpt lat="45.76398" lon="6.04586">
        <ele>592.6</ele>
        <time>2021-08-28T07:01:53Z</time>
      </trkpt>
      <trkpt lat="45.76398" lon="6.04595">
        <ele>592.8</ele>
        <time>2021-08-28T07:01:55Z</time>
      </trkpt>
      <trkpt lat="45.76398" lon="6.04606">
        <ele>593.1</ele>
        <time>2021-08-28T07:01:57Z</time>
      </trkpt>
      <trkpt lat="45.76399" lon="6.04614">
        <ele>593.2</ele>
        <time>2021-08-28T07:01:58Z</time>
      </trkpt>
      <trkpt lat="45.76399" lon="6.04627">
        <ele>593.5</ele>
        <time>2021-08-28T07:02:00Z</time>
      </trkpt>
      <trkpt lat="45.76399" lon="6.04634">
        <ele>593.6</ele>
        <time>2021-08-28T07:02:03Z</time>
      </trkpt>
      <trkpt lat="45.76399" lon="6.04641">
        <ele>593.7</ele>
        <time>2021-08-28T07:02:04Z</time>
      </trkpt>
      <trkpt lat="45.764" lon="6.04652">
        <ele>593.9</ele>
        <time>2021-08-28T07:02:07Z</time>
      </trkpt>
      <trkpt lat="45.764" lon="6.04657">
        <ele>594</ele>
        <time>2021-08-28T07:02:08Z</time>
      </trkpt>
      <trkpt lat="45.764" lon="6.04663">
        <ele>594.2</ele>
        <time>2021-08-28T07:02:09Z</time>
      </trkpt>
      <trkpt lat="45.76401" lon="6.04675">
        <ele>594.4</ele>
        <time>2021-08-28T07:02:10Z</time>
      </trkpt>
      <trkpt lat="45.764" lon="6.04685">
        <ele>594.6</ele>
        <time>2021-08-28T07:02:13Z</time>
      </trkpt>
      <trkpt lat="45.764" lon="6.04694">
        <ele>594.7</ele>
        <time>2021-08-28T07:02:15Z</time>
      </trkpt>
      <trkpt lat="45.764" lon="6.04704">
        <ele>594.9</ele>
        <time>2021-08-28T07:02:16Z</time>
      </trkpt>
      <trkpt lat="45.764" lon="6.04711">
        <ele>595</ele>
        <time>2021-08-28T07:02:18Z</time>
      </trkpt>
      <trkpt lat="45.764" lon="6.04722">
        <ele>595.1</ele>
        <time>2021-08-28T07:02:19Z</time>
      </trkpt>
      <trkpt lat="45.764" lon="6.04728">
        <ele>595.2</ele>
        <time>2021-08-28T07:02:21Z</time>
      </trkpt>
      <trkpt lat="45.76399" lon="6.04737">
        <ele>595.3</ele>
        <time>2021-08-28T07:02:23Z</time>
      </trkpt>
      <trkpt lat="45.76397" lon="6.04746">
        <ele>595.5</ele>
        <time>2021-08-28T07:02:25Z</time>
      </trkpt>
      <trkpt lat="45.76396" lon="6.04756">
        <ele>595.6</ele>
        <time>2021-08-28T07:02:27Z</time>
      </trkpt>
      <trkpt lat="45.76394" lon="6.04763">
        <ele>595.6</ele>
        <time>2021-08-28T07:02:28Z</time>
      </trkpt>
      <trkpt lat="45.76391" lon="6.04777">
        <ele>595.8</ele>
        <time>2021-08-28T07:02:29Z</time>
      </trkpt>
      <trkpt lat="45.76389" lon="6.04783">
        <ele>595.9</ele>
        <time>2021-08-28T07:02:31Z</time>
      </trkpt>
      <trkpt lat="45.76386" lon="6.04793">
        <ele>596</ele>
        <time>2021-08-28T07:02:33Z</time>
      </trkpt>
      <trkpt lat="45.76383" lon="6.04803">
        <ele>596</ele>
        <time>2021-08-28T07:02:34Z</time>
      </trkpt>
      <trkpt lat="45.76381" lon="6.04809">
        <ele>596</ele>
        <time>2021-08-28T07:02:36Z</time>
      </trkpt>
      <trkpt lat="45.76377" lon="6.04819">
        <ele>596.1</ele>
        <time>2021-08-28T07:02:38Z</time>
      </trkpt>
      <trkpt lat="45.76375" lon="6.04826">
        <ele>596.2</ele>
        <time>2021-08-28T07:02:39Z</time>
      </trkpt>
      <trkpt lat="45.76373" lon="6.04833">
        <ele>596.3</ele>
        <time>2021-08-28T07:02:40Z</time>
      </trkpt>
      <trkpt lat="45.76371" lon="6.0484">
        <ele>596.4</ele>
        <time>2021-08-28T07:02:41Z</time>
      </trkpt>
      <trkpt lat="45.76368" lon="6.04851">
        <ele>596.5</ele>
        <time>2021-08-28T07:02:43Z</time>
      </trkpt>
      <trkpt lat="45.76366" lon="6.04856">
        <ele>596.6</ele>
        <time>2021-08-28T07:02:44Z</time>
      </trkpt>
      <trkpt lat="45.76364" lon="6.04866">
        <ele>596.8</ele>
        <time>2021-08-28T07:02:46Z</time>
      </trkpt>
      <trkpt lat="45.76362" lon="6.04873">
        <ele>597</ele>
        <time>2021-08-28T07:02:47Z</time>
      </trkpt>
      <trkpt lat="45.76359" lon="6.04884">
        <ele>597.2</ele>
        <time>2021-08-28T07:02:48Z</time>
      </trkpt>
      <trkpt lat="45.76358" lon="6.0489">
        <ele>597.3</ele>
        <time>2021-08-28T07:02:50Z</time>
      </trkpt>
      <trkpt lat="45.76354" lon="6.04899">
        <ele>597.5</ele>
        <time>2021-08-28T07:02:53Z</time>
      </trkpt>
      <trkpt lat="45.76353" lon="6.04903">
        <ele>597.6</ele>
        <time>2021-08-28T07:02:54Z</time>
      </trkpt>
      <trkpt lat="45.76352" lon="6.04908">
        <ele>597.7</ele>
        <time>2021-08-28T07:02:55Z</time>
      </trkpt>
      <trkpt lat="45.76348" lon="6.04916">
        <ele>597.9</ele>
        <time>2021-08-28T07:02:57Z</time>
      </trkpt>
      <trkpt lat="45.76344" lon="6.04924">
        <ele>598.1</ele>
        <time>2021-08-28T07:02:58Z</time>
      </trkpt>
      <trkpt lat="45.76342" lon="6.04929">
        <ele>598.2</ele>
        <time>2021-08-28T07:03:00Z</time>
      </trkpt>
      <trkpt lat="45.76339" lon="6.04934">
        <ele>598.3</ele>
        <time>2021-08-28T07:03:02Z</time>
      </trkpt>
      <trkpt lat="45.76336" lon="6.04941">
        <ele>598.5</ele>
        <time>2021-08-28T07:03:04Z</time>
      </trkpt>
      <trkpt lat="45.76333" lon="6.04948">
        <ele>598.7</ele>
        <time>2021-08-28T07:03:05Z</time>
      </trkpt>
      <trkpt lat="45.7633" lon="6.04955">
        <ele>598.9</ele>
        <time>2021-08-28T07:03:08Z</time>
      </trkpt>
      <trkpt lat="45.76328" lon="6.04963">
        <ele>599.1</ele>
        <time>2021-08-28T07:03:09Z</time>
      </trkpt>
      <trkpt lat="45.76327" lon="6.04967">
        <ele>599.2</ele>
        <time>2021-08-28T07:03:10Z</time>
      </trkpt>
      <trkpt lat="45.76324" lon="6.04972">
        <ele>599.3</ele>
        <time>2021-08-28T07:03:12Z</time>
      </trkpt>
      <trkpt lat="45.76323" lon="6.04979">
        <ele>599.4</ele>
        <time>2021-08-28T07:03:14Z</time>
      </trkpt>
      <trkpt lat="45.76322" lon="6.04983">
        <ele>599.5</ele>
        <time>2021-08-28T07:03:15Z</time>
      </trkpt>
      <trkpt lat="45.7632" lon="6.04992">
        <ele>599.7</ele>
        <time>2021-08-28T07:03:17Z</time>
      </trkpt>
      <trkpt lat="45.76319" lon="6.04996">
        <ele>599.9</ele>
        <time>2021-08-28T07:03:18Z</time>
      </trkpt>
      <trkpt lat="45.76318" lon="6.05005">
        <ele>600</ele>
        <time>2021-08-28T07:03:20Z</time>
      </trkpt>
      <trkpt lat="45.76317" lon="6.05014">
        <ele>600.2</ele>
        <time>2021-08-28T07:03:21Z</time>
      </trkpt>
      <trkpt lat="45.76316" lon="6.05018">
        <ele>600.3</ele>
        <time>2021-08-28T07:03:23Z</time>
      </trkpt>
      <trkpt lat="45.76315" lon="6.05024">
        <ele>600.5</ele>
        <time>2021-08-28T07:03:24Z</time>
      </trkpt>
      <trkpt lat="45.76314" lon="6.05028">
        <ele>600.6</ele>
        <time>2021-08-28T07:03:25Z</time>
      </trkpt>
      <trkpt lat="45.76313" lon="6.05035">
        <ele>600.8</ele>
        <time>2021-08-28T07:03:27Z</time>
      </trkpt>
      <trkpt lat="45.76311" lon="6.05044">
        <ele>601</ele>
        <time>2021-08-28T07:03:29Z</time>
      </trkpt>
      <trkpt lat="45.7631" lon="6.05048">
        <ele>601.1</ele>
        <time>2021-08-28T07:03:30Z</time>
      </trkpt>
      <trkpt lat="45.76308" lon="6.05057">
        <ele>601.3</ele>
        <time>2021-08-28T07:03:32Z</time>
      </trkpt>
      <trkpt lat="45.76307" lon="6.05063">
        <ele>601.4</ele>
        <time>2021-08-28T07:03:33Z</time>
      </trkpt>
      <trkpt lat="45.76305" lon="6.05071">
        <ele>601.5</ele>
        <time>2021-08-28T07:03:35Z</time>
      </trkpt>
      <trkpt lat="45.76304" lon="6.05076">
        <ele>601.6</ele>
        <time>2021-08-28T07:03:36Z</time>
      </trkpt>
      <trkpt lat="45.76301" lon="6.05087">
        <ele>601.9</ele>
        <time>2021-08-28T07:03:37Z</time>
      </trkpt>
      <trkpt lat="45.763" lon="6.05091">
        <ele>602</ele>
        <time>2021-08-28T07:03:39Z</time>
      </trkpt>
      <trkpt lat="45.76297" lon="6.05099">
        <ele>602.1</ele>
        <time>2021-08-28T07:03:41Z</time>
      </trkpt>
      <trkpt lat="45.76295" lon="6.05107">
        <ele>602.3</ele>
        <time>2021-08-28T07:03:43Z</time>
      </trkpt>
      <trkpt lat="45.76294" lon="6.05111">
        <ele>602.4</ele>
        <time>2021-08-28T07:03:44Z</time>
      </trkpt>
      <trkpt lat="45.76292" lon="6.05115">
        <ele>602.5</ele>
        <time>2021-08-28T07:03:45Z</time>
      </trkpt>
      <trkpt lat="45.76288" lon="6.05123">
        <ele>602.7</ele>
        <time>2021-08-28T07:03:47Z</time>
      </trkpt>
      <trkpt lat="45.76284" lon="6.0513">
        <ele>602.8</ele>
        <time>2021-08-28T07:03:49Z</time>
      </trkpt>
      <trkpt lat="45.76281" lon="6.05138">
        <ele>603</ele>
        <time>2021-08-28T07:03:51Z</time>
      </trkpt>
      <trkpt lat="45.7628" lon="6.05141">
        <ele>603.1</ele>
        <time>2021-08-28T07:03:52Z</time>
      </trkpt>
      <trkpt lat="45.76277" lon="6.05148">
        <ele>603.2</ele>
        <time>2021-08-28T07:03:53Z</time>
      </trkpt>
      <trkpt lat="45.76276" lon="6.05151">
        <ele>603.3</ele>
        <time>2021-08-28T07:03:54Z</time>
      </trkpt>
      <trkpt lat="45.76274" lon="6.05155">
        <ele>603.4</ele>
        <time>2021-08-28T07:03:56Z</time>
      </trkpt>
      <trkpt lat="45.76271" lon="6.05161">
        <ele>603.5</ele>
        <time>2021-08-28T07:03:57Z</time>
      </trkpt>
      <trkpt lat="45.76267" lon="6.05169">
        <ele>603.6</ele>
        <time>2021-08-28T07:03:59Z</time>
      </trkpt>
      <trkpt lat="45.76265" lon="6.05174">
        <ele>603.7</ele>
        <time>2021-08-28T07:04:00Z</time>
      </trkpt>
      <trkpt lat="45.76262" lon="6.05184">
        <ele>603.9</ele>
        <time>2021-08-28T07:04:01Z</time>
      </trkpt>
      <trkpt lat="45.76259" lon="6.05189">
        <ele>604.1</ele>
        <time>2021-08-28T07:04:03Z</time>
      </trkpt>
      <trkpt lat="45.76256" lon="6.05196">
        <ele>604.2</ele>
        <time>2021-08-28T07:04:04Z</time>
      </trkpt>
      <trkpt lat="45.76253" lon="6.05204">
        <ele>604.4</ele>
        <time>2021-08-28T07:04:06Z</time>
      </trkpt>
      <trkpt lat="45.76251" lon="6.05208">
        <ele>604.5</ele>
        <time>2021-08-28T07:04:07Z</time>
      </trkpt>
      <trkpt lat="45.7625" lon="6.05213">
        <ele>604.6</ele>
        <time>2021-08-28T07:04:09Z</time>
      </trkpt>
      <trkpt lat="45.76249" lon="6.05216">
        <ele>604.6</ele>
        <time>2021-08-28T07:04:10Z</time>
      </trkpt>
      <trkpt lat="45.76246" lon="6.05223">
        <ele>604.8</ele>
        <time>2021-08-28T07:04:12Z</time>
      </trkpt>
      <trkpt lat="45.76242" lon="6.05231">
        <ele>605</ele>
        <time>2021-08-28T07:04:13Z</time>
      </trkpt>
      <trkpt lat="45.76239" lon="6.05239">
        <ele>605.2</ele>
        <time>2021-08-28T07:04:16Z</time>
      </trkpt>
      <trkpt lat="45.76235" lon="6.05247">
        <ele>605.4</ele>
        <time>2021-08-28T07:04:18Z</time>
      </trkpt>
      <trkpt lat="45.76231" lon="6.05254">
        <ele>605.6</ele>
        <time>2021-08-28T07:04:20Z</time>
      </trkpt>
      <trkpt lat="45.76229" lon="6.05257">
        <ele>605.7</ele>
        <time>2021-08-28T07:04:21Z</time>
      </trkpt>
      <trkpt lat="45.76223" lon="6.05263">
        <ele>605.9</ele>
        <time>2021-08-28T07:04:23Z</time>
      </trkpt>
      <trkpt lat="45.76219" lon="6.0527">
        <ele>606.1</ele>
        <time>2021-08-28T07:04:25Z</time>
      </trkpt>
      <trkpt lat="45.76216" lon="6.05273">
        <ele>606.2</ele>
        <time>2021-08-28T07:04:26Z</time>
      </trkpt>
      <trkpt lat="45.76212" lon="6.05276">
        <ele>606.3</ele>
        <time>2021-08-28T07:04:27Z</time>
      </trkpt>
      <trkpt lat="45.76209" lon="6.05278">
        <ele>606.4</ele>
        <time>2021-08-28T07:04:28Z</time>
      </trkpt>
      <trkpt lat="45.76206" lon="6.05283">
        <ele>606.6</ele>
        <time>2021-08-28T07:04:30Z</time>
      </trkpt>
      <trkpt lat="45.76203" lon="6.05285">
        <ele>606.7</ele>
        <time>2021-08-28T07:04:31Z</time>
      </trkpt>
      <trkpt lat="45.76198" lon="6.05289">
        <ele>606.9</ele>
        <time>2021-08-28T07:04:32Z</time>
      </trkpt>
      <trkpt lat="45.76194" lon="6.05292">
        <ele>607</ele>
        <time>2021-08-28T07:04:34Z</time>
      </trkpt>
      <trkpt lat="45.76191" lon="6.05295">
        <ele>607.1</ele>
        <time>2021-08-28T07:04:35Z</time>
      </trkpt>
      <trkpt lat="45.76189" lon="6.05297">
        <ele>607.2</ele>
        <time>2021-08-28T07:04:37Z</time>
      </trkpt>
      <trkpt lat="45.76184" lon="6.05304">
        <ele>607.4</ele>
        <time>2021-08-28T07:04:39Z</time>
      </trkpt>
      <trkpt lat="45.76178" lon="6.05308">
        <ele>607.6</ele>
        <time>2021-08-28T07:04:41Z</time>
      </trkpt>
      <trkpt lat="45.76173" lon="6.05311">
        <ele>607.8</ele>
        <time>2021-08-28T07:04:43Z</time>
      </trkpt>
      <trkpt lat="45.76167" lon="6.05316">
        <ele>608</ele>
        <time>2021-08-28T07:04:45Z</time>
      </trkpt>
      <trkpt lat="45.76163" lon="6.05319">
        <ele>608.2</ele>
        <time>2021-08-28T07:04:46Z</time>
      </trkpt>
      <trkpt lat="45.76161" lon="6.0532">
        <ele>608.3</ele>
        <time>2021-08-28T07:04:47Z</time>
      </trkpt>
      <trkpt lat="45.76157" lon="6.05324">
        <ele>608.5</ele>
        <time>2021-08-28T07:04:49Z</time>
      </trkpt>
      <trkpt lat="45.76154" lon="6.05325">
        <ele>608.6</ele>
        <time>2021-08-28T07:04:50Z</time>
      </trkpt>
      <trkpt lat="45.76149" lon="6.05329">
        <ele>608.8</ele>
        <time>2021-08-28T07:04:52Z</time>
      </trkpt>
      <trkpt lat="45.76147" lon="6.0533">
        <ele>608.9</ele>
        <time>2021-08-28T07:04:53Z</time>
      </trkpt>
      <trkpt lat="45.76142" lon="6.05333">
        <ele>609.2</ele>
        <time>2021-08-28T07:04:55Z</time>
      </trkpt>
      <trkpt lat="45.76139" lon="6.05337">
        <ele>609.3</ele>
        <time>2021-08-28T07:04:56Z</time>
      </trkpt>
      <trkpt lat="45.76135" lon="6.05342">
        <ele>609.5</ele>
        <time>2021-08-28T07:04:58Z</time>
      </trkpt>
      <trkpt lat="45.76132" lon="6.05344">
        <ele>609.6</ele>
        <time>2021-08-28T07:04:59Z</time>
      </trkpt>
      <trkpt lat="45.76131" lon="6.05348">
        <ele>609.7</ele>
        <time>2021-08-28T07:05:00Z</time>
      </trkpt>
      <trkpt lat="45.76126" lon="6.05354">
        <ele>609.9</ele>
        <time>2021-08-28T07:05:02Z</time>
      </trkpt>
      <trkpt lat="45.76122" lon="6.05361">
        <ele>610.1</ele>
        <time>2021-08-28T07:05:04Z</time>
      </trkpt>
      <trkpt lat="45.76119" lon="6.05365">
        <ele>610.3</ele>
        <time>2021-08-28T07:05:05Z</time>
      </trkpt>
      <trkpt lat="45.76118" lon="6.05367">
        <ele>610.3</ele>
        <time>2021-08-28T07:05:06Z</time>
      </trkpt>
      <trkpt lat="45.76114" lon="6.05376">
        <ele>610.6</ele>
        <time>2021-08-28T07:05:08Z</time>
      </trkpt>
      <trkpt lat="45.7611" lon="6.05387">
        <ele>610.9</ele>
        <time>2021-08-28T07:05:11Z</time>
      </trkpt>
      <trkpt lat="45.76107" lon="6.05395">
        <ele>611.1</ele>
        <time>2021-08-28T07:05:13Z</time>
      </trkpt>
      <trkpt lat="45.76106" lon="6.05399">
        <ele>611.2</ele>
        <time>2021-08-28T07:05:14Z</time>
      </trkpt>
      <trkpt lat="45.76103" lon="6.0541">
        <ele>611.4</ele>
        <time>2021-08-28T07:05:16Z</time>
      </trkpt>
      <trkpt lat="45.761" lon="6.05419">
        <ele>611.6</ele>
        <time>2021-08-28T07:05:18Z</time>
      </trkpt>
      <trkpt lat="45.76098" lon="6.05426">
        <ele>611.7</ele>
        <time>2021-08-28T07:05:19Z</time>
      </trkpt>
      <trkpt lat="45.76095" lon="6.05434">
        <ele>611.9</ele>
        <time>2021-08-28T07:05:21Z</time>
      </trkpt>
      <trkpt lat="45.76093" lon="6.05441">
        <ele>612</ele>
        <time>2021-08-28T07:05:22Z</time>
      </trkpt>
      <trkpt lat="45.76091" lon="6.05447">
        <ele>612.1</ele>
        <time>2021-08-28T07:05:23Z</time>
      </trkpt>
      <trkpt lat="45.7609" lon="6.05449">
        <ele>612.2</ele>
        <time>2021-08-28T07:05:24Z</time>
      </trkpt>
      <trkpt lat="45.76088" lon="6.05453">
        <ele>612.3</ele>
        <time>2021-08-28T07:05:26Z</time>
      </trkpt>
      <trkpt lat="45.76087" lon="6.05455">
        <ele>612.3</ele>
        <time>2021-08-28T07:05:27Z</time>
      </trkpt>
      <trkpt lat="45.76085" lon="6.05462">
        <ele>612.5</ele>
        <time>2021-08-28T07:05:28Z</time>
      </trkpt>
      <trkpt lat="45.76084" lon="6.05466">
        <ele>612.6</ele>
        <time>2021-08-28T07:05:29Z</time>
      </trkpt>
      <trkpt lat="45.76081" lon="6.05474">
        <ele>612.8</ele>
        <time>2021-08-28T07:05:31Z</time>
      </trkpt>
      <trkpt lat="45.76079" lon="6.05479">
        <ele>612.9</ele>
        <time>2021-08-28T07:05:32Z</time>
      </trkpt>
      <trkpt lat="45.76078" lon="6.05483">
        <ele>613</ele>
        <time>2021-08-28T07:05:34Z</time>
      </trkpt>
      <trkpt lat="45.76075" lon="6.05489">
        <ele>613.2</ele>
        <time>2021-08-28T07:05:35Z</time>
      </trkpt>
      <trkpt lat="45.76072" lon="6.05496">
        <ele>613.3</ele>
        <time>2021-08-28T07:05:37Z</time>
      </trkpt>
      <trkpt lat="45.76071" lon="6.055">
        <ele>613.4</ele>
        <time>2021-08-28T07:05:38Z</time>
      </trkpt>
      <trkpt lat="45.76069" lon="6.05503">
        <ele>613.5</ele>
        <time>2021-08-28T07:05:39Z</time>
      </trkpt>
      <trkpt lat="45.76068" lon="6.05508">
        <ele>613.6</ele>
        <time>2021-08-28T07:05:40Z</time>
      </trkpt>
      <trkpt lat="45.76066" lon="6.05511">
        <ele>613.7</ele>
        <time>2021-08-28T07:05:42Z</time>
      </trkpt>
      <trkpt lat="45.76065" lon="6.05513">
        <ele>613.8</ele>
        <time>2021-08-28T07:05:43Z</time>
      </trkpt>
      <trkpt lat="45.76063" lon="6.05519">
        <ele>613.9</ele>
        <time>2021-08-28T07:05:44Z</time>
      </trkpt>
      <trkpt lat="45.76062" lon="6.05521">
        <ele>613.9</ele>
        <time>2021-08-28T07:05:45Z</time>
      </trkpt>
      <trkpt lat="45.76058" lon="6.05528">
        <ele>614.1</ele>
        <time>2021-08-28T07:05:47Z</time>
      </trkpt>
      <trkpt lat="45.76054" lon="6.05535">
        <ele>614.3</ele>
        <time>2021-08-28T07:05:49Z</time>
      </trkpt>
      <trkpt lat="45.76051" lon="6.05538">
        <ele>614.4</ele>
        <time>2021-08-28T07:05:52Z</time>
      </trkpt>
      <trkpt lat="45.7605" lon="6.05539">
        <ele>614.4</ele>
        <time>2021-08-28T07:05:53Z</time>
      </trkpt>
      <trkpt lat="45.76047" lon="6.05543">
        <ele>614.5</ele>
        <time>2021-08-28T07:05:54Z</time>
      </trkpt>
      <trkpt lat="45.76044" lon="6.05547">
        <ele>614.6</ele>
        <time>2021-08-28T07:05:55Z</time>
      </trkpt>
      <trkpt lat="45.76043" lon="6.05548">
        <ele>614.7</ele>
        <time>2021-08-28T07:05:56Z</time>
      </trkpt>
      <trkpt lat="45.7604" lon="6.05551">
        <ele>614.8</ele>
        <time>2021-08-28T07:05:57Z</time>
      </trkpt>
      <trkpt lat="45.76036" lon="6.05554">
        <ele>614.8</ele>
        <time>2021-08-28T07:05:58Z</time>
      </trkpt>
      <trkpt lat="45.76035" lon="6.05555">
        <ele>614.9</ele>
        <time>2021-08-28T07:05:59Z</time>
      </trkpt>
      <trkpt lat="45.76032" lon="6.05557">
        <ele>615</ele>
        <time>2021-08-28T07:06:00Z</time>
      </trkpt>
      <trkpt lat="45.76029" lon="6.05558">
        <ele>615</ele>
        <time>2021-08-28T07:06:01Z</time>
      </trkpt>
      <trkpt lat="45.76026" lon="6.05558">
        <ele>615.1</ele>
        <time>2021-08-28T07:06:02Z</time>
      </trkpt>
      <trkpt lat="45.76022" lon="6.05559">
        <ele>615.2</ele>
        <time>2021-08-28T07:06:03Z</time>
      </trkpt>
      <trkpt lat="45.76019" lon="6.05559">
        <ele>615.2</ele>
        <time>2021-08-28T07:06:04Z</time>
      </trkpt>
      <trkpt lat="45.76016" lon="6.05559">
        <ele>615.3</ele>
        <time>2021-08-28T07:06:05Z</time>
      </trkpt>
      <trkpt lat="45.76012" lon="6.05558">
        <ele>615.3</ele>
        <time>2021-08-28T07:06:06Z</time>
      </trkpt>
      <trkpt lat="45.76008" lon="6.05558">
        <ele>615.4</ele>
        <time>2021-08-28T07:06:07Z</time>
      </trkpt>
      <trkpt lat="45.76005" lon="6.05558">
        <ele>615.5</ele>
        <time>2021-08-28T07:06:08Z</time>
      </trkpt>
      <trkpt lat="45.76" lon="6.05557">
        <ele>615.6</ele>
        <time>2021-08-28T07:06:09Z</time>
      </trkpt>
      <trkpt lat="45.75998" lon="6.05556">
        <ele>615.6</ele>
        <time>2021-08-28T07:06:10Z</time>
      </trkpt>
      <trkpt lat="45.75994" lon="6.05555">
        <ele>615.7</ele>
        <time>2021-08-28T07:06:11Z</time>
      </trkpt>
      <trkpt lat="45.75992" lon="6.05555">
        <ele>615.7</ele>
        <time>2021-08-28T07:06:12Z</time>
      </trkpt>
      <trkpt lat="45.75989" lon="6.05555">
        <ele>615.7</ele>
        <time>2021-08-28T07:06:13Z</time>
      </trkpt>
      <trkpt lat="45.75984" lon="6.05555">
        <ele>615.8</ele>
        <time>2021-08-28T07:06:14Z</time>
      </trkpt>
      <trkpt lat="45.75981" lon="6.05555">
        <ele>615.9</ele>
        <time>2021-08-28T07:06:15Z</time>
      </trkpt>
      <trkpt lat="45.75978" lon="6.05555">
        <ele>615.9</ele>
        <time>2021-08-28T07:06:16Z</time>
      </trkpt>
      <trkpt lat="45.75974" lon="6.05555">
        <ele>616</ele>
        <time>2021-08-28T07:06:17Z</time>
      </trkpt>
      <trkpt lat="45.75971" lon="6.05556">
        <ele>616.1</ele>
        <time>2021-08-28T07:06:18Z</time>
      </trkpt>
      <trkpt lat="45.75967" lon="6.05557">
        <ele>616.2</ele>
        <time>2021-08-28T07:06:19Z</time>
      </trkpt>
      <trkpt lat="45.75955" lon="6.05561">
        <ele>616.5</ele>
        <time>2021-08-28T07:06:20Z</time>
      </trkpt>
      <trkpt lat="45.7595" lon="6.05563">
        <ele>616.6</ele>
        <time>2021-08-28T07:06:22Z</time>
      </trkpt>
      <trkpt lat="45.75943" lon="6.05567">
        <ele>616.8</ele>
        <time>2021-08-28T07:06:23Z</time>
      </trkpt>
      <trkpt lat="45.7594" lon="6.0557">
        <ele>616.9</ele>
        <time>2021-08-28T07:06:24Z</time>
      </trkpt>
      <trkpt lat="45.75936" lon="6.05576">
        <ele>617</ele>
        <time>2021-08-28T07:06:26Z</time>
      </trkpt>
      <trkpt lat="45.75931" lon="6.05584">
        <ele>617.2</ele>
        <time>2021-08-28T07:06:27Z</time>
      </trkpt>
      <trkpt lat="45.75928" lon="6.05591">
        <ele>617.4</ele>
        <time>2021-08-28T07:06:29Z</time>
      </trkpt>
      <trkpt lat="45.75927" lon="6.05596">
        <ele>617.5</ele>
        <time>2021-08-28T07:06:30Z</time>
      </trkpt>
      <trkpt lat="45.75926" lon="6.05607">
        <ele>617.7</ele>
        <time>2021-08-28T07:06:32Z</time>
      </trkpt>
      <trkpt lat="45.75925" lon="6.05613">
        <ele>617.8</ele>
        <time>2021-08-28T07:06:33Z</time>
      </trkpt>
      <trkpt lat="45.75924" lon="6.05623">
        <ele>618</ele>
        <time>2021-08-28T07:06:35Z</time>
      </trkpt>
      <trkpt lat="45.75925" lon="6.05629">
        <ele>618.1</ele>
        <time>2021-08-28T07:06:36Z</time>
      </trkpt>
      <trkpt lat="45.75923" lon="6.0564">
        <ele>618.3</ele>
        <time>2021-08-28T07:06:37Z</time>
      </trkpt>
      <trkpt lat="45.75923" lon="6.05647">
        <ele>618.5</ele>
        <time>2021-08-28T07:06:39Z</time>
      </trkpt>
      <trkpt lat="45.75923" lon="6.05654">
        <ele>618.6</ele>
        <time>2021-08-28T07:06:41Z</time>
      </trkpt>
      <trkpt lat="45.75922" lon="6.05658">
        <ele>618.6</ele>
        <time>2021-08-28T07:06:42Z</time>
      </trkpt>
      <trkpt lat="45.75922" lon="6.05662">
        <ele>618.7</ele>
        <time>2021-08-28T07:06:43Z</time>
      </trkpt>
      <trkpt lat="45.75921" lon="6.05669">
        <ele>618.8</ele>
        <time>2021-08-28T07:06:45Z</time>
      </trkpt>
      <trkpt lat="45.7592" lon="6.05672">
        <ele>618.9</ele>
        <time>2021-08-28T07:06:46Z</time>
      </trkpt>
      <trkpt lat="45.75918" lon="6.05682">
        <ele>619</ele>
        <time>2021-08-28T07:06:48Z</time>
      </trkpt>
      <trkpt lat="45.75915" lon="6.05691">
        <ele>619.2</ele>
        <time>2021-08-28T07:06:50Z</time>
      </trkpt>
      <trkpt lat="45.75912" lon="6.05697">
        <ele>619.3</ele>
        <time>2021-08-28T07:06:52Z</time>
      </trkpt>
      <trkpt lat="45.75911" lon="6.05701">
        <ele>619.4</ele>
        <time>2021-08-28T07:06:53Z</time>
      </trkpt>
      <trkpt lat="45.75909" lon="6.05704">
        <ele>619.4</ele>
        <time>2021-08-28T07:06:54Z</time>
      </trkpt>
      <trkpt lat="45.75906" lon="6.05712">
        <ele>619.6</ele>
        <time>2021-08-28T07:06:56Z</time>
      </trkpt>
      <trkpt lat="45.75904" lon="6.05716">
        <ele>619.6</ele>
        <time>2021-08-28T07:06:57Z</time>
      </trkpt>
      <trkpt lat="45.75901" lon="6.05725">
        <ele>619.8</ele>
        <time>2021-08-28T07:06:58Z</time>
      </trkpt>
      <trkpt lat="45.759" lon="6.05729">
        <ele>619.8</ele>
        <time>2021-08-28T07:07:00Z</time>
      </trkpt>
      <trkpt lat="45.75899" lon="6.05733">
        <ele>619.9</ele>
        <time>2021-08-28T07:07:01Z</time>
      </trkpt>
      <trkpt lat="45.75898" lon="6.05741">
        <ele>620</ele>
        <time>2021-08-28T07:07:03Z</time>
      </trkpt>
      <trkpt lat="45.75897" lon="6.05745">
        <ele>620.1</ele>
        <time>2021-08-28T07:07:04Z</time>
      </trkpt>
      <trkpt lat="45.75896" lon="6.05751">
        <ele>620.1</ele>
        <time>2021-08-28T07:07:05Z</time>
      </trkpt>
      <trkpt lat="45.75894" lon="6.05757">
        <ele>620.2</ele>
        <time>2021-08-28T07:07:06Z</time>
      </trkpt>
      <trkpt lat="45.75892" lon="6.05766">
        <ele>620.4</ele>
        <time>2021-08-28T07:07:08Z</time>
      </trkpt>
      <trkpt lat="45.75891" lon="6.05774">
        <ele>620.5</ele>
        <time>2021-08-28T07:07:09Z</time>
      </trkpt>
      <trkpt lat="45.75888" lon="6.05787">
        <ele>620.7</ele>
        <time>2021-08-28T07:07:11Z</time>
      </trkpt>
      <trkpt lat="45.75886" lon="6.05793">
        <ele>620.8</ele>
        <time>2021-08-28T07:07:13Z</time>
      </trkpt>
      <trkpt lat="45.75883" lon="6.058">
        <ele>620.8</ele>
        <time>2021-08-28T07:07:14Z</time>
      </trkpt>
      <trkpt lat="45.7588" lon="6.05805">
        <ele>620.8</ele>
        <time>2021-08-28T07:07:15Z</time>
      </trkpt>
      <trkpt lat="45.75876" lon="6.05808">
        <ele>620.8</ele>
        <time>2021-08-28T07:07:17Z</time>
      </trkpt>
      <trkpt lat="45.75873" lon="6.05808">
        <ele>620.8</ele>
        <time>2021-08-28T07:07:18Z</time>
      </trkpt>
      <trkpt lat="45.75866" lon="6.05811">
        <ele>620.7</ele>
        <time>2021-08-28T07:07:20Z</time>
      </trkpt>
      <trkpt lat="45.75862" lon="6.05812">
        <ele>620.6</ele>
        <time>2021-08-28T07:07:21Z</time>
      </trkpt>
      <trkpt lat="45.75854" lon="6.05814">
        <ele>620.5</ele>
        <time>2021-08-28T07:07:22Z</time>
      </trkpt>
      <trkpt lat="45.75844" lon="6.05815">
        <ele>620.3</ele>
        <time>2021-08-28T07:07:25Z</time>
      </trkpt>
      <trkpt lat="45.75833" lon="6.05809">
        <ele>620</ele>
        <time>2021-08-28T07:07:28Z</time>
      </trkpt>
      <trkpt lat="45.75828" lon="6.0581">
        <ele>619.9</ele>
        <time>2021-08-28T07:07:29Z</time>
      </trkpt>
      <trkpt lat="45.75823" lon="6.0581">
        <ele>619.8</ele>
        <time>2021-08-28T07:07:30Z</time>
      </trkpt>
      <trkpt lat="45.75817" lon="6.05811">
        <ele>619.6</ele>
        <time>2021-08-28T07:07:31Z</time>
      </trkpt>
      <trkpt lat="45.75812" lon="6.05812">
        <ele>619.5</ele>
        <time>2021-08-28T07:07:32Z</time>
      </trkpt>
      <trkpt lat="45.75806" lon="6.05813">
        <ele>619.4</ele>
        <time>2021-08-28T07:07:33Z</time>
      </trkpt>
      <trkpt lat="45.758" lon="6.05814">
        <ele>619.2</ele>
        <time>2021-08-28T07:07:34Z</time>
      </trkpt>
      <trkpt lat="45.75794" lon="6.05815">
        <ele>619.1</ele>
        <time>2021-08-28T07:07:35Z</time>
      </trkpt>
      <trkpt lat="45.75788" lon="6.05816">
        <ele>618.9</ele>
        <time>2021-08-28T07:07:36Z</time>
      </trkpt>
      <trkpt lat="45.75782" lon="6.05816">
        <ele>618.8</ele>
        <time>2021-08-28T07:07:37Z</time>
      </trkpt>
      <trkpt lat="45.75776" lon="6.05817">
        <ele>618.7</ele>
        <time>2021-08-28T07:07:38Z</time>
      </trkpt>
      <trkpt lat="45.75769" lon="6.05818">
        <ele>618.5</ele>
        <time>2021-08-28T07:07:39Z</time>
      </trkpt>
      <trkpt lat="45.75763" lon="6.05819">
        <ele>618.4</ele>
        <time>2021-08-28T07:07:40Z</time>
      </trkpt>
      <trkpt lat="45.75757" lon="6.0582">
        <ele>618.3</ele>
        <time>2021-08-28T07:07:41Z</time>
      </trkpt>
      <trkpt lat="45.75751" lon="6.05822">
        <ele>618.1</ele>
        <time>2021-08-28T07:07:42Z</time>
      </trkpt>
      <trkpt lat="45.75745" lon="6.05825">
        <ele>618</ele>
        <time>2021-08-28T07:07:43Z</time>
      </trkpt>
      <trkpt lat="45.75739" lon="6.05827">
        <ele>617.8</ele>
        <time>2021-08-28T07:07:44Z</time>
      </trkpt>
      <trkpt lat="45.75733" lon="6.05831">
        <ele>617.6</ele>
        <time>2021-08-28T07:07:45Z</time>
      </trkpt>
      <trkpt lat="45.75727" lon="6.05835">
        <ele>617.5</ele>
        <time>2021-08-28T07:07:46Z</time>
      </trkpt>
      <trkpt lat="45.75722" lon="6.05839">
        <ele>617.3</ele>
        <time>2021-08-28T07:07:47Z</time>
      </trkpt>
      <trkpt lat="45.75716" lon="6.05844">
        <ele>617.1</ele>
        <time>2021-08-28T07:07:48Z</time>
      </trkpt>
      <trkpt lat="45.75711" lon="6.0585">
        <ele>616.9</ele>
        <time>2021-08-28T07:07:49Z</time>
      </trkpt>
      <trkpt lat="45.75706" lon="6.05856">
        <ele>616.7</ele>
        <time>2021-08-28T07:07:50Z</time>
      </trkpt>
      <trkpt lat="45.75701" lon="6.05862">
        <ele>616.4</ele>
        <time>2021-08-28T07:07:51Z</time>
      </trkpt>
      <trkpt lat="45.75696" lon="6.05869">
        <ele>616.3</ele>
        <time>2021-08-28T07:07:52Z</time>
      </trkpt>
      <trkpt lat="45.75692" lon="6.05876">
        <ele>616.1</ele>
        <time>2021-08-28T07:07:53Z</time>
      </trkpt>
      <trkpt lat="45.75687" lon="6.05883">
        <ele>615.9</ele>
        <time>2021-08-28T07:07:54Z</time>
      </trkpt>
      <trkpt lat="45.75682" lon="6.0589">
        <ele>615.7</ele>
        <time>2021-08-28T07:07:55Z</time>
      </trkpt>
      <trkpt lat="45.75678" lon="6.05897">
        <ele>615.5</ele>
        <time>2021-08-28T07:07:56Z</time>
      </trkpt>
      <trkpt lat="45.75673" lon="6.05904">
        <ele>615.3</ele>
        <time>2021-08-28T07:07:57Z</time>
      </trkpt>
      <trkpt lat="45.75668" lon="6.05911">
        <ele>615.1</ele>
        <time>2021-08-28T07:07:58Z</time>
      </trkpt>
      <trkpt lat="45.75663" lon="6.05918">
        <ele>614.9</ele>
        <time>2021-08-28T07:07:59Z</time>
      </trkpt>
      <trkpt lat="45.75659" lon="6.05925">
        <ele>614.7</ele>
        <time>2021-08-28T07:08:00Z</time>
      </trkpt>
      <trkpt lat="45.75654" lon="6.05933">
        <ele>614.5</ele>
        <time>2021-08-28T07:08:01Z</time>
      </trkpt>
      <trkpt lat="45.75649" lon="6.0594">
        <ele>614.4</ele>
        <time>2021-08-28T07:08:02Z</time>
      </trkpt>
      <trkpt lat="45.75644" lon="6.05947">
        <ele>614.2</ele>
        <time>2021-08-28T07:08:03Z</time>
      </trkpt>
      <trkpt lat="45.75639" lon="6.05954">
        <ele>614</ele>
        <time>2021-08-28T07:08:04Z</time>
      </trkpt>
      <trkpt lat="45.75634" lon="6.0596">
        <ele>613.8</ele>
        <time>2021-08-28T07:08:05Z</time>
      </trkpt>
      <trkpt lat="45.75628" lon="6.05967">
        <ele>613.6</ele>
        <time>2021-08-28T07:08:06Z</time>
      </trkpt>
      <trkpt lat="45.75623" lon="6.05973">
        <ele>613.4</ele>
        <time>2021-08-28T07:08:07Z</time>
      </trkpt>
      <trkpt lat="45.75617" lon="6.05978">
        <ele>613.2</ele>
        <time>2021-08-28T07:08:08Z</time>
      </trkpt>
      <trkpt lat="45.75611" lon="6.05983">
        <ele>613</ele>
        <time>2021-08-28T07:08:09Z</time>
      </trkpt>
      <trkpt lat="45.75604" lon="6.05988">
        <ele>612.8</ele>
        <time>2021-08-28T07:08:10Z</time>
      </trkpt>
      <trkpt lat="45.75598" lon="6.05993">
        <ele>612.6</ele>
        <time>2021-08-28T07:08:11Z</time>
      </trkpt>
      <trkpt lat="45.75591" lon="6.05997">
        <ele>612.4</ele>
        <time>2021-08-28T07:08:12Z</time>
      </trkpt>
      <trkpt lat="45.75584" lon="6.06">
        <ele>612.2</ele>
        <time>2021-08-28T07:08:13Z</time>
      </trkpt>
      <trkpt lat="45.75578" lon="6.06003">
        <ele>612</ele>
        <time>2021-08-28T07:08:14Z</time>
      </trkpt>
      <trkpt lat="45.75571" lon="6.06006">
        <ele>611.8</ele>
        <time>2021-08-28T07:08:15Z</time>
      </trkpt>
      <trkpt lat="45.75564" lon="6.06008">
        <ele>611.6</ele>
        <time>2021-08-28T07:08:16Z</time>
      </trkpt>
      <trkpt lat="45.75557" lon="6.06011">
        <ele>611.4</ele>
        <time>2021-08-28T07:08:17Z</time>
      </trkpt>
      <trkpt lat="45.7555" lon="6.06013">
        <ele>611.2</ele>
        <time>2021-08-28T07:08:18Z</time>
      </trkpt>
      <trkpt lat="45.75543" lon="6.06015">
        <ele>610.9</ele>
        <time>2021-08-28T07:08:19Z</time>
      </trkpt>
      <trkpt lat="45.75535" lon="6.06017">
        <ele>610.7</ele>
        <time>2021-08-28T07:08:20Z</time>
      </trkpt>
      <trkpt lat="45.75528" lon="6.06019">
        <ele>610.5</ele>
        <time>2021-08-28T07:08:21Z</time>
      </trkpt>
      <trkpt lat="45.7552" lon="6.06021">
        <ele>610.2</ele>
        <time>2021-08-28T07:08:22Z</time>
      </trkpt>
      <trkpt lat="45.75513" lon="6.06023">
        <ele>610</ele>
        <time>2021-08-28T07:08:23Z</time>
      </trkpt>
      <trkpt lat="45.75506" lon="6.06026">
        <ele>609.7</ele>
        <time>2021-08-28T07:08:24Z</time>
      </trkpt>
      <trkpt lat="45.75498" lon="6.06028">
        <ele>609.4</ele>
        <time>2021-08-28T07:08:25Z</time>
      </trkpt>
      <trkpt lat="45.75491" lon="6.06031">
        <ele>609.2</ele>
        <time>2021-08-28T07:08:26Z</time>
      </trkpt>
      <trkpt lat="45.75484" lon="6.06034">
        <ele>608.9</ele>
        <time>2021-08-28T07:08:27Z</time>
      </trkpt>
      <trkpt lat="45.75477" lon="6.06037">
        <ele>608.7</ele>
        <time>2021-08-28T07:08:28Z</time>
      </trkpt>
      <trkpt lat="45.7547" lon="6.06041">
        <ele>608.5</ele>
        <time>2021-08-28T07:08:29Z</time>
      </trkpt>
      <trkpt lat="45.75464" lon="6.06046">
        <ele>608.3</ele>
        <time>2021-08-28T07:08:30Z</time>
      </trkpt>
      <trkpt lat="45.75457" lon="6.06052">
        <ele>608.1</ele>
        <time>2021-08-28T07:08:31Z</time>
      </trkpt>
      <trkpt lat="45.75452" lon="6.06058">
        <ele>608</ele>
        <time>2021-08-28T07:08:32Z</time>
      </trkpt>
      <trkpt lat="45.75446" lon="6.06065">
        <ele>607.8</ele>
        <time>2021-08-28T07:08:33Z</time>
      </trkpt>
      <trkpt lat="45.7544" lon="6.06072">
        <ele>607.6</ele>
        <time>2021-08-28T07:08:34Z</time>
      </trkpt>
      <trkpt lat="45.75435" lon="6.0608">
        <ele>607.5</ele>
        <time>2021-08-28T07:08:35Z</time>
      </trkpt>
      <trkpt lat="45.75429" lon="6.06087">
        <ele>607.3</ele>
        <time>2021-08-28T07:08:36Z</time>
      </trkpt>
      <trkpt lat="45.75424" lon="6.06094">
        <ele>607.1</ele>
        <time>2021-08-28T07:08:37Z</time>
      </trkpt>
      <trkpt lat="45.75419" lon="6.06101">
        <ele>607</ele>
        <time>2021-08-28T07:08:38Z</time>
      </trkpt>
      <trkpt lat="45.75414" lon="6.06109">
        <ele>606.8</ele>
        <time>2021-08-28T07:08:39Z</time>
      </trkpt>
      <trkpt lat="45.75408" lon="6.06115">
        <ele>606.6</ele>
        <time>2021-08-28T07:08:40Z</time>
      </trkpt>
      <trkpt lat="45.75402" lon="6.06121">
        <ele>606.5</ele>
        <time>2021-08-28T07:08:41Z</time>
      </trkpt>
      <trkpt lat="45.75396" lon="6.06127">
        <ele>606.3</ele>
        <time>2021-08-28T07:08:42Z</time>
      </trkpt>
      <trkpt lat="45.7539" lon="6.06132">
        <ele>606.1</ele>
        <time>2021-08-28T07:08:43Z</time>
      </trkpt>
      <trkpt lat="45.75383" lon="6.06137">
        <ele>605.9</ele>
        <time>2021-08-28T07:08:44Z</time>
      </trkpt>
      <trkpt lat="45.75376" lon="6.0614">
        <ele>605.7</ele>
        <time>2021-08-28T07:08:45Z</time>
      </trkpt>
      <trkpt lat="45.75368" lon="6.06143">
        <ele>605.6</ele>
        <time>2021-08-28T07:08:46Z</time>
      </trkpt>
      <trkpt lat="45.75361" lon="6.06145">
        <ele>605.4</ele>
        <time>2021-08-28T07:08:47Z</time>
      </trkpt>
      <trkpt lat="45.75354" lon="6.06147">
        <ele>605.3</ele>
        <time>2021-08-28T07:08:48Z</time>
      </trkpt>
      <trkpt lat="45.75346" lon="6.06148">
        <ele>605.2</ele>
        <time>2021-08-28T07:08:49Z</time>
      </trkpt>
      <trkpt lat="45.75338" lon="6.0615">
        <ele>605.1</ele>
        <time>2021-08-28T07:08:50Z</time>
      </trkpt>
      <trkpt lat="45.75331" lon="6.06152">
        <ele>605</ele>
        <time>2021-08-28T07:08:51Z</time>
      </trkpt>
      <trkpt lat="45.75323" lon="6.06153">
        <ele>604.9</ele>
        <time>2021-08-28T07:08:52Z</time>
      </trkpt>
      <trkpt lat="45.75316" lon="6.06154">
        <ele>604.9</ele>
        <time>2021-08-28T07:08:53Z</time>
      </trkpt>
      <trkpt lat="45.75309" lon="6.06155">
        <ele>604.8</ele>
        <time>2021-08-28T07:08:54Z</time>
      </trkpt>
      <trkpt lat="45.75302" lon="6.06156">
        <ele>604.8</ele>
        <time>2021-08-28T07:08:55Z</time>
      </trkpt>
      <trkpt lat="45.75295" lon="6.06158">
        <ele>604.8</ele>
        <time>2021-08-28T07:08:56Z</time>
      </trkpt>
      <trkpt lat="45.75288" lon="6.06161">
        <ele>604.8</ele>
        <time>2021-08-28T07:08:57Z</time>
      </trkpt>
      <trkpt lat="45.75282" lon="6.06164">
        <ele>604.7</ele>
        <time>2021-08-28T07:08:58Z</time>
      </trkpt>
      <trkpt lat="45.75276" lon="6.06168">
        <ele>604.7</ele>
        <time>2021-08-28T07:08:59Z</time>
      </trkpt>
      <trkpt lat="45.75271" lon="6.06174">
        <ele>604.7</ele>
        <time>2021-08-28T07:09:00Z</time>
      </trkpt>
      <trkpt lat="45.75266" lon="6.0618">
        <ele>604.6</ele>
        <time>2021-08-28T07:09:01Z</time>
      </trkpt>
      <trkpt lat="45.75262" lon="6.06188">
        <ele>604.6</ele>
        <time>2021-08-28T07:09:02Z</time>
      </trkpt>
      <trkpt lat="45.75259" lon="6.06196">
        <ele>604.5</ele>
        <time>2021-08-28T07:09:03Z</time>
      </trkpt>
      <trkpt lat="45.75257" lon="6.06204">
        <ele>604.5</ele>
        <time>2021-08-28T07:09:04Z</time>
      </trkpt>
      <trkpt lat="45.75255" lon="6.06213">
        <ele>604.4</ele>
        <time>2021-08-28T07:09:05Z</time>
      </trkpt>
      <trkpt lat="45.75253" lon="6.06221">
        <ele>604.4</ele>
        <time>2021-08-28T07:09:06Z</time>
      </trkpt>
      <trkpt lat="45.75251" lon="6.0623">
        <ele>604.3</ele>
        <time>2021-08-28T07:09:07Z</time>
      </trkpt>
      <trkpt lat="45.7525" lon="6.06238">
        <ele>604.3</ele>
        <time>2021-08-28T07:09:08Z</time>
      </trkpt>
      <trkpt lat="45.75248" lon="6.06246">
        <ele>604.3</ele>
        <time>2021-08-28T07:09:09Z</time>
      </trkpt>
      <trkpt lat="45.75247" lon="6.06255">
        <ele>604.3</ele>
        <time>2021-08-28T07:09:10Z</time>
      </trkpt>
      <trkpt lat="45.75245" lon="6.06263">
        <ele>604.3</ele>
        <time>2021-08-28T07:09:11Z</time>
      </trkpt>
      <trkpt lat="45.75243" lon="6.06272">
        <ele>604.3</ele>
        <time>2021-08-28T07:09:12Z</time>
      </trkpt>
      <trkpt lat="45.75241" lon="6.0628">
        <ele>604.3</ele>
        <time>2021-08-28T07:09:13Z</time>
      </trkpt>
      <trkpt lat="45.75239" lon="6.06288">
        <ele>604.3</ele>
        <time>2021-08-28T07:09:14Z</time>
      </trkpt>
      <trkpt lat="45.75236" lon="6.06296">
        <ele>604.2</ele>
        <time>2021-08-28T07:09:15Z</time>
      </trkpt>
      <trkpt lat="45.75233" lon="6.06304">
        <ele>604.2</ele>
        <time>2021-08-28T07:09:16Z</time>
      </trkpt>
      <trkpt lat="45.7523" lon="6.06311">
        <ele>604.2</ele>
        <time>2021-08-28T07:09:17Z</time>
      </trkpt>
      <trkpt lat="45.75227" lon="6.06318">
        <ele>604.2</ele>
        <time>2021-08-28T07:09:18Z</time>
      </trkpt>
      <trkpt lat="45.75223" lon="6.06325">
        <ele>604.2</ele>
        <time>2021-08-28T07:09:19Z</time>
      </trkpt>
      <trkpt lat="45.7522" lon="6.06332">
        <ele>604.2</ele>
        <time>2021-08-28T07:09:20Z</time>
      </trkpt>
      <trkpt lat="45.75216" lon="6.06339">
        <ele>604.2</ele>
        <time>2021-08-28T07:09:21Z</time>
      </trkpt>
      <trkpt lat="45.75212" lon="6.06345">
        <ele>604.2</ele>
        <time>2021-08-28T07:09:22Z</time>
      </trkpt>
      <trkpt lat="45.75208" lon="6.06351">
        <ele>604.2</ele>
        <time>2021-08-28T07:09:23Z</time>
      </trkpt>
      <trkpt lat="45.75204" lon="6.06357">
        <ele>604.2</ele>
        <time>2021-08-28T07:09:24Z</time>
      </trkpt>
      <trkpt lat="45.752" lon="6.06363">
        <ele>604.2</ele>
        <time>2021-08-28T07:09:25Z</time>
      </trkpt>
      <trkpt lat="45.75196" lon="6.06369">
        <ele>604.2</ele>
        <time>2021-08-28T07:09:26Z</time>
      </trkpt>
      <trkpt lat="45.75192" lon="6.06374">
        <ele>604.2</ele>
        <time>2021-08-28T07:09:27Z</time>
      </trkpt>
      <trkpt lat="45.75188" lon="6.0638">
        <ele>604.2</ele>
        <time>2021-08-28T07:09:28Z</time>
      </trkpt>
      <trkpt lat="45.75184" lon="6.06386">
        <ele>604.2</ele>
        <time>2021-08-28T07:09:29Z</time>
      </trkpt>
      <trkpt lat="45.7518" lon="6.06391">
        <ele>604.2</ele>
        <time>2021-08-28T07:09:30Z</time>
      </trkpt>
      <trkpt lat="45.75176" lon="6.06396">
        <ele>604.2</ele>
        <time>2021-08-28T07:09:31Z</time>
      </trkpt>
      <trkpt lat="45.75172" lon="6.06401">
        <ele>604.2</ele>
        <time>2021-08-28T07:09:32Z</time>
      </trkpt>
      <trkpt lat="45.75167" lon="6.06406">
        <ele>604.2</ele>
        <time>2021-08-28T07:09:33Z</time>
      </trkpt>
      <trkpt lat="45.75163" lon="6.06411">
        <ele>604.1</ele>
        <time>2021-08-28T07:09:34Z</time>
      </trkpt>
      <trkpt lat="45.75159" lon="6.06416">
        <ele>604.1</ele>
        <time>2021-08-28T07:09:35Z</time>
      </trkpt>
      <trkpt lat="45.75155" lon="6.06421">
        <ele>604.1</ele>
        <time>2021-08-28T07:09:36Z</time>
      </trkpt>
      <trkpt lat="45.75151" lon="6.06425">
        <ele>604.1</ele>
        <time>2021-08-28T07:09:37Z</time>
      </trkpt>
      <trkpt lat="45.75146" lon="6.0643">
        <ele>604.1</ele>
        <time>2021-08-28T07:09:38Z</time>
      </trkpt>
      <trkpt lat="45.75142" lon="6.06435">
        <ele>604.1</ele>
        <time>2021-08-28T07:09:39Z</time>
      </trkpt>
      <trkpt lat="45.75138" lon="6.0644">
        <ele>604.1</ele>
        <time>2021-08-28T07:09:40Z</time>
      </trkpt>
      <trkpt lat="45.75134" lon="6.06445">
        <ele>604.1</ele>
        <time>2021-08-28T07:09:41Z</time>
      </trkpt>
      <trkpt lat="45.7513" lon="6.06449">
        <ele>604.1</ele>
        <time>2021-08-28T07:09:42Z</time>
      </trkpt>
      <trkpt lat="45.75125" lon="6.06454">
        <ele>604</ele>
        <time>2021-08-28T07:09:43Z</time>
      </trkpt>
      <trkpt lat="45.75121" lon="6.06459">
        <ele>604</ele>
        <time>2021-08-28T07:09:44Z</time>
      </trkpt>
      <trkpt lat="45.75117" lon="6.06464">
        <ele>604</ele>
        <time>2021-08-28T07:09:45Z</time>
      </trkpt>
      <trkpt lat="45.75113" lon="6.06469">
        <ele>603.9</ele>
        <time>2021-08-28T07:09:46Z</time>
      </trkpt>
      <trkpt lat="45.75109" lon="6.06474">
        <ele>603.9</ele>
        <time>2021-08-28T07:09:47Z</time>
      </trkpt>
      <trkpt lat="45.75104" lon="6.06478">
        <ele>603.8</ele>
        <time>2021-08-28T07:09:48Z</time>
      </trkpt>
      <trkpt lat="45.751" lon="6.06483">
        <ele>603.8</ele>
        <time>2021-08-28T07:09:49Z</time>
      </trkpt>
      <trkpt lat="45.75096" lon="6.06488">
        <ele>603.8</ele>
        <time>2021-08-28T07:09:50Z</time>
      </trkpt>
      <trkpt lat="45.75093" lon="6.06494">
        <ele>603.7</ele>
        <time>2021-08-28T07:09:51Z</time>
      </trkpt>
      <trkpt lat="45.75089" lon="6.065">
        <ele>603.7</ele>
        <time>2021-08-28T07:09:52Z</time>
      </trkpt>
      <trkpt lat="45.75086" lon="6.06506">
        <ele>603.7</ele>
        <time>2021-08-28T07:09:53Z</time>
      </trkpt>
      <trkpt lat="45.75083" lon="6.06512">
        <ele>603.7</ele>
        <time>2021-08-28T07:09:54Z</time>
      </trkpt>
      <trkpt lat="45.7508" lon="6.06518">
        <ele>603.7</ele>
        <time>2021-08-28T07:09:55Z</time>
      </trkpt>
      <trkpt lat="45.75077" lon="6.06525">
        <ele>603.7</ele>
        <time>2021-08-28T07:09:56Z</time>
      </trkpt>
      <trkpt lat="45.75074" lon="6.06532">
        <ele>603.7</ele>
        <time>2021-08-28T07:09:57Z</time>
      </trkpt>
      <trkpt lat="45.75072" lon="6.06538">
        <ele>603.7</ele>
        <time>2021-08-28T07:09:58Z</time>
      </trkpt>
      <trkpt lat="45.75069" lon="6.06546">
        <ele>603.6</ele>
        <time>2021-08-28T07:09:59Z</time>
      </trkpt>
      <trkpt lat="45.75067" lon="6.06552">
        <ele>603.6</ele>
        <time>2021-08-28T07:10:00Z</time>
      </trkpt>
      <trkpt lat="45.75064" lon="6.06559">
        <ele>603.6</ele>
        <time>2021-08-28T07:10:01Z</time>
      </trkpt>
      <trkpt lat="45.75062" lon="6.06566">
        <ele>603.6</ele>
        <time>2021-08-28T07:10:02Z</time>
      </trkpt>
      <trkpt lat="45.75059" lon="6.06573">
        <ele>603.6</ele>
        <time>2021-08-28T07:10:03Z</time>
      </trkpt>
      <trkpt lat="45.75057" lon="6.06579">
        <ele>603.5</ele>
        <time>2021-08-28T07:10:04Z</time>
      </trkpt>
      <trkpt lat="45.75055" lon="6.06587">
        <ele>603.5</ele>
        <time>2021-08-28T07:10:05Z</time>
      </trkpt>
      <trkpt lat="45.75052" lon="6.06593">
        <ele>603.5</ele>
        <time>2021-08-28T07:10:06Z</time>
      </trkpt>
      <trkpt lat="45.7505" lon="6.066">
        <ele>603.5</ele>
        <time>2021-08-28T07:10:07Z</time>
      </trkpt>
      <trkpt lat="45.75048" lon="6.06607">
        <ele>603.5</ele>
        <time>2021-08-28T07:10:08Z</time>
      </trkpt>
      <trkpt lat="45.75045" lon="6.06614">
        <ele>603.4</ele>
        <time>2021-08-28T07:10:09Z</time>
      </trkpt>
      <trkpt lat="45.75043" lon="6.06621">
        <ele>603.4</ele>
        <time>2021-08-28T07:10:10Z</time>
      </trkpt>
      <trkpt lat="45.7504" lon="6.06628">
        <ele>603.4</ele>
        <time>2021-08-28T07:10:11Z</time>
      </trkpt>
      <trkpt lat="45.75038" lon="6.06635">
        <ele>603.4</ele>
        <time>2021-08-28T07:10:12Z</time>
      </trkpt>
      <trkpt lat="45.75035" lon="6.06642">
        <ele>603.3</ele>
        <time>2021-08-28T07:10:13Z</time>
      </trkpt>
      <trkpt lat="45.75033" lon="6.06649">
        <ele>603.3</ele>
        <time>2021-08-28T07:10:14Z</time>
      </trkpt>
      <trkpt lat="45.75031" lon="6.06657">
        <ele>603.3</ele>
        <time>2021-08-28T07:10:15Z</time>
      </trkpt>
      <trkpt lat="45.75028" lon="6.06664">
        <ele>603.3</ele>
        <time>2021-08-28T07:10:16Z</time>
      </trkpt>
      <trkpt lat="45.75026" lon="6.06671">
        <ele>603.3</ele>
        <time>2021-08-28T07:10:17Z</time>
      </trkpt>
      <trkpt lat="45.75023" lon="6.06678">
        <ele>603.3</ele>
        <time>2021-08-28T07:10:18Z</time>
      </trkpt>
      <trkpt lat="45.7502" lon="6.06685">
        <ele>603.3</ele>
        <time>2021-08-28T07:10:19Z</time>
      </trkpt>
      <trkpt lat="45.75017" lon="6.06692">
        <ele>603.2</ele>
        <time>2021-08-28T07:10:20Z</time>
      </trkpt>
      <trkpt lat="45.75013" lon="6.06698">
        <ele>603.2</ele>
        <time>2021-08-28T07:10:21Z</time>
      </trkpt>
      <trkpt lat="45.75009" lon="6.06703">
        <ele>603.2</ele>
        <time>2021-08-28T07:10:22Z</time>
      </trkpt>
      <trkpt lat="45.75005" lon="6.06708">
        <ele>603.1</ele>
        <time>2021-08-28T07:10:23Z</time>
      </trkpt>
      <trkpt lat="45.75001" lon="6.06713">
        <ele>603.1</ele>
        <time>2021-08-28T07:10:24Z</time>
      </trkpt>
      <trkpt lat="45.74996" lon="6.06718">
        <ele>603.1</ele>
        <time>2021-08-28T07:10:25Z</time>
      </trkpt>
      <trkpt lat="45.74992" lon="6.06722">
        <ele>603.1</ele>
        <time>2021-08-28T07:10:26Z</time>
      </trkpt>
      <trkpt lat="45.74988" lon="6.06727">
        <ele>603</ele>
        <time>2021-08-28T07:10:27Z</time>
      </trkpt>
      <trkpt lat="45.74983" lon="6.06731">
        <ele>603</ele>
        <time>2021-08-28T07:10:28Z</time>
      </trkpt>
      <trkpt lat="45.74979" lon="6.06736">
        <ele>603</ele>
        <time>2021-08-28T07:10:29Z</time>
      </trkpt>
      <trkpt lat="45.74975" lon="6.06741">
        <ele>603</ele>
        <time>2021-08-28T07:10:30Z</time>
      </trkpt>
      <trkpt lat="45.74971" lon="6.06746">
        <ele>602.9</ele>
        <time>2021-08-28T07:10:31Z</time>
      </trkpt>
      <trkpt lat="45.74968" lon="6.06752">
        <ele>602.9</ele>
        <time>2021-08-28T07:10:32Z</time>
      </trkpt>
      <trkpt lat="45.74964" lon="6.06758">
        <ele>602.9</ele>
        <time>2021-08-28T07:10:33Z</time>
      </trkpt>
      <trkpt lat="45.74961" lon="6.06764">
        <ele>602.9</ele>
        <time>2021-08-28T07:10:34Z</time>
      </trkpt>
      <trkpt lat="45.74958" lon="6.06771">
        <ele>602.8</ele>
        <time>2021-08-28T07:10:35Z</time>
      </trkpt>
      <trkpt lat="45.74956" lon="6.06778">
        <ele>602.8</ele>
        <time>2021-08-28T07:10:36Z</time>
      </trkpt>
      <trkpt lat="45.74953" lon="6.06784">
        <ele>602.8</ele>
        <time>2021-08-28T07:10:37Z</time>
      </trkpt>
      <trkpt lat="45.7495" lon="6.0679">
        <ele>602.8</ele>
        <time>2021-08-28T07:10:38Z</time>
      </trkpt>
      <trkpt lat="45.74947" lon="6.06797">
        <ele>602.8</ele>
        <time>2021-08-28T07:10:39Z</time>
      </trkpt>
      <trkpt lat="45.74944" lon="6.06804">
        <ele>602.8</ele>
        <time>2021-08-28T07:10:40Z</time>
      </trkpt>
      <trkpt lat="45.74942" lon="6.06812">
        <ele>602.8</ele>
        <time>2021-08-28T07:10:41Z</time>
      </trkpt>
      <trkpt lat="45.7494" lon="6.06819">
        <ele>602.8</ele>
        <time>2021-08-28T07:10:42Z</time>
      </trkpt>
      <trkpt lat="45.74938" lon="6.06826">
        <ele>602.8</ele>
        <time>2021-08-28T07:10:43Z</time>
      </trkpt>
      <trkpt lat="45.74936" lon="6.06833">
        <ele>602.8</ele>
        <time>2021-08-28T07:10:44Z</time>
      </trkpt>
      <trkpt lat="45.74935" lon="6.0684">
        <ele>602.8</ele>
        <time>2021-08-28T07:10:45Z</time>
      </trkpt>
      <trkpt lat="45.74933" lon="6.06847">
        <ele>602.8</ele>
        <time>2021-08-28T07:10:46Z</time>
      </trkpt>
      <trkpt lat="45.74931" lon="6.06854">
        <ele>602.7</ele>
        <time>2021-08-28T07:10:47Z</time>
      </trkpt>
      <trkpt lat="45.7493" lon="6.06862">
        <ele>602.7</ele>
        <time>2021-08-28T07:10:48Z</time>
      </trkpt>
      <trkpt lat="45.74928" lon="6.06869">
        <ele>602.7</ele>
        <time>2021-08-28T07:10:49Z</time>
      </trkpt>
      <trkpt lat="45.74926" lon="6.06876">
        <ele>602.6</ele>
        <time>2021-08-28T07:10:50Z</time>
      </trkpt>
      <trkpt lat="45.74924" lon="6.06884">
        <ele>602.6</ele>
        <time>2021-08-28T07:10:51Z</time>
      </trkpt>
      <trkpt lat="45.74923" lon="6.06892">
        <ele>602.6</ele>
        <time>2021-08-28T07:10:52Z</time>
      </trkpt>
      <trkpt lat="45.74921" lon="6.069">
        <ele>602.6</ele>
        <time>2021-08-28T07:10:53Z</time>
      </trkpt>
      <trkpt lat="45.7492" lon="6.06907">
        <ele>602.5</ele>
        <time>2021-08-28T07:10:54Z</time>
      </trkpt>
      <trkpt lat="45.74919" lon="6.06914">
        <ele>602.5</ele>
        <time>2021-08-28T07:10:55Z</time>
      </trkpt>
      <trkpt lat="45.74917" lon="6.06921">
        <ele>602.5</ele>
        <time>2021-08-28T07:10:56Z</time>
      </trkpt>
      <trkpt lat="45.74916" lon="6.06929">
        <ele>602.5</ele>
        <time>2021-08-28T07:10:57Z</time>
      </trkpt>
      <trkpt lat="45.74914" lon="6.06936">
        <ele>602.5</ele>
        <time>2021-08-28T07:10:58Z</time>
      </trkpt>
      <trkpt lat="45.74913" lon="6.06944">
        <ele>602.5</ele>
        <time>2021-08-28T07:10:59Z</time>
      </trkpt>
      <trkpt lat="45.74911" lon="6.06951">
        <ele>602.5</ele>
        <time>2021-08-28T07:11:00Z</time>
      </trkpt>
      <trkpt lat="45.7491" lon="6.06959">
        <ele>602.5</ele>
        <time>2021-08-28T07:11:01Z</time>
      </trkpt>
      <trkpt lat="45.74909" lon="6.06966">
        <ele>602.5</ele>
        <time>2021-08-28T07:11:02Z</time>
      </trkpt>
      <trkpt lat="45.74908" lon="6.06974">
        <ele>602.5</ele>
        <time>2021-08-28T07:11:03Z</time>
      </trkpt>
      <trkpt lat="45.74906" lon="6.06982">
        <ele>602.5</ele>
        <time>2021-08-28T07:11:04Z</time>
      </trkpt>
      <trkpt lat="45.74905" lon="6.0699">
        <ele>602.5</ele>
        <time>2021-08-28T07:11:05Z</time>
      </trkpt>
      <trkpt lat="45.74902" lon="6.06997">
        <ele>602.5</ele>
        <time>2021-08-28T07:11:06Z</time>
      </trkpt>
      <trkpt lat="45.749" lon="6.07005">
        <ele>602.5</ele>
        <time>2021-08-28T07:11:07Z</time>
      </trkpt>
      <trkpt lat="45.74898" lon="6.07012">
        <ele>602.5</ele>
        <time>2021-08-28T07:11:08Z</time>
      </trkpt>
      <trkpt lat="45.74895" lon="6.07019">
        <ele>602.4</ele>
        <time>2021-08-28T07:11:09Z</time>
      </trkpt>
      <trkpt lat="45.74892" lon="6.07026">
        <ele>602.4</ele>
        <time>2021-08-28T07:11:10Z</time>
      </trkpt>
      <trkpt lat="45.74889" lon="6.07032">
        <ele>602.4</ele>
        <time>2021-08-28T07:11:11Z</time>
      </trkpt>
      <trkpt lat="45.74885" lon="6.07038">
        <ele>602.3</ele>
        <time>2021-08-28T07:11:12Z</time>
      </trkpt>
      <trkpt lat="45.74882" lon="6.07044">
        <ele>602.3</ele>
        <time>2021-08-28T07:11:13Z</time>
      </trkpt>
      <trkpt lat="45.74879" lon="6.0705">
        <ele>602.3</ele>
        <time>2021-08-28T07:11:14Z</time>
      </trkpt>
      <trkpt lat="45.74877" lon="6.07056">
        <ele>602.3</ele>
        <time>2021-08-28T07:11:15Z</time>
      </trkpt>
      <trkpt lat="45.74874" lon="6.07062">
        <ele>602.3</ele>
        <time>2021-08-28T07:11:16Z</time>
      </trkpt>
      <trkpt lat="45.74871" lon="6.07068">
        <ele>602.2</ele>
        <time>2021-08-28T07:11:17Z</time>
      </trkpt>
      <trkpt lat="45.74868" lon="6.07074">
        <ele>602.2</ele>
        <time>2021-08-28T07:11:18Z</time>
      </trkpt>
      <trkpt lat="45.74865" lon="6.0708">
        <ele>602.2</ele>
        <time>2021-08-28T07:11:19Z</time>
      </trkpt>
      <trkpt lat="45.74863" lon="6.07087">
        <ele>602.2</ele>
        <time>2021-08-28T07:11:20Z</time>
      </trkpt>
      <trkpt lat="45.7486" lon="6.07093">
        <ele>602.2</ele>
        <time>2021-08-28T07:11:21Z</time>
      </trkpt>
      <trkpt lat="45.74858" lon="6.071">
        <ele>602.2</ele>
        <time>2021-08-28T07:11:22Z</time>
      </trkpt>
      <trkpt lat="45.74855" lon="6.07107">
        <ele>602.2</ele>
        <time>2021-08-28T07:11:23Z</time>
      </trkpt>
      <trkpt lat="45.74852" lon="6.07114">
        <ele>602.1</ele>
        <time>2021-08-28T07:11:24Z</time>
      </trkpt>
      <trkpt lat="45.7485" lon="6.07121">
        <ele>602.1</ele>
        <time>2021-08-28T07:11:25Z</time>
      </trkpt>
      <trkpt lat="45.74847" lon="6.07128">
        <ele>602.1</ele>
        <time>2021-08-28T07:11:26Z</time>
      </trkpt>
      <trkpt lat="45.74844" lon="6.07135">
        <ele>602.1</ele>
        <time>2021-08-28T07:11:27Z</time>
      </trkpt>
      <trkpt lat="45.74842" lon="6.07142">
        <ele>602.1</ele>
        <time>2021-08-28T07:11:28Z</time>
      </trkpt>
      <trkpt lat="45.74839" lon="6.07149">
        <ele>602</ele>
        <time>2021-08-28T07:11:29Z</time>
      </trkpt>
      <trkpt lat="45.74836" lon="6.07155">
        <ele>602</ele>
        <time>2021-08-28T07:11:30Z</time>
      </trkpt>
      <trkpt lat="45.74832" lon="6.07161">
        <ele>602</ele>
        <time>2021-08-28T07:11:31Z</time>
      </trkpt>
      <trkpt lat="45.74829" lon="6.07167">
        <ele>602</ele>
        <time>2021-08-28T07:11:32Z</time>
      </trkpt>
      <trkpt lat="45.74825" lon="6.07173">
        <ele>602</ele>
        <time>2021-08-28T07:11:33Z</time>
      </trkpt>
      <trkpt lat="45.74821" lon="6.07178">
        <ele>602</ele>
        <time>2021-08-28T07:11:34Z</time>
      </trkpt>
      <trkpt lat="45.74818" lon="6.07183">
        <ele>602</ele>
        <time>2021-08-28T07:11:35Z</time>
      </trkpt>
      <trkpt lat="45.74814" lon="6.07189">
        <ele>602</ele>
        <time>2021-08-28T07:11:36Z</time>
      </trkpt>
      <trkpt lat="45.74811" lon="6.07195">
        <ele>602.1</ele>
        <time>2021-08-28T07:11:37Z</time>
      </trkpt>
      <trkpt lat="45.74808" lon="6.07201">
        <ele>602.1</ele>
        <time>2021-08-28T07:11:38Z</time>
      </trkpt>
      <trkpt lat="45.74807" lon="6.07208">
        <ele>602.1</ele>
        <time>2021-08-28T07:11:39Z</time>
      </trkpt>
      <trkpt lat="45.74805" lon="6.07215">
        <ele>602.1</ele>
        <time>2021-08-28T07:11:40Z</time>
      </trkpt>
      <trkpt lat="45.74804" lon="6.07223">
        <ele>602.1</ele>
        <time>2021-08-28T07:11:41Z</time>
      </trkpt>
      <trkpt lat="45.74804" lon="6.0723">
        <ele>602.1</ele>
        <time>2021-08-28T07:11:42Z</time>
      </trkpt>
      <trkpt lat="45.74805" lon="6.07238">
        <ele>602.1</ele>
        <time>2021-08-28T07:11:43Z</time>
      </trkpt>
      <trkpt lat="45.74806" lon="6.07246">
        <ele>602.1</ele>
        <time>2021-08-28T07:11:44Z</time>
      </trkpt>
      <trkpt lat="45.74807" lon="6.07254">
        <ele>602.1</ele>
        <time>2021-08-28T07:11:45Z</time>
      </trkpt>
      <trkpt lat="45.74808" lon="6.07261">
        <ele>602.1</ele>
        <time>2021-08-28T07:11:46Z</time>
      </trkpt>
      <trkpt lat="45.74809" lon="6.07269">
        <ele>602.1</ele>
        <time>2021-08-28T07:11:47Z</time>
      </trkpt>
      <trkpt lat="45.7481" lon="6.07277">
        <ele>602.1</ele>
        <time>2021-08-28T07:11:48Z</time>
      </trkpt>
      <trkpt lat="45.74811" lon="6.07285">
        <ele>602.1</ele>
        <time>2021-08-28T07:11:49Z</time>
      </trkpt>
      <trkpt lat="45.74812" lon="6.07293">
        <ele>602.1</ele>
        <time>2021-08-28T07:11:50Z</time>
      </trkpt>
      <trkpt lat="45.74812" lon="6.073">
        <ele>602.1</ele>
        <time>2021-08-28T07:11:51Z</time>
      </trkpt>
      <trkpt lat="45.74814" lon="6.07308">
        <ele>602.1</ele>
        <time>2021-08-28T07:11:52Z</time>
      </trkpt>
      <trkpt lat="45.74815" lon="6.07317">
        <ele>602.1</ele>
        <time>2021-08-28T07:11:53Z</time>
      </trkpt>
      <trkpt lat="45.74816" lon="6.07325">
        <ele>602</ele>
        <time>2021-08-28T07:11:54Z</time>
      </trkpt>
      <trkpt lat="45.74817" lon="6.07333">
        <ele>602</ele>
        <time>2021-08-28T07:11:55Z</time>
      </trkpt>
      <trkpt lat="45.74817" lon="6.07341">
        <ele>602</ele>
        <time>2021-08-28T07:11:56Z</time>
      </trkpt>
      <trkpt lat="45.74818" lon="6.07349">
        <ele>602</ele>
        <time>2021-08-28T07:11:57Z</time>
      </trkpt>
      <trkpt lat="45.74818" lon="6.07357">
        <ele>601.9</ele>
        <time>2021-08-28T07:11:58Z</time>
      </trkpt>
      <trkpt lat="45.74817" lon="6.07365">
        <ele>601.9</ele>
        <time>2021-08-28T07:11:59Z</time>
      </trkpt>
      <trkpt lat="45.74816" lon="6.07372">
        <ele>601.9</ele>
        <time>2021-08-28T07:12:00Z</time>
      </trkpt>
      <trkpt lat="45.74814" lon="6.0738">
        <ele>601.8</ele>
        <time>2021-08-28T07:12:01Z</time>
      </trkpt>
      <trkpt lat="45.74812" lon="6.07388">
        <ele>601.8</ele>
        <time>2021-08-28T07:12:02Z</time>
      </trkpt>
      <trkpt lat="45.7481" lon="6.07395">
        <ele>601.7</ele>
        <time>2021-08-28T07:12:03Z</time>
      </trkpt>
      <trkpt lat="45.74807" lon="6.07402">
        <ele>601.7</ele>
        <time>2021-08-28T07:12:04Z</time>
      </trkpt>
      <trkpt lat="45.74804" lon="6.07408">
        <ele>601.6</ele>
        <time>2021-08-28T07:12:05Z</time>
      </trkpt>
      <trkpt lat="45.74801" lon="6.07415">
        <ele>601.6</ele>
        <time>2021-08-28T07:12:06Z</time>
      </trkpt>
      <trkpt lat="45.74798" lon="6.07422">
        <ele>601.5</ele>
        <time>2021-08-28T07:12:07Z</time>
      </trkpt>
      <trkpt lat="45.74795" lon="6.07428">
        <ele>601.4</ele>
        <time>2021-08-28T07:12:08Z</time>
      </trkpt>
      <trkpt lat="45.74792" lon="6.07435">
        <ele>601.3</ele>
        <time>2021-08-28T07:12:09Z</time>
      </trkpt>
      <trkpt lat="45.74789" lon="6.07441">
        <ele>601.1</ele>
        <time>2021-08-28T07:12:10Z</time>
      </trkpt>
      <trkpt lat="45.74786" lon="6.07448">
        <ele>601</ele>
        <time>2021-08-28T07:12:11Z</time>
      </trkpt>
      <trkpt lat="45.74783" lon="6.07454">
        <ele>600.8</ele>
        <time>2021-08-28T07:12:12Z</time>
      </trkpt>
      <trkpt lat="45.7478" lon="6.07461">
        <ele>600.6</ele>
        <time>2021-08-28T07:12:13Z</time>
      </trkpt>
      <trkpt lat="45.74778" lon="6.07469">
        <ele>600.4</ele>
        <time>2021-08-28T07:12:14Z</time>
      </trkpt>
      <trkpt lat="45.74776" lon="6.07477">
        <ele>600.2</ele>
        <time>2021-08-28T07:12:15Z</time>
      </trkpt>
      <trkpt lat="45.74773" lon="6.07485">
        <ele>599.9</ele>
        <time>2021-08-28T07:12:16Z</time>
      </trkpt>
      <trkpt lat="45.74771" lon="6.07494">
        <ele>599.6</ele>
        <time>2021-08-28T07:12:17Z</time>
      </trkpt>
      <trkpt lat="45.74769" lon="6.07503">
        <ele>599.4</ele>
        <time>2021-08-28T07:12:18Z</time>
      </trkpt>
      <trkpt lat="45.74768" lon="6.07513">
        <ele>599.1</ele>
        <time>2021-08-28T07:12:19Z</time>
      </trkpt>
      <trkpt lat="45.74766" lon="6.07522">
        <ele>598.8</ele>
        <time>2021-08-28T07:12:20Z</time>
      </trkpt>
      <trkpt lat="45.74764" lon="6.07532">
        <ele>598.5</ele>
        <time>2021-08-28T07:12:21Z</time>
      </trkpt>
      <trkpt lat="45.74762" lon="6.07542">
        <ele>598.2</ele>
        <time>2021-08-28T07:12:22Z</time>
      </trkpt>
      <trkpt lat="45.74759" lon="6.07552">
        <ele>597.9</ele>
        <time>2021-08-28T07:12:23Z</time>
      </trkpt>
      <trkpt lat="45.74757" lon="6.07562">
        <ele>597.5</ele>
        <time>2021-08-28T07:12:24Z</time>
      </trkpt>
      <trkpt lat="45.74755" lon="6.07572">
        <ele>597.3</ele>
        <time>2021-08-28T07:12:25Z</time>
      </trkpt>
      <trkpt lat="45.74753" lon="6.07582">
        <ele>597</ele>
        <time>2021-08-28T07:12:26Z</time>
      </trkpt>
      <trkpt lat="45.7475" lon="6.07592">
        <ele>596.7</ele>
        <time>2021-08-28T07:12:27Z</time>
      </trkpt>
      <trkpt lat="45.74748" lon="6.07602">
        <ele>596.4</ele>
        <time>2021-08-28T07:12:28Z</time>
      </trkpt>
      <trkpt lat="45.74746" lon="6.07613">
        <ele>596.1</ele>
        <time>2021-08-28T07:12:29Z</time>
      </trkpt>
      <trkpt lat="45.74743" lon="6.07623">
        <ele>595.8</ele>
        <time>2021-08-28T07:12:30Z</time>
      </trkpt>
      <trkpt lat="45.74741" lon="6.07634">
        <ele>595.5</ele>
        <time>2021-08-28T07:12:31Z</time>
      </trkpt>
      <trkpt lat="45.74739" lon="6.07645">
        <ele>595.2</ele>
        <time>2021-08-28T07:12:32Z</time>
      </trkpt>
      <trkpt lat="45.74736" lon="6.07656">
        <ele>594.9</ele>
        <time>2021-08-28T07:12:33Z</time>
      </trkpt>
      <trkpt lat="45.74733" lon="6.07667">
        <ele>594.6</ele>
        <time>2021-08-28T07:12:34Z</time>
      </trkpt>
      <trkpt lat="45.74731" lon="6.07678">
        <ele>594.2</ele>
        <time>2021-08-28T07:12:35Z</time>
      </trkpt>
      <trkpt lat="45.74727" lon="6.07689">
        <ele>593.9</ele>
        <time>2021-08-28T07:12:36Z</time>
      </trkpt>
      <trkpt lat="45.74723" lon="6.077">
        <ele>593.5</ele>
        <time>2021-08-28T07:12:37Z</time>
      </trkpt>
      <trkpt lat="45.74719" lon="6.0771">
        <ele>593.2</ele>
        <time>2021-08-28T07:12:38Z</time>
      </trkpt>
      <trkpt lat="45.74715" lon="6.07721">
        <ele>592.8</ele>
        <time>2021-08-28T07:12:39Z</time>
      </trkpt>
      <trkpt lat="45.74711" lon="6.07732">
        <ele>592.4</ele>
        <time>2021-08-28T07:12:40Z</time>
      </trkpt>
      <trkpt lat="45.74707" lon="6.07742">
        <ele>592.1</ele>
        <time>2021-08-28T07:12:41Z</time>
      </trkpt>
      <trkpt lat="45.74704" lon="6.07753">
        <ele>591.8</ele>
        <time>2021-08-28T07:12:42Z</time>
      </trkpt>
      <trkpt lat="45.74702" lon="6.07764">
        <ele>591.5</ele>
        <time>2021-08-28T07:12:43Z</time>
      </trkpt>
      <trkpt lat="45.74702" lon="6.07776">
        <ele>591.3</ele>
        <time>2021-08-28T07:12:44Z</time>
      </trkpt>
      <trkpt lat="45.74702" lon="6.07788">
        <ele>590.9</ele>
        <time>2021-08-28T07:12:45Z</time>
      </trkpt>
      <trkpt lat="45.74702" lon="6.078">
        <ele>590.6</ele>
        <time>2021-08-28T07:12:46Z</time>
      </trkpt>
      <trkpt lat="45.74702" lon="6.07812">
        <ele>590.2</ele>
        <time>2021-08-28T07:12:47Z</time>
      </trkpt>
      <trkpt lat="45.74703" lon="6.07824">
        <ele>589.8</ele>
        <time>2021-08-28T07:12:48Z</time>
      </trkpt>
      <trkpt lat="45.74703" lon="6.07836">
        <ele>589.5</ele>
        <time>2021-08-28T07:12:49Z</time>
      </trkpt>
      <trkpt lat="45.74704" lon="6.07848">
        <ele>589.1</ele>
        <time>2021-08-28T07:12:50Z</time>
      </trkpt>
      <trkpt lat="45.74704" lon="6.07861">
        <ele>588.8</ele>
        <time>2021-08-28T07:12:51Z</time>
      </trkpt>
      <trkpt lat="45.74705" lon="6.07873">
        <ele>588.5</ele>
        <time>2021-08-28T07:12:52Z</time>
      </trkpt>
      <trkpt lat="45.74705" lon="6.07885">
        <ele>588.2</ele>
        <time>2021-08-28T07:12:53Z</time>
      </trkpt>
      <trkpt lat="45.74706" lon="6.07897">
        <ele>587.8</ele>
        <time>2021-08-28T07:12:54Z</time>
      </trkpt>
      <trkpt lat="45.74706" lon="6.0791">
        <ele>587.4</ele>
        <time>2021-08-28T07:12:55Z</time>
      </trkpt>
      <trkpt lat="45.74705" lon="6.07922">
        <ele>587</ele>
        <time>2021-08-28T07:12:56Z</time>
      </trkpt>
      <trkpt lat="45.74703" lon="6.07934">
        <ele>586.6</ele>
        <time>2021-08-28T07:12:57Z</time>
      </trkpt>
      <trkpt lat="45.74701" lon="6.07946">
        <ele>586.2</ele>
        <time>2021-08-28T07:12:58Z</time>
      </trkpt>
      <trkpt lat="45.74699" lon="6.07958">
        <ele>585.8</ele>
        <time>2021-08-28T07:12:59Z</time>
      </trkpt>
      <trkpt lat="45.74695" lon="6.07969">
        <ele>585.5</ele>
        <time>2021-08-28T07:13:00Z</time>
      </trkpt>
      <trkpt lat="45.74691" lon="6.0798">
        <ele>585.2</ele>
        <time>2021-08-28T07:13:01Z</time>
      </trkpt>
      <trkpt lat="45.74687" lon="6.07991">
        <ele>584.9</ele>
        <time>2021-08-28T07:13:02Z</time>
      </trkpt>
      <trkpt lat="45.74684" lon="6.08002">
        <ele>584.7</ele>
        <time>2021-08-28T07:13:03Z</time>
      </trkpt>
      <trkpt lat="45.74682" lon="6.08013">
        <ele>584.5</ele>
        <time>2021-08-28T07:13:04Z</time>
      </trkpt>
      <trkpt lat="45.7468" lon="6.08024">
        <ele>584.3</ele>
        <time>2021-08-28T07:13:05Z</time>
      </trkpt>
      <trkpt lat="45.74679" lon="6.08036">
        <ele>584.2</ele>
        <time>2021-08-28T07:13:06Z</time>
      </trkpt>
      <trkpt lat="45.74679" lon="6.08047">
        <ele>584.1</ele>
        <time>2021-08-28T07:13:07Z</time>
      </trkpt>
      <trkpt lat="45.7468" lon="6.08057">
        <ele>584</ele>
        <time>2021-08-28T07:13:08Z</time>
      </trkpt>
      <trkpt lat="45.74681" lon="6.08068">
        <ele>584</ele>
        <time>2021-08-28T07:13:09Z</time>
      </trkpt>
      <trkpt lat="45.74682" lon="6.08079">
        <ele>584</ele>
        <time>2021-08-28T07:13:10Z</time>
      </trkpt>
      <trkpt lat="45.74682" lon="6.08089">
        <ele>583.9</ele>
        <time>2021-08-28T07:13:11Z</time>
      </trkpt>
      <trkpt lat="45.74682" lon="6.08099">
        <ele>583.9</ele>
        <time>2021-08-28T07:13:12Z</time>
      </trkpt>
      <trkpt lat="45.7468" lon="6.0811">
        <ele>583.8</ele>
        <time>2021-08-28T07:13:13Z</time>
      </trkpt>
      <trkpt lat="45.74679" lon="6.0812">
        <ele>583.8</ele>
        <time>2021-08-28T07:13:14Z</time>
      </trkpt>
      <trkpt lat="45.74677" lon="6.08129">
        <ele>583.7</ele>
        <time>2021-08-28T07:13:15Z</time>
      </trkpt>
      <trkpt lat="45.74674" lon="6.08138">
        <ele>583.6</ele>
        <time>2021-08-28T07:13:16Z</time>
      </trkpt>
      <trkpt lat="45.7467" lon="6.08146">
        <ele>583.6</ele>
        <time>2021-08-28T07:13:17Z</time>
      </trkpt>
      <trkpt lat="45.74666" lon="6.08153">
        <ele>583.5</ele>
        <time>2021-08-28T07:13:18Z</time>
      </trkpt>
      <trkpt lat="45.74663" lon="6.08161">
        <ele>583.5</ele>
        <time>2021-08-28T07:13:19Z</time>
      </trkpt>
      <trkpt lat="45.74661" lon="6.08169">
        <ele>583.4</ele>
        <time>2021-08-28T07:13:20Z</time>
      </trkpt>
      <trkpt lat="45.74659" lon="6.08177">
        <ele>583.4</ele>
        <time>2021-08-28T07:13:21Z</time>
      </trkpt>
      <trkpt lat="45.74657" lon="6.08186">
        <ele>583.3</ele>
        <time>2021-08-28T07:13:22Z</time>
      </trkpt>
      <trkpt lat="45.74655" lon="6.08195">
        <ele>583.2</ele>
        <time>2021-08-28T07:13:23Z</time>
      </trkpt>
      <trkpt lat="45.74653" lon="6.08203">
        <ele>583.2</ele>
        <time>2021-08-28T07:13:24Z</time>
      </trkpt>
      <trkpt lat="45.74652" lon="6.08212">
        <ele>583.1</ele>
        <time>2021-08-28T07:13:25Z</time>
      </trkpt>
      <trkpt lat="45.7465" lon="6.08221">
        <ele>583.1</ele>
        <time>2021-08-28T07:13:26Z</time>
      </trkpt>
      <trkpt lat="45.74649" lon="6.0823">
        <ele>583</ele>
        <time>2021-08-28T07:13:27Z</time>
      </trkpt>
      <trkpt lat="45.74648" lon="6.08238">
        <ele>582.9</ele>
        <time>2021-08-28T07:13:28Z</time>
      </trkpt>
      <trkpt lat="45.74648" lon="6.08247">
        <ele>582.7</ele>
        <time>2021-08-28T07:13:29Z</time>
      </trkpt>
      <trkpt lat="45.74649" lon="6.08256">
        <ele>582.6</ele>
        <time>2021-08-28T07:13:30Z</time>
      </trkpt>
      <trkpt lat="45.7465" lon="6.08265">
        <ele>582.5</ele>
        <time>2021-08-28T07:13:31Z</time>
      </trkpt>
      <trkpt lat="45.74651" lon="6.08274">
        <ele>582.3</ele>
        <time>2021-08-28T07:13:32Z</time>
      </trkpt>
      <trkpt lat="45.74652" lon="6.08283">
        <ele>582.1</ele>
        <time>2021-08-28T07:13:33Z</time>
      </trkpt>
      <trkpt lat="45.74653" lon="6.08292">
        <ele>581.9</ele>
        <time>2021-08-28T07:13:34Z</time>
      </trkpt>
      <trkpt lat="45.74653" lon="6.08302">
        <ele>581.7</ele>
        <time>2021-08-28T07:13:35Z</time>
      </trkpt>
      <trkpt lat="45.74652" lon="6.08312">
        <ele>581.4</ele>
        <time>2021-08-28T07:13:36Z</time>
      </trkpt>
      <trkpt lat="45.74651" lon="6.08322">
        <ele>581.1</ele>
        <time>2021-08-28T07:13:37Z</time>
      </trkpt>
      <trkpt lat="45.7465" lon="6.08332">
        <ele>580.9</ele>
        <time>2021-08-28T07:13:38Z</time>
      </trkpt>
      <trkpt lat="45.74649" lon="6.08343">
        <ele>580.6</ele>
        <time>2021-08-28T07:13:39Z</time>
      </trkpt>
      <trkpt lat="45.74648" lon="6.08353">
        <ele>580.4</ele>
        <time>2021-08-28T07:13:40Z</time>
      </trkpt>
      <trkpt lat="45.74647" lon="6.08364">
        <ele>580.1</ele>
        <time>2021-08-28T07:13:41Z</time>
      </trkpt>
      <trkpt lat="45.74646" lon="6.08374">
        <ele>579.8</ele>
        <time>2021-08-28T07:13:42Z</time>
      </trkpt>
      <trkpt lat="45.74645" lon="6.08385">
        <ele>579.6</ele>
        <time>2021-08-28T07:13:43Z</time>
      </trkpt>
      <trkpt lat="45.74645" lon="6.08396">
        <ele>579.3</ele>
        <time>2021-08-28T07:13:44Z</time>
      </trkpt>
      <trkpt lat="45.74644" lon="6.08407">
        <ele>579</ele>
        <time>2021-08-28T07:13:45Z</time>
      </trkpt>
      <trkpt lat="45.74643" lon="6.08418">
        <ele>578.7</ele>
        <time>2021-08-28T07:13:46Z</time>
      </trkpt>
      <trkpt lat="45.74642" lon="6.08429">
        <ele>578.5</ele>
        <time>2021-08-28T07:13:47Z</time>
      </trkpt>
      <trkpt lat="45.7464" lon="6.0844">
        <ele>578.2</ele>
        <time>2021-08-28T07:13:48Z</time>
      </trkpt>
      <trkpt lat="45.74637" lon="6.0845">
        <ele>577.9</ele>
        <time>2021-08-28T07:13:49Z</time>
      </trkpt>
      <trkpt lat="45.74633" lon="6.08461">
        <ele>577.6</ele>
        <time>2021-08-28T07:13:50Z</time>
      </trkpt>
      <trkpt lat="45.7463" lon="6.08471">
        <ele>577.4</ele>
        <time>2021-08-28T07:13:51Z</time>
      </trkpt>
      <trkpt lat="45.74626" lon="6.08481">
        <ele>577.1</ele>
        <time>2021-08-28T07:13:52Z</time>
      </trkpt>
      <trkpt lat="45.74623" lon="6.08491">
        <ele>576.9</ele>
        <time>2021-08-28T07:13:53Z</time>
      </trkpt>
      <trkpt lat="45.7462" lon="6.08501">
        <ele>576.6</ele>
        <time>2021-08-28T07:13:54Z</time>
      </trkpt>
      <trkpt lat="45.74618" lon="6.08512">
        <ele>576.3</ele>
        <time>2021-08-28T07:13:55Z</time>
      </trkpt>
      <trkpt lat="45.74616" lon="6.08523">
        <ele>576.1</ele>
        <time>2021-08-28T07:13:56Z</time>
      </trkpt>
      <trkpt lat="45.74615" lon="6.08534">
        <ele>575.8</ele>
        <time>2021-08-28T07:13:57Z</time>
      </trkpt>
      <trkpt lat="45.74615" lon="6.08546">
        <ele>575.5</ele>
        <time>2021-08-28T07:13:58Z</time>
      </trkpt>
      <trkpt lat="45.74615" lon="6.08557">
        <ele>575.3</ele>
        <time>2021-08-28T07:13:59Z</time>
      </trkpt>
      <trkpt lat="45.74615" lon="6.08569">
        <ele>575</ele>
        <time>2021-08-28T07:14:00Z</time>
      </trkpt>
      <trkpt lat="45.74615" lon="6.0858">
        <ele>574.8</ele>
        <time>2021-08-28T07:14:01Z</time>
      </trkpt>
      <trkpt lat="45.74615" lon="6.08592">
        <ele>574.5</ele>
        <time>2021-08-28T07:14:02Z</time>
      </trkpt>
      <trkpt lat="45.74616" lon="6.08603">
        <ele>574.3</ele>
        <time>2021-08-28T07:14:03Z</time>
      </trkpt>
      <trkpt lat="45.74617" lon="6.08614">
        <ele>574.1</ele>
        <time>2021-08-28T07:14:04Z</time>
      </trkpt>
      <trkpt lat="45.74619" lon="6.08625">
        <ele>573.9</ele>
        <time>2021-08-28T07:14:05Z</time>
      </trkpt>
      <trkpt lat="45.7462" lon="6.08635">
        <ele>573.7</ele>
        <time>2021-08-28T07:14:06Z</time>
      </trkpt>
      <trkpt lat="45.74622" lon="6.08646">
        <ele>573.5</ele>
        <time>2021-08-28T07:14:07Z</time>
      </trkpt>
      <trkpt lat="45.74625" lon="6.08656">
        <ele>573.2</ele>
        <time>2021-08-28T07:14:08Z</time>
      </trkpt>
      <trkpt lat="45.74628" lon="6.08666">
        <ele>573</ele>
        <time>2021-08-28T07:14:09Z</time>
      </trkpt>
      <trkpt lat="45.74631" lon="6.08677">
        <ele>572.7</ele>
        <time>2021-08-28T07:14:10Z</time>
      </trkpt>
      <trkpt lat="45.74634" lon="6.08687">
        <ele>572.5</ele>
        <time>2021-08-28T07:14:11Z</time>
      </trkpt>
      <trkpt lat="45.74636" lon="6.08698">
        <ele>572.3</ele>
        <time>2021-08-28T07:14:12Z</time>
      </trkpt>
      <trkpt lat="45.74638" lon="6.08709">
        <ele>572</ele>
        <time>2021-08-28T07:14:13Z</time>
      </trkpt>
      <trkpt lat="45.7464" lon="6.0872">
        <ele>571.8</ele>
        <time>2021-08-28T07:14:14Z</time>
      </trkpt>
      <trkpt lat="45.74642" lon="6.08731">
        <ele>571.5</ele>
        <time>2021-08-28T07:14:15Z</time>
      </trkpt>
      <trkpt lat="45.74643" lon="6.08742">
        <ele>571.3</ele>
        <time>2021-08-28T07:14:16Z</time>
      </trkpt>
      <trkpt lat="45.74644" lon="6.08753">
        <ele>571</ele>
        <time>2021-08-28T07:14:17Z</time>
      </trkpt>
      <trkpt lat="45.74644" lon="6.08764">
        <ele>570.8</ele>
        <time>2021-08-28T07:14:18Z</time>
      </trkpt>
      <trkpt lat="45.74645" lon="6.08775">
        <ele>570.6</ele>
        <time>2021-08-28T07:14:19Z</time>
      </trkpt>
      <trkpt lat="45.74645" lon="6.08787">
        <ele>570.4</ele>
        <time>2021-08-28T07:14:20Z</time>
      </trkpt>
      <trkpt lat="45.74645" lon="6.08798">
        <ele>570.2</ele>
        <time>2021-08-28T07:14:21Z</time>
      </trkpt>
      <trkpt lat="45.74644" lon="6.0881">
        <ele>570</ele>
        <time>2021-08-28T07:14:22Z</time>
      </trkpt>
      <trkpt lat="45.74644" lon="6.08821">
        <ele>569.7</ele>
        <time>2021-08-28T07:14:23Z</time>
      </trkpt>
      <trkpt lat="45.74642" lon="6.08832">
        <ele>569.5</ele>
        <time>2021-08-28T07:14:24Z</time>
      </trkpt>
      <trkpt lat="45.7464" lon="6.08843">
        <ele>569.2</ele>
        <time>2021-08-28T07:14:25Z</time>
      </trkpt>
      <trkpt lat="45.74638" lon="6.08854">
        <ele>569</ele>
        <time>2021-08-28T07:14:26Z</time>
      </trkpt>
      <trkpt lat="45.74634" lon="6.08864">
        <ele>568.8</ele>
        <time>2021-08-28T07:14:27Z</time>
      </trkpt>
      <trkpt lat="45.74631" lon="6.08874">
        <ele>568.6</ele>
        <time>2021-08-28T07:14:28Z</time>
      </trkpt>
      <trkpt lat="45.74628" lon="6.08884">
        <ele>568.4</ele>
        <time>2021-08-28T07:14:29Z</time>
      </trkpt>
      <trkpt lat="45.74624" lon="6.08894">
        <ele>568.1</ele>
        <time>2021-08-28T07:14:30Z</time>
      </trkpt>
      <trkpt lat="45.74621" lon="6.08904">
        <ele>567.9</ele>
        <time>2021-08-28T07:14:31Z</time>
      </trkpt>
      <trkpt lat="45.74618" lon="6.08914">
        <ele>567.6</ele>
        <time>2021-08-28T07:14:32Z</time>
      </trkpt>
      <trkpt lat="45.74615" lon="6.08924">
        <ele>567.3</ele>
        <time>2021-08-28T07:14:33Z</time>
      </trkpt>
      <trkpt lat="45.74612" lon="6.08934">
        <ele>567</ele>
        <time>2021-08-28T07:14:34Z</time>
      </trkpt>
      <trkpt lat="45.7461" lon="6.08945">
        <ele>566.8</ele>
        <time>2021-08-28T07:14:35Z</time>
      </trkpt>
      <trkpt lat="45.74608" lon="6.08956">
        <ele>566.5</ele>
        <time>2021-08-28T07:14:36Z</time>
      </trkpt>
      <trkpt lat="45.74606" lon="6.08967">
        <ele>566.2</ele>
        <time>2021-08-28T07:14:37Z</time>
      </trkpt>
      <trkpt lat="45.74604" lon="6.08978">
        <ele>566</ele>
        <time>2021-08-28T07:14:38Z</time>
      </trkpt>
      <trkpt lat="45.74603" lon="6.0899">
        <ele>565.7</ele>
        <time>2021-08-28T07:14:39Z</time>
      </trkpt>
      <trkpt lat="45.74601" lon="6.09002">
        <ele>565.4</ele>
        <time>2021-08-28T07:14:40Z</time>
      </trkpt>
      <trkpt lat="45.74599" lon="6.09013">
        <ele>565.1</ele>
        <time>2021-08-28T07:14:41Z</time>
      </trkpt>
      <trkpt lat="45.74597" lon="6.09025">
        <ele>564.9</ele>
        <time>2021-08-28T07:14:42Z</time>
      </trkpt>
      <trkpt lat="45.74594" lon="6.09036">
        <ele>564.6</ele>
        <time>2021-08-28T07:14:43Z</time>
      </trkpt>
      <trkpt lat="45.74592" lon="6.09047">
        <ele>564.4</ele>
        <time>2021-08-28T07:14:44Z</time>
      </trkpt>
      <trkpt lat="45.74589" lon="6.09058">
        <ele>564.1</ele>
        <time>2021-08-28T07:14:45Z</time>
      </trkpt>
      <trkpt lat="45.74586" lon="6.0907">
        <ele>563.9</ele>
        <time>2021-08-28T07:14:46Z</time>
      </trkpt>
      <trkpt lat="45.74584" lon="6.09081">
        <ele>563.7</ele>
        <time>2021-08-28T07:14:47Z</time>
      </trkpt>
      <trkpt lat="45.74581" lon="6.09092">
        <ele>563.5</ele>
        <time>2021-08-28T07:14:48Z</time>
      </trkpt>
      <trkpt lat="45.74579" lon="6.09103">
        <ele>563.3</ele>
        <time>2021-08-28T07:14:49Z</time>
      </trkpt>
      <trkpt lat="45.74576" lon="6.09114">
        <ele>563</ele>
        <time>2021-08-28T07:14:50Z</time>
      </trkpt>
      <trkpt lat="45.74574" lon="6.09125">
        <ele>562.8</ele>
        <time>2021-08-28T07:14:51Z</time>
      </trkpt>
      <trkpt lat="45.74571" lon="6.09135">
        <ele>562.6</ele>
        <time>2021-08-28T07:14:52Z</time>
      </trkpt>
      <trkpt lat="45.74568" lon="6.09146">
        <ele>562.4</ele>
        <time>2021-08-28T07:14:53Z</time>
      </trkpt>
      <trkpt lat="45.74565" lon="6.09157">
        <ele>562.2</ele>
        <time>2021-08-28T07:14:54Z</time>
      </trkpt>
      <trkpt lat="45.74562" lon="6.09167">
        <ele>562</ele>
        <time>2021-08-28T07:14:55Z</time>
      </trkpt>
      <trkpt lat="45.74559" lon="6.09177">
        <ele>561.8</ele>
        <time>2021-08-28T07:14:56Z</time>
      </trkpt>
      <trkpt lat="45.74556" lon="6.09187">
        <ele>561.7</ele>
        <time>2021-08-28T07:14:57Z</time>
      </trkpt>
      <trkpt lat="45.74552" lon="6.09196">
        <ele>561.5</ele>
        <time>2021-08-28T07:14:58Z</time>
      </trkpt>
      <trkpt lat="45.74548" lon="6.09206">
        <ele>561.3</ele>
        <time>2021-08-28T07:14:59Z</time>
      </trkpt>
      <trkpt lat="45.74544" lon="6.09216">
        <ele>561.1</ele>
        <time>2021-08-28T07:15:00Z</time>
      </trkpt>
      <trkpt lat="45.74539" lon="6.09226">
        <ele>560.9</ele>
        <time>2021-08-28T07:15:01Z</time>
      </trkpt>
      <trkpt lat="45.74535" lon="6.09235">
        <ele>560.7</ele>
        <time>2021-08-28T07:15:02Z</time>
      </trkpt>
      <trkpt lat="45.74531" lon="6.09244">
        <ele>560.6</ele>
        <time>2021-08-28T07:15:03Z</time>
      </trkpt>
      <trkpt lat="45.74526" lon="6.09253">
        <ele>560.4</ele>
        <time>2021-08-28T07:15:04Z</time>
      </trkpt>
      <trkpt lat="45.74521" lon="6.09262">
        <ele>560.3</ele>
        <time>2021-08-28T07:15:05Z</time>
      </trkpt>
      <trkpt lat="45.74516" lon="6.0927">
        <ele>560.1</ele>
        <time>2021-08-28T07:15:06Z</time>
      </trkpt>
      <trkpt lat="45.74511" lon="6.09279">
        <ele>560</ele>
        <time>2021-08-28T07:15:07Z</time>
      </trkpt>
      <trkpt lat="45.74506" lon="6.09286">
        <ele>559.9</ele>
        <time>2021-08-28T07:15:08Z</time>
      </trkpt>
      <trkpt lat="45.74501" lon="6.09294">
        <ele>559.7</ele>
        <time>2021-08-28T07:15:09Z</time>
      </trkpt>
      <trkpt lat="45.74495" lon="6.09302">
        <ele>559.6</ele>
        <time>2021-08-28T07:15:10Z</time>
      </trkpt>
      <trkpt lat="45.7449" lon="6.0931">
        <ele>559.5</ele>
        <time>2021-08-28T07:15:11Z</time>
      </trkpt>
      <trkpt lat="45.74485" lon="6.09318">
        <ele>559.3</ele>
        <time>2021-08-28T07:15:12Z</time>
      </trkpt>
      <trkpt lat="45.74481" lon="6.09327">
        <ele>559.2</ele>
        <time>2021-08-28T07:15:13Z</time>
      </trkpt>
      <trkpt lat="45.74476" lon="6.09336">
        <ele>559.1</ele>
        <time>2021-08-28T07:15:14Z</time>
      </trkpt>
      <trkpt lat="45.74472" lon="6.09345">
        <ele>559.1</ele>
        <time>2021-08-28T07:15:15Z</time>
      </trkpt>
      <trkpt lat="45.74468" lon="6.09353">
        <ele>559</ele>
        <time>2021-08-28T07:15:16Z</time>
      </trkpt>
      <trkpt lat="45.74463" lon="6.09362">
        <ele>559.1</ele>
        <time>2021-08-28T07:15:17Z</time>
      </trkpt>
      <trkpt lat="45.74458" lon="6.09369">
        <ele>558.9</ele>
        <time>2021-08-28T07:15:18Z</time>
      </trkpt>
      <trkpt lat="45.74453" lon="6.09376">
        <ele>558.9</ele>
        <time>2021-08-28T07:15:19Z</time>
      </trkpt>
      <trkpt lat="45.74447" lon="6.09383">
        <ele>558.8</ele>
        <time>2021-08-28T07:15:20Z</time>
      </trkpt>
      <trkpt lat="45.74442" lon="6.09389">
        <ele>558.8</ele>
        <time>2021-08-28T07:15:21Z</time>
      </trkpt>
      <trkpt lat="45.74436" lon="6.09395">
        <ele>558.8</ele>
        <time>2021-08-28T07:15:22Z</time>
      </trkpt>
      <trkpt lat="45.74431" lon="6.094">
        <ele>558.9</ele>
        <time>2021-08-28T07:15:23Z</time>
      </trkpt>
      <trkpt lat="45.74426" lon="6.09405">
        <ele>558.9</ele>
        <time>2021-08-28T07:15:24Z</time>
      </trkpt>
      <trkpt lat="45.74421" lon="6.0941">
        <ele>559</ele>
        <time>2021-08-28T07:15:25Z</time>
      </trkpt>
      <trkpt lat="45.74417" lon="6.09413">
        <ele>559.1</ele>
        <time>2021-08-28T07:15:26Z</time>
      </trkpt>
      <trkpt lat="45.74412" lon="6.09417">
        <ele>559.2</ele>
        <time>2021-08-28T07:15:27Z</time>
      </trkpt>
      <trkpt lat="45.74407" lon="6.0942">
        <ele>559.3</ele>
        <time>2021-08-28T07:15:28Z</time>
      </trkpt>
      <trkpt lat="45.74403" lon="6.09422">
        <ele>559.4</ele>
        <time>2021-08-28T07:15:29Z</time>
      </trkpt>
      <trkpt lat="45.74398" lon="6.09425">
        <ele>559.5</ele>
        <time>2021-08-28T07:15:30Z</time>
      </trkpt>
      <trkpt lat="45.74394" lon="6.09427">
        <ele>559.7</ele>
        <time>2021-08-28T07:15:31Z</time>
      </trkpt>
      <trkpt lat="45.7439" lon="6.09429">
        <ele>559.8</ele>
        <time>2021-08-28T07:15:32Z</time>
      </trkpt>
      <trkpt lat="45.74386" lon="6.09431">
        <ele>559.9</ele>
        <time>2021-08-28T07:15:33Z</time>
      </trkpt>
      <trkpt lat="45.74382" lon="6.09433">
        <ele>560</ele>
        <time>2021-08-28T07:15:34Z</time>
      </trkpt>
      <trkpt lat="45.74378" lon="6.09435">
        <ele>560.1</ele>
        <time>2021-08-28T07:15:35Z</time>
      </trkpt>
      <trkpt lat="45.74375" lon="6.09437">
        <ele>560.2</ele>
        <time>2021-08-28T07:15:36Z</time>
      </trkpt>
      <trkpt lat="45.74371" lon="6.09439">
        <ele>560.3</ele>
        <time>2021-08-28T07:15:37Z</time>
      </trkpt>
      <trkpt lat="45.74369" lon="6.09441">
        <ele>560.4</ele>
        <time>2021-08-28T07:15:38Z</time>
      </trkpt>
      <trkpt lat="45.74365" lon="6.09443">
        <ele>560.5</ele>
        <time>2021-08-28T07:15:39Z</time>
      </trkpt>
      <trkpt lat="45.74362" lon="6.09445">
        <ele>560.6</ele>
        <time>2021-08-28T07:15:40Z</time>
      </trkpt>
      <trkpt lat="45.74359" lon="6.09446">
        <ele>560.7</ele>
        <time>2021-08-28T07:15:41Z</time>
      </trkpt>
      <trkpt lat="45.74356" lon="6.09447">
        <ele>560.8</ele>
        <time>2021-08-28T07:15:42Z</time>
      </trkpt>
      <trkpt lat="45.74353" lon="6.09449">
        <ele>560.9</ele>
        <time>2021-08-28T07:15:43Z</time>
      </trkpt>
      <trkpt lat="45.74349" lon="6.09451">
        <ele>561</ele>
        <time>2021-08-28T07:15:44Z</time>
      </trkpt>
      <trkpt lat="45.74346" lon="6.09453">
        <ele>561.1</ele>
        <time>2021-08-28T07:15:45Z</time>
      </trkpt>
      <trkpt lat="45.74343" lon="6.09454">
        <ele>561.2</ele>
        <time>2021-08-28T07:15:46Z</time>
      </trkpt>
      <trkpt lat="45.74339" lon="6.09456">
        <ele>561.3</ele>
        <time>2021-08-28T07:15:47Z</time>
      </trkpt>
      <trkpt lat="45.74337" lon="6.09458">
        <ele>561.4</ele>
        <time>2021-08-28T07:15:48Z</time>
      </trkpt>
      <trkpt lat="45.74333" lon="6.0946">
        <ele>561.5</ele>
        <time>2021-08-28T07:15:49Z</time>
      </trkpt>
      <trkpt lat="45.7433" lon="6.09461">
        <ele>561.6</ele>
        <time>2021-08-28T07:15:50Z</time>
      </trkpt>
      <trkpt lat="45.74327" lon="6.09463">
        <ele>561.7</ele>
        <time>2021-08-28T07:15:51Z</time>
      </trkpt>
      <trkpt lat="45.74324" lon="6.09466">
        <ele>561.9</ele>
        <time>2021-08-28T07:15:52Z</time>
      </trkpt>
      <trkpt lat="45.74321" lon="6.09468">
        <ele>562</ele>
        <time>2021-08-28T07:15:53Z</time>
      </trkpt>
      <trkpt lat="45.74318" lon="6.09471">
        <ele>562.1</ele>
        <time>2021-08-28T07:15:54Z</time>
      </trkpt>
      <trkpt lat="45.74316" lon="6.09473">
        <ele>562.3</ele>
        <time>2021-08-28T07:15:55Z</time>
      </trkpt>
      <trkpt lat="45.74313" lon="6.09474">
        <ele>562.4</ele>
        <time>2021-08-28T07:15:56Z</time>
      </trkpt>
      <trkpt lat="45.74311" lon="6.09476">
        <ele>562.5</ele>
        <time>2021-08-28T07:15:57Z</time>
      </trkpt>
      <trkpt lat="45.74308" lon="6.09478">
        <ele>562.6</ele>
        <time>2021-08-28T07:15:58Z</time>
      </trkpt>
      <trkpt lat="45.74304" lon="6.0948">
        <ele>562.8</ele>
        <time>2021-08-28T07:15:59Z</time>
      </trkpt>
      <trkpt lat="45.74303" lon="6.0948">
        <ele>562.8</ele>
        <time>2021-08-28T07:16:00Z</time>
      </trkpt>
      <trkpt lat="45.74299" lon="6.09482">
        <ele>563</ele>
        <time>2021-08-28T07:16:01Z</time>
      </trkpt>
      <trkpt lat="45.74296" lon="6.09483">
        <ele>563.1</ele>
        <time>2021-08-28T07:16:02Z</time>
      </trkpt>
      <trkpt lat="45.74295" lon="6.09483">
        <ele>563.1</ele>
        <time>2021-08-28T07:16:03Z</time>
      </trkpt>
      <trkpt lat="45.74292" lon="6.09485">
        <ele>563.3</ele>
        <time>2021-08-28T07:16:04Z</time>
      </trkpt>
      <trkpt lat="45.7429" lon="6.09486">
        <ele>563.3</ele>
        <time>2021-08-28T07:16:05Z</time>
      </trkpt>
      <trkpt lat="45.74287" lon="6.09487">
        <ele>563.4</ele>
        <time>2021-08-28T07:16:06Z</time>
      </trkpt>
      <trkpt lat="45.74284" lon="6.09489">
        <ele>563.5</ele>
        <time>2021-08-28T07:16:07Z</time>
      </trkpt>
      <trkpt lat="45.74281" lon="6.0949">
        <ele>563.6</ele>
        <time>2021-08-28T07:16:08Z</time>
      </trkpt>
      <trkpt lat="45.74278" lon="6.09492">
        <ele>563.8</ele>
        <time>2021-08-28T07:16:09Z</time>
      </trkpt>
      <trkpt lat="45.74275" lon="6.09494">
        <ele>563.9</ele>
        <time>2021-08-28T07:16:10Z</time>
      </trkpt>
      <trkpt lat="45.74271" lon="6.09495">
        <ele>564</ele>
        <time>2021-08-28T07:16:11Z</time>
      </trkpt>
      <trkpt lat="45.7427" lon="6.09496">
        <ele>564.1</ele>
        <time>2021-08-28T07:16:12Z</time>
      </trkpt>
      <trkpt lat="45.74266" lon="6.09499">
        <ele>564.2</ele>
        <time>2021-08-28T07:16:13Z</time>
      </trkpt>
      <trkpt lat="45.74265" lon="6.095">
        <ele>564.3</ele>
        <time>2021-08-28T07:16:14Z</time>
      </trkpt>
      <trkpt lat="45.74262" lon="6.09502">
        <ele>564.4</ele>
        <time>2021-08-28T07:16:15Z</time>
      </trkpt>
      <trkpt lat="45.74259" lon="6.09503">
        <ele>564.5</ele>
        <time>2021-08-28T07:16:16Z</time>
      </trkpt>
      <trkpt lat="45.74256" lon="6.09505">
        <ele>564.7</ele>
        <time>2021-08-28T07:16:17Z</time>
      </trkpt>
      <trkpt lat="45.74254" lon="6.09506">
        <ele>564.7</ele>
        <time>2021-08-28T07:16:18Z</time>
      </trkpt>
      <trkpt lat="45.74251" lon="6.09508">
        <ele>564.9</ele>
        <time>2021-08-28T07:16:19Z</time>
      </trkpt>
      <trkpt lat="45.74249" lon="6.09509">
        <ele>565</ele>
        <time>2021-08-28T07:16:20Z</time>
      </trkpt>
      <trkpt lat="45.74245" lon="6.09511">
        <ele>565.1</ele>
        <time>2021-08-28T07:16:21Z</time>
      </trkpt>
      <trkpt lat="45.74244" lon="6.09512">
        <ele>565.2</ele>
        <time>2021-08-28T07:16:22Z</time>
      </trkpt>
      <trkpt lat="45.74241" lon="6.09513">
        <ele>565.3</ele>
        <time>2021-08-28T07:16:23Z</time>
      </trkpt>
      <trkpt lat="45.7424" lon="6.09514">
        <ele>565.3</ele>
        <time>2021-08-28T07:16:24Z</time>
      </trkpt>
      <trkpt lat="45.74236" lon="6.09515">
        <ele>565.5</ele>
        <time>2021-08-28T07:16:25Z</time>
      </trkpt>
      <trkpt lat="45.74234" lon="6.09516">
        <ele>565.6</ele>
        <time>2021-08-28T07:16:26Z</time>
      </trkpt>
      <trkpt lat="45.74231" lon="6.09516">
        <ele>565.7</ele>
        <time>2021-08-28T07:16:27Z</time>
      </trkpt>
      <trkpt lat="45.74229" lon="6.09516">
        <ele>565.8</ele>
        <time>2021-08-28T07:16:28Z</time>
      </trkpt>
      <trkpt lat="45.74227" lon="6.09516">
        <ele>565.9</ele>
        <time>2021-08-28T07:16:29Z</time>
      </trkpt>
      <trkpt lat="45.74223" lon="6.09517">
        <ele>566.1</ele>
        <time>2021-08-28T07:16:30Z</time>
      </trkpt>
      <trkpt lat="45.74222" lon="6.09517">
        <ele>566.1</ele>
        <time>2021-08-28T07:16:31Z</time>
      </trkpt>
      <trkpt lat="45.74218" lon="6.09518">
        <ele>566.3</ele>
        <time>2021-08-28T07:16:32Z</time>
      </trkpt>
      <trkpt lat="45.74217" lon="6.09519">
        <ele>566.4</ele>
        <time>2021-08-28T07:16:33Z</time>
      </trkpt>
      <trkpt lat="45.74213" lon="6.0952">
        <ele>566.6</ele>
        <time>2021-08-28T07:16:34Z</time>
      </trkpt>
      <trkpt lat="45.74212" lon="6.0952">
        <ele>566.6</ele>
        <time>2021-08-28T07:16:35Z</time>
      </trkpt>
      <trkpt lat="45.74209" lon="6.09521">
        <ele>566.8</ele>
        <time>2021-08-28T07:16:36Z</time>
      </trkpt>
      <trkpt lat="45.74208" lon="6.09522">
        <ele>566.9</ele>
        <time>2021-08-28T07:16:37Z</time>
      </trkpt>
      <trkpt lat="45.74205" lon="6.09523">
        <ele>567.1</ele>
        <time>2021-08-28T07:16:38Z</time>
      </trkpt>
      <trkpt lat="45.74204" lon="6.09523">
        <ele>567.2</ele>
        <time>2021-08-28T07:16:39Z</time>
      </trkpt>
      <trkpt lat="45.74202" lon="6.09524">
        <ele>567.3</ele>
        <time>2021-08-28T07:16:40Z</time>
      </trkpt>
      <trkpt lat="45.74201" lon="6.09525">
        <ele>567.4</ele>
        <time>2021-08-28T07:16:41Z</time>
      </trkpt>
      <trkpt lat="45.74199" lon="6.09525">
        <ele>567.5</ele>
        <time>2021-08-28T07:16:42Z</time>
      </trkpt>
      <trkpt lat="45.74197" lon="6.09526">
        <ele>567.6</ele>
        <time>2021-08-28T07:16:43Z</time>
      </trkpt>
      <trkpt lat="45.74196" lon="6.09526">
        <ele>567.7</ele>
        <time>2021-08-28T07:16:44Z</time>
      </trkpt>
      <trkpt lat="45.74194" lon="6.09526">
        <ele>567.9</ele>
        <time>2021-08-28T07:16:45Z</time>
      </trkpt>
      <trkpt lat="45.74192" lon="6.09526">
        <ele>568</ele>
        <time>2021-08-28T07:16:46Z</time>
      </trkpt>
      <trkpt lat="45.7419" lon="6.09526">
        <ele>568.2</ele>
        <time>2021-08-28T07:16:47Z</time>
      </trkpt>
      <trkpt lat="45.74189" lon="6.09527">
        <ele>568.3</ele>
        <time>2021-08-28T07:16:48Z</time>
      </trkpt>
      <trkpt lat="45.74187" lon="6.09527">
        <ele>568.4</ele>
        <time>2021-08-28T07:16:49Z</time>
      </trkpt>
      <trkpt lat="45.74186" lon="6.09526">
        <ele>568.6</ele>
        <time>2021-08-28T07:16:50Z</time>
      </trkpt>
      <trkpt lat="45.74184" lon="6.09526">
        <ele>568.7</ele>
        <time>2021-08-28T07:16:51Z</time>
      </trkpt>
      <trkpt lat="45.74182" lon="6.09525">
        <ele>568.9</ele>
        <time>2021-08-28T07:16:52Z</time>
      </trkpt>
      <trkpt lat="45.74177" lon="6.09525">
        <ele>569.3</ele>
        <time>2021-08-28T07:16:54Z</time>
      </trkpt>
      <trkpt lat="45.74175" lon="6.09524">
        <ele>569.5</ele>
        <time>2021-08-28T07:16:55Z</time>
      </trkpt>
      <trkpt lat="45.74171" lon="6.09523">
        <ele>569.9</ele>
        <time>2021-08-28T07:16:56Z</time>
      </trkpt>
      <trkpt lat="45.74169" lon="6.09522">
        <ele>570</ele>
        <time>2021-08-28T07:16:58Z</time>
      </trkpt>
      <trkpt lat="45.74165" lon="6.09518">
        <ele>570.6</ele>
        <time>2021-08-28T07:17:01Z</time>
      </trkpt>
      <trkpt lat="45.74162" lon="6.09516">
        <ele>570.8</ele>
        <time>2021-08-28T07:17:03Z</time>
      </trkpt>
      <trkpt lat="45.7416" lon="6.09513">
        <ele>571.1</ele>
        <time>2021-08-28T07:17:04Z</time>
      </trkpt>
      <trkpt lat="45.74159" lon="6.09512">
        <ele>571.3</ele>
        <time>2021-08-28T07:17:05Z</time>
      </trkpt>
      <trkpt lat="45.74157" lon="6.09512">
        <ele>571.4</ele>
        <time>2021-08-28T07:17:06Z</time>
      </trkpt>
      <trkpt lat="45.74155" lon="6.0951">
        <ele>571.6</ele>
        <time>2021-08-28T07:17:08Z</time>
      </trkpt>
      <trkpt lat="45.74153" lon="6.09509">
        <ele>571.8</ele>
        <time>2021-08-28T07:17:09Z</time>
      </trkpt>
      <trkpt lat="45.74151" lon="6.09508">
        <ele>572.1</ele>
        <time>2021-08-28T07:17:11Z</time>
      </trkpt>
      <trkpt lat="45.74148" lon="6.09507">
        <ele>572.3</ele>
        <time>2021-08-28T07:17:12Z</time>
      </trkpt>
      <trkpt lat="45.74146" lon="6.09506">
        <ele>572.5</ele>
        <time>2021-08-28T07:17:13Z</time>
      </trkpt>
      <trkpt lat="45.74145" lon="6.09505">
        <ele>572.7</ele>
        <time>2021-08-28T07:17:15Z</time>
      </trkpt>
      <trkpt lat="45.74143" lon="6.09505">
        <ele>572.9</ele>
        <time>2021-08-28T07:17:16Z</time>
      </trkpt>
      <trkpt lat="45.7414" lon="6.09505">
        <ele>573.2</ele>
        <time>2021-08-28T07:17:18Z</time>
      </trkpt>
      <trkpt lat="45.74138" lon="6.09505">
        <ele>573.3</ele>
        <time>2021-08-28T07:17:19Z</time>
      </trkpt>
      <trkpt lat="45.74135" lon="6.09505">
        <ele>573.6</ele>
        <time>2021-08-28T07:17:21Z</time>
      </trkpt>
      <trkpt lat="45.74132" lon="6.09504">
        <ele>573.9</ele>
        <time>2021-08-28T07:17:22Z</time>
      </trkpt>
      <trkpt lat="45.7413" lon="6.09502">
        <ele>574.1</ele>
        <time>2021-08-28T07:17:25Z</time>
      </trkpt>
      <trkpt lat="45.74127" lon="6.09502">
        <ele>574.4</ele>
        <time>2021-08-28T07:17:27Z</time>
      </trkpt>
      <trkpt lat="45.74125" lon="6.09502">
        <ele>574.5</ele>
        <time>2021-08-28T07:17:28Z</time>
      </trkpt>
      <trkpt lat="45.74122" lon="6.09501">
        <ele>574.8</ele>
        <time>2021-08-28T07:17:30Z</time>
      </trkpt>
      <trkpt lat="45.74121" lon="6.09502">
        <ele>574.9</ele>
        <time>2021-08-28T07:17:31Z</time>
      </trkpt>
      <trkpt lat="45.74119" lon="6.09502">
        <ele>575</ele>
        <time>2021-08-28T07:17:32Z</time>
      </trkpt>
      <trkpt lat="45.74119" lon="6.09503">
        <ele>575.1</ele>
        <time>2021-08-28T07:17:33Z</time>
      </trkpt>
      <trkpt lat="45.74117" lon="6.09503">
        <ele>575.3</ele>
        <time>2021-08-28T07:17:35Z</time>
      </trkpt>
      <trkpt lat="45.74114" lon="6.09504">
        <ele>575.5</ele>
        <time>2021-08-28T07:17:37Z</time>
      </trkpt>
      <trkpt lat="45.74112" lon="6.09504">
        <ele>575.7</ele>
        <time>2021-08-28T07:17:38Z</time>
      </trkpt>
      <trkpt lat="45.74107" lon="6.09503">
        <ele>576.1</ele>
        <time>2021-08-28T07:17:40Z</time>
      </trkpt>
      <trkpt lat="45.74104" lon="6.09502">
        <ele>576.4</ele>
        <time>2021-08-28T07:17:41Z</time>
      </trkpt>
      <trkpt lat="45.74104" lon="6.09501">
        <ele>576.5</ele>
        <time>2021-08-28T07:17:42Z</time>
      </trkpt>
      <trkpt lat="45.74099" lon="6.09499">
        <ele>576.9</ele>
        <time>2021-08-28T07:17:44Z</time>
      </trkpt>
      <trkpt lat="45.74097" lon="6.09499">
        <ele>577</ele>
        <time>2021-08-28T07:17:46Z</time>
      </trkpt>
      <trkpt lat="45.74096" lon="6.09499">
        <ele>577.2</ele>
        <time>2021-08-28T07:17:47Z</time>
      </trkpt>
      <trkpt lat="45.74094" lon="6.09499">
        <ele>577.4</ele>
        <time>2021-08-28T07:17:48Z</time>
      </trkpt>
      <trkpt lat="45.74092" lon="6.09498">
        <ele>577.5</ele>
        <time>2021-08-28T07:17:50Z</time>
      </trkpt>
      <trkpt lat="45.74091" lon="6.09497">
        <ele>577.6</ele>
        <time>2021-08-28T07:17:51Z</time>
      </trkpt>
      <trkpt lat="45.7409" lon="6.09497">
        <ele>577.8</ele>
        <time>2021-08-28T07:17:52Z</time>
      </trkpt>
      <trkpt lat="45.74089" lon="6.09499">
        <ele>577.9</ele>
        <time>2021-08-28T07:17:53Z</time>
      </trkpt>
      <trkpt lat="45.74088" lon="6.09498">
        <ele>578.1</ele>
        <time>2021-08-28T07:17:55Z</time>
      </trkpt>
      <trkpt lat="45.74087" lon="6.09498">
        <ele>578.2</ele>
        <time>2021-08-28T07:17:56Z</time>
      </trkpt>
      <trkpt lat="45.74084" lon="6.09498">
        <ele>578.5</ele>
        <time>2021-08-28T07:17:58Z</time>
      </trkpt>
      <trkpt lat="45.7408" lon="6.09499">
        <ele>578.8</ele>
        <time>2021-08-28T07:17:59Z</time>
      </trkpt>
      <trkpt lat="45.74079" lon="6.095">
        <ele>579</ele>
        <time>2021-08-28T07:18:00Z</time>
      </trkpt>
      <trkpt lat="45.74077" lon="6.095">
        <ele>579.2</ele>
        <time>2021-08-28T07:18:02Z</time>
      </trkpt>
      <trkpt lat="45.74074" lon="6.09502">
        <ele>579.5</ele>
        <time>2021-08-28T07:18:03Z</time>
      </trkpt>
      <trkpt lat="45.74072" lon="6.09502">
        <ele>579.6</ele>
        <time>2021-08-28T07:18:04Z</time>
      </trkpt>
      <trkpt lat="45.74068" lon="6.09503">
        <ele>580</ele>
        <time>2021-08-28T07:18:06Z</time>
      </trkpt>
      <trkpt lat="45.74067" lon="6.09503">
        <ele>580.1</ele>
        <time>2021-08-28T07:18:07Z</time>
      </trkpt>
      <trkpt lat="45.74065" lon="6.09503">
        <ele>580.3</ele>
        <time>2021-08-28T07:18:08Z</time>
      </trkpt>
      <trkpt lat="45.74064" lon="6.09504">
        <ele>580.4</ele>
        <time>2021-08-28T07:18:09Z</time>
      </trkpt>
      <trkpt lat="45.74063" lon="6.09504">
        <ele>580.5</ele>
        <time>2021-08-28T07:18:11Z</time>
      </trkpt>
      <trkpt lat="45.74061" lon="6.09504">
        <ele>580.7</ele>
        <time>2021-08-28T07:18:12Z</time>
      </trkpt>
      <trkpt lat="45.7406" lon="6.09505">
        <ele>580.8</ele>
        <time>2021-08-28T07:18:13Z</time>
      </trkpt>
      <trkpt lat="45.74057" lon="6.09506">
        <ele>581</ele>
        <time>2021-08-28T07:18:15Z</time>
      </trkpt>
      <trkpt lat="45.74055" lon="6.09506">
        <ele>581.2</ele>
        <time>2021-08-28T07:18:16Z</time>
      </trkpt>
      <trkpt lat="45.74053" lon="6.09507">
        <ele>581.5</ele>
        <time>2021-08-28T07:18:18Z</time>
      </trkpt>
      <trkpt lat="45.74051" lon="6.09508">
        <ele>581.6</ele>
        <time>2021-08-28T07:18:19Z</time>
      </trkpt>
      <trkpt lat="45.74049" lon="6.09508">
        <ele>581.8</ele>
        <time>2021-08-28T07:18:21Z</time>
      </trkpt>
      <trkpt lat="45.74048" lon="6.09508">
        <ele>581.9</ele>
        <time>2021-08-28T07:18:22Z</time>
      </trkpt>
      <trkpt lat="45.74044" lon="6.09509">
        <ele>582.2</ele>
        <time>2021-08-28T07:18:24Z</time>
      </trkpt>
      <trkpt lat="45.74042" lon="6.09509">
        <ele>582.4</ele>
        <time>2021-08-28T07:18:26Z</time>
      </trkpt>
      <trkpt lat="45.74036" lon="6.0951">
        <ele>583</ele>
        <time>2021-08-28T07:18:29Z</time>
      </trkpt>
      <trkpt lat="45.74034" lon="6.0951">
        <ele>583.2</ele>
        <time>2021-08-28T07:18:30Z</time>
      </trkpt>
      <trkpt lat="45.7403" lon="6.09511">
        <ele>583.6</ele>
        <time>2021-08-28T07:18:33Z</time>
      </trkpt>
      <trkpt lat="45.74027" lon="6.0951">
        <ele>583.8</ele>
        <time>2021-08-28T07:18:34Z</time>
      </trkpt>
      <trkpt lat="45.74024" lon="6.09511">
        <ele>584.1</ele>
        <time>2021-08-28T07:18:36Z</time>
      </trkpt>
      <trkpt lat="45.7402" lon="6.0951">
        <ele>584.5</ele>
        <time>2021-08-28T07:18:38Z</time>
      </trkpt>
      <trkpt lat="45.74017" lon="6.09513">
        <ele>584.8</ele>
        <time>2021-08-28T07:18:40Z</time>
      </trkpt>
      <trkpt lat="45.74014" lon="6.09513">
        <ele>585.1</ele>
        <time>2021-08-28T07:18:41Z</time>
      </trkpt>
      <trkpt lat="45.74013" lon="6.09513">
        <ele>585.2</ele>
        <time>2021-08-28T07:18:42Z</time>
      </trkpt>
      <trkpt lat="45.7401" lon="6.09513">
        <ele>585.4</ele>
        <time>2021-08-28T07:18:44Z</time>
      </trkpt>
      <trkpt lat="45.74006" lon="6.09513">
        <ele>585.9</ele>
        <time>2021-08-28T07:18:47Z</time>
      </trkpt>
      <trkpt lat="45.74004" lon="6.09514">
        <ele>586</ele>
        <time>2021-08-28T07:18:49Z</time>
      </trkpt>
      <trkpt lat="45.74004" lon="6.09514">
        <ele>586.1</ele>
        <time>2021-08-28T07:18:50Z</time>
      </trkpt>
      <trkpt lat="45.74001" lon="6.09515">
        <ele>586.4</ele>
        <time>2021-08-28T07:18:51Z</time>
      </trkpt>
      <trkpt lat="45.74002" lon="6.09516">
        <ele>586.5</ele>
        <time>2021-08-28T07:18:52Z</time>
      </trkpt>
      <trkpt lat="45.74001" lon="6.09517">
        <ele>586.6</ele>
        <time>2021-08-28T07:18:54Z</time>
      </trkpt>
      <trkpt lat="45.73998" lon="6.09516">
        <ele>586.9</ele>
        <time>2021-08-28T07:18:55Z</time>
      </trkpt>
      <trkpt lat="45.73995" lon="6.09517">
        <ele>587.2</ele>
        <time>2021-08-28T07:18:56Z</time>
      </trkpt>
      <trkpt lat="45.73994" lon="6.09517">
        <ele>587.3</ele>
        <time>2021-08-28T07:18:57Z</time>
      </trkpt>
      <trkpt lat="45.73991" lon="6.09518">
        <ele>587.7</ele>
        <time>2021-08-28T07:18:59Z</time>
      </trkpt>
      <trkpt lat="45.7399" lon="6.09519">
        <ele>587.8</ele>
        <time>2021-08-28T07:19:00Z</time>
      </trkpt>
      <trkpt lat="45.7399" lon="6.09521">
        <ele>587.9</ele>
        <time>2021-08-28T07:19:01Z</time>
      </trkpt>
      <trkpt lat="45.7399" lon="6.09522">
        <ele>588.1</ele>
        <time>2021-08-28T07:19:03Z</time>
      </trkpt>
      <trkpt lat="45.73988" lon="6.09522">
        <ele>588.3</ele>
        <time>2021-08-28T07:19:05Z</time>
      </trkpt>
      <trkpt lat="45.73983" lon="6.09522">
        <ele>588.8</ele>
        <time>2021-08-28T07:19:06Z</time>
      </trkpt>
      <trkpt lat="45.73981" lon="6.09522">
        <ele>589.1</ele>
        <time>2021-08-28T07:19:07Z</time>
      </trkpt>
      <trkpt lat="45.73979" lon="6.09522">
        <ele>589.3</ele>
        <time>2021-08-28T07:19:09Z</time>
      </trkpt>
      <trkpt lat="45.73979" lon="6.09521">
        <ele>589.4</ele>
        <time>2021-08-28T07:19:10Z</time>
      </trkpt>
      <trkpt lat="45.73978" lon="6.09521">
        <ele>589.6</ele>
        <time>2021-08-28T07:19:11Z</time>
      </trkpt>
      <trkpt lat="45.73977" lon="6.09521">
        <ele>589.7</ele>
        <time>2021-08-28T07:19:13Z</time>
      </trkpt>
      <trkpt lat="45.73974" lon="6.09522">
        <ele>590</ele>
        <time>2021-08-28T07:19:15Z</time>
      </trkpt>
      <trkpt lat="45.7397" lon="6.09523">
        <ele>590.4</ele>
        <time>2021-08-28T07:19:16Z</time>
      </trkpt>
      <trkpt lat="45.73969" lon="6.09523">
        <ele>590.5</ele>
        <time>2021-08-28T07:19:17Z</time>
      </trkpt>
      <trkpt lat="45.73966" lon="6.09522">
        <ele>590.9</ele>
        <time>2021-08-28T07:19:19Z</time>
      </trkpt>
      <trkpt lat="45.73966" lon="6.09519">
        <ele>591.1</ele>
        <time>2021-08-28T07:19:22Z</time>
      </trkpt>
      <trkpt lat="45.73964" lon="6.09518">
        <ele>591.3</ele>
        <time>2021-08-28T07:19:23Z</time>
      </trkpt>
      <trkpt lat="45.73961" lon="6.09517">
        <ele>591.6</ele>
        <time>2021-08-28T07:19:24Z</time>
      </trkpt>
      <trkpt lat="45.7396" lon="6.09517">
        <ele>591.7</ele>
        <time>2021-08-28T07:19:25Z</time>
      </trkpt>
      <trkpt lat="45.73959" lon="6.09517">
        <ele>591.9</ele>
        <time>2021-08-28T07:19:26Z</time>
      </trkpt>
      <trkpt lat="45.73957" lon="6.09516">
        <ele>592</ele>
        <time>2021-08-28T07:19:27Z</time>
      </trkpt>
      <trkpt lat="45.73956" lon="6.09516">
        <ele>592.2</ele>
        <time>2021-08-28T07:19:28Z</time>
      </trkpt>
      <trkpt lat="45.73954" lon="6.09515">
        <ele>592.3</ele>
        <time>2021-08-28T07:19:29Z</time>
      </trkpt>
      <trkpt lat="45.73953" lon="6.09515">
        <ele>592.5</ele>
        <time>2021-08-28T07:19:30Z</time>
      </trkpt>
      <trkpt lat="45.73952" lon="6.09515">
        <ele>592.6</ele>
        <time>2021-08-28T07:19:31Z</time>
      </trkpt>
      <trkpt lat="45.7395" lon="6.09515">
        <ele>592.8</ele>
        <time>2021-08-28T07:19:32Z</time>
      </trkpt>
      <trkpt lat="45.73949" lon="6.09515">
        <ele>592.9</ele>
        <time>2021-08-28T07:19:33Z</time>
      </trkpt>
      <trkpt lat="45.73947" lon="6.09515">
        <ele>593</ele>
        <time>2021-08-28T07:19:34Z</time>
      </trkpt>
      <trkpt lat="45.73946" lon="6.09515">
        <ele>593.2</ele>
        <time>2021-08-28T07:19:35Z</time>
      </trkpt>
      <trkpt lat="45.73944" lon="6.09515">
        <ele>593.4</ele>
        <time>2021-08-28T07:19:36Z</time>
      </trkpt>
      <trkpt lat="45.73943" lon="6.09515">
        <ele>593.5</ele>
        <time>2021-08-28T07:19:37Z</time>
      </trkpt>
      <trkpt lat="45.73941" lon="6.09515">
        <ele>593.7</ele>
        <time>2021-08-28T07:19:38Z</time>
      </trkpt>
      <trkpt lat="45.7394" lon="6.09515">
        <ele>593.9</ele>
        <time>2021-08-28T07:19:39Z</time>
      </trkpt>
      <trkpt lat="45.73938" lon="6.09515">
        <ele>594</ele>
        <time>2021-08-28T07:19:40Z</time>
      </trkpt>
      <trkpt lat="45.73937" lon="6.09514">
        <ele>594.2</ele>
        <time>2021-08-28T07:19:41Z</time>
      </trkpt>
      <trkpt lat="45.73935" lon="6.09514">
        <ele>594.4</ele>
        <time>2021-08-28T07:19:42Z</time>
      </trkpt>
      <trkpt lat="45.73933" lon="6.09514">
        <ele>594.5</ele>
        <time>2021-08-28T07:19:43Z</time>
      </trkpt>
      <trkpt lat="45.73932" lon="6.09513">
        <ele>594.7</ele>
        <time>2021-08-28T07:19:44Z</time>
      </trkpt>
      <trkpt lat="45.7393" lon="6.09513">
        <ele>594.8</ele>
        <time>2021-08-28T07:19:45Z</time>
      </trkpt>
      <trkpt lat="45.73929" lon="6.09513">
        <ele>595</ele>
        <time>2021-08-28T07:19:46Z</time>
      </trkpt>
      <trkpt lat="45.73927" lon="6.09513">
        <ele>595.2</ele>
        <time>2021-08-28T07:19:47Z</time>
      </trkpt>
      <trkpt lat="45.73925" lon="6.09513">
        <ele>595.3</ele>
        <time>2021-08-28T07:19:48Z</time>
      </trkpt>
      <trkpt lat="45.73924" lon="6.09514">
        <ele>595.5</ele>
        <time>2021-08-28T07:19:49Z</time>
      </trkpt>
      <trkpt lat="45.7392" lon="6.09516">
        <ele>595.9</ele>
        <time>2021-08-28T07:19:50Z</time>
      </trkpt>
      <trkpt lat="45.73915" lon="6.09518">
        <ele>596.4</ele>
        <time>2021-08-28T07:19:53Z</time>
      </trkpt>
      <trkpt lat="45.73914" lon="6.09519">
        <ele>596.5</ele>
        <time>2021-08-28T07:19:55Z</time>
      </trkpt>
      <trkpt lat="45.73914" lon="6.09519">
        <ele>596.6</ele>
        <time>2021-08-28T07:19:56Z</time>
      </trkpt>
      <trkpt lat="45.73912" lon="6.0952">
        <ele>596.8</ele>
        <time>2021-08-28T07:19:58Z</time>
      </trkpt>
      <trkpt lat="45.7391" lon="6.09521">
        <ele>597.1</ele>
        <time>2021-08-28T07:19:59Z</time>
      </trkpt>
      <trkpt lat="45.73904" lon="6.09522">
        <ele>597.7</ele>
        <time>2021-08-28T07:20:01Z</time>
      </trkpt>
      <trkpt lat="45.73899" lon="6.09522">
        <ele>598.2</ele>
        <time>2021-08-28T07:20:03Z</time>
      </trkpt>
      <trkpt lat="45.73896" lon="6.09521">
        <ele>598.6</ele>
        <time>2021-08-28T07:20:05Z</time>
      </trkpt>
      <trkpt lat="45.73895" lon="6.09521">
        <ele>598.7</ele>
        <time>2021-08-28T07:20:06Z</time>
      </trkpt>
      <trkpt lat="45.73894" lon="6.0952">
        <ele>598.8</ele>
        <time>2021-08-28T07:20:07Z</time>
      </trkpt>
      <trkpt lat="45.73894" lon="6.09518">
        <ele>598.9</ele>
        <time>2021-08-28T07:20:08Z</time>
      </trkpt>
      <trkpt lat="45.73893" lon="6.09517">
        <ele>599</ele>
        <time>2021-08-28T07:20:09Z</time>
      </trkpt>
      <trkpt lat="45.7389" lon="6.09515">
        <ele>599.4</ele>
        <time>2021-08-28T07:20:10Z</time>
      </trkpt>
      <trkpt lat="45.73889" lon="6.09515">
        <ele>599.5</ele>
        <time>2021-08-28T07:20:11Z</time>
      </trkpt>
      <trkpt lat="45.73886" lon="6.09513">
        <ele>599.9</ele>
        <time>2021-08-28T07:20:13Z</time>
      </trkpt>
      <trkpt lat="45.73884" lon="6.09512">
        <ele>600</ele>
        <time>2021-08-28T07:20:14Z</time>
      </trkpt>
      <trkpt lat="45.73881" lon="6.0951">
        <ele>600.4</ele>
        <time>2021-08-28T07:20:16Z</time>
      </trkpt>
      <trkpt lat="45.73878" lon="6.09508">
        <ele>600.8</ele>
        <time>2021-08-28T07:20:18Z</time>
      </trkpt>
      <trkpt lat="45.73876" lon="6.09506">
        <ele>601</ele>
        <time>2021-08-28T07:20:19Z</time>
      </trkpt>
      <trkpt lat="45.73875" lon="6.09506">
        <ele>601.1</ele>
        <time>2021-08-28T07:20:20Z</time>
      </trkpt>
      <trkpt lat="45.73875" lon="6.09503">
        <ele>601.3</ele>
        <time>2021-08-28T07:20:22Z</time>
      </trkpt>
      <trkpt lat="45.73876" lon="6.09503">
        <ele>601.4</ele>
        <time>2021-08-28T07:20:25Z</time>
      </trkpt>
      <trkpt lat="45.73876" lon="6.09504">
        <ele>601.4</ele>
        <time>2021-08-28T07:20:26Z</time>
      </trkpt>
      <trkpt lat="45.73876" lon="6.09504">
        <ele>601.5</ele>
        <time>2021-08-28T07:20:27Z</time>
      </trkpt>
      <trkpt lat="45.73877" lon="6.09505">
        <ele>601.5</ele>
        <time>2021-08-28T07:20:28Z</time>
      </trkpt>
      <trkpt lat="45.73877" lon="6.09505">
        <ele>601.5</ele>
        <time>2021-08-28T07:20:29Z</time>
      </trkpt>
      <trkpt lat="45.73877" lon="6.09505">
        <ele>601.5</ele>
        <time>2021-08-28T07:20:30Z</time>
      </trkpt>
      <trkpt lat="45.73877" lon="6.09505">
        <ele>601.6</ele>
        <time>2021-08-28T07:20:31Z</time>
      </trkpt>
      <trkpt lat="45.73877" lon="6.09505">
        <ele>601.6</ele>
        <time>2021-08-28T07:20:32Z</time>
      </trkpt>
      <trkpt lat="45.73876" lon="6.09505">
        <ele>601.6</ele>
        <time>2021-08-28T07:20:33Z</time>
      </trkpt>
      <trkpt lat="45.73875" lon="6.09505">
        <ele>601.7</ele>
        <time>2021-08-28T07:20:34Z</time>
      </trkpt>
      <trkpt lat="45.73875" lon="6.09505">
        <ele>601.8</ele>
        <time>2021-08-28T07:20:35Z</time>
      </trkpt>
      <trkpt lat="45.73874" lon="6.09507">
        <ele>601.9</ele>
        <time>2021-08-28T07:20:38Z</time>
      </trkpt>
      <trkpt lat="45.73874" lon="6.09507">
        <ele>601.9</ele>
        <time>2021-08-28T07:20:39Z</time>
      </trkpt>
      <trkpt lat="45.73874" lon="6.09507">
        <ele>601.9</ele>
        <time>2021-08-28T07:20:40Z</time>
      </trkpt>
      <trkpt lat="45.73874" lon="6.09508">
        <ele>601.9</ele>
        <time>2021-08-28T07:20:41Z</time>
      </trkpt>
      <trkpt lat="45.73874" lon="6.09508">
        <ele>602</ele>
        <time>2021-08-28T07:20:42Z</time>
      </trkpt>
      <trkpt lat="45.73874" lon="6.09508">
        <ele>602</ele>
        <time>2021-08-28T07:20:43Z</time>
      </trkpt>
      <trkpt lat="45.73873" lon="6.09508">
        <ele>602</ele>
        <time>2021-08-28T07:20:44Z</time>
      </trkpt>
      <trkpt lat="45.73872" lon="6.09508">
        <ele>602.2</ele>
        <time>2021-08-28T07:20:46Z</time>
      </trkpt>
      <trkpt lat="45.73872" lon="6.09508">
        <ele>602.2</ele>
        <time>2021-08-28T07:20:46Z</time>
      </trkpt>
      <trkpt lat="45.73871" lon="6.09508">
        <ele>602.2</ele>
        <time>2021-08-28T07:20:47Z</time>
      </trkpt>
      <trkpt lat="45.73871" lon="6.09508">
        <ele>602.2</ele>
        <time>2021-08-28T07:20:48Z</time>
      </trkpt>
      <trkpt lat="45.73871" lon="6.09508">
        <ele>602.2</ele>
        <time>2021-08-28T07:20:49Z</time>
      </trkpt>
      <trkpt lat="45.73871" lon="6.09508">
        <ele>602.3</ele>
        <time>2021-08-28T07:20:50Z</time>
      </trkpt>
      <trkpt lat="45.73871" lon="6.09508">
        <ele>602.3</ele>
        <time>2021-08-28T07:20:51Z</time>
      </trkpt>
      <trkpt lat="45.73871" lon="6.09508">
        <ele>602.3</ele>
        <time>2021-08-28T07:20:52Z</time>
      </trkpt>
      <trkpt lat="45.73871" lon="6.09509">
        <ele>602.3</ele>
        <time>2021-08-28T07:20:53Z</time>
      </trkpt>
      <trkpt lat="45.73871" lon="6.09509">
        <ele>602.3</ele>
        <time>2021-08-28T07:20:54Z</time>
      </trkpt>
      <trkpt lat="45.73871" lon="6.09509">
        <ele>602.3</ele>
        <time>2021-08-28T07:20:55Z</time>
      </trkpt>
      <trkpt lat="45.73871" lon="6.09509">
        <ele>602.3</ele>
        <time>2021-08-28T07:20:56Z</time>
      </trkpt>
      <trkpt lat="45.73871" lon="6.09509">
        <ele>602.3</ele>
        <time>2021-08-28T07:20:57Z</time>
      </trkpt>
      <trkpt lat="45.73871" lon="6.09509">
        <ele>602.3</ele>
        <time>2021-08-28T07:20:58Z</time>
      </trkpt>
      <trkpt lat="45.73869" lon="6.0951">
        <ele>602.5</ele>
        <time>2021-08-28T07:22:46Z</time>
      </trkpt>
      <trkpt lat="45.73869" lon="6.0951">
        <ele>602.5</ele>
        <time>2021-08-28T07:22:47Z</time>
      </trkpt>
      <trkpt lat="45.73868" lon="6.09511">
        <ele>602.6</ele>
        <time>2021-08-28T07:22:48Z</time>
      </trkpt>
      <trkpt lat="45.73866" lon="6.09512">
        <ele>602.7</ele>
        <time>2021-08-28T07:22:49Z</time>
      </trkpt>
      <trkpt lat="45.73865" lon="6.09511">
        <ele>602.9</ele>
        <time>2021-08-28T07:22:50Z</time>
      </trkpt>
      <trkpt lat="45.73863" lon="6.0951">
        <ele>603.1</ele>
        <time>2021-08-28T07:22:51Z</time>
      </trkpt>
      <trkpt lat="45.73863" lon="6.09509">
        <ele>603.1</ele>
        <time>2021-08-28T07:22:52Z</time>
      </trkpt>
      <trkpt lat="45.73864" lon="6.09511">
        <ele>603.3</ele>
        <time>2021-08-28T07:22:53Z</time>
      </trkpt>
      <trkpt lat="45.73864" lon="6.09512">
        <ele>603.4</ele>
        <time>2021-08-28T07:22:54Z</time>
      </trkpt>
      <trkpt lat="45.7386" lon="6.09511">
        <ele>603.8</ele>
        <time>2021-08-28T07:22:56Z</time>
      </trkpt>
      <trkpt lat="45.73856" lon="6.09511">
        <ele>604.1</ele>
        <time>2021-08-28T07:22:57Z</time>
      </trkpt>
      <trkpt lat="45.73854" lon="6.09509">
        <ele>604.4</ele>
        <time>2021-08-28T07:22:58Z</time>
      </trkpt>
      <trkpt lat="45.73848" lon="6.09509">
        <ele>604.8</ele>
        <time>2021-08-28T07:23:00Z</time>
      </trkpt>
      <trkpt lat="45.73845" lon="6.09509">
        <ele>605.1</ele>
        <time>2021-08-28T07:23:01Z</time>
      </trkpt>
      <trkpt lat="45.73844" lon="6.09509">
        <ele>605.3</ele>
        <time>2021-08-28T07:23:02Z</time>
      </trkpt>
      <trkpt lat="45.73842" lon="6.0951">
        <ele>605.4</ele>
        <time>2021-08-28T07:23:03Z</time>
      </trkpt>
      <trkpt lat="45.7384" lon="6.0951">
        <ele>605.6</ele>
        <time>2021-08-28T07:23:05Z</time>
      </trkpt>
      <trkpt lat="45.73837" lon="6.0951">
        <ele>605.9</ele>
        <time>2021-08-28T07:23:07Z</time>
      </trkpt>
      <trkpt lat="45.73836" lon="6.09509">
        <ele>606</ele>
        <time>2021-08-28T07:23:08Z</time>
      </trkpt>
      <trkpt lat="45.73833" lon="6.09506">
        <ele>606.3</ele>
        <time>2021-08-28T07:23:10Z</time>
      </trkpt>
      <trkpt lat="45.73831" lon="6.09504">
        <ele>606.5</ele>
        <time>2021-08-28T07:23:11Z</time>
      </trkpt>
      <trkpt lat="45.7383" lon="6.09503">
        <ele>606.6</ele>
        <time>2021-08-28T07:23:13Z</time>
      </trkpt>
      <trkpt lat="45.73829" lon="6.09502">
        <ele>606.8</ele>
        <time>2021-08-28T07:23:15Z</time>
      </trkpt>
      <trkpt lat="45.73828" lon="6.09501">
        <ele>606.9</ele>
        <time>2021-08-28T07:23:16Z</time>
      </trkpt>
      <trkpt lat="45.73826" lon="6.095">
        <ele>607</ele>
        <time>2021-08-28T07:23:17Z</time>
      </trkpt>
      <trkpt lat="45.73824" lon="6.095">
        <ele>607.2</ele>
        <time>2021-08-28T07:23:19Z</time>
      </trkpt>
      <trkpt lat="45.73824" lon="6.095">
        <ele>607.3</ele>
        <time>2021-08-28T07:23:20Z</time>
      </trkpt>
      <trkpt lat="45.73821" lon="6.09496">
        <ele>607.6</ele>
        <time>2021-08-28T07:23:22Z</time>
      </trkpt>
      <trkpt lat="45.73818" lon="6.09494">
        <ele>608</ele>
        <time>2021-08-28T07:23:24Z</time>
      </trkpt>
      <trkpt lat="45.73817" lon="6.09493">
        <ele>608.1</ele>
        <time>2021-08-28T07:23:25Z</time>
      </trkpt>
      <trkpt lat="45.73814" lon="6.09491">
        <ele>608.4</ele>
        <time>2021-08-28T07:23:27Z</time>
      </trkpt>
      <trkpt lat="45.73811" lon="6.0949">
        <ele>608.7</ele>
        <time>2021-08-28T07:23:29Z</time>
      </trkpt>
      <trkpt lat="45.73807" lon="6.09488">
        <ele>609.1</ele>
        <time>2021-08-28T07:23:31Z</time>
      </trkpt>
      <trkpt lat="45.73804" lon="6.09489">
        <ele>609.3</ele>
        <time>2021-08-28T07:23:33Z</time>
      </trkpt>
      <trkpt lat="45.73802" lon="6.09488">
        <ele>609.5</ele>
        <time>2021-08-28T07:23:35Z</time>
      </trkpt>
      <trkpt lat="45.73799" lon="6.09486">
        <ele>609.8</ele>
        <time>2021-08-28T07:23:37Z</time>
      </trkpt>
      <trkpt lat="45.73794" lon="6.09484">
        <ele>610.3</ele>
        <time>2021-08-28T07:23:39Z</time>
      </trkpt>
      <trkpt lat="45.73793" lon="6.09484">
        <ele>610.5</ele>
        <time>2021-08-28T07:23:41Z</time>
      </trkpt>
      <trkpt lat="45.73791" lon="6.09483">
        <ele>610.6</ele>
        <time>2021-08-28T07:23:42Z</time>
      </trkpt>
      <trkpt lat="45.73789" lon="6.09483">
        <ele>610.8</ele>
        <time>2021-08-28T07:23:43Z</time>
      </trkpt>
      <trkpt lat="45.73786" lon="6.09481">
        <ele>611.1</ele>
        <time>2021-08-28T07:23:44Z</time>
      </trkpt>
      <trkpt lat="45.73784" lon="6.09481">
        <ele>611.4</ele>
        <time>2021-08-28T07:23:46Z</time>
      </trkpt>
      <trkpt lat="45.73782" lon="6.0948">
        <ele>611.6</ele>
        <time>2021-08-28T07:23:47Z</time>
      </trkpt>
      <trkpt lat="45.7378" lon="6.0948">
        <ele>611.7</ele>
        <time>2021-08-28T07:23:49Z</time>
      </trkpt>
      <trkpt lat="45.73777" lon="6.09479">
        <ele>612</ele>
        <time>2021-08-28T07:23:50Z</time>
      </trkpt>
      <trkpt lat="45.73773" lon="6.09479">
        <ele>612.4</ele>
        <time>2021-08-28T07:23:52Z</time>
      </trkpt>
      <trkpt lat="45.73772" lon="6.09479">
        <ele>612.5</ele>
        <time>2021-08-28T07:23:53Z</time>
      </trkpt>
      <trkpt lat="45.73769" lon="6.09478">
        <ele>612.8</ele>
        <time>2021-08-28T07:23:54Z</time>
      </trkpt>
      <trkpt lat="45.73768" lon="6.09477">
        <ele>612.9</ele>
        <time>2021-08-28T07:23:56Z</time>
      </trkpt>
      <trkpt lat="45.73765" lon="6.09475">
        <ele>613.2</ele>
        <time>2021-08-28T07:23:58Z</time>
      </trkpt>
      <trkpt lat="45.73764" lon="6.09475">
        <ele>613.3</ele>
        <time>2021-08-28T07:23:59Z</time>
      </trkpt>
      <trkpt lat="45.73761" lon="6.09476">
        <ele>613.6</ele>
        <time>2021-08-28T07:24:01Z</time>
      </trkpt>
      <trkpt lat="45.73759" lon="6.09478">
        <ele>613.8</ele>
        <time>2021-08-28T07:24:02Z</time>
      </trkpt>
      <trkpt lat="45.73757" lon="6.09478">
        <ele>613.9</ele>
        <time>2021-08-28T07:24:03Z</time>
      </trkpt>
      <trkpt lat="45.73754" lon="6.09479">
        <ele>614.3</ele>
        <time>2021-08-28T07:24:05Z</time>
      </trkpt>
      <trkpt lat="45.73751" lon="6.0948">
        <ele>614.6</ele>
        <time>2021-08-28T07:24:07Z</time>
      </trkpt>
      <trkpt lat="45.73748" lon="6.0948">
        <ele>614.9</ele>
        <time>2021-08-28T07:24:09Z</time>
      </trkpt>
      <trkpt lat="45.73746" lon="6.09479">
        <ele>615.1</ele>
        <time>2021-08-28T07:24:10Z</time>
      </trkpt>
      <trkpt lat="45.73743" lon="6.0948">
        <ele>615.3</ele>
        <time>2021-08-28T07:24:12Z</time>
      </trkpt>
      <trkpt lat="45.73741" lon="6.0948">
        <ele>615.5</ele>
        <time>2021-08-28T07:24:14Z</time>
      </trkpt>
      <trkpt lat="45.7374" lon="6.09481">
        <ele>615.7</ele>
        <time>2021-08-28T07:24:15Z</time>
      </trkpt>
      <trkpt lat="45.73737" lon="6.09481">
        <ele>616</ele>
        <time>2021-08-28T07:24:17Z</time>
      </trkpt>
      <trkpt lat="45.73736" lon="6.09481">
        <ele>616.1</ele>
        <time>2021-08-28T07:24:18Z</time>
      </trkpt>
      <trkpt lat="45.73735" lon="6.09481">
        <ele>616.2</ele>
        <time>2021-08-28T07:24:19Z</time>
      </trkpt>
      <trkpt lat="45.73736" lon="6.09481">
        <ele>616.3</ele>
        <time>2021-08-28T07:24:21Z</time>
      </trkpt>
      <trkpt lat="45.73732" lon="6.09482">
        <ele>616.7</ele>
        <time>2021-08-28T07:24:23Z</time>
      </trkpt>
      <trkpt lat="45.73728" lon="6.09481">
        <ele>617.1</ele>
        <time>2021-08-28T07:24:25Z</time>
      </trkpt>
      <trkpt lat="45.73724" lon="6.09479">
        <ele>617.6</ele>
        <time>2021-08-28T07:24:27Z</time>
      </trkpt>
      <trkpt lat="45.73719" lon="6.09474">
        <ele>618.2</ele>
        <time>2021-08-28T07:24:30Z</time>
      </trkpt>
      <trkpt lat="45.73717" lon="6.09472">
        <ele>618.4</ele>
        <time>2021-08-28T07:24:31Z</time>
      </trkpt>
      <trkpt lat="45.73716" lon="6.09472">
        <ele>618.6</ele>
        <time>2021-08-28T07:24:32Z</time>
      </trkpt>
      <trkpt lat="45.73715" lon="6.0947">
        <ele>618.7</ele>
        <time>2021-08-28T07:24:33Z</time>
      </trkpt>
      <trkpt lat="45.73713" lon="6.09468">
        <ele>618.9</ele>
        <time>2021-08-28T07:24:35Z</time>
      </trkpt>
      <trkpt lat="45.73712" lon="6.09466">
        <ele>619.1</ele>
        <time>2021-08-28T07:24:36Z</time>
      </trkpt>
      <trkpt lat="45.73709" lon="6.09463">
        <ele>619.4</ele>
        <time>2021-08-28T07:24:38Z</time>
      </trkpt>
      <trkpt lat="45.7371" lon="6.09463">
        <ele>619.5</ele>
        <time>2021-08-28T07:24:39Z</time>
      </trkpt>
      <trkpt lat="45.7371" lon="6.09463">
        <ele>619.5</ele>
        <time>2021-08-28T07:24:41Z</time>
      </trkpt>
      <trkpt lat="45.73709" lon="6.09461">
        <ele>619.6</ele>
        <time>2021-08-28T07:24:43Z</time>
      </trkpt>
      <trkpt lat="45.73705" lon="6.09458">
        <ele>620.1</ele>
        <time>2021-08-28T07:24:45Z</time>
      </trkpt>
      <trkpt lat="45.73702" lon="6.09454">
        <ele>620.5</ele>
        <time>2021-08-28T07:24:47Z</time>
      </trkpt>
      <trkpt lat="45.737" lon="6.09453">
        <ele>620.7</ele>
        <time>2021-08-28T07:24:48Z</time>
      </trkpt>
      <trkpt lat="45.73698" lon="6.09451">
        <ele>621</ele>
        <time>2021-08-28T07:24:49Z</time>
      </trkpt>
      <trkpt lat="45.73696" lon="6.09449">
        <ele>621.2</ele>
        <time>2021-08-28T07:24:51Z</time>
      </trkpt>
      <trkpt lat="45.73695" lon="6.09448">
        <ele>621.4</ele>
        <time>2021-08-28T07:24:52Z</time>
      </trkpt>
      <trkpt lat="45.73693" lon="6.09447">
        <ele>621.5</ele>
        <time>2021-08-28T07:24:53Z</time>
      </trkpt>
      <trkpt lat="45.73691" lon="6.09446">
        <ele>621.7</ele>
        <time>2021-08-28T07:24:54Z</time>
      </trkpt>
      <trkpt lat="45.73686" lon="6.09444">
        <ele>622.2</ele>
        <time>2021-08-28T07:24:56Z</time>
      </trkpt>
      <trkpt lat="45.73682" lon="6.09447">
        <ele>622.7</ele>
        <time>2021-08-28T07:24:58Z</time>
      </trkpt>
      <trkpt lat="45.73679" lon="6.09447">
        <ele>623</ele>
        <time>2021-08-28T07:24:59Z</time>
      </trkpt>
      <trkpt lat="45.73677" lon="6.09448">
        <ele>623.2</ele>
        <time>2021-08-28T07:25:01Z</time>
      </trkpt>
      <trkpt lat="45.73675" lon="6.09448">
        <ele>623.4</ele>
        <time>2021-08-28T07:25:03Z</time>
      </trkpt>
      <trkpt lat="45.73672" lon="6.09447">
        <ele>623.7</ele>
        <time>2021-08-28T07:25:04Z</time>
      </trkpt>
      <trkpt lat="45.7367" lon="6.09447">
        <ele>624</ele>
        <time>2021-08-28T07:25:06Z</time>
      </trkpt>
      <trkpt lat="45.73669" lon="6.09447">
        <ele>624.1</ele>
        <time>2021-08-28T07:25:07Z</time>
      </trkpt>
      <trkpt lat="45.73665" lon="6.09448">
        <ele>624.4</ele>
        <time>2021-08-28T07:25:08Z</time>
      </trkpt>
      <trkpt lat="45.73666" lon="6.09451">
        <ele>624.7</ele>
        <time>2021-08-28T07:25:11Z</time>
      </trkpt>
      <trkpt lat="45.73666" lon="6.09452">
        <ele>624.8</ele>
        <time>2021-08-28T07:25:12Z</time>
      </trkpt>
      <trkpt lat="45.73662" lon="6.09453">
        <ele>625.2</ele>
        <time>2021-08-28T07:25:14Z</time>
      </trkpt>
      <trkpt lat="45.73659" lon="6.09456">
        <ele>625.5</ele>
        <time>2021-08-28T07:25:15Z</time>
      </trkpt>
      <trkpt lat="45.73657" lon="6.0946">
        <ele>625.9</ele>
        <time>2021-08-28T07:25:17Z</time>
      </trkpt>
      <trkpt lat="45.73654" lon="6.09464">
        <ele>626.2</ele>
        <time>2021-08-28T07:25:19Z</time>
      </trkpt>
      <trkpt lat="45.73652" lon="6.09465">
        <ele>626.4</ele>
        <time>2021-08-28T07:25:20Z</time>
      </trkpt>
      <trkpt lat="45.73651" lon="6.09465">
        <ele>626.6</ele>
        <time>2021-08-28T07:25:22Z</time>
      </trkpt>
      <trkpt lat="45.73651" lon="6.09466">
        <ele>626.6</ele>
        <time>2021-08-28T07:25:23Z</time>
      </trkpt>
      <trkpt lat="45.7365" lon="6.09467">
        <ele>626.7</ele>
        <time>2021-08-28T07:25:25Z</time>
      </trkpt>
      <trkpt lat="45.73648" lon="6.09468">
        <ele>626.9</ele>
        <time>2021-08-28T07:25:27Z</time>
      </trkpt>
      <trkpt lat="45.73647" lon="6.09468">
        <ele>627</ele>
        <time>2021-08-28T07:25:28Z</time>
      </trkpt>
      <trkpt lat="45.73643" lon="6.0947">
        <ele>627.4</ele>
        <time>2021-08-28T07:25:29Z</time>
      </trkpt>
      <trkpt lat="45.73641" lon="6.09469">
        <ele>627.6</ele>
        <time>2021-08-28T07:25:30Z</time>
      </trkpt>
      <trkpt lat="45.73638" lon="6.0947">
        <ele>627.8</ele>
        <time>2021-08-28T07:25:32Z</time>
      </trkpt>
      <trkpt lat="45.73637" lon="6.09472">
        <ele>628</ele>
        <time>2021-08-28T07:25:34Z</time>
      </trkpt>
      <trkpt lat="45.73634" lon="6.09474">
        <ele>628.3</ele>
        <time>2021-08-28T07:25:36Z</time>
      </trkpt>
      <trkpt lat="45.7363" lon="6.09478">
        <ele>628.8</ele>
        <time>2021-08-28T07:25:37Z</time>
      </trkpt>
      <trkpt lat="45.73627" lon="6.09481">
        <ele>629.1</ele>
        <time>2021-08-28T07:25:39Z</time>
      </trkpt>
      <trkpt lat="45.73626" lon="6.0948">
        <ele>629.2</ele>
        <time>2021-08-28T07:25:40Z</time>
      </trkpt>
      <trkpt lat="45.73624" lon="6.09481">
        <ele>629.4</ele>
        <time>2021-08-28T07:25:41Z</time>
      </trkpt>
      <trkpt lat="45.73621" lon="6.09484">
        <ele>629.7</ele>
        <time>2021-08-28T07:25:43Z</time>
      </trkpt>
      <trkpt lat="45.73618" lon="6.09486">
        <ele>630</ele>
        <time>2021-08-28T07:25:45Z</time>
      </trkpt>
      <trkpt lat="45.73618" lon="6.09485">
        <ele>630.1</ele>
        <time>2021-08-28T07:25:46Z</time>
      </trkpt>
      <trkpt lat="45.73617" lon="6.09485">
        <ele>630.2</ele>
        <time>2021-08-28T07:25:48Z</time>
      </trkpt>
      <trkpt lat="45.73614" lon="6.09485">
        <ele>630.5</ele>
        <time>2021-08-28T07:25:50Z</time>
      </trkpt>
      <trkpt lat="45.73611" lon="6.09485">
        <ele>630.7</ele>
        <time>2021-08-28T07:25:52Z</time>
      </trkpt>
      <trkpt lat="45.73606" lon="6.09484">
        <ele>631.1</ele>
        <time>2021-08-28T07:25:55Z</time>
      </trkpt>
      <trkpt lat="45.73602" lon="6.09482">
        <ele>631.4</ele>
        <time>2021-08-28T07:25:57Z</time>
      </trkpt>
      <trkpt lat="45.73596" lon="6.09477">
        <ele>631.9</ele>
        <time>2021-08-28T07:26:00Z</time>
      </trkpt>
      <trkpt lat="45.73595" lon="6.09476">
        <ele>632</ele>
        <time>2021-08-28T07:26:01Z</time>
      </trkpt>
      <trkpt lat="45.73594" lon="6.09474">
        <ele>632.1</ele>
        <time>2021-08-28T07:26:02Z</time>
      </trkpt>
      <trkpt lat="45.7359" lon="6.09471">
        <ele>632.3</ele>
        <time>2021-08-28T07:26:04Z</time>
      </trkpt>
      <trkpt lat="45.73587" lon="6.09467">
        <ele>632.5</ele>
        <time>2021-08-28T07:26:06Z</time>
      </trkpt>
      <trkpt lat="45.73585" lon="6.09464">
        <ele>632.7</ele>
        <time>2021-08-28T07:26:07Z</time>
      </trkpt>
      <trkpt lat="45.73582" lon="6.0946">
        <ele>633</ele>
        <time>2021-08-28T07:26:09Z</time>
      </trkpt>
      <trkpt lat="45.7358" lon="6.09458">
        <ele>633.1</ele>
        <time>2021-08-28T07:26:10Z</time>
      </trkpt>
      <trkpt lat="45.73578" lon="6.09457">
        <ele>633.2</ele>
        <time>2021-08-28T07:26:12Z</time>
      </trkpt>
      <trkpt lat="45.73576" lon="6.09457">
        <ele>633.3</ele>
        <time>2021-08-28T07:26:13Z</time>
      </trkpt>
      <trkpt lat="45.73574" lon="6.09456">
        <ele>633.4</ele>
        <time>2021-08-28T07:26:14Z</time>
      </trkpt>
      <trkpt lat="45.7357" lon="6.09455">
        <ele>633.7</ele>
        <time>2021-08-28T07:26:16Z</time>
      </trkpt>
      <trkpt lat="45.73568" lon="6.09454">
        <ele>633.7</ele>
        <time>2021-08-28T07:26:17Z</time>
      </trkpt>
      <trkpt lat="45.73564" lon="6.09451">
        <ele>634</ele>
        <time>2021-08-28T07:26:19Z</time>
      </trkpt>
      <trkpt lat="45.73561" lon="6.0945">
        <ele>634.2</ele>
        <time>2021-08-28T07:26:20Z</time>
      </trkpt>
      <trkpt lat="45.7356" lon="6.0945">
        <ele>634.2</ele>
        <time>2021-08-28T07:26:21Z</time>
      </trkpt>
      <trkpt lat="45.73555" lon="6.09449">
        <ele>634.5</ele>
        <time>2021-08-28T07:26:22Z</time>
      </trkpt>
      <trkpt lat="45.73553" lon="6.09449">
        <ele>634.6</ele>
        <time>2021-08-28T07:26:23Z</time>
      </trkpt>
      <trkpt lat="45.7355" lon="6.09449">
        <ele>634.8</ele>
        <time>2021-08-28T07:26:25Z</time>
      </trkpt>
      <trkpt lat="45.73548" lon="6.09449">
        <ele>634.8</ele>
        <time>2021-08-28T07:26:26Z</time>
      </trkpt>
      <trkpt lat="45.73544" lon="6.09449">
        <ele>635.1</ele>
        <time>2021-08-28T07:26:28Z</time>
      </trkpt>
      <trkpt lat="45.73541" lon="6.09449">
        <ele>635.2</ele>
        <time>2021-08-28T07:26:29Z</time>
      </trkpt>
      <trkpt lat="45.73537" lon="6.09451">
        <ele>635.5</ele>
        <time>2021-08-28T07:26:31Z</time>
      </trkpt>
      <trkpt lat="45.73532" lon="6.09452">
        <ele>635.7</ele>
        <time>2021-08-28T07:26:33Z</time>
      </trkpt>
      <trkpt lat="45.73528" lon="6.09451">
        <ele>636</ele>
        <time>2021-08-28T07:26:35Z</time>
      </trkpt>
      <trkpt lat="45.73525" lon="6.09452">
        <ele>636.1</ele>
        <time>2021-08-28T07:26:37Z</time>
      </trkpt>
      <trkpt lat="45.73523" lon="6.09451">
        <ele>636.3</ele>
        <time>2021-08-28T07:26:38Z</time>
      </trkpt>
      <trkpt lat="45.73518" lon="6.0945">
        <ele>636.5</ele>
        <time>2021-08-28T07:26:40Z</time>
      </trkpt>
      <trkpt lat="45.73515" lon="6.09451">
        <ele>636.7</ele>
        <time>2021-08-28T07:26:42Z</time>
      </trkpt>
      <trkpt lat="45.73511" lon="6.09449">
        <ele>637</ele>
        <time>2021-08-28T07:26:44Z</time>
      </trkpt>
      <trkpt lat="45.73506" lon="6.09449">
        <ele>637.2</ele>
        <time>2021-08-28T07:26:45Z</time>
      </trkpt>
      <trkpt lat="45.73503" lon="6.09446">
        <ele>637.4</ele>
        <time>2021-08-28T07:26:47Z</time>
      </trkpt>
      <trkpt lat="45.73499" lon="6.09445">
        <ele>637.6</ele>
        <time>2021-08-28T07:26:49Z</time>
      </trkpt>
      <trkpt lat="45.73495" lon="6.09445">
        <ele>637.8</ele>
        <time>2021-08-28T07:26:50Z</time>
      </trkpt>
      <trkpt lat="45.73493" lon="6.09445">
        <ele>638</ele>
        <time>2021-08-28T07:26:51Z</time>
      </trkpt>
      <trkpt lat="45.7349" lon="6.09445">
        <ele>638.1</ele>
        <time>2021-08-28T07:26:52Z</time>
      </trkpt>
      <trkpt lat="45.73487" lon="6.09446">
        <ele>638.3</ele>
        <time>2021-08-28T07:26:54Z</time>
      </trkpt>
      <trkpt lat="45.73485" lon="6.09446">
        <ele>638.4</ele>
        <time>2021-08-28T07:26:55Z</time>
      </trkpt>
      <trkpt lat="45.7348" lon="6.09448">
        <ele>638.7</ele>
        <time>2021-08-28T07:26:56Z</time>
      </trkpt>
      <trkpt lat="45.73476" lon="6.09448">
        <ele>638.9</ele>
        <time>2021-08-28T07:26:58Z</time>
      </trkpt>
      <trkpt lat="45.73472" lon="6.09448">
        <ele>639.1</ele>
        <time>2021-08-28T07:27:01Z</time>
      </trkpt>
      <trkpt lat="45.73469" lon="6.09449">
        <ele>639.3</ele>
        <time>2021-08-28T07:27:02Z</time>
      </trkpt>
      <trkpt lat="45.73466" lon="6.09448">
        <ele>639.4</ele>
        <time>2021-08-28T07:27:03Z</time>
      </trkpt>
      <trkpt lat="45.73462" lon="6.09448">
        <ele>639.7</ele>
        <time>2021-08-28T07:27:05Z</time>
      </trkpt>
      <trkpt lat="45.73459" lon="6.09447">
        <ele>639.8</ele>
        <time>2021-08-28T07:27:06Z</time>
      </trkpt>
      <trkpt lat="45.73458" lon="6.09447">
        <ele>639.9</ele>
        <time>2021-08-28T07:27:07Z</time>
      </trkpt>
      <trkpt lat="45.73454" lon="6.09446">
        <ele>640.1</ele>
        <time>2021-08-28T07:27:08Z</time>
      </trkpt>
      <trkpt lat="45.73452" lon="6.09445">
        <ele>640.2</ele>
        <time>2021-08-28T07:27:09Z</time>
      </trkpt>
      <trkpt lat="45.7345" lon="6.09445">
        <ele>640.4</ele>
        <time>2021-08-28T07:27:11Z</time>
      </trkpt>
      <trkpt lat="45.73445" lon="6.09444">
        <ele>640.6</ele>
        <time>2021-08-28T07:27:12Z</time>
      </trkpt>
      <trkpt lat="45.73442" lon="6.09443">
        <ele>640.8</ele>
        <time>2021-08-28T07:27:14Z</time>
      </trkpt>
      <trkpt lat="45.73436" lon="6.09441">
        <ele>641.2</ele>
        <time>2021-08-28T07:27:17Z</time>
      </trkpt>
      <trkpt lat="45.73432" lon="6.09439">
        <ele>641.5</ele>
        <time>2021-08-28T07:27:19Z</time>
      </trkpt>
      <trkpt lat="45.73429" lon="6.09438">
        <ele>641.7</ele>
        <time>2021-08-28T07:27:20Z</time>
      </trkpt>
      <trkpt lat="45.73425" lon="6.09435">
        <ele>641.9</ele>
        <time>2021-08-28T07:27:22Z</time>
      </trkpt>
      <trkpt lat="45.73422" lon="6.09435">
        <ele>642.1</ele>
        <time>2021-08-28T07:27:23Z</time>
      </trkpt>
      <trkpt lat="45.73419" lon="6.09433">
        <ele>642.4</ele>
        <time>2021-08-28T07:27:25Z</time>
      </trkpt>
      <trkpt lat="45.73417" lon="6.09431">
        <ele>642.5</ele>
        <time>2021-08-28T07:27:26Z</time>
      </trkpt>
      <trkpt lat="45.7341" lon="6.09426">
        <ele>643</ele>
        <time>2021-08-28T07:27:29Z</time>
      </trkpt>
      <trkpt lat="45.73406" lon="6.09422">
        <ele>643.2</ele>
        <time>2021-08-28T07:27:30Z</time>
      </trkpt>
      <trkpt lat="45.73405" lon="6.09422">
        <ele>643.3</ele>
        <time>2021-08-28T07:27:32Z</time>
      </trkpt>
      <trkpt lat="45.73403" lon="6.09422">
        <ele>643.4</ele>
        <time>2021-08-28T07:27:33Z</time>
      </trkpt>
      <trkpt lat="45.73402" lon="6.09422">
        <ele>643.5</ele>
        <time>2021-08-28T07:27:35Z</time>
      </trkpt>
      <trkpt lat="45.73397" lon="6.09419">
        <ele>643.8</ele>
        <time>2021-08-28T07:27:37Z</time>
      </trkpt>
      <trkpt lat="45.73394" lon="6.09417">
        <ele>643.9</ele>
        <time>2021-08-28T07:27:38Z</time>
      </trkpt>
      <trkpt lat="45.73387" lon="6.09413">
        <ele>644.3</ele>
        <time>2021-08-28T07:27:41Z</time>
      </trkpt>
      <trkpt lat="45.73383" lon="6.0941">
        <ele>644.5</ele>
        <time>2021-08-28T07:27:43Z</time>
      </trkpt>
      <trkpt lat="45.7338" lon="6.09407">
        <ele>644.7</ele>
        <time>2021-08-28T07:27:45Z</time>
      </trkpt>
      <trkpt lat="45.73376" lon="6.09406">
        <ele>644.9</ele>
        <time>2021-08-28T07:27:46Z</time>
      </trkpt>
      <trkpt lat="45.73374" lon="6.09405">
        <ele>645</ele>
        <time>2021-08-28T07:27:47Z</time>
      </trkpt>
      <trkpt lat="45.73372" lon="6.09404">
        <ele>645.1</ele>
        <time>2021-08-28T07:27:49Z</time>
      </trkpt>
      <trkpt lat="45.73369" lon="6.09402">
        <ele>645.3</ele>
        <time>2021-08-28T07:27:50Z</time>
      </trkpt>
      <trkpt lat="45.73364" lon="6.094">
        <ele>645.6</ele>
        <time>2021-08-28T07:27:52Z</time>
      </trkpt>
      <trkpt lat="45.73362" lon="6.09399">
        <ele>645.7</ele>
        <time>2021-08-28T07:27:53Z</time>
      </trkpt>
      <trkpt lat="45.73359" lon="6.09398">
        <ele>645.9</ele>
        <time>2021-08-28T07:27:55Z</time>
      </trkpt>
      <trkpt lat="45.73356" lon="6.09396">
        <ele>646.1</ele>
        <time>2021-08-28T07:27:57Z</time>
      </trkpt>
      <trkpt lat="45.73353" lon="6.09396">
        <ele>646.2</ele>
        <time>2021-08-28T07:27:58Z</time>
      </trkpt>
      <trkpt lat="45.7335" lon="6.09394">
        <ele>646.4</ele>
        <time>2021-08-28T07:28:00Z</time>
      </trkpt>
      <trkpt lat="45.73346" lon="6.09392">
        <ele>646.6</ele>
        <time>2021-08-28T07:28:02Z</time>
      </trkpt>
      <trkpt lat="45.73342" lon="6.09391">
        <ele>646.9</ele>
        <time>2021-08-28T07:28:03Z</time>
      </trkpt>
      <trkpt lat="45.73338" lon="6.09389">
        <ele>647.1</ele>
        <time>2021-08-28T07:28:04Z</time>
      </trkpt>
      <trkpt lat="45.73337" lon="6.09388">
        <ele>647.2</ele>
        <time>2021-08-28T07:28:05Z</time>
      </trkpt>
      <trkpt lat="45.73332" lon="6.09386">
        <ele>647.4</ele>
        <time>2021-08-28T07:28:07Z</time>
      </trkpt>
      <trkpt lat="45.7333" lon="6.09384">
        <ele>647.5</ele>
        <time>2021-08-28T07:28:08Z</time>
      </trkpt>
      <trkpt lat="45.73328" lon="6.09383">
        <ele>647.7</ele>
        <time>2021-08-28T07:28:09Z</time>
      </trkpt>
      <trkpt lat="45.73326" lon="6.09381">
        <ele>647.8</ele>
        <time>2021-08-28T07:28:11Z</time>
      </trkpt>
      <trkpt lat="45.73323" lon="6.09379">
        <ele>648</ele>
        <time>2021-08-28T07:28:12Z</time>
      </trkpt>
      <trkpt lat="45.73322" lon="6.09378">
        <ele>648</ele>
        <time>2021-08-28T07:28:13Z</time>
      </trkpt>
      <trkpt lat="45.73318" lon="6.09375">
        <ele>648.3</ele>
        <time>2021-08-28T07:28:15Z</time>
      </trkpt>
      <trkpt lat="45.73315" lon="6.09372">
        <ele>648.5</ele>
        <time>2021-08-28T07:28:16Z</time>
      </trkpt>
      <trkpt lat="45.73313" lon="6.09371">
        <ele>648.6</ele>
        <time>2021-08-28T07:28:17Z</time>
      </trkpt>
      <trkpt lat="45.73311" lon="6.09368">
        <ele>648.8</ele>
        <time>2021-08-28T07:28:19Z</time>
      </trkpt>
      <trkpt lat="45.73308" lon="6.09363">
        <ele>649</ele>
        <time>2021-08-28T07:28:21Z</time>
      </trkpt>
      <trkpt lat="45.73305" lon="6.09361">
        <ele>649.2</ele>
        <time>2021-08-28T07:28:22Z</time>
      </trkpt>
      <trkpt lat="45.73302" lon="6.09358">
        <ele>649.4</ele>
        <time>2021-08-28T07:28:24Z</time>
      </trkpt>
      <trkpt lat="45.73298" lon="6.09354">
        <ele>649.7</ele>
        <time>2021-08-28T07:28:26Z</time>
      </trkpt>
      <trkpt lat="45.73293" lon="6.09349">
        <ele>650</ele>
        <time>2021-08-28T07:28:29Z</time>
      </trkpt>
      <trkpt lat="45.73291" lon="6.09347">
        <ele>650.1</ele>
        <time>2021-08-28T07:28:30Z</time>
      </trkpt>
      <trkpt lat="45.73287" lon="6.09342">
        <ele>650.5</ele>
        <time>2021-08-28T07:28:32Z</time>
      </trkpt>
      <trkpt lat="45.73284" lon="6.0934">
        <ele>650.7</ele>
        <time>2021-08-28T07:28:33Z</time>
      </trkpt>
      <trkpt lat="45.73281" lon="6.09337">
        <ele>650.9</ele>
        <time>2021-08-28T07:28:34Z</time>
      </trkpt>
      <trkpt lat="45.73279" lon="6.09335">
        <ele>651</ele>
        <time>2021-08-28T07:28:35Z</time>
      </trkpt>
      <trkpt lat="45.73277" lon="6.09332">
        <ele>651.2</ele>
        <time>2021-08-28T07:28:37Z</time>
      </trkpt>
      <trkpt lat="45.73276" lon="6.09331">
        <ele>651.2</ele>
        <time>2021-08-28T07:28:38Z</time>
      </trkpt>
      <trkpt lat="45.73274" lon="6.09328">
        <ele>651.4</ele>
        <time>2021-08-28T07:28:39Z</time>
      </trkpt>
      <trkpt lat="45.7327" lon="6.09325">
        <ele>651.6</ele>
        <time>2021-08-28T07:28:41Z</time>
      </trkpt>
      <trkpt lat="45.73266" lon="6.09321">
        <ele>651.9</ele>
        <time>2021-08-28T07:28:43Z</time>
      </trkpt>
      <trkpt lat="45.73265" lon="6.09319">
        <ele>652</ele>
        <time>2021-08-28T07:28:44Z</time>
      </trkpt>
      <trkpt lat="45.73263" lon="6.09318">
        <ele>652.2</ele>
        <time>2021-08-28T07:28:45Z</time>
      </trkpt>
      <trkpt lat="45.73259" lon="6.09313">
        <ele>652.4</ele>
        <time>2021-08-28T07:28:47Z</time>
      </trkpt>
      <trkpt lat="45.73258" lon="6.09312">
        <ele>652.5</ele>
        <time>2021-08-28T07:28:48Z</time>
      </trkpt>
      <trkpt lat="45.73256" lon="6.0931">
        <ele>652.7</ele>
        <time>2021-08-28T07:28:49Z</time>
      </trkpt>
      <trkpt lat="45.73253" lon="6.09308">
        <ele>652.8</ele>
        <time>2021-08-28T07:28:50Z</time>
      </trkpt>
      <trkpt lat="45.73252" lon="6.09308">
        <ele>652.9</ele>
        <time>2021-08-28T07:28:51Z</time>
      </trkpt>
      <trkpt lat="45.7325" lon="6.09306">
        <ele>653.1</ele>
        <time>2021-08-28T07:28:53Z</time>
      </trkpt>
      <trkpt lat="45.73247" lon="6.09304">
        <ele>653.3</ele>
        <time>2021-08-28T07:28:54Z</time>
      </trkpt>
      <trkpt lat="45.73242" lon="6.09302">
        <ele>653.6</ele>
        <time>2021-08-28T07:28:57Z</time>
      </trkpt>
      <trkpt lat="45.73235" lon="6.09299">
        <ele>654</ele>
        <time>2021-08-28T07:29:00Z</time>
      </trkpt>
      <trkpt lat="45.73229" lon="6.09296">
        <ele>654.3</ele>
        <time>2021-08-28T07:29:01Z</time>
      </trkpt>
      <trkpt lat="45.73226" lon="6.09295">
        <ele>654.5</ele>
        <time>2021-08-28T07:29:03Z</time>
      </trkpt>
      <trkpt lat="45.73221" lon="6.09293">
        <ele>654.8</ele>
        <time>2021-08-28T07:29:05Z</time>
      </trkpt>
      <trkpt lat="45.73216" lon="6.09291">
        <ele>655.1</ele>
        <time>2021-08-28T07:29:06Z</time>
      </trkpt>
      <trkpt lat="45.73214" lon="6.09289">
        <ele>655.2</ele>
        <time>2021-08-28T07:29:07Z</time>
      </trkpt>
      <trkpt lat="45.73213" lon="6.09288">
        <ele>655.3</ele>
        <time>2021-08-28T07:29:09Z</time>
      </trkpt>
      <trkpt lat="45.7321" lon="6.09287">
        <ele>655.4</ele>
        <time>2021-08-28T07:29:10Z</time>
      </trkpt>
      <trkpt lat="45.73207" lon="6.09285">
        <ele>655.7</ele>
        <time>2021-08-28T07:29:12Z</time>
      </trkpt>
      <trkpt lat="45.73205" lon="6.09283">
        <ele>655.8</ele>
        <time>2021-08-28T07:29:13Z</time>
      </trkpt>
      <trkpt lat="45.732" lon="6.09279">
        <ele>656.1</ele>
        <time>2021-08-28T07:29:15Z</time>
      </trkpt>
      <trkpt lat="45.73197" lon="6.09277">
        <ele>656.3</ele>
        <time>2021-08-28T07:29:16Z</time>
      </trkpt>
      <trkpt lat="45.73193" lon="6.09274">
        <ele>656.6</ele>
        <time>2021-08-28T07:29:17Z</time>
      </trkpt>
      <trkpt lat="45.73192" lon="6.09273">
        <ele>656.7</ele>
        <time>2021-08-28T07:29:19Z</time>
      </trkpt>
      <trkpt lat="45.73191" lon="6.09271">
        <ele>656.8</ele>
        <time>2021-08-28T07:29:20Z</time>
      </trkpt>
      <trkpt lat="45.73186" lon="6.09267">
        <ele>657.2</ele>
        <time>2021-08-28T07:29:23Z</time>
      </trkpt>
      <trkpt lat="45.73183" lon="6.09264">
        <ele>657.4</ele>
        <time>2021-08-28T07:29:24Z</time>
      </trkpt>
      <trkpt lat="45.73181" lon="6.09262">
        <ele>657.5</ele>
        <time>2021-08-28T07:29:25Z</time>
      </trkpt>
      <trkpt lat="45.73177" lon="6.09259">
        <ele>657.8</ele>
        <time>2021-08-28T07:29:27Z</time>
      </trkpt>
      <trkpt lat="45.73175" lon="6.09255">
        <ele>658</ele>
        <time>2021-08-28T07:29:29Z</time>
      </trkpt>
      <trkpt lat="45.73173" lon="6.09254">
        <ele>658.1</ele>
        <time>2021-08-28T07:29:30Z</time>
      </trkpt>
      <trkpt lat="45.73168" lon="6.09247">
        <ele>658.6</ele>
        <time>2021-08-28T07:29:33Z</time>
      </trkpt>
      <trkpt lat="45.73166" lon="6.09245">
        <ele>658.7</ele>
        <time>2021-08-28T07:29:34Z</time>
      </trkpt>
      <trkpt lat="45.73163" lon="6.09242">
        <ele>659</ele>
        <time>2021-08-28T07:29:36Z</time>
      </trkpt>
      <trkpt lat="45.7316" lon="6.09239">
        <ele>659.2</ele>
        <time>2021-08-28T07:29:37Z</time>
      </trkpt>
      <trkpt lat="45.73158" lon="6.09237">
        <ele>659.3</ele>
        <time>2021-08-28T07:29:38Z</time>
      </trkpt>
      <trkpt lat="45.73157" lon="6.09236">
        <ele>659.4</ele>
        <time>2021-08-28T07:29:40Z</time>
      </trkpt>
      <trkpt lat="45.73152" lon="6.09232">
        <ele>659.8</ele>
        <time>2021-08-28T07:29:42Z</time>
      </trkpt>
      <trkpt lat="45.73149" lon="6.09228">
        <ele>660</ele>
        <time>2021-08-28T07:29:43Z</time>
      </trkpt>
      <trkpt lat="45.73147" lon="6.09227">
        <ele>660.1</ele>
        <time>2021-08-28T07:29:44Z</time>
      </trkpt>
      <trkpt lat="45.73145" lon="6.09224">
        <ele>660.3</ele>
        <time>2021-08-28T07:29:45Z</time>
      </trkpt>
      <trkpt lat="45.73144" lon="6.09223">
        <ele>660.4</ele>
        <time>2021-08-28T07:29:46Z</time>
      </trkpt>
      <trkpt lat="45.73142" lon="6.09222">
        <ele>660.5</ele>
        <time>2021-08-28T07:29:48Z</time>
      </trkpt>
      <trkpt lat="45.73138" lon="6.09219">
        <ele>660.8</ele>
        <time>2021-08-28T07:29:50Z</time>
      </trkpt>
      <trkpt lat="45.73133" lon="6.09215">
        <ele>661.2</ele>
        <time>2021-08-28T07:29:52Z</time>
      </trkpt>
      <trkpt lat="45.73131" lon="6.09214">
        <ele>661.3</ele>
        <time>2021-08-28T07:29:53Z</time>
      </trkpt>
      <trkpt lat="45.73129" lon="6.09213">
        <ele>661.4</ele>
        <time>2021-08-28T07:29:54Z</time>
      </trkpt>
      <trkpt lat="45.73127" lon="6.09212">
        <ele>661.6</ele>
        <time>2021-08-28T07:29:55Z</time>
      </trkpt>
      <trkpt lat="45.73123" lon="6.09208">
        <ele>661.9</ele>
        <time>2021-08-28T07:29:57Z</time>
      </trkpt>
      <trkpt lat="45.7312" lon="6.09204">
        <ele>662.1</ele>
        <time>2021-08-28T07:29:58Z</time>
      </trkpt>
      <trkpt lat="45.73118" lon="6.09202">
        <ele>662.3</ele>
        <time>2021-08-28T07:30:00Z</time>
      </trkpt>
      <trkpt lat="45.73115" lon="6.09198">
        <ele>662.6</ele>
        <time>2021-08-28T07:30:02Z</time>
      </trkpt>
      <trkpt lat="45.73112" lon="6.09196">
        <ele>662.8</ele>
        <time>2021-08-28T07:30:03Z</time>
      </trkpt>
      <trkpt lat="45.73111" lon="6.09195">
        <ele>662.9</ele>
        <time>2021-08-28T07:30:04Z</time>
      </trkpt>
      <trkpt lat="45.73108" lon="6.09191">
        <ele>663.2</ele>
        <time>2021-08-28T07:30:06Z</time>
      </trkpt>
      <trkpt lat="45.73105" lon="6.09187">
        <ele>663.4</ele>
        <time>2021-08-28T07:30:08Z</time>
      </trkpt>
      <trkpt lat="45.73103" lon="6.09184">
        <ele>663.6</ele>
        <time>2021-08-28T07:30:09Z</time>
      </trkpt>
      <trkpt lat="45.73101" lon="6.0918">
        <ele>663.8</ele>
        <time>2021-08-28T07:30:11Z</time>
      </trkpt>
      <trkpt lat="45.73097" lon="6.09177">
        <ele>664.1</ele>
        <time>2021-08-28T07:30:12Z</time>
      </trkpt>
      <trkpt lat="45.73095" lon="6.09175">
        <ele>664.3</ele>
        <time>2021-08-28T07:30:14Z</time>
      </trkpt>
      <trkpt lat="45.73091" lon="6.09174">
        <ele>664.5</ele>
        <time>2021-08-28T07:30:16Z</time>
      </trkpt>
      <trkpt lat="45.73088" lon="6.09172">
        <ele>664.7</ele>
        <time>2021-08-28T07:30:18Z</time>
      </trkpt>
      <trkpt lat="45.73085" lon="6.09169">
        <ele>665</ele>
        <time>2021-08-28T07:30:19Z</time>
      </trkpt>
      <trkpt lat="45.7308" lon="6.09167">
        <ele>665.2</ele>
        <time>2021-08-28T07:30:21Z</time>
      </trkpt>
      <trkpt lat="45.73078" lon="6.09165">
        <ele>665.4</ele>
        <time>2021-08-28T07:30:22Z</time>
      </trkpt>
      <trkpt lat="45.73077" lon="6.09164">
        <ele>665.5</ele>
        <time>2021-08-28T07:30:23Z</time>
      </trkpt>
      <trkpt lat="45.73074" lon="6.09162">
        <ele>665.7</ele>
        <time>2021-08-28T07:30:25Z</time>
      </trkpt>
      <trkpt lat="45.7307" lon="6.09162">
        <ele>666</ele>
        <time>2021-08-28T07:30:26Z</time>
      </trkpt>
      <trkpt lat="45.73064" lon="6.09159">
        <ele>666.3</ele>
        <time>2021-08-28T07:30:28Z</time>
      </trkpt>
      <trkpt lat="45.73062" lon="6.09158">
        <ele>666.5</ele>
        <time>2021-08-28T07:30:29Z</time>
      </trkpt>
      <trkpt lat="45.73059" lon="6.09157">
        <ele>666.7</ele>
        <time>2021-08-28T07:30:30Z</time>
      </trkpt>
      <trkpt lat="45.73054" lon="6.09155">
        <ele>667</ele>
        <time>2021-08-28T07:30:32Z</time>
      </trkpt>
      <trkpt lat="45.73051" lon="6.09154">
        <ele>667.1</ele>
        <time>2021-08-28T07:30:34Z</time>
      </trkpt>
      <trkpt lat="45.73049" lon="6.09154">
        <ele>667.3</ele>
        <time>2021-08-28T07:30:35Z</time>
      </trkpt>
      <trkpt lat="45.73047" lon="6.09153">
        <ele>667.4</ele>
        <time>2021-08-28T07:30:36Z</time>
      </trkpt>
      <trkpt lat="45.73043" lon="6.09153">
        <ele>667.6</ele>
        <time>2021-08-28T07:30:38Z</time>
      </trkpt>
      <trkpt lat="45.73038" lon="6.09153">
        <ele>667.8</ele>
        <time>2021-08-28T07:30:39Z</time>
      </trkpt>
      <trkpt lat="45.73036" lon="6.09153">
        <ele>668</ele>
        <time>2021-08-28T07:30:40Z</time>
      </trkpt>
      <trkpt lat="45.73035" lon="6.09153">
        <ele>668</ele>
        <time>2021-08-28T07:30:41Z</time>
      </trkpt>
      <trkpt lat="45.73032" lon="6.09153">
        <ele>668.2</ele>
        <time>2021-08-28T07:30:43Z</time>
      </trkpt>
      <trkpt lat="45.73027" lon="6.09153">
        <ele>668.4</ele>
        <time>2021-08-28T07:30:44Z</time>
      </trkpt>
      <trkpt lat="45.73025" lon="6.09153">
        <ele>668.5</ele>
        <time>2021-08-28T07:30:45Z</time>
      </trkpt>
      <trkpt lat="45.73022" lon="6.09153">
        <ele>668.7</ele>
        <time>2021-08-28T07:30:46Z</time>
      </trkpt>
      <trkpt lat="45.73018" lon="6.09153">
        <ele>668.9</ele>
        <time>2021-08-28T07:30:48Z</time>
      </trkpt>
      <trkpt lat="45.73017" lon="6.09153">
        <ele>668.9</ele>
        <time>2021-08-28T07:30:49Z</time>
      </trkpt>
      <trkpt lat="45.73011" lon="6.09154">
        <ele>669.2</ele>
        <time>2021-08-28T07:30:50Z</time>
      </trkpt>
      <trkpt lat="45.73008" lon="6.09154">
        <ele>669.3</ele>
        <time>2021-08-28T07:30:51Z</time>
      </trkpt>
      <trkpt lat="45.73006" lon="6.09154">
        <ele>669.5</ele>
        <time>2021-08-28T07:30:52Z</time>
      </trkpt>
      <trkpt lat="45.73002" lon="6.09153">
        <ele>669.7</ele>
        <time>2021-08-28T07:30:54Z</time>
      </trkpt>
      <trkpt lat="45.73001" lon="6.09153">
        <ele>669.8</ele>
        <time>2021-08-28T07:30:55Z</time>
      </trkpt>
      <trkpt lat="45.72996" lon="6.09153">
        <ele>670</ele>
        <time>2021-08-28T07:30:56Z</time>
      </trkpt>
      <trkpt lat="45.72994" lon="6.09153">
        <ele>670.1</ele>
        <time>2021-08-28T07:30:58Z</time>
      </trkpt>
      <trkpt lat="45.72989" lon="6.09153">
        <ele>670.3</ele>
        <time>2021-08-28T07:31:00Z</time>
      </trkpt>
      <trkpt lat="45.72987" lon="6.09154">
        <ele>670.5</ele>
        <time>2021-08-28T07:31:01Z</time>
      </trkpt>
      <trkpt lat="45.72982" lon="6.09154">
        <ele>670.8</ele>
        <time>2021-08-28T07:31:03Z</time>
      </trkpt>
      <trkpt lat="45.72977" lon="6.09153">
        <ele>671</ele>
        <time>2021-08-28T07:31:04Z</time>
      </trkpt>
      <trkpt lat="45.72975" lon="6.09152">
        <ele>671.1</ele>
        <time>2021-08-28T07:31:06Z</time>
      </trkpt>
      <trkpt lat="45.72974" lon="6.09152">
        <ele>671.2</ele>
        <time>2021-08-28T07:31:07Z</time>
      </trkpt>
      <trkpt lat="45.7297" lon="6.09151">
        <ele>671.4</ele>
        <time>2021-08-28T07:31:08Z</time>
      </trkpt>
      <trkpt lat="45.72968" lon="6.09151">
        <ele>671.5</ele>
        <time>2021-08-28T07:31:09Z</time>
      </trkpt>
      <trkpt lat="45.72965" lon="6.09149">
        <ele>671.6</ele>
        <time>2021-08-28T07:31:11Z</time>
      </trkpt>
      <trkpt lat="45.72963" lon="6.09148">
        <ele>671.7</ele>
        <time>2021-08-28T07:31:12Z</time>
      </trkpt>
      <trkpt lat="45.72959" lon="6.09147">
        <ele>671.9</ele>
        <time>2021-08-28T07:31:13Z</time>
      </trkpt>
      <trkpt lat="45.72956" lon="6.09146">
        <ele>672</ele>
        <time>2021-08-28T07:31:15Z</time>
      </trkpt>
      <trkpt lat="45.72954" lon="6.09147">
        <ele>672</ele>
        <time>2021-08-28T07:31:16Z</time>
      </trkpt>
      <trkpt lat="45.72949" lon="6.09147">
        <ele>672.2</ele>
        <time>2021-08-28T07:31:18Z</time>
      </trkpt>
      <trkpt lat="45.72943" lon="6.09146">
        <ele>672.4</ele>
        <time>2021-08-28T07:31:20Z</time>
      </trkpt>
      <trkpt lat="45.7294" lon="6.09145">
        <ele>672.4</ele>
        <time>2021-08-28T07:31:21Z</time>
      </trkpt>
      <trkpt lat="45.72932" lon="6.09144">
        <ele>672.6</ele>
        <time>2021-08-28T07:31:23Z</time>
      </trkpt>
      <trkpt lat="45.72926" lon="6.09144">
        <ele>672.7</ele>
        <time>2021-08-28T07:31:25Z</time>
      </trkpt>
      <trkpt lat="45.72921" lon="6.09143">
        <ele>672.9</ele>
        <time>2021-08-28T07:31:26Z</time>
      </trkpt>
      <trkpt lat="45.72918" lon="6.09143">
        <ele>673</ele>
        <time>2021-08-28T07:31:27Z</time>
      </trkpt>
      <trkpt lat="45.72915" lon="6.09142">
        <ele>673</ele>
        <time>2021-08-28T07:31:29Z</time>
      </trkpt>
      <trkpt lat="45.72911" lon="6.09142">
        <ele>673.1</ele>
        <time>2021-08-28T07:31:31Z</time>
      </trkpt>
      <trkpt lat="45.72908" lon="6.09142">
        <ele>673.2</ele>
        <time>2021-08-28T07:31:32Z</time>
      </trkpt>
      <trkpt lat="45.72902" lon="6.09142">
        <ele>673.4</ele>
        <time>2021-08-28T07:31:34Z</time>
      </trkpt>
      <trkpt lat="45.72899" lon="6.09142">
        <ele>673.5</ele>
        <time>2021-08-28T07:31:35Z</time>
      </trkpt>
      <trkpt lat="45.72893" lon="6.09141">
        <ele>673.7</ele>
        <time>2021-08-28T07:31:36Z</time>
      </trkpt>
      <trkpt lat="45.72889" lon="6.09141">
        <ele>673.8</ele>
        <time>2021-08-28T07:31:38Z</time>
      </trkpt>
      <trkpt lat="45.72886" lon="6.09142">
        <ele>673.9</ele>
        <time>2021-08-28T07:31:39Z</time>
      </trkpt>
      <trkpt lat="45.72884" lon="6.09142">
        <ele>674</ele>
        <time>2021-08-28T07:31:40Z</time>
      </trkpt>
      <trkpt lat="45.72879" lon="6.09142">
        <ele>674.2</ele>
        <time>2021-08-28T07:31:42Z</time>
      </trkpt>
      <trkpt lat="45.72877" lon="6.09141">
        <ele>674.2</ele>
        <time>2021-08-28T07:31:43Z</time>
      </trkpt>
      <trkpt lat="45.72871" lon="6.09141">
        <ele>674.4</ele>
        <time>2021-08-28T07:31:45Z</time>
      </trkpt>
      <trkpt lat="45.72867" lon="6.09142">
        <ele>674.6</ele>
        <time>2021-08-28T07:31:46Z</time>
      </trkpt>
      <trkpt lat="45.72866" lon="6.09142">
        <ele>674.6</ele>
        <time>2021-08-28T07:31:47Z</time>
      </trkpt>
      <trkpt lat="45.7286" lon="6.09142">
        <ele>674.8</ele>
        <time>2021-08-28T07:31:49Z</time>
      </trkpt>
      <trkpt lat="45.72854" lon="6.09141">
        <ele>675</ele>
        <time>2021-08-28T07:31:51Z</time>
      </trkpt>
      <trkpt lat="45.7285" lon="6.09141">
        <ele>675.2</ele>
        <time>2021-08-28T07:31:52Z</time>
      </trkpt>
      <trkpt lat="45.72845" lon="6.09141">
        <ele>675.4</ele>
        <time>2021-08-28T07:31:54Z</time>
      </trkpt>
      <trkpt lat="45.72836" lon="6.09142">
        <ele>675.8</ele>
        <time>2021-08-28T07:31:56Z</time>
      </trkpt>
      <trkpt lat="45.72829" lon="6.09146">
        <ele>676.1</ele>
        <time>2021-08-28T07:31:57Z</time>
      </trkpt>
      <trkpt lat="45.72826" lon="6.09147">
        <ele>676.2</ele>
        <time>2021-08-28T07:31:59Z</time>
      </trkpt>
      <trkpt lat="45.7282" lon="6.09145">
        <ele>676.6</ele>
        <time>2021-08-28T07:32:01Z</time>
      </trkpt>
      <trkpt lat="45.72816" lon="6.0914">
        <ele>676.9</ele>
        <time>2021-08-28T07:32:03Z</time>
      </trkpt>
      <trkpt lat="45.7281" lon="6.09142">
        <ele>677.3</ele>
        <time>2021-08-28T07:32:04Z</time>
      </trkpt>
      <trkpt lat="45.72806" lon="6.09143">
        <ele>677.5</ele>
        <time>2021-08-28T07:32:06Z</time>
      </trkpt>
      <trkpt lat="45.72804" lon="6.09143">
        <ele>677.7</ele>
        <time>2021-08-28T07:32:07Z</time>
      </trkpt>
      <trkpt lat="45.728" lon="6.09143">
        <ele>678.1</ele>
        <time>2021-08-28T07:32:09Z</time>
      </trkpt>
      <trkpt lat="45.72798" lon="6.09143">
        <ele>678.2</ele>
        <time>2021-08-28T07:32:10Z</time>
      </trkpt>
      <trkpt lat="45.72795" lon="6.09143">
        <ele>678.5</ele>
        <time>2021-08-28T07:32:11Z</time>
      </trkpt>
      <trkpt lat="45.72788" lon="6.09144">
        <ele>679</ele>
        <time>2021-08-28T07:32:12Z</time>
      </trkpt>
      <trkpt lat="45.72785" lon="6.09144">
        <ele>679.3</ele>
        <time>2021-08-28T07:32:13Z</time>
      </trkpt>
      <trkpt lat="45.7278" lon="6.09146">
        <ele>679.6</ele>
        <time>2021-08-28T07:32:15Z</time>
      </trkpt>
      <trkpt lat="45.72778" lon="6.09146">
        <ele>679.8</ele>
        <time>2021-08-28T07:32:16Z</time>
      </trkpt>
      <trkpt lat="45.72775" lon="6.09144">
        <ele>680.1</ele>
        <time>2021-08-28T07:32:18Z</time>
      </trkpt>
      <trkpt lat="45.72772" lon="6.09144">
        <ele>680.4</ele>
        <time>2021-08-28T07:32:19Z</time>
      </trkpt>
      <trkpt lat="45.72766" lon="6.09143">
        <ele>680.8</ele>
        <time>2021-08-28T07:32:21Z</time>
      </trkpt>
      <trkpt lat="45.72764" lon="6.09142">
        <ele>681</ele>
        <time>2021-08-28T07:32:22Z</time>
      </trkpt>
      <trkpt lat="45.72758" lon="6.0914">
        <ele>681.4</ele>
        <time>2021-08-28T07:32:24Z</time>
      </trkpt>
      <trkpt lat="45.72752" lon="6.09139">
        <ele>681.8</ele>
        <time>2021-08-28T07:32:26Z</time>
      </trkpt>
      <trkpt lat="45.72749" lon="6.09138">
        <ele>682.1</ele>
        <time>2021-08-28T07:32:28Z</time>
      </trkpt>
      <trkpt lat="45.72743" lon="6.09136">
        <ele>682.4</ele>
        <time>2021-08-28T07:32:30Z</time>
      </trkpt>
      <trkpt lat="45.7274" lon="6.09135">
        <ele>682.6</ele>
        <time>2021-08-28T07:32:31Z</time>
      </trkpt>
      <trkpt lat="45.72737" lon="6.09133">
        <ele>682.8</ele>
        <time>2021-08-28T07:32:32Z</time>
      </trkpt>
      <trkpt lat="45.72734" lon="6.09131">
        <ele>683</ele>
        <time>2021-08-28T07:32:33Z</time>
      </trkpt>
      <trkpt lat="45.72733" lon="6.0913">
        <ele>683</ele>
        <time>2021-08-28T07:32:36Z</time>
      </trkpt>
      <trkpt lat="45.72731" lon="6.09129">
        <ele>683.2</ele>
        <time>2021-08-28T07:32:37Z</time>
      </trkpt>
      <trkpt lat="45.72728" lon="6.09127">
        <ele>683.3</ele>
        <time>2021-08-28T07:32:38Z</time>
      </trkpt>
      <trkpt lat="45.72727" lon="6.09126">
        <ele>683.4</ele>
        <time>2021-08-28T07:32:39Z</time>
      </trkpt>
      <trkpt lat="45.72724" lon="6.09123">
        <ele>683.6</ele>
        <time>2021-08-28T07:32:40Z</time>
      </trkpt>
      <trkpt lat="45.72722" lon="6.09122">
        <ele>683.6</ele>
        <time>2021-08-28T07:32:41Z</time>
      </trkpt>
      <trkpt lat="45.7272" lon="6.0912">
        <ele>683.8</ele>
        <time>2021-08-28T07:32:42Z</time>
      </trkpt>
      <trkpt lat="45.72719" lon="6.09119">
        <ele>683.8</ele>
        <time>2021-08-28T07:32:43Z</time>
      </trkpt>
      <trkpt lat="45.72715" lon="6.09117">
        <ele>684</ele>
        <time>2021-08-28T07:32:44Z</time>
      </trkpt>
      <trkpt lat="45.72714" lon="6.09116">
        <ele>684.1</ele>
        <time>2021-08-28T07:32:45Z</time>
      </trkpt>
      <trkpt lat="45.72712" lon="6.09116">
        <ele>684.2</ele>
        <time>2021-08-28T07:32:46Z</time>
      </trkpt>
      <trkpt lat="45.72712" lon="6.09117">
        <ele>684.2</ele>
        <time>2021-08-28T07:32:47Z</time>
      </trkpt>
      <trkpt lat="45.72711" lon="6.09118">
        <ele>684.3</ele>
        <time>2021-08-28T07:32:48Z</time>
      </trkpt>
      <trkpt lat="45.7271" lon="6.09119">
        <ele>684.3</ele>
        <time>2021-08-28T07:32:49Z</time>
      </trkpt>
      <trkpt lat="45.72708" lon="6.09118">
        <ele>684.4</ele>
        <time>2021-08-28T07:32:50Z</time>
      </trkpt>
      <trkpt lat="45.72708" lon="6.09118">
        <ele>684.4</ele>
        <time>2021-08-28T07:32:51Z</time>
      </trkpt>
      <trkpt lat="45.72708" lon="6.09119">
        <ele>684.4</ele>
        <time>2021-08-28T07:32:52Z</time>
      </trkpt>
      <trkpt lat="45.72708" lon="6.09118">
        <ele>684.4</ele>
        <time>2021-08-28T07:32:53Z</time>
      </trkpt>
      <trkpt lat="45.72708" lon="6.09118">
        <ele>684.4</ele>
        <time>2021-08-28T07:32:54Z</time>
      </trkpt>
      <trkpt lat="45.72708" lon="6.09118">
        <ele>684.4</ele>
        <time>2021-08-28T07:32:55Z</time>
      </trkpt>
      <trkpt lat="45.72708" lon="6.09119">
        <ele>684.4</ele>
        <time>2021-08-28T07:32:58Z</time>
      </trkpt>
      <trkpt lat="45.72708" lon="6.09119">
        <ele>684.4</ele>
        <time>2021-08-28T07:32:59Z</time>
      </trkpt>
      <trkpt lat="45.72708" lon="6.09119">
        <ele>684.5</ele>
        <time>2021-08-28T07:33:00Z</time>
      </trkpt>
      <trkpt lat="45.72708" lon="6.09119">
        <ele>684.5</ele>
        <time>2021-08-28T07:33:01Z</time>
      </trkpt>
      <trkpt lat="45.72705" lon="6.09119">
        <ele>684.6</ele>
        <time>2021-08-28T07:33:49Z</time>
      </trkpt>
      <trkpt lat="45.72699" lon="6.09113">
        <ele>684.9</ele>
        <time>2021-08-28T07:33:51Z</time>
      </trkpt>
      <trkpt lat="45.72696" lon="6.0911">
        <ele>685.1</ele>
        <time>2021-08-28T07:33:52Z</time>
      </trkpt>
      <trkpt lat="45.72691" lon="6.09101">
        <ele>685.5</ele>
        <time>2021-08-28T07:33:54Z</time>
      </trkpt>
      <trkpt lat="45.72688" lon="6.09098">
        <ele>685.7</ele>
        <time>2021-08-28T07:33:56Z</time>
      </trkpt>
      <trkpt lat="45.72684" lon="6.09095">
        <ele>685.9</ele>
        <time>2021-08-28T07:33:58Z</time>
      </trkpt>
      <trkpt lat="45.72678" lon="6.09093">
        <ele>686.3</ele>
        <time>2021-08-28T07:34:00Z</time>
      </trkpt>
      <trkpt lat="45.72677" lon="6.09093">
        <ele>686.4</ele>
        <time>2021-08-28T07:34:01Z</time>
      </trkpt>
      <trkpt lat="45.72675" lon="6.09092">
        <ele>686.5</ele>
        <time>2021-08-28T07:34:02Z</time>
      </trkpt>
      <trkpt lat="45.72672" lon="6.09091">
        <ele>686.6</ele>
        <time>2021-08-28T07:34:03Z</time>
      </trkpt>
      <trkpt lat="45.7267" lon="6.09091">
        <ele>686.7</ele>
        <time>2021-08-28T07:34:04Z</time>
      </trkpt>
      <trkpt lat="45.72665" lon="6.09089">
        <ele>687</ele>
        <time>2021-08-28T07:34:06Z</time>
      </trkpt>
      <trkpt lat="45.72661" lon="6.09086">
        <ele>687.3</ele>
        <time>2021-08-28T07:34:07Z</time>
      </trkpt>
      <trkpt lat="45.72659" lon="6.09086">
        <ele>687.4</ele>
        <time>2021-08-28T07:34:08Z</time>
      </trkpt>
      <trkpt lat="45.72657" lon="6.09084">
        <ele>687.5</ele>
        <time>2021-08-28T07:34:09Z</time>
      </trkpt>
      <trkpt lat="45.72655" lon="6.09083">
        <ele>687.7</ele>
        <time>2021-08-28T07:34:11Z</time>
      </trkpt>
      <trkpt lat="45.72652" lon="6.0908">
        <ele>687.9</ele>
        <time>2021-08-28T07:34:12Z</time>
      </trkpt>
      <trkpt lat="45.72647" lon="6.09079">
        <ele>688.1</ele>
        <time>2021-08-28T07:34:13Z</time>
      </trkpt>
      <trkpt lat="45.72644" lon="6.09077">
        <ele>688.3</ele>
        <time>2021-08-28T07:34:15Z</time>
      </trkpt>
      <trkpt lat="45.72642" lon="6.09077">
        <ele>688.4</ele>
        <time>2021-08-28T07:34:16Z</time>
      </trkpt>
      <trkpt lat="45.72639" lon="6.09074">
        <ele>688.6</ele>
        <time>2021-08-28T07:34:17Z</time>
      </trkpt>
      <trkpt lat="45.72634" lon="6.09071">
        <ele>688.9</ele>
        <time>2021-08-28T07:34:19Z</time>
      </trkpt>
      <trkpt lat="45.72631" lon="6.09071">
        <ele>689.1</ele>
        <time>2021-08-28T07:34:20Z</time>
      </trkpt>
      <trkpt lat="45.72628" lon="6.0907">
        <ele>689.3</ele>
        <time>2021-08-28T07:34:22Z</time>
      </trkpt>
      <trkpt lat="45.72625" lon="6.09071">
        <ele>689.5</ele>
        <time>2021-08-28T07:34:23Z</time>
      </trkpt>
      <trkpt lat="45.72624" lon="6.09071">
        <ele>689.6</ele>
        <time>2021-08-28T07:34:24Z</time>
      </trkpt>
      <trkpt lat="45.72619" lon="6.09071">
        <ele>689.8</ele>
        <time>2021-08-28T07:34:25Z</time>
      </trkpt>
      <trkpt lat="45.72618" lon="6.09073">
        <ele>689.9</ele>
        <time>2021-08-28T07:34:26Z</time>
      </trkpt>
      <trkpt lat="45.72617" lon="6.09073">
        <ele>690</ele>
        <time>2021-08-28T07:34:28Z</time>
      </trkpt>
      <trkpt lat="45.72613" lon="6.09074">
        <ele>690.2</ele>
        <time>2021-08-28T07:34:30Z</time>
      </trkpt>
      <trkpt lat="45.72609" lon="6.09075">
        <ele>690.5</ele>
        <time>2021-08-28T07:34:31Z</time>
      </trkpt>
      <trkpt lat="45.72607" lon="6.09076">
        <ele>690.7</ele>
        <time>2021-08-28T07:34:32Z</time>
      </trkpt>
      <trkpt lat="45.72604" lon="6.09076">
        <ele>690.8</ele>
        <time>2021-08-28T07:34:34Z</time>
      </trkpt>
      <trkpt lat="45.726" lon="6.09079">
        <ele>691.1</ele>
        <time>2021-08-28T07:34:36Z</time>
      </trkpt>
      <trkpt lat="45.72596" lon="6.0908">
        <ele>691.5</ele>
        <time>2021-08-28T07:34:38Z</time>
      </trkpt>
      <trkpt lat="45.72593" lon="6.0908">
        <ele>691.6</ele>
        <time>2021-08-28T07:34:39Z</time>
      </trkpt>
      <trkpt lat="45.72589" lon="6.09081">
        <ele>691.9</ele>
        <time>2021-08-28T07:34:41Z</time>
      </trkpt>
      <trkpt lat="45.72586" lon="6.0908">
        <ele>692.1</ele>
        <time>2021-08-28T07:34:42Z</time>
      </trkpt>
      <trkpt lat="45.72582" lon="6.0908">
        <ele>692.5</ele>
        <time>2021-08-28T07:34:44Z</time>
      </trkpt>
      <trkpt lat="45.72579" lon="6.0908">
        <ele>692.7</ele>
        <time>2021-08-28T07:34:45Z</time>
      </trkpt>
      <trkpt lat="45.72574" lon="6.09078">
        <ele>693.1</ele>
        <time>2021-08-28T07:34:46Z</time>
      </trkpt>
      <trkpt lat="45.72572" lon="6.09077">
        <ele>693.3</ele>
        <time>2021-08-28T07:34:47Z</time>
      </trkpt>
      <trkpt lat="45.72569" lon="6.09076">
        <ele>693.5</ele>
        <time>2021-08-28T07:34:49Z</time>
      </trkpt>
      <trkpt lat="45.72564" lon="6.09074">
        <ele>693.9</ele>
        <time>2021-08-28T07:34:51Z</time>
      </trkpt>
      <trkpt lat="45.72563" lon="6.09073">
        <ele>694</ele>
        <time>2021-08-28T07:34:52Z</time>
      </trkpt>
      <trkpt lat="45.72561" lon="6.09072">
        <ele>694.1</ele>
        <time>2021-08-28T07:34:53Z</time>
      </trkpt>
      <trkpt lat="45.72557" lon="6.0907">
        <ele>694.5</ele>
        <time>2021-08-28T07:34:55Z</time>
      </trkpt>
      <trkpt lat="45.72553" lon="6.09067">
        <ele>694.9</ele>
        <time>2021-08-28T07:34:57Z</time>
      </trkpt>
      <trkpt lat="45.7255" lon="6.09064">
        <ele>695.2</ele>
        <time>2021-08-28T07:34:58Z</time>
      </trkpt>
      <trkpt lat="45.72547" lon="6.0906">
        <ele>695.5</ele>
        <time>2021-08-28T07:35:00Z</time>
      </trkpt>
      <trkpt lat="45.72544" lon="6.09058">
        <ele>695.8</ele>
        <time>2021-08-28T07:35:02Z</time>
      </trkpt>
      <trkpt lat="45.72544" lon="6.09057">
        <ele>695.9</ele>
        <time>2021-08-28T07:35:03Z</time>
      </trkpt>
      <trkpt lat="45.72543" lon="6.09055">
        <ele>696</ele>
        <time>2021-08-28T07:35:04Z</time>
      </trkpt>
      <trkpt lat="45.72541" lon="6.09054">
        <ele>696.2</ele>
        <time>2021-08-28T07:35:06Z</time>
      </trkpt>
      <trkpt lat="45.72539" lon="6.09052">
        <ele>696.4</ele>
        <time>2021-08-28T07:35:07Z</time>
      </trkpt>
      <trkpt lat="45.72537" lon="6.09049">
        <ele>696.7</ele>
        <time>2021-08-28T07:35:08Z</time>
      </trkpt>
      <trkpt lat="45.72534" lon="6.09047">
        <ele>696.9</ele>
        <time>2021-08-28T07:35:10Z</time>
      </trkpt>
      <trkpt lat="45.72534" lon="6.09046">
        <ele>697</ele>
        <time>2021-08-28T07:35:11Z</time>
      </trkpt>
      <trkpt lat="45.72532" lon="6.09045">
        <ele>697.2</ele>
        <time>2021-08-28T07:35:12Z</time>
      </trkpt>
      <trkpt lat="45.72528" lon="6.09043">
        <ele>697.6</ele>
        <time>2021-08-28T07:35:14Z</time>
      </trkpt>
      <trkpt lat="45.72526" lon="6.09041">
        <ele>697.7</ele>
        <time>2021-08-28T07:35:15Z</time>
      </trkpt>
      <trkpt lat="45.72523" lon="6.09041">
        <ele>697.9</ele>
        <time>2021-08-28T07:35:17Z</time>
      </trkpt>
      <trkpt lat="45.72522" lon="6.09039">
        <ele>698.1</ele>
        <time>2021-08-28T07:35:18Z</time>
      </trkpt>
      <trkpt lat="45.72519" lon="6.09037">
        <ele>698.4</ele>
        <time>2021-08-28T07:35:20Z</time>
      </trkpt>
      <trkpt lat="45.72516" lon="6.09035">
        <ele>698.6</ele>
        <time>2021-08-28T07:35:21Z</time>
      </trkpt>
      <trkpt lat="45.72515" lon="6.09034">
        <ele>698.7</ele>
        <time>2021-08-28T07:35:22Z</time>
      </trkpt>
      <trkpt lat="45.72513" lon="6.09032">
        <ele>698.9</ele>
        <time>2021-08-28T07:35:24Z</time>
      </trkpt>
      <trkpt lat="45.72509" lon="6.0903">
        <ele>699.2</ele>
        <time>2021-08-28T07:35:26Z</time>
      </trkpt>
      <trkpt lat="45.72504" lon="6.09028">
        <ele>699.7</ele>
        <time>2021-08-28T07:35:29Z</time>
      </trkpt>
      <trkpt lat="45.72498" lon="6.09027">
        <ele>700</ele>
        <time>2021-08-28T07:35:32Z</time>
      </trkpt>
      <trkpt lat="45.72497" lon="6.09026">
        <ele>700.1</ele>
        <time>2021-08-28T07:35:33Z</time>
      </trkpt>
      <trkpt lat="45.72495" lon="6.09025">
        <ele>700.2</ele>
        <time>2021-08-28T07:35:34Z</time>
      </trkpt>
      <trkpt lat="45.7249" lon="6.09021">
        <ele>700.6</ele>
        <time>2021-08-28T07:35:36Z</time>
      </trkpt>
      <trkpt lat="45.72487" lon="6.09019">
        <ele>700.8</ele>
        <time>2021-08-28T07:35:37Z</time>
      </trkpt>
      <trkpt lat="45.72484" lon="6.09017">
        <ele>701</ele>
        <time>2021-08-28T07:35:39Z</time>
      </trkpt>
      <trkpt lat="45.7248" lon="6.09014">
        <ele>701.3</ele>
        <time>2021-08-28T07:35:40Z</time>
      </trkpt>
      <trkpt lat="45.72478" lon="6.09013">
        <ele>701.4</ele>
        <time>2021-08-28T07:35:41Z</time>
      </trkpt>
      <trkpt lat="45.72476" lon="6.09011">
        <ele>701.5</ele>
        <time>2021-08-28T07:35:43Z</time>
      </trkpt>
      <trkpt lat="45.72472" lon="6.09009">
        <ele>701.7</ele>
        <time>2021-08-28T07:35:45Z</time>
      </trkpt>
      <trkpt lat="45.7247" lon="6.09008">
        <ele>701.9</ele>
        <time>2021-08-28T07:35:46Z</time>
      </trkpt>
      <trkpt lat="45.72468" lon="6.09007">
        <ele>701.9</ele>
        <time>2021-08-28T07:35:47Z</time>
      </trkpt>
      <trkpt lat="45.72465" lon="6.09006">
        <ele>702.1</ele>
        <time>2021-08-28T07:35:49Z</time>
      </trkpt>
      <trkpt lat="45.72464" lon="6.09005">
        <ele>702.2</ele>
        <time>2021-08-28T07:35:50Z</time>
      </trkpt>
      <trkpt lat="45.72457" lon="6.09001">
        <ele>702.5</ele>
        <time>2021-08-28T07:35:53Z</time>
      </trkpt>
      <trkpt lat="45.72454" lon="6.09001">
        <ele>702.6</ele>
        <time>2021-08-28T07:35:54Z</time>
      </trkpt>
      <trkpt lat="45.72448" lon="6.09">
        <ele>702.8</ele>
        <time>2021-08-28T07:35:55Z</time>
      </trkpt>
      <trkpt lat="45.72443" lon="6.09">
        <ele>703</ele>
        <time>2021-08-28T07:35:58Z</time>
      </trkpt>
      <trkpt lat="45.72438" lon="6.09001">
        <ele>703.3</ele>
        <time>2021-08-28T07:36:00Z</time>
      </trkpt>
      <trkpt lat="45.72433" lon="6.09001">
        <ele>703.4</ele>
        <time>2021-08-28T07:36:01Z</time>
      </trkpt>
      <trkpt lat="45.7243" lon="6.09001">
        <ele>703.5</ele>
        <time>2021-08-28T07:36:02Z</time>
      </trkpt>
      <trkpt lat="45.72426" lon="6.09001">
        <ele>703.7</ele>
        <time>2021-08-28T07:36:04Z</time>
      </trkpt>
      <trkpt lat="45.72423" lon="6.09001">
        <ele>703.8</ele>
        <time>2021-08-28T07:36:05Z</time>
      </trkpt>
      <trkpt lat="45.72418" lon="6.09">
        <ele>703.9</ele>
        <time>2021-08-28T07:36:06Z</time>
      </trkpt>
      <trkpt lat="45.72416" lon="6.09">
        <ele>703.9</ele>
        <time>2021-08-28T07:36:07Z</time>
      </trkpt>
      <trkpt lat="45.72409" lon="6.08999">
        <ele>704</ele>
        <time>2021-08-28T07:36:10Z</time>
      </trkpt>
      <trkpt lat="45.72404" lon="6.08996">
        <ele>704.1</ele>
        <time>2021-08-28T07:36:11Z</time>
      </trkpt>
      <trkpt lat="45.72401" lon="6.08993">
        <ele>704.1</ele>
        <time>2021-08-28T07:36:12Z</time>
      </trkpt>
      <trkpt lat="45.72398" lon="6.0899">
        <ele>704.1</ele>
        <time>2021-08-28T07:36:14Z</time>
      </trkpt>
      <trkpt lat="45.72396" lon="6.0899">
        <ele>704.2</ele>
        <time>2021-08-28T07:36:15Z</time>
      </trkpt>
      <trkpt lat="45.72394" lon="6.08987">
        <ele>704.2</ele>
        <time>2021-08-28T07:36:16Z</time>
      </trkpt>
      <trkpt lat="45.72387" lon="6.08982">
        <ele>704.3</ele>
        <time>2021-08-28T07:36:18Z</time>
      </trkpt>
      <trkpt lat="45.72384" lon="6.08978">
        <ele>704.3</ele>
        <time>2021-08-28T07:36:19Z</time>
      </trkpt>
      <trkpt lat="45.72378" lon="6.08971">
        <ele>704.4</ele>
        <time>2021-08-28T07:36:20Z</time>
      </trkpt>
      <trkpt lat="45.72375" lon="6.08967">
        <ele>704.5</ele>
        <time>2021-08-28T07:36:22Z</time>
      </trkpt>
      <trkpt lat="45.72374" lon="6.08962">
        <ele>704.5</ele>
        <time>2021-08-28T07:36:23Z</time>
      </trkpt>
      <trkpt lat="45.7237" lon="6.08955">
        <ele>704.6</ele>
        <time>2021-08-28T07:36:25Z</time>
      </trkpt>
      <trkpt lat="45.72364" lon="6.08947">
        <ele>704.8</ele>
        <time>2021-08-28T07:36:26Z</time>
      </trkpt>
      <trkpt lat="45.72362" lon="6.08943">
        <ele>704.8</ele>
        <time>2021-08-28T07:36:28Z</time>
      </trkpt>
      <trkpt lat="45.72355" lon="6.08936">
        <ele>705</ele>
        <time>2021-08-28T07:36:30Z</time>
      </trkpt>
      <trkpt lat="45.72351" lon="6.08932">
        <ele>705.1</ele>
        <time>2021-08-28T07:36:31Z</time>
      </trkpt>
      <trkpt lat="45.7235" lon="6.08931">
        <ele>705.1</ele>
        <time>2021-08-28T07:36:32Z</time>
      </trkpt>
      <trkpt lat="45.72344" lon="6.08927">
        <ele>705.3</ele>
        <time>2021-08-28T07:36:34Z</time>
      </trkpt>
      <trkpt lat="45.72338" lon="6.08923">
        <ele>705.5</ele>
        <time>2021-08-28T07:36:36Z</time>
      </trkpt>
      <trkpt lat="45.72332" lon="6.08918">
        <ele>705.7</ele>
        <time>2021-08-28T07:36:38Z</time>
      </trkpt>
      <trkpt lat="45.7233" lon="6.08917">
        <ele>705.8</ele>
        <time>2021-08-28T07:36:39Z</time>
      </trkpt>
      <trkpt lat="45.72326" lon="6.08911">
        <ele>705.9</ele>
        <time>2021-08-28T07:36:41Z</time>
      </trkpt>
      <trkpt lat="45.72323" lon="6.08907">
        <ele>706.1</ele>
        <time>2021-08-28T07:36:43Z</time>
      </trkpt>
      <trkpt lat="45.72321" lon="6.08904">
        <ele>706.1</ele>
        <time>2021-08-28T07:36:44Z</time>
      </trkpt>
      <trkpt lat="45.7232" lon="6.089">
        <ele>706.2</ele>
        <time>2021-08-28T07:36:45Z</time>
      </trkpt>
      <trkpt lat="45.72317" lon="6.08893">
        <ele>706.4</ele>
        <time>2021-08-28T07:36:46Z</time>
      </trkpt>
      <trkpt lat="45.72315" lon="6.08889">
        <ele>706.4</ele>
        <time>2021-08-28T07:36:47Z</time>
      </trkpt>
      <trkpt lat="45.72314" lon="6.08884">
        <ele>706.5</ele>
        <time>2021-08-28T07:36:49Z</time>
      </trkpt>
      <trkpt lat="45.72312" lon="6.08878">
        <ele>706.6</ele>
        <time>2021-08-28T07:36:50Z</time>
      </trkpt>
      <trkpt lat="45.72311" lon="6.08876">
        <ele>706.7</ele>
        <time>2021-08-28T07:36:51Z</time>
      </trkpt>
      <trkpt lat="45.72308" lon="6.08868">
        <ele>706.8</ele>
        <time>2021-08-28T07:36:52Z</time>
      </trkpt>
      <trkpt lat="45.72306" lon="6.08865">
        <ele>706.9</ele>
        <time>2021-08-28T07:36:54Z</time>
      </trkpt>
      <trkpt lat="45.72304" lon="6.0886">
        <ele>707</ele>
        <time>2021-08-28T07:36:55Z</time>
      </trkpt>
      <trkpt lat="45.72302" lon="6.08856">
        <ele>707</ele>
        <time>2021-08-28T07:36:56Z</time>
      </trkpt>
      <trkpt lat="45.72299" lon="6.08849">
        <ele>707.1</ele>
        <time>2021-08-28T07:36:57Z</time>
      </trkpt>
      <trkpt lat="45.72294" lon="6.08843">
        <ele>707.3</ele>
        <time>2021-08-28T07:36:59Z</time>
      </trkpt>
      <trkpt lat="45.72292" lon="6.0884">
        <ele>707.4</ele>
        <time>2021-08-28T07:37:00Z</time>
      </trkpt>
      <trkpt lat="45.72287" lon="6.08836">
        <ele>707.5</ele>
        <time>2021-08-28T07:37:02Z</time>
      </trkpt>
      <trkpt lat="45.72281" lon="6.08832">
        <ele>707.6</ele>
        <time>2021-08-28T07:37:04Z</time>
      </trkpt>
      <trkpt lat="45.72276" lon="6.0883">
        <ele>707.8</ele>
        <time>2021-08-28T07:37:05Z</time>
      </trkpt>
      <trkpt lat="45.72269" lon="6.08828">
        <ele>707.9</ele>
        <time>2021-08-28T07:37:06Z</time>
      </trkpt>
      <trkpt lat="45.72264" lon="6.0883">
        <ele>708.1</ele>
        <time>2021-08-28T07:37:08Z</time>
      </trkpt>
      <trkpt lat="45.72259" lon="6.08831">
        <ele>708.2</ele>
        <time>2021-08-28T07:37:09Z</time>
      </trkpt>
      <trkpt lat="45.72255" lon="6.08832">
        <ele>708.3</ele>
        <time>2021-08-28T07:37:10Z</time>
      </trkpt>
      <trkpt lat="45.72248" lon="6.08836">
        <ele>708.5</ele>
        <time>2021-08-28T07:37:12Z</time>
      </trkpt>
      <trkpt lat="45.72242" lon="6.08839">
        <ele>708.7</ele>
        <time>2021-08-28T07:37:13Z</time>
      </trkpt>
      <trkpt lat="45.72239" lon="6.0884">
        <ele>708.7</ele>
        <time>2021-08-28T07:37:14Z</time>
      </trkpt>
      <trkpt lat="45.72234" lon="6.08841">
        <ele>708.8</ele>
        <time>2021-08-28T07:37:16Z</time>
      </trkpt>
      <trkpt lat="45.7223" lon="6.08843">
        <ele>709</ele>
        <time>2021-08-28T07:37:18Z</time>
      </trkpt>
      <trkpt lat="45.72224" lon="6.08844">
        <ele>709.1</ele>
        <time>2021-08-28T07:37:20Z</time>
      </trkpt>
      <trkpt lat="45.72217" lon="6.08845">
        <ele>709.2</ele>
        <time>2021-08-28T07:37:22Z</time>
      </trkpt>
      <trkpt lat="45.72212" lon="6.08843">
        <ele>709.2</ele>
        <time>2021-08-28T07:37:24Z</time>
      </trkpt>
      <trkpt lat="45.72208" lon="6.08841">
        <ele>709.2</ele>
        <time>2021-08-28T07:37:25Z</time>
      </trkpt>
      <trkpt lat="45.72204" lon="6.08839">
        <ele>709.2</ele>
        <time>2021-08-28T07:37:26Z</time>
      </trkpt>
      <trkpt lat="45.72196" lon="6.08836">
        <ele>709.2</ele>
        <time>2021-08-28T07:37:28Z</time>
      </trkpt>
      <trkpt lat="45.72194" lon="6.08836">
        <ele>709.2</ele>
        <time>2021-08-28T07:37:29Z</time>
      </trkpt>
      <trkpt lat="45.72188" lon="6.08833">
        <ele>709.2</ele>
        <time>2021-08-28T07:37:30Z</time>
      </trkpt>
      <trkpt lat="45.72184" lon="6.08831">
        <ele>709.1</ele>
        <time>2021-08-28T07:37:32Z</time>
      </trkpt>
      <trkpt lat="45.72175" lon="6.08828">
        <ele>709</ele>
        <time>2021-08-28T07:37:34Z</time>
      </trkpt>
      <trkpt lat="45.72171" lon="6.08825">
        <ele>708.9</ele>
        <time>2021-08-28T07:37:35Z</time>
      </trkpt>
      <trkpt lat="45.72166" lon="6.08818">
        <ele>708.8</ele>
        <time>2021-08-28T07:37:38Z</time>
      </trkpt>
      <trkpt lat="45.72162" lon="6.08815">
        <ele>708.8</ele>
        <time>2021-08-28T07:37:39Z</time>
      </trkpt>
      <trkpt lat="45.72158" lon="6.08811">
        <ele>708.7</ele>
        <time>2021-08-28T07:37:40Z</time>
      </trkpt>
      <trkpt lat="45.72154" lon="6.08806">
        <ele>708.6</ele>
        <time>2021-08-28T07:37:41Z</time>
      </trkpt>
      <trkpt lat="45.7215" lon="6.088">
        <ele>708.6</ele>
        <time>2021-08-28T07:37:42Z</time>
      </trkpt>
      <trkpt lat="45.72146" lon="6.08795">
        <ele>708.5</ele>
        <time>2021-08-28T07:37:43Z</time>
      </trkpt>
      <trkpt lat="45.72142" lon="6.0879">
        <ele>708.4</ele>
        <time>2021-08-28T07:37:44Z</time>
      </trkpt>
      <trkpt lat="45.72138" lon="6.08785">
        <ele>708.4</ele>
        <time>2021-08-28T07:37:45Z</time>
      </trkpt>
      <trkpt lat="45.72134" lon="6.0878">
        <ele>708.3</ele>
        <time>2021-08-28T07:37:46Z</time>
      </trkpt>
      <trkpt lat="45.72129" lon="6.08777">
        <ele>708.2</ele>
        <time>2021-08-28T07:37:47Z</time>
      </trkpt>
      <trkpt lat="45.72124" lon="6.08774">
        <ele>708.2</ele>
        <time>2021-08-28T07:37:48Z</time>
      </trkpt>
      <trkpt lat="45.72118" lon="6.08773">
        <ele>708.1</ele>
        <time>2021-08-28T07:37:49Z</time>
      </trkpt>
      <trkpt lat="45.72113" lon="6.08774">
        <ele>708.1</ele>
        <time>2021-08-28T07:37:50Z</time>
      </trkpt>
      <trkpt lat="45.72107" lon="6.08776">
        <ele>708</ele>
        <time>2021-08-28T07:37:51Z</time>
      </trkpt>
      <trkpt lat="45.72102" lon="6.08779">
        <ele>708</ele>
        <time>2021-08-28T07:37:52Z</time>
      </trkpt>
      <trkpt lat="45.72097" lon="6.08782">
        <ele>707.9</ele>
        <time>2021-08-28T07:37:53Z</time>
      </trkpt>
      <trkpt lat="45.72092" lon="6.08786">
        <ele>707.8</ele>
        <time>2021-08-28T07:37:54Z</time>
      </trkpt>
      <trkpt lat="45.72087" lon="6.08789">
        <ele>707.8</ele>
        <time>2021-08-28T07:37:55Z</time>
      </trkpt>
      <trkpt lat="45.72081" lon="6.08792">
        <ele>707.7</ele>
        <time>2021-08-28T07:37:56Z</time>
      </trkpt>
      <trkpt lat="45.72076" lon="6.08793">
        <ele>707.7</ele>
        <time>2021-08-28T07:37:57Z</time>
      </trkpt>
      <trkpt lat="45.7207" lon="6.08794">
        <ele>707.6</ele>
        <time>2021-08-28T07:37:58Z</time>
      </trkpt>
      <trkpt lat="45.72064" lon="6.08795">
        <ele>707.6</ele>
        <time>2021-08-28T07:37:59Z</time>
      </trkpt>
      <trkpt lat="45.72059" lon="6.08795">
        <ele>707.6</ele>
        <time>2021-08-28T07:38:00Z</time>
      </trkpt>
      <trkpt lat="45.72053" lon="6.08795">
        <ele>707.5</ele>
        <time>2021-08-28T07:38:01Z</time>
      </trkpt>
      <trkpt lat="45.72047" lon="6.08794">
        <ele>707.5</ele>
        <time>2021-08-28T07:38:02Z</time>
      </trkpt>
      <trkpt lat="45.72041" lon="6.08794">
        <ele>707.4</ele>
        <time>2021-08-28T07:38:03Z</time>
      </trkpt>
      <trkpt lat="45.72035" lon="6.08795">
        <ele>707.4</ele>
        <time>2021-08-28T07:38:04Z</time>
      </trkpt>
      <trkpt lat="45.72029" lon="6.08796">
        <ele>707.4</ele>
        <time>2021-08-28T07:38:05Z</time>
      </trkpt>
      <trkpt lat="45.72023" lon="6.08797">
        <ele>707.4</ele>
        <time>2021-08-28T07:38:06Z</time>
      </trkpt>
      <trkpt lat="45.72017" lon="6.08798">
        <ele>707.4</ele>
        <time>2021-08-28T07:38:07Z</time>
      </trkpt>
      <trkpt lat="45.72011" lon="6.08799">
        <ele>707.4</ele>
        <time>2021-08-28T07:38:08Z</time>
      </trkpt>
      <trkpt lat="45.72005" lon="6.088">
        <ele>707.4</ele>
        <time>2021-08-28T07:38:09Z</time>
      </trkpt>
      <trkpt lat="45.72" lon="6.08801">
        <ele>707.4</ele>
        <time>2021-08-28T07:38:10Z</time>
      </trkpt>
      <trkpt lat="45.71994" lon="6.08803">
        <ele>707.3</ele>
        <time>2021-08-28T07:38:11Z</time>
      </trkpt>
      <trkpt lat="45.71989" lon="6.08804">
        <ele>707.3</ele>
        <time>2021-08-28T07:38:12Z</time>
      </trkpt>
      <trkpt lat="45.71983" lon="6.08806">
        <ele>707.2</ele>
        <time>2021-08-28T07:38:13Z</time>
      </trkpt>
      <trkpt lat="45.71978" lon="6.08809">
        <ele>707.2</ele>
        <time>2021-08-28T07:38:14Z</time>
      </trkpt>
      <trkpt lat="45.71973" lon="6.08812">
        <ele>707.1</ele>
        <time>2021-08-28T07:38:15Z</time>
      </trkpt>
      <trkpt lat="45.71967" lon="6.08814">
        <ele>707.1</ele>
        <time>2021-08-28T07:38:16Z</time>
      </trkpt>
      <trkpt lat="45.71962" lon="6.08817">
        <ele>707.1</ele>
        <time>2021-08-28T07:38:17Z</time>
      </trkpt>
      <trkpt lat="45.71957" lon="6.08819">
        <ele>707</ele>
        <time>2021-08-28T07:38:18Z</time>
      </trkpt>
      <trkpt lat="45.71952" lon="6.08822">
        <ele>707</ele>
        <time>2021-08-28T07:38:19Z</time>
      </trkpt>
      <trkpt lat="45.71947" lon="6.08824">
        <ele>706.9</ele>
        <time>2021-08-28T07:38:20Z</time>
      </trkpt>
      <trkpt lat="45.71942" lon="6.08827">
        <ele>706.9</ele>
        <time>2021-08-28T07:38:21Z</time>
      </trkpt>
      <trkpt lat="45.71936" lon="6.0883">
        <ele>706.9</ele>
        <time>2021-08-28T07:38:22Z</time>
      </trkpt>
      <trkpt lat="45.71931" lon="6.08833">
        <ele>706.8</ele>
        <time>2021-08-28T07:38:23Z</time>
      </trkpt>
      <trkpt lat="45.71926" lon="6.08836">
        <ele>706.8</ele>
        <time>2021-08-28T07:38:24Z</time>
      </trkpt>
      <trkpt lat="45.71921" lon="6.08839">
        <ele>706.8</ele>
        <time>2021-08-28T07:38:25Z</time>
      </trkpt>
      <trkpt lat="45.71915" lon="6.08841">
        <ele>706.8</ele>
        <time>2021-08-28T07:38:26Z</time>
      </trkpt>
      <trkpt lat="45.7191" lon="6.08844">
        <ele>706.8</ele>
        <time>2021-08-28T07:38:27Z</time>
      </trkpt>
      <trkpt lat="45.71905" lon="6.08846">
        <ele>706.8</ele>
        <time>2021-08-28T07:38:28Z</time>
      </trkpt>
      <trkpt lat="45.71899" lon="6.08848">
        <ele>706.8</ele>
        <time>2021-08-28T07:38:29Z</time>
      </trkpt>
      <trkpt lat="45.71893" lon="6.0885">
        <ele>706.8</ele>
        <time>2021-08-28T07:38:30Z</time>
      </trkpt>
      <trkpt lat="45.71888" lon="6.08851">
        <ele>706.8</ele>
        <time>2021-08-28T07:38:31Z</time>
      </trkpt>
      <trkpt lat="45.71882" lon="6.08852">
        <ele>706.9</ele>
        <time>2021-08-28T07:38:32Z</time>
      </trkpt>
      <trkpt lat="45.71877" lon="6.08854">
        <ele>706.9</ele>
        <time>2021-08-28T07:38:33Z</time>
      </trkpt>
      <trkpt lat="45.71871" lon="6.08855">
        <ele>706.9</ele>
        <time>2021-08-28T07:38:34Z</time>
      </trkpt>
      <trkpt lat="45.71866" lon="6.08856">
        <ele>706.9</ele>
        <time>2021-08-28T07:38:35Z</time>
      </trkpt>
      <trkpt lat="45.7186" lon="6.08858">
        <ele>706.9</ele>
        <time>2021-08-28T07:38:36Z</time>
      </trkpt>
      <trkpt lat="45.71855" lon="6.08859">
        <ele>706.8</ele>
        <time>2021-08-28T07:38:37Z</time>
      </trkpt>
      <trkpt lat="45.7185" lon="6.08861">
        <ele>706.8</ele>
        <time>2021-08-28T07:38:38Z</time>
      </trkpt>
      <trkpt lat="45.71846" lon="6.08863">
        <ele>706.8</ele>
        <time>2021-08-28T07:38:39Z</time>
      </trkpt>
      <trkpt lat="45.7184" lon="6.08864">
        <ele>706.8</ele>
        <time>2021-08-28T07:38:40Z</time>
      </trkpt>
      <trkpt lat="45.71835" lon="6.08865">
        <ele>706.8</ele>
        <time>2021-08-28T07:38:41Z</time>
      </trkpt>
      <trkpt lat="45.71829" lon="6.08867">
        <ele>706.8</ele>
        <time>2021-08-28T07:38:42Z</time>
      </trkpt>
      <trkpt lat="45.71824" lon="6.08868">
        <ele>706.8</ele>
        <time>2021-08-28T07:38:43Z</time>
      </trkpt>
      <trkpt lat="45.71819" lon="6.08868">
        <ele>706.9</ele>
        <time>2021-08-28T07:38:44Z</time>
      </trkpt>
      <trkpt lat="45.71813" lon="6.08868">
        <ele>707</ele>
        <time>2021-08-28T07:38:45Z</time>
      </trkpt>
      <trkpt lat="45.71808" lon="6.08867">
        <ele>707.1</ele>
        <time>2021-08-28T07:38:46Z</time>
      </trkpt>
      <trkpt lat="45.71803" lon="6.08866">
        <ele>707.2</ele>
        <time>2021-08-28T07:38:47Z</time>
      </trkpt>
      <trkpt lat="45.71799" lon="6.08865">
        <ele>707.3</ele>
        <time>2021-08-28T07:38:48Z</time>
      </trkpt>
      <trkpt lat="45.71794" lon="6.08863">
        <ele>707.4</ele>
        <time>2021-08-28T07:38:49Z</time>
      </trkpt>
      <trkpt lat="45.7179" lon="6.08861">
        <ele>707.6</ele>
        <time>2021-08-28T07:38:50Z</time>
      </trkpt>
      <trkpt lat="45.71788" lon="6.08859">
        <ele>707.7</ele>
        <time>2021-08-28T07:38:51Z</time>
      </trkpt>
      <trkpt lat="45.71784" lon="6.08858">
        <ele>707.8</ele>
        <time>2021-08-28T07:38:52Z</time>
      </trkpt>
      <trkpt lat="45.71779" lon="6.08856">
        <ele>708</ele>
        <time>2021-08-28T07:38:53Z</time>
      </trkpt>
      <trkpt lat="45.71776" lon="6.08854">
        <ele>708.1</ele>
        <time>2021-08-28T07:38:54Z</time>
      </trkpt>
      <trkpt lat="45.71773" lon="6.08853">
        <ele>708.3</ele>
        <time>2021-08-28T07:38:55Z</time>
      </trkpt>
      <trkpt lat="45.7177" lon="6.08851">
        <ele>708.4</ele>
        <time>2021-08-28T07:38:56Z</time>
      </trkpt>
      <trkpt lat="45.71766" lon="6.08849">
        <ele>708.5</ele>
        <time>2021-08-28T07:38:57Z</time>
      </trkpt>
      <trkpt lat="45.71762" lon="6.08848">
        <ele>708.7</ele>
        <time>2021-08-28T07:38:58Z</time>
      </trkpt>
      <trkpt lat="45.71759" lon="6.08846">
        <ele>708.8</ele>
        <time>2021-08-28T07:38:59Z</time>
      </trkpt>
      <trkpt lat="45.71756" lon="6.08844">
        <ele>708.9</ele>
        <time>2021-08-28T07:39:00Z</time>
      </trkpt>
      <trkpt lat="45.71753" lon="6.08843">
        <ele>709</ele>
        <time>2021-08-28T07:39:01Z</time>
      </trkpt>
      <trkpt lat="45.71749" lon="6.08841">
        <ele>709.2</ele>
        <time>2021-08-28T07:39:02Z</time>
      </trkpt>
      <trkpt lat="45.71746" lon="6.08839">
        <ele>709.3</ele>
        <time>2021-08-28T07:39:03Z</time>
      </trkpt>
      <trkpt lat="45.71743" lon="6.08837">
        <ele>709.4</ele>
        <time>2021-08-28T07:39:04Z</time>
      </trkpt>
      <trkpt lat="45.71739" lon="6.08835">
        <ele>709.6</ele>
        <time>2021-08-28T07:39:05Z</time>
      </trkpt>
      <trkpt lat="45.71736" lon="6.08834">
        <ele>709.7</ele>
        <time>2021-08-28T07:39:06Z</time>
      </trkpt>
      <trkpt lat="45.71733" lon="6.08833">
        <ele>709.8</ele>
        <time>2021-08-28T07:39:07Z</time>
      </trkpt>
      <trkpt lat="45.7173" lon="6.08831">
        <ele>709.9</ele>
        <time>2021-08-28T07:39:08Z</time>
      </trkpt>
      <trkpt lat="45.71727" lon="6.0883">
        <ele>710</ele>
        <time>2021-08-28T07:39:09Z</time>
      </trkpt>
      <trkpt lat="45.71723" lon="6.08829">
        <ele>710.1</ele>
        <time>2021-08-28T07:39:10Z</time>
      </trkpt>
      <trkpt lat="45.7172" lon="6.08828">
        <ele>710.2</ele>
        <time>2021-08-28T07:39:11Z</time>
      </trkpt>
      <trkpt lat="45.71717" lon="6.08826">
        <ele>710.3</ele>
        <time>2021-08-28T07:39:12Z</time>
      </trkpt>
      <trkpt lat="45.71714" lon="6.08825">
        <ele>710.4</ele>
        <time>2021-08-28T07:39:13Z</time>
      </trkpt>
      <trkpt lat="45.71711" lon="6.08823">
        <ele>710.5</ele>
        <time>2021-08-28T07:39:14Z</time>
      </trkpt>
      <trkpt lat="45.71708" lon="6.08822">
        <ele>710.6</ele>
        <time>2021-08-28T07:39:15Z</time>
      </trkpt>
      <trkpt lat="45.71704" lon="6.08821">
        <ele>710.7</ele>
        <time>2021-08-28T07:39:16Z</time>
      </trkpt>
      <trkpt lat="45.717" lon="6.08819">
        <ele>710.8</ele>
        <time>2021-08-28T07:39:17Z</time>
      </trkpt>
      <trkpt lat="45.71697" lon="6.08818">
        <ele>710.9</ele>
        <time>2021-08-28T07:39:18Z</time>
      </trkpt>
      <trkpt lat="45.71694" lon="6.08818">
        <ele>711</ele>
        <time>2021-08-28T07:39:19Z</time>
      </trkpt>
      <trkpt lat="45.7169" lon="6.08817">
        <ele>711.1</ele>
        <time>2021-08-28T07:39:20Z</time>
      </trkpt>
      <trkpt lat="45.71687" lon="6.08815">
        <ele>711.1</ele>
        <time>2021-08-28T07:39:21Z</time>
      </trkpt>
      <trkpt lat="45.71683" lon="6.08814">
        <ele>711.1</ele>
        <time>2021-08-28T07:39:22Z</time>
      </trkpt>
      <trkpt lat="45.71682" lon="6.08814">
        <ele>711.2</ele>
        <time>2021-08-28T07:39:23Z</time>
      </trkpt>
      <trkpt lat="45.71679" lon="6.08813">
        <ele>711.2</ele>
        <time>2021-08-28T07:39:24Z</time>
      </trkpt>
      <trkpt lat="45.71676" lon="6.08816">
        <ele>711.1</ele>
        <time>2021-08-28T07:39:25Z</time>
      </trkpt>
      <trkpt lat="45.71674" lon="6.08817">
        <ele>711.1</ele>
        <time>2021-08-28T07:39:26Z</time>
      </trkpt>
      <trkpt lat="45.71671" lon="6.0882">
        <ele>711.1</ele>
        <time>2021-08-28T07:39:27Z</time>
      </trkpt>
      <trkpt lat="45.71668" lon="6.08824">
        <ele>711</ele>
        <time>2021-08-28T07:39:28Z</time>
      </trkpt>
      <trkpt lat="45.71665" lon="6.08831">
        <ele>711</ele>
        <time>2021-08-28T07:39:29Z</time>
      </trkpt>
      <trkpt lat="45.71662" lon="6.08837">
        <ele>710.9</ele>
        <time>2021-08-28T07:39:30Z</time>
      </trkpt>
      <trkpt lat="45.71658" lon="6.08841">
        <ele>710.8</ele>
        <time>2021-08-28T07:39:31Z</time>
      </trkpt>
      <trkpt lat="45.71654" lon="6.08843">
        <ele>710.8</ele>
        <time>2021-08-28T07:39:32Z</time>
      </trkpt>
      <trkpt lat="45.71649" lon="6.08842">
        <ele>710.8</ele>
        <time>2021-08-28T07:39:33Z</time>
      </trkpt>
      <trkpt lat="45.71644" lon="6.0884">
        <ele>710.8</ele>
        <time>2021-08-28T07:39:34Z</time>
      </trkpt>
      <trkpt lat="45.7164" lon="6.08839">
        <ele>710.8</ele>
        <time>2021-08-28T07:39:35Z</time>
      </trkpt>
      <trkpt lat="45.71635" lon="6.08837">
        <ele>710.8</ele>
        <time>2021-08-28T07:39:36Z</time>
      </trkpt>
      <trkpt lat="45.71631" lon="6.08836">
        <ele>710.8</ele>
        <time>2021-08-28T07:39:37Z</time>
      </trkpt>
      <trkpt lat="45.71628" lon="6.08834">
        <ele>710.8</ele>
        <time>2021-08-28T07:39:38Z</time>
      </trkpt>
      <trkpt lat="45.71623" lon="6.08832">
        <ele>710.7</ele>
        <time>2021-08-28T07:39:39Z</time>
      </trkpt>
      <trkpt lat="45.71618" lon="6.0883">
        <ele>710.7</ele>
        <time>2021-08-28T07:39:40Z</time>
      </trkpt>
      <trkpt lat="45.71614" lon="6.08827">
        <ele>710.6</ele>
        <time>2021-08-28T07:39:41Z</time>
      </trkpt>
      <trkpt lat="45.7161" lon="6.08824">
        <ele>710.5</ele>
        <time>2021-08-28T07:39:42Z</time>
      </trkpt>
      <trkpt lat="45.71605" lon="6.08822">
        <ele>710.5</ele>
        <time>2021-08-28T07:39:43Z</time>
      </trkpt>
      <trkpt lat="45.716" lon="6.08819">
        <ele>710.4</ele>
        <time>2021-08-28T07:39:44Z</time>
      </trkpt>
      <trkpt lat="45.71595" lon="6.08816">
        <ele>710.3</ele>
        <time>2021-08-28T07:39:45Z</time>
      </trkpt>
      <trkpt lat="45.7159" lon="6.08814">
        <ele>710.2</ele>
        <time>2021-08-28T07:39:46Z</time>
      </trkpt>
      <trkpt lat="45.71585" lon="6.08812">
        <ele>710.2</ele>
        <time>2021-08-28T07:39:47Z</time>
      </trkpt>
      <trkpt lat="45.71579" lon="6.08809">
        <ele>710.1</ele>
        <time>2021-08-28T07:39:48Z</time>
      </trkpt>
      <trkpt lat="45.71574" lon="6.08806">
        <ele>710</ele>
        <time>2021-08-28T07:39:49Z</time>
      </trkpt>
      <trkpt lat="45.71569" lon="6.08803">
        <ele>710</ele>
        <time>2021-08-28T07:39:50Z</time>
      </trkpt>
      <trkpt lat="45.71563" lon="6.088">
        <ele>710</ele>
        <time>2021-08-28T07:39:51Z</time>
      </trkpt>
      <trkpt lat="45.71558" lon="6.08796">
        <ele>710</ele>
        <time>2021-08-28T07:39:52Z</time>
      </trkpt>
      <trkpt lat="45.71553" lon="6.08792">
        <ele>710</ele>
        <time>2021-08-28T07:39:53Z</time>
      </trkpt>
      <trkpt lat="45.71548" lon="6.08788">
        <ele>710</ele>
        <time>2021-08-28T07:39:54Z</time>
      </trkpt>
      <trkpt lat="45.71543" lon="6.08785">
        <ele>710</ele>
        <time>2021-08-28T07:39:55Z</time>
      </trkpt>
      <trkpt lat="45.71538" lon="6.08782">
        <ele>710.1</ele>
        <time>2021-08-28T07:39:56Z</time>
      </trkpt>
      <trkpt lat="45.71534" lon="6.08779">
        <ele>710.1</ele>
        <time>2021-08-28T07:39:57Z</time>
      </trkpt>
      <trkpt lat="45.71529" lon="6.08776">
        <ele>710.2</ele>
        <time>2021-08-28T07:39:58Z</time>
      </trkpt>
      <trkpt lat="45.71524" lon="6.08774">
        <ele>710.2</ele>
        <time>2021-08-28T07:39:59Z</time>
      </trkpt>
      <trkpt lat="45.71519" lon="6.08771">
        <ele>710.3</ele>
        <time>2021-08-28T07:40:00Z</time>
      </trkpt>
      <trkpt lat="45.71515" lon="6.08769">
        <ele>710.3</ele>
        <time>2021-08-28T07:40:01Z</time>
      </trkpt>
      <trkpt lat="45.7151" lon="6.08766">
        <ele>710.4</ele>
        <time>2021-08-28T07:40:02Z</time>
      </trkpt>
      <trkpt lat="45.71505" lon="6.08764">
        <ele>710.4</ele>
        <time>2021-08-28T07:40:03Z</time>
      </trkpt>
      <trkpt lat="45.715" lon="6.08761">
        <ele>710.5</ele>
        <time>2021-08-28T07:40:04Z</time>
      </trkpt>
      <trkpt lat="45.71496" lon="6.08759">
        <ele>710.6</ele>
        <time>2021-08-28T07:40:05Z</time>
      </trkpt>
      <trkpt lat="45.71491" lon="6.08756">
        <ele>710.7</ele>
        <time>2021-08-28T07:40:06Z</time>
      </trkpt>
      <trkpt lat="45.71487" lon="6.08753">
        <ele>710.8</ele>
        <time>2021-08-28T07:40:07Z</time>
      </trkpt>
      <trkpt lat="45.71483" lon="6.0875">
        <ele>710.9</ele>
        <time>2021-08-28T07:40:08Z</time>
      </trkpt>
      <trkpt lat="45.71479" lon="6.08747">
        <ele>711.1</ele>
        <time>2021-08-28T07:40:09Z</time>
      </trkpt>
      <trkpt lat="45.71475" lon="6.08744">
        <ele>711.2</ele>
        <time>2021-08-28T07:40:10Z</time>
      </trkpt>
      <trkpt lat="45.71472" lon="6.08742">
        <ele>711.3</ele>
        <time>2021-08-28T07:40:11Z</time>
      </trkpt>
      <trkpt lat="45.71467" lon="6.08739">
        <ele>711.4</ele>
        <time>2021-08-28T07:40:12Z</time>
      </trkpt>
      <trkpt lat="45.71464" lon="6.08737">
        <ele>711.5</ele>
        <time>2021-08-28T07:40:13Z</time>
      </trkpt>
      <trkpt lat="45.7146" lon="6.08735">
        <ele>711.6</ele>
        <time>2021-08-28T07:40:14Z</time>
      </trkpt>
      <trkpt lat="45.71456" lon="6.08733">
        <ele>711.8</ele>
        <time>2021-08-28T07:40:15Z</time>
      </trkpt>
      <trkpt lat="45.71448" lon="6.08726">
        <ele>712</ele>
        <time>2021-08-28T07:40:16Z</time>
      </trkpt>
      <trkpt lat="45.71442" lon="6.08724">
        <ele>712.2</ele>
        <time>2021-08-28T07:40:17Z</time>
      </trkpt>
      <trkpt lat="45.71438" lon="6.08721">
        <ele>712.3</ele>
        <time>2021-08-28T07:40:18Z</time>
      </trkpt>
      <trkpt lat="45.71432" lon="6.08718">
        <ele>712.4</ele>
        <time>2021-08-28T07:40:19Z</time>
      </trkpt>
      <trkpt lat="45.71427" lon="6.08715">
        <ele>712.5</ele>
        <time>2021-08-28T07:40:22Z</time>
      </trkpt>
      <trkpt lat="45.71423" lon="6.08713">
        <ele>712.6</ele>
        <time>2021-08-28T07:40:23Z</time>
      </trkpt>
      <trkpt lat="45.71418" lon="6.08712">
        <ele>712.7</ele>
        <time>2021-08-28T07:40:24Z</time>
      </trkpt>
      <trkpt lat="45.71414" lon="6.0871">
        <ele>712.8</ele>
        <time>2021-08-28T07:40:25Z</time>
      </trkpt>
      <trkpt lat="45.71408" lon="6.08707">
        <ele>713</ele>
        <time>2021-08-28T07:40:27Z</time>
      </trkpt>
      <trkpt lat="45.71402" lon="6.08704">
        <ele>713.1</ele>
        <time>2021-08-28T07:40:28Z</time>
      </trkpt>
      <trkpt lat="45.714" lon="6.08702">
        <ele>713.1</ele>
        <time>2021-08-28T07:40:30Z</time>
      </trkpt>
      <trkpt lat="45.71394" lon="6.08698">
        <ele>713.3</ele>
        <time>2021-08-28T07:40:32Z</time>
      </trkpt>
      <trkpt lat="45.71389" lon="6.08692">
        <ele>713.4</ele>
        <time>2021-08-28T07:40:34Z</time>
      </trkpt>
      <trkpt lat="45.71387" lon="6.08683">
        <ele>713.6</ele>
        <time>2021-08-28T07:40:36Z</time>
      </trkpt>
      <trkpt lat="45.71383" lon="6.08674">
        <ele>713.7</ele>
        <time>2021-08-28T07:40:38Z</time>
      </trkpt>
      <trkpt lat="45.71381" lon="6.08671">
        <ele>713.8</ele>
        <time>2021-08-28T07:40:39Z</time>
      </trkpt>
      <trkpt lat="45.71378" lon="6.08668">
        <ele>713.9</ele>
        <time>2021-08-28T07:40:40Z</time>
      </trkpt>
      <trkpt lat="45.71373" lon="6.08662">
        <ele>714</ele>
        <time>2021-08-28T07:40:41Z</time>
      </trkpt>
      <trkpt lat="45.71371" lon="6.08657">
        <ele>714.1</ele>
        <time>2021-08-28T07:40:43Z</time>
      </trkpt>
      <trkpt lat="45.71368" lon="6.0865">
        <ele>714.3</ele>
        <time>2021-08-28T07:40:45Z</time>
      </trkpt>
      <trkpt lat="45.71366" lon="6.08647">
        <ele>714.3</ele>
        <time>2021-08-28T07:40:46Z</time>
      </trkpt>
      <trkpt lat="45.7136" lon="6.08641">
        <ele>714.3</ele>
        <time>2021-08-28T07:40:48Z</time>
      </trkpt>
      <trkpt lat="45.71352" lon="6.08638">
        <ele>714.3</ele>
        <time>2021-08-28T07:40:50Z</time>
      </trkpt>
      <trkpt lat="45.71344" lon="6.08638">
        <ele>714.2</ele>
        <time>2021-08-28T07:40:52Z</time>
      </trkpt>
      <trkpt lat="45.71338" lon="6.08637">
        <ele>714.2</ele>
        <time>2021-08-28T07:40:53Z</time>
      </trkpt>
      <trkpt lat="45.71331" lon="6.08632">
        <ele>714.1</ele>
        <time>2021-08-28T07:40:56Z</time>
      </trkpt>
      <trkpt lat="45.71327" lon="6.08629">
        <ele>714</ele>
        <time>2021-08-28T07:40:57Z</time>
      </trkpt>
      <trkpt lat="45.71322" lon="6.08627">
        <ele>714</ele>
        <time>2021-08-28T07:40:58Z</time>
      </trkpt>
      <trkpt lat="45.71317" lon="6.08624">
        <ele>714</ele>
        <time>2021-08-28T07:40:59Z</time>
      </trkpt>
      <trkpt lat="45.71313" lon="6.08621">
        <ele>714</ele>
        <time>2021-08-28T07:41:00Z</time>
      </trkpt>
      <trkpt lat="45.71308" lon="6.08619">
        <ele>714</ele>
        <time>2021-08-28T07:41:01Z</time>
      </trkpt>
      <trkpt lat="45.71302" lon="6.08617">
        <ele>714</ele>
        <time>2021-08-28T07:41:02Z</time>
      </trkpt>
      <trkpt lat="45.71297" lon="6.08614">
        <ele>714</ele>
        <time>2021-08-28T07:41:03Z</time>
      </trkpt>
      <trkpt lat="45.71292" lon="6.0861">
        <ele>714</ele>
        <time>2021-08-28T07:41:04Z</time>
      </trkpt>
      <trkpt lat="45.71288" lon="6.08607">
        <ele>713.9</ele>
        <time>2021-08-28T07:41:05Z</time>
      </trkpt>
      <trkpt lat="45.71283" lon="6.08603">
        <ele>713.9</ele>
        <time>2021-08-28T07:41:06Z</time>
      </trkpt>
      <trkpt lat="45.71279" lon="6.08599">
        <ele>713.8</ele>
        <time>2021-08-28T07:41:07Z</time>
      </trkpt>
      <trkpt lat="45.71274" lon="6.08595">
        <ele>713.7</ele>
        <time>2021-08-28T07:41:08Z</time>
      </trkpt>
      <trkpt lat="45.7127" lon="6.08591">
        <ele>713.6</ele>
        <time>2021-08-28T07:41:09Z</time>
      </trkpt>
      <trkpt lat="45.71265" lon="6.08587">
        <ele>713.6</ele>
        <time>2021-08-28T07:41:10Z</time>
      </trkpt>
      <trkpt lat="45.71261" lon="6.08582">
        <ele>713.5</ele>
        <time>2021-08-28T07:41:11Z</time>
      </trkpt>
      <trkpt lat="45.71257" lon="6.08577">
        <ele>713.5</ele>
        <time>2021-08-28T07:41:12Z</time>
      </trkpt>
      <trkpt lat="45.71254" lon="6.08572">
        <ele>713.5</ele>
        <time>2021-08-28T07:41:13Z</time>
      </trkpt>
      <trkpt lat="45.7125" lon="6.08567">
        <ele>713.5</ele>
        <time>2021-08-28T07:41:14Z</time>
      </trkpt>
      <trkpt lat="45.71246" lon="6.08562">
        <ele>713.6</ele>
        <time>2021-08-28T07:41:15Z</time>
      </trkpt>
      <trkpt lat="45.71242" lon="6.08558">
        <ele>713.7</ele>
        <time>2021-08-28T07:41:16Z</time>
      </trkpt>
      <trkpt lat="45.71239" lon="6.08553">
        <ele>713.8</ele>
        <time>2021-08-28T07:41:17Z</time>
      </trkpt>
      <trkpt lat="45.71236" lon="6.08549">
        <ele>713.9</ele>
        <time>2021-08-28T07:41:18Z</time>
      </trkpt>
      <trkpt lat="45.71233" lon="6.08545">
        <ele>714</ele>
        <time>2021-08-28T07:41:19Z</time>
      </trkpt>
      <trkpt lat="45.7123" lon="6.0854">
        <ele>714.2</ele>
        <time>2021-08-28T07:41:20Z</time>
      </trkpt>
      <trkpt lat="45.71227" lon="6.08537">
        <ele>714.3</ele>
        <time>2021-08-28T07:41:21Z</time>
      </trkpt>
      <trkpt lat="45.71223" lon="6.08533">
        <ele>714.4</ele>
        <time>2021-08-28T07:41:22Z</time>
      </trkpt>
      <trkpt lat="45.7122" lon="6.0853">
        <ele>714.5</ele>
        <time>2021-08-28T07:41:23Z</time>
      </trkpt>
      <trkpt lat="45.71219" lon="6.08529">
        <ele>714.5</ele>
        <time>2021-08-28T07:41:24Z</time>
      </trkpt>
      <trkpt lat="45.71219" lon="6.08528">
        <ele>714.5</ele>
        <time>2021-08-28T07:41:25Z</time>
      </trkpt>
      <trkpt lat="45.7121" lon="6.08518">
        <ele>714.9</ele>
        <time>2021-08-28T07:41:26Z</time>
      </trkpt>
      <trkpt lat="45.71205" lon="6.08512">
        <ele>715</ele>
        <time>2021-08-28T07:41:28Z</time>
      </trkpt>
      <trkpt lat="45.71202" lon="6.08501">
        <ele>715.3</ele>
        <time>2021-08-28T07:41:30Z</time>
      </trkpt>
      <trkpt lat="45.71201" lon="6.08496">
        <ele>715.3</ele>
        <time>2021-08-28T07:41:31Z</time>
      </trkpt>
      <trkpt lat="45.71199" lon="6.08486">
        <ele>715.5</ele>
        <time>2021-08-28T07:41:32Z</time>
      </trkpt>
      <trkpt lat="45.71198" lon="6.0848">
        <ele>715.6</ele>
        <time>2021-08-28T07:41:33Z</time>
      </trkpt>
      <trkpt lat="45.71196" lon="6.08474">
        <ele>715.6</ele>
        <time>2021-08-28T07:41:34Z</time>
      </trkpt>
      <trkpt lat="45.71193" lon="6.08469">
        <ele>715.7</ele>
        <time>2021-08-28T07:41:36Z</time>
      </trkpt>
      <trkpt lat="45.71191" lon="6.08465">
        <ele>715.8</ele>
        <time>2021-08-28T07:41:37Z</time>
      </trkpt>
      <trkpt lat="45.7119" lon="6.0846">
        <ele>715.9</ele>
        <time>2021-08-28T07:41:38Z</time>
      </trkpt>
      <trkpt lat="45.71187" lon="6.08452">
        <ele>716</ele>
        <time>2021-08-28T07:41:40Z</time>
      </trkpt>
      <trkpt lat="45.71184" lon="6.08443">
        <ele>716.2</ele>
        <time>2021-08-28T07:41:41Z</time>
      </trkpt>
      <trkpt lat="45.71182" lon="6.0844">
        <ele>716.2</ele>
        <time>2021-08-28T07:41:43Z</time>
      </trkpt>
      <trkpt lat="45.71179" lon="6.08431">
        <ele>716.4</ele>
        <time>2021-08-28T07:41:45Z</time>
      </trkpt>
      <trkpt lat="45.71176" lon="6.08422">
        <ele>716.5</ele>
        <time>2021-08-28T07:41:46Z</time>
      </trkpt>
      <trkpt lat="45.71174" lon="6.08414">
        <ele>716.7</ele>
        <time>2021-08-28T07:41:48Z</time>
      </trkpt>
      <trkpt lat="45.71173" lon="6.08407">
        <ele>716.8</ele>
        <time>2021-08-28T07:41:50Z</time>
      </trkpt>
      <trkpt lat="45.71172" lon="6.08403">
        <ele>716.9</ele>
        <time>2021-08-28T07:41:51Z</time>
      </trkpt>
      <trkpt lat="45.71171" lon="6.08398">
        <ele>717</ele>
        <time>2021-08-28T07:41:52Z</time>
      </trkpt>
      <trkpt lat="45.71169" lon="6.0839">
        <ele>717.2</ele>
        <time>2021-08-28T07:41:54Z</time>
      </trkpt>
      <trkpt lat="45.71169" lon="6.08384">
        <ele>717.3</ele>
        <time>2021-08-28T07:41:55Z</time>
      </trkpt>
      <trkpt lat="45.71169" lon="6.08378">
        <ele>717.4</ele>
        <time>2021-08-28T07:41:56Z</time>
      </trkpt>
      <trkpt lat="45.71169" lon="6.08376">
        <ele>717.5</ele>
        <time>2021-08-28T07:41:57Z</time>
      </trkpt>
      <trkpt lat="45.71169" lon="6.0837">
        <ele>717.6</ele>
        <time>2021-08-28T07:41:58Z</time>
      </trkpt>
      <trkpt lat="45.71169" lon="6.08362">
        <ele>717.8</ele>
        <time>2021-08-28T07:41:59Z</time>
      </trkpt>
      <trkpt lat="45.71169" lon="6.08359">
        <ele>717.9</ele>
        <time>2021-08-28T07:42:01Z</time>
      </trkpt>
      <trkpt lat="45.71167" lon="6.08351">
        <ele>718.1</ele>
        <time>2021-08-28T07:42:03Z</time>
      </trkpt>
      <trkpt lat="45.71166" lon="6.08347">
        <ele>718.2</ele>
        <time>2021-08-28T07:42:04Z</time>
      </trkpt>
      <trkpt lat="45.71163" lon="6.08343">
        <ele>718.3</ele>
        <time>2021-08-28T07:42:06Z</time>
      </trkpt>
      <trkpt lat="45.71162" lon="6.08339">
        <ele>718.5</ele>
        <time>2021-08-28T07:42:07Z</time>
      </trkpt>
      <trkpt lat="45.71161" lon="6.08337">
        <ele>718.6</ele>
        <time>2021-08-28T07:42:08Z</time>
      </trkpt>
      <trkpt lat="45.71157" lon="6.08332">
        <ele>718.8</ele>
        <time>2021-08-28T07:42:10Z</time>
      </trkpt>
      <trkpt lat="45.71155" lon="6.08329">
        <ele>718.9</ele>
        <time>2021-08-28T07:42:11Z</time>
      </trkpt>
      <trkpt lat="45.71153" lon="6.08325">
        <ele>719.1</ele>
        <time>2021-08-28T07:42:12Z</time>
      </trkpt>
      <trkpt lat="45.71152" lon="6.08323">
        <ele>719.1</ele>
        <time>2021-08-28T07:42:13Z</time>
      </trkpt>
      <trkpt lat="45.71149" lon="6.08321">
        <ele>719.3</ele>
        <time>2021-08-28T07:42:14Z</time>
      </trkpt>
      <trkpt lat="45.71144" lon="6.08317">
        <ele>719.6</ele>
        <time>2021-08-28T07:42:16Z</time>
      </trkpt>
      <trkpt lat="45.71142" lon="6.08312">
        <ele>719.7</ele>
        <time>2021-08-28T07:42:18Z</time>
      </trkpt>
      <trkpt lat="45.71139" lon="6.08308">
        <ele>720</ele>
        <time>2021-08-28T07:42:20Z</time>
      </trkpt>
      <trkpt lat="45.71136" lon="6.08305">
        <ele>720.2</ele>
        <time>2021-08-28T07:42:21Z</time>
      </trkpt>
      <trkpt lat="45.71134" lon="6.08304">
        <ele>720.3</ele>
        <time>2021-08-28T07:42:22Z</time>
      </trkpt>
      <trkpt lat="45.71131" lon="6.08299">
        <ele>720.5</ele>
        <time>2021-08-28T07:42:24Z</time>
      </trkpt>
      <trkpt lat="45.71127" lon="6.08295">
        <ele>720.8</ele>
        <time>2021-08-28T07:42:25Z</time>
      </trkpt>
      <trkpt lat="45.71125" lon="6.08292">
        <ele>721</ele>
        <time>2021-08-28T07:42:26Z</time>
      </trkpt>
      <trkpt lat="45.71124" lon="6.08291">
        <ele>721.1</ele>
        <time>2021-08-28T07:42:27Z</time>
      </trkpt>
      <trkpt lat="45.71122" lon="6.08288">
        <ele>721.2</ele>
        <time>2021-08-28T07:42:29Z</time>
      </trkpt>
      <trkpt lat="45.71122" lon="6.08286">
        <ele>721.3</ele>
        <time>2021-08-28T07:42:30Z</time>
      </trkpt>
      <trkpt lat="45.71119" lon="6.08284">
        <ele>721.5</ele>
        <time>2021-08-28T07:42:31Z</time>
      </trkpt>
      <trkpt lat="45.71116" lon="6.08284">
        <ele>721.7</ele>
        <time>2021-08-28T07:42:32Z</time>
      </trkpt>
      <trkpt lat="45.71115" lon="6.08284">
        <ele>721.7</ele>
        <time>2021-08-28T07:42:33Z</time>
      </trkpt>
      <trkpt lat="45.71112" lon="6.08283">
        <ele>721.9</ele>
        <time>2021-08-28T07:42:35Z</time>
      </trkpt>
      <trkpt lat="45.71111" lon="6.08283">
        <ele>722</ele>
        <time>2021-08-28T07:42:36Z</time>
      </trkpt>
      <trkpt lat="45.71107" lon="6.0828">
        <ele>722.2</ele>
        <time>2021-08-28T07:42:37Z</time>
      </trkpt>
      <trkpt lat="45.71105" lon="6.0828">
        <ele>722.3</ele>
        <time>2021-08-28T07:42:38Z</time>
      </trkpt>
      <trkpt lat="45.71103" lon="6.08279">
        <ele>722.5</ele>
        <time>2021-08-28T07:42:39Z</time>
      </trkpt>
      <trkpt lat="45.71101" lon="6.08279">
        <ele>722.6</ele>
        <time>2021-08-28T07:42:41Z</time>
      </trkpt>
      <trkpt lat="45.711" lon="6.08279">
        <ele>722.6</ele>
        <time>2021-08-28T07:42:43Z</time>
      </trkpt>
      <trkpt lat="45.71099" lon="6.08279">
        <ele>722.7</ele>
        <time>2021-08-28T07:42:44Z</time>
      </trkpt>
      <trkpt lat="45.71098" lon="6.08279">
        <ele>722.7</ele>
        <time>2021-08-28T07:42:45Z</time>
      </trkpt>
      <trkpt lat="45.71095" lon="6.08278">
        <ele>722.9</ele>
        <time>2021-08-28T07:42:46Z</time>
      </trkpt>
      <trkpt lat="45.71094" lon="6.08278">
        <ele>723</ele>
        <time>2021-08-28T07:42:47Z</time>
      </trkpt>
      <trkpt lat="45.71091" lon="6.08276">
        <ele>723.2</ele>
        <time>2021-08-28T07:42:48Z</time>
      </trkpt>
      <trkpt lat="45.7109" lon="6.08275">
        <ele>723.3</ele>
        <time>2021-08-28T07:42:49Z</time>
      </trkpt>
      <trkpt lat="45.71087" lon="6.08274">
        <ele>723.4</ele>
        <time>2021-08-28T07:42:50Z</time>
      </trkpt>
      <trkpt lat="45.71086" lon="6.08273">
        <ele>723.5</ele>
        <time>2021-08-28T07:42:51Z</time>
      </trkpt>
      <trkpt lat="45.71083" lon="6.08272">
        <ele>723.7</ele>
        <time>2021-08-28T07:42:52Z</time>
      </trkpt>
      <trkpt lat="45.71081" lon="6.08272">
        <ele>723.7</ele>
        <time>2021-08-28T07:42:53Z</time>
      </trkpt>
      <trkpt lat="45.71079" lon="6.08271">
        <ele>723.9</ele>
        <time>2021-08-28T07:42:54Z</time>
      </trkpt>
      <trkpt lat="45.71078" lon="6.0827">
        <ele>724</ele>
        <time>2021-08-28T07:42:55Z</time>
      </trkpt>
      <trkpt lat="45.71075" lon="6.08268">
        <ele>724.2</ele>
        <time>2021-08-28T07:42:56Z</time>
      </trkpt>
      <trkpt lat="45.71074" lon="6.08268">
        <ele>724.2</ele>
        <time>2021-08-28T07:42:57Z</time>
      </trkpt>
      <trkpt lat="45.71072" lon="6.08267">
        <ele>724.3</ele>
        <time>2021-08-28T07:42:58Z</time>
      </trkpt>
      <trkpt lat="45.7107" lon="6.08266">
        <ele>724.4</ele>
        <time>2021-08-28T07:42:59Z</time>
      </trkpt>
      <trkpt lat="45.71067" lon="6.08264">
        <ele>724.6</ele>
        <time>2021-08-28T07:43:00Z</time>
      </trkpt>
      <trkpt lat="45.71067" lon="6.08263">
        <ele>724.7</ele>
        <time>2021-08-28T07:43:01Z</time>
      </trkpt>
      <trkpt lat="45.71064" lon="6.08261">
        <ele>724.9</ele>
        <time>2021-08-28T07:43:02Z</time>
      </trkpt>
      <trkpt lat="45.71063" lon="6.0826">
        <ele>725</ele>
        <time>2021-08-28T07:43:03Z</time>
      </trkpt>
      <trkpt lat="45.7106" lon="6.08257">
        <ele>725.2</ele>
        <time>2021-08-28T07:43:04Z</time>
      </trkpt>
      <trkpt lat="45.71059" lon="6.08256">
        <ele>725.3</ele>
        <time>2021-08-28T07:43:05Z</time>
      </trkpt>
      <trkpt lat="45.71056" lon="6.08253">
        <ele>725.5</ele>
        <time>2021-08-28T07:43:06Z</time>
      </trkpt>
      <trkpt lat="45.71056" lon="6.08252">
        <ele>725.5</ele>
        <time>2021-08-28T07:43:07Z</time>
      </trkpt>
      <trkpt lat="45.71055" lon="6.0825">
        <ele>725.6</ele>
        <time>2021-08-28T07:43:08Z</time>
      </trkpt>
      <trkpt lat="45.71054" lon="6.08248">
        <ele>725.7</ele>
        <time>2021-08-28T07:43:09Z</time>
      </trkpt>
      <trkpt lat="45.71053" lon="6.08244">
        <ele>725.9</ele>
        <time>2021-08-28T07:43:10Z</time>
      </trkpt>
      <trkpt lat="45.71052" lon="6.08243">
        <ele>726</ele>
        <time>2021-08-28T07:43:11Z</time>
      </trkpt>
      <trkpt lat="45.7105" lon="6.08239">
        <ele>726.2</ele>
        <time>2021-08-28T07:43:12Z</time>
      </trkpt>
      <trkpt lat="45.71048" lon="6.08232">
        <ele>726.4</ele>
        <time>2021-08-28T07:43:14Z</time>
      </trkpt>
      <trkpt lat="45.71047" lon="6.08224">
        <ele>726.7</ele>
        <time>2021-08-28T07:43:15Z</time>
      </trkpt>
      <trkpt lat="45.71045" lon="6.08221">
        <ele>726.8</ele>
        <time>2021-08-28T07:43:16Z</time>
      </trkpt>
      <trkpt lat="45.71043" lon="6.08219">
        <ele>727</ele>
        <time>2021-08-28T07:43:17Z</time>
      </trkpt>
      <trkpt lat="45.71041" lon="6.08217">
        <ele>727</ele>
        <time>2021-08-28T07:43:19Z</time>
      </trkpt>
      <trkpt lat="45.71039" lon="6.08212">
        <ele>727.2</ele>
        <time>2021-08-28T07:43:20Z</time>
      </trkpt>
      <trkpt lat="45.71035" lon="6.08209">
        <ele>727.4</ele>
        <time>2021-08-28T07:43:22Z</time>
      </trkpt>
      <trkpt lat="45.71033" lon="6.08209">
        <ele>727.5</ele>
        <time>2021-08-28T07:43:23Z</time>
      </trkpt>
      <trkpt lat="45.71031" lon="6.08209">
        <ele>727.6</ele>
        <time>2021-08-28T07:43:24Z</time>
      </trkpt>
      <trkpt lat="45.71026" lon="6.08208">
        <ele>727.8</ele>
        <time>2021-08-28T07:43:27Z</time>
      </trkpt>
      <trkpt lat="45.71022" lon="6.08209">
        <ele>728</ele>
        <time>2021-08-28T07:43:29Z</time>
      </trkpt>
      <trkpt lat="45.71019" lon="6.08209">
        <ele>728.1</ele>
        <time>2021-08-28T07:43:30Z</time>
      </trkpt>
      <trkpt lat="45.71014" lon="6.08209">
        <ele>728.2</ele>
        <time>2021-08-28T07:43:32Z</time>
      </trkpt>
      <trkpt lat="45.71009" lon="6.0821">
        <ele>728.4</ele>
        <time>2021-08-28T07:43:33Z</time>
      </trkpt>
      <trkpt lat="45.71003" lon="6.0821">
        <ele>728.4</ele>
        <time>2021-08-28T07:43:36Z</time>
      </trkpt>
      <trkpt lat="45.70997" lon="6.08208">
        <ele>728.5</ele>
        <time>2021-08-28T07:43:38Z</time>
      </trkpt>
      <trkpt lat="45.70993" lon="6.08207">
        <ele>728.6</ele>
        <time>2021-08-28T07:43:39Z</time>
      </trkpt>
      <trkpt lat="45.70988" lon="6.08203">
        <ele>728.6</ele>
        <time>2021-08-28T07:43:41Z</time>
      </trkpt>
      <trkpt lat="45.70983" lon="6.08198">
        <ele>728.5</ele>
        <time>2021-08-28T07:43:43Z</time>
      </trkpt>
      <trkpt lat="45.70976" lon="6.0819">
        <ele>728.5</ele>
        <time>2021-08-28T07:43:45Z</time>
      </trkpt>
      <trkpt lat="45.70971" lon="6.08181">
        <ele>728.4</ele>
        <time>2021-08-28T07:43:47Z</time>
      </trkpt>
      <trkpt lat="45.7097" lon="6.08174">
        <ele>728.4</ele>
        <time>2021-08-28T07:43:48Z</time>
      </trkpt>
      <trkpt lat="45.70967" lon="6.08167">
        <ele>728.4</ele>
        <time>2021-08-28T07:43:49Z</time>
      </trkpt>
      <trkpt lat="45.70965" lon="6.08161">
        <ele>728.4</ele>
        <time>2021-08-28T07:43:50Z</time>
      </trkpt>
      <trkpt lat="45.70961" lon="6.08149">
        <ele>728.5</ele>
        <time>2021-08-28T07:43:52Z</time>
      </trkpt>
      <trkpt lat="45.70959" lon="6.08143">
        <ele>728.5</ele>
        <time>2021-08-28T07:43:53Z</time>
      </trkpt>
      <trkpt lat="45.70952" lon="6.08132">
        <ele>728.6</ele>
        <time>2021-08-28T07:43:55Z</time>
      </trkpt>
      <trkpt lat="45.70949" lon="6.08128">
        <ele>728.6</ele>
        <time>2021-08-28T07:43:56Z</time>
      </trkpt>
      <trkpt lat="45.70944" lon="6.08119">
        <ele>728.7</ele>
        <time>2021-08-28T07:43:58Z</time>
      </trkpt>
      <trkpt lat="45.70941" lon="6.08114">
        <ele>728.8</ele>
        <time>2021-08-28T07:43:59Z</time>
      </trkpt>
      <trkpt lat="45.70937" lon="6.08106">
        <ele>728.8</ele>
        <time>2021-08-28T07:44:01Z</time>
      </trkpt>
      <trkpt lat="45.70932" lon="6.08098">
        <ele>728.8</ele>
        <time>2021-08-28T07:44:02Z</time>
      </trkpt>
      <trkpt lat="45.70928" lon="6.08092">
        <ele>728.8</ele>
        <time>2021-08-28T07:44:03Z</time>
      </trkpt>
      <trkpt lat="45.70925" lon="6.08087">
        <ele>728.7</ele>
        <time>2021-08-28T07:44:05Z</time>
      </trkpt>
      <trkpt lat="45.7092" lon="6.08079">
        <ele>728.6</ele>
        <time>2021-08-28T07:44:06Z</time>
      </trkpt>
      <trkpt lat="45.70917" lon="6.08069">
        <ele>728.4</ele>
        <time>2021-08-28T07:44:09Z</time>
      </trkpt>
      <trkpt lat="45.70916" lon="6.08066">
        <ele>728.3</ele>
        <time>2021-08-28T07:44:10Z</time>
      </trkpt>
      <trkpt lat="45.70916" lon="6.08058">
        <ele>728.1</ele>
        <time>2021-08-28T07:44:11Z</time>
      </trkpt>
      <trkpt lat="45.70915" lon="6.08049">
        <ele>727.8</ele>
        <time>2021-08-28T07:44:12Z</time>
      </trkpt>
      <trkpt lat="45.70914" lon="6.08041">
        <ele>727.5</ele>
        <time>2021-08-28T07:44:13Z</time>
      </trkpt>
      <trkpt lat="45.70913" lon="6.08032">
        <ele>727.2</ele>
        <time>2021-08-28T07:44:14Z</time>
      </trkpt>
      <trkpt lat="45.7091" lon="6.08023">
        <ele>726.9</ele>
        <time>2021-08-28T07:44:15Z</time>
      </trkpt>
      <trkpt lat="45.70904" lon="6.08016">
        <ele>726.6</ele>
        <time>2021-08-28T07:44:16Z</time>
      </trkpt>
      <trkpt lat="45.70897" lon="6.08013">
        <ele>726.1</ele>
        <time>2021-08-28T07:44:17Z</time>
      </trkpt>
      <trkpt lat="45.70889" lon="6.08015">
        <ele>725.6</ele>
        <time>2021-08-28T07:44:18Z</time>
      </trkpt>
      <trkpt lat="45.70882" lon="6.08019">
        <ele>725</ele>
        <time>2021-08-28T07:44:19Z</time>
      </trkpt>
      <trkpt lat="45.70874" lon="6.08022">
        <ele>724.5</ele>
        <time>2021-08-28T07:44:20Z</time>
      </trkpt>
      <trkpt lat="45.70867" lon="6.08026">
        <ele>723.8</ele>
        <time>2021-08-28T07:44:21Z</time>
      </trkpt>
      <trkpt lat="45.70859" lon="6.08029">
        <ele>723.1</ele>
        <time>2021-08-28T07:44:22Z</time>
      </trkpt>
      <trkpt lat="45.70851" lon="6.08032">
        <ele>722.4</ele>
        <time>2021-08-28T07:44:23Z</time>
      </trkpt>
      <trkpt lat="45.70842" lon="6.08034">
        <ele>721.7</ele>
        <time>2021-08-28T07:44:24Z</time>
      </trkpt>
      <trkpt lat="45.70834" lon="6.08038">
        <ele>721.1</ele>
        <time>2021-08-28T07:44:25Z</time>
      </trkpt>
      <trkpt lat="45.70825" lon="6.08041">
        <ele>720.5</ele>
        <time>2021-08-28T07:44:26Z</time>
      </trkpt>
      <trkpt lat="45.70816" lon="6.08045">
        <ele>720</ele>
        <time>2021-08-28T07:44:27Z</time>
      </trkpt>
      <trkpt lat="45.70807" lon="6.08048">
        <ele>719.5</ele>
        <time>2021-08-28T07:44:28Z</time>
      </trkpt>
      <trkpt lat="45.70798" lon="6.08051">
        <ele>718.9</ele>
        <time>2021-08-28T07:44:29Z</time>
      </trkpt>
      <trkpt lat="45.7079" lon="6.08055">
        <ele>718.4</ele>
        <time>2021-08-28T07:44:30Z</time>
      </trkpt>
      <trkpt lat="45.70781" lon="6.08059">
        <ele>718</ele>
        <time>2021-08-28T07:44:31Z</time>
      </trkpt>
      <trkpt lat="45.70772" lon="6.0806">
        <ele>717.6</ele>
        <time>2021-08-28T07:44:32Z</time>
      </trkpt>
      <trkpt lat="45.70764" lon="6.0806">
        <ele>717.2</ele>
        <time>2021-08-28T07:44:33Z</time>
      </trkpt>
      <trkpt lat="45.70755" lon="6.08059">
        <ele>716.9</ele>
        <time>2021-08-28T07:44:34Z</time>
      </trkpt>
      <trkpt lat="45.70746" lon="6.08058">
        <ele>716.6</ele>
        <time>2021-08-28T07:44:35Z</time>
      </trkpt>
      <trkpt lat="45.70738" lon="6.08057">
        <ele>716.2</ele>
        <time>2021-08-28T07:44:36Z</time>
      </trkpt>
      <trkpt lat="45.7073" lon="6.08056">
        <ele>715.9</ele>
        <time>2021-08-28T07:44:37Z</time>
      </trkpt>
      <trkpt lat="45.70722" lon="6.08055">
        <ele>715.6</ele>
        <time>2021-08-28T07:44:38Z</time>
      </trkpt>
      <trkpt lat="45.70715" lon="6.08054">
        <ele>715.4</ele>
        <time>2021-08-28T07:44:39Z</time>
      </trkpt>
      <trkpt lat="45.70707" lon="6.08054">
        <ele>715.1</ele>
        <time>2021-08-28T07:44:40Z</time>
      </trkpt>
      <trkpt lat="45.70699" lon="6.08054">
        <ele>714.9</ele>
        <time>2021-08-28T07:44:41Z</time>
      </trkpt>
      <trkpt lat="45.70692" lon="6.08054">
        <ele>714.7</ele>
        <time>2021-08-28T07:44:42Z</time>
      </trkpt>
      <trkpt lat="45.70684" lon="6.08054">
        <ele>714.6</ele>
        <time>2021-08-28T07:44:43Z</time>
      </trkpt>
      <trkpt lat="45.70677" lon="6.08053">
        <ele>714.4</ele>
        <time>2021-08-28T07:44:44Z</time>
      </trkpt>
      <trkpt lat="45.70669" lon="6.08053">
        <ele>714.3</ele>
        <time>2021-08-28T07:44:45Z</time>
      </trkpt>
      <trkpt lat="45.70662" lon="6.08052">
        <ele>714.2</ele>
        <time>2021-08-28T07:44:46Z</time>
      </trkpt>
      <trkpt lat="45.70654" lon="6.08052">
        <ele>714</ele>
        <time>2021-08-28T07:44:47Z</time>
      </trkpt>
      <trkpt lat="45.70647" lon="6.08052">
        <ele>713.8</ele>
        <time>2021-08-28T07:44:48Z</time>
      </trkpt>
      <trkpt lat="45.70639" lon="6.0805">
        <ele>713.6</ele>
        <time>2021-08-28T07:44:49Z</time>
      </trkpt>
      <trkpt lat="45.70632" lon="6.08046">
        <ele>713.4</ele>
        <time>2021-08-28T07:44:50Z</time>
      </trkpt>
      <trkpt lat="45.70625" lon="6.08041">
        <ele>713.2</ele>
        <time>2021-08-28T07:44:51Z</time>
      </trkpt>
      <trkpt lat="45.70618" lon="6.08036">
        <ele>713</ele>
        <time>2021-08-28T07:44:52Z</time>
      </trkpt>
      <trkpt lat="45.70612" lon="6.08029">
        <ele>712.8</ele>
        <time>2021-08-28T07:44:53Z</time>
      </trkpt>
      <trkpt lat="45.70606" lon="6.08023">
        <ele>712.7</ele>
        <time>2021-08-28T07:44:54Z</time>
      </trkpt>
      <trkpt lat="45.706" lon="6.08017">
        <ele>712.6</ele>
        <time>2021-08-28T07:44:55Z</time>
      </trkpt>
      <trkpt lat="45.70593" lon="6.08011">
        <ele>712.5</ele>
        <time>2021-08-28T07:44:56Z</time>
      </trkpt>
      <trkpt lat="45.70587" lon="6.08005">
        <ele>712.4</ele>
        <time>2021-08-28T07:44:57Z</time>
      </trkpt>
      <trkpt lat="45.70581" lon="6.08">
        <ele>712.4</ele>
        <time>2021-08-28T07:44:58Z</time>
      </trkpt>
      <trkpt lat="45.70575" lon="6.07995">
        <ele>712.4</ele>
        <time>2021-08-28T07:44:59Z</time>
      </trkpt>
      <trkpt lat="45.70569" lon="6.07992">
        <ele>712.5</ele>
        <time>2021-08-28T07:45:00Z</time>
      </trkpt>
      <trkpt lat="45.70562" lon="6.07989">
        <ele>712.5</ele>
        <time>2021-08-28T07:45:01Z</time>
      </trkpt>
      <trkpt lat="45.70556" lon="6.07988">
        <ele>712.5</ele>
        <time>2021-08-28T07:45:02Z</time>
      </trkpt>
      <trkpt lat="45.70549" lon="6.07987">
        <ele>712.6</ele>
        <time>2021-08-28T07:45:03Z</time>
      </trkpt>
      <trkpt lat="45.70543" lon="6.07986">
        <ele>712.6</ele>
        <time>2021-08-28T07:45:04Z</time>
      </trkpt>
      <trkpt lat="45.70537" lon="6.07985">
        <ele>712.7</ele>
        <time>2021-08-28T07:45:05Z</time>
      </trkpt>
      <trkpt lat="45.70531" lon="6.07985">
        <ele>712.8</ele>
        <time>2021-08-28T07:45:06Z</time>
      </trkpt>
      <trkpt lat="45.70525" lon="6.07983">
        <ele>712.9</ele>
        <time>2021-08-28T07:45:07Z</time>
      </trkpt>
      <trkpt lat="45.7052" lon="6.07981">
        <ele>713.1</ele>
        <time>2021-08-28T07:45:08Z</time>
      </trkpt>
      <trkpt lat="45.70514" lon="6.07979">
        <ele>713.2</ele>
        <time>2021-08-28T07:45:09Z</time>
      </trkpt>
      <trkpt lat="45.70509" lon="6.07976">
        <ele>713.3</ele>
        <time>2021-08-28T07:45:10Z</time>
      </trkpt>
      <trkpt lat="45.70503" lon="6.07973">
        <ele>713.4</ele>
        <time>2021-08-28T07:45:11Z</time>
      </trkpt>
      <trkpt lat="45.70499" lon="6.07971">
        <ele>713.5</ele>
        <time>2021-08-28T07:45:12Z</time>
      </trkpt>
      <trkpt lat="45.70494" lon="6.07969">
        <ele>713.6</ele>
        <time>2021-08-28T07:45:13Z</time>
      </trkpt>
      <trkpt lat="45.7049" lon="6.07967">
        <ele>713.7</ele>
        <time>2021-08-28T07:45:14Z</time>
      </trkpt>
      <trkpt lat="45.70485" lon="6.07964">
        <ele>713.8</ele>
        <time>2021-08-28T07:45:15Z</time>
      </trkpt>
      <trkpt lat="45.70481" lon="6.07961">
        <ele>714</ele>
        <time>2021-08-28T07:45:16Z</time>
      </trkpt>
      <trkpt lat="45.70476" lon="6.07958">
        <ele>714.1</ele>
        <time>2021-08-28T07:45:17Z</time>
      </trkpt>
      <trkpt lat="45.70472" lon="6.07955">
        <ele>714.2</ele>
        <time>2021-08-28T07:45:18Z</time>
      </trkpt>
      <trkpt lat="45.70468" lon="6.07953">
        <ele>714.3</ele>
        <time>2021-08-28T07:45:19Z</time>
      </trkpt>
      <trkpt lat="45.70464" lon="6.07951">
        <ele>714.4</ele>
        <time>2021-08-28T07:45:20Z</time>
      </trkpt>
      <trkpt lat="45.7046" lon="6.07949">
        <ele>714.5</ele>
        <time>2021-08-28T07:45:21Z</time>
      </trkpt>
      <trkpt lat="45.70456" lon="6.07947">
        <ele>714.6</ele>
        <time>2021-08-28T07:45:22Z</time>
      </trkpt>
      <trkpt lat="45.70452" lon="6.07944">
        <ele>714.7</ele>
        <time>2021-08-28T07:45:23Z</time>
      </trkpt>
      <trkpt lat="45.70449" lon="6.07942">
        <ele>714.8</ele>
        <time>2021-08-28T07:45:24Z</time>
      </trkpt>
      <trkpt lat="45.70445" lon="6.0794">
        <ele>714.9</ele>
        <time>2021-08-28T07:45:25Z</time>
      </trkpt>
      <trkpt lat="45.70441" lon="6.07937">
        <ele>715</ele>
        <time>2021-08-28T07:45:26Z</time>
      </trkpt>
      <trkpt lat="45.70438" lon="6.07935">
        <ele>715.1</ele>
        <time>2021-08-28T07:45:27Z</time>
      </trkpt>
      <trkpt lat="45.70435" lon="6.07933">
        <ele>715.1</ele>
        <time>2021-08-28T07:45:28Z</time>
      </trkpt>
      <trkpt lat="45.70427" lon="6.07929">
        <ele>715.3</ele>
        <time>2021-08-28T07:45:30Z</time>
      </trkpt>
      <trkpt lat="45.70424" lon="6.07928">
        <ele>715.4</ele>
        <time>2021-08-28T07:45:31Z</time>
      </trkpt>
      <trkpt lat="45.70419" lon="6.07927">
        <ele>715.5</ele>
        <time>2021-08-28T07:45:32Z</time>
      </trkpt>
      <trkpt lat="45.70415" lon="6.07925">
        <ele>715.5</ele>
        <time>2021-08-28T07:45:33Z</time>
      </trkpt>
      <trkpt lat="45.70412" lon="6.07923">
        <ele>715.6</ele>
        <time>2021-08-28T07:45:34Z</time>
      </trkpt>
      <trkpt lat="45.70408" lon="6.07922">
        <ele>715.7</ele>
        <time>2021-08-28T07:45:35Z</time>
      </trkpt>
      <trkpt lat="45.70405" lon="6.0792">
        <ele>715.7</ele>
        <time>2021-08-28T07:45:36Z</time>
      </trkpt>
      <trkpt lat="45.70401" lon="6.07919">
        <ele>715.8</ele>
        <time>2021-08-28T07:45:37Z</time>
      </trkpt>
      <trkpt lat="45.70396" lon="6.07917">
        <ele>715.8</ele>
        <time>2021-08-28T07:45:38Z</time>
      </trkpt>
      <trkpt lat="45.70393" lon="6.07915">
        <ele>715.9</ele>
        <time>2021-08-28T07:45:39Z</time>
      </trkpt>
      <trkpt lat="45.70388" lon="6.07914">
        <ele>716</ele>
        <time>2021-08-28T07:45:40Z</time>
      </trkpt>
      <trkpt lat="45.70385" lon="6.07912">
        <ele>716</ele>
        <time>2021-08-28T07:45:41Z</time>
      </trkpt>
      <trkpt lat="45.7038" lon="6.07911">
        <ele>716.2</ele>
        <time>2021-08-28T07:45:42Z</time>
      </trkpt>
      <trkpt lat="45.70377" lon="6.07909">
        <ele>716.3</ele>
        <time>2021-08-28T07:45:43Z</time>
      </trkpt>
      <trkpt lat="45.70373" lon="6.07907">
        <ele>716.4</ele>
        <time>2021-08-28T07:45:44Z</time>
      </trkpt>
      <trkpt lat="45.7037" lon="6.07906">
        <ele>716.5</ele>
        <time>2021-08-28T07:45:45Z</time>
      </trkpt>
      <trkpt lat="45.70366" lon="6.07904">
        <ele>716.6</ele>
        <time>2021-08-28T07:45:46Z</time>
      </trkpt>
      <trkpt lat="45.70361" lon="6.07902">
        <ele>716.7</ele>
        <time>2021-08-28T07:45:47Z</time>
      </trkpt>
      <trkpt lat="45.70357" lon="6.07901">
        <ele>716.8</ele>
        <time>2021-08-28T07:45:48Z</time>
      </trkpt>
      <trkpt lat="45.70354" lon="6.079">
        <ele>716.8</ele>
        <time>2021-08-28T07:45:49Z</time>
      </trkpt>
      <trkpt lat="45.7035" lon="6.07898">
        <ele>716.9</ele>
        <time>2021-08-28T07:45:50Z</time>
      </trkpt>
      <trkpt lat="45.70346" lon="6.07897">
        <ele>717</ele>
        <time>2021-08-28T07:45:51Z</time>
      </trkpt>
      <trkpt lat="45.70343" lon="6.07895">
        <ele>717.1</ele>
        <time>2021-08-28T07:45:52Z</time>
      </trkpt>
      <trkpt lat="45.70339" lon="6.07893">
        <ele>717.2</ele>
        <time>2021-08-28T07:45:53Z</time>
      </trkpt>
      <trkpt lat="45.70335" lon="6.07891">
        <ele>717.3</ele>
        <time>2021-08-28T07:45:54Z</time>
      </trkpt>
      <trkpt lat="45.70332" lon="6.0789">
        <ele>717.4</ele>
        <time>2021-08-28T07:45:55Z</time>
      </trkpt>
      <trkpt lat="45.70328" lon="6.07887">
        <ele>717.5</ele>
        <time>2021-08-28T07:45:56Z</time>
      </trkpt>
      <trkpt lat="45.70324" lon="6.07886">
        <ele>717.6</ele>
        <time>2021-08-28T07:45:57Z</time>
      </trkpt>
      <trkpt lat="45.70321" lon="6.07884">
        <ele>717.7</ele>
        <time>2021-08-28T07:45:58Z</time>
      </trkpt>
      <trkpt lat="45.70318" lon="6.07882">
        <ele>717.8</ele>
        <time>2021-08-28T07:45:59Z</time>
      </trkpt>
      <trkpt lat="45.70315" lon="6.07881">
        <ele>717.9</ele>
        <time>2021-08-28T07:46:00Z</time>
      </trkpt>
      <trkpt lat="45.70311" lon="6.07879">
        <ele>718</ele>
        <time>2021-08-28T07:46:01Z</time>
      </trkpt>
      <trkpt lat="45.70307" lon="6.07877">
        <ele>718.1</ele>
        <time>2021-08-28T07:46:02Z</time>
      </trkpt>
      <trkpt lat="45.70304" lon="6.07875">
        <ele>718.3</ele>
        <time>2021-08-28T07:46:03Z</time>
      </trkpt>
      <trkpt lat="45.703" lon="6.07873">
        <ele>718.4</ele>
        <time>2021-08-28T07:46:04Z</time>
      </trkpt>
      <trkpt lat="45.70298" lon="6.07871">
        <ele>718.5</ele>
        <time>2021-08-28T07:46:05Z</time>
      </trkpt>
      <trkpt lat="45.70295" lon="6.07869">
        <ele>718.6</ele>
        <time>2021-08-28T07:46:06Z</time>
      </trkpt>
      <trkpt lat="45.70291" lon="6.07867">
        <ele>718.8</ele>
        <time>2021-08-28T07:46:07Z</time>
      </trkpt>
      <trkpt lat="45.70288" lon="6.07866">
        <ele>718.9</ele>
        <time>2021-08-28T07:46:08Z</time>
      </trkpt>
      <trkpt lat="45.70285" lon="6.07864">
        <ele>719</ele>
        <time>2021-08-28T07:46:09Z</time>
      </trkpt>
      <trkpt lat="45.70282" lon="6.07861">
        <ele>719.1</ele>
        <time>2021-08-28T07:46:10Z</time>
      </trkpt>
      <trkpt lat="45.70279" lon="6.07859">
        <ele>719.3</ele>
        <time>2021-08-28T07:46:11Z</time>
      </trkpt>
      <trkpt lat="45.70276" lon="6.07858">
        <ele>719.4</ele>
        <time>2021-08-28T07:46:12Z</time>
      </trkpt>
      <trkpt lat="45.70273" lon="6.07856">
        <ele>719.5</ele>
        <time>2021-08-28T07:46:13Z</time>
      </trkpt>
      <trkpt lat="45.70269" lon="6.07854">
        <ele>719.6</ele>
        <time>2021-08-28T07:46:14Z</time>
      </trkpt>
      <trkpt lat="45.70265" lon="6.07852">
        <ele>719.7</ele>
        <time>2021-08-28T07:46:15Z</time>
      </trkpt>
      <trkpt lat="45.70264" lon="6.07851">
        <ele>719.8</ele>
        <time>2021-08-28T07:46:16Z</time>
      </trkpt>
      <trkpt lat="45.7026" lon="6.07849">
        <ele>719.9</ele>
        <time>2021-08-28T07:46:17Z</time>
      </trkpt>
      <trkpt lat="45.70259" lon="6.07848">
        <ele>720</ele>
        <time>2021-08-28T07:46:18Z</time>
      </trkpt>
      <trkpt lat="45.70256" lon="6.07846">
        <ele>720.1</ele>
        <time>2021-08-28T07:46:19Z</time>
      </trkpt>
      <trkpt lat="45.70253" lon="6.07844">
        <ele>720.2</ele>
        <time>2021-08-28T07:46:20Z</time>
      </trkpt>
      <trkpt lat="45.7025" lon="6.07842">
        <ele>720.3</ele>
        <time>2021-08-28T07:46:21Z</time>
      </trkpt>
      <trkpt lat="45.70247" lon="6.0784">
        <ele>720.4</ele>
        <time>2021-08-28T07:46:22Z</time>
      </trkpt>
      <trkpt lat="45.70245" lon="6.07838">
        <ele>720.5</ele>
        <time>2021-08-28T07:46:23Z</time>
      </trkpt>
      <trkpt lat="45.70242" lon="6.07835">
        <ele>720.6</ele>
        <time>2021-08-28T07:46:24Z</time>
      </trkpt>
      <trkpt lat="45.70239" lon="6.07833">
        <ele>720.7</ele>
        <time>2021-08-28T07:46:25Z</time>
      </trkpt>
      <trkpt lat="45.70235" lon="6.07831">
        <ele>720.8</ele>
        <time>2021-08-28T07:46:26Z</time>
      </trkpt>
      <trkpt lat="45.70233" lon="6.07829">
        <ele>720.9</ele>
        <time>2021-08-28T07:46:27Z</time>
      </trkpt>
      <trkpt lat="45.70229" lon="6.07826">
        <ele>721</ele>
        <time>2021-08-28T07:46:28Z</time>
      </trkpt>
      <trkpt lat="45.70227" lon="6.07824">
        <ele>721.1</ele>
        <time>2021-08-28T07:46:29Z</time>
      </trkpt>
      <trkpt lat="45.70223" lon="6.07821">
        <ele>721.2</ele>
        <time>2021-08-28T07:46:30Z</time>
      </trkpt>
      <trkpt lat="45.70221" lon="6.07819">
        <ele>721.3</ele>
        <time>2021-08-28T07:46:31Z</time>
      </trkpt>
      <trkpt lat="45.70218" lon="6.07817">
        <ele>721.4</ele>
        <time>2021-08-28T07:46:32Z</time>
      </trkpt>
      <trkpt lat="45.70214" lon="6.07814">
        <ele>721.6</ele>
        <time>2021-08-28T07:46:33Z</time>
      </trkpt>
      <trkpt lat="45.7021" lon="6.07811">
        <ele>721.7</ele>
        <time>2021-08-28T07:46:34Z</time>
      </trkpt>
      <trkpt lat="45.70209" lon="6.0781">
        <ele>721.7</ele>
        <time>2021-08-28T07:46:35Z</time>
      </trkpt>
      <trkpt lat="45.70205" lon="6.07807">
        <ele>721.9</ele>
        <time>2021-08-28T07:46:36Z</time>
      </trkpt>
      <trkpt lat="45.70204" lon="6.07806">
        <ele>721.9</ele>
        <time>2021-08-28T07:46:37Z</time>
      </trkpt>
      <trkpt lat="45.70201" lon="6.07804">
        <ele>722</ele>
        <time>2021-08-28T07:46:38Z</time>
      </trkpt>
      <trkpt lat="45.70197" lon="6.07801">
        <ele>722.1</ele>
        <time>2021-08-28T07:46:39Z</time>
      </trkpt>
      <trkpt lat="45.70196" lon="6.078">
        <ele>722.1</ele>
        <time>2021-08-28T07:46:40Z</time>
      </trkpt>
      <trkpt lat="45.70193" lon="6.07798">
        <ele>722.2</ele>
        <time>2021-08-28T07:46:41Z</time>
      </trkpt>
      <trkpt lat="45.70191" lon="6.07795">
        <ele>722.3</ele>
        <time>2021-08-28T07:46:42Z</time>
      </trkpt>
      <trkpt lat="45.70187" lon="6.07792">
        <ele>722.4</ele>
        <time>2021-08-28T07:46:43Z</time>
      </trkpt>
      <trkpt lat="45.70185" lon="6.0779">
        <ele>722.5</ele>
        <time>2021-08-28T07:46:44Z</time>
      </trkpt>
      <trkpt lat="45.70182" lon="6.07788">
        <ele>722.6</ele>
        <time>2021-08-28T07:46:45Z</time>
      </trkpt>
      <trkpt lat="45.70179" lon="6.07786">
        <ele>722.7</ele>
        <time>2021-08-28T07:46:46Z</time>
      </trkpt>
      <trkpt lat="45.70176" lon="6.07784">
        <ele>722.8</ele>
        <time>2021-08-28T07:46:47Z</time>
      </trkpt>
      <trkpt lat="45.70173" lon="6.07782">
        <ele>722.9</ele>
        <time>2021-08-28T07:46:48Z</time>
      </trkpt>
      <trkpt lat="45.7017" lon="6.07779">
        <ele>723.1</ele>
        <time>2021-08-28T07:46:49Z</time>
      </trkpt>
      <trkpt lat="45.70168" lon="6.07778">
        <ele>723.1</ele>
        <time>2021-08-28T07:46:50Z</time>
      </trkpt>
      <trkpt lat="45.70166" lon="6.07776">
        <ele>723.2</ele>
        <time>2021-08-28T07:46:51Z</time>
      </trkpt>
      <trkpt lat="45.70162" lon="6.07773">
        <ele>723.4</ele>
        <time>2021-08-28T07:46:52Z</time>
      </trkpt>
      <trkpt lat="45.70159" lon="6.0777">
        <ele>723.5</ele>
        <time>2021-08-28T07:46:53Z</time>
      </trkpt>
      <trkpt lat="45.70158" lon="6.07769">
        <ele>723.5</ele>
        <time>2021-08-28T07:46:54Z</time>
      </trkpt>
      <trkpt lat="45.70155" lon="6.07767">
        <ele>723.7</ele>
        <time>2021-08-28T07:46:55Z</time>
      </trkpt>
      <trkpt lat="45.70152" lon="6.07765">
        <ele>723.8</ele>
        <time>2021-08-28T07:46:56Z</time>
      </trkpt>
      <trkpt lat="45.7015" lon="6.07762">
        <ele>723.9</ele>
        <time>2021-08-28T07:46:57Z</time>
      </trkpt>
      <trkpt lat="45.70146" lon="6.07759">
        <ele>724</ele>
        <time>2021-08-28T07:46:58Z</time>
      </trkpt>
      <trkpt lat="45.70143" lon="6.07756">
        <ele>724.1</ele>
        <time>2021-08-28T07:46:59Z</time>
      </trkpt>
      <trkpt lat="45.70141" lon="6.07755">
        <ele>724.2</ele>
        <time>2021-08-28T07:47:00Z</time>
      </trkpt>
      <trkpt lat="45.70138" lon="6.07752">
        <ele>724.3</ele>
        <time>2021-08-28T07:47:01Z</time>
      </trkpt>
      <trkpt lat="45.70135" lon="6.07751">
        <ele>724.4</ele>
        <time>2021-08-28T07:47:02Z</time>
      </trkpt>
      <trkpt lat="45.70132" lon="6.07748">
        <ele>724.6</ele>
        <time>2021-08-28T07:47:03Z</time>
      </trkpt>
      <trkpt lat="45.70131" lon="6.07747">
        <ele>724.6</ele>
        <time>2021-08-28T07:47:04Z</time>
      </trkpt>
      <trkpt lat="45.70128" lon="6.07744">
        <ele>724.7</ele>
        <time>2021-08-28T07:47:05Z</time>
      </trkpt>
      <trkpt lat="45.70124" lon="6.07742">
        <ele>724.9</ele>
        <time>2021-08-28T07:47:06Z</time>
      </trkpt>
      <trkpt lat="45.70123" lon="6.07741">
        <ele>724.9</ele>
        <time>2021-08-28T07:47:07Z</time>
      </trkpt>
      <trkpt lat="45.70119" lon="6.07738">
        <ele>725.1</ele>
        <time>2021-08-28T07:47:08Z</time>
      </trkpt>
      <trkpt lat="45.70117" lon="6.07737">
        <ele>725.1</ele>
        <time>2021-08-28T07:47:09Z</time>
      </trkpt>
      <trkpt lat="45.70114" lon="6.07734">
        <ele>725.3</ele>
        <time>2021-08-28T07:47:10Z</time>
      </trkpt>
      <trkpt lat="45.70112" lon="6.07733">
        <ele>725.3</ele>
        <time>2021-08-28T07:47:11Z</time>
      </trkpt>
      <trkpt lat="45.7011" lon="6.07731">
        <ele>725.4</ele>
        <time>2021-08-28T07:47:12Z</time>
      </trkpt>
      <trkpt lat="45.70106" lon="6.07729">
        <ele>725.5</ele>
        <time>2021-08-28T07:47:13Z</time>
      </trkpt>
      <trkpt lat="45.70097" lon="6.07723">
        <ele>725.8</ele>
        <time>2021-08-28T07:47:15Z</time>
      </trkpt>
      <trkpt lat="45.70091" lon="6.0772">
        <ele>726</ele>
        <time>2021-08-28T07:47:17Z</time>
      </trkpt>
      <trkpt lat="45.70086" lon="6.07719">
        <ele>726.1</ele>
        <time>2021-08-28T07:47:18Z</time>
      </trkpt>
      <trkpt lat="45.70083" lon="6.0772">
        <ele>726.2</ele>
        <time>2021-08-28T07:47:19Z</time>
      </trkpt>
      <trkpt lat="45.70077" lon="6.07719">
        <ele>726.4</ele>
        <time>2021-08-28T07:47:22Z</time>
      </trkpt>
      <trkpt lat="45.70073" lon="6.07717">
        <ele>726.5</ele>
        <time>2021-08-28T07:47:23Z</time>
      </trkpt>
      <trkpt lat="45.70068" lon="6.07715">
        <ele>726.7</ele>
        <time>2021-08-28T07:47:24Z</time>
      </trkpt>
      <trkpt lat="45.70064" lon="6.07714">
        <ele>726.8</ele>
        <time>2021-08-28T07:47:26Z</time>
      </trkpt>
      <trkpt lat="45.70058" lon="6.07713">
        <ele>727.1</ele>
        <time>2021-08-28T07:47:28Z</time>
      </trkpt>
      <trkpt lat="45.70051" lon="6.0771">
        <ele>727.4</ele>
        <time>2021-08-28T07:47:31Z</time>
      </trkpt>
      <trkpt lat="45.70047" lon="6.07709">
        <ele>727.5</ele>
        <time>2021-08-28T07:47:32Z</time>
      </trkpt>
      <trkpt lat="45.70041" lon="6.07707">
        <ele>727.8</ele>
        <time>2021-08-28T07:47:34Z</time>
      </trkpt>
      <trkpt lat="45.70039" lon="6.07706">
        <ele>727.9</ele>
        <time>2021-08-28T07:47:35Z</time>
      </trkpt>
      <trkpt lat="45.70036" lon="6.07704">
        <ele>728</ele>
        <time>2021-08-28T07:47:36Z</time>
      </trkpt>
      <trkpt lat="45.70031" lon="6.07701">
        <ele>728.2</ele>
        <time>2021-08-28T07:47:38Z</time>
      </trkpt>
      <trkpt lat="45.70028" lon="6.07699">
        <ele>728.3</ele>
        <time>2021-08-28T07:47:39Z</time>
      </trkpt>
      <trkpt lat="45.70024" lon="6.07697">
        <ele>728.5</ele>
        <time>2021-08-28T07:47:40Z</time>
      </trkpt>
      <trkpt lat="45.70022" lon="6.07696">
        <ele>728.5</ele>
        <time>2021-08-28T07:47:41Z</time>
      </trkpt>
      <trkpt lat="45.70017" lon="6.07693">
        <ele>728.7</ele>
        <time>2021-08-28T07:47:43Z</time>
      </trkpt>
      <trkpt lat="45.70011" lon="6.0769">
        <ele>729</ele>
        <time>2021-08-28T07:47:45Z</time>
      </trkpt>
      <trkpt lat="45.70005" lon="6.07687">
        <ele>729.2</ele>
        <time>2021-08-28T07:47:47Z</time>
      </trkpt>
      <trkpt lat="45.70003" lon="6.07686">
        <ele>729.3</ele>
        <time>2021-08-28T07:47:48Z</time>
      </trkpt>
      <trkpt lat="45.69997" lon="6.07682">
        <ele>729.5</ele>
        <time>2021-08-28T07:47:50Z</time>
      </trkpt>
      <trkpt lat="45.69991" lon="6.07679">
        <ele>729.7</ele>
        <time>2021-08-28T07:47:51Z</time>
      </trkpt>
      <trkpt lat="45.69988" lon="6.07677">
        <ele>729.8</ele>
        <time>2021-08-28T07:47:53Z</time>
      </trkpt>
      <trkpt lat="45.69985" lon="6.07676">
        <ele>729.9</ele>
        <time>2021-08-28T07:47:54Z</time>
      </trkpt>
      <trkpt lat="45.6998" lon="6.07673">
        <ele>730.1</ele>
        <time>2021-08-28T07:47:55Z</time>
      </trkpt>
      <trkpt lat="45.69974" lon="6.0767">
        <ele>730.3</ele>
        <time>2021-08-28T07:47:57Z</time>
      </trkpt>
      <trkpt lat="45.69971" lon="6.07668">
        <ele>730.4</ele>
        <time>2021-08-28T07:47:58Z</time>
      </trkpt>
      <trkpt lat="45.69968" lon="6.07667">
        <ele>730.5</ele>
        <time>2021-08-28T07:47:59Z</time>
      </trkpt>
      <trkpt lat="45.69965" lon="6.07664">
        <ele>730.6</ele>
        <time>2021-08-28T07:48:00Z</time>
      </trkpt>
      <trkpt lat="45.69961" lon="6.07661">
        <ele>730.8</ele>
        <time>2021-08-28T07:48:02Z</time>
      </trkpt>
      <trkpt lat="45.69958" lon="6.07659">
        <ele>730.9</ele>
        <time>2021-08-28T07:48:03Z</time>
      </trkpt>
      <trkpt lat="45.69953" lon="6.07658">
        <ele>731</ele>
        <time>2021-08-28T07:48:05Z</time>
      </trkpt>
      <trkpt lat="45.69949" lon="6.07656">
        <ele>731</ele>
        <time>2021-08-28T07:48:06Z</time>
      </trkpt>
      <trkpt lat="45.69946" lon="6.07654">
        <ele>731</ele>
        <time>2021-08-28T07:48:08Z</time>
      </trkpt>
      <trkpt lat="45.69943" lon="6.0765">
        <ele>731.1</ele>
        <time>2021-08-28T07:48:09Z</time>
      </trkpt>
      <trkpt lat="45.69939" lon="6.07647">
        <ele>731</ele>
        <time>2021-08-28T07:48:10Z</time>
      </trkpt>
      <trkpt lat="45.69935" lon="6.07643">
        <ele>731</ele>
        <time>2021-08-28T07:48:11Z</time>
      </trkpt>
      <trkpt lat="45.6993" lon="6.07635">
        <ele>730.9</ele>
        <time>2021-08-28T07:48:13Z</time>
      </trkpt>
      <trkpt lat="45.69928" lon="6.07629">
        <ele>730.7</ele>
        <time>2021-08-28T07:48:14Z</time>
      </trkpt>
      <trkpt lat="45.69924" lon="6.07616">
        <ele>730.3</ele>
        <time>2021-08-28T07:48:15Z</time>
      </trkpt>
      <trkpt lat="45.69925" lon="6.07606">
        <ele>729.9</ele>
        <time>2021-08-28T07:48:18Z</time>
      </trkpt>
      <trkpt lat="45.69923" lon="6.07597">
        <ele>729.5</ele>
        <time>2021-08-28T07:48:19Z</time>
      </trkpt>
      <trkpt lat="45.69921" lon="6.07589">
        <ele>729.1</ele>
        <time>2021-08-28T07:48:20Z</time>
      </trkpt>
      <trkpt lat="45.69918" lon="6.07579">
        <ele>728.6</ele>
        <time>2021-08-28T07:48:21Z</time>
      </trkpt>
      <trkpt lat="45.69915" lon="6.0757">
        <ele>728.1</ele>
        <time>2021-08-28T07:48:22Z</time>
      </trkpt>
      <trkpt lat="45.69913" lon="6.07559">
        <ele>727.5</ele>
        <time>2021-08-28T07:48:23Z</time>
      </trkpt>
      <trkpt lat="45.6991" lon="6.07548">
        <ele>726.9</ele>
        <time>2021-08-28T07:48:24Z</time>
      </trkpt>
      <trkpt lat="45.69907" lon="6.07537">
        <ele>726.3</ele>
        <time>2021-08-28T07:48:25Z</time>
      </trkpt>
      <trkpt lat="45.69904" lon="6.07526">
        <ele>725.7</ele>
        <time>2021-08-28T07:48:26Z</time>
      </trkpt>
      <trkpt lat="45.69901" lon="6.07515">
        <ele>725</ele>
        <time>2021-08-28T07:48:27Z</time>
      </trkpt>
      <trkpt lat="45.69899" lon="6.07502">
        <ele>724.3</ele>
        <time>2021-08-28T07:48:28Z</time>
      </trkpt>
      <trkpt lat="45.69896" lon="6.07491">
        <ele>723.6</ele>
        <time>2021-08-28T07:48:29Z</time>
      </trkpt>
      <trkpt lat="45.69892" lon="6.07482">
        <ele>722.9</ele>
        <time>2021-08-28T07:48:30Z</time>
      </trkpt>
      <trkpt lat="45.69885" lon="6.07477">
        <ele>721.9</ele>
        <time>2021-08-28T07:48:31Z</time>
      </trkpt>
      <trkpt lat="45.69875" lon="6.07474">
        <ele>720.9</ele>
        <time>2021-08-28T07:48:32Z</time>
      </trkpt>
      <trkpt lat="45.69865" lon="6.07474">
        <ele>719.9</ele>
        <time>2021-08-28T07:48:33Z</time>
      </trkpt>
      <trkpt lat="45.69856" lon="6.07476">
        <ele>719</ele>
        <time>2021-08-28T07:48:34Z</time>
      </trkpt>
      <trkpt lat="45.69846" lon="6.07477">
        <ele>718.4</ele>
        <time>2021-08-28T07:48:35Z</time>
      </trkpt>
      <trkpt lat="45.69837" lon="6.07478">
        <ele>718</ele>
        <time>2021-08-28T07:48:36Z</time>
      </trkpt>
      <trkpt lat="45.69828" lon="6.07479">
        <ele>717.6</ele>
        <time>2021-08-28T07:48:37Z</time>
      </trkpt>
      <trkpt lat="45.69819" lon="6.07479">
        <ele>717.4</ele>
        <time>2021-08-28T07:48:38Z</time>
      </trkpt>
      <trkpt lat="45.69811" lon="6.07479">
        <ele>717.1</ele>
        <time>2021-08-28T07:48:39Z</time>
      </trkpt>
      <trkpt lat="45.69802" lon="6.07478">
        <ele>717</ele>
        <time>2021-08-28T07:48:40Z</time>
      </trkpt>
      <trkpt lat="45.69794" lon="6.07478">
        <ele>716.9</ele>
        <time>2021-08-28T07:48:41Z</time>
      </trkpt>
      <trkpt lat="45.69786" lon="6.07476">
        <ele>716.9</ele>
        <time>2021-08-28T07:48:42Z</time>
      </trkpt>
      <trkpt lat="45.69778" lon="6.07475">
        <ele>717</ele>
        <time>2021-08-28T07:48:43Z</time>
      </trkpt>
      <trkpt lat="45.69771" lon="6.07472">
        <ele>717.1</ele>
        <time>2021-08-28T07:48:44Z</time>
      </trkpt>
      <trkpt lat="45.69765" lon="6.07469">
        <ele>717.2</ele>
        <time>2021-08-28T07:48:45Z</time>
      </trkpt>
      <trkpt lat="45.6976" lon="6.07465">
        <ele>717.3</ele>
        <time>2021-08-28T07:48:46Z</time>
      </trkpt>
      <trkpt lat="45.69755" lon="6.07461">
        <ele>717.4</ele>
        <time>2021-08-28T07:48:47Z</time>
      </trkpt>
      <trkpt lat="45.6975" lon="6.07455">
        <ele>717.5</ele>
        <time>2021-08-28T07:48:48Z</time>
      </trkpt>
      <trkpt lat="45.69746" lon="6.07449">
        <ele>717.5</ele>
        <time>2021-08-28T07:48:49Z</time>
      </trkpt>
      <trkpt lat="45.69742" lon="6.07443">
        <ele>717.6</ele>
        <time>2021-08-28T07:48:50Z</time>
      </trkpt>
      <trkpt lat="45.69738" lon="6.07437">
        <ele>717.8</ele>
        <time>2021-08-28T07:48:51Z</time>
      </trkpt>
      <trkpt lat="45.69734" lon="6.07431">
        <ele>717.9</ele>
        <time>2021-08-28T07:48:52Z</time>
      </trkpt>
      <trkpt lat="45.69731" lon="6.07426">
        <ele>718</ele>
        <time>2021-08-28T07:48:53Z</time>
      </trkpt>
      <trkpt lat="45.69727" lon="6.07421">
        <ele>718.1</ele>
        <time>2021-08-28T07:48:54Z</time>
      </trkpt>
      <trkpt lat="45.69724" lon="6.07416">
        <ele>718.2</ele>
        <time>2021-08-28T07:48:55Z</time>
      </trkpt>
      <trkpt lat="45.6972" lon="6.07411">
        <ele>718.3</ele>
        <time>2021-08-28T07:48:56Z</time>
      </trkpt>
      <trkpt lat="45.69717" lon="6.07406">
        <ele>718.4</ele>
        <time>2021-08-28T07:48:57Z</time>
      </trkpt>
      <trkpt lat="45.69713" lon="6.07401">
        <ele>718.4</ele>
        <time>2021-08-28T07:48:58Z</time>
      </trkpt>
      <trkpt lat="45.6971" lon="6.07396">
        <ele>718.5</ele>
        <time>2021-08-28T07:48:59Z</time>
      </trkpt>
      <trkpt lat="45.69706" lon="6.07391">
        <ele>718.5</ele>
        <time>2021-08-28T07:49:00Z</time>
      </trkpt>
      <trkpt lat="45.69702" lon="6.07385">
        <ele>718.6</ele>
        <time>2021-08-28T07:49:01Z</time>
      </trkpt>
      <trkpt lat="45.69699" lon="6.0738">
        <ele>718.6</ele>
        <time>2021-08-28T07:49:02Z</time>
      </trkpt>
      <trkpt lat="45.69695" lon="6.07374">
        <ele>718.6</ele>
        <time>2021-08-28T07:49:03Z</time>
      </trkpt>
      <trkpt lat="45.69691" lon="6.07369">
        <ele>718.7</ele>
        <time>2021-08-28T07:49:04Z</time>
      </trkpt>
      <trkpt lat="45.69688" lon="6.07363">
        <ele>718.8</ele>
        <time>2021-08-28T07:49:05Z</time>
      </trkpt>
      <trkpt lat="45.69685" lon="6.07358">
        <ele>718.9</ele>
        <time>2021-08-28T07:49:06Z</time>
      </trkpt>
      <trkpt lat="45.69682" lon="6.07353">
        <ele>719</ele>
        <time>2021-08-28T07:49:07Z</time>
      </trkpt>
      <trkpt lat="45.69679" lon="6.07349">
        <ele>719.1</ele>
        <time>2021-08-28T07:49:08Z</time>
      </trkpt>
      <trkpt lat="45.69676" lon="6.07344">
        <ele>719.2</ele>
        <time>2021-08-28T07:49:09Z</time>
      </trkpt>
      <trkpt lat="45.69672" lon="6.0734">
        <ele>719.3</ele>
        <time>2021-08-28T07:49:10Z</time>
      </trkpt>
      <trkpt lat="45.69669" lon="6.07335">
        <ele>719.4</ele>
        <time>2021-08-28T07:49:11Z</time>
      </trkpt>
      <trkpt lat="45.69666" lon="6.07331">
        <ele>719.5</ele>
        <time>2021-08-28T07:49:12Z</time>
      </trkpt>
      <trkpt lat="45.69663" lon="6.07326">
        <ele>719.6</ele>
        <time>2021-08-28T07:49:13Z</time>
      </trkpt>
      <trkpt lat="45.6966" lon="6.07323">
        <ele>719.6</ele>
        <time>2021-08-28T07:49:14Z</time>
      </trkpt>
      <trkpt lat="45.69656" lon="6.07317">
        <ele>719.8</ele>
        <time>2021-08-28T07:49:15Z</time>
      </trkpt>
      <trkpt lat="45.69653" lon="6.07313">
        <ele>719.9</ele>
        <time>2021-08-28T07:49:16Z</time>
      </trkpt>
      <trkpt lat="45.6965" lon="6.07309">
        <ele>720</ele>
        <time>2021-08-28T07:49:17Z</time>
      </trkpt>
      <trkpt lat="45.69642" lon="6.073">
        <ele>720.3</ele>
        <time>2021-08-28T07:49:18Z</time>
      </trkpt>
      <trkpt lat="45.69636" lon="6.07292">
        <ele>720.7</ele>
        <time>2021-08-28T07:49:20Z</time>
      </trkpt>
      <trkpt lat="45.69633" lon="6.07288">
        <ele>720.9</ele>
        <time>2021-08-28T07:49:21Z</time>
      </trkpt>
      <trkpt lat="45.69627" lon="6.07279">
        <ele>721.3</ele>
        <time>2021-08-28T07:49:23Z</time>
      </trkpt>
      <trkpt lat="45.69625" lon="6.07276">
        <ele>721.5</ele>
        <time>2021-08-28T07:49:24Z</time>
      </trkpt>
      <trkpt lat="45.69622" lon="6.07273">
        <ele>721.6</ele>
        <time>2021-08-28T07:49:25Z</time>
      </trkpt>
      <trkpt lat="45.69618" lon="6.07268">
        <ele>721.9</ele>
        <time>2021-08-28T07:49:26Z</time>
      </trkpt>
      <trkpt lat="45.69615" lon="6.07264">
        <ele>722.2</ele>
        <time>2021-08-28T07:49:27Z</time>
      </trkpt>
      <trkpt lat="45.69614" lon="6.07263">
        <ele>722.2</ele>
        <time>2021-08-28T07:49:28Z</time>
      </trkpt>
      <trkpt lat="45.69612" lon="6.07261">
        <ele>722.4</ele>
        <time>2021-08-28T07:49:30Z</time>
      </trkpt>
      <trkpt lat="45.69606" lon="6.07253">
        <ele>723</ele>
        <time>2021-08-28T07:49:33Z</time>
      </trkpt>
      <trkpt lat="45.69602" lon="6.07247">
        <ele>723.4</ele>
        <time>2021-08-28T07:49:35Z</time>
      </trkpt>
      <trkpt lat="45.696" lon="6.07242">
        <ele>723.8</ele>
        <time>2021-08-28T07:49:36Z</time>
      </trkpt>
      <trkpt lat="45.69596" lon="6.07238">
        <ele>724.1</ele>
        <time>2021-08-28T07:49:38Z</time>
      </trkpt>
      <trkpt lat="45.69591" lon="6.07235">
        <ele>724.5</ele>
        <time>2021-08-28T07:49:40Z</time>
      </trkpt>
      <trkpt lat="45.69589" lon="6.07231">
        <ele>724.8</ele>
        <time>2021-08-28T07:49:42Z</time>
      </trkpt>
      <trkpt lat="45.69587" lon="6.07227">
        <ele>725</ele>
        <time>2021-08-28T07:49:45Z</time>
      </trkpt>
      <trkpt lat="45.69582" lon="6.07223">
        <ele>725.5</ele>
        <time>2021-08-28T07:49:47Z</time>
      </trkpt>
      <trkpt lat="45.69578" lon="6.07219">
        <ele>725.9</ele>
        <time>2021-08-28T07:49:49Z</time>
      </trkpt>
      <trkpt lat="45.69575" lon="6.07214">
        <ele>726.3</ele>
        <time>2021-08-28T07:49:52Z</time>
      </trkpt>
      <trkpt lat="45.69572" lon="6.07213">
        <ele>726.6</ele>
        <time>2021-08-28T07:49:53Z</time>
      </trkpt>
      <trkpt lat="45.69571" lon="6.07212">
        <ele>726.8</ele>
        <time>2021-08-28T07:49:55Z</time>
      </trkpt>
      <trkpt lat="45.69569" lon="6.0721">
        <ele>727</ele>
        <time>2021-08-28T07:49:56Z</time>
      </trkpt>
      <trkpt lat="45.69567" lon="6.07208">
        <ele>727.2</ele>
        <time>2021-08-28T07:49:57Z</time>
      </trkpt>
      <trkpt lat="45.69565" lon="6.07206">
        <ele>727.4</ele>
        <time>2021-08-28T07:49:58Z</time>
      </trkpt>
      <trkpt lat="45.69563" lon="6.07206">
        <ele>727.6</ele>
        <time>2021-08-28T07:50:00Z</time>
      </trkpt>
      <trkpt lat="45.6956" lon="6.07204">
        <ele>727.9</ele>
        <time>2021-08-28T07:50:01Z</time>
      </trkpt>
      <trkpt lat="45.69555" lon="6.07203">
        <ele>728.3</ele>
        <time>2021-08-28T07:50:04Z</time>
      </trkpt>
      <trkpt lat="45.69553" lon="6.07201">
        <ele>728.5</ele>
        <time>2021-08-28T07:50:05Z</time>
      </trkpt>
      <trkpt lat="45.6955" lon="6.07198">
        <ele>728.8</ele>
        <time>2021-08-28T07:50:07Z</time>
      </trkpt>
      <trkpt lat="45.69548" lon="6.07197">
        <ele>729.1</ele>
        <time>2021-08-28T07:50:08Z</time>
      </trkpt>
      <trkpt lat="45.69543" lon="6.07192">
        <ele>729.5</ele>
        <time>2021-08-28T07:50:11Z</time>
      </trkpt>
      <trkpt lat="45.69541" lon="6.07189">
        <ele>729.8</ele>
        <time>2021-08-28T07:50:12Z</time>
      </trkpt>
      <trkpt lat="45.6954" lon="6.07188">
        <ele>729.9</ele>
        <time>2021-08-28T07:50:13Z</time>
      </trkpt>
      <trkpt lat="45.69536" lon="6.07185">
        <ele>730.3</ele>
        <time>2021-08-28T07:50:15Z</time>
      </trkpt>
      <trkpt lat="45.69532" lon="6.07183">
        <ele>730.7</ele>
        <time>2021-08-28T07:50:18Z</time>
      </trkpt>
      <trkpt lat="45.69528" lon="6.07178">
        <ele>731.1</ele>
        <time>2021-08-28T07:50:21Z</time>
      </trkpt>
      <trkpt lat="45.69525" lon="6.07176">
        <ele>731.3</ele>
        <time>2021-08-28T07:50:23Z</time>
      </trkpt>
      <trkpt lat="45.69521" lon="6.07172">
        <ele>731.7</ele>
        <time>2021-08-28T07:50:25Z</time>
      </trkpt>
      <trkpt lat="45.69518" lon="6.07168">
        <ele>732</ele>
        <time>2021-08-28T07:50:26Z</time>
      </trkpt>
      <trkpt lat="45.69515" lon="6.07165">
        <ele>732.3</ele>
        <time>2021-08-28T07:50:28Z</time>
      </trkpt>
      <trkpt lat="45.69513" lon="6.07164">
        <ele>732.5</ele>
        <time>2021-08-28T07:50:29Z</time>
      </trkpt>
      <trkpt lat="45.6951" lon="6.07161">
        <ele>732.7</ele>
        <time>2021-08-28T07:50:31Z</time>
      </trkpt>
      <trkpt lat="45.69509" lon="6.07161">
        <ele>732.8</ele>
        <time>2021-08-28T07:50:32Z</time>
      </trkpt>
      <trkpt lat="45.69506" lon="6.07158">
        <ele>733.1</ele>
        <time>2021-08-28T07:50:33Z</time>
      </trkpt>
      <trkpt lat="45.69504" lon="6.07156">
        <ele>733.2</ele>
        <time>2021-08-28T07:50:34Z</time>
      </trkpt>
      <trkpt lat="45.69501" lon="6.07154">
        <ele>733.5</ele>
        <time>2021-08-28T07:50:36Z</time>
      </trkpt>
      <trkpt lat="45.695" lon="6.07154">
        <ele>733.5</ele>
        <time>2021-08-28T07:50:37Z</time>
      </trkpt>
      <trkpt lat="45.69497" lon="6.07151">
        <ele>733.8</ele>
        <time>2021-08-28T07:50:38Z</time>
      </trkpt>
      <trkpt lat="45.69495" lon="6.0715">
        <ele>733.9</ele>
        <time>2021-08-28T07:50:39Z</time>
      </trkpt>
      <trkpt lat="45.69493" lon="6.07148">
        <ele>734.2</ele>
        <time>2021-08-28T07:50:41Z</time>
      </trkpt>
      <trkpt lat="45.69491" lon="6.07145">
        <ele>734.4</ele>
        <time>2021-08-28T07:50:42Z</time>
      </trkpt>
      <trkpt lat="45.69489" lon="6.07143">
        <ele>734.5</ele>
        <time>2021-08-28T07:50:44Z</time>
      </trkpt>
      <trkpt lat="45.69486" lon="6.07138">
        <ele>734.9</ele>
        <time>2021-08-28T07:50:46Z</time>
      </trkpt>
      <trkpt lat="45.69484" lon="6.07137">
        <ele>735</ele>
        <time>2021-08-28T07:50:47Z</time>
      </trkpt>
      <trkpt lat="45.69481" lon="6.07133">
        <ele>735.3</ele>
        <time>2021-08-28T07:50:49Z</time>
      </trkpt>
      <trkpt lat="45.69478" lon="6.07129">
        <ele>735.6</ele>
        <time>2021-08-28T07:50:51Z</time>
      </trkpt>
      <trkpt lat="45.69474" lon="6.07126">
        <ele>736</ele>
        <time>2021-08-28T07:50:53Z</time>
      </trkpt>
      <trkpt lat="45.69472" lon="6.07125">
        <ele>736.1</ele>
        <time>2021-08-28T07:50:54Z</time>
      </trkpt>
      <trkpt lat="45.69469" lon="6.07121">
        <ele>736.4</ele>
        <time>2021-08-28T07:50:56Z</time>
      </trkpt>
      <trkpt lat="45.69466" lon="6.07117">
        <ele>736.7</ele>
        <time>2021-08-28T07:50:57Z</time>
      </trkpt>
      <trkpt lat="45.69464" lon="6.07114">
        <ele>736.9</ele>
        <time>2021-08-28T07:51:00Z</time>
      </trkpt>
      <trkpt lat="45.69464" lon="6.07112">
        <ele>737</ele>
        <time>2021-08-28T07:51:01Z</time>
      </trkpt>
      <trkpt lat="45.69461" lon="6.07109">
        <ele>737.3</ele>
        <time>2021-08-28T07:51:02Z</time>
      </trkpt>
      <trkpt lat="45.6946" lon="6.07107">
        <ele>737.4</ele>
        <time>2021-08-28T07:51:03Z</time>
      </trkpt>
      <trkpt lat="45.69456" lon="6.07104">
        <ele>737.7</ele>
        <time>2021-08-28T07:51:05Z</time>
      </trkpt>
      <trkpt lat="45.69453" lon="6.07099">
        <ele>738.1</ele>
        <time>2021-08-28T07:51:07Z</time>
      </trkpt>
      <trkpt lat="45.69452" lon="6.07097">
        <ele>738.2</ele>
        <time>2021-08-28T07:51:08Z</time>
      </trkpt>
      <trkpt lat="45.69451" lon="6.07095">
        <ele>738.3</ele>
        <time>2021-08-28T07:51:09Z</time>
      </trkpt>
      <trkpt lat="45.69449" lon="6.07092">
        <ele>738.5</ele>
        <time>2021-08-28T07:51:10Z</time>
      </trkpt>
      <trkpt lat="45.69446" lon="6.07086">
        <ele>738.9</ele>
        <time>2021-08-28T07:51:13Z</time>
      </trkpt>
      <trkpt lat="45.69444" lon="6.07083">
        <ele>739.2</ele>
        <time>2021-08-28T07:51:15Z</time>
      </trkpt>
      <trkpt lat="45.69439" lon="6.07077">
        <ele>739.6</ele>
        <time>2021-08-28T07:51:18Z</time>
      </trkpt>
      <trkpt lat="45.69437" lon="6.07074">
        <ele>739.8</ele>
        <time>2021-08-28T07:51:19Z</time>
      </trkpt>
      <trkpt lat="45.69435" lon="6.07069">
        <ele>740.1</ele>
        <time>2021-08-28T07:51:21Z</time>
      </trkpt>
      <trkpt lat="45.69434" lon="6.07068">
        <ele>740.2</ele>
        <time>2021-08-28T07:51:22Z</time>
      </trkpt>
      <trkpt lat="45.69432" lon="6.07063">
        <ele>740.4</ele>
        <time>2021-08-28T07:51:24Z</time>
      </trkpt>
      <trkpt lat="45.69429" lon="6.07059">
        <ele>740.7</ele>
        <time>2021-08-28T07:51:26Z</time>
      </trkpt>
      <trkpt lat="45.69426" lon="6.07055">
        <ele>740.9</ele>
        <time>2021-08-28T07:51:27Z</time>
      </trkpt>
      <trkpt lat="45.69424" lon="6.07052">
        <ele>741.1</ele>
        <time>2021-08-28T07:51:29Z</time>
      </trkpt>
      <trkpt lat="45.69417" lon="6.07049">
        <ele>741.5</ele>
        <time>2021-08-28T07:51:31Z</time>
      </trkpt>
      <trkpt lat="45.69414" lon="6.07047">
        <ele>741.7</ele>
        <time>2021-08-28T07:51:33Z</time>
      </trkpt>
      <trkpt lat="45.6941" lon="6.07045">
        <ele>742</ele>
        <time>2021-08-28T07:51:34Z</time>
      </trkpt>
      <trkpt lat="45.69408" lon="6.07045">
        <ele>742.1</ele>
        <time>2021-08-28T07:51:35Z</time>
      </trkpt>
      <trkpt lat="45.69405" lon="6.07046">
        <ele>742.3</ele>
        <time>2021-08-28T07:51:37Z</time>
      </trkpt>
      <trkpt lat="45.69399" lon="6.07046">
        <ele>742.8</ele>
        <time>2021-08-28T07:51:40Z</time>
      </trkpt>
      <trkpt lat="45.69393" lon="6.07047">
        <ele>743.2</ele>
        <time>2021-08-28T07:51:42Z</time>
      </trkpt>
      <trkpt lat="45.69388" lon="6.07046">
        <ele>743.5</ele>
        <time>2021-08-28T07:51:45Z</time>
      </trkpt>
      <trkpt lat="45.69385" lon="6.07047">
        <ele>743.7</ele>
        <time>2021-08-28T07:51:46Z</time>
      </trkpt>
      <trkpt lat="45.69383" lon="6.07047">
        <ele>743.9</ele>
        <time>2021-08-28T07:51:47Z</time>
      </trkpt>
      <trkpt lat="45.69376" lon="6.07047">
        <ele>744.3</ele>
        <time>2021-08-28T07:51:50Z</time>
      </trkpt>
      <trkpt lat="45.69372" lon="6.07047">
        <ele>744.6</ele>
        <time>2021-08-28T07:51:53Z</time>
      </trkpt>
      <trkpt lat="45.69368" lon="6.07046">
        <ele>744.9</ele>
        <time>2021-08-28T07:51:55Z</time>
      </trkpt>
      <trkpt lat="45.69365" lon="6.07045">
        <ele>745.2</ele>
        <time>2021-08-28T07:51:57Z</time>
      </trkpt>
      <trkpt lat="45.69362" lon="6.07043">
        <ele>745.4</ele>
        <time>2021-08-28T07:51:58Z</time>
      </trkpt>
      <trkpt lat="45.69358" lon="6.07043">
        <ele>745.7</ele>
        <time>2021-08-28T07:51:59Z</time>
      </trkpt>
      <trkpt lat="45.69351" lon="6.07036">
        <ele>746.2</ele>
        <time>2021-08-28T07:52:02Z</time>
      </trkpt>
      <trkpt lat="45.6935" lon="6.07034">
        <ele>746.3</ele>
        <time>2021-08-28T07:52:03Z</time>
      </trkpt>
      <trkpt lat="45.69346" lon="6.07029">
        <ele>746.6</ele>
        <time>2021-08-28T07:52:06Z</time>
      </trkpt>
      <trkpt lat="45.69344" lon="6.07027">
        <ele>746.7</ele>
        <time>2021-08-28T07:52:07Z</time>
      </trkpt>
      <trkpt lat="45.69341" lon="6.07023">
        <ele>747</ele>
        <time>2021-08-28T07:52:09Z</time>
      </trkpt>
      <trkpt lat="45.6934" lon="6.0702">
        <ele>747.2</ele>
        <time>2021-08-28T07:52:10Z</time>
      </trkpt>
      <trkpt lat="45.69336" lon="6.07016">
        <ele>747.5</ele>
        <time>2021-08-28T07:52:12Z</time>
      </trkpt>
      <trkpt lat="45.69333" lon="6.07011">
        <ele>747.8</ele>
        <time>2021-08-28T07:52:14Z</time>
      </trkpt>
      <trkpt lat="45.69328" lon="6.07007">
        <ele>748.1</ele>
        <time>2021-08-28T07:52:16Z</time>
      </trkpt>
      <trkpt lat="45.69326" lon="6.07003">
        <ele>748.3</ele>
        <time>2021-08-28T07:52:18Z</time>
      </trkpt>
      <trkpt lat="45.69325" lon="6.07002">
        <ele>748.4</ele>
        <time>2021-08-28T07:52:19Z</time>
      </trkpt>
      <trkpt lat="45.69321" lon="6.06999">
        <ele>748.7</ele>
        <time>2021-08-28T07:52:21Z</time>
      </trkpt>
      <trkpt lat="45.69318" lon="6.06995">
        <ele>749</ele>
        <time>2021-08-28T07:52:23Z</time>
      </trkpt>
      <trkpt lat="45.69315" lon="6.0699">
        <ele>749.3</ele>
        <time>2021-08-28T07:52:25Z</time>
      </trkpt>
      <trkpt lat="45.6931" lon="6.06986">
        <ele>749.6</ele>
        <time>2021-08-28T07:52:28Z</time>
      </trkpt>
      <trkpt lat="45.69308" lon="6.06983">
        <ele>749.7</ele>
        <time>2021-08-28T07:52:29Z</time>
      </trkpt>
      <trkpt lat="45.69305" lon="6.0698">
        <ele>750</ele>
        <time>2021-08-28T07:52:30Z</time>
      </trkpt>
      <trkpt lat="45.69303" lon="6.06978">
        <ele>750.1</ele>
        <time>2021-08-28T07:52:31Z</time>
      </trkpt>
      <trkpt lat="45.69298" lon="6.06974">
        <ele>750.5</ele>
        <time>2021-08-28T07:52:34Z</time>
      </trkpt>
      <trkpt lat="45.69296" lon="6.06973">
        <ele>750.6</ele>
        <time>2021-08-28T07:52:35Z</time>
      </trkpt>
      <trkpt lat="45.69295" lon="6.06971">
        <ele>750.7</ele>
        <time>2021-08-28T07:52:36Z</time>
      </trkpt>
      <trkpt lat="45.69291" lon="6.06967">
        <ele>751</ele>
        <time>2021-08-28T07:52:37Z</time>
      </trkpt>
      <trkpt lat="45.6929" lon="6.06964">
        <ele>751.2</ele>
        <time>2021-08-28T07:52:38Z</time>
      </trkpt>
      <trkpt lat="45.69288" lon="6.06961">
        <ele>751.4</ele>
        <time>2021-08-28T07:52:40Z</time>
      </trkpt>
      <trkpt lat="45.69284" lon="6.06956">
        <ele>751.7</ele>
        <time>2021-08-28T07:52:42Z</time>
      </trkpt>
      <trkpt lat="45.69276" lon="6.06949">
        <ele>752.2</ele>
        <time>2021-08-28T07:52:45Z</time>
      </trkpt>
      <trkpt lat="45.69272" lon="6.06945">
        <ele>752.5</ele>
        <time>2021-08-28T07:52:48Z</time>
      </trkpt>
      <trkpt lat="45.6927" lon="6.06943">
        <ele>752.7</ele>
        <time>2021-08-28T07:52:49Z</time>
      </trkpt>
      <trkpt lat="45.69265" lon="6.0694">
        <ele>753.1</ele>
        <time>2021-08-28T07:52:50Z</time>
      </trkpt>
      <trkpt lat="45.69263" lon="6.06938">
        <ele>753.3</ele>
        <time>2021-08-28T07:52:52Z</time>
      </trkpt>
      <trkpt lat="45.69259" lon="6.06933">
        <ele>753.6</ele>
        <time>2021-08-28T07:52:55Z</time>
      </trkpt>
      <trkpt lat="45.69257" lon="6.06931">
        <ele>753.8</ele>
        <time>2021-08-28T07:52:56Z</time>
      </trkpt>
      <trkpt lat="45.69253" lon="6.06927">
        <ele>754.1</ele>
        <time>2021-08-28T07:52:58Z</time>
      </trkpt>
      <trkpt lat="45.69249" lon="6.06923">
        <ele>754.4</ele>
        <time>2021-08-28T07:53:00Z</time>
      </trkpt>
      <trkpt lat="45.69246" lon="6.06918">
        <ele>754.8</ele>
        <time>2021-08-28T07:53:02Z</time>
      </trkpt>
      <trkpt lat="45.69241" lon="6.06914">
        <ele>755.1</ele>
        <time>2021-08-28T07:53:04Z</time>
      </trkpt>
      <trkpt lat="45.69237" lon="6.06911">
        <ele>755.5</ele>
        <time>2021-08-28T07:53:06Z</time>
      </trkpt>
      <trkpt lat="45.69233" lon="6.06908">
        <ele>755.8</ele>
        <time>2021-08-28T07:53:07Z</time>
      </trkpt>
      <trkpt lat="45.69231" lon="6.06906">
        <ele>755.9</ele>
        <time>2021-08-28T07:53:08Z</time>
      </trkpt>
      <trkpt lat="45.6923" lon="6.06904">
        <ele>756.1</ele>
        <time>2021-08-28T07:53:10Z</time>
      </trkpt>
      <trkpt lat="45.69227" lon="6.06901">
        <ele>756.3</ele>
        <time>2021-08-28T07:53:12Z</time>
      </trkpt>
      <trkpt lat="45.69225" lon="6.06899">
        <ele>756.5</ele>
        <time>2021-08-28T07:53:13Z</time>
      </trkpt>
      <trkpt lat="45.69222" lon="6.06895">
        <ele>756.8</ele>
        <time>2021-08-28T07:53:15Z</time>
      </trkpt>
      <trkpt lat="45.69218" lon="6.06892">
        <ele>757.1</ele>
        <time>2021-08-28T07:53:17Z</time>
      </trkpt>
      <trkpt lat="45.69215" lon="6.06888">
        <ele>757.4</ele>
        <time>2021-08-28T07:53:18Z</time>
      </trkpt>
      <trkpt lat="45.69212" lon="6.06886">
        <ele>757.6</ele>
        <time>2021-08-28T07:53:20Z</time>
      </trkpt>
      <trkpt lat="45.69208" lon="6.0688">
        <ele>758</ele>
        <time>2021-08-28T07:53:22Z</time>
      </trkpt>
      <trkpt lat="45.69204" lon="6.06875">
        <ele>758.3</ele>
        <time>2021-08-28T07:53:24Z</time>
      </trkpt>
      <trkpt lat="45.69202" lon="6.06872">
        <ele>758.5</ele>
        <time>2021-08-28T07:53:25Z</time>
      </trkpt>
      <trkpt lat="45.69201" lon="6.0687">
        <ele>758.6</ele>
        <time>2021-08-28T07:53:26Z</time>
      </trkpt>
      <trkpt lat="45.69197" lon="6.06865">
        <ele>758.9</ele>
        <time>2021-08-28T07:53:28Z</time>
      </trkpt>
      <trkpt lat="45.69196" lon="6.06864">
        <ele>759.1</ele>
        <time>2021-08-28T07:53:29Z</time>
      </trkpt>
      <trkpt lat="45.69194" lon="6.06862">
        <ele>759.2</ele>
        <time>2021-08-28T07:53:30Z</time>
      </trkpt>
      <trkpt lat="45.69192" lon="6.06858">
        <ele>759.4</ele>
        <time>2021-08-28T07:53:32Z</time>
      </trkpt>
      <trkpt lat="45.69191" lon="6.06856">
        <ele>759.6</ele>
        <time>2021-08-28T07:53:33Z</time>
      </trkpt>
      <trkpt lat="45.69187" lon="6.06853">
        <ele>759.9</ele>
        <time>2021-08-28T07:53:35Z</time>
      </trkpt>
      <trkpt lat="45.69184" lon="6.0685">
        <ele>760.1</ele>
        <time>2021-08-28T07:53:36Z</time>
      </trkpt>
      <trkpt lat="45.6918" lon="6.06845">
        <ele>760.5</ele>
        <time>2021-08-28T07:53:38Z</time>
      </trkpt>
      <trkpt lat="45.69178" lon="6.06843">
        <ele>760.7</ele>
        <time>2021-08-28T07:53:39Z</time>
      </trkpt>
      <trkpt lat="45.69177" lon="6.06842">
        <ele>760.8</ele>
        <time>2021-08-28T07:53:40Z</time>
      </trkpt>
      <trkpt lat="45.69172" lon="6.06838">
        <ele>761.1</ele>
        <time>2021-08-28T07:53:42Z</time>
      </trkpt>
      <trkpt lat="45.6917" lon="6.06836">
        <ele>761.3</ele>
        <time>2021-08-28T07:53:43Z</time>
      </trkpt>
      <trkpt lat="45.69169" lon="6.06834">
        <ele>761.4</ele>
        <time>2021-08-28T07:53:44Z</time>
      </trkpt>
      <trkpt lat="45.69165" lon="6.0683">
        <ele>761.8</ele>
        <time>2021-08-28T07:53:46Z</time>
      </trkpt>
      <trkpt lat="45.69162" lon="6.06827">
        <ele>762.1</ele>
        <time>2021-08-28T07:53:47Z</time>
      </trkpt>
      <trkpt lat="45.69161" lon="6.06826">
        <ele>762.2</ele>
        <time>2021-08-28T07:53:48Z</time>
      </trkpt>
      <trkpt lat="45.69157" lon="6.06824">
        <ele>762.4</ele>
        <time>2021-08-28T07:53:50Z</time>
      </trkpt>
      <trkpt lat="45.69154" lon="6.06819">
        <ele>762.7</ele>
        <time>2021-08-28T07:53:52Z</time>
      </trkpt>
      <trkpt lat="45.69148" lon="6.06811">
        <ele>763.3</ele>
        <time>2021-08-28T07:53:55Z</time>
      </trkpt>
      <trkpt lat="45.69145" lon="6.06808">
        <ele>763.6</ele>
        <time>2021-08-28T07:53:58Z</time>
      </trkpt>
      <trkpt lat="45.69141" lon="6.06803">
        <ele>763.9</ele>
        <time>2021-08-28T07:53:59Z</time>
      </trkpt>
      <trkpt lat="45.69139" lon="6.068">
        <ele>764.1</ele>
        <time>2021-08-28T07:54:01Z</time>
      </trkpt>
      <trkpt lat="45.69133" lon="6.06794">
        <ele>764.5</ele>
        <time>2021-08-28T07:54:04Z</time>
      </trkpt>
      <trkpt lat="45.69131" lon="6.06791">
        <ele>764.7</ele>
        <time>2021-08-28T07:54:05Z</time>
      </trkpt>
      <trkpt lat="45.69127" lon="6.06789">
        <ele>764.9</ele>
        <time>2021-08-28T07:54:07Z</time>
      </trkpt>
      <trkpt lat="45.69124" lon="6.06787">
        <ele>765.1</ele>
        <time>2021-08-28T07:54:08Z</time>
      </trkpt>
      <trkpt lat="45.6912" lon="6.06783">
        <ele>765.4</ele>
        <time>2021-08-28T07:54:09Z</time>
      </trkpt>
      <trkpt lat="45.69117" lon="6.06781">
        <ele>765.6</ele>
        <time>2021-08-28T07:54:11Z</time>
      </trkpt>
      <trkpt lat="45.69115" lon="6.06777">
        <ele>765.8</ele>
        <time>2021-08-28T07:54:13Z</time>
      </trkpt>
      <trkpt lat="45.6911" lon="6.06773">
        <ele>766.2</ele>
        <time>2021-08-28T07:54:15Z</time>
      </trkpt>
      <trkpt lat="45.69107" lon="6.0677">
        <ele>766.4</ele>
        <time>2021-08-28T07:54:17Z</time>
      </trkpt>
      <trkpt lat="45.69103" lon="6.06765">
        <ele>766.7</ele>
        <time>2021-08-28T07:54:18Z</time>
      </trkpt>
      <trkpt lat="45.69102" lon="6.06763">
        <ele>766.9</ele>
        <time>2021-08-28T07:54:19Z</time>
      </trkpt>
      <trkpt lat="45.69099" lon="6.0676">
        <ele>767.1</ele>
        <time>2021-08-28T07:54:21Z</time>
      </trkpt>
      <trkpt lat="45.69097" lon="6.06757">
        <ele>767.2</ele>
        <time>2021-08-28T07:54:22Z</time>
      </trkpt>
      <trkpt lat="45.69096" lon="6.06754">
        <ele>767.4</ele>
        <time>2021-08-28T07:54:23Z</time>
      </trkpt>
      <trkpt lat="45.69091" lon="6.06749">
        <ele>767.7</ele>
        <time>2021-08-28T07:54:26Z</time>
      </trkpt>
      <trkpt lat="45.69088" lon="6.06746">
        <ele>767.9</ele>
        <time>2021-08-28T07:54:27Z</time>
      </trkpt>
      <trkpt lat="45.69087" lon="6.06745">
        <ele>768</ele>
        <time>2021-08-28T07:54:28Z</time>
      </trkpt>
      <trkpt lat="45.69083" lon="6.06742">
        <ele>768.3</ele>
        <time>2021-08-28T07:54:30Z</time>
      </trkpt>
      <trkpt lat="45.69081" lon="6.06737">
        <ele>768.5</ele>
        <time>2021-08-28T07:54:32Z</time>
      </trkpt>
      <trkpt lat="45.69078" lon="6.06733">
        <ele>768.8</ele>
        <time>2021-08-28T07:54:34Z</time>
      </trkpt>
      <trkpt lat="45.69075" lon="6.06731">
        <ele>768.9</ele>
        <time>2021-08-28T07:54:35Z</time>
      </trkpt>
      <trkpt lat="45.69073" lon="6.06728">
        <ele>769.1</ele>
        <time>2021-08-28T07:54:36Z</time>
      </trkpt>
      <trkpt lat="45.69069" lon="6.06724">
        <ele>769.4</ele>
        <time>2021-08-28T07:54:38Z</time>
      </trkpt>
      <trkpt lat="45.69066" lon="6.06719">
        <ele>769.7</ele>
        <time>2021-08-28T07:54:40Z</time>
      </trkpt>
      <trkpt lat="45.69062" lon="6.06714">
        <ele>770</ele>
        <time>2021-08-28T07:54:42Z</time>
      </trkpt>
      <trkpt lat="45.69058" lon="6.06711">
        <ele>770.2</ele>
        <time>2021-08-28T07:54:44Z</time>
      </trkpt>
      <trkpt lat="45.69055" lon="6.06709">
        <ele>770.4</ele>
        <time>2021-08-28T07:54:45Z</time>
      </trkpt>
      <trkpt lat="45.69052" lon="6.06706">
        <ele>770.6</ele>
        <time>2021-08-28T07:54:47Z</time>
      </trkpt>
      <trkpt lat="45.6905" lon="6.06703">
        <ele>770.8</ele>
        <time>2021-08-28T07:54:48Z</time>
      </trkpt>
      <trkpt lat="45.69047" lon="6.06701">
        <ele>771</ele>
        <time>2021-08-28T07:54:49Z</time>
      </trkpt>
      <trkpt lat="45.69046" lon="6.06698">
        <ele>771.1</ele>
        <time>2021-08-28T07:54:50Z</time>
      </trkpt>
      <trkpt lat="45.69044" lon="6.06697">
        <ele>771.3</ele>
        <time>2021-08-28T07:54:52Z</time>
      </trkpt>
      <trkpt lat="45.69042" lon="6.06693">
        <ele>771.4</ele>
        <time>2021-08-28T07:54:53Z</time>
      </trkpt>
      <trkpt lat="45.69042" lon="6.06692">
        <ele>771.5</ele>
        <time>2021-08-28T07:54:54Z</time>
      </trkpt>
      <trkpt lat="45.69036" lon="6.06687">
        <ele>771.9</ele>
        <time>2021-08-28T07:54:57Z</time>
      </trkpt>
      <trkpt lat="45.69032" lon="6.06683">
        <ele>772.2</ele>
        <time>2021-08-28T07:54:59Z</time>
      </trkpt>
      <trkpt lat="45.69028" lon="6.0668">
        <ele>772.5</ele>
        <time>2021-08-28T07:55:01Z</time>
      </trkpt>
      <trkpt lat="45.69023" lon="6.06674">
        <ele>772.8</ele>
        <time>2021-08-28T07:55:04Z</time>
      </trkpt>
      <trkpt lat="45.69021" lon="6.0667">
        <ele>773</ele>
        <time>2021-08-28T07:55:06Z</time>
      </trkpt>
      <trkpt lat="45.69016" lon="6.06666">
        <ele>773.4</ele>
        <time>2021-08-28T07:55:09Z</time>
      </trkpt>
      <trkpt lat="45.69012" lon="6.06663">
        <ele>773.7</ele>
        <time>2021-08-28T07:55:11Z</time>
      </trkpt>
      <trkpt lat="45.69009" lon="6.0666">
        <ele>773.9</ele>
        <time>2021-08-28T07:55:12Z</time>
      </trkpt>
      <trkpt lat="45.69003" lon="6.06652">
        <ele>774.4</ele>
        <time>2021-08-28T07:55:15Z</time>
      </trkpt>
      <trkpt lat="45.69" lon="6.06649">
        <ele>774.6</ele>
        <time>2021-08-28T07:55:16Z</time>
      </trkpt>
      <trkpt lat="45.68998" lon="6.06645">
        <ele>774.8</ele>
        <time>2021-08-28T07:55:18Z</time>
      </trkpt>
      <trkpt lat="45.68992" lon="6.06639">
        <ele>775.3</ele>
        <time>2021-08-28T07:55:20Z</time>
      </trkpt>
      <trkpt lat="45.68987" lon="6.06635">
        <ele>775.6</ele>
        <time>2021-08-28T07:55:23Z</time>
      </trkpt>
      <trkpt lat="45.68983" lon="6.06632">
        <ele>775.9</ele>
        <time>2021-08-28T07:55:25Z</time>
      </trkpt>
      <trkpt lat="45.68979" lon="6.06628">
        <ele>776.1</ele>
        <time>2021-08-28T07:55:27Z</time>
      </trkpt>
      <trkpt lat="45.68975" lon="6.06623">
        <ele>776.4</ele>
        <time>2021-08-28T07:55:29Z</time>
      </trkpt>
      <trkpt lat="45.68972" lon="6.0662">
        <ele>776.6</ele>
        <time>2021-08-28T07:55:30Z</time>
      </trkpt>
      <trkpt lat="45.68969" lon="6.06618">
        <ele>776.8</ele>
        <time>2021-08-28T07:55:31Z</time>
      </trkpt>
      <trkpt lat="45.68967" lon="6.06617">
        <ele>776.9</ele>
        <time>2021-08-28T07:55:32Z</time>
      </trkpt>
      <trkpt lat="45.68961" lon="6.06612">
        <ele>777.3</ele>
        <time>2021-08-28T07:55:34Z</time>
      </trkpt>
      <trkpt lat="45.6896" lon="6.06606">
        <ele>777.5</ele>
        <time>2021-08-28T07:55:36Z</time>
      </trkpt>
      <trkpt lat="45.68956" lon="6.06603">
        <ele>777.7</ele>
        <time>2021-08-28T07:55:38Z</time>
      </trkpt>
      <trkpt lat="45.68951" lon="6.06599">
        <ele>778</ele>
        <time>2021-08-28T07:55:40Z</time>
      </trkpt>
      <trkpt lat="45.68948" lon="6.06596">
        <ele>778.2</ele>
        <time>2021-08-28T07:55:42Z</time>
      </trkpt>
      <trkpt lat="45.68946" lon="6.06593">
        <ele>778.4</ele>
        <time>2021-08-28T07:55:43Z</time>
      </trkpt>
      <trkpt lat="45.68943" lon="6.0659">
        <ele>778.5</ele>
        <time>2021-08-28T07:55:44Z</time>
      </trkpt>
      <trkpt lat="45.68942" lon="6.06589">
        <ele>778.7</ele>
        <time>2021-08-28T07:55:45Z</time>
      </trkpt>
      <trkpt lat="45.6894" lon="6.06587">
        <ele>778.8</ele>
        <time>2021-08-28T07:55:47Z</time>
      </trkpt>
      <trkpt lat="45.68936" lon="6.06583">
        <ele>779</ele>
        <time>2021-08-28T07:55:48Z</time>
      </trkpt>
      <trkpt lat="45.68934" lon="6.06582">
        <ele>779.1</ele>
        <time>2021-08-28T07:55:50Z</time>
      </trkpt>
      <trkpt lat="45.68932" lon="6.06581">
        <ele>779.2</ele>
        <time>2021-08-28T07:55:51Z</time>
      </trkpt>
      <trkpt lat="45.68928" lon="6.06574">
        <ele>779.5</ele>
        <time>2021-08-28T07:55:53Z</time>
      </trkpt>
      <trkpt lat="45.68925" lon="6.06572">
        <ele>779.7</ele>
        <time>2021-08-28T07:55:55Z</time>
      </trkpt>
      <trkpt lat="45.68921" lon="6.06567">
        <ele>780</ele>
        <time>2021-08-28T07:55:57Z</time>
      </trkpt>
      <trkpt lat="45.68916" lon="6.06563">
        <ele>780.3</ele>
        <time>2021-08-28T07:55:59Z</time>
      </trkpt>
      <trkpt lat="45.68914" lon="6.0656">
        <ele>780.4</ele>
        <time>2021-08-28T07:56:00Z</time>
      </trkpt>
      <trkpt lat="45.68911" lon="6.06558">
        <ele>780.6</ele>
        <time>2021-08-28T07:56:02Z</time>
      </trkpt>
      <trkpt lat="45.68908" lon="6.06554">
        <ele>780.9</ele>
        <time>2021-08-28T07:56:04Z</time>
      </trkpt>
      <trkpt lat="45.68906" lon="6.06551">
        <ele>781</ele>
        <time>2021-08-28T07:56:05Z</time>
      </trkpt>
      <trkpt lat="45.68902" lon="6.06546">
        <ele>781.3</ele>
        <time>2021-08-28T07:56:08Z</time>
      </trkpt>
      <trkpt lat="45.68898" lon="6.06542">
        <ele>781.6</ele>
        <time>2021-08-28T07:56:10Z</time>
      </trkpt>
      <trkpt lat="45.68894" lon="6.06536">
        <ele>781.9</ele>
        <time>2021-08-28T07:56:13Z</time>
      </trkpt>
      <trkpt lat="45.68893" lon="6.06535">
        <ele>782</ele>
        <time>2021-08-28T07:56:14Z</time>
      </trkpt>
      <trkpt lat="45.68891" lon="6.06533">
        <ele>782.1</ele>
        <time>2021-08-28T07:56:15Z</time>
      </trkpt>
      <trkpt lat="45.68887" lon="6.0653">
        <ele>782.3</ele>
        <time>2021-08-28T07:56:16Z</time>
      </trkpt>
      <trkpt lat="45.68885" lon="6.06527">
        <ele>782.5</ele>
        <time>2021-08-28T07:56:18Z</time>
      </trkpt>
      <trkpt lat="45.68884" lon="6.06524">
        <ele>782.7</ele>
        <time>2021-08-28T07:56:19Z</time>
      </trkpt>
      <trkpt lat="45.68882" lon="6.06518">
        <ele>782.9</ele>
        <time>2021-08-28T07:56:21Z</time>
      </trkpt>
      <trkpt lat="45.68878" lon="6.06515">
        <ele>783.1</ele>
        <time>2021-08-28T07:56:22Z</time>
      </trkpt>
      <trkpt lat="45.68875" lon="6.06511">
        <ele>783.4</ele>
        <time>2021-08-28T07:56:24Z</time>
      </trkpt>
      <trkpt lat="45.68873" lon="6.0651">
        <ele>783.5</ele>
        <time>2021-08-28T07:56:25Z</time>
      </trkpt>
      <trkpt lat="45.6887" lon="6.06507">
        <ele>783.7</ele>
        <time>2021-08-28T07:56:27Z</time>
      </trkpt>
      <trkpt lat="45.68866" lon="6.06503">
        <ele>783.9</ele>
        <time>2021-08-28T07:56:29Z</time>
      </trkpt>
      <trkpt lat="45.68862" lon="6.06499">
        <ele>784.2</ele>
        <time>2021-08-28T07:56:30Z</time>
      </trkpt>
      <trkpt lat="45.68859" lon="6.06495">
        <ele>784.3</ele>
        <time>2021-08-28T07:56:32Z</time>
      </trkpt>
      <trkpt lat="45.68855" lon="6.06489">
        <ele>784.6</ele>
        <time>2021-08-28T07:56:35Z</time>
      </trkpt>
      <trkpt lat="45.68853" lon="6.06484">
        <ele>784.9</ele>
        <time>2021-08-28T07:56:37Z</time>
      </trkpt>
      <trkpt lat="45.68848" lon="6.06479">
        <ele>785.2</ele>
        <time>2021-08-28T07:56:39Z</time>
      </trkpt>
      <trkpt lat="45.68844" lon="6.06476">
        <ele>785.4</ele>
        <time>2021-08-28T07:56:41Z</time>
      </trkpt>
      <trkpt lat="45.6884" lon="6.06471">
        <ele>785.6</ele>
        <time>2021-08-28T07:56:43Z</time>
      </trkpt>
      <trkpt lat="45.68838" lon="6.06468">
        <ele>785.8</ele>
        <time>2021-08-28T07:56:45Z</time>
      </trkpt>
      <trkpt lat="45.68834" lon="6.06464">
        <ele>786</ele>
        <time>2021-08-28T07:56:46Z</time>
      </trkpt>
      <trkpt lat="45.68831" lon="6.06462">
        <ele>786.2</ele>
        <time>2021-08-28T07:56:48Z</time>
      </trkpt>
      <trkpt lat="45.68828" lon="6.06457">
        <ele>786.4</ele>
        <time>2021-08-28T07:56:49Z</time>
      </trkpt>
      <trkpt lat="45.68826" lon="6.06454">
        <ele>786.6</ele>
        <time>2021-08-28T07:56:51Z</time>
      </trkpt>
      <trkpt lat="45.68822" lon="6.06451">
        <ele>786.8</ele>
        <time>2021-08-28T07:56:52Z</time>
      </trkpt>
      <trkpt lat="45.68821" lon="6.06448">
        <ele>786.9</ele>
        <time>2021-08-28T07:56:53Z</time>
      </trkpt>
      <trkpt lat="45.68816" lon="6.06444">
        <ele>787.2</ele>
        <time>2021-08-28T07:56:56Z</time>
      </trkpt>
      <trkpt lat="45.68814" lon="6.06441">
        <ele>787.3</ele>
        <time>2021-08-28T07:56:57Z</time>
      </trkpt>
      <trkpt lat="45.6881" lon="6.06437">
        <ele>787.5</ele>
        <time>2021-08-28T07:56:58Z</time>
      </trkpt>
      <trkpt lat="45.68809" lon="6.06436">
        <ele>787.6</ele>
        <time>2021-08-28T07:56:59Z</time>
      </trkpt>
      <trkpt lat="45.68806" lon="6.06434">
        <ele>787.8</ele>
        <time>2021-08-28T07:57:00Z</time>
      </trkpt>
      <trkpt lat="45.68801" lon="6.0643">
        <ele>788</ele>
        <time>2021-08-28T07:57:02Z</time>
      </trkpt>
      <trkpt lat="45.688" lon="6.06428">
        <ele>788.1</ele>
        <time>2021-08-28T07:57:03Z</time>
      </trkpt>
      <trkpt lat="45.68798" lon="6.06427">
        <ele>788.2</ele>
        <time>2021-08-28T07:57:04Z</time>
      </trkpt>
      <trkpt lat="45.68792" lon="6.0642">
        <ele>788.5</ele>
        <time>2021-08-28T07:57:06Z</time>
      </trkpt>
      <trkpt lat="45.68789" lon="6.06417">
        <ele>788.7</ele>
        <time>2021-08-28T07:57:08Z</time>
      </trkpt>
      <trkpt lat="45.68787" lon="6.06416">
        <ele>788.8</ele>
        <time>2021-08-28T07:57:09Z</time>
      </trkpt>
      <trkpt lat="45.68785" lon="6.06413">
        <ele>788.9</ele>
        <time>2021-08-28T07:57:10Z</time>
      </trkpt>
      <trkpt lat="45.68783" lon="6.0641">
        <ele>789.1</ele>
        <time>2021-08-28T07:57:11Z</time>
      </trkpt>
      <trkpt lat="45.68778" lon="6.06414">
        <ele>789.3</ele>
        <time>2021-08-28T07:57:13Z</time>
      </trkpt>
      <trkpt lat="45.68778" lon="6.06412">
        <ele>789.3</ele>
        <time>2021-08-28T07:57:15Z</time>
      </trkpt>
      <trkpt lat="45.68781" lon="6.06414">
        <ele>789.5</ele>
        <time>2021-08-28T07:57:18Z</time>
      </trkpt>
      <trkpt lat="45.68782" lon="6.06414">
        <ele>789.5</ele>
        <time>2021-08-28T07:57:19Z</time>
      </trkpt>
      <trkpt lat="45.68781" lon="6.06413">
        <ele>789.5</ele>
        <time>2021-08-28T07:57:20Z</time>
      </trkpt>
      <trkpt lat="45.68781" lon="6.06412">
        <ele>789.6</ele>
        <time>2021-08-28T07:57:21Z</time>
      </trkpt>
      <trkpt lat="45.68781" lon="6.0641">
        <ele>789.6</ele>
        <time>2021-08-28T07:57:23Z</time>
      </trkpt>
      <trkpt lat="45.6878" lon="6.06409">
        <ele>789.7</ele>
        <time>2021-08-28T07:57:26Z</time>
      </trkpt>
      <trkpt lat="45.6878" lon="6.06407">
        <ele>789.7</ele>
        <time>2021-08-28T07:58:18Z</time>
      </trkpt>
      <trkpt lat="45.68779" lon="6.06406">
        <ele>789.8</ele>
        <time>2021-08-28T07:58:19Z</time>
      </trkpt>
      <trkpt lat="45.68779" lon="6.06404">
        <ele>789.8</ele>
        <time>2021-08-28T07:58:21Z</time>
      </trkpt>
      <trkpt lat="45.68778" lon="6.06403">
        <ele>789.9</ele>
        <time>2021-08-28T07:58:22Z</time>
      </trkpt>
      <trkpt lat="45.68773" lon="6.06395">
        <ele>790.2</ele>
        <time>2021-08-28T07:58:23Z</time>
      </trkpt>
      <trkpt lat="45.68765" lon="6.06387">
        <ele>790.6</ele>
        <time>2021-08-28T07:58:24Z</time>
      </trkpt>
      <trkpt lat="45.68761" lon="6.06383">
        <ele>790.8</ele>
        <time>2021-08-28T07:58:26Z</time>
      </trkpt>
      <trkpt lat="45.68756" lon="6.06378">
        <ele>791.1</ele>
        <time>2021-08-28T07:58:28Z</time>
      </trkpt>
      <trkpt lat="45.68752" lon="6.06373">
        <ele>791.3</ele>
        <time>2021-08-28T07:58:29Z</time>
      </trkpt>
      <trkpt lat="45.68748" lon="6.06369">
        <ele>791.5</ele>
        <time>2021-08-28T07:58:31Z</time>
      </trkpt>
      <trkpt lat="45.68743" lon="6.06364">
        <ele>791.8</ele>
        <time>2021-08-28T07:58:33Z</time>
      </trkpt>
      <trkpt lat="45.68739" lon="6.0636">
        <ele>792</ele>
        <time>2021-08-28T07:58:34Z</time>
      </trkpt>
      <trkpt lat="45.68737" lon="6.06358">
        <ele>792.2</ele>
        <time>2021-08-28T07:58:35Z</time>
      </trkpt>
      <trkpt lat="45.68734" lon="6.06354">
        <ele>792.3</ele>
        <time>2021-08-28T07:58:36Z</time>
      </trkpt>
      <trkpt lat="45.68733" lon="6.06353">
        <ele>792.4</ele>
        <time>2021-08-28T07:58:37Z</time>
      </trkpt>
      <trkpt lat="45.6873" lon="6.06348">
        <ele>792.6</ele>
        <time>2021-08-28T07:58:39Z</time>
      </trkpt>
      <trkpt lat="45.68728" lon="6.06343">
        <ele>792.8</ele>
        <time>2021-08-28T07:58:40Z</time>
      </trkpt>
      <trkpt lat="45.68727" lon="6.0634">
        <ele>792.9</ele>
        <time>2021-08-28T07:58:42Z</time>
      </trkpt>
      <trkpt lat="45.68723" lon="6.06333">
        <ele>793.2</ele>
        <time>2021-08-28T07:58:44Z</time>
      </trkpt>
      <trkpt lat="45.68721" lon="6.06329">
        <ele>793.4</ele>
        <time>2021-08-28T07:58:46Z</time>
      </trkpt>
      <trkpt lat="45.68718" lon="6.06324">
        <ele>793.6</ele>
        <time>2021-08-28T07:58:47Z</time>
      </trkpt>
      <trkpt lat="45.68714" lon="6.06318">
        <ele>793.9</ele>
        <time>2021-08-28T07:58:49Z</time>
      </trkpt>
      <trkpt lat="45.68712" lon="6.06316">
        <ele>794.1</ele>
        <time>2021-08-28T07:58:50Z</time>
      </trkpt>
      <trkpt lat="45.6871" lon="6.06313">
        <ele>794.2</ele>
        <time>2021-08-28T07:58:51Z</time>
      </trkpt>
      <trkpt lat="45.68709" lon="6.06309">
        <ele>794.4</ele>
        <time>2021-08-28T07:58:53Z</time>
      </trkpt>
      <trkpt lat="45.68707" lon="6.06307">
        <ele>794.5</ele>
        <time>2021-08-28T07:58:54Z</time>
      </trkpt>
      <trkpt lat="45.68704" lon="6.06303">
        <ele>794.8</ele>
        <time>2021-08-28T07:58:56Z</time>
      </trkpt>
      <trkpt lat="45.68702" lon="6.063">
        <ele>794.9</ele>
        <time>2021-08-28T07:58:57Z</time>
      </trkpt>
      <trkpt lat="45.68702" lon="6.06298">
        <ele>795</ele>
        <time>2021-08-28T07:58:59Z</time>
      </trkpt>
      <trkpt lat="45.68699" lon="6.06294">
        <ele>795.2</ele>
        <time>2021-08-28T07:59:00Z</time>
      </trkpt>
      <trkpt lat="45.68697" lon="6.06289">
        <ele>795.5</ele>
        <time>2021-08-28T07:59:02Z</time>
      </trkpt>
      <trkpt lat="45.68696" lon="6.06288">
        <ele>795.6</ele>
        <time>2021-08-28T07:59:03Z</time>
      </trkpt>
      <trkpt lat="45.68694" lon="6.06285">
        <ele>795.7</ele>
        <time>2021-08-28T07:59:04Z</time>
      </trkpt>
      <trkpt lat="45.68692" lon="6.06282">
        <ele>795.9</ele>
        <time>2021-08-28T07:59:06Z</time>
      </trkpt>
      <trkpt lat="45.68691" lon="6.0628">
        <ele>796</ele>
        <time>2021-08-28T07:59:07Z</time>
      </trkpt>
      <trkpt lat="45.6869" lon="6.06278">
        <ele>796.1</ele>
        <time>2021-08-28T07:59:08Z</time>
      </trkpt>
      <trkpt lat="45.68688" lon="6.0627">
        <ele>796.5</ele>
        <time>2021-08-28T07:59:11Z</time>
      </trkpt>
      <trkpt lat="45.68686" lon="6.06263">
        <ele>796.8</ele>
        <time>2021-08-28T07:59:13Z</time>
      </trkpt>
      <trkpt lat="45.68686" lon="6.06259">
        <ele>796.9</ele>
        <time>2021-08-28T07:59:14Z</time>
      </trkpt>
      <trkpt lat="45.68685" lon="6.06253">
        <ele>797.2</ele>
        <time>2021-08-28T07:59:16Z</time>
      </trkpt>
      <trkpt lat="45.68684" lon="6.06247">
        <ele>797.4</ele>
        <time>2021-08-28T07:59:18Z</time>
      </trkpt>
      <trkpt lat="45.68681" lon="6.06239">
        <ele>797.8</ele>
        <time>2021-08-28T07:59:21Z</time>
      </trkpt>
      <trkpt lat="45.6868" lon="6.06236">
        <ele>797.9</ele>
        <time>2021-08-28T07:59:22Z</time>
      </trkpt>
      <trkpt lat="45.68677" lon="6.06226">
        <ele>798.3</ele>
        <time>2021-08-28T07:59:25Z</time>
      </trkpt>
      <trkpt lat="45.68676" lon="6.06221">
        <ele>798.5</ele>
        <time>2021-08-28T07:59:28Z</time>
      </trkpt>
      <trkpt lat="45.68674" lon="6.06216">
        <ele>798.6</ele>
        <time>2021-08-28T07:59:29Z</time>
      </trkpt>
      <trkpt lat="45.68671" lon="6.06212">
        <ele>798.7</ele>
        <time>2021-08-28T07:59:31Z</time>
      </trkpt>
      <trkpt lat="45.68669" lon="6.06207">
        <ele>798.9</ele>
        <time>2021-08-28T07:59:32Z</time>
      </trkpt>
      <trkpt lat="45.68667" lon="6.06205">
        <ele>798.9</ele>
        <time>2021-08-28T07:59:33Z</time>
      </trkpt>
      <trkpt lat="45.68665" lon="6.06199">
        <ele>799.1</ele>
        <time>2021-08-28T07:59:35Z</time>
      </trkpt>
      <trkpt lat="45.68661" lon="6.06194">
        <ele>799.2</ele>
        <time>2021-08-28T07:59:37Z</time>
      </trkpt>
      <trkpt lat="45.68659" lon="6.06191">
        <ele>799.3</ele>
        <time>2021-08-28T07:59:38Z</time>
      </trkpt>
      <trkpt lat="45.68655" lon="6.06186">
        <ele>799.3</ele>
        <time>2021-08-28T07:59:40Z</time>
      </trkpt>
      <trkpt lat="45.68652" lon="6.06182">
        <ele>799.4</ele>
        <time>2021-08-28T07:59:41Z</time>
      </trkpt>
      <trkpt lat="45.68649" lon="6.06176">
        <ele>799.4</ele>
        <time>2021-08-28T07:59:43Z</time>
      </trkpt>
      <trkpt lat="45.68644" lon="6.06169">
        <ele>799.5</ele>
        <time>2021-08-28T07:59:45Z</time>
      </trkpt>
      <trkpt lat="45.6864" lon="6.06163">
        <ele>799.5</ele>
        <time>2021-08-28T07:59:47Z</time>
      </trkpt>
      <trkpt lat="45.68638" lon="6.06158">
        <ele>799.5</ele>
        <time>2021-08-28T07:59:48Z</time>
      </trkpt>
      <trkpt lat="45.68636" lon="6.06155">
        <ele>799.6</ele>
        <time>2021-08-28T07:59:49Z</time>
      </trkpt>
      <trkpt lat="45.68632" lon="6.06148">
        <ele>799.6</ele>
        <time>2021-08-28T07:59:51Z</time>
      </trkpt>
      <trkpt lat="45.68629" lon="6.06144">
        <ele>799.7</ele>
        <time>2021-08-28T07:59:52Z</time>
      </trkpt>
      <trkpt lat="45.68625" lon="6.06137">
        <ele>799.7</ele>
        <time>2021-08-28T07:59:54Z</time>
      </trkpt>
      <trkpt lat="45.68622" lon="6.0613">
        <ele>799.8</ele>
        <time>2021-08-28T07:59:56Z</time>
      </trkpt>
      <trkpt lat="45.68615" lon="6.06128">
        <ele>799.9</ele>
        <time>2021-08-28T07:59:58Z</time>
      </trkpt>
      <trkpt lat="45.68614" lon="6.06118">
        <ele>800</ele>
        <time>2021-08-28T08:00:01Z</time>
      </trkpt>
      <trkpt lat="45.68615" lon="6.0612">
        <ele>800.1</ele>
        <time>2021-08-28T08:00:02Z</time>
      </trkpt>
      <trkpt lat="45.68616" lon="6.06123">
        <ele>800.1</ele>
        <time>2021-08-28T08:00:03Z</time>
      </trkpt>
      <trkpt lat="45.68617" lon="6.06126">
        <ele>800.1</ele>
        <time>2021-08-28T08:00:04Z</time>
      </trkpt>
      <trkpt lat="45.68618" lon="6.06127">
        <ele>800.2</ele>
        <time>2021-08-28T08:00:05Z</time>
      </trkpt>
      <trkpt lat="45.68618" lon="6.06126">
        <ele>800.2</ele>
        <time>2021-08-28T08:00:06Z</time>
      </trkpt>
      <trkpt lat="45.68618" lon="6.06124">
        <ele>800.2</ele>
        <time>2021-08-28T08:00:07Z</time>
      </trkpt>
      <trkpt lat="45.68618" lon="6.06122">
        <ele>800.2</ele>
        <time>2021-08-28T08:00:10Z</time>
      </trkpt>
      <trkpt lat="45.68618" lon="6.0612">
        <ele>800.3</ele>
        <time>2021-08-28T08:00:11Z</time>
      </trkpt>
      <trkpt lat="45.68618" lon="6.06119">
        <ele>800.3</ele>
        <time>2021-08-28T08:00:12Z</time>
      </trkpt>
      <trkpt lat="45.68618" lon="6.06117">
        <ele>800.3</ele>
        <time>2021-08-28T08:00:39Z</time>
      </trkpt>
      <trkpt lat="45.68617" lon="6.06115">
        <ele>800.3</ele>
        <time>2021-08-28T08:00:40Z</time>
      </trkpt>
      <trkpt lat="45.68617" lon="6.06114">
        <ele>800.4</ele>
        <time>2021-08-28T08:00:41Z</time>
      </trkpt>
      <trkpt lat="45.68616" lon="6.06107">
        <ele>800.4</ele>
        <time>2021-08-28T08:00:42Z</time>
      </trkpt>
      <trkpt lat="45.68616" lon="6.06102">
        <ele>800.5</ele>
        <time>2021-08-28T08:00:44Z</time>
      </trkpt>
      <trkpt lat="45.68614" lon="6.06094">
        <ele>800.6</ele>
        <time>2021-08-28T08:00:46Z</time>
      </trkpt>
      <trkpt lat="45.68612" lon="6.06085">
        <ele>800.6</ele>
        <time>2021-08-28T08:00:47Z</time>
      </trkpt>
      <trkpt lat="45.68611" lon="6.0608">
        <ele>800.7</ele>
        <time>2021-08-28T08:00:49Z</time>
      </trkpt>
      <trkpt lat="45.68609" lon="6.06076">
        <ele>800.7</ele>
        <time>2021-08-28T08:00:50Z</time>
      </trkpt>
      <trkpt lat="45.68608" lon="6.06074">
        <ele>800.7</ele>
        <time>2021-08-28T08:00:51Z</time>
      </trkpt>
      <trkpt lat="45.68603" lon="6.06065">
        <ele>800.8</ele>
        <time>2021-08-28T08:00:54Z</time>
      </trkpt>
      <trkpt lat="45.686" lon="6.06055">
        <ele>800.9</ele>
        <time>2021-08-28T08:00:56Z</time>
      </trkpt>
      <trkpt lat="45.68596" lon="6.06049">
        <ele>800.9</ele>
        <time>2021-08-28T08:00:57Z</time>
      </trkpt>
      <trkpt lat="45.68593" lon="6.06044">
        <ele>801</ele>
        <time>2021-08-28T08:00:58Z</time>
      </trkpt>
      <trkpt lat="45.6859" lon="6.06038">
        <ele>801</ele>
        <time>2021-08-28T08:01:00Z</time>
      </trkpt>
      <trkpt lat="45.68588" lon="6.06034">
        <ele>801.1</ele>
        <time>2021-08-28T08:01:01Z</time>
      </trkpt>
      <trkpt lat="45.68583" lon="6.06025">
        <ele>801.2</ele>
        <time>2021-08-28T08:01:02Z</time>
      </trkpt>
      <trkpt lat="45.68582" lon="6.0602">
        <ele>801.3</ele>
        <time>2021-08-28T08:01:04Z</time>
      </trkpt>
      <trkpt lat="45.6858" lon="6.06016">
        <ele>801.3</ele>
        <time>2021-08-28T08:01:05Z</time>
      </trkpt>
      <trkpt lat="45.68575" lon="6.06008">
        <ele>801.5</ele>
        <time>2021-08-28T08:01:06Z</time>
      </trkpt>
      <trkpt lat="45.68573" lon="6.06003">
        <ele>801.6</ele>
        <time>2021-08-28T08:01:08Z</time>
      </trkpt>
      <trkpt lat="45.68571" lon="6.05998">
        <ele>801.7</ele>
        <time>2021-08-28T08:01:09Z</time>
      </trkpt>
      <trkpt lat="45.68567" lon="6.05991">
        <ele>801.8</ele>
        <time>2021-08-28T08:01:10Z</time>
      </trkpt>
      <trkpt lat="45.68564" lon="6.05987">
        <ele>801.9</ele>
        <time>2021-08-28T08:01:11Z</time>
      </trkpt>
      <trkpt lat="45.68562" lon="6.05983">
        <ele>802</ele>
        <time>2021-08-28T08:01:13Z</time>
      </trkpt>
      <trkpt lat="45.68558" lon="6.0598">
        <ele>802.1</ele>
        <time>2021-08-28T08:01:14Z</time>
      </trkpt>
      <trkpt lat="45.68554" lon="6.05973">
        <ele>802.2</ele>
        <time>2021-08-28T08:01:15Z</time>
      </trkpt>
      <trkpt lat="45.68551" lon="6.05968">
        <ele>802.3</ele>
        <time>2021-08-28T08:01:16Z</time>
      </trkpt>
      <trkpt lat="45.68548" lon="6.0596">
        <ele>802.4</ele>
        <time>2021-08-28T08:01:18Z</time>
      </trkpt>
      <trkpt lat="45.68545" lon="6.05957">
        <ele>802.5</ele>
        <time>2021-08-28T08:01:19Z</time>
      </trkpt>
      <trkpt lat="45.68538" lon="6.05951">
        <ele>802.7</ele>
        <time>2021-08-28T08:01:20Z</time>
      </trkpt>
      <trkpt lat="45.68535" lon="6.05946">
        <ele>802.8</ele>
        <time>2021-08-28T08:01:22Z</time>
      </trkpt>
      <trkpt lat="45.68534" lon="6.05945">
        <ele>802.8</ele>
        <time>2021-08-28T08:01:23Z</time>
      </trkpt>
      <trkpt lat="45.68528" lon="6.05938">
        <ele>803.1</ele>
        <time>2021-08-28T08:01:24Z</time>
      </trkpt>
      <trkpt lat="45.68525" lon="6.05934">
        <ele>803.2</ele>
        <time>2021-08-28T08:01:25Z</time>
      </trkpt>
      <trkpt lat="45.68522" lon="6.0593">
        <ele>803.4</ele>
        <time>2021-08-28T08:01:26Z</time>
      </trkpt>
      <trkpt lat="45.68519" lon="6.05928">
        <ele>803.5</ele>
        <time>2021-08-28T08:01:28Z</time>
      </trkpt>
      <trkpt lat="45.68516" lon="6.05927">
        <ele>803.7</ele>
        <time>2021-08-28T08:01:29Z</time>
      </trkpt>
      <trkpt lat="45.68511" lon="6.05923">
        <ele>804</ele>
        <time>2021-08-28T08:01:31Z</time>
      </trkpt>
      <trkpt lat="45.68508" lon="6.05922">
        <ele>804.1</ele>
        <time>2021-08-28T08:01:32Z</time>
      </trkpt>
      <trkpt lat="45.68504" lon="6.05922">
        <ele>804.3</ele>
        <time>2021-08-28T08:01:33Z</time>
      </trkpt>
      <trkpt lat="45.68502" lon="6.05921">
        <ele>804.5</ele>
        <time>2021-08-28T08:01:34Z</time>
      </trkpt>
      <trkpt lat="45.68497" lon="6.05918">
        <ele>804.8</ele>
        <time>2021-08-28T08:01:36Z</time>
      </trkpt>
      <trkpt lat="45.68492" lon="6.05918">
        <ele>805.1</ele>
        <time>2021-08-28T08:01:38Z</time>
      </trkpt>
      <trkpt lat="45.68491" lon="6.05918">
        <ele>805.2</ele>
        <time>2021-08-28T08:01:39Z</time>
      </trkpt>
      <trkpt lat="45.68489" lon="6.05918">
        <ele>805.3</ele>
        <time>2021-08-28T08:01:40Z</time>
      </trkpt>
      <trkpt lat="45.68487" lon="6.05916">
        <ele>805.5</ele>
        <time>2021-08-28T08:01:41Z</time>
      </trkpt>
      <trkpt lat="45.68482" lon="6.0591">
        <ele>805.9</ele>
        <time>2021-08-28T08:01:44Z</time>
      </trkpt>
      <trkpt lat="45.68479" lon="6.05906">
        <ele>806.2</ele>
        <time>2021-08-28T08:01:45Z</time>
      </trkpt>
      <trkpt lat="45.68476" lon="6.05904">
        <ele>806.5</ele>
        <time>2021-08-28T08:01:47Z</time>
      </trkpt>
      <trkpt lat="45.68473" lon="6.059">
        <ele>806.9</ele>
        <time>2021-08-28T08:01:49Z</time>
      </trkpt>
      <trkpt lat="45.68472" lon="6.059">
        <ele>807</ele>
        <time>2021-08-28T08:01:50Z</time>
      </trkpt>
      <trkpt lat="45.68468" lon="6.05896">
        <ele>807.4</ele>
        <time>2021-08-28T08:01:53Z</time>
      </trkpt>
      <trkpt lat="45.68462" lon="6.05892">
        <ele>807.9</ele>
        <time>2021-08-28T08:01:56Z</time>
      </trkpt>
      <trkpt lat="45.6846" lon="6.0589">
        <ele>808.2</ele>
        <time>2021-08-28T08:01:57Z</time>
      </trkpt>
      <trkpt lat="45.68459" lon="6.05889">
        <ele>808.3</ele>
        <time>2021-08-28T08:01:58Z</time>
      </trkpt>
      <trkpt lat="45.68456" lon="6.05889">
        <ele>808.5</ele>
        <time>2021-08-28T08:02:00Z</time>
      </trkpt>
      <trkpt lat="45.68455" lon="6.05888">
        <ele>808.6</ele>
        <time>2021-08-28T08:02:01Z</time>
      </trkpt>
      <trkpt lat="45.68452" lon="6.05884">
        <ele>809</ele>
        <time>2021-08-28T08:02:03Z</time>
      </trkpt>
      <trkpt lat="45.6845" lon="6.05881">
        <ele>809.2</ele>
        <time>2021-08-28T08:02:04Z</time>
      </trkpt>
      <trkpt lat="45.68447" lon="6.05876">
        <ele>809.6</ele>
        <time>2021-08-28T08:02:05Z</time>
      </trkpt>
      <trkpt lat="45.68446" lon="6.05876">
        <ele>809.7</ele>
        <time>2021-08-28T08:02:07Z</time>
      </trkpt>
      <trkpt lat="45.68444" lon="6.05874">
        <ele>809.9</ele>
        <time>2021-08-28T08:02:08Z</time>
      </trkpt>
      <trkpt lat="45.68442" lon="6.05871">
        <ele>810.2</ele>
        <time>2021-08-28T08:02:09Z</time>
      </trkpt>
      <trkpt lat="45.68439" lon="6.05869">
        <ele>810.5</ele>
        <time>2021-08-28T08:02:11Z</time>
      </trkpt>
      <trkpt lat="45.68437" lon="6.05868">
        <ele>810.6</ele>
        <time>2021-08-28T08:02:12Z</time>
      </trkpt>
      <trkpt lat="45.68434" lon="6.05864">
        <ele>811</ele>
        <time>2021-08-28T08:02:14Z</time>
      </trkpt>
      <trkpt lat="45.68433" lon="6.05863">
        <ele>811.2</ele>
        <time>2021-08-28T08:02:15Z</time>
      </trkpt>
      <trkpt lat="45.6843" lon="6.05862">
        <ele>811.5</ele>
        <time>2021-08-28T08:02:17Z</time>
      </trkpt>
      <trkpt lat="45.68429" lon="6.05858">
        <ele>811.7</ele>
        <time>2021-08-28T08:02:18Z</time>
      </trkpt>
      <trkpt lat="45.68428" lon="6.05855">
        <ele>811.9</ele>
        <time>2021-08-28T08:02:20Z</time>
      </trkpt>
      <trkpt lat="45.68427" lon="6.05852">
        <ele>812.2</ele>
        <time>2021-08-28T08:02:22Z</time>
      </trkpt>
      <trkpt lat="45.68423" lon="6.05847">
        <ele>812.6</ele>
        <time>2021-08-28T08:02:25Z</time>
      </trkpt>
      <trkpt lat="45.68421" lon="6.05845">
        <ele>812.9</ele>
        <time>2021-08-28T08:02:26Z</time>
      </trkpt>
      <trkpt lat="45.68418" lon="6.0584">
        <ele>813.3</ele>
        <time>2021-08-28T08:02:28Z</time>
      </trkpt>
      <trkpt lat="45.68416" lon="6.05839">
        <ele>813.5</ele>
        <time>2021-08-28T08:02:29Z</time>
      </trkpt>
      <trkpt lat="45.68415" lon="6.05838">
        <ele>813.6</ele>
        <time>2021-08-28T08:02:30Z</time>
      </trkpt>
      <trkpt lat="45.68414" lon="6.05837">
        <ele>813.8</ele>
        <time>2021-08-28T08:02:31Z</time>
      </trkpt>
      <trkpt lat="45.68412" lon="6.05836">
        <ele>813.9</ele>
        <time>2021-08-28T08:02:32Z</time>
      </trkpt>
      <trkpt lat="45.68409" lon="6.05834">
        <ele>814.2</ele>
        <time>2021-08-28T08:02:35Z</time>
      </trkpt>
      <trkpt lat="45.68406" lon="6.05832">
        <ele>814.5</ele>
        <time>2021-08-28T08:02:37Z</time>
      </trkpt>
      <trkpt lat="45.68403" lon="6.05828">
        <ele>814.9</ele>
        <time>2021-08-28T08:02:38Z</time>
      </trkpt>
      <trkpt lat="45.68402" lon="6.05826">
        <ele>815.1</ele>
        <time>2021-08-28T08:02:41Z</time>
      </trkpt>
      <trkpt lat="45.684" lon="6.05823">
        <ele>815.3</ele>
        <time>2021-08-28T08:02:43Z</time>
      </trkpt>
      <trkpt lat="45.68399" lon="6.05821">
        <ele>815.5</ele>
        <time>2021-08-28T08:02:45Z</time>
      </trkpt>
      <trkpt lat="45.68397" lon="6.05818">
        <ele>815.7</ele>
        <time>2021-08-28T08:02:46Z</time>
      </trkpt>
      <trkpt lat="45.68396" lon="6.05816">
        <ele>815.9</ele>
        <time>2021-08-28T08:02:47Z</time>
      </trkpt>
      <trkpt lat="45.68393" lon="6.05813">
        <ele>816.2</ele>
        <time>2021-08-28T08:02:49Z</time>
      </trkpt>
      <trkpt lat="45.68391" lon="6.05813">
        <ele>816.4</ele>
        <time>2021-08-28T08:02:51Z</time>
      </trkpt>
      <trkpt lat="45.6839" lon="6.05812">
        <ele>816.5</ele>
        <time>2021-08-28T08:02:52Z</time>
      </trkpt>
      <trkpt lat="45.68386" lon="6.05809">
        <ele>816.9</ele>
        <time>2021-08-28T08:02:54Z</time>
      </trkpt>
      <trkpt lat="45.68382" lon="6.05807">
        <ele>817.2</ele>
        <time>2021-08-28T08:02:56Z</time>
      </trkpt>
      <trkpt lat="45.6838" lon="6.05808">
        <ele>817.4</ele>
        <time>2021-08-28T08:02:57Z</time>
      </trkpt>
      <trkpt lat="45.68378" lon="6.0581">
        <ele>817.7</ele>
        <time>2021-08-28T08:02:59Z</time>
      </trkpt>
      <trkpt lat="45.68377" lon="6.05812">
        <ele>817.8</ele>
        <time>2021-08-28T08:03:00Z</time>
      </trkpt>
      <trkpt lat="45.68372" lon="6.05811">
        <ele>818.3</ele>
        <time>2021-08-28T08:03:03Z</time>
      </trkpt>
      <trkpt lat="45.68371" lon="6.0581">
        <ele>818.4</ele>
        <time>2021-08-28T08:03:04Z</time>
      </trkpt>
      <trkpt lat="45.68366" lon="6.05809">
        <ele>818.8</ele>
        <time>2021-08-28T08:03:07Z</time>
      </trkpt>
      <trkpt lat="45.68363" lon="6.05808">
        <ele>819.1</ele>
        <time>2021-08-28T08:03:08Z</time>
      </trkpt>
      <trkpt lat="45.68362" lon="6.05808">
        <ele>819.1</ele>
        <time>2021-08-28T08:03:09Z</time>
      </trkpt>
      <trkpt lat="45.68359" lon="6.05808">
        <ele>819.4</ele>
        <time>2021-08-28T08:03:11Z</time>
      </trkpt>
      <trkpt lat="45.68359" lon="6.05808">
        <ele>819.5</ele>
        <time>2021-08-28T08:03:12Z</time>
      </trkpt>
      <trkpt lat="45.68354" lon="6.05806">
        <ele>819.9</ele>
        <time>2021-08-28T08:03:14Z</time>
      </trkpt>
      <trkpt lat="45.68352" lon="6.05806">
        <ele>820.1</ele>
        <time>2021-08-28T08:03:15Z</time>
      </trkpt>
      <trkpt lat="45.6835" lon="6.05806">
        <ele>820.2</ele>
        <time>2021-08-28T08:03:16Z</time>
      </trkpt>
      <trkpt lat="45.68349" lon="6.05802">
        <ele>820.5</ele>
        <time>2021-08-28T08:03:18Z</time>
      </trkpt>
      <trkpt lat="45.68345" lon="6.05796">
        <ele>820.9</ele>
        <time>2021-08-28T08:03:20Z</time>
      </trkpt>
      <trkpt lat="45.68343" lon="6.05793">
        <ele>821.2</ele>
        <time>2021-08-28T08:03:21Z</time>
      </trkpt>
      <trkpt lat="45.68341" lon="6.05792">
        <ele>821.4</ele>
        <time>2021-08-28T08:03:22Z</time>
      </trkpt>
      <trkpt lat="45.6834" lon="6.05791">
        <ele>821.6</ele>
        <time>2021-08-28T08:03:24Z</time>
      </trkpt>
      <trkpt lat="45.68336" lon="6.05787">
        <ele>822</ele>
        <time>2021-08-28T08:03:26Z</time>
      </trkpt>
      <trkpt lat="45.68334" lon="6.05785">
        <ele>822.1</ele>
        <time>2021-08-28T08:03:27Z</time>
      </trkpt>
      <trkpt lat="45.68333" lon="6.05783">
        <ele>822.3</ele>
        <time>2021-08-28T08:03:28Z</time>
      </trkpt>
      <trkpt lat="45.68331" lon="6.05781">
        <ele>822.5</ele>
        <time>2021-08-28T08:03:29Z</time>
      </trkpt>
      <trkpt lat="45.6833" lon="6.05781">
        <ele>822.6</ele>
        <time>2021-08-28T08:03:31Z</time>
      </trkpt>
      <trkpt lat="45.68328" lon="6.0578">
        <ele>822.7</ele>
        <time>2021-08-28T08:03:32Z</time>
      </trkpt>
      <trkpt lat="45.68326" lon="6.05777">
        <ele>823</ele>
        <time>2021-08-28T08:03:33Z</time>
      </trkpt>
      <trkpt lat="45.68324" lon="6.05775">
        <ele>823.2</ele>
        <time>2021-08-28T08:03:35Z</time>
      </trkpt>
      <trkpt lat="45.68322" lon="6.05773">
        <ele>823.5</ele>
        <time>2021-08-28T08:03:37Z</time>
      </trkpt>
      <trkpt lat="45.68318" lon="6.0577">
        <ele>823.8</ele>
        <time>2021-08-28T08:03:39Z</time>
      </trkpt>
      <trkpt lat="45.68316" lon="6.05768">
        <ele>824.1</ele>
        <time>2021-08-28T08:03:41Z</time>
      </trkpt>
      <trkpt lat="45.68314" lon="6.05765">
        <ele>824.3</ele>
        <time>2021-08-28T08:03:43Z</time>
      </trkpt>
      <trkpt lat="45.68312" lon="6.0576">
        <ele>824.5</ele>
        <time>2021-08-28T08:03:45Z</time>
      </trkpt>
      <trkpt lat="45.6831" lon="6.05756">
        <ele>824.7</ele>
        <time>2021-08-28T08:03:46Z</time>
      </trkpt>
      <trkpt lat="45.68309" lon="6.05754">
        <ele>824.8</ele>
        <time>2021-08-28T08:03:48Z</time>
      </trkpt>
      <trkpt lat="45.68308" lon="6.05749">
        <ele>825</ele>
        <time>2021-08-28T08:03:50Z</time>
      </trkpt>
      <trkpt lat="45.68308" lon="6.05745">
        <ele>825.1</ele>
        <time>2021-08-28T08:03:52Z</time>
      </trkpt>
      <trkpt lat="45.68305" lon="6.05739">
        <ele>825.3</ele>
        <time>2021-08-28T08:03:55Z</time>
      </trkpt>
      <trkpt lat="45.68305" lon="6.05737">
        <ele>825.4</ele>
        <time>2021-08-28T08:03:56Z</time>
      </trkpt>
      <trkpt lat="45.68304" lon="6.05733">
        <ele>825.6</ele>
        <time>2021-08-28T08:03:58Z</time>
      </trkpt>
      <trkpt lat="45.68301" lon="6.05729">
        <ele>826</ele>
        <time>2021-08-28T08:04:00Z</time>
      </trkpt>
      <trkpt lat="45.68298" lon="6.05724">
        <ele>826.4</ele>
        <time>2021-08-28T08:04:02Z</time>
      </trkpt>
      <trkpt lat="45.68294" lon="6.05721">
        <ele>826.8</ele>
        <time>2021-08-28T08:04:04Z</time>
      </trkpt>
      <trkpt lat="45.68291" lon="6.05717">
        <ele>827.2</ele>
        <time>2021-08-28T08:04:06Z</time>
      </trkpt>
      <trkpt lat="45.68288" lon="6.05714">
        <ele>827.5</ele>
        <time>2021-08-28T08:04:09Z</time>
      </trkpt>
      <trkpt lat="45.68285" lon="6.05712">
        <ele>827.8</ele>
        <time>2021-08-28T08:04:10Z</time>
      </trkpt>
      <trkpt lat="45.68283" lon="6.05709">
        <ele>828</ele>
        <time>2021-08-28T08:04:11Z</time>
      </trkpt>
      <trkpt lat="45.68282" lon="6.05707">
        <ele>828.2</ele>
        <time>2021-08-28T08:04:13Z</time>
      </trkpt>
      <trkpt lat="45.6828" lon="6.05705">
        <ele>828.4</ele>
        <time>2021-08-28T08:04:14Z</time>
      </trkpt>
      <trkpt lat="45.68278" lon="6.05702">
        <ele>828.7</ele>
        <time>2021-08-28T08:04:16Z</time>
      </trkpt>
      <trkpt lat="45.68277" lon="6.057">
        <ele>828.8</ele>
        <time>2021-08-28T08:04:17Z</time>
      </trkpt>
      <trkpt lat="45.68274" lon="6.05698">
        <ele>829.1</ele>
        <time>2021-08-28T08:04:19Z</time>
      </trkpt>
      <trkpt lat="45.6827" lon="6.05696">
        <ele>829.5</ele>
        <time>2021-08-28T08:04:21Z</time>
      </trkpt>
      <trkpt lat="45.68268" lon="6.05694">
        <ele>829.7</ele>
        <time>2021-08-28T08:04:22Z</time>
      </trkpt>
      <trkpt lat="45.68265" lon="6.05692">
        <ele>829.9</ele>
        <time>2021-08-28T08:04:24Z</time>
      </trkpt>
      <trkpt lat="45.68264" lon="6.0569">
        <ele>830.1</ele>
        <time>2021-08-28T08:04:25Z</time>
      </trkpt>
      <trkpt lat="45.68261" lon="6.05687">
        <ele>830.4</ele>
        <time>2021-08-28T08:04:27Z</time>
      </trkpt>
      <trkpt lat="45.68258" lon="6.05684">
        <ele>830.7</ele>
        <time>2021-08-28T08:04:29Z</time>
      </trkpt>
      <trkpt lat="45.68257" lon="6.05682">
        <ele>830.9</ele>
        <time>2021-08-28T08:04:30Z</time>
      </trkpt>
      <trkpt lat="45.68256" lon="6.05681">
        <ele>831</ele>
        <time>2021-08-28T08:04:31Z</time>
      </trkpt>
      <trkpt lat="45.68253" lon="6.05677">
        <ele>831.4</ele>
        <time>2021-08-28T08:04:32Z</time>
      </trkpt>
      <trkpt lat="45.68252" lon="6.05674">
        <ele>831.5</ele>
        <time>2021-08-28T08:04:33Z</time>
      </trkpt>
      <trkpt lat="45.6825" lon="6.05672">
        <ele>831.8</ele>
        <time>2021-08-28T08:04:35Z</time>
      </trkpt>
      <trkpt lat="45.68249" lon="6.05671">
        <ele>831.9</ele>
        <time>2021-08-28T08:04:36Z</time>
      </trkpt>
      <trkpt lat="45.68247" lon="6.05668">
        <ele>832.2</ele>
        <time>2021-08-28T08:04:38Z</time>
      </trkpt>
      <trkpt lat="45.68246" lon="6.05666">
        <ele>832.3</ele>
        <time>2021-08-28T08:04:39Z</time>
      </trkpt>
      <trkpt lat="45.68243" lon="6.05662">
        <ele>832.7</ele>
        <time>2021-08-28T08:04:41Z</time>
      </trkpt>
      <trkpt lat="45.68243" lon="6.0566">
        <ele>832.8</ele>
        <time>2021-08-28T08:04:44Z</time>
      </trkpt>
      <trkpt lat="45.68242" lon="6.05659">
        <ele>833</ele>
        <time>2021-08-28T08:04:45Z</time>
      </trkpt>
      <trkpt lat="45.68241" lon="6.05657">
        <ele>833.1</ele>
        <time>2021-08-28T08:04:46Z</time>
      </trkpt>
      <trkpt lat="45.6824" lon="6.05655">
        <ele>833.3</ele>
        <time>2021-08-28T08:04:47Z</time>
      </trkpt>
      <trkpt lat="45.68238" lon="6.05652">
        <ele>833.5</ele>
        <time>2021-08-28T08:04:48Z</time>
      </trkpt>
      <trkpt lat="45.68237" lon="6.05651">
        <ele>833.6</ele>
        <time>2021-08-28T08:04:49Z</time>
      </trkpt>
      <trkpt lat="45.68236" lon="6.0565">
        <ele>833.8</ele>
        <time>2021-08-28T08:04:50Z</time>
      </trkpt>
      <trkpt lat="45.68235" lon="6.05648">
        <ele>833.9</ele>
        <time>2021-08-28T08:04:51Z</time>
      </trkpt>
      <trkpt lat="45.68233" lon="6.05645">
        <ele>834.2</ele>
        <time>2021-08-28T08:04:52Z</time>
      </trkpt>
      <trkpt lat="45.68233" lon="6.05644">
        <ele>834.2</ele>
        <time>2021-08-28T08:04:53Z</time>
      </trkpt>
      <trkpt lat="45.68232" lon="6.05642">
        <ele>834.4</ele>
        <time>2021-08-28T08:04:54Z</time>
      </trkpt>
      <trkpt lat="45.6823" lon="6.05641">
        <ele>834.6</ele>
        <time>2021-08-28T08:04:55Z</time>
      </trkpt>
      <trkpt lat="45.6823" lon="6.05639">
        <ele>834.7</ele>
        <time>2021-08-28T08:04:56Z</time>
      </trkpt>
      <trkpt lat="45.68229" lon="6.05637">
        <ele>834.9</ele>
        <time>2021-08-28T08:04:57Z</time>
      </trkpt>
      <trkpt lat="45.68228" lon="6.05635">
        <ele>835</ele>
        <time>2021-08-28T08:04:58Z</time>
      </trkpt>
      <trkpt lat="45.68227" lon="6.05633">
        <ele>835.2</ele>
        <time>2021-08-28T08:04:59Z</time>
      </trkpt>
      <trkpt lat="45.68225" lon="6.0563">
        <ele>835.4</ele>
        <time>2021-08-28T08:05:00Z</time>
      </trkpt>
      <trkpt lat="45.68224" lon="6.05628">
        <ele>835.6</ele>
        <time>2021-08-28T08:05:01Z</time>
      </trkpt>
      <trkpt lat="45.68223" lon="6.05627">
        <ele>835.7</ele>
        <time>2021-08-28T08:05:02Z</time>
      </trkpt>
      <trkpt lat="45.68222" lon="6.05625">
        <ele>835.9</ele>
        <time>2021-08-28T08:05:03Z</time>
      </trkpt>
      <trkpt lat="45.6822" lon="6.05622">
        <ele>836.1</ele>
        <time>2021-08-28T08:05:04Z</time>
      </trkpt>
      <trkpt lat="45.68219" lon="6.05621">
        <ele>836.2</ele>
        <time>2021-08-28T08:05:05Z</time>
      </trkpt>
      <trkpt lat="45.68217" lon="6.05618">
        <ele>836.5</ele>
        <time>2021-08-28T08:05:06Z</time>
      </trkpt>
      <trkpt lat="45.68216" lon="6.05618">
        <ele>836.6</ele>
        <time>2021-08-28T08:05:07Z</time>
      </trkpt>
      <trkpt lat="45.68215" lon="6.05615">
        <ele>836.8</ele>
        <time>2021-08-28T08:05:08Z</time>
      </trkpt>
      <trkpt lat="45.68215" lon="6.05614">
        <ele>836.9</ele>
        <time>2021-08-28T08:05:09Z</time>
      </trkpt>
      <trkpt lat="45.68215" lon="6.05613">
        <ele>836.9</ele>
        <time>2021-08-28T08:05:10Z</time>
      </trkpt>
      <trkpt lat="45.68214" lon="6.05611">
        <ele>837.1</ele>
        <time>2021-08-28T08:05:11Z</time>
      </trkpt>
      <trkpt lat="45.68213" lon="6.0561">
        <ele>837.2</ele>
        <time>2021-08-28T08:05:12Z</time>
      </trkpt>
      <trkpt lat="45.68212" lon="6.05608">
        <ele>837.3</ele>
        <time>2021-08-28T08:05:13Z</time>
      </trkpt>
      <trkpt lat="45.68211" lon="6.05606">
        <ele>837.5</ele>
        <time>2021-08-28T08:05:14Z</time>
      </trkpt>
      <trkpt lat="45.6821" lon="6.05602">
        <ele>837.8</ele>
        <time>2021-08-28T08:05:15Z</time>
      </trkpt>
      <trkpt lat="45.68209" lon="6.05601">
        <ele>837.9</ele>
        <time>2021-08-28T08:05:16Z</time>
      </trkpt>
      <trkpt lat="45.68207" lon="6.05597">
        <ele>838.2</ele>
        <time>2021-08-28T08:05:17Z</time>
      </trkpt>
      <trkpt lat="45.68207" lon="6.05596">
        <ele>838.2</ele>
        <time>2021-08-28T08:05:18Z</time>
      </trkpt>
      <trkpt lat="45.68205" lon="6.05592">
        <ele>838.5</ele>
        <time>2021-08-28T08:05:19Z</time>
      </trkpt>
      <trkpt lat="45.68205" lon="6.05591">
        <ele>838.6</ele>
        <time>2021-08-28T08:05:20Z</time>
      </trkpt>
      <trkpt lat="45.68204" lon="6.05589">
        <ele>838.8</ele>
        <time>2021-08-28T08:05:21Z</time>
      </trkpt>
      <trkpt lat="45.68202" lon="6.05588">
        <ele>838.9</ele>
        <time>2021-08-28T08:05:22Z</time>
      </trkpt>
      <trkpt lat="45.68201" lon="6.05587">
        <ele>839.1</ele>
        <time>2021-08-28T08:05:23Z</time>
      </trkpt>
      <trkpt lat="45.682" lon="6.05585">
        <ele>839.2</ele>
        <time>2021-08-28T08:05:24Z</time>
      </trkpt>
      <trkpt lat="45.68198" lon="6.05583">
        <ele>839.4</ele>
        <time>2021-08-28T08:05:25Z</time>
      </trkpt>
      <trkpt lat="45.68198" lon="6.05581">
        <ele>839.5</ele>
        <time>2021-08-28T08:05:26Z</time>
      </trkpt>
      <trkpt lat="45.68197" lon="6.05579">
        <ele>839.7</ele>
        <time>2021-08-28T08:05:27Z</time>
      </trkpt>
      <trkpt lat="45.68196" lon="6.05577">
        <ele>839.8</ele>
        <time>2021-08-28T08:05:28Z</time>
      </trkpt>
      <trkpt lat="45.68195" lon="6.05576">
        <ele>839.9</ele>
        <time>2021-08-28T08:05:29Z</time>
      </trkpt>
      <trkpt lat="45.68194" lon="6.05574">
        <ele>840.1</ele>
        <time>2021-08-28T08:05:30Z</time>
      </trkpt>
      <trkpt lat="45.68194" lon="6.05572">
        <ele>840.2</ele>
        <time>2021-08-28T08:05:31Z</time>
      </trkpt>
      <trkpt lat="45.68193" lon="6.0557">
        <ele>840.4</ele>
        <time>2021-08-28T08:05:32Z</time>
      </trkpt>
      <trkpt lat="45.68192" lon="6.05569">
        <ele>840.5</ele>
        <time>2021-08-28T08:05:33Z</time>
      </trkpt>
      <trkpt lat="45.68191" lon="6.05567">
        <ele>840.6</ele>
        <time>2021-08-28T08:05:34Z</time>
      </trkpt>
      <trkpt lat="45.6819" lon="6.05564">
        <ele>840.8</ele>
        <time>2021-08-28T08:05:35Z</time>
      </trkpt>
      <trkpt lat="45.6819" lon="6.05563">
        <ele>840.9</ele>
        <time>2021-08-28T08:05:36Z</time>
      </trkpt>
      <trkpt lat="45.68189" lon="6.05561">
        <ele>841.1</ele>
        <time>2021-08-28T08:05:37Z</time>
      </trkpt>
      <trkpt lat="45.68187" lon="6.05559">
        <ele>841.2</ele>
        <time>2021-08-28T08:05:38Z</time>
      </trkpt>
      <trkpt lat="45.68185" lon="6.05557">
        <ele>841.5</ele>
        <time>2021-08-28T08:05:39Z</time>
      </trkpt>
      <trkpt lat="45.68184" lon="6.05556">
        <ele>841.6</ele>
        <time>2021-08-28T08:05:40Z</time>
      </trkpt>
      <trkpt lat="45.68181" lon="6.05553">
        <ele>841.9</ele>
        <time>2021-08-28T08:05:41Z</time>
      </trkpt>
      <trkpt lat="45.6818" lon="6.05551">
        <ele>842</ele>
        <time>2021-08-28T08:05:42Z</time>
      </trkpt>
      <trkpt lat="45.68178" lon="6.05548">
        <ele>842.3</ele>
        <time>2021-08-28T08:05:43Z</time>
      </trkpt>
      <trkpt lat="45.68174" lon="6.05544">
        <ele>842.8</ele>
        <time>2021-08-28T08:05:45Z</time>
      </trkpt>
      <trkpt lat="45.68171" lon="6.05543">
        <ele>843</ele>
        <time>2021-08-28T08:05:46Z</time>
      </trkpt>
      <trkpt lat="45.68168" lon="6.0554">
        <ele>843.4</ele>
        <time>2021-08-28T08:05:48Z</time>
      </trkpt>
      <trkpt lat="45.68165" lon="6.05539">
        <ele>843.7</ele>
        <time>2021-08-28T08:05:50Z</time>
      </trkpt>
      <trkpt lat="45.68162" lon="6.05539">
        <ele>843.9</ele>
        <time>2021-08-28T08:05:51Z</time>
      </trkpt>
      <trkpt lat="45.6816" lon="6.05536">
        <ele>844.2</ele>
        <time>2021-08-28T08:05:54Z</time>
      </trkpt>
      <trkpt lat="45.6816" lon="6.05534">
        <ele>844.3</ele>
        <time>2021-08-28T08:05:55Z</time>
      </trkpt>
      <trkpt lat="45.68156" lon="6.0553">
        <ele>844.7</ele>
        <time>2021-08-28T08:05:56Z</time>
      </trkpt>
      <trkpt lat="45.68154" lon="6.05527">
        <ele>845</ele>
        <time>2021-08-28T08:05:57Z</time>
      </trkpt>
      <trkpt lat="45.68151" lon="6.05524">
        <ele>845.3</ele>
        <time>2021-08-28T08:05:59Z</time>
      </trkpt>
      <trkpt lat="45.68148" lon="6.05521">
        <ele>845.6</ele>
        <time>2021-08-28T08:06:00Z</time>
      </trkpt>
      <trkpt lat="45.68147" lon="6.05519">
        <ele>845.8</ele>
        <time>2021-08-28T08:06:01Z</time>
      </trkpt>
      <trkpt lat="45.68146" lon="6.05516">
        <ele>846</ele>
        <time>2021-08-28T08:06:03Z</time>
      </trkpt>
      <trkpt lat="45.68144" lon="6.05513">
        <ele>846.3</ele>
        <time>2021-08-28T08:06:04Z</time>
      </trkpt>
      <trkpt lat="45.68142" lon="6.05511">
        <ele>846.4</ele>
        <time>2021-08-28T08:06:05Z</time>
      </trkpt>
      <trkpt lat="45.68141" lon="6.0551">
        <ele>846.5</ele>
        <time>2021-08-28T08:06:07Z</time>
      </trkpt>
      <trkpt lat="45.6814" lon="6.05507">
        <ele>846.7</ele>
        <time>2021-08-28T08:06:08Z</time>
      </trkpt>
      <trkpt lat="45.68138" lon="6.05503">
        <ele>847</ele>
        <time>2021-08-28T08:06:10Z</time>
      </trkpt>
      <trkpt lat="45.68135" lon="6.055">
        <ele>847.3</ele>
        <time>2021-08-28T08:06:11Z</time>
      </trkpt>
      <trkpt lat="45.68134" lon="6.05499">
        <ele>847.4</ele>
        <time>2021-08-28T08:06:12Z</time>
      </trkpt>
      <trkpt lat="45.68133" lon="6.05498">
        <ele>847.5</ele>
        <time>2021-08-28T08:06:13Z</time>
      </trkpt>
      <trkpt lat="45.6813" lon="6.05495">
        <ele>847.9</ele>
        <time>2021-08-28T08:06:15Z</time>
      </trkpt>
      <trkpt lat="45.68126" lon="6.05491">
        <ele>848.2</ele>
        <time>2021-08-28T08:06:17Z</time>
      </trkpt>
      <trkpt lat="45.68125" lon="6.05488">
        <ele>848.4</ele>
        <time>2021-08-28T08:06:19Z</time>
      </trkpt>
      <trkpt lat="45.68122" lon="6.05483">
        <ele>848.8</ele>
        <time>2021-08-28T08:06:21Z</time>
      </trkpt>
      <trkpt lat="45.68121" lon="6.05483">
        <ele>848.9</ele>
        <time>2021-08-28T08:06:23Z</time>
      </trkpt>
      <trkpt lat="45.68118" lon="6.05481">
        <ele>849.2</ele>
        <time>2021-08-28T08:06:25Z</time>
      </trkpt>
      <trkpt lat="45.68115" lon="6.05479">
        <ele>849.5</ele>
        <time>2021-08-28T08:06:26Z</time>
      </trkpt>
      <trkpt lat="45.68114" lon="6.05478">
        <ele>849.6</ele>
        <time>2021-08-28T08:06:27Z</time>
      </trkpt>
      <trkpt lat="45.68112" lon="6.05477">
        <ele>849.8</ele>
        <time>2021-08-28T08:06:29Z</time>
      </trkpt>
      <trkpt lat="45.68108" lon="6.05474">
        <ele>850.2</ele>
        <time>2021-08-28T08:06:32Z</time>
      </trkpt>
      <trkpt lat="45.68105" lon="6.0547">
        <ele>850.5</ele>
        <time>2021-08-28T08:06:34Z</time>
      </trkpt>
      <trkpt lat="45.68101" lon="6.05468">
        <ele>850.9</ele>
        <time>2021-08-28T08:06:37Z</time>
      </trkpt>
      <trkpt lat="45.68099" lon="6.05465">
        <ele>851.1</ele>
        <time>2021-08-28T08:06:38Z</time>
      </trkpt>
      <trkpt lat="45.68097" lon="6.05463">
        <ele>851.3</ele>
        <time>2021-08-28T08:06:41Z</time>
      </trkpt>
      <trkpt lat="45.68094" lon="6.0546">
        <ele>851.6</ele>
        <time>2021-08-28T08:06:42Z</time>
      </trkpt>
      <trkpt lat="45.68091" lon="6.05458">
        <ele>851.9</ele>
        <time>2021-08-28T08:06:44Z</time>
      </trkpt>
      <trkpt lat="45.6809" lon="6.05456">
        <ele>852</ele>
        <time>2021-08-28T08:06:45Z</time>
      </trkpt>
      <trkpt lat="45.68087" lon="6.05454">
        <ele>852.3</ele>
        <time>2021-08-28T08:06:47Z</time>
      </trkpt>
      <trkpt lat="45.68086" lon="6.05453">
        <ele>852.4</ele>
        <time>2021-08-28T08:06:48Z</time>
      </trkpt>
      <trkpt lat="45.68083" lon="6.05451">
        <ele>852.7</ele>
        <time>2021-08-28T08:06:49Z</time>
      </trkpt>
      <trkpt lat="45.68082" lon="6.0545">
        <ele>852.8</ele>
        <time>2021-08-28T08:06:50Z</time>
      </trkpt>
      <trkpt lat="45.68081" lon="6.05448">
        <ele>852.9</ele>
        <time>2021-08-28T08:06:51Z</time>
      </trkpt>
      <trkpt lat="45.68079" lon="6.05446">
        <ele>853.1</ele>
        <time>2021-08-28T08:06:52Z</time>
      </trkpt>
      <trkpt lat="45.68077" lon="6.05445">
        <ele>853.3</ele>
        <time>2021-08-28T08:06:54Z</time>
      </trkpt>
      <trkpt lat="45.68074" lon="6.05441">
        <ele>853.6</ele>
        <time>2021-08-28T08:06:55Z</time>
      </trkpt>
      <trkpt lat="45.68073" lon="6.05439">
        <ele>853.8</ele>
        <time>2021-08-28T08:06:56Z</time>
      </trkpt>
      <trkpt lat="45.6807" lon="6.05436">
        <ele>854.1</ele>
        <time>2021-08-28T08:06:58Z</time>
      </trkpt>
      <trkpt lat="45.68069" lon="6.05434">
        <ele>854.3</ele>
        <time>2021-08-28T08:06:59Z</time>
      </trkpt>
      <trkpt lat="45.68068" lon="6.05433">
        <ele>854.4</ele>
        <time>2021-08-28T08:07:00Z</time>
      </trkpt>
      <trkpt lat="45.68066" lon="6.05433">
        <ele>854.5</ele>
        <time>2021-08-28T08:07:01Z</time>
      </trkpt>
      <trkpt lat="45.68063" lon="6.05429">
        <ele>854.9</ele>
        <time>2021-08-28T08:07:03Z</time>
      </trkpt>
      <trkpt lat="45.68061" lon="6.05427">
        <ele>855.1</ele>
        <time>2021-08-28T08:07:04Z</time>
      </trkpt>
      <trkpt lat="45.68061" lon="6.05426">
        <ele>855.2</ele>
        <time>2021-08-28T08:07:06Z</time>
      </trkpt>
      <trkpt lat="45.68059" lon="6.05424">
        <ele>855.4</ele>
        <time>2021-08-28T08:07:07Z</time>
      </trkpt>
      <trkpt lat="45.68057" lon="6.05421">
        <ele>855.7</ele>
        <time>2021-08-28T08:07:08Z</time>
      </trkpt>
      <trkpt lat="45.68053" lon="6.05416">
        <ele>856.1</ele>
        <time>2021-08-28T08:07:10Z</time>
      </trkpt>
      <trkpt lat="45.68052" lon="6.05414">
        <ele>856.2</ele>
        <time>2021-08-28T08:07:11Z</time>
      </trkpt>
      <trkpt lat="45.6805" lon="6.0541">
        <ele>856.5</ele>
        <time>2021-08-28T08:07:13Z</time>
      </trkpt>
      <trkpt lat="45.6805" lon="6.0541">
        <ele>856.6</ele>
        <time>2021-08-28T08:07:14Z</time>
      </trkpt>
      <trkpt lat="45.68048" lon="6.05406">
        <ele>856.8</ele>
        <time>2021-08-28T08:07:16Z</time>
      </trkpt>
      <trkpt lat="45.68048" lon="6.05405">
        <ele>856.9</ele>
        <time>2021-08-28T08:07:17Z</time>
      </trkpt>
      <trkpt lat="45.68046" lon="6.05402">
        <ele>857.2</ele>
        <time>2021-08-28T08:07:18Z</time>
      </trkpt>
      <trkpt lat="45.68042" lon="6.05397">
        <ele>857.6</ele>
        <time>2021-08-28T08:07:20Z</time>
      </trkpt>
      <trkpt lat="45.68041" lon="6.05395">
        <ele>857.7</ele>
        <time>2021-08-28T08:07:21Z</time>
      </trkpt>
      <trkpt lat="45.68039" lon="6.05394">
        <ele>857.9</ele>
        <time>2021-08-28T08:07:22Z</time>
      </trkpt>
      <trkpt lat="45.68038" lon="6.05393">
        <ele>858</ele>
        <time>2021-08-28T08:07:23Z</time>
      </trkpt>
      <trkpt lat="45.68037" lon="6.05392">
        <ele>858.2</ele>
        <time>2021-08-28T08:07:25Z</time>
      </trkpt>
      <trkpt lat="45.68035" lon="6.05391">
        <ele>858.3</ele>
        <time>2021-08-28T08:07:26Z</time>
      </trkpt>
      <trkpt lat="45.68032" lon="6.05387">
        <ele>858.7</ele>
        <time>2021-08-28T08:07:28Z</time>
      </trkpt>
      <trkpt lat="45.68028" lon="6.05384">
        <ele>859.1</ele>
        <time>2021-08-28T08:07:30Z</time>
      </trkpt>
      <trkpt lat="45.68028" lon="6.05382">
        <ele>859.2</ele>
        <time>2021-08-28T08:07:31Z</time>
      </trkpt>
      <trkpt lat="45.68026" lon="6.05381">
        <ele>859.4</ele>
        <time>2021-08-28T08:07:32Z</time>
      </trkpt>
      <trkpt lat="45.68023" lon="6.05378">
        <ele>859.7</ele>
        <time>2021-08-28T08:07:33Z</time>
      </trkpt>
      <trkpt lat="45.68021" lon="6.05375">
        <ele>860</ele>
        <time>2021-08-28T08:07:35Z</time>
      </trkpt>
      <trkpt lat="45.6802" lon="6.05373">
        <ele>860</ele>
        <time>2021-08-28T08:07:36Z</time>
      </trkpt>
      <trkpt lat="45.68018" lon="6.0537">
        <ele>860.3</ele>
        <time>2021-08-28T08:07:37Z</time>
      </trkpt>
      <trkpt lat="45.68017" lon="6.05368">
        <ele>860.5</ele>
        <time>2021-08-28T08:07:38Z</time>
      </trkpt>
      <trkpt lat="45.68011" lon="6.05363">
        <ele>861.1</ele>
        <time>2021-08-28T08:07:41Z</time>
      </trkpt>
      <trkpt lat="45.6801" lon="6.05361">
        <ele>861.3</ele>
        <time>2021-08-28T08:07:43Z</time>
      </trkpt>
      <trkpt lat="45.68008" lon="6.05359">
        <ele>861.5</ele>
        <time>2021-08-28T08:07:44Z</time>
      </trkpt>
      <trkpt lat="45.68006" lon="6.05357">
        <ele>861.7</ele>
        <time>2021-08-28T08:07:45Z</time>
      </trkpt>
      <trkpt lat="45.68004" lon="6.05355">
        <ele>861.9</ele>
        <time>2021-08-28T08:07:46Z</time>
      </trkpt>
      <trkpt lat="45.68003" lon="6.05354">
        <ele>862</ele>
        <time>2021-08-28T08:07:48Z</time>
      </trkpt>
      <trkpt lat="45.68001" lon="6.05352">
        <ele>862.2</ele>
        <time>2021-08-28T08:07:49Z</time>
      </trkpt>
      <trkpt lat="45.67998" lon="6.05346">
        <ele>862.6</ele>
        <time>2021-08-28T08:07:51Z</time>
      </trkpt>
      <trkpt lat="45.67995" lon="6.05344">
        <ele>863</ele>
        <time>2021-08-28T08:07:52Z</time>
      </trkpt>
      <trkpt lat="45.67993" lon="6.05343">
        <ele>863.1</ele>
        <time>2021-08-28T08:07:53Z</time>
      </trkpt>
      <trkpt lat="45.67991" lon="6.0534">
        <ele>863.4</ele>
        <time>2021-08-28T08:07:55Z</time>
      </trkpt>
      <trkpt lat="45.67989" lon="6.05338">
        <ele>863.6</ele>
        <time>2021-08-28T08:07:57Z</time>
      </trkpt>
      <trkpt lat="45.67985" lon="6.05335">
        <ele>864</ele>
        <time>2021-08-28T08:08:00Z</time>
      </trkpt>
      <trkpt lat="45.67984" lon="6.05334">
        <ele>864.1</ele>
        <time>2021-08-28T08:08:01Z</time>
      </trkpt>
      <trkpt lat="45.67983" lon="6.05332">
        <ele>864.3</ele>
        <time>2021-08-28T08:08:02Z</time>
      </trkpt>
      <trkpt lat="45.6798" lon="6.05329">
        <ele>864.6</ele>
        <time>2021-08-28T08:08:04Z</time>
      </trkpt>
      <trkpt lat="45.67979" lon="6.05326">
        <ele>864.8</ele>
        <time>2021-08-28T08:08:05Z</time>
      </trkpt>
      <trkpt lat="45.67977" lon="6.05323">
        <ele>865.1</ele>
        <time>2021-08-28T08:08:07Z</time>
      </trkpt>
      <trkpt lat="45.67974" lon="6.05321">
        <ele>865.4</ele>
        <time>2021-08-28T08:08:09Z</time>
      </trkpt>
      <trkpt lat="45.67969" lon="6.05317">
        <ele>865.8</ele>
        <time>2021-08-28T08:08:11Z</time>
      </trkpt>
      <trkpt lat="45.67967" lon="6.05316">
        <ele>866.1</ele>
        <time>2021-08-28T08:08:13Z</time>
      </trkpt>
      <trkpt lat="45.67964" lon="6.05314">
        <ele>866.3</ele>
        <time>2021-08-28T08:08:15Z</time>
      </trkpt>
      <trkpt lat="45.67962" lon="6.05312">
        <ele>866.5</ele>
        <time>2021-08-28T08:08:16Z</time>
      </trkpt>
      <trkpt lat="45.67961" lon="6.0531">
        <ele>866.7</ele>
        <time>2021-08-28T08:08:18Z</time>
      </trkpt>
      <trkpt lat="45.67958" lon="6.05306">
        <ele>867.1</ele>
        <time>2021-08-28T08:08:20Z</time>
      </trkpt>
      <trkpt lat="45.67956" lon="6.05303">
        <ele>867.3</ele>
        <time>2021-08-28T08:08:21Z</time>
      </trkpt>
      <trkpt lat="45.67954" lon="6.05302">
        <ele>867.5</ele>
        <time>2021-08-28T08:08:23Z</time>
      </trkpt>
      <trkpt lat="45.67952" lon="6.05299">
        <ele>867.8</ele>
        <time>2021-08-28T08:08:25Z</time>
      </trkpt>
      <trkpt lat="45.67948" lon="6.05296">
        <ele>868.1</ele>
        <time>2021-08-28T08:08:27Z</time>
      </trkpt>
      <trkpt lat="45.67947" lon="6.05295">
        <ele>868.2</ele>
        <time>2021-08-28T08:08:28Z</time>
      </trkpt>
      <trkpt lat="45.67946" lon="6.05294">
        <ele>868.4</ele>
        <time>2021-08-28T08:08:29Z</time>
      </trkpt>
      <trkpt lat="45.67945" lon="6.05293">
        <ele>868.5</ele>
        <time>2021-08-28T08:08:30Z</time>
      </trkpt>
      <trkpt lat="45.67943" lon="6.05289">
        <ele>868.8</ele>
        <time>2021-08-28T08:08:32Z</time>
      </trkpt>
      <trkpt lat="45.67942" lon="6.05286">
        <ele>869</ele>
        <time>2021-08-28T08:08:34Z</time>
      </trkpt>
      <trkpt lat="45.67939" lon="6.0528">
        <ele>869.4</ele>
        <time>2021-08-28T08:08:37Z</time>
      </trkpt>
      <trkpt lat="45.67939" lon="6.05277">
        <ele>869.6</ele>
        <time>2021-08-28T08:08:38Z</time>
      </trkpt>
      <trkpt lat="45.67938" lon="6.05272">
        <ele>870</ele>
        <time>2021-08-28T08:08:40Z</time>
      </trkpt>
      <trkpt lat="45.67938" lon="6.0527">
        <ele>870.1</ele>
        <time>2021-08-28T08:08:41Z</time>
      </trkpt>
      <trkpt lat="45.67935" lon="6.05267">
        <ele>870.5</ele>
        <time>2021-08-28T08:08:43Z</time>
      </trkpt>
      <trkpt lat="45.67933" lon="6.05262">
        <ele>870.8</ele>
        <time>2021-08-28T08:08:45Z</time>
      </trkpt>
      <trkpt lat="45.67931" lon="6.05257">
        <ele>871.1</ele>
        <time>2021-08-28T08:08:46Z</time>
      </trkpt>
      <trkpt lat="45.67931" lon="6.05256">
        <ele>871.3</ele>
        <time>2021-08-28T08:08:47Z</time>
      </trkpt>
      <trkpt lat="45.67929" lon="6.05254">
        <ele>871.5</ele>
        <time>2021-08-28T08:08:48Z</time>
      </trkpt>
      <trkpt lat="45.67927" lon="6.05249">
        <ele>871.8</ele>
        <time>2021-08-28T08:08:50Z</time>
      </trkpt>
      <trkpt lat="45.67926" lon="6.05247">
        <ele>872</ele>
        <time>2021-08-28T08:08:51Z</time>
      </trkpt>
      <trkpt lat="45.67924" lon="6.05242">
        <ele>872.3</ele>
        <time>2021-08-28T08:08:53Z</time>
      </trkpt>
      <trkpt lat="45.67923" lon="6.0524">
        <ele>872.5</ele>
        <time>2021-08-28T08:08:54Z</time>
      </trkpt>
      <trkpt lat="45.67921" lon="6.05236">
        <ele>872.8</ele>
        <time>2021-08-28T08:08:56Z</time>
      </trkpt>
      <trkpt lat="45.6792" lon="6.05235">
        <ele>872.9</ele>
        <time>2021-08-28T08:08:57Z</time>
      </trkpt>
      <trkpt lat="45.67918" lon="6.05232">
        <ele>873.1</ele>
        <time>2021-08-28T08:08:59Z</time>
      </trkpt>
      <trkpt lat="45.67916" lon="6.0523">
        <ele>873.4</ele>
        <time>2021-08-28T08:09:00Z</time>
      </trkpt>
      <trkpt lat="45.67914" lon="6.05228">
        <ele>873.5</ele>
        <time>2021-08-28T08:09:02Z</time>
      </trkpt>
      <trkpt lat="45.67913" lon="6.05226">
        <ele>873.7</ele>
        <time>2021-08-28T08:09:03Z</time>
      </trkpt>
      <trkpt lat="45.67912" lon="6.05224">
        <ele>873.9</ele>
        <time>2021-08-28T08:09:04Z</time>
      </trkpt>
      <trkpt lat="45.6791" lon="6.05221">
        <ele>874.1</ele>
        <time>2021-08-28T08:09:05Z</time>
      </trkpt>
      <trkpt lat="45.67909" lon="6.05219">
        <ele>874.3</ele>
        <time>2021-08-28T08:09:06Z</time>
      </trkpt>
      <trkpt lat="45.67908" lon="6.05217">
        <ele>874.5</ele>
        <time>2021-08-28T08:09:08Z</time>
      </trkpt>
      <trkpt lat="45.67905" lon="6.05214">
        <ele>874.7</ele>
        <time>2021-08-28T08:09:10Z</time>
      </trkpt>
      <trkpt lat="45.67903" lon="6.05211">
        <ele>875</ele>
        <time>2021-08-28T08:09:11Z</time>
      </trkpt>
      <trkpt lat="45.67902" lon="6.05211">
        <ele>875.1</ele>
        <time>2021-08-28T08:09:12Z</time>
      </trkpt>
      <trkpt lat="45.679" lon="6.05209">
        <ele>875.3</ele>
        <time>2021-08-28T08:09:13Z</time>
      </trkpt>
      <trkpt lat="45.67897" lon="6.05206">
        <ele>875.6</ele>
        <time>2021-08-28T08:09:15Z</time>
      </trkpt>
      <trkpt lat="45.67896" lon="6.05205">
        <ele>875.7</ele>
        <time>2021-08-28T08:09:16Z</time>
      </trkpt>
      <trkpt lat="45.67894" lon="6.05202">
        <ele>875.9</ele>
        <time>2021-08-28T08:09:17Z</time>
      </trkpt>
      <trkpt lat="45.67894" lon="6.05201">
        <ele>876</ele>
        <time>2021-08-28T08:09:18Z</time>
      </trkpt>
      <trkpt lat="45.67891" lon="6.05198">
        <ele>876.3</ele>
        <time>2021-08-28T08:09:20Z</time>
      </trkpt>
      <trkpt lat="45.67889" lon="6.05195">
        <ele>876.6</ele>
        <time>2021-08-28T08:09:21Z</time>
      </trkpt>
      <trkpt lat="45.67886" lon="6.05193">
        <ele>876.8</ele>
        <time>2021-08-28T08:09:23Z</time>
      </trkpt>
      <trkpt lat="45.67885" lon="6.05192">
        <ele>876.9</ele>
        <time>2021-08-28T08:09:24Z</time>
      </trkpt>
      <trkpt lat="45.67883" lon="6.05188">
        <ele>877.2</ele>
        <time>2021-08-28T08:09:25Z</time>
      </trkpt>
      <trkpt lat="45.67882" lon="6.05187">
        <ele>877.3</ele>
        <time>2021-08-28T08:09:26Z</time>
      </trkpt>
      <trkpt lat="45.67879" lon="6.05184">
        <ele>877.6</ele>
        <time>2021-08-28T08:09:28Z</time>
      </trkpt>
      <trkpt lat="45.67878" lon="6.05183">
        <ele>877.7</ele>
        <time>2021-08-28T08:09:29Z</time>
      </trkpt>
      <trkpt lat="45.67874" lon="6.05179">
        <ele>878.2</ele>
        <time>2021-08-28T08:09:32Z</time>
      </trkpt>
      <trkpt lat="45.67872" lon="6.05176">
        <ele>878.4</ele>
        <time>2021-08-28T08:09:34Z</time>
      </trkpt>
      <trkpt lat="45.67871" lon="6.05174">
        <ele>878.6</ele>
        <time>2021-08-28T08:09:35Z</time>
      </trkpt>
      <trkpt lat="45.67869" lon="6.05169">
        <ele>878.9</ele>
        <time>2021-08-28T08:09:37Z</time>
      </trkpt>
      <trkpt lat="45.67867" lon="6.05165">
        <ele>879.2</ele>
        <time>2021-08-28T08:09:39Z</time>
      </trkpt>
      <trkpt lat="45.67866" lon="6.05163">
        <ele>879.3</ele>
        <time>2021-08-28T08:09:40Z</time>
      </trkpt>
      <trkpt lat="45.67864" lon="6.05161">
        <ele>879.5</ele>
        <time>2021-08-28T08:09:41Z</time>
      </trkpt>
      <trkpt lat="45.67862" lon="6.05157">
        <ele>879.9</ele>
        <time>2021-08-28T08:09:43Z</time>
      </trkpt>
      <trkpt lat="45.67861" lon="6.05153">
        <ele>880.1</ele>
        <time>2021-08-28T08:09:46Z</time>
      </trkpt>
      <trkpt lat="45.67859" lon="6.0515">
        <ele>880.4</ele>
        <time>2021-08-28T08:09:47Z</time>
      </trkpt>
      <trkpt lat="45.67857" lon="6.05145">
        <ele>880.7</ele>
        <time>2021-08-28T08:09:49Z</time>
      </trkpt>
      <trkpt lat="45.67856" lon="6.05143">
        <ele>880.9</ele>
        <time>2021-08-28T08:09:50Z</time>
      </trkpt>
      <trkpt lat="45.67856" lon="6.05141">
        <ele>881</ele>
        <time>2021-08-28T08:09:51Z</time>
      </trkpt>
      <trkpt lat="45.67854" lon="6.05138">
        <ele>881.2</ele>
        <time>2021-08-28T08:09:53Z</time>
      </trkpt>
      <trkpt lat="45.67852" lon="6.05132">
        <ele>881.7</ele>
        <time>2021-08-28T08:09:55Z</time>
      </trkpt>
      <trkpt lat="45.67851" lon="6.05128">
        <ele>881.9</ele>
        <time>2021-08-28T08:09:56Z</time>
      </trkpt>
      <trkpt lat="45.67847" lon="6.05122">
        <ele>882.4</ele>
        <time>2021-08-28T08:09:58Z</time>
      </trkpt>
      <trkpt lat="45.67846" lon="6.0512">
        <ele>882.5</ele>
        <time>2021-08-28T08:09:59Z</time>
      </trkpt>
      <trkpt lat="45.67845" lon="6.05118">
        <ele>882.7</ele>
        <time>2021-08-28T08:10:00Z</time>
      </trkpt>
      <trkpt lat="45.67844" lon="6.05116">
        <ele>882.8</ele>
        <time>2021-08-28T08:10:02Z</time>
      </trkpt>
      <trkpt lat="45.67843" lon="6.05114">
        <ele>883</ele>
        <time>2021-08-28T08:10:03Z</time>
      </trkpt>
      <trkpt lat="45.67842" lon="6.05112">
        <ele>883.2</ele>
        <time>2021-08-28T08:10:04Z</time>
      </trkpt>
      <trkpt lat="45.67839" lon="6.05108">
        <ele>883.5</ele>
        <time>2021-08-28T08:10:06Z</time>
      </trkpt>
      <trkpt lat="45.67837" lon="6.05103">
        <ele>883.9</ele>
        <time>2021-08-28T08:10:07Z</time>
      </trkpt>
      <trkpt lat="45.67836" lon="6.05101">
        <ele>884</ele>
        <time>2021-08-28T08:10:08Z</time>
      </trkpt>
      <trkpt lat="45.67835" lon="6.05099">
        <ele>884.2</ele>
        <time>2021-08-28T08:10:10Z</time>
      </trkpt>
      <trkpt lat="45.67833" lon="6.05094">
        <ele>884.5</ele>
        <time>2021-08-28T08:10:12Z</time>
      </trkpt>
      <trkpt lat="45.67833" lon="6.05094">
        <ele>884.6</ele>
        <time>2021-08-28T08:10:15Z</time>
      </trkpt>
      <trkpt lat="45.67832" lon="6.05092">
        <ele>884.8</ele>
        <time>2021-08-28T08:10:16Z</time>
      </trkpt>
      <trkpt lat="45.67831" lon="6.0509">
        <ele>884.9</ele>
        <time>2021-08-28T08:10:17Z</time>
      </trkpt>
      <trkpt lat="45.67829" lon="6.05086">
        <ele>885.2</ele>
        <time>2021-08-28T08:10:18Z</time>
      </trkpt>
      <trkpt lat="45.67829" lon="6.05085">
        <ele>885.3</ele>
        <time>2021-08-28T08:10:19Z</time>
      </trkpt>
      <trkpt lat="45.67827" lon="6.05081">
        <ele>885.6</ele>
        <time>2021-08-28T08:10:20Z</time>
      </trkpt>
      <trkpt lat="45.67827" lon="6.0508">
        <ele>885.7</ele>
        <time>2021-08-28T08:10:21Z</time>
      </trkpt>
      <trkpt lat="45.67826" lon="6.05078">
        <ele>885.9</ele>
        <time>2021-08-28T08:10:22Z</time>
      </trkpt>
      <trkpt lat="45.67825" lon="6.05077">
        <ele>886</ele>
        <time>2021-08-28T08:10:23Z</time>
      </trkpt>
      <trkpt lat="45.67824" lon="6.05074">
        <ele>886.2</ele>
        <time>2021-08-28T08:10:24Z</time>
      </trkpt>
      <trkpt lat="45.67823" lon="6.05073">
        <ele>886.3</ele>
        <time>2021-08-28T08:10:25Z</time>
      </trkpt>
      <trkpt lat="45.67822" lon="6.05071">
        <ele>886.5</ele>
        <time>2021-08-28T08:10:26Z</time>
      </trkpt>
      <trkpt lat="45.67821" lon="6.05069">
        <ele>886.7</ele>
        <time>2021-08-28T08:10:27Z</time>
      </trkpt>
      <trkpt lat="45.67821" lon="6.05067">
        <ele>886.8</ele>
        <time>2021-08-28T08:10:28Z</time>
      </trkpt>
      <trkpt lat="45.6782" lon="6.05065">
        <ele>887</ele>
        <time>2021-08-28T08:10:29Z</time>
      </trkpt>
      <trkpt lat="45.67819" lon="6.05063">
        <ele>887.1</ele>
        <time>2021-08-28T08:10:30Z</time>
      </trkpt>
      <trkpt lat="45.67818" lon="6.05062">
        <ele>887.3</ele>
        <time>2021-08-28T08:10:31Z</time>
      </trkpt>
      <trkpt lat="45.67817" lon="6.0506">
        <ele>887.5</ele>
        <time>2021-08-28T08:10:32Z</time>
      </trkpt>
      <trkpt lat="45.67816" lon="6.05058">
        <ele>887.6</ele>
        <time>2021-08-28T08:10:33Z</time>
      </trkpt>
      <trkpt lat="45.67815" lon="6.05056">
        <ele>887.8</ele>
        <time>2021-08-28T08:10:34Z</time>
      </trkpt>
      <trkpt lat="45.67814" lon="6.05055">
        <ele>887.9</ele>
        <time>2021-08-28T08:10:35Z</time>
      </trkpt>
      <trkpt lat="45.67813" lon="6.05052">
        <ele>888.1</ele>
        <time>2021-08-28T08:10:36Z</time>
      </trkpt>
      <trkpt lat="45.67813" lon="6.05051">
        <ele>888.2</ele>
        <time>2021-08-28T08:10:37Z</time>
      </trkpt>
      <trkpt lat="45.67812" lon="6.0505">
        <ele>888.3</ele>
        <time>2021-08-28T08:10:38Z</time>
      </trkpt>
      <trkpt lat="45.67811" lon="6.05047">
        <ele>888.5</ele>
        <time>2021-08-28T08:10:39Z</time>
      </trkpt>
      <trkpt lat="45.67811" lon="6.05046">
        <ele>888.6</ele>
        <time>2021-08-28T08:10:40Z</time>
      </trkpt>
      <trkpt lat="45.6781" lon="6.05045">
        <ele>888.8</ele>
        <time>2021-08-28T08:10:41Z</time>
      </trkpt>
      <trkpt lat="45.67809" lon="6.05042">
        <ele>889</ele>
        <time>2021-08-28T08:10:42Z</time>
      </trkpt>
      <trkpt lat="45.67808" lon="6.05041">
        <ele>889.1</ele>
        <time>2021-08-28T08:10:43Z</time>
      </trkpt>
      <trkpt lat="45.67807" lon="6.0504">
        <ele>889.2</ele>
        <time>2021-08-28T08:10:44Z</time>
      </trkpt>
      <trkpt lat="45.67806" lon="6.05039">
        <ele>889.3</ele>
        <time>2021-08-28T08:10:45Z</time>
      </trkpt>
      <trkpt lat="45.67805" lon="6.05037">
        <ele>889.5</ele>
        <time>2021-08-28T08:10:46Z</time>
      </trkpt>
      <trkpt lat="45.67804" lon="6.05035">
        <ele>889.7</ele>
        <time>2021-08-28T08:10:47Z</time>
      </trkpt>
      <trkpt lat="45.67804" lon="6.05034">
        <ele>889.8</ele>
        <time>2021-08-28T08:10:48Z</time>
      </trkpt>
      <trkpt lat="45.67803" lon="6.05033">
        <ele>889.9</ele>
        <time>2021-08-28T08:10:49Z</time>
      </trkpt>
      <trkpt lat="45.67803" lon="6.05031">
        <ele>890</ele>
        <time>2021-08-28T08:10:50Z</time>
      </trkpt>
      <trkpt lat="45.67802" lon="6.05029">
        <ele>890.2</ele>
        <time>2021-08-28T08:10:51Z</time>
      </trkpt>
      <trkpt lat="45.67801" lon="6.05027">
        <ele>890.3</ele>
        <time>2021-08-28T08:10:52Z</time>
      </trkpt>
      <trkpt lat="45.67801" lon="6.05026">
        <ele>890.5</ele>
        <time>2021-08-28T08:10:53Z</time>
      </trkpt>
      <trkpt lat="45.678" lon="6.05024">
        <ele>890.6</ele>
        <time>2021-08-28T08:10:54Z</time>
      </trkpt>
      <trkpt lat="45.67799" lon="6.05022">
        <ele>890.8</ele>
        <time>2021-08-28T08:10:55Z</time>
      </trkpt>
      <trkpt lat="45.67798" lon="6.0502">
        <ele>890.9</ele>
        <time>2021-08-28T08:10:56Z</time>
      </trkpt>
      <trkpt lat="45.67798" lon="6.05019">
        <ele>891</ele>
        <time>2021-08-28T08:10:57Z</time>
      </trkpt>
      <trkpt lat="45.67797" lon="6.05017">
        <ele>891.2</ele>
        <time>2021-08-28T08:10:58Z</time>
      </trkpt>
      <trkpt lat="45.67797" lon="6.05015">
        <ele>891.3</ele>
        <time>2021-08-28T08:10:59Z</time>
      </trkpt>
      <trkpt lat="45.67796" lon="6.05013">
        <ele>891.5</ele>
        <time>2021-08-28T08:11:00Z</time>
      </trkpt>
      <trkpt lat="45.67795" lon="6.05011">
        <ele>891.7</ele>
        <time>2021-08-28T08:11:01Z</time>
      </trkpt>
      <trkpt lat="45.67794" lon="6.05009">
        <ele>891.8</ele>
        <time>2021-08-28T08:11:02Z</time>
      </trkpt>
      <trkpt lat="45.67794" lon="6.05007">
        <ele>892</ele>
        <time>2021-08-28T08:11:03Z</time>
      </trkpt>
      <trkpt lat="45.67793" lon="6.05005">
        <ele>892.2</ele>
        <time>2021-08-28T08:11:04Z</time>
      </trkpt>
      <trkpt lat="45.67792" lon="6.05004">
        <ele>892.3</ele>
        <time>2021-08-28T08:11:05Z</time>
      </trkpt>
      <trkpt lat="45.67792" lon="6.05002">
        <ele>892.4</ele>
        <time>2021-08-28T08:11:06Z</time>
      </trkpt>
      <trkpt lat="45.67791" lon="6.05">
        <ele>892.6</ele>
        <time>2021-08-28T08:11:07Z</time>
      </trkpt>
      <trkpt lat="45.6779" lon="6.04998">
        <ele>892.7</ele>
        <time>2021-08-28T08:11:08Z</time>
      </trkpt>
      <trkpt lat="45.67789" lon="6.04996">
        <ele>892.9</ele>
        <time>2021-08-28T08:11:09Z</time>
      </trkpt>
      <trkpt lat="45.67788" lon="6.04995">
        <ele>893</ele>
        <time>2021-08-28T08:11:10Z</time>
      </trkpt>
      <trkpt lat="45.67787" lon="6.04993">
        <ele>893.2</ele>
        <time>2021-08-28T08:11:11Z</time>
      </trkpt>
      <trkpt lat="45.67785" lon="6.0499">
        <ele>893.5</ele>
        <time>2021-08-28T08:11:12Z</time>
      </trkpt>
      <trkpt lat="45.67784" lon="6.04989">
        <ele>893.6</ele>
        <time>2021-08-28T08:11:13Z</time>
      </trkpt>
      <trkpt lat="45.67782" lon="6.04985">
        <ele>893.9</ele>
        <time>2021-08-28T08:11:14Z</time>
      </trkpt>
      <trkpt lat="45.67779" lon="6.0498">
        <ele>894.3</ele>
        <time>2021-08-28T08:11:15Z</time>
      </trkpt>
      <trkpt lat="45.67777" lon="6.04978">
        <ele>894.5</ele>
        <time>2021-08-28T08:11:17Z</time>
      </trkpt>
      <trkpt lat="45.67776" lon="6.04974">
        <ele>894.8</ele>
        <time>2021-08-28T08:11:19Z</time>
      </trkpt>
      <trkpt lat="45.67774" lon="6.04967">
        <ele>895.3</ele>
        <time>2021-08-28T08:11:21Z</time>
      </trkpt>
      <trkpt lat="45.67773" lon="6.04965">
        <ele>895.4</ele>
        <time>2021-08-28T08:11:23Z</time>
      </trkpt>
      <trkpt lat="45.67771" lon="6.04959">
        <ele>895.8</ele>
        <time>2021-08-28T08:11:25Z</time>
      </trkpt>
      <trkpt lat="45.67769" lon="6.04956">
        <ele>896.1</ele>
        <time>2021-08-28T08:11:26Z</time>
      </trkpt>
      <trkpt lat="45.67768" lon="6.04954">
        <ele>896.2</ele>
        <time>2021-08-28T08:11:27Z</time>
      </trkpt>
      <trkpt lat="45.67768" lon="6.04952">
        <ele>896.4</ele>
        <time>2021-08-28T08:11:29Z</time>
      </trkpt>
      <trkpt lat="45.67765" lon="6.04947">
        <ele>896.8</ele>
        <time>2021-08-28T08:11:32Z</time>
      </trkpt>
      <trkpt lat="45.67764" lon="6.04944">
        <ele>897</ele>
        <time>2021-08-28T08:11:33Z</time>
      </trkpt>
      <trkpt lat="45.67762" lon="6.04938">
        <ele>897.4</ele>
        <time>2021-08-28T08:11:36Z</time>
      </trkpt>
      <trkpt lat="45.67761" lon="6.04935">
        <ele>897.6</ele>
        <time>2021-08-28T08:11:38Z</time>
      </trkpt>
      <trkpt lat="45.6776" lon="6.04933">
        <ele>897.8</ele>
        <time>2021-08-28T08:11:39Z</time>
      </trkpt>
      <trkpt lat="45.67759" lon="6.04928">
        <ele>898.1</ele>
        <time>2021-08-28T08:11:41Z</time>
      </trkpt>
      <trkpt lat="45.67757" lon="6.04924">
        <ele>898.4</ele>
        <time>2021-08-28T08:11:43Z</time>
      </trkpt>
      <trkpt lat="45.67756" lon="6.04921">
        <ele>898.7</ele>
        <time>2021-08-28T08:11:45Z</time>
      </trkpt>
      <trkpt lat="45.67753" lon="6.04916">
        <ele>899</ele>
        <time>2021-08-28T08:11:48Z</time>
      </trkpt>
      <trkpt lat="45.67753" lon="6.04915">
        <ele>899.2</ele>
        <time>2021-08-28T08:11:49Z</time>
      </trkpt>
      <trkpt lat="45.67752" lon="6.04913">
        <ele>899.3</ele>
        <time>2021-08-28T08:11:50Z</time>
      </trkpt>
      <trkpt lat="45.67751" lon="6.0491">
        <ele>899.6</ele>
        <time>2021-08-28T08:11:51Z</time>
      </trkpt>
      <trkpt lat="45.67747" lon="6.04904">
        <ele>900.1</ele>
        <time>2021-08-28T08:11:54Z</time>
      </trkpt>
      <trkpt lat="45.67745" lon="6.04898">
        <ele>900.5</ele>
        <time>2021-08-28T08:11:56Z</time>
      </trkpt>
      <trkpt lat="45.67745" lon="6.04896">
        <ele>900.7</ele>
        <time>2021-08-28T08:11:57Z</time>
      </trkpt>
      <trkpt lat="45.67744" lon="6.04893">
        <ele>900.9</ele>
        <time>2021-08-28T08:11:59Z</time>
      </trkpt>
      <trkpt lat="45.67742" lon="6.04889">
        <ele>901.2</ele>
        <time>2021-08-28T08:12:00Z</time>
      </trkpt>
      <trkpt lat="45.67742" lon="6.04888">
        <ele>901.3</ele>
        <time>2021-08-28T08:12:01Z</time>
      </trkpt>
      <trkpt lat="45.67741" lon="6.04886">
        <ele>901.4</ele>
        <time>2021-08-28T08:12:02Z</time>
      </trkpt>
      <trkpt lat="45.6774" lon="6.04884">
        <ele>901.6</ele>
        <time>2021-08-28T08:12:03Z</time>
      </trkpt>
      <trkpt lat="45.6774" lon="6.04883">
        <ele>901.7</ele>
        <time>2021-08-28T08:12:05Z</time>
      </trkpt>
      <trkpt lat="45.67739" lon="6.04881">
        <ele>901.9</ele>
        <time>2021-08-28T08:12:06Z</time>
      </trkpt>
      <trkpt lat="45.67738" lon="6.04878">
        <ele>902</ele>
        <time>2021-08-28T08:12:07Z</time>
      </trkpt>
      <trkpt lat="45.67736" lon="6.04874">
        <ele>902.4</ele>
        <time>2021-08-28T08:12:09Z</time>
      </trkpt>
      <trkpt lat="45.67735" lon="6.04873">
        <ele>902.5</ele>
        <time>2021-08-28T08:12:11Z</time>
      </trkpt>
      <trkpt lat="45.67734" lon="6.0487">
        <ele>902.7</ele>
        <time>2021-08-28T08:12:12Z</time>
      </trkpt>
      <trkpt lat="45.67731" lon="6.04865">
        <ele>903.2</ele>
        <time>2021-08-28T08:12:14Z</time>
      </trkpt>
      <trkpt lat="45.67729" lon="6.04861">
        <ele>903.5</ele>
        <time>2021-08-28T08:12:16Z</time>
      </trkpt>
      <trkpt lat="45.67728" lon="6.0486">
        <ele>903.6</ele>
        <time>2021-08-28T08:12:17Z</time>
      </trkpt>
      <trkpt lat="45.67727" lon="6.04857">
        <ele>903.9</ele>
        <time>2021-08-28T08:12:18Z</time>
      </trkpt>
      <trkpt lat="45.67724" lon="6.04853">
        <ele>904.2</ele>
        <time>2021-08-28T08:12:21Z</time>
      </trkpt>
      <trkpt lat="45.67724" lon="6.04853">
        <ele>904.2</ele>
        <time>2021-08-28T08:12:22Z</time>
      </trkpt>
      <trkpt lat="45.67721" lon="6.04849">
        <ele>904.6</ele>
        <time>2021-08-28T08:12:24Z</time>
      </trkpt>
      <trkpt lat="45.67718" lon="6.04843">
        <ele>905</ele>
        <time>2021-08-28T08:12:27Z</time>
      </trkpt>
      <trkpt lat="45.67715" lon="6.04837">
        <ele>905.5</ele>
        <time>2021-08-28T08:12:30Z</time>
      </trkpt>
      <trkpt lat="45.67714" lon="6.04834">
        <ele>905.8</ele>
        <time>2021-08-28T08:12:32Z</time>
      </trkpt>
      <trkpt lat="45.6771" lon="6.04831">
        <ele>906.1</ele>
        <time>2021-08-28T08:12:35Z</time>
      </trkpt>
      <trkpt lat="45.67707" lon="6.04828">
        <ele>906.5</ele>
        <time>2021-08-28T08:12:37Z</time>
      </trkpt>
      <trkpt lat="45.67704" lon="6.04826">
        <ele>906.8</ele>
        <time>2021-08-28T08:12:39Z</time>
      </trkpt>
      <trkpt lat="45.67701" lon="6.04823">
        <ele>907.1</ele>
        <time>2021-08-28T08:12:40Z</time>
      </trkpt>
      <trkpt lat="45.67697" lon="6.0482">
        <ele>907.5</ele>
        <time>2021-08-28T08:12:42Z</time>
      </trkpt>
      <trkpt lat="45.67696" lon="6.0482">
        <ele>907.6</ele>
        <time>2021-08-28T08:12:43Z</time>
      </trkpt>
      <trkpt lat="45.67694" lon="6.04818">
        <ele>907.8</ele>
        <time>2021-08-28T08:12:44Z</time>
      </trkpt>
      <trkpt lat="45.67692" lon="6.04816">
        <ele>908</ele>
        <time>2021-08-28T08:12:46Z</time>
      </trkpt>
      <trkpt lat="45.6769" lon="6.04811">
        <ele>908.4</ele>
        <time>2021-08-28T08:12:47Z</time>
      </trkpt>
      <trkpt lat="45.67688" lon="6.04809">
        <ele>908.5</ele>
        <time>2021-08-28T08:12:48Z</time>
      </trkpt>
      <trkpt lat="45.67685" lon="6.04807">
        <ele>908.8</ele>
        <time>2021-08-28T08:12:51Z</time>
      </trkpt>
      <trkpt lat="45.67684" lon="6.04806">
        <ele>908.9</ele>
        <time>2021-08-28T08:12:52Z</time>
      </trkpt>
      <trkpt lat="45.6768" lon="6.04803">
        <ele>909.3</ele>
        <time>2021-08-28T08:12:54Z</time>
      </trkpt>
      <trkpt lat="45.67677" lon="6.04799">
        <ele>909.6</ele>
        <time>2021-08-28T08:12:56Z</time>
      </trkpt>
      <trkpt lat="45.67676" lon="6.04798">
        <ele>909.8</ele>
        <time>2021-08-28T08:12:57Z</time>
      </trkpt>
      <trkpt lat="45.67674" lon="6.04796">
        <ele>909.9</ele>
        <time>2021-08-28T08:12:58Z</time>
      </trkpt>
      <trkpt lat="45.67672" lon="6.04795">
        <ele>910.1</ele>
        <time>2021-08-28T08:13:00Z</time>
      </trkpt>
      <trkpt lat="45.67669" lon="6.04792">
        <ele>910.4</ele>
        <time>2021-08-28T08:13:01Z</time>
      </trkpt>
      <trkpt lat="45.67668" lon="6.0479">
        <ele>910.5</ele>
        <time>2021-08-28T08:13:02Z</time>
      </trkpt>
      <trkpt lat="45.67666" lon="6.04788">
        <ele>910.7</ele>
        <time>2021-08-28T08:13:04Z</time>
      </trkpt>
      <trkpt lat="45.67664" lon="6.04787">
        <ele>910.8</ele>
        <time>2021-08-28T08:13:05Z</time>
      </trkpt>
      <trkpt lat="45.67661" lon="6.04784">
        <ele>911.1</ele>
        <time>2021-08-28T08:13:07Z</time>
      </trkpt>
      <trkpt lat="45.6766" lon="6.04782">
        <ele>911.2</ele>
        <time>2021-08-28T08:13:08Z</time>
      </trkpt>
      <trkpt lat="45.67658" lon="6.0478">
        <ele>911.4</ele>
        <time>2021-08-28T08:13:10Z</time>
      </trkpt>
      <trkpt lat="45.67655" lon="6.04778">
        <ele>911.7</ele>
        <time>2021-08-28T08:13:11Z</time>
      </trkpt>
      <trkpt lat="45.67653" lon="6.04776">
        <ele>911.8</ele>
        <time>2021-08-28T08:13:15Z</time>
      </trkpt>
      <trkpt lat="45.67652" lon="6.04775">
        <ele>912</ele>
        <time>2021-08-28T08:13:16Z</time>
      </trkpt>
      <trkpt lat="45.6765" lon="6.04773">
        <ele>912.1</ele>
        <time>2021-08-28T08:13:17Z</time>
      </trkpt>
      <trkpt lat="45.67647" lon="6.0477">
        <ele>912.3</ele>
        <time>2021-08-28T08:13:18Z</time>
      </trkpt>
      <trkpt lat="45.67647" lon="6.04769">
        <ele>912.4</ele>
        <time>2021-08-28T08:13:19Z</time>
      </trkpt>
      <trkpt lat="45.67644" lon="6.04766">
        <ele>912.6</ele>
        <time>2021-08-28T08:13:20Z</time>
      </trkpt>
      <trkpt lat="45.67643" lon="6.04765">
        <ele>912.7</ele>
        <time>2021-08-28T08:13:21Z</time>
      </trkpt>
      <trkpt lat="45.67641" lon="6.04762">
        <ele>912.9</ele>
        <time>2021-08-28T08:13:22Z</time>
      </trkpt>
      <trkpt lat="45.6764" lon="6.04761">
        <ele>913</ele>
        <time>2021-08-28T08:13:23Z</time>
      </trkpt>
      <trkpt lat="45.67638" lon="6.04758">
        <ele>913.2</ele>
        <time>2021-08-28T08:13:24Z</time>
      </trkpt>
      <trkpt lat="45.67637" lon="6.04757">
        <ele>913.2</ele>
        <time>2021-08-28T08:13:25Z</time>
      </trkpt>
      <trkpt lat="45.67635" lon="6.04755">
        <ele>913.4</ele>
        <time>2021-08-28T08:13:26Z</time>
      </trkpt>
      <trkpt lat="45.67634" lon="6.04754">
        <ele>913.5</ele>
        <time>2021-08-28T08:13:27Z</time>
      </trkpt>
      <trkpt lat="45.67632" lon="6.04751">
        <ele>913.7</ele>
        <time>2021-08-28T08:13:28Z</time>
      </trkpt>
      <trkpt lat="45.67631" lon="6.0475">
        <ele>913.7</ele>
        <time>2021-08-28T08:13:29Z</time>
      </trkpt>
      <trkpt lat="45.67629" lon="6.04747">
        <ele>913.9</ele>
        <time>2021-08-28T08:13:30Z</time>
      </trkpt>
      <trkpt lat="45.67628" lon="6.04746">
        <ele>914</ele>
        <time>2021-08-28T08:13:31Z</time>
      </trkpt>
      <trkpt lat="45.67626" lon="6.04743">
        <ele>914.1</ele>
        <time>2021-08-28T08:13:32Z</time>
      </trkpt>
      <trkpt lat="45.67625" lon="6.04742">
        <ele>914.2</ele>
        <time>2021-08-28T08:13:33Z</time>
      </trkpt>
      <trkpt lat="45.67623" lon="6.04739">
        <ele>914.4</ele>
        <time>2021-08-28T08:13:34Z</time>
      </trkpt>
      <trkpt lat="45.67622" lon="6.04738">
        <ele>914.5</ele>
        <time>2021-08-28T08:13:35Z</time>
      </trkpt>
      <trkpt lat="45.67619" lon="6.04735">
        <ele>914.7</ele>
        <time>2021-08-28T08:13:36Z</time>
      </trkpt>
      <trkpt lat="45.67618" lon="6.04733">
        <ele>914.7</ele>
        <time>2021-08-28T08:13:37Z</time>
      </trkpt>
      <trkpt lat="45.67616" lon="6.0473">
        <ele>914.9</ele>
        <time>2021-08-28T08:13:38Z</time>
      </trkpt>
      <trkpt lat="45.67615" lon="6.04729">
        <ele>915</ele>
        <time>2021-08-28T08:13:39Z</time>
      </trkpt>
      <trkpt lat="45.67612" lon="6.04727">
        <ele>915.2</ele>
        <time>2021-08-28T08:13:40Z</time>
      </trkpt>
      <trkpt lat="45.67611" lon="6.04726">
        <ele>915.3</ele>
        <time>2021-08-28T08:13:41Z</time>
      </trkpt>
      <trkpt lat="45.67608" lon="6.04723">
        <ele>915.5</ele>
        <time>2021-08-28T08:13:42Z</time>
      </trkpt>
      <trkpt lat="45.67607" lon="6.04721">
        <ele>915.6</ele>
        <time>2021-08-28T08:13:43Z</time>
      </trkpt>
      <trkpt lat="45.67605" lon="6.04719">
        <ele>915.8</ele>
        <time>2021-08-28T08:13:44Z</time>
      </trkpt>
      <trkpt lat="45.67604" lon="6.04718">
        <ele>915.8</ele>
        <time>2021-08-28T08:13:45Z</time>
      </trkpt>
      <trkpt lat="45.67602" lon="6.04716">
        <ele>916</ele>
        <time>2021-08-28T08:13:46Z</time>
      </trkpt>
      <trkpt lat="45.67599" lon="6.04714">
        <ele>916.2</ele>
        <time>2021-08-28T08:13:47Z</time>
      </trkpt>
      <trkpt lat="45.67598" lon="6.04713">
        <ele>916.3</ele>
        <time>2021-08-28T08:13:48Z</time>
      </trkpt>
      <trkpt lat="45.67596" lon="6.04711">
        <ele>916.4</ele>
        <time>2021-08-28T08:13:49Z</time>
      </trkpt>
      <trkpt lat="45.67595" lon="6.0471">
        <ele>916.5</ele>
        <time>2021-08-28T08:13:50Z</time>
      </trkpt>
      <trkpt lat="45.67592" lon="6.04708">
        <ele>916.7</ele>
        <time>2021-08-28T08:13:51Z</time>
      </trkpt>
      <trkpt lat="45.67591" lon="6.04707">
        <ele>916.7</ele>
        <time>2021-08-28T08:13:52Z</time>
      </trkpt>
      <trkpt lat="45.67588" lon="6.04704">
        <ele>917</ele>
        <time>2021-08-28T08:13:53Z</time>
      </trkpt>
      <trkpt lat="45.67588" lon="6.04703">
        <ele>917</ele>
        <time>2021-08-28T08:13:54Z</time>
      </trkpt>
      <trkpt lat="45.67585" lon="6.04701">
        <ele>917.2</ele>
        <time>2021-08-28T08:13:55Z</time>
      </trkpt>
      <trkpt lat="45.67584" lon="6.047">
        <ele>917.2</ele>
        <time>2021-08-28T08:13:56Z</time>
      </trkpt>
      <trkpt lat="45.67582" lon="6.04697">
        <ele>917.4</ele>
        <time>2021-08-28T08:13:57Z</time>
      </trkpt>
      <trkpt lat="45.67581" lon="6.04697">
        <ele>917.5</ele>
        <time>2021-08-28T08:13:58Z</time>
      </trkpt>
      <trkpt lat="45.67579" lon="6.04694">
        <ele>917.6</ele>
        <time>2021-08-28T08:13:59Z</time>
      </trkpt>
      <trkpt lat="45.67578" lon="6.04693">
        <ele>917.7</ele>
        <time>2021-08-28T08:14:00Z</time>
      </trkpt>
      <trkpt lat="45.67575" lon="6.0469">
        <ele>917.9</ele>
        <time>2021-08-28T08:14:01Z</time>
      </trkpt>
      <trkpt lat="45.67574" lon="6.04689">
        <ele>918</ele>
        <time>2021-08-28T08:14:02Z</time>
      </trkpt>
      <trkpt lat="45.67572" lon="6.04686">
        <ele>918.1</ele>
        <time>2021-08-28T08:14:03Z</time>
      </trkpt>
      <trkpt lat="45.67571" lon="6.04685">
        <ele>918.2</ele>
        <time>2021-08-28T08:14:04Z</time>
      </trkpt>
      <trkpt lat="45.67568" lon="6.04682">
        <ele>918.4</ele>
        <time>2021-08-28T08:14:05Z</time>
      </trkpt>
      <trkpt lat="45.67567" lon="6.04681">
        <ele>918.5</ele>
        <time>2021-08-28T08:14:06Z</time>
      </trkpt>
      <trkpt lat="45.67564" lon="6.04678">
        <ele>918.7</ele>
        <time>2021-08-28T08:14:07Z</time>
      </trkpt>
      <trkpt lat="45.67563" lon="6.04677">
        <ele>918.7</ele>
        <time>2021-08-28T08:14:08Z</time>
      </trkpt>
      <trkpt lat="45.6756" lon="6.04674">
        <ele>918.9</ele>
        <time>2021-08-28T08:14:09Z</time>
      </trkpt>
      <trkpt lat="45.67559" lon="6.04674">
        <ele>919</ele>
        <time>2021-08-28T08:14:10Z</time>
      </trkpt>
      <trkpt lat="45.67556" lon="6.04671">
        <ele>919.2</ele>
        <time>2021-08-28T08:14:11Z</time>
      </trkpt>
      <trkpt lat="45.67555" lon="6.0467">
        <ele>919.2</ele>
        <time>2021-08-28T08:14:12Z</time>
      </trkpt>
      <trkpt lat="45.67553" lon="6.04667">
        <ele>919.4</ele>
        <time>2021-08-28T08:14:13Z</time>
      </trkpt>
      <trkpt lat="45.67552" lon="6.04666">
        <ele>919.5</ele>
        <time>2021-08-28T08:14:14Z</time>
      </trkpt>
      <trkpt lat="45.67549" lon="6.04664">
        <ele>919.7</ele>
        <time>2021-08-28T08:14:15Z</time>
      </trkpt>
      <trkpt lat="45.67548" lon="6.04662">
        <ele>919.7</ele>
        <time>2021-08-28T08:14:16Z</time>
      </trkpt>
      <trkpt lat="45.67545" lon="6.0466">
        <ele>919.9</ele>
        <time>2021-08-28T08:14:17Z</time>
      </trkpt>
      <trkpt lat="45.67544" lon="6.04658">
        <ele>920</ele>
        <time>2021-08-28T08:14:18Z</time>
      </trkpt>
      <trkpt lat="45.67541" lon="6.04655">
        <ele>920.2</ele>
        <time>2021-08-28T08:14:19Z</time>
      </trkpt>
      <trkpt lat="45.6754" lon="6.04654">
        <ele>920.3</ele>
        <time>2021-08-28T08:14:20Z</time>
      </trkpt>
      <trkpt lat="45.67538" lon="6.04652">
        <ele>920.5</ele>
        <time>2021-08-28T08:14:21Z</time>
      </trkpt>
      <trkpt lat="45.67537" lon="6.04651">
        <ele>920.6</ele>
        <time>2021-08-28T08:14:22Z</time>
      </trkpt>
      <trkpt lat="45.67534" lon="6.04648">
        <ele>920.8</ele>
        <time>2021-08-28T08:14:23Z</time>
      </trkpt>
      <trkpt lat="45.67533" lon="6.04647">
        <ele>920.8</ele>
        <time>2021-08-28T08:14:24Z</time>
      </trkpt>
      <trkpt lat="45.67531" lon="6.04645">
        <ele>921</ele>
        <time>2021-08-28T08:14:25Z</time>
      </trkpt>
      <trkpt lat="45.6753" lon="6.04644">
        <ele>921.1</ele>
        <time>2021-08-28T08:14:26Z</time>
      </trkpt>
      <trkpt lat="45.67527" lon="6.04641">
        <ele>921.3</ele>
        <time>2021-08-28T08:14:27Z</time>
      </trkpt>
      <trkpt lat="45.67526" lon="6.0464">
        <ele>921.4</ele>
        <time>2021-08-28T08:14:28Z</time>
      </trkpt>
      <trkpt lat="45.67525" lon="6.04639">
        <ele>921.5</ele>
        <time>2021-08-28T08:14:29Z</time>
      </trkpt>
      <trkpt lat="45.67523" lon="6.04637">
        <ele>921.6</ele>
        <time>2021-08-28T08:14:30Z</time>
      </trkpt>
      <trkpt lat="45.67521" lon="6.04634">
        <ele>921.8</ele>
        <time>2021-08-28T08:14:31Z</time>
      </trkpt>
      <trkpt lat="45.6752" lon="6.04633">
        <ele>921.9</ele>
        <time>2021-08-28T08:14:32Z</time>
      </trkpt>
      <trkpt lat="45.67518" lon="6.04631">
        <ele>922.1</ele>
        <time>2021-08-28T08:14:33Z</time>
      </trkpt>
      <trkpt lat="45.67517" lon="6.0463">
        <ele>922.2</ele>
        <time>2021-08-28T08:14:34Z</time>
      </trkpt>
      <trkpt lat="45.67514" lon="6.04628">
        <ele>922.4</ele>
        <time>2021-08-28T08:14:35Z</time>
      </trkpt>
      <trkpt lat="45.67513" lon="6.04627">
        <ele>922.4</ele>
        <time>2021-08-28T08:14:36Z</time>
      </trkpt>
      <trkpt lat="45.67511" lon="6.04624">
        <ele>922.6</ele>
        <time>2021-08-28T08:14:37Z</time>
      </trkpt>
      <trkpt lat="45.6751" lon="6.04623">
        <ele>922.7</ele>
        <time>2021-08-28T08:14:38Z</time>
      </trkpt>
      <trkpt lat="45.67508" lon="6.04621">
        <ele>922.9</ele>
        <time>2021-08-28T08:14:39Z</time>
      </trkpt>
      <trkpt lat="45.67507" lon="6.0462">
        <ele>923</ele>
        <time>2021-08-28T08:14:40Z</time>
      </trkpt>
      <trkpt lat="45.67506" lon="6.04619">
        <ele>923.1</ele>
        <time>2021-08-28T08:14:41Z</time>
      </trkpt>
      <trkpt lat="45.67504" lon="6.04617">
        <ele>923.2</ele>
        <time>2021-08-28T08:14:42Z</time>
      </trkpt>
      <trkpt lat="45.67501" lon="6.04614">
        <ele>923.5</ele>
        <time>2021-08-28T08:14:43Z</time>
      </trkpt>
      <trkpt lat="45.67501" lon="6.04614">
        <ele>923.5</ele>
        <time>2021-08-28T08:14:44Z</time>
      </trkpt>
      <trkpt lat="45.67499" lon="6.04613">
        <ele>923.6</ele>
        <time>2021-08-28T08:14:45Z</time>
      </trkpt>
      <trkpt lat="45.67498" lon="6.04611">
        <ele>923.8</ele>
        <time>2021-08-28T08:14:46Z</time>
      </trkpt>
      <trkpt lat="45.67496" lon="6.04609">
        <ele>924</ele>
        <time>2021-08-28T08:14:47Z</time>
      </trkpt>
      <trkpt lat="45.67495" lon="6.04608">
        <ele>924.1</ele>
        <time>2021-08-28T08:14:48Z</time>
      </trkpt>
      <trkpt lat="45.67493" lon="6.04606">
        <ele>924.2</ele>
        <time>2021-08-28T08:14:49Z</time>
      </trkpt>
      <trkpt lat="45.67492" lon="6.04605">
        <ele>924.3</ele>
        <time>2021-08-28T08:14:50Z</time>
      </trkpt>
      <trkpt lat="45.6749" lon="6.04603">
        <ele>924.5</ele>
        <time>2021-08-28T08:14:51Z</time>
      </trkpt>
      <trkpt lat="45.67489" lon="6.04601">
        <ele>924.6</ele>
        <time>2021-08-28T08:14:52Z</time>
      </trkpt>
      <trkpt lat="45.67487" lon="6.04599">
        <ele>924.8</ele>
        <time>2021-08-28T08:14:53Z</time>
      </trkpt>
      <trkpt lat="45.67486" lon="6.04598">
        <ele>924.9</ele>
        <time>2021-08-28T08:14:54Z</time>
      </trkpt>
      <trkpt lat="45.67485" lon="6.04596">
        <ele>925</ele>
        <time>2021-08-28T08:14:55Z</time>
      </trkpt>
      <trkpt lat="45.67484" lon="6.04594">
        <ele>925.2</ele>
        <time>2021-08-28T08:14:56Z</time>
      </trkpt>
      <trkpt lat="45.67483" lon="6.04593">
        <ele>925.3</ele>
        <time>2021-08-28T08:14:57Z</time>
      </trkpt>
      <trkpt lat="45.67481" lon="6.04591">
        <ele>925.4</ele>
        <time>2021-08-28T08:14:58Z</time>
      </trkpt>
      <trkpt lat="45.67479" lon="6.04588">
        <ele>925.7</ele>
        <time>2021-08-28T08:14:59Z</time>
      </trkpt>
      <trkpt lat="45.67478" lon="6.04587">
        <ele>925.7</ele>
        <time>2021-08-28T08:15:00Z</time>
      </trkpt>
      <trkpt lat="45.67476" lon="6.04584">
        <ele>926</ele>
        <time>2021-08-28T08:15:01Z</time>
      </trkpt>
      <trkpt lat="45.67476" lon="6.04583">
        <ele>926.1</ele>
        <time>2021-08-28T08:15:02Z</time>
      </trkpt>
      <trkpt lat="45.67475" lon="6.04581">
        <ele>926.2</ele>
        <time>2021-08-28T08:15:03Z</time>
      </trkpt>
      <trkpt lat="45.67474" lon="6.04579">
        <ele>926.4</ele>
        <time>2021-08-28T08:15:04Z</time>
      </trkpt>
      <trkpt lat="45.67471" lon="6.04576">
        <ele>926.6</ele>
        <time>2021-08-28T08:15:05Z</time>
      </trkpt>
      <trkpt lat="45.67471" lon="6.04575">
        <ele>926.7</ele>
        <time>2021-08-28T08:15:06Z</time>
      </trkpt>
      <trkpt lat="45.6747" lon="6.04574">
        <ele>926.8</ele>
        <time>2021-08-28T08:15:07Z</time>
      </trkpt>
      <trkpt lat="45.67469" lon="6.04572">
        <ele>927</ele>
        <time>2021-08-28T08:15:08Z</time>
      </trkpt>
      <trkpt lat="45.67467" lon="6.0457">
        <ele>927.1</ele>
        <time>2021-08-28T08:15:09Z</time>
      </trkpt>
      <trkpt lat="45.67466" lon="6.04568">
        <ele>927.3</ele>
        <time>2021-08-28T08:15:10Z</time>
      </trkpt>
      <trkpt lat="45.67464" lon="6.04565">
        <ele>927.5</ele>
        <time>2021-08-28T08:15:11Z</time>
      </trkpt>
      <trkpt lat="45.67463" lon="6.04564">
        <ele>927.6</ele>
        <time>2021-08-28T08:15:12Z</time>
      </trkpt>
      <trkpt lat="45.67461" lon="6.0456">
        <ele>927.9</ele>
        <time>2021-08-28T08:15:13Z</time>
      </trkpt>
      <trkpt lat="45.6746" lon="6.04559">
        <ele>928</ele>
        <time>2021-08-28T08:15:14Z</time>
      </trkpt>
      <trkpt lat="45.67459" lon="6.04558">
        <ele>928.2</ele>
        <time>2021-08-28T08:15:15Z</time>
      </trkpt>
      <trkpt lat="45.67458" lon="6.04556">
        <ele>928.3</ele>
        <time>2021-08-28T08:15:16Z</time>
      </trkpt>
      <trkpt lat="45.67456" lon="6.04552">
        <ele>928.6</ele>
        <time>2021-08-28T08:15:17Z</time>
      </trkpt>
      <trkpt lat="45.67455" lon="6.04551">
        <ele>928.7</ele>
        <time>2021-08-28T08:15:18Z</time>
      </trkpt>
      <trkpt lat="45.67453" lon="6.04548">
        <ele>928.9</ele>
        <time>2021-08-28T08:15:19Z</time>
      </trkpt>
      <trkpt lat="45.67452" lon="6.04548">
        <ele>929</ele>
        <time>2021-08-28T08:15:20Z</time>
      </trkpt>
      <trkpt lat="45.67451" lon="6.04546">
        <ele>929.2</ele>
        <time>2021-08-28T08:15:21Z</time>
      </trkpt>
      <trkpt lat="45.6745" lon="6.04544">
        <ele>929.3</ele>
        <time>2021-08-28T08:15:22Z</time>
      </trkpt>
      <trkpt lat="45.67448" lon="6.04543">
        <ele>929.5</ele>
        <time>2021-08-28T08:15:23Z</time>
      </trkpt>
      <trkpt lat="45.67447" lon="6.04541">
        <ele>929.6</ele>
        <time>2021-08-28T08:15:24Z</time>
      </trkpt>
      <trkpt lat="45.67446" lon="6.04539">
        <ele>929.8</ele>
        <time>2021-08-28T08:15:25Z</time>
      </trkpt>
      <trkpt lat="45.67445" lon="6.04538">
        <ele>929.9</ele>
        <time>2021-08-28T08:15:26Z</time>
      </trkpt>
      <trkpt lat="45.67444" lon="6.04535">
        <ele>930.1</ele>
        <time>2021-08-28T08:15:27Z</time>
      </trkpt>
      <trkpt lat="45.67443" lon="6.04534">
        <ele>930.2</ele>
        <time>2021-08-28T08:15:28Z</time>
      </trkpt>
      <trkpt lat="45.67441" lon="6.04532">
        <ele>930.4</ele>
        <time>2021-08-28T08:15:29Z</time>
      </trkpt>
      <trkpt lat="45.6744" lon="6.0453">
        <ele>930.6</ele>
        <time>2021-08-28T08:15:30Z</time>
      </trkpt>
      <trkpt lat="45.67439" lon="6.04529">
        <ele>930.7</ele>
        <time>2021-08-28T08:15:31Z</time>
      </trkpt>
      <trkpt lat="45.67438" lon="6.04527">
        <ele>930.9</ele>
        <time>2021-08-28T08:15:32Z</time>
      </trkpt>
      <trkpt lat="45.67436" lon="6.04526">
        <ele>931</ele>
        <time>2021-08-28T08:15:33Z</time>
      </trkpt>
      <trkpt lat="45.67435" lon="6.04524">
        <ele>931.1</ele>
        <time>2021-08-28T08:15:34Z</time>
      </trkpt>
      <trkpt lat="45.67434" lon="6.04523">
        <ele>931.3</ele>
        <time>2021-08-28T08:15:35Z</time>
      </trkpt>
      <trkpt lat="45.67433" lon="6.04521">
        <ele>931.4</ele>
        <time>2021-08-28T08:15:36Z</time>
      </trkpt>
      <trkpt lat="45.67432" lon="6.04518">
        <ele>931.6</ele>
        <time>2021-08-28T08:15:37Z</time>
      </trkpt>
      <trkpt lat="45.67431" lon="6.04517">
        <ele>931.7</ele>
        <time>2021-08-28T08:15:38Z</time>
      </trkpt>
      <trkpt lat="45.6743" lon="6.04515">
        <ele>931.9</ele>
        <time>2021-08-28T08:15:39Z</time>
      </trkpt>
      <trkpt lat="45.67429" lon="6.04514">
        <ele>932</ele>
        <time>2021-08-28T08:15:40Z</time>
      </trkpt>
      <trkpt lat="45.67429" lon="6.04513">
        <ele>932.1</ele>
        <time>2021-08-28T08:15:41Z</time>
      </trkpt>
      <trkpt lat="45.67427" lon="6.04511">
        <ele>932.2</ele>
        <time>2021-08-28T08:15:42Z</time>
      </trkpt>
      <trkpt lat="45.67426" lon="6.0451">
        <ele>932.3</ele>
        <time>2021-08-28T08:15:43Z</time>
      </trkpt>
      <trkpt lat="45.67425" lon="6.04508">
        <ele>932.5</ele>
        <time>2021-08-28T08:15:44Z</time>
      </trkpt>
      <trkpt lat="45.67424" lon="6.04507">
        <ele>932.6</ele>
        <time>2021-08-28T08:15:45Z</time>
      </trkpt>
      <trkpt lat="45.67423" lon="6.04506">
        <ele>932.7</ele>
        <time>2021-08-28T08:15:46Z</time>
      </trkpt>
      <trkpt lat="45.67421" lon="6.04503">
        <ele>932.9</ele>
        <time>2021-08-28T08:15:47Z</time>
      </trkpt>
      <trkpt lat="45.6742" lon="6.04502">
        <ele>933</ele>
        <time>2021-08-28T08:15:48Z</time>
      </trkpt>
      <trkpt lat="45.67417" lon="6.04498">
        <ele>933.4</ele>
        <time>2021-08-28T08:15:50Z</time>
      </trkpt>
      <trkpt lat="45.67415" lon="6.04495">
        <ele>933.7</ele>
        <time>2021-08-28T08:15:51Z</time>
      </trkpt>
      <trkpt lat="45.67414" lon="6.04494">
        <ele>933.7</ele>
        <time>2021-08-28T08:15:52Z</time>
      </trkpt>
      <trkpt lat="45.6741" lon="6.0449">
        <ele>934.2</ele>
        <time>2021-08-28T08:15:54Z</time>
      </trkpt>
      <trkpt lat="45.67409" lon="6.04489">
        <ele>934.3</ele>
        <time>2021-08-28T08:15:56Z</time>
      </trkpt>
      <trkpt lat="45.67408" lon="6.04488">
        <ele>934.4</ele>
        <time>2021-08-28T08:15:57Z</time>
      </trkpt>
      <trkpt lat="45.67405" lon="6.04484">
        <ele>934.8</ele>
        <time>2021-08-28T08:16:00Z</time>
      </trkpt>
      <trkpt lat="45.67402" lon="6.04481">
        <ele>935.1</ele>
        <time>2021-08-28T08:16:02Z</time>
      </trkpt>
      <trkpt lat="45.67399" lon="6.04479">
        <ele>935.4</ele>
        <time>2021-08-28T08:16:04Z</time>
      </trkpt>
      <trkpt lat="45.67398" lon="6.04477">
        <ele>935.6</ele>
        <time>2021-08-28T08:16:05Z</time>
      </trkpt>
      <trkpt lat="45.67396" lon="6.04476">
        <ele>935.7</ele>
        <time>2021-08-28T08:16:07Z</time>
      </trkpt>
      <trkpt lat="45.67392" lon="6.04473">
        <ele>936.1</ele>
        <time>2021-08-28T08:16:10Z</time>
      </trkpt>
      <trkpt lat="45.6739" lon="6.0447">
        <ele>936.4</ele>
        <time>2021-08-28T08:16:11Z</time>
      </trkpt>
      <trkpt lat="45.67388" lon="6.04467">
        <ele>936.7</ele>
        <time>2021-08-28T08:16:14Z</time>
      </trkpt>
      <trkpt lat="45.67385" lon="6.04465">
        <ele>937</ele>
        <time>2021-08-28T08:16:15Z</time>
      </trkpt>
      <trkpt lat="45.67384" lon="6.04463">
        <ele>937.1</ele>
        <time>2021-08-28T08:16:17Z</time>
      </trkpt>
      <trkpt lat="45.67382" lon="6.04462">
        <ele>937.3</ele>
        <time>2021-08-28T08:16:18Z</time>
      </trkpt>
      <trkpt lat="45.67379" lon="6.04459">
        <ele>937.6</ele>
        <time>2021-08-28T08:16:20Z</time>
      </trkpt>
      <trkpt lat="45.67379" lon="6.04459">
        <ele>937.7</ele>
        <time>2021-08-28T08:16:21Z</time>
      </trkpt>
      <trkpt lat="45.67376" lon="6.04455">
        <ele>937.9</ele>
        <time>2021-08-28T08:16:22Z</time>
      </trkpt>
      <trkpt lat="45.67375" lon="6.04454">
        <ele>938.1</ele>
        <time>2021-08-28T08:16:23Z</time>
      </trkpt>
      <trkpt lat="45.67374" lon="6.04452">
        <ele>938.2</ele>
        <time>2021-08-28T08:16:25Z</time>
      </trkpt>
      <trkpt lat="45.67372" lon="6.0445">
        <ele>938.4</ele>
        <time>2021-08-28T08:16:27Z</time>
      </trkpt>
      <trkpt lat="45.6737" lon="6.04448">
        <ele>938.6</ele>
        <time>2021-08-28T08:16:29Z</time>
      </trkpt>
      <trkpt lat="45.67367" lon="6.04445">
        <ele>938.9</ele>
        <time>2021-08-28T08:16:31Z</time>
      </trkpt>
      <trkpt lat="45.67365" lon="6.04443">
        <ele>939.1</ele>
        <time>2021-08-28T08:16:32Z</time>
      </trkpt>
      <trkpt lat="45.67362" lon="6.04439">
        <ele>939.4</ele>
        <time>2021-08-28T08:16:34Z</time>
      </trkpt>
      <trkpt lat="45.67359" lon="6.04435">
        <ele>939.8</ele>
        <time>2021-08-28T08:16:35Z</time>
      </trkpt>
      <trkpt lat="45.67358" lon="6.04433">
        <ele>939.9</ele>
        <time>2021-08-28T08:16:36Z</time>
      </trkpt>
      <trkpt lat="45.67356" lon="6.0443">
        <ele>940.2</ele>
        <time>2021-08-28T08:16:38Z</time>
      </trkpt>
      <trkpt lat="45.67355" lon="6.04428">
        <ele>940.3</ele>
        <time>2021-08-28T08:16:39Z</time>
      </trkpt>
      <trkpt lat="45.67353" lon="6.04426">
        <ele>940.4</ele>
        <time>2021-08-28T08:16:40Z</time>
      </trkpt>
      <trkpt lat="45.67351" lon="6.04426">
        <ele>940.6</ele>
        <time>2021-08-28T08:16:42Z</time>
      </trkpt>
      <trkpt lat="45.67348" lon="6.0442">
        <ele>941</ele>
        <time>2021-08-28T08:16:44Z</time>
      </trkpt>
      <trkpt lat="45.67347" lon="6.04418">
        <ele>941.1</ele>
        <time>2021-08-28T08:16:45Z</time>
      </trkpt>
      <trkpt lat="45.67346" lon="6.04417">
        <ele>941.3</ele>
        <time>2021-08-28T08:16:48Z</time>
      </trkpt>
      <trkpt lat="45.67344" lon="6.04415">
        <ele>941.4</ele>
        <time>2021-08-28T08:16:49Z</time>
      </trkpt>
      <trkpt lat="45.67343" lon="6.04413">
        <ele>941.6</ele>
        <time>2021-08-28T08:16:50Z</time>
      </trkpt>
      <trkpt lat="45.67341" lon="6.0441">
        <ele>941.8</ele>
        <time>2021-08-28T08:16:51Z</time>
      </trkpt>
      <trkpt lat="45.67336" lon="6.04406">
        <ele>942.2</ele>
        <time>2021-08-28T08:16:54Z</time>
      </trkpt>
      <trkpt lat="45.67334" lon="6.04402">
        <ele>942.5</ele>
        <time>2021-08-28T08:16:56Z</time>
      </trkpt>
      <trkpt lat="45.67332" lon="6.044">
        <ele>942.7</ele>
        <time>2021-08-28T08:16:57Z</time>
      </trkpt>
      <trkpt lat="45.67332" lon="6.04397">
        <ele>942.9</ele>
        <time>2021-08-28T08:16:59Z</time>
      </trkpt>
      <trkpt lat="45.6733" lon="6.04394">
        <ele>943.1</ele>
        <time>2021-08-28T08:17:01Z</time>
      </trkpt>
      <trkpt lat="45.67329" lon="6.04393">
        <ele>943.2</ele>
        <time>2021-08-28T08:17:02Z</time>
      </trkpt>
      <trkpt lat="45.67327" lon="6.04389">
        <ele>943.5</ele>
        <time>2021-08-28T08:17:04Z</time>
      </trkpt>
      <trkpt lat="45.67324" lon="6.04386">
        <ele>943.9</ele>
        <time>2021-08-28T08:17:06Z</time>
      </trkpt>
      <trkpt lat="45.67323" lon="6.04384">
        <ele>944</ele>
        <time>2021-08-28T08:17:07Z</time>
      </trkpt>
      <trkpt lat="45.6732" lon="6.04381">
        <ele>944.4</ele>
        <time>2021-08-28T08:17:09Z</time>
      </trkpt>
      <trkpt lat="45.67318" lon="6.04378">
        <ele>944.6</ele>
        <time>2021-08-28T08:17:10Z</time>
      </trkpt>
      <trkpt lat="45.67317" lon="6.04377">
        <ele>944.7</ele>
        <time>2021-08-28T08:17:11Z</time>
      </trkpt>
      <trkpt lat="45.67316" lon="6.04375">
        <ele>944.9</ele>
        <time>2021-08-28T08:17:12Z</time>
      </trkpt>
      <trkpt lat="45.67313" lon="6.04371">
        <ele>945.3</ele>
        <time>2021-08-28T08:17:14Z</time>
      </trkpt>
      <trkpt lat="45.6731" lon="6.04367">
        <ele>945.7</ele>
        <time>2021-08-28T08:17:16Z</time>
      </trkpt>
      <trkpt lat="45.67305" lon="6.04363">
        <ele>946.2</ele>
        <time>2021-08-28T08:17:19Z</time>
      </trkpt>
      <trkpt lat="45.67302" lon="6.0436">
        <ele>946.5</ele>
        <time>2021-08-28T08:17:20Z</time>
      </trkpt>
      <trkpt lat="45.67301" lon="6.04359">
        <ele>946.7</ele>
        <time>2021-08-28T08:17:22Z</time>
      </trkpt>
      <trkpt lat="45.673" lon="6.04357">
        <ele>946.9</ele>
        <time>2021-08-28T08:17:24Z</time>
      </trkpt>
      <trkpt lat="45.67297" lon="6.04353">
        <ele>947.2</ele>
        <time>2021-08-28T08:17:26Z</time>
      </trkpt>
      <trkpt lat="45.67295" lon="6.04351">
        <ele>947.4</ele>
        <time>2021-08-28T08:17:28Z</time>
      </trkpt>
      <trkpt lat="45.67291" lon="6.04347">
        <ele>947.9</ele>
        <time>2021-08-28T08:17:31Z</time>
      </trkpt>
      <trkpt lat="45.67287" lon="6.04343">
        <ele>948.3</ele>
        <time>2021-08-28T08:17:33Z</time>
      </trkpt>
      <trkpt lat="45.67286" lon="6.04342">
        <ele>948.4</ele>
        <time>2021-08-28T08:17:35Z</time>
      </trkpt>
      <trkpt lat="45.67285" lon="6.04341">
        <ele>948.5</ele>
        <time>2021-08-28T08:17:36Z</time>
      </trkpt>
      <trkpt lat="45.67283" lon="6.04338">
        <ele>948.8</ele>
        <time>2021-08-28T08:17:37Z</time>
      </trkpt>
      <trkpt lat="45.67282" lon="6.04337">
        <ele>948.9</ele>
        <time>2021-08-28T08:17:38Z</time>
      </trkpt>
      <trkpt lat="45.67281" lon="6.04335">
        <ele>949.1</ele>
        <time>2021-08-28T08:17:40Z</time>
      </trkpt>
      <trkpt lat="45.67279" lon="6.04332">
        <ele>949.3</ele>
        <time>2021-08-28T08:17:42Z</time>
      </trkpt>
      <trkpt lat="45.67276" lon="6.0433">
        <ele>949.6</ele>
        <time>2021-08-28T08:17:43Z</time>
      </trkpt>
      <trkpt lat="45.67275" lon="6.04328">
        <ele>949.8</ele>
        <time>2021-08-28T08:17:44Z</time>
      </trkpt>
      <trkpt lat="45.67272" lon="6.04325">
        <ele>950.1</ele>
        <time>2021-08-28T08:17:46Z</time>
      </trkpt>
      <trkpt lat="45.67271" lon="6.04324">
        <ele>950.2</ele>
        <time>2021-08-28T08:17:47Z</time>
      </trkpt>
      <trkpt lat="45.67269" lon="6.04321">
        <ele>950.6</ele>
        <time>2021-08-28T08:17:49Z</time>
      </trkpt>
      <trkpt lat="45.67268" lon="6.0432">
        <ele>950.6</ele>
        <time>2021-08-28T08:17:50Z</time>
      </trkpt>
      <trkpt lat="45.67267" lon="6.04318">
        <ele>950.8</ele>
        <time>2021-08-28T08:17:51Z</time>
      </trkpt>
      <trkpt lat="45.67266" lon="6.04315">
        <ele>951</ele>
        <time>2021-08-28T08:17:53Z</time>
      </trkpt>
      <trkpt lat="45.67264" lon="6.04313">
        <ele>951.2</ele>
        <time>2021-08-28T08:17:54Z</time>
      </trkpt>
      <trkpt lat="45.67263" lon="6.04312">
        <ele>951.3</ele>
        <time>2021-08-28T08:17:55Z</time>
      </trkpt>
      <trkpt lat="45.67262" lon="6.04309">
        <ele>951.6</ele>
        <time>2021-08-28T08:17:57Z</time>
      </trkpt>
      <trkpt lat="45.6726" lon="6.04305">
        <ele>951.9</ele>
        <time>2021-08-28T08:17:59Z</time>
      </trkpt>
      <trkpt lat="45.67258" lon="6.04302">
        <ele>952.1</ele>
        <time>2021-08-28T08:18:00Z</time>
      </trkpt>
      <trkpt lat="45.67257" lon="6.04301">
        <ele>952.2</ele>
        <time>2021-08-28T08:18:01Z</time>
      </trkpt>
      <trkpt lat="45.67256" lon="6.04299">
        <ele>952.3</ele>
        <time>2021-08-28T08:18:02Z</time>
      </trkpt>
      <trkpt lat="45.67255" lon="6.04297">
        <ele>952.5</ele>
        <time>2021-08-28T08:18:03Z</time>
      </trkpt>
      <trkpt lat="45.67253" lon="6.04294">
        <ele>952.8</ele>
        <time>2021-08-28T08:18:06Z</time>
      </trkpt>
      <trkpt lat="45.67251" lon="6.04291">
        <ele>953.1</ele>
        <time>2021-08-28T08:18:08Z</time>
      </trkpt>
      <trkpt lat="45.67249" lon="6.04287">
        <ele>953.4</ele>
        <time>2021-08-28T08:18:10Z</time>
      </trkpt>
      <trkpt lat="45.67249" lon="6.04286">
        <ele>953.4</ele>
        <time>2021-08-28T08:18:11Z</time>
      </trkpt>
      <trkpt lat="45.67245" lon="6.04281">
        <ele>953.9</ele>
        <time>2021-08-28T08:18:13Z</time>
      </trkpt>
      <trkpt lat="45.67244" lon="6.04279">
        <ele>954.1</ele>
        <time>2021-08-28T08:18:15Z</time>
      </trkpt>
      <trkpt lat="45.67243" lon="6.04277">
        <ele>954.3</ele>
        <time>2021-08-28T08:18:16Z</time>
      </trkpt>
      <trkpt lat="45.67241" lon="6.04275">
        <ele>954.5</ele>
        <time>2021-08-28T08:18:17Z</time>
      </trkpt>
      <trkpt lat="45.6724" lon="6.04272">
        <ele>954.6</ele>
        <time>2021-08-28T08:18:19Z</time>
      </trkpt>
      <trkpt lat="45.6724" lon="6.04271">
        <ele>954.7</ele>
        <time>2021-08-28T08:18:20Z</time>
      </trkpt>
      <trkpt lat="45.67238" lon="6.04268">
        <ele>955</ele>
        <time>2021-08-28T08:18:22Z</time>
      </trkpt>
      <trkpt lat="45.67236" lon="6.04265">
        <ele>955.2</ele>
        <time>2021-08-28T08:18:24Z</time>
      </trkpt>
      <trkpt lat="45.67234" lon="6.04262">
        <ele>955.5</ele>
        <time>2021-08-28T08:18:26Z</time>
      </trkpt>
      <trkpt lat="45.67232" lon="6.04259">
        <ele>955.8</ele>
        <time>2021-08-28T08:18:28Z</time>
      </trkpt>
      <trkpt lat="45.67231" lon="6.04257">
        <ele>956</ele>
        <time>2021-08-28T08:18:29Z</time>
      </trkpt>
      <trkpt lat="45.6723" lon="6.04256">
        <ele>956.1</ele>
        <time>2021-08-28T08:18:30Z</time>
      </trkpt>
      <trkpt lat="45.67227" lon="6.04252">
        <ele>956.4</ele>
        <time>2021-08-28T08:18:32Z</time>
      </trkpt>
      <trkpt lat="45.67225" lon="6.04249">
        <ele>956.7</ele>
        <time>2021-08-28T08:18:34Z</time>
      </trkpt>
      <trkpt lat="45.67223" lon="6.04246">
        <ele>957</ele>
        <time>2021-08-28T08:18:36Z</time>
      </trkpt>
      <trkpt lat="45.67222" lon="6.04245">
        <ele>957.1</ele>
        <time>2021-08-28T08:18:37Z</time>
      </trkpt>
      <trkpt lat="45.67218" lon="6.04241">
        <ele>957.5</ele>
        <time>2021-08-28T08:18:39Z</time>
      </trkpt>
      <trkpt lat="45.67215" lon="6.04239">
        <ele>957.8</ele>
        <time>2021-08-28T08:18:41Z</time>
      </trkpt>
      <trkpt lat="45.67213" lon="6.04238">
        <ele>958</ele>
        <time>2021-08-28T08:18:42Z</time>
      </trkpt>
      <trkpt lat="45.67212" lon="6.04237">
        <ele>958.1</ele>
        <time>2021-08-28T08:18:44Z</time>
      </trkpt>
      <trkpt lat="45.67209" lon="6.04234">
        <ele>958.5</ele>
        <time>2021-08-28T08:18:45Z</time>
      </trkpt>
      <trkpt lat="45.67208" lon="6.04233">
        <ele>958.6</ele>
        <time>2021-08-28T08:18:47Z</time>
      </trkpt>
      <trkpt lat="45.67207" lon="6.04232">
        <ele>958.7</ele>
        <time>2021-08-28T08:18:48Z</time>
      </trkpt>
      <trkpt lat="45.67202" lon="6.04229">
        <ele>959.2</ele>
        <time>2021-08-28T08:18:50Z</time>
      </trkpt>
      <trkpt lat="45.67201" lon="6.04229">
        <ele>959.3</ele>
        <time>2021-08-28T08:18:52Z</time>
      </trkpt>
      <trkpt lat="45.67199" lon="6.04228">
        <ele>959.5</ele>
        <time>2021-08-28T08:18:53Z</time>
      </trkpt>
      <trkpt lat="45.67196" lon="6.04227">
        <ele>959.8</ele>
        <time>2021-08-28T08:18:55Z</time>
      </trkpt>
      <trkpt lat="45.67191" lon="6.04225">
        <ele>960.2</ele>
        <time>2021-08-28T08:18:57Z</time>
      </trkpt>
      <trkpt lat="45.6719" lon="6.04225">
        <ele>960.4</ele>
        <time>2021-08-28T08:18:58Z</time>
      </trkpt>
      <trkpt lat="45.67188" lon="6.04224">
        <ele>960.5</ele>
        <time>2021-08-28T08:18:59Z</time>
      </trkpt>
      <trkpt lat="45.67186" lon="6.04224">
        <ele>960.7</ele>
        <time>2021-08-28T08:19:01Z</time>
      </trkpt>
      <trkpt lat="45.67186" lon="6.04224">
        <ele>960.8</ele>
        <time>2021-08-28T08:19:02Z</time>
      </trkpt>
      <trkpt lat="45.67185" lon="6.04224">
        <ele>960.9</ele>
        <time>2021-08-28T08:19:03Z</time>
      </trkpt>
      <trkpt lat="45.67181" lon="6.04223">
        <ele>961.2</ele>
        <time>2021-08-28T08:19:04Z</time>
      </trkpt>
      <trkpt lat="45.6718" lon="6.04223">
        <ele>961.3</ele>
        <time>2021-08-28T08:19:05Z</time>
      </trkpt>
      <trkpt lat="45.67177" lon="6.04223">
        <ele>961.6</ele>
        <time>2021-08-28T08:19:07Z</time>
      </trkpt>
      <trkpt lat="45.67174" lon="6.04222">
        <ele>961.9</ele>
        <time>2021-08-28T08:19:08Z</time>
      </trkpt>
      <trkpt lat="45.67172" lon="6.04222">
        <ele>962.1</ele>
        <time>2021-08-28T08:19:10Z</time>
      </trkpt>
      <trkpt lat="45.6717" lon="6.04222">
        <ele>962.2</ele>
        <time>2021-08-28T08:19:11Z</time>
      </trkpt>
      <trkpt lat="45.67169" lon="6.04221">
        <ele>962.3</ele>
        <time>2021-08-28T08:19:13Z</time>
      </trkpt>
      <trkpt lat="45.67168" lon="6.04221">
        <ele>962.5</ele>
        <time>2021-08-28T08:19:14Z</time>
      </trkpt>
      <trkpt lat="45.67164" lon="6.0422">
        <ele>962.8</ele>
        <time>2021-08-28T08:19:16Z</time>
      </trkpt>
      <trkpt lat="45.67164" lon="6.04219">
        <ele>962.9</ele>
        <time>2021-08-28T08:19:17Z</time>
      </trkpt>
      <trkpt lat="45.6716" lon="6.04218">
        <ele>963.2</ele>
        <time>2021-08-28T08:19:19Z</time>
      </trkpt>
      <trkpt lat="45.67157" lon="6.04217">
        <ele>963.6</ele>
        <time>2021-08-28T08:19:21Z</time>
      </trkpt>
      <trkpt lat="45.67154" lon="6.04217">
        <ele>963.8</ele>
        <time>2021-08-28T08:19:22Z</time>
      </trkpt>
      <trkpt lat="45.67153" lon="6.04217">
        <ele>963.9</ele>
        <time>2021-08-28T08:19:23Z</time>
      </trkpt>
      <trkpt lat="45.67149" lon="6.04217">
        <ele>964.2</ele>
        <time>2021-08-28T08:19:25Z</time>
      </trkpt>
      <trkpt lat="45.67148" lon="6.04216">
        <ele>964.4</ele>
        <time>2021-08-28T08:19:26Z</time>
      </trkpt>
      <trkpt lat="45.67144" lon="6.04216">
        <ele>964.8</ele>
        <time>2021-08-28T08:19:28Z</time>
      </trkpt>
      <trkpt lat="45.6714" lon="6.04215">
        <ele>965.1</ele>
        <time>2021-08-28T08:19:29Z</time>
      </trkpt>
      <trkpt lat="45.67139" lon="6.04215">
        <ele>965.2</ele>
        <time>2021-08-28T08:19:30Z</time>
      </trkpt>
      <trkpt lat="45.67137" lon="6.04214">
        <ele>965.4</ele>
        <time>2021-08-28T08:19:32Z</time>
      </trkpt>
      <trkpt lat="45.67135" lon="6.04214">
        <ele>965.6</ele>
        <time>2021-08-28T08:19:34Z</time>
      </trkpt>
      <trkpt lat="45.67133" lon="6.04214">
        <ele>965.8</ele>
        <time>2021-08-28T08:19:35Z</time>
      </trkpt>
      <trkpt lat="45.67131" lon="6.04214">
        <ele>966</ele>
        <time>2021-08-28T08:19:36Z</time>
      </trkpt>
      <trkpt lat="45.67128" lon="6.04213">
        <ele>966.3</ele>
        <time>2021-08-28T08:19:38Z</time>
      </trkpt>
      <trkpt lat="45.67127" lon="6.04213">
        <ele>966.4</ele>
        <time>2021-08-28T08:19:39Z</time>
      </trkpt>
      <trkpt lat="45.67125" lon="6.04212">
        <ele>966.6</ele>
        <time>2021-08-28T08:19:40Z</time>
      </trkpt>
      <trkpt lat="45.67123" lon="6.04212">
        <ele>966.8</ele>
        <time>2021-08-28T08:19:42Z</time>
      </trkpt>
      <trkpt lat="45.6712" lon="6.04211">
        <ele>967.1</ele>
        <time>2021-08-28T08:19:43Z</time>
      </trkpt>
      <trkpt lat="45.67117" lon="6.0421">
        <ele>967.4</ele>
        <time>2021-08-28T08:19:44Z</time>
      </trkpt>
      <trkpt lat="45.67116" lon="6.04209">
        <ele>967.6</ele>
        <time>2021-08-28T08:19:46Z</time>
      </trkpt>
      <trkpt lat="45.67114" lon="6.04209">
        <ele>967.8</ele>
        <time>2021-08-28T08:19:47Z</time>
      </trkpt>
      <trkpt lat="45.67113" lon="6.04208">
        <ele>967.9</ele>
        <time>2021-08-28T08:19:48Z</time>
      </trkpt>
      <trkpt lat="45.67112" lon="6.04205">
        <ele>968.2</ele>
        <time>2021-08-28T08:19:49Z</time>
      </trkpt>
      <trkpt lat="45.67112" lon="6.04201">
        <ele>968.5</ele>
        <time>2021-08-28T08:19:51Z</time>
      </trkpt>
      <trkpt lat="45.67114" lon="6.04194">
        <ele>969</ele>
        <time>2021-08-28T08:19:53Z</time>
      </trkpt>
      <trkpt lat="45.67116" lon="6.0419">
        <ele>969.3</ele>
        <time>2021-08-28T08:19:54Z</time>
      </trkpt>
      <trkpt lat="45.6712" lon="6.04186">
        <ele>969.8</ele>
        <time>2021-08-28T08:19:55Z</time>
      </trkpt>
      <trkpt lat="45.67123" lon="6.04186">
        <ele>970</ele>
        <time>2021-08-28T08:19:57Z</time>
      </trkpt>
      <trkpt lat="45.67127" lon="6.04185">
        <ele>970.4</ele>
        <time>2021-08-28T08:19:58Z</time>
      </trkpt>
      <trkpt lat="45.67133" lon="6.04182">
        <ele>970.9</ele>
        <time>2021-08-28T08:20:00Z</time>
      </trkpt>
      <trkpt lat="45.67138" lon="6.04179">
        <ele>971.4</ele>
        <time>2021-08-28T08:20:03Z</time>
      </trkpt>
      <trkpt lat="45.67143" lon="6.04175">
        <ele>971.8</ele>
        <time>2021-08-28T08:20:06Z</time>
      </trkpt>
      <trkpt lat="45.67145" lon="6.04173">
        <ele>972</ele>
        <time>2021-08-28T08:20:09Z</time>
      </trkpt>
      <trkpt lat="45.67146" lon="6.04172">
        <ele>972.1</ele>
        <time>2021-08-28T08:20:10Z</time>
      </trkpt>
      <trkpt lat="45.67147" lon="6.0417">
        <ele>972.3</ele>
        <time>2021-08-28T08:20:11Z</time>
      </trkpt>
      <trkpt lat="45.6715" lon="6.04167">
        <ele>972.5</ele>
        <time>2021-08-28T08:20:12Z</time>
      </trkpt>
      <trkpt lat="45.67151" lon="6.04166">
        <ele>972.6</ele>
        <time>2021-08-28T08:20:13Z</time>
      </trkpt>
      <trkpt lat="45.67155" lon="6.04163">
        <ele>973</ele>
        <time>2021-08-28T08:20:15Z</time>
      </trkpt>
      <trkpt lat="45.67161" lon="6.04159">
        <ele>973.5</ele>
        <time>2021-08-28T08:20:18Z</time>
      </trkpt>
      <trkpt lat="45.67164" lon="6.04157">
        <ele>973.8</ele>
        <time>2021-08-28T08:20:21Z</time>
      </trkpt>
      <trkpt lat="45.67167" lon="6.04155">
        <ele>974</ele>
        <time>2021-08-28T08:20:24Z</time>
      </trkpt>
      <trkpt lat="45.67169" lon="6.04154">
        <ele>974.3</ele>
        <time>2021-08-28T08:20:27Z</time>
      </trkpt>
      <trkpt lat="45.67172" lon="6.04152">
        <ele>974.5</ele>
        <time>2021-08-28T08:20:29Z</time>
      </trkpt>
      <trkpt lat="45.67175" lon="6.0415">
        <ele>974.8</ele>
        <time>2021-08-28T08:20:30Z</time>
      </trkpt>
      <trkpt lat="45.67177" lon="6.0415">
        <ele>974.9</ele>
        <time>2021-08-28T08:20:31Z</time>
      </trkpt>
      <trkpt lat="45.6718" lon="6.04149">
        <ele>975.2</ele>
        <time>2021-08-28T08:20:33Z</time>
      </trkpt>
      <trkpt lat="45.67182" lon="6.04148">
        <ele>975.3</ele>
        <time>2021-08-28T08:20:34Z</time>
      </trkpt>
      <trkpt lat="45.67185" lon="6.04147">
        <ele>975.6</ele>
        <time>2021-08-28T08:20:36Z</time>
      </trkpt>
      <trkpt lat="45.67188" lon="6.04146">
        <ele>975.9</ele>
        <time>2021-08-28T08:20:38Z</time>
      </trkpt>
      <trkpt lat="45.67191" lon="6.04144">
        <ele>976.1</ele>
        <time>2021-08-28T08:20:39Z</time>
      </trkpt>
      <trkpt lat="45.67192" lon="6.04144">
        <ele>976.2</ele>
        <time>2021-08-28T08:20:40Z</time>
      </trkpt>
      <trkpt lat="45.67194" lon="6.04143">
        <ele>976.4</ele>
        <time>2021-08-28T08:20:42Z</time>
      </trkpt>
      <trkpt lat="45.67198" lon="6.04141">
        <ele>976.7</ele>
        <time>2021-08-28T08:20:43Z</time>
      </trkpt>
      <trkpt lat="45.672" lon="6.0414">
        <ele>976.8</ele>
        <time>2021-08-28T08:20:45Z</time>
      </trkpt>
      <trkpt lat="45.67204" lon="6.04139">
        <ele>977.2</ele>
        <time>2021-08-28T08:20:47Z</time>
      </trkpt>
      <trkpt lat="45.67206" lon="6.04139">
        <ele>977.4</ele>
        <time>2021-08-28T08:20:48Z</time>
      </trkpt>
      <trkpt lat="45.67208" lon="6.04139">
        <ele>977.5</ele>
        <time>2021-08-28T08:20:50Z</time>
      </trkpt>
      <trkpt lat="45.6721" lon="6.04139">
        <ele>977.7</ele>
        <time>2021-08-28T08:20:51Z</time>
      </trkpt>
      <trkpt lat="45.67214" lon="6.04139">
        <ele>978</ele>
        <time>2021-08-28T08:20:53Z</time>
      </trkpt>
      <trkpt lat="45.67216" lon="6.04137">
        <ele>978.2</ele>
        <time>2021-08-28T08:20:55Z</time>
      </trkpt>
      <trkpt lat="45.67218" lon="6.04136">
        <ele>978.4</ele>
        <time>2021-08-28T08:20:56Z</time>
      </trkpt>
      <trkpt lat="45.67221" lon="6.04135">
        <ele>978.7</ele>
        <time>2021-08-28T08:20:58Z</time>
      </trkpt>
      <trkpt lat="45.67222" lon="6.04133">
        <ele>978.8</ele>
        <time>2021-08-28T08:20:59Z</time>
      </trkpt>
      <trkpt lat="45.67224" lon="6.04131">
        <ele>979</ele>
        <time>2021-08-28T08:21:01Z</time>
      </trkpt>
      <trkpt lat="45.67225" lon="6.04128">
        <ele>979.2</ele>
        <time>2021-08-28T08:21:03Z</time>
      </trkpt>
      <trkpt lat="45.67226" lon="6.04122">
        <ele>979.7</ele>
        <time>2021-08-28T08:21:06Z</time>
      </trkpt>
      <trkpt lat="45.67227" lon="6.04118">
        <ele>979.9</ele>
        <time>2021-08-28T08:21:07Z</time>
      </trkpt>
      <trkpt lat="45.67225" lon="6.04108">
        <ele>980.5</ele>
        <time>2021-08-28T08:21:09Z</time>
      </trkpt>
      <trkpt lat="45.67219" lon="6.041">
        <ele>981.1</ele>
        <time>2021-08-28T08:21:12Z</time>
      </trkpt>
      <trkpt lat="45.67216" lon="6.04097">
        <ele>981.4</ele>
        <time>2021-08-28T08:21:13Z</time>
      </trkpt>
      <trkpt lat="45.67209" lon="6.04098">
        <ele>981.9</ele>
        <time>2021-08-28T08:21:16Z</time>
      </trkpt>
      <trkpt lat="45.67205" lon="6.04099">
        <ele>982.2</ele>
        <time>2021-08-28T08:21:17Z</time>
      </trkpt>
      <trkpt lat="45.67203" lon="6.041">
        <ele>982.3</ele>
        <time>2021-08-28T08:21:18Z</time>
      </trkpt>
      <trkpt lat="45.67199" lon="6.04101">
        <ele>982.6</ele>
        <time>2021-08-28T08:21:19Z</time>
      </trkpt>
      <trkpt lat="45.67193" lon="6.04104">
        <ele>983.1</ele>
        <time>2021-08-28T08:21:21Z</time>
      </trkpt>
      <trkpt lat="45.6719" lon="6.04107">
        <ele>983.3</ele>
        <time>2021-08-28T08:21:23Z</time>
      </trkpt>
      <trkpt lat="45.67186" lon="6.04108">
        <ele>983.6</ele>
        <time>2021-08-28T08:21:24Z</time>
      </trkpt>
      <trkpt lat="45.67184" lon="6.04109">
        <ele>983.8</ele>
        <time>2021-08-28T08:21:26Z</time>
      </trkpt>
      <trkpt lat="45.67181" lon="6.0411">
        <ele>984</ele>
        <time>2021-08-28T08:21:28Z</time>
      </trkpt>
      <trkpt lat="45.67178" lon="6.0411">
        <ele>984.2</ele>
        <time>2021-08-28T08:21:29Z</time>
      </trkpt>
      <trkpt lat="45.67177" lon="6.0411">
        <ele>984.3</ele>
        <time>2021-08-28T08:21:30Z</time>
      </trkpt>
      <trkpt lat="45.67172" lon="6.04111">
        <ele>984.7</ele>
        <time>2021-08-28T08:21:33Z</time>
      </trkpt>
      <trkpt lat="45.6717" lon="6.04111">
        <ele>984.9</ele>
        <time>2021-08-28T08:21:35Z</time>
      </trkpt>
      <trkpt lat="45.67166" lon="6.04112">
        <ele>985.2</ele>
        <time>2021-08-28T08:21:37Z</time>
      </trkpt>
      <trkpt lat="45.67163" lon="6.04112">
        <ele>985.4</ele>
        <time>2021-08-28T08:21:38Z</time>
      </trkpt>
      <trkpt lat="45.67161" lon="6.04113">
        <ele>985.5</ele>
        <time>2021-08-28T08:21:39Z</time>
      </trkpt>
      <trkpt lat="45.67159" lon="6.04114">
        <ele>985.7</ele>
        <time>2021-08-28T08:21:40Z</time>
      </trkpt>
      <trkpt lat="45.67157" lon="6.04114">
        <ele>985.8</ele>
        <time>2021-08-28T08:21:42Z</time>
      </trkpt>
      <trkpt lat="45.67156" lon="6.04115">
        <ele>985.9</ele>
        <time>2021-08-28T08:21:43Z</time>
      </trkpt>
      <trkpt lat="45.67154" lon="6.04115">
        <ele>986.1</ele>
        <time>2021-08-28T08:21:44Z</time>
      </trkpt>
      <trkpt lat="45.67152" lon="6.04115">
        <ele>986.2</ele>
        <time>2021-08-28T08:21:46Z</time>
      </trkpt>
      <trkpt lat="45.67151" lon="6.04115">
        <ele>986.3</ele>
        <time>2021-08-28T08:21:47Z</time>
      </trkpt>
      <trkpt lat="45.67148" lon="6.04115">
        <ele>986.6</ele>
        <time>2021-08-28T08:21:48Z</time>
      </trkpt>
      <trkpt lat="45.67146" lon="6.04115">
        <ele>986.7</ele>
        <time>2021-08-28T08:21:50Z</time>
      </trkpt>
      <trkpt lat="45.67144" lon="6.04115">
        <ele>986.9</ele>
        <time>2021-08-28T08:21:52Z</time>
      </trkpt>
      <trkpt lat="45.67141" lon="6.04116">
        <ele>987.1</ele>
        <time>2021-08-28T08:21:53Z</time>
      </trkpt>
      <trkpt lat="45.67138" lon="6.04117">
        <ele>987.3</ele>
        <time>2021-08-28T08:21:55Z</time>
      </trkpt>
      <trkpt lat="45.67135" lon="6.04118">
        <ele>987.5</ele>
        <time>2021-08-28T08:21:58Z</time>
      </trkpt>
      <trkpt lat="45.67132" lon="6.04118">
        <ele>987.8</ele>
        <time>2021-08-28T08:22:00Z</time>
      </trkpt>
      <trkpt lat="45.67128" lon="6.04117">
        <ele>988.1</ele>
        <time>2021-08-28T08:22:02Z</time>
      </trkpt>
      <trkpt lat="45.67126" lon="6.04116">
        <ele>988.3</ele>
        <time>2021-08-28T08:22:04Z</time>
      </trkpt>
      <trkpt lat="45.67123" lon="6.04115">
        <ele>988.5</ele>
        <time>2021-08-28T08:22:06Z</time>
      </trkpt>
      <trkpt lat="45.67119" lon="6.04115">
        <ele>988.8</ele>
        <time>2021-08-28T08:22:08Z</time>
      </trkpt>
      <trkpt lat="45.67116" lon="6.04115">
        <ele>989</ele>
        <time>2021-08-28T08:22:10Z</time>
      </trkpt>
      <trkpt lat="45.67112" lon="6.04114">
        <ele>989.4</ele>
        <time>2021-08-28T08:22:13Z</time>
      </trkpt>
      <trkpt lat="45.67109" lon="6.04114">
        <ele>989.6</ele>
        <time>2021-08-28T08:22:14Z</time>
      </trkpt>
      <trkpt lat="45.67106" lon="6.04114">
        <ele>989.9</ele>
        <time>2021-08-28T08:22:16Z</time>
      </trkpt>
      <trkpt lat="45.67102" lon="6.04114">
        <ele>990.2</ele>
        <time>2021-08-28T08:22:17Z</time>
      </trkpt>
      <trkpt lat="45.671" lon="6.04113">
        <ele>990.4</ele>
        <time>2021-08-28T08:22:18Z</time>
      </trkpt>
      <trkpt lat="45.67099" lon="6.04113">
        <ele>990.5</ele>
        <time>2021-08-28T08:22:20Z</time>
      </trkpt>
      <trkpt lat="45.67096" lon="6.04112">
        <ele>990.8</ele>
        <time>2021-08-28T08:22:22Z</time>
      </trkpt>
      <trkpt lat="45.67093" lon="6.04111">
        <ele>991</ele>
        <time>2021-08-28T08:22:24Z</time>
      </trkpt>
      <trkpt lat="45.67089" lon="6.04109">
        <ele>991.4</ele>
        <time>2021-08-28T08:22:26Z</time>
      </trkpt>
      <trkpt lat="45.67085" lon="6.04108">
        <ele>991.6</ele>
        <time>2021-08-28T08:22:28Z</time>
      </trkpt>
      <trkpt lat="45.67084" lon="6.04108">
        <ele>991.8</ele>
        <time>2021-08-28T08:22:29Z</time>
      </trkpt>
      <trkpt lat="45.67082" lon="6.04108">
        <ele>991.9</ele>
        <time>2021-08-28T08:22:30Z</time>
      </trkpt>
      <trkpt lat="45.67078" lon="6.04108">
        <ele>992.3</ele>
        <time>2021-08-28T08:22:33Z</time>
      </trkpt>
      <trkpt lat="45.67076" lon="6.04107">
        <ele>992.5</ele>
        <time>2021-08-28T08:22:34Z</time>
      </trkpt>
      <trkpt lat="45.67072" lon="6.04107">
        <ele>992.8</ele>
        <time>2021-08-28T08:22:36Z</time>
      </trkpt>
      <trkpt lat="45.67069" lon="6.04106">
        <ele>993.1</ele>
        <time>2021-08-28T08:22:39Z</time>
      </trkpt>
      <trkpt lat="45.67068" lon="6.04106">
        <ele>993.2</ele>
        <time>2021-08-28T08:22:40Z</time>
      </trkpt>
      <trkpt lat="45.67067" lon="6.04106">
        <ele>993.3</ele>
        <time>2021-08-28T08:22:41Z</time>
      </trkpt>
      <trkpt lat="45.67066" lon="6.04106">
        <ele>993.4</ele>
        <time>2021-08-28T08:22:42Z</time>
      </trkpt>
      <trkpt lat="45.67064" lon="6.04105">
        <ele>993.5</ele>
        <time>2021-08-28T08:22:43Z</time>
      </trkpt>
      <trkpt lat="45.67063" lon="6.04105">
        <ele>993.6</ele>
        <time>2021-08-28T08:22:44Z</time>
      </trkpt>
      <trkpt lat="45.67062" lon="6.04105">
        <ele>993.7</ele>
        <time>2021-08-28T08:22:45Z</time>
      </trkpt>
      <trkpt lat="45.6706" lon="6.04105">
        <ele>993.9</ele>
        <time>2021-08-28T08:22:46Z</time>
      </trkpt>
      <trkpt lat="45.67059" lon="6.04104">
        <ele>994</ele>
        <time>2021-08-28T08:22:47Z</time>
      </trkpt>
      <trkpt lat="45.67057" lon="6.04104">
        <ele>994.2</ele>
        <time>2021-08-28T08:22:48Z</time>
      </trkpt>
      <trkpt lat="45.67056" lon="6.04104">
        <ele>994.3</ele>
        <time>2021-08-28T08:22:49Z</time>
      </trkpt>
      <trkpt lat="45.67053" lon="6.04103">
        <ele>994.6</ele>
        <time>2021-08-28T08:22:51Z</time>
      </trkpt>
      <trkpt lat="45.67051" lon="6.04103">
        <ele>994.7</ele>
        <time>2021-08-28T08:22:52Z</time>
      </trkpt>
      <trkpt lat="45.67049" lon="6.04102">
        <ele>994.9</ele>
        <time>2021-08-28T08:22:53Z</time>
      </trkpt>
      <trkpt lat="45.67048" lon="6.04102">
        <ele>995</ele>
        <time>2021-08-28T08:22:54Z</time>
      </trkpt>
      <trkpt lat="45.67046" lon="6.04102">
        <ele>995.2</ele>
        <time>2021-08-28T08:22:55Z</time>
      </trkpt>
      <trkpt lat="45.67044" lon="6.04102">
        <ele>995.4</ele>
        <time>2021-08-28T08:22:56Z</time>
      </trkpt>
      <trkpt lat="45.67043" lon="6.04102">
        <ele>995.5</ele>
        <time>2021-08-28T08:22:57Z</time>
      </trkpt>
      <trkpt lat="45.67042" lon="6.04102">
        <ele>995.5</ele>
        <time>2021-08-28T08:22:58Z</time>
      </trkpt>
      <trkpt lat="45.67041" lon="6.04102">
        <ele>995.7</ele>
        <time>2021-08-28T08:22:59Z</time>
      </trkpt>
      <trkpt lat="45.67039" lon="6.04102">
        <ele>995.8</ele>
        <time>2021-08-28T08:23:00Z</time>
      </trkpt>
      <trkpt lat="45.67038" lon="6.04101">
        <ele>995.9</ele>
        <time>2021-08-28T08:23:01Z</time>
      </trkpt>
      <trkpt lat="45.67037" lon="6.04101">
        <ele>996.1</ele>
        <time>2021-08-28T08:23:02Z</time>
      </trkpt>
      <trkpt lat="45.67035" lon="6.041">
        <ele>996.2</ele>
        <time>2021-08-28T08:23:03Z</time>
      </trkpt>
      <trkpt lat="45.67034" lon="6.041">
        <ele>996.3</ele>
        <time>2021-08-28T08:23:04Z</time>
      </trkpt>
      <trkpt lat="45.67032" lon="6.04099">
        <ele>996.5</ele>
        <time>2021-08-28T08:23:05Z</time>
      </trkpt>
      <trkpt lat="45.6703" lon="6.04098">
        <ele>996.7</ele>
        <time>2021-08-28T08:23:06Z</time>
      </trkpt>
      <trkpt lat="45.67029" lon="6.04097">
        <ele>996.8</ele>
        <time>2021-08-28T08:23:07Z</time>
      </trkpt>
      <trkpt lat="45.67028" lon="6.04096">
        <ele>996.9</ele>
        <time>2021-08-28T08:23:08Z</time>
      </trkpt>
      <trkpt lat="45.67026" lon="6.04094">
        <ele>997.2</ele>
        <time>2021-08-28T08:23:09Z</time>
      </trkpt>
      <trkpt lat="45.67025" lon="6.04093">
        <ele>997.3</ele>
        <time>2021-08-28T08:23:10Z</time>
      </trkpt>
      <trkpt lat="45.67024" lon="6.04088">
        <ele>997.8</ele>
        <time>2021-08-28T08:23:11Z</time>
      </trkpt>
      <trkpt lat="45.67024" lon="6.04086">
        <ele>997.9</ele>
        <time>2021-08-28T08:23:12Z</time>
      </trkpt>
      <trkpt lat="45.67024" lon="6.04081">
        <ele>998.2</ele>
        <time>2021-08-28T08:23:13Z</time>
      </trkpt>
      <trkpt lat="45.67024" lon="6.0408">
        <ele>998.3</ele>
        <time>2021-08-28T08:23:14Z</time>
      </trkpt>
      <trkpt lat="45.67026" lon="6.04077">
        <ele>998.5</ele>
        <time>2021-08-28T08:23:15Z</time>
      </trkpt>
      <trkpt lat="45.67027" lon="6.04076">
        <ele>998.6</ele>
        <time>2021-08-28T08:23:16Z</time>
      </trkpt>
      <trkpt lat="45.6703" lon="6.04074">
        <ele>998.9</ele>
        <time>2021-08-28T08:23:17Z</time>
      </trkpt>
      <trkpt lat="45.67031" lon="6.04074">
        <ele>998.9</ele>
        <time>2021-08-28T08:23:18Z</time>
      </trkpt>
      <trkpt lat="45.67034" lon="6.04072">
        <ele>999.2</ele>
        <time>2021-08-28T08:23:19Z</time>
      </trkpt>
      <trkpt lat="45.67035" lon="6.04072">
        <ele>999.3</ele>
        <time>2021-08-28T08:23:20Z</time>
      </trkpt>
      <trkpt lat="45.67036" lon="6.04071">
        <ele>999.4</ele>
        <time>2021-08-28T08:23:21Z</time>
      </trkpt>
      <trkpt lat="45.67038" lon="6.0407">
        <ele>999.6</ele>
        <time>2021-08-28T08:23:22Z</time>
      </trkpt>
      <trkpt lat="45.67041" lon="6.0407">
        <ele>999.8</ele>
        <time>2021-08-28T08:23:23Z</time>
      </trkpt>
      <trkpt lat="45.67042" lon="6.0407">
        <ele>999.9</ele>
        <time>2021-08-28T08:23:24Z</time>
      </trkpt>
      <trkpt lat="45.67045" lon="6.0407">
        <ele>1000.2</ele>
        <time>2021-08-28T08:23:25Z</time>
      </trkpt>
      <trkpt lat="45.67047" lon="6.0407">
        <ele>1000.3</ele>
        <time>2021-08-28T08:23:26Z</time>
      </trkpt>
      <trkpt lat="45.67054" lon="6.04071">
        <ele>1000.8</ele>
        <time>2021-08-28T08:23:29Z</time>
      </trkpt>
      <trkpt lat="45.67056" lon="6.04071">
        <ele>1001.1</ele>
        <time>2021-08-28T08:23:30Z</time>
      </trkpt>
      <trkpt lat="45.67059" lon="6.0407">
        <ele>1001.3</ele>
        <time>2021-08-28T08:23:33Z</time>
      </trkpt>
      <trkpt lat="45.67062" lon="6.0407">
        <ele>1001.5</ele>
        <time>2021-08-28T08:23:34Z</time>
      </trkpt>
      <trkpt lat="45.67064" lon="6.04068">
        <ele>1001.7</ele>
        <time>2021-08-28T08:23:36Z</time>
      </trkpt>
      <trkpt lat="45.67067" lon="6.04067">
        <ele>1002</ele>
        <time>2021-08-28T08:23:37Z</time>
      </trkpt>
      <trkpt lat="45.67068" lon="6.04066">
        <ele>1002.1</ele>
        <time>2021-08-28T08:23:38Z</time>
      </trkpt>
      <trkpt lat="45.67072" lon="6.04065">
        <ele>1002.4</ele>
        <time>2021-08-28T08:23:40Z</time>
      </trkpt>
      <trkpt lat="45.67074" lon="6.04065">
        <ele>1002.5</ele>
        <time>2021-08-28T08:23:41Z</time>
      </trkpt>
      <trkpt lat="45.67076" lon="6.04065">
        <ele>1002.7</ele>
        <time>2021-08-28T08:23:43Z</time>
      </trkpt>
      <trkpt lat="45.67079" lon="6.04065">
        <ele>1003</ele>
        <time>2021-08-28T08:23:45Z</time>
      </trkpt>
      <trkpt lat="45.67081" lon="6.04065">
        <ele>1003.1</ele>
        <time>2021-08-28T08:23:46Z</time>
      </trkpt>
      <trkpt lat="45.67085" lon="6.04064">
        <ele>1003.4</ele>
        <time>2021-08-28T08:23:49Z</time>
      </trkpt>
      <trkpt lat="45.6709" lon="6.04063">
        <ele>1003.8</ele>
        <time>2021-08-28T08:23:52Z</time>
      </trkpt>
      <trkpt lat="45.67094" lon="6.04062">
        <ele>1004.2</ele>
        <time>2021-08-28T08:23:55Z</time>
      </trkpt>
      <trkpt lat="45.67097" lon="6.04062">
        <ele>1004.4</ele>
        <time>2021-08-28T08:23:57Z</time>
      </trkpt>
      <trkpt lat="45.671" lon="6.04061">
        <ele>1004.7</ele>
        <time>2021-08-28T08:24:00Z</time>
      </trkpt>
      <trkpt lat="45.67103" lon="6.04061">
        <ele>1004.9</ele>
        <time>2021-08-28T08:24:01Z</time>
      </trkpt>
      <trkpt lat="45.67106" lon="6.04061">
        <ele>1005.2</ele>
        <time>2021-08-28T08:24:04Z</time>
      </trkpt>
      <trkpt lat="45.67109" lon="6.04061">
        <ele>1005.4</ele>
        <time>2021-08-28T08:24:05Z</time>
      </trkpt>
      <trkpt lat="45.67112" lon="6.04061">
        <ele>1005.7</ele>
        <time>2021-08-28T08:24:07Z</time>
      </trkpt>
      <trkpt lat="45.67116" lon="6.04061">
        <ele>1006</ele>
        <time>2021-08-28T08:24:08Z</time>
      </trkpt>
      <trkpt lat="45.6712" lon="6.04061">
        <ele>1006.3</ele>
        <time>2021-08-28T08:24:10Z</time>
      </trkpt>
      <trkpt lat="45.67121" lon="6.04061">
        <ele>1006.4</ele>
        <time>2021-08-28T08:24:11Z</time>
      </trkpt>
      <trkpt lat="45.67127" lon="6.04058">
        <ele>1006.9</ele>
        <time>2021-08-28T08:24:14Z</time>
      </trkpt>
      <trkpt lat="45.67128" lon="6.04057">
        <ele>1007.1</ele>
        <time>2021-08-28T08:24:17Z</time>
      </trkpt>
      <trkpt lat="45.6713" lon="6.04055">
        <ele>1007.2</ele>
        <time>2021-08-28T08:24:18Z</time>
      </trkpt>
      <trkpt lat="45.67132" lon="6.04054">
        <ele>1007.4</ele>
        <time>2021-08-28T08:24:19Z</time>
      </trkpt>
      <trkpt lat="45.67134" lon="6.04049">
        <ele>1007.8</ele>
        <time>2021-08-28T08:24:20Z</time>
      </trkpt>
      <trkpt lat="45.67134" lon="6.04046">
        <ele>1007.9</ele>
        <time>2021-08-28T08:24:21Z</time>
      </trkpt>
      <trkpt lat="45.67134" lon="6.04043">
        <ele>1008.1</ele>
        <time>2021-08-28T08:24:22Z</time>
      </trkpt>
      <trkpt lat="45.67135" lon="6.04039">
        <ele>1008.3</ele>
        <time>2021-08-28T08:24:24Z</time>
      </trkpt>
      <trkpt lat="45.67133" lon="6.04036">
        <ele>1008.5</ele>
        <time>2021-08-28T08:24:25Z</time>
      </trkpt>
      <trkpt lat="45.6713" lon="6.0403">
        <ele>1008.9</ele>
        <time>2021-08-28T08:24:27Z</time>
      </trkpt>
      <trkpt lat="45.67124" lon="6.04026">
        <ele>1009.3</ele>
        <time>2021-08-28T08:24:29Z</time>
      </trkpt>
      <trkpt lat="45.67119" lon="6.04023">
        <ele>1009.7</ele>
        <time>2021-08-28T08:24:30Z</time>
      </trkpt>
      <trkpt lat="45.67115" lon="6.04023">
        <ele>1009.9</ele>
        <time>2021-08-28T08:24:32Z</time>
      </trkpt>
      <trkpt lat="45.6711" lon="6.04024">
        <ele>1010.2</ele>
        <time>2021-08-28T08:24:34Z</time>
      </trkpt>
      <trkpt lat="45.67108" lon="6.04026">
        <ele>1010.4</ele>
        <time>2021-08-28T08:24:35Z</time>
      </trkpt>
      <trkpt lat="45.67102" lon="6.0403">
        <ele>1010.9</ele>
        <time>2021-08-28T08:24:38Z</time>
      </trkpt>
      <trkpt lat="45.67101" lon="6.0403">
        <ele>1011</ele>
        <time>2021-08-28T08:24:39Z</time>
      </trkpt>
      <trkpt lat="45.671" lon="6.04031">
        <ele>1011</ele>
        <time>2021-08-28T08:24:40Z</time>
      </trkpt>
      <trkpt lat="45.67097" lon="6.04032">
        <ele>1011.2</ele>
        <time>2021-08-28T08:24:41Z</time>
      </trkpt>
      <trkpt lat="45.67093" lon="6.04032">
        <ele>1011.5</ele>
        <time>2021-08-28T08:24:44Z</time>
      </trkpt>
      <trkpt lat="45.67089" lon="6.04032">
        <ele>1011.9</ele>
        <time>2021-08-28T08:24:47Z</time>
      </trkpt>
      <trkpt lat="45.67087" lon="6.04032">
        <ele>1012.1</ele>
        <time>2021-08-28T08:24:48Z</time>
      </trkpt>
      <trkpt lat="45.67084" lon="6.04031">
        <ele>1012.3</ele>
        <time>2021-08-28T08:24:50Z</time>
      </trkpt>
      <trkpt lat="45.6708" lon="6.04029">
        <ele>1012.7</ele>
        <time>2021-08-28T08:24:52Z</time>
      </trkpt>
      <trkpt lat="45.67076" lon="6.04026">
        <ele>1013.1</ele>
        <time>2021-08-28T08:24:55Z</time>
      </trkpt>
      <trkpt lat="45.67074" lon="6.04026">
        <ele>1013.2</ele>
        <time>2021-08-28T08:24:56Z</time>
      </trkpt>
      <trkpt lat="45.67072" lon="6.04025">
        <ele>1013.4</ele>
        <time>2021-08-28T08:24:57Z</time>
      </trkpt>
      <trkpt lat="45.67071" lon="6.04023">
        <ele>1013.5</ele>
        <time>2021-08-28T08:24:59Z</time>
      </trkpt>
      <trkpt lat="45.67069" lon="6.0402">
        <ele>1013.9</ele>
        <time>2021-08-28T08:25:01Z</time>
      </trkpt>
      <trkpt lat="45.67067" lon="6.04018">
        <ele>1014</ele>
        <time>2021-08-28T08:25:02Z</time>
      </trkpt>
      <trkpt lat="45.67065" lon="6.04017">
        <ele>1014.2</ele>
        <time>2021-08-28T08:25:04Z</time>
      </trkpt>
      <trkpt lat="45.6706" lon="6.04014">
        <ele>1014.8</ele>
        <time>2021-08-28T08:25:07Z</time>
      </trkpt>
      <trkpt lat="45.67058" lon="6.04013">
        <ele>1014.9</ele>
        <time>2021-08-28T08:25:09Z</time>
      </trkpt>
      <trkpt lat="45.67057" lon="6.04013">
        <ele>1015.1</ele>
        <time>2021-08-28T08:25:10Z</time>
      </trkpt>
      <trkpt lat="45.67054" lon="6.0401">
        <ele>1015.3</ele>
        <time>2021-08-28T08:25:11Z</time>
      </trkpt>
      <trkpt lat="45.67051" lon="6.04009">
        <ele>1015.6</ele>
        <time>2021-08-28T08:25:14Z</time>
      </trkpt>
      <trkpt lat="45.67048" lon="6.04009">
        <ele>1015.9</ele>
        <time>2021-08-28T08:25:15Z</time>
      </trkpt>
      <trkpt lat="45.67046" lon="6.04008">
        <ele>1016.1</ele>
        <time>2021-08-28T08:25:18Z</time>
      </trkpt>
      <trkpt lat="45.67046" lon="6.04007">
        <ele>1016.1</ele>
        <time>2021-08-28T08:25:19Z</time>
      </trkpt>
      <trkpt lat="45.67046" lon="6.04006">
        <ele>1016.2</ele>
        <time>2021-08-28T08:25:20Z</time>
      </trkpt>
      <trkpt lat="45.67046" lon="6.04005">
        <ele>1016.2</ele>
        <time>2021-08-28T08:25:21Z</time>
      </trkpt>
      <trkpt lat="45.67046" lon="6.04004">
        <ele>1016.3</ele>
        <time>2021-08-28T08:25:22Z</time>
      </trkpt>
      <trkpt lat="45.67046" lon="6.04004">
        <ele>1016.3</ele>
        <time>2021-08-28T08:25:23Z</time>
      </trkpt>
      <trkpt lat="45.67046" lon="6.04003">
        <ele>1016.4</ele>
        <time>2021-08-28T08:25:26Z</time>
      </trkpt>
      <trkpt lat="45.67045" lon="6.04002">
        <ele>1016.4</ele>
        <time>2021-08-28T08:25:27Z</time>
      </trkpt>
      <trkpt lat="45.67045" lon="6.04001">
        <ele>1016.5</ele>
        <time>2021-08-28T08:25:28Z</time>
      </trkpt>
      <trkpt lat="45.67045" lon="6.04001">
        <ele>1016.5</ele>
        <time>2021-08-28T08:26:28Z</time>
      </trkpt>
      <trkpt lat="45.67045" lon="6.04">
        <ele>1016.6</ele>
        <time>2021-08-28T08:26:29Z</time>
      </trkpt>
      <trkpt lat="45.67043" lon="6.03992">
        <ele>1017.1</ele>
        <time>2021-08-28T08:26:32Z</time>
      </trkpt>
      <trkpt lat="45.6704" lon="6.03987">
        <ele>1017.5</ele>
        <time>2021-08-28T08:26:33Z</time>
      </trkpt>
      <trkpt lat="45.67037" lon="6.03984">
        <ele>1017.9</ele>
        <time>2021-08-28T08:26:35Z</time>
      </trkpt>
      <trkpt lat="45.67035" lon="6.03981">
        <ele>1018.2</ele>
        <time>2021-08-28T08:26:37Z</time>
      </trkpt>
      <trkpt lat="45.67031" lon="6.03975">
        <ele>1018.7</ele>
        <time>2021-08-28T08:26:40Z</time>
      </trkpt>
      <trkpt lat="45.67029" lon="6.03972">
        <ele>1018.9</ele>
        <time>2021-08-28T08:26:42Z</time>
      </trkpt>
      <trkpt lat="45.67027" lon="6.03968">
        <ele>1019.3</ele>
        <time>2021-08-28T08:26:43Z</time>
      </trkpt>
      <trkpt lat="45.67026" lon="6.03966">
        <ele>1019.4</ele>
        <time>2021-08-28T08:26:44Z</time>
      </trkpt>
      <trkpt lat="45.67025" lon="6.03964">
        <ele>1019.6</ele>
        <time>2021-08-28T08:26:47Z</time>
      </trkpt>
      <trkpt lat="45.67023" lon="6.03962">
        <ele>1019.8</ele>
        <time>2021-08-28T08:26:48Z</time>
      </trkpt>
      <trkpt lat="45.6702" lon="6.03959">
        <ele>1020.1</ele>
        <time>2021-08-28T08:26:50Z</time>
      </trkpt>
      <trkpt lat="45.67017" lon="6.03957">
        <ele>1020.4</ele>
        <time>2021-08-28T08:26:52Z</time>
      </trkpt>
      <trkpt lat="45.67014" lon="6.03954">
        <ele>1020.7</ele>
        <time>2021-08-28T08:26:54Z</time>
      </trkpt>
      <trkpt lat="45.67011" lon="6.03949">
        <ele>1021.1</ele>
        <time>2021-08-28T08:26:57Z</time>
      </trkpt>
      <trkpt lat="45.6701" lon="6.03948">
        <ele>1021.2</ele>
        <time>2021-08-28T08:26:58Z</time>
      </trkpt>
      <trkpt lat="45.67009" lon="6.03948">
        <ele>1021.3</ele>
        <time>2021-08-28T08:26:59Z</time>
      </trkpt>
      <trkpt lat="45.67009" lon="6.03947">
        <ele>1021.4</ele>
        <time>2021-08-28T08:27:00Z</time>
      </trkpt>
      <trkpt lat="45.67008" lon="6.03945">
        <ele>1021.5</ele>
        <time>2021-08-28T08:27:01Z</time>
      </trkpt>
      <trkpt lat="45.67007" lon="6.03944">
        <ele>1021.7</ele>
        <time>2021-08-28T08:27:02Z</time>
      </trkpt>
      <trkpt lat="45.67006" lon="6.03942">
        <ele>1021.8</ele>
        <time>2021-08-28T08:27:03Z</time>
      </trkpt>
      <trkpt lat="45.67003" lon="6.0394">
        <ele>1022.1</ele>
        <time>2021-08-28T08:27:04Z</time>
      </trkpt>
      <trkpt lat="45.67" lon="6.03937">
        <ele>1022.4</ele>
        <time>2021-08-28T08:27:06Z</time>
      </trkpt>
      <trkpt lat="45.66998" lon="6.03935">
        <ele>1022.6</ele>
        <time>2021-08-28T08:27:07Z</time>
      </trkpt>
      <trkpt lat="45.66996" lon="6.03933">
        <ele>1022.9</ele>
        <time>2021-08-28T08:27:09Z</time>
      </trkpt>
      <trkpt lat="45.66994" lon="6.0393">
        <ele>1023.2</ele>
        <time>2021-08-28T08:27:10Z</time>
      </trkpt>
      <trkpt lat="45.66992" lon="6.03928">
        <ele>1023.3</ele>
        <time>2021-08-28T08:27:11Z</time>
      </trkpt>
      <trkpt lat="45.66991" lon="6.03925">
        <ele>1023.5</ele>
        <time>2021-08-28T08:27:13Z</time>
      </trkpt>
      <trkpt lat="45.66988" lon="6.03922">
        <ele>1023.8</ele>
        <time>2021-08-28T08:27:15Z</time>
      </trkpt>
      <trkpt lat="45.66987" lon="6.03921">
        <ele>1023.9</ele>
        <time>2021-08-28T08:27:16Z</time>
      </trkpt>
      <trkpt lat="45.66984" lon="6.03917">
        <ele>1024.3</ele>
        <time>2021-08-28T08:27:19Z</time>
      </trkpt>
      <trkpt lat="45.66983" lon="6.03915">
        <ele>1024.5</ele>
        <time>2021-08-28T08:27:20Z</time>
      </trkpt>
      <trkpt lat="45.66981" lon="6.03911">
        <ele>1024.8</ele>
        <time>2021-08-28T08:27:22Z</time>
      </trkpt>
      <trkpt lat="45.66979" lon="6.03908">
        <ele>1025</ele>
        <time>2021-08-28T08:27:23Z</time>
      </trkpt>
      <trkpt lat="45.66978" lon="6.03905">
        <ele>1025.2</ele>
        <time>2021-08-28T08:27:25Z</time>
      </trkpt>
      <trkpt lat="45.66976" lon="6.03903">
        <ele>1025.4</ele>
        <time>2021-08-28T08:27:26Z</time>
      </trkpt>
      <trkpt lat="45.66973" lon="6.039">
        <ele>1025.7</ele>
        <time>2021-08-28T08:27:28Z</time>
      </trkpt>
      <trkpt lat="45.66972" lon="6.03898">
        <ele>1025.8</ele>
        <time>2021-08-28T08:27:29Z</time>
      </trkpt>
      <trkpt lat="45.6697" lon="6.03894">
        <ele>1026.2</ele>
        <time>2021-08-28T08:27:32Z</time>
      </trkpt>
      <trkpt lat="45.66967" lon="6.03889">
        <ele>1026.5</ele>
        <time>2021-08-28T08:27:34Z</time>
      </trkpt>
      <trkpt lat="45.66964" lon="6.03883">
        <ele>1026.9</ele>
        <time>2021-08-28T08:27:36Z</time>
      </trkpt>
      <trkpt lat="45.66963" lon="6.03882">
        <ele>1027.1</ele>
        <time>2021-08-28T08:27:37Z</time>
      </trkpt>
      <trkpt lat="45.66962" lon="6.0388">
        <ele>1027.2</ele>
        <time>2021-08-28T08:27:38Z</time>
      </trkpt>
      <trkpt lat="45.66959" lon="6.03876">
        <ele>1027.5</ele>
        <time>2021-08-28T08:27:40Z</time>
      </trkpt>
      <trkpt lat="45.66957" lon="6.03874">
        <ele>1027.7</ele>
        <time>2021-08-28T08:27:41Z</time>
      </trkpt>
      <trkpt lat="45.66957" lon="6.03873">
        <ele>1027.8</ele>
        <time>2021-08-28T08:27:43Z</time>
      </trkpt>
      <trkpt lat="45.66955" lon="6.03871">
        <ele>1028</ele>
        <time>2021-08-28T08:27:44Z</time>
      </trkpt>
      <trkpt lat="45.66953" lon="6.03868">
        <ele>1028.2</ele>
        <time>2021-08-28T08:27:46Z</time>
      </trkpt>
      <trkpt lat="45.66949" lon="6.03864">
        <ele>1028.6</ele>
        <time>2021-08-28T08:27:48Z</time>
      </trkpt>
      <trkpt lat="45.66947" lon="6.03861">
        <ele>1028.8</ele>
        <time>2021-08-28T08:27:50Z</time>
      </trkpt>
      <trkpt lat="45.66945" lon="6.03857">
        <ele>1029.1</ele>
        <time>2021-08-28T08:27:52Z</time>
      </trkpt>
      <trkpt lat="45.66942" lon="6.03855">
        <ele>1029.4</ele>
        <time>2021-08-28T08:27:54Z</time>
      </trkpt>
      <trkpt lat="45.66939" lon="6.03852">
        <ele>1029.7</ele>
        <time>2021-08-28T08:27:56Z</time>
      </trkpt>
      <trkpt lat="45.66936" lon="6.03849">
        <ele>1030</ele>
        <time>2021-08-28T08:27:57Z</time>
      </trkpt>
      <trkpt lat="45.66935" lon="6.03847">
        <ele>1030.1</ele>
        <time>2021-08-28T08:27:58Z</time>
      </trkpt>
      <trkpt lat="45.66933" lon="6.03845">
        <ele>1030.4</ele>
        <time>2021-08-28T08:28:00Z</time>
      </trkpt>
      <trkpt lat="45.66932" lon="6.03843">
        <ele>1030.5</ele>
        <time>2021-08-28T08:28:02Z</time>
      </trkpt>
      <trkpt lat="45.6693" lon="6.03841">
        <ele>1030.7</ele>
        <time>2021-08-28T08:28:03Z</time>
      </trkpt>
      <trkpt lat="45.66928" lon="6.03838">
        <ele>1031</ele>
        <time>2021-08-28T08:28:05Z</time>
      </trkpt>
      <trkpt lat="45.66926" lon="6.03836">
        <ele>1031.2</ele>
        <time>2021-08-28T08:28:07Z</time>
      </trkpt>
      <trkpt lat="45.66923" lon="6.03833">
        <ele>1031.5</ele>
        <time>2021-08-28T08:28:09Z</time>
      </trkpt>
      <trkpt lat="45.66922" lon="6.03831">
        <ele>1031.6</ele>
        <time>2021-08-28T08:28:10Z</time>
      </trkpt>
      <trkpt lat="45.66921" lon="6.03828">
        <ele>1031.9</ele>
        <time>2021-08-28T08:28:12Z</time>
      </trkpt>
      <trkpt lat="45.66917" lon="6.03823">
        <ele>1032.3</ele>
        <time>2021-08-28T08:28:13Z</time>
      </trkpt>
      <trkpt lat="45.66916" lon="6.03821">
        <ele>1032.5</ele>
        <time>2021-08-28T08:28:14Z</time>
      </trkpt>
      <trkpt lat="45.66914" lon="6.0382">
        <ele>1032.6</ele>
        <time>2021-08-28T08:28:16Z</time>
      </trkpt>
      <trkpt lat="45.66914" lon="6.03818">
        <ele>1032.8</ele>
        <time>2021-08-28T08:28:17Z</time>
      </trkpt>
      <trkpt lat="45.66911" lon="6.03811">
        <ele>1033.3</ele>
        <time>2021-08-28T08:28:20Z</time>
      </trkpt>
      <trkpt lat="45.66909" lon="6.03807">
        <ele>1033.6</ele>
        <time>2021-08-28T08:28:23Z</time>
      </trkpt>
      <trkpt lat="45.66908" lon="6.03803">
        <ele>1033.8</ele>
        <time>2021-08-28T08:28:25Z</time>
      </trkpt>
      <trkpt lat="45.66906" lon="6.03799">
        <ele>1034.1</ele>
        <time>2021-08-28T08:28:27Z</time>
      </trkpt>
      <trkpt lat="45.66903" lon="6.03795">
        <ele>1034.5</ele>
        <time>2021-08-28T08:28:29Z</time>
      </trkpt>
      <trkpt lat="45.66903" lon="6.03793">
        <ele>1034.6</ele>
        <time>2021-08-28T08:28:30Z</time>
      </trkpt>
      <trkpt lat="45.66901" lon="6.0379">
        <ele>1034.8</ele>
        <time>2021-08-28T08:28:32Z</time>
      </trkpt>
      <trkpt lat="45.66898" lon="6.03786">
        <ele>1035.2</ele>
        <time>2021-08-28T08:28:34Z</time>
      </trkpt>
      <trkpt lat="45.66897" lon="6.03784">
        <ele>1035.4</ele>
        <time>2021-08-28T08:28:35Z</time>
      </trkpt>
      <trkpt lat="45.66896" lon="6.03783">
        <ele>1035.5</ele>
        <time>2021-08-28T08:28:36Z</time>
      </trkpt>
      <trkpt lat="45.66895" lon="6.03782">
        <ele>1035.6</ele>
        <time>2021-08-28T08:28:37Z</time>
      </trkpt>
      <trkpt lat="45.66894" lon="6.0378">
        <ele>1035.7</ele>
        <time>2021-08-28T08:28:38Z</time>
      </trkpt>
      <trkpt lat="45.66892" lon="6.03778">
        <ele>1035.9</ele>
        <time>2021-08-28T08:28:40Z</time>
      </trkpt>
      <trkpt lat="45.66891" lon="6.03776">
        <ele>1036.1</ele>
        <time>2021-08-28T08:28:41Z</time>
      </trkpt>
      <trkpt lat="45.66889" lon="6.03774">
        <ele>1036.4</ele>
        <time>2021-08-28T08:28:43Z</time>
      </trkpt>
      <trkpt lat="45.66887" lon="6.03772">
        <ele>1036.5</ele>
        <time>2021-08-28T08:28:44Z</time>
      </trkpt>
      <trkpt lat="45.66885" lon="6.0377">
        <ele>1036.8</ele>
        <time>2021-08-28T08:28:46Z</time>
      </trkpt>
      <trkpt lat="45.66883" lon="6.03768">
        <ele>1036.9</ele>
        <time>2021-08-28T08:28:47Z</time>
      </trkpt>
      <trkpt lat="45.6688" lon="6.03764">
        <ele>1037.3</ele>
        <time>2021-08-28T08:28:49Z</time>
      </trkpt>
      <trkpt lat="45.66878" lon="6.03762">
        <ele>1037.6</ele>
        <time>2021-08-28T08:28:51Z</time>
      </trkpt>
      <trkpt lat="45.66876" lon="6.03758">
        <ele>1037.9</ele>
        <time>2021-08-28T08:28:54Z</time>
      </trkpt>
      <trkpt lat="45.66874" lon="6.03756">
        <ele>1038.1</ele>
        <time>2021-08-28T08:28:55Z</time>
      </trkpt>
      <trkpt lat="45.66872" lon="6.03754">
        <ele>1038.3</ele>
        <time>2021-08-28T08:28:57Z</time>
      </trkpt>
      <trkpt lat="45.6687" lon="6.03751">
        <ele>1038.6</ele>
        <time>2021-08-28T08:28:59Z</time>
      </trkpt>
      <trkpt lat="45.66868" lon="6.03749">
        <ele>1038.8</ele>
        <time>2021-08-28T08:29:00Z</time>
      </trkpt>
      <trkpt lat="45.66867" lon="6.03748">
        <ele>1038.9</ele>
        <time>2021-08-28T08:29:01Z</time>
      </trkpt>
      <trkpt lat="45.66866" lon="6.03744">
        <ele>1039.2</ele>
        <time>2021-08-28T08:29:04Z</time>
      </trkpt>
      <trkpt lat="45.66864" lon="6.0374">
        <ele>1039.6</ele>
        <time>2021-08-28T08:29:05Z</time>
      </trkpt>
      <trkpt lat="45.66862" lon="6.03737">
        <ele>1039.8</ele>
        <time>2021-08-28T08:29:07Z</time>
      </trkpt>
      <trkpt lat="45.66859" lon="6.03734">
        <ele>1040.1</ele>
        <time>2021-08-28T08:29:09Z</time>
      </trkpt>
      <trkpt lat="45.66857" lon="6.03731">
        <ele>1040.4</ele>
        <time>2021-08-28T08:29:12Z</time>
      </trkpt>
      <trkpt lat="45.66856" lon="6.03729">
        <ele>1040.5</ele>
        <time>2021-08-28T08:29:13Z</time>
      </trkpt>
      <trkpt lat="45.66855" lon="6.03728">
        <ele>1040.7</ele>
        <time>2021-08-28T08:29:14Z</time>
      </trkpt>
      <trkpt lat="45.66853" lon="6.03724">
        <ele>1040.9</ele>
        <time>2021-08-28T08:29:15Z</time>
      </trkpt>
      <trkpt lat="45.66853" lon="6.03723">
        <ele>1041</ele>
        <time>2021-08-28T08:29:16Z</time>
      </trkpt>
      <trkpt lat="45.66851" lon="6.0372">
        <ele>1041.2</ele>
        <time>2021-08-28T08:29:17Z</time>
      </trkpt>
      <trkpt lat="45.66847" lon="6.03714">
        <ele>1041.7</ele>
        <time>2021-08-28T08:29:20Z</time>
      </trkpt>
      <trkpt lat="45.66844" lon="6.03711">
        <ele>1042</ele>
        <time>2021-08-28T08:29:22Z</time>
      </trkpt>
      <trkpt lat="45.66841" lon="6.03707">
        <ele>1042.3</ele>
        <time>2021-08-28T08:29:24Z</time>
      </trkpt>
      <trkpt lat="45.66837" lon="6.03703">
        <ele>1042.7</ele>
        <time>2021-08-28T08:29:26Z</time>
      </trkpt>
      <trkpt lat="45.66834" lon="6.037">
        <ele>1042.9</ele>
        <time>2021-08-28T08:29:29Z</time>
      </trkpt>
      <trkpt lat="45.66834" lon="6.03698">
        <ele>1043</ele>
        <time>2021-08-28T08:29:30Z</time>
      </trkpt>
      <trkpt lat="45.66832" lon="6.03696">
        <ele>1043.2</ele>
        <time>2021-08-28T08:29:31Z</time>
      </trkpt>
      <trkpt lat="45.66828" lon="6.03693">
        <ele>1043.5</ele>
        <time>2021-08-28T08:29:32Z</time>
      </trkpt>
      <trkpt lat="45.66826" lon="6.0369">
        <ele>1043.7</ele>
        <time>2021-08-28T08:29:34Z</time>
      </trkpt>
      <trkpt lat="45.66825" lon="6.03689">
        <ele>1043.8</ele>
        <time>2021-08-28T08:29:35Z</time>
      </trkpt>
      <trkpt lat="45.66823" lon="6.03686">
        <ele>1044</ele>
        <time>2021-08-28T08:29:36Z</time>
      </trkpt>
      <trkpt lat="45.6682" lon="6.03682">
        <ele>1044.2</ele>
        <time>2021-08-28T08:29:38Z</time>
      </trkpt>
      <trkpt lat="45.66819" lon="6.03681">
        <ele>1044.2</ele>
        <time>2021-08-28T08:29:39Z</time>
      </trkpt>
      <trkpt lat="45.66816" lon="6.03676">
        <ele>1044.5</ele>
        <time>2021-08-28T08:29:41Z</time>
      </trkpt>
      <trkpt lat="45.66814" lon="6.03676">
        <ele>1044.6</ele>
        <time>2021-08-28T08:29:42Z</time>
      </trkpt>
      <trkpt lat="45.66812" lon="6.03674">
        <ele>1044.7</ele>
        <time>2021-08-28T08:29:44Z</time>
      </trkpt>
      <trkpt lat="45.66808" lon="6.0367">
        <ele>1045</ele>
        <time>2021-08-28T08:29:45Z</time>
      </trkpt>
      <trkpt lat="45.66807" lon="6.03668">
        <ele>1045.1</ele>
        <time>2021-08-28T08:29:47Z</time>
      </trkpt>
      <trkpt lat="45.66806" lon="6.03667">
        <ele>1045.1</ele>
        <time>2021-08-28T08:29:48Z</time>
      </trkpt>
      <trkpt lat="45.66803" lon="6.03662">
        <ele>1045.4</ele>
        <time>2021-08-28T08:29:49Z</time>
      </trkpt>
      <trkpt lat="45.66802" lon="6.03661">
        <ele>1045.4</ele>
        <time>2021-08-28T08:29:50Z</time>
      </trkpt>
      <trkpt lat="45.66798" lon="6.03657">
        <ele>1045.7</ele>
        <time>2021-08-28T08:29:53Z</time>
      </trkpt>
      <trkpt lat="45.66796" lon="6.03655">
        <ele>1045.8</ele>
        <time>2021-08-28T08:29:54Z</time>
      </trkpt>
      <trkpt lat="45.66793" lon="6.03653">
        <ele>1045.9</ele>
        <time>2021-08-28T08:29:55Z</time>
      </trkpt>
      <trkpt lat="45.66789" lon="6.03647">
        <ele>1046.2</ele>
        <time>2021-08-28T08:29:57Z</time>
      </trkpt>
      <trkpt lat="45.66786" lon="6.03644">
        <ele>1046.4</ele>
        <time>2021-08-28T08:29:59Z</time>
      </trkpt>
      <trkpt lat="45.66784" lon="6.03643">
        <ele>1046.5</ele>
        <time>2021-08-28T08:30:00Z</time>
      </trkpt>
      <trkpt lat="45.66782" lon="6.03638">
        <ele>1046.7</ele>
        <time>2021-08-28T08:30:02Z</time>
      </trkpt>
      <trkpt lat="45.66778" lon="6.03634">
        <ele>1046.9</ele>
        <time>2021-08-28T08:30:04Z</time>
      </trkpt>
      <trkpt lat="45.66775" lon="6.03631">
        <ele>1047</ele>
        <time>2021-08-28T08:30:05Z</time>
      </trkpt>
      <trkpt lat="45.66768" lon="6.03625">
        <ele>1047.4</ele>
        <time>2021-08-28T08:30:08Z</time>
      </trkpt>
      <trkpt lat="45.66765" lon="6.03622">
        <ele>1047.5</ele>
        <time>2021-08-28T08:30:09Z</time>
      </trkpt>
      <trkpt lat="45.66762" lon="6.03617">
        <ele>1047.7</ele>
        <time>2021-08-28T08:30:10Z</time>
      </trkpt>
      <trkpt lat="45.66759" lon="6.03614">
        <ele>1047.9</ele>
        <time>2021-08-28T08:30:12Z</time>
      </trkpt>
      <trkpt lat="45.66758" lon="6.03608">
        <ele>1048</ele>
        <time>2021-08-28T08:30:14Z</time>
      </trkpt>
      <trkpt lat="45.66757" lon="6.03605">
        <ele>1048.2</ele>
        <time>2021-08-28T08:30:15Z</time>
      </trkpt>
      <trkpt lat="45.66753" lon="6.03601">
        <ele>1048.3</ele>
        <time>2021-08-28T08:30:17Z</time>
      </trkpt>
      <trkpt lat="45.66749" lon="6.03596">
        <ele>1048.5</ele>
        <time>2021-08-28T08:30:19Z</time>
      </trkpt>
      <trkpt lat="45.66747" lon="6.03592">
        <ele>1048.6</ele>
        <time>2021-08-28T08:30:20Z</time>
      </trkpt>
      <trkpt lat="45.66745" lon="6.03591">
        <ele>1048.6</ele>
        <time>2021-08-28T08:30:21Z</time>
      </trkpt>
      <trkpt lat="45.66741" lon="6.03585">
        <ele>1048.8</ele>
        <time>2021-08-28T08:30:23Z</time>
      </trkpt>
      <trkpt lat="45.66734" lon="6.03578">
        <ele>1049.1</ele>
        <time>2021-08-28T08:30:26Z</time>
      </trkpt>
      <trkpt lat="45.66728" lon="6.03574">
        <ele>1049.3</ele>
        <time>2021-08-28T08:30:28Z</time>
      </trkpt>
      <trkpt lat="45.66719" lon="6.03567">
        <ele>1049.5</ele>
        <time>2021-08-28T08:30:31Z</time>
      </trkpt>
      <trkpt lat="45.66717" lon="6.03566">
        <ele>1049.6</ele>
        <time>2021-08-28T08:30:32Z</time>
      </trkpt>
      <trkpt lat="45.6671" lon="6.03561">
        <ele>1049.8</ele>
        <time>2021-08-28T08:30:34Z</time>
      </trkpt>
      <trkpt lat="45.66706" lon="6.03556">
        <ele>1050</ele>
        <time>2021-08-28T08:30:35Z</time>
      </trkpt>
      <trkpt lat="45.66702" lon="6.03553">
        <ele>1050.1</ele>
        <time>2021-08-28T08:30:37Z</time>
      </trkpt>
      <trkpt lat="45.667" lon="6.03551">
        <ele>1050.2</ele>
        <time>2021-08-28T08:30:38Z</time>
      </trkpt>
      <trkpt lat="45.66696" lon="6.03548">
        <ele>1050.4</ele>
        <time>2021-08-28T08:30:40Z</time>
      </trkpt>
      <trkpt lat="45.6669" lon="6.03543">
        <ele>1050.6</ele>
        <time>2021-08-28T08:30:41Z</time>
      </trkpt>
      <trkpt lat="45.66689" lon="6.03544">
        <ele>1050.6</ele>
        <time>2021-08-28T08:30:44Z</time>
      </trkpt>
      <trkpt lat="45.66687" lon="6.03543">
        <ele>1050.7</ele>
        <time>2021-08-28T08:30:45Z</time>
      </trkpt>
      <trkpt lat="45.66684" lon="6.03541">
        <ele>1050.8</ele>
        <time>2021-08-28T08:30:46Z</time>
      </trkpt>
      <trkpt lat="45.66681" lon="6.03538">
        <ele>1050.9</ele>
        <time>2021-08-28T08:30:47Z</time>
      </trkpt>
      <trkpt lat="45.66677" lon="6.03535">
        <ele>1051</ele>
        <time>2021-08-28T08:30:48Z</time>
      </trkpt>
      <trkpt lat="45.66674" lon="6.03533">
        <ele>1051.1</ele>
        <time>2021-08-28T08:30:49Z</time>
      </trkpt>
      <trkpt lat="45.66671" lon="6.03531">
        <ele>1051.1</ele>
        <time>2021-08-28T08:30:50Z</time>
      </trkpt>
      <trkpt lat="45.66667" lon="6.03529">
        <ele>1051.2</ele>
        <time>2021-08-28T08:30:51Z</time>
      </trkpt>
      <trkpt lat="45.66664" lon="6.03527">
        <ele>1051.3</ele>
        <time>2021-08-28T08:30:52Z</time>
      </trkpt>
      <trkpt lat="45.6666" lon="6.03525">
        <ele>1051.4</ele>
        <time>2021-08-28T08:30:53Z</time>
      </trkpt>
      <trkpt lat="45.66657" lon="6.03523">
        <ele>1051.4</ele>
        <time>2021-08-28T08:30:54Z</time>
      </trkpt>
      <trkpt lat="45.66653" lon="6.03522">
        <ele>1051.5</ele>
        <time>2021-08-28T08:30:55Z</time>
      </trkpt>
      <trkpt lat="45.66651" lon="6.03521">
        <ele>1051.6</ele>
        <time>2021-08-28T08:30:56Z</time>
      </trkpt>
      <trkpt lat="45.66647" lon="6.03519">
        <ele>1051.7</ele>
        <time>2021-08-28T08:30:57Z</time>
      </trkpt>
      <trkpt lat="45.66644" lon="6.03517">
        <ele>1051.8</ele>
        <time>2021-08-28T08:30:58Z</time>
      </trkpt>
      <trkpt lat="45.66641" lon="6.03516">
        <ele>1051.9</ele>
        <time>2021-08-28T08:30:59Z</time>
      </trkpt>
      <trkpt lat="45.66638" lon="6.03515">
        <ele>1052</ele>
        <time>2021-08-28T08:31:00Z</time>
      </trkpt>
      <trkpt lat="45.66631" lon="6.03512">
        <ele>1052.2</ele>
        <time>2021-08-28T08:31:02Z</time>
      </trkpt>
      <trkpt lat="45.66628" lon="6.03511">
        <ele>1052.3</ele>
        <time>2021-08-28T08:31:03Z</time>
      </trkpt>
      <trkpt lat="45.66624" lon="6.0351">
        <ele>1052.4</ele>
        <time>2021-08-28T08:31:04Z</time>
      </trkpt>
      <trkpt lat="45.66621" lon="6.0351">
        <ele>1052.5</ele>
        <time>2021-08-28T08:31:05Z</time>
      </trkpt>
      <trkpt lat="45.66618" lon="6.03509">
        <ele>1052.6</ele>
        <time>2021-08-28T08:31:06Z</time>
      </trkpt>
      <trkpt lat="45.66614" lon="6.03508">
        <ele>1052.8</ele>
        <time>2021-08-28T08:31:07Z</time>
      </trkpt>
      <trkpt lat="45.66612" lon="6.03507">
        <ele>1052.8</ele>
        <time>2021-08-28T08:31:08Z</time>
      </trkpt>
      <trkpt lat="45.66608" lon="6.03506">
        <ele>1053</ele>
        <time>2021-08-28T08:31:09Z</time>
      </trkpt>
      <trkpt lat="45.66605" lon="6.03506">
        <ele>1053.1</ele>
        <time>2021-08-28T08:31:10Z</time>
      </trkpt>
      <trkpt lat="45.66601" lon="6.03504">
        <ele>1053.2</ele>
        <time>2021-08-28T08:31:11Z</time>
      </trkpt>
      <trkpt lat="45.666" lon="6.03504">
        <ele>1053.3</ele>
        <time>2021-08-28T08:31:12Z</time>
      </trkpt>
      <trkpt lat="45.66594" lon="6.03503">
        <ele>1053.5</ele>
        <time>2021-08-28T08:31:13Z</time>
      </trkpt>
      <trkpt lat="45.66588" lon="6.03503">
        <ele>1053.7</ele>
        <time>2021-08-28T08:31:14Z</time>
      </trkpt>
      <trkpt lat="45.66581" lon="6.03498">
        <ele>1054</ele>
        <time>2021-08-28T08:31:16Z</time>
      </trkpt>
      <trkpt lat="45.66576" lon="6.03494">
        <ele>1054.2</ele>
        <time>2021-08-28T08:31:17Z</time>
      </trkpt>
      <trkpt lat="45.66572" lon="6.03492">
        <ele>1054.3</ele>
        <time>2021-08-28T08:31:19Z</time>
      </trkpt>
      <trkpt lat="45.6657" lon="6.0349">
        <ele>1054.3</ele>
        <time>2021-08-28T08:31:20Z</time>
      </trkpt>
      <trkpt lat="45.66565" lon="6.03488">
        <ele>1054.4</ele>
        <time>2021-08-28T08:31:22Z</time>
      </trkpt>
      <trkpt lat="45.66557" lon="6.03485">
        <ele>1054.6</ele>
        <time>2021-08-28T08:31:24Z</time>
      </trkpt>
      <trkpt lat="45.66548" lon="6.03481">
        <ele>1054.8</ele>
        <time>2021-08-28T08:31:27Z</time>
      </trkpt>
      <trkpt lat="45.6654" lon="6.03476">
        <ele>1055</ele>
        <time>2021-08-28T08:31:30Z</time>
      </trkpt>
      <trkpt lat="45.66534" lon="6.03474">
        <ele>1055.2</ele>
        <time>2021-08-28T08:31:32Z</time>
      </trkpt>
      <trkpt lat="45.66531" lon="6.03473">
        <ele>1055.3</ele>
        <time>2021-08-28T08:31:33Z</time>
      </trkpt>
      <trkpt lat="45.66523" lon="6.03469">
        <ele>1055.5</ele>
        <time>2021-08-28T08:31:35Z</time>
      </trkpt>
      <trkpt lat="45.6652" lon="6.03467">
        <ele>1055.6</ele>
        <time>2021-08-28T08:31:36Z</time>
      </trkpt>
      <trkpt lat="45.66517" lon="6.03466">
        <ele>1055.6</ele>
        <time>2021-08-28T08:31:37Z</time>
      </trkpt>
      <trkpt lat="45.66512" lon="6.03463">
        <ele>1055.7</ele>
        <time>2021-08-28T08:31:39Z</time>
      </trkpt>
      <trkpt lat="45.66508" lon="6.03462">
        <ele>1055.8</ele>
        <time>2021-08-28T08:31:40Z</time>
      </trkpt>
      <trkpt lat="45.66503" lon="6.03461">
        <ele>1055.9</ele>
        <time>2021-08-28T08:31:41Z</time>
      </trkpt>
      <trkpt lat="45.665" lon="6.03459">
        <ele>1055.9</ele>
        <time>2021-08-28T08:31:42Z</time>
      </trkpt>
      <trkpt lat="45.66497" lon="6.03457">
        <ele>1056</ele>
        <time>2021-08-28T08:31:44Z</time>
      </trkpt>
      <trkpt lat="45.66495" lon="6.03456">
        <ele>1056</ele>
        <time>2021-08-28T08:31:45Z</time>
      </trkpt>
      <trkpt lat="45.6649" lon="6.03453">
        <ele>1056.1</ele>
        <time>2021-08-28T08:31:47Z</time>
      </trkpt>
      <trkpt lat="45.66486" lon="6.03452">
        <ele>1056.2</ele>
        <time>2021-08-28T08:31:48Z</time>
      </trkpt>
      <trkpt lat="45.66483" lon="6.03451">
        <ele>1056.2</ele>
        <time>2021-08-28T08:31:49Z</time>
      </trkpt>
      <trkpt lat="45.66476" lon="6.03448">
        <ele>1056.2</ele>
        <time>2021-08-28T08:31:51Z</time>
      </trkpt>
      <trkpt lat="45.6647" lon="6.03446">
        <ele>1056.2</ele>
        <time>2021-08-28T08:31:52Z</time>
      </trkpt>
      <trkpt lat="45.66467" lon="6.03444">
        <ele>1056.1</ele>
        <time>2021-08-28T08:31:53Z</time>
      </trkpt>
      <trkpt lat="45.66463" lon="6.03442">
        <ele>1056</ele>
        <time>2021-08-28T08:31:54Z</time>
      </trkpt>
      <trkpt lat="45.66461" lon="6.03441">
        <ele>1056</ele>
        <time>2021-08-28T08:31:55Z</time>
      </trkpt>
      <trkpt lat="45.66456" lon="6.03439">
        <ele>1055.8</ele>
        <time>2021-08-28T08:31:57Z</time>
      </trkpt>
      <trkpt lat="45.66448" lon="6.03432">
        <ele>1055.4</ele>
        <time>2021-08-28T08:32:00Z</time>
      </trkpt>
      <trkpt lat="45.66443" lon="6.03429">
        <ele>1055.2</ele>
        <time>2021-08-28T08:32:01Z</time>
      </trkpt>
      <trkpt lat="45.66438" lon="6.03427">
        <ele>1055</ele>
        <time>2021-08-28T08:32:02Z</time>
      </trkpt>
      <trkpt lat="45.66432" lon="6.03424">
        <ele>1054.7</ele>
        <time>2021-08-28T08:32:03Z</time>
      </trkpt>
      <trkpt lat="45.66426" lon="6.0342">
        <ele>1054.3</ele>
        <time>2021-08-28T08:32:04Z</time>
      </trkpt>
      <trkpt lat="45.6642" lon="6.03417">
        <ele>1054</ele>
        <time>2021-08-28T08:32:05Z</time>
      </trkpt>
      <trkpt lat="45.66413" lon="6.03413">
        <ele>1053.6</ele>
        <time>2021-08-28T08:32:06Z</time>
      </trkpt>
      <trkpt lat="45.66407" lon="6.03409">
        <ele>1053.2</ele>
        <time>2021-08-28T08:32:07Z</time>
      </trkpt>
      <trkpt lat="45.664" lon="6.03405">
        <ele>1052.7</ele>
        <time>2021-08-28T08:32:08Z</time>
      </trkpt>
      <trkpt lat="45.66393" lon="6.034">
        <ele>1052.3</ele>
        <time>2021-08-28T08:32:09Z</time>
      </trkpt>
      <trkpt lat="45.66386" lon="6.03396">
        <ele>1051.8</ele>
        <time>2021-08-28T08:32:10Z</time>
      </trkpt>
      <trkpt lat="45.66378" lon="6.0339">
        <ele>1051.3</ele>
        <time>2021-08-28T08:32:11Z</time>
      </trkpt>
      <trkpt lat="45.66371" lon="6.03385">
        <ele>1050.8</ele>
        <time>2021-08-28T08:32:12Z</time>
      </trkpt>
      <trkpt lat="45.66364" lon="6.03378">
        <ele>1050.2</ele>
        <time>2021-08-28T08:32:13Z</time>
      </trkpt>
      <trkpt lat="45.66357" lon="6.03372">
        <ele>1049.7</ele>
        <time>2021-08-28T08:32:14Z</time>
      </trkpt>
      <trkpt lat="45.6635" lon="6.03365">
        <ele>1049.2</ele>
        <time>2021-08-28T08:32:15Z</time>
      </trkpt>
      <trkpt lat="45.66342" lon="6.03358">
        <ele>1048.7</ele>
        <time>2021-08-28T08:32:16Z</time>
      </trkpt>
      <trkpt lat="45.66335" lon="6.03352">
        <ele>1048.3</ele>
        <time>2021-08-28T08:32:17Z</time>
      </trkpt>
      <trkpt lat="45.66327" lon="6.03346">
        <ele>1047.8</ele>
        <time>2021-08-28T08:32:18Z</time>
      </trkpt>
      <trkpt lat="45.66319" lon="6.03341">
        <ele>1047.2</ele>
        <time>2021-08-28T08:32:19Z</time>
      </trkpt>
      <trkpt lat="45.66312" lon="6.03336">
        <ele>1046.7</ele>
        <time>2021-08-28T08:32:20Z</time>
      </trkpt>
      <trkpt lat="45.66303" lon="6.03331">
        <ele>1046.2</ele>
        <time>2021-08-28T08:32:21Z</time>
      </trkpt>
      <trkpt lat="45.66295" lon="6.03326">
        <ele>1045.6</ele>
        <time>2021-08-28T08:32:22Z</time>
      </trkpt>
      <trkpt lat="45.66287" lon="6.0332">
        <ele>1045.1</ele>
        <time>2021-08-28T08:32:23Z</time>
      </trkpt>
      <trkpt lat="45.66279" lon="6.03314">
        <ele>1044.5</ele>
        <time>2021-08-28T08:32:24Z</time>
      </trkpt>
      <trkpt lat="45.6627" lon="6.03307">
        <ele>1044</ele>
        <time>2021-08-28T08:32:25Z</time>
      </trkpt>
      <trkpt lat="45.66262" lon="6.03301">
        <ele>1043.6</ele>
        <time>2021-08-28T08:32:26Z</time>
      </trkpt>
      <trkpt lat="45.66253" lon="6.03295">
        <ele>1043.1</ele>
        <time>2021-08-28T08:32:27Z</time>
      </trkpt>
      <trkpt lat="45.66245" lon="6.0329">
        <ele>1042.7</ele>
        <time>2021-08-28T08:32:28Z</time>
      </trkpt>
      <trkpt lat="45.66236" lon="6.03284">
        <ele>1042.4</ele>
        <time>2021-08-28T08:32:29Z</time>
      </trkpt>
      <trkpt lat="45.66228" lon="6.03278">
        <ele>1042</ele>
        <time>2021-08-28T08:32:30Z</time>
      </trkpt>
      <trkpt lat="45.66219" lon="6.03274">
        <ele>1041.7</ele>
        <time>2021-08-28T08:32:31Z</time>
      </trkpt>
      <trkpt lat="45.66211" lon="6.03273">
        <ele>1041.4</ele>
        <time>2021-08-28T08:32:32Z</time>
      </trkpt>
      <trkpt lat="45.66203" lon="6.03278">
        <ele>1041.1</ele>
        <time>2021-08-28T08:32:33Z</time>
      </trkpt>
      <trkpt lat="45.66196" lon="6.03287">
        <ele>1040.8</ele>
        <time>2021-08-28T08:32:34Z</time>
      </trkpt>
      <trkpt lat="45.66191" lon="6.03297">
        <ele>1040.6</ele>
        <time>2021-08-28T08:32:35Z</time>
      </trkpt>
      <trkpt lat="45.66189" lon="6.03309">
        <ele>1040.5</ele>
        <time>2021-08-28T08:32:36Z</time>
      </trkpt>
      <trkpt lat="45.66191" lon="6.03321">
        <ele>1040.5</ele>
        <time>2021-08-28T08:32:37Z</time>
      </trkpt>
      <trkpt lat="45.66193" lon="6.03331">
        <ele>1040.6</ele>
        <time>2021-08-28T08:32:38Z</time>
      </trkpt>
      <trkpt lat="45.66196" lon="6.03341">
        <ele>1040.7</ele>
        <time>2021-08-28T08:32:39Z</time>
      </trkpt>
      <trkpt lat="45.66198" lon="6.03349">
        <ele>1040.9</ele>
        <time>2021-08-28T08:32:40Z</time>
      </trkpt>
      <trkpt lat="45.662" lon="6.03357">
        <ele>1041</ele>
        <time>2021-08-28T08:32:41Z</time>
      </trkpt>
      <trkpt lat="45.66202" lon="6.03364">
        <ele>1041.2</ele>
        <time>2021-08-28T08:32:42Z</time>
      </trkpt>
      <trkpt lat="45.66205" lon="6.03371">
        <ele>1041.3</ele>
        <time>2021-08-28T08:32:43Z</time>
      </trkpt>
      <trkpt lat="45.66207" lon="6.03378">
        <ele>1041.5</ele>
        <time>2021-08-28T08:32:44Z</time>
      </trkpt>
      <trkpt lat="45.66209" lon="6.03384">
        <ele>1041.7</ele>
        <time>2021-08-28T08:32:45Z</time>
      </trkpt>
      <trkpt lat="45.6621" lon="6.03391">
        <ele>1041.9</ele>
        <time>2021-08-28T08:32:46Z</time>
      </trkpt>
      <trkpt lat="45.66211" lon="6.03396">
        <ele>1042.1</ele>
        <time>2021-08-28T08:32:47Z</time>
      </trkpt>
      <trkpt lat="45.66211" lon="6.03401">
        <ele>1042.2</ele>
        <time>2021-08-28T08:32:48Z</time>
      </trkpt>
      <trkpt lat="45.66211" lon="6.03408">
        <ele>1042.4</ele>
        <time>2021-08-28T08:32:49Z</time>
      </trkpt>
      <trkpt lat="45.6621" lon="6.03415">
        <ele>1042.6</ele>
        <time>2021-08-28T08:32:50Z</time>
      </trkpt>
      <trkpt lat="45.66209" lon="6.0342">
        <ele>1042.7</ele>
        <time>2021-08-28T08:32:51Z</time>
      </trkpt>
      <trkpt lat="45.66207" lon="6.03426">
        <ele>1042.8</ele>
        <time>2021-08-28T08:32:52Z</time>
      </trkpt>
      <trkpt lat="45.66205" lon="6.03429">
        <ele>1042.9</ele>
        <time>2021-08-28T08:32:53Z</time>
      </trkpt>
      <trkpt lat="45.66202" lon="6.03432">
        <ele>1043</ele>
        <time>2021-08-28T08:32:54Z</time>
      </trkpt>
      <trkpt lat="45.66199" lon="6.03435">
        <ele>1043.1</ele>
        <time>2021-08-28T08:32:55Z</time>
      </trkpt>
      <trkpt lat="45.66195" lon="6.03436">
        <ele>1043.2</ele>
        <time>2021-08-28T08:32:56Z</time>
      </trkpt>
      <trkpt lat="45.66192" lon="6.03437">
        <ele>1043.3</ele>
        <time>2021-08-28T08:32:57Z</time>
      </trkpt>
      <trkpt lat="45.66188" lon="6.03437">
        <ele>1043.3</ele>
        <time>2021-08-28T08:32:58Z</time>
      </trkpt>
      <trkpt lat="45.66185" lon="6.03436">
        <ele>1043.4</ele>
        <time>2021-08-28T08:32:59Z</time>
      </trkpt>
      <trkpt lat="45.66184" lon="6.03436">
        <ele>1043.5</ele>
        <time>2021-08-28T08:33:00Z</time>
      </trkpt>
      <trkpt lat="45.66181" lon="6.03436">
        <ele>1043.5</ele>
        <time>2021-08-28T08:33:01Z</time>
      </trkpt>
      <trkpt lat="45.66177" lon="6.03434">
        <ele>1043.6</ele>
        <time>2021-08-28T08:33:02Z</time>
      </trkpt>
      <trkpt lat="45.66176" lon="6.03434">
        <ele>1043.6</ele>
        <time>2021-08-28T08:33:03Z</time>
      </trkpt>
      <trkpt lat="45.66172" lon="6.03433">
        <ele>1043.7</ele>
        <time>2021-08-28T08:33:04Z</time>
      </trkpt>
      <trkpt lat="45.66169" lon="6.03432">
        <ele>1043.8</ele>
        <time>2021-08-28T08:33:05Z</time>
      </trkpt>
      <trkpt lat="45.66166" lon="6.03431">
        <ele>1043.9</ele>
        <time>2021-08-28T08:33:06Z</time>
      </trkpt>
      <trkpt lat="45.66162" lon="6.0343">
        <ele>1043.9</ele>
        <time>2021-08-28T08:33:07Z</time>
      </trkpt>
      <trkpt lat="45.66159" lon="6.03429">
        <ele>1044</ele>
        <time>2021-08-28T08:33:08Z</time>
      </trkpt>
      <trkpt lat="45.66155" lon="6.03428">
        <ele>1044.1</ele>
        <time>2021-08-28T08:33:09Z</time>
      </trkpt>
      <trkpt lat="45.66151" lon="6.03426">
        <ele>1044.2</ele>
        <time>2021-08-28T08:33:10Z</time>
      </trkpt>
      <trkpt lat="45.66148" lon="6.03425">
        <ele>1044.3</ele>
        <time>2021-08-28T08:33:11Z</time>
      </trkpt>
      <trkpt lat="45.66144" lon="6.03423">
        <ele>1044.4</ele>
        <time>2021-08-28T08:33:12Z</time>
      </trkpt>
      <trkpt lat="45.66141" lon="6.03422">
        <ele>1044.5</ele>
        <time>2021-08-28T08:33:13Z</time>
      </trkpt>
      <trkpt lat="45.66137" lon="6.03421">
        <ele>1044.6</ele>
        <time>2021-08-28T08:33:14Z</time>
      </trkpt>
      <trkpt lat="45.66133" lon="6.0342">
        <ele>1044.7</ele>
        <time>2021-08-28T08:33:15Z</time>
      </trkpt>
      <trkpt lat="45.6613" lon="6.03419">
        <ele>1044.9</ele>
        <time>2021-08-28T08:33:16Z</time>
      </trkpt>
      <trkpt lat="45.66127" lon="6.03418">
        <ele>1045</ele>
        <time>2021-08-28T08:33:17Z</time>
      </trkpt>
      <trkpt lat="45.66123" lon="6.03417">
        <ele>1045.1</ele>
        <time>2021-08-28T08:33:18Z</time>
      </trkpt>
      <trkpt lat="45.6612" lon="6.03416">
        <ele>1045.2</ele>
        <time>2021-08-28T08:33:19Z</time>
      </trkpt>
      <trkpt lat="45.66117" lon="6.03415">
        <ele>1045.3</ele>
        <time>2021-08-28T08:33:20Z</time>
      </trkpt>
      <trkpt lat="45.66114" lon="6.03414">
        <ele>1045.5</ele>
        <time>2021-08-28T08:33:21Z</time>
      </trkpt>
      <trkpt lat="45.6611" lon="6.03413">
        <ele>1045.7</ele>
        <time>2021-08-28T08:33:22Z</time>
      </trkpt>
      <trkpt lat="45.66109" lon="6.03412">
        <ele>1045.8</ele>
        <time>2021-08-28T08:33:23Z</time>
      </trkpt>
      <trkpt lat="45.66105" lon="6.03411">
        <ele>1046</ele>
        <time>2021-08-28T08:33:24Z</time>
      </trkpt>
      <trkpt lat="45.66104" lon="6.03411">
        <ele>1046</ele>
        <time>2021-08-28T08:33:25Z</time>
      </trkpt>
      <trkpt lat="45.661" lon="6.0341">
        <ele>1046.3</ele>
        <time>2021-08-28T08:33:26Z</time>
      </trkpt>
      <trkpt lat="45.66099" lon="6.0341">
        <ele>1046.3</ele>
        <time>2021-08-28T08:33:27Z</time>
      </trkpt>
      <trkpt lat="45.66095" lon="6.03409">
        <ele>1046.5</ele>
        <time>2021-08-28T08:33:28Z</time>
      </trkpt>
      <trkpt lat="45.66093" lon="6.03409">
        <ele>1046.7</ele>
        <time>2021-08-28T08:33:29Z</time>
      </trkpt>
      <trkpt lat="45.66089" lon="6.03408">
        <ele>1046.9</ele>
        <time>2021-08-28T08:33:30Z</time>
      </trkpt>
      <trkpt lat="45.66088" lon="6.03407">
        <ele>1047</ele>
        <time>2021-08-28T08:33:31Z</time>
      </trkpt>
      <trkpt lat="45.66085" lon="6.03405">
        <ele>1047.2</ele>
        <time>2021-08-28T08:33:32Z</time>
      </trkpt>
      <trkpt lat="45.66083" lon="6.03402">
        <ele>1047.3</ele>
        <time>2021-08-28T08:33:33Z</time>
      </trkpt>
      <trkpt lat="45.66082" lon="6.03397">
        <ele>1047.6</ele>
        <time>2021-08-28T08:33:34Z</time>
      </trkpt>
      <trkpt lat="45.66081" lon="6.03395">
        <ele>1047.6</ele>
        <time>2021-08-28T08:33:35Z</time>
      </trkpt>
      <trkpt lat="45.66081" lon="6.0339">
        <ele>1047.9</ele>
        <time>2021-08-28T08:33:36Z</time>
      </trkpt>
      <trkpt lat="45.66082" lon="6.03388">
        <ele>1048</ele>
        <time>2021-08-28T08:33:37Z</time>
      </trkpt>
      <trkpt lat="45.66084" lon="6.03385">
        <ele>1048.1</ele>
        <time>2021-08-28T08:33:38Z</time>
      </trkpt>
      <trkpt lat="45.66087" lon="6.03382">
        <ele>1048.3</ele>
        <time>2021-08-28T08:33:39Z</time>
      </trkpt>
      <trkpt lat="45.6609" lon="6.03382">
        <ele>1048.5</ele>
        <time>2021-08-28T08:33:40Z</time>
      </trkpt>
      <trkpt lat="45.66093" lon="6.03382">
        <ele>1049.1</ele>
        <time>2021-08-28T08:33:41Z</time>
      </trkpt>
      <trkpt lat="45.66094" lon="6.03383">
        <ele>1049.2</ele>
        <time>2021-08-28T08:33:42Z</time>
      </trkpt>
      <trkpt lat="45.66098" lon="6.03383">
        <ele>1049.3</ele>
        <time>2021-08-28T08:33:43Z</time>
      </trkpt>
      <trkpt lat="45.66098" lon="6.03384">
        <ele>1049.4</ele>
        <time>2021-08-28T08:33:44Z</time>
      </trkpt>
      <trkpt lat="45.66102" lon="6.03385">
        <ele>1049.5</ele>
        <time>2021-08-28T08:33:45Z</time>
      </trkpt>
      <trkpt lat="45.66103" lon="6.03386">
        <ele>1049.6</ele>
        <time>2021-08-28T08:33:46Z</time>
      </trkpt>
      <trkpt lat="45.66105" lon="6.03388">
        <ele>1049.7</ele>
        <time>2021-08-28T08:33:47Z</time>
      </trkpt>
      <trkpt lat="45.66106" lon="6.03388">
        <ele>1049.8</ele>
        <time>2021-08-28T08:33:48Z</time>
      </trkpt>
      <trkpt lat="45.66109" lon="6.0339">
        <ele>1049.9</ele>
        <time>2021-08-28T08:33:49Z</time>
      </trkpt>
      <trkpt lat="45.6611" lon="6.03391">
        <ele>1050</ele>
        <time>2021-08-28T08:33:50Z</time>
      </trkpt>
      <trkpt lat="45.66112" lon="6.03392">
        <ele>1050.2</ele>
        <time>2021-08-28T08:33:51Z</time>
      </trkpt>
      <trkpt lat="45.66113" lon="6.03393">
        <ele>1050.2</ele>
        <time>2021-08-28T08:33:52Z</time>
      </trkpt>
      <trkpt lat="45.66116" lon="6.03395">
        <ele>1050.4</ele>
        <time>2021-08-28T08:33:53Z</time>
      </trkpt>
      <trkpt lat="45.66117" lon="6.03396">
        <ele>1050.5</ele>
        <time>2021-08-28T08:33:54Z</time>
      </trkpt>
      <trkpt lat="45.6612" lon="6.03398">
        <ele>1050.6</ele>
        <time>2021-08-28T08:33:55Z</time>
      </trkpt>
      <trkpt lat="45.6612" lon="6.03398">
        <ele>1050.7</ele>
        <time>2021-08-28T08:33:56Z</time>
      </trkpt>
      <trkpt lat="45.66123" lon="6.03401">
        <ele>1050.8</ele>
        <time>2021-08-28T08:33:57Z</time>
      </trkpt>
      <trkpt lat="45.66124" lon="6.03401">
        <ele>1050.9</ele>
        <time>2021-08-28T08:33:58Z</time>
      </trkpt>
      <trkpt lat="45.66126" lon="6.03403">
        <ele>1051</ele>
        <time>2021-08-28T08:33:59Z</time>
      </trkpt>
      <trkpt lat="45.66127" lon="6.03403">
        <ele>1051.1</ele>
        <time>2021-08-28T08:34:00Z</time>
      </trkpt>
      <trkpt lat="45.6613" lon="6.03405">
        <ele>1051.2</ele>
        <time>2021-08-28T08:34:01Z</time>
      </trkpt>
      <trkpt lat="45.66131" lon="6.03405">
        <ele>1051.3</ele>
        <time>2021-08-28T08:34:02Z</time>
      </trkpt>
      <trkpt lat="45.66133" lon="6.03407">
        <ele>1051.5</ele>
        <time>2021-08-28T08:34:03Z</time>
      </trkpt>
      <trkpt lat="45.66134" lon="6.03408">
        <ele>1051.5</ele>
        <time>2021-08-28T08:34:04Z</time>
      </trkpt>
      <trkpt lat="45.66137" lon="6.03409">
        <ele>1051.7</ele>
        <time>2021-08-28T08:34:05Z</time>
      </trkpt>
      <trkpt lat="45.66138" lon="6.03409">
        <ele>1051.8</ele>
        <time>2021-08-28T08:34:06Z</time>
      </trkpt>
      <trkpt lat="45.66141" lon="6.0341">
        <ele>1052</ele>
        <time>2021-08-28T08:34:07Z</time>
      </trkpt>
      <trkpt lat="45.66142" lon="6.0341">
        <ele>1052</ele>
        <time>2021-08-28T08:34:08Z</time>
      </trkpt>
      <trkpt lat="45.66144" lon="6.0341">
        <ele>1052.2</ele>
        <time>2021-08-28T08:34:09Z</time>
      </trkpt>
      <trkpt lat="45.66145" lon="6.0341">
        <ele>1052.3</ele>
        <time>2021-08-28T08:34:10Z</time>
      </trkpt>
      <trkpt lat="45.66148" lon="6.0341">
        <ele>1052.5</ele>
        <time>2021-08-28T08:34:11Z</time>
      </trkpt>
      <trkpt lat="45.66149" lon="6.03411">
        <ele>1052.6</ele>
        <time>2021-08-28T08:34:12Z</time>
      </trkpt>
      <trkpt lat="45.66152" lon="6.03411">
        <ele>1052.8</ele>
        <time>2021-08-28T08:34:13Z</time>
      </trkpt>
      <trkpt lat="45.66153" lon="6.03411">
        <ele>1052.8</ele>
        <time>2021-08-28T08:34:14Z</time>
      </trkpt>
      <trkpt lat="45.66158" lon="6.0341">
        <ele>1053.1</ele>
        <time>2021-08-28T08:34:15Z</time>
      </trkpt>
      <trkpt lat="45.6616" lon="6.0341">
        <ele>1053.3</ele>
        <time>2021-08-28T08:34:16Z</time>
      </trkpt>
      <trkpt lat="45.66163" lon="6.03408">
        <ele>1053.5</ele>
        <time>2021-08-28T08:34:17Z</time>
      </trkpt>
      <trkpt lat="45.66167" lon="6.03404">
        <ele>1053.8</ele>
        <time>2021-08-28T08:34:20Z</time>
      </trkpt>
      <trkpt lat="45.6617" lon="6.03399">
        <ele>1054.1</ele>
        <time>2021-08-28T08:34:21Z</time>
      </trkpt>
      <trkpt lat="45.66172" lon="6.03392">
        <ele>1054.5</ele>
        <time>2021-08-28T08:34:23Z</time>
      </trkpt>
      <trkpt lat="45.66172" lon="6.03387">
        <ele>1054.6</ele>
        <time>2021-08-28T08:34:24Z</time>
      </trkpt>
      <trkpt lat="45.6617" lon="6.03379">
        <ele>1054.9</ele>
        <time>2021-08-28T08:34:27Z</time>
      </trkpt>
      <trkpt lat="45.66169" lon="6.03374">
        <ele>1055</ele>
        <time>2021-08-28T08:34:28Z</time>
      </trkpt>
      <trkpt lat="45.66166" lon="6.0337">
        <ele>1055.2</ele>
        <time>2021-08-28T08:34:30Z</time>
      </trkpt>
      <trkpt lat="45.66161" lon="6.03366">
        <ele>1055.4</ele>
        <time>2021-08-28T08:34:31Z</time>
      </trkpt>
      <trkpt lat="45.66158" lon="6.03366">
        <ele>1055.5</ele>
        <time>2021-08-28T08:34:33Z</time>
      </trkpt>
      <trkpt lat="45.66151" lon="6.03366">
        <ele>1055.8</ele>
        <time>2021-08-28T08:34:35Z</time>
      </trkpt>
      <trkpt lat="45.66148" lon="6.03365">
        <ele>1055.9</ele>
        <time>2021-08-28T08:34:36Z</time>
      </trkpt>
      <trkpt lat="45.66145" lon="6.03366">
        <ele>1056.1</ele>
        <time>2021-08-28T08:34:38Z</time>
      </trkpt>
      <trkpt lat="45.6614" lon="6.03365">
        <ele>1056.3</ele>
        <time>2021-08-28T08:34:39Z</time>
      </trkpt>
      <trkpt lat="45.66137" lon="6.03364">
        <ele>1056.5</ele>
        <time>2021-08-28T08:34:41Z</time>
      </trkpt>
      <trkpt lat="45.66134" lon="6.03363">
        <ele>1056.7</ele>
        <time>2021-08-28T08:34:44Z</time>
      </trkpt>
      <trkpt lat="45.6613" lon="6.03363">
        <ele>1056.9</ele>
        <time>2021-08-28T08:34:46Z</time>
      </trkpt>
      <trkpt lat="45.66126" lon="6.03361">
        <ele>1057.1</ele>
        <time>2021-08-28T08:34:47Z</time>
      </trkpt>
      <trkpt lat="45.66125" lon="6.03361">
        <ele>1057.2</ele>
        <time>2021-08-28T08:34:48Z</time>
      </trkpt>
      <trkpt lat="45.66121" lon="6.0336">
        <ele>1057.4</ele>
        <time>2021-08-28T08:34:49Z</time>
      </trkpt>
      <trkpt lat="45.66119" lon="6.0336">
        <ele>1057.5</ele>
        <time>2021-08-28T08:34:50Z</time>
      </trkpt>
      <trkpt lat="45.66116" lon="6.03359">
        <ele>1057.7</ele>
        <time>2021-08-28T08:34:52Z</time>
      </trkpt>
      <trkpt lat="45.66111" lon="6.03357">
        <ele>1058</ele>
        <time>2021-08-28T08:34:55Z</time>
      </trkpt>
      <trkpt lat="45.66108" lon="6.03356">
        <ele>1058.2</ele>
        <time>2021-08-28T08:34:57Z</time>
      </trkpt>
      <trkpt lat="45.66105" lon="6.03356">
        <ele>1058.4</ele>
        <time>2021-08-28T08:34:59Z</time>
      </trkpt>
      <trkpt lat="45.66104" lon="6.03355">
        <ele>1058.4</ele>
        <time>2021-08-28T08:35:00Z</time>
      </trkpt>
      <trkpt lat="45.66102" lon="6.03354">
        <ele>1058.5</ele>
        <time>2021-08-28T08:35:01Z</time>
      </trkpt>
      <trkpt lat="45.66098" lon="6.03353">
        <ele>1058.8</ele>
        <time>2021-08-28T08:35:03Z</time>
      </trkpt>
      <trkpt lat="45.66097" lon="6.03351">
        <ele>1058.9</ele>
        <time>2021-08-28T08:35:04Z</time>
      </trkpt>
      <trkpt lat="45.66093" lon="6.0335">
        <ele>1059.1</ele>
        <time>2021-08-28T08:35:06Z</time>
      </trkpt>
      <trkpt lat="45.66087" lon="6.03348">
        <ele>1059.5</ele>
        <time>2021-08-28T08:35:09Z</time>
      </trkpt>
      <trkpt lat="45.66085" lon="6.03347">
        <ele>1059.7</ele>
        <time>2021-08-28T08:35:10Z</time>
      </trkpt>
      <trkpt lat="45.66082" lon="6.03346">
        <ele>1059.9</ele>
        <time>2021-08-28T08:35:12Z</time>
      </trkpt>
      <trkpt lat="45.66079" lon="6.03345">
        <ele>1060.1</ele>
        <time>2021-08-28T08:35:13Z</time>
      </trkpt>
      <trkpt lat="45.66076" lon="6.03344">
        <ele>1060.3</ele>
        <time>2021-08-28T08:35:15Z</time>
      </trkpt>
      <trkpt lat="45.66073" lon="6.03343">
        <ele>1060.5</ele>
        <time>2021-08-28T08:35:16Z</time>
      </trkpt>
      <trkpt lat="45.66071" lon="6.03341">
        <ele>1060.7</ele>
        <time>2021-08-28T08:35:18Z</time>
      </trkpt>
      <trkpt lat="45.6607" lon="6.0334">
        <ele>1060.8</ele>
        <time>2021-08-28T08:35:19Z</time>
      </trkpt>
      <trkpt lat="45.66068" lon="6.03339">
        <ele>1060.9</ele>
        <time>2021-08-28T08:35:20Z</time>
      </trkpt>
      <trkpt lat="45.66065" lon="6.03338">
        <ele>1061.2</ele>
        <time>2021-08-28T08:35:22Z</time>
      </trkpt>
      <trkpt lat="45.66063" lon="6.03337">
        <ele>1061.3</ele>
        <time>2021-08-28T08:35:24Z</time>
      </trkpt>
      <trkpt lat="45.6606" lon="6.03336">
        <ele>1061.5</ele>
        <time>2021-08-28T08:35:26Z</time>
      </trkpt>
      <trkpt lat="45.66056" lon="6.03334">
        <ele>1061.8</ele>
        <time>2021-08-28T08:35:27Z</time>
      </trkpt>
      <trkpt lat="45.66054" lon="6.03333">
        <ele>1062</ele>
        <time>2021-08-28T08:35:28Z</time>
      </trkpt>
      <trkpt lat="45.66051" lon="6.03331">
        <ele>1062.2</ele>
        <time>2021-08-28T08:35:30Z</time>
      </trkpt>
      <trkpt lat="45.66049" lon="6.03331">
        <ele>1062.3</ele>
        <time>2021-08-28T08:35:31Z</time>
      </trkpt>
      <trkpt lat="45.66046" lon="6.03329">
        <ele>1062.6</ele>
        <time>2021-08-28T08:35:33Z</time>
      </trkpt>
      <trkpt lat="45.66046" lon="6.03329">
        <ele>1062.6</ele>
        <time>2021-08-28T08:35:34Z</time>
      </trkpt>
      <trkpt lat="45.66043" lon="6.03328">
        <ele>1062.8</ele>
        <time>2021-08-28T08:35:36Z</time>
      </trkpt>
      <trkpt lat="45.66041" lon="6.03326">
        <ele>1062.9</ele>
        <time>2021-08-28T08:35:37Z</time>
      </trkpt>
      <trkpt lat="45.66038" lon="6.03323">
        <ele>1063.2</ele>
        <time>2021-08-28T08:35:39Z</time>
      </trkpt>
      <trkpt lat="45.66034" lon="6.03321">
        <ele>1063.5</ele>
        <time>2021-08-28T08:35:41Z</time>
      </trkpt>
      <trkpt lat="45.66032" lon="6.0332">
        <ele>1063.6</ele>
        <time>2021-08-28T08:35:42Z</time>
      </trkpt>
      <trkpt lat="45.6603" lon="6.0332">
        <ele>1063.8</ele>
        <time>2021-08-28T08:35:43Z</time>
      </trkpt>
      <trkpt lat="45.66027" lon="6.03317">
        <ele>1064.1</ele>
        <time>2021-08-28T08:35:46Z</time>
      </trkpt>
      <trkpt lat="45.66025" lon="6.03315">
        <ele>1064.2</ele>
        <time>2021-08-28T08:35:47Z</time>
      </trkpt>
      <trkpt lat="45.66022" lon="6.03314">
        <ele>1064.4</ele>
        <time>2021-08-28T08:35:49Z</time>
      </trkpt>
      <trkpt lat="45.66019" lon="6.03313">
        <ele>1064.6</ele>
        <time>2021-08-28T08:35:50Z</time>
      </trkpt>
      <trkpt lat="45.66017" lon="6.03312">
        <ele>1064.8</ele>
        <time>2021-08-28T08:35:52Z</time>
      </trkpt>
      <trkpt lat="45.66016" lon="6.03312">
        <ele>1064.8</ele>
        <time>2021-08-28T08:35:53Z</time>
      </trkpt>
      <trkpt lat="45.66012" lon="6.03311">
        <ele>1065.1</ele>
        <time>2021-08-28T08:35:54Z</time>
      </trkpt>
      <trkpt lat="45.6601" lon="6.0331">
        <ele>1065.2</ele>
        <time>2021-08-28T08:35:55Z</time>
      </trkpt>
      <trkpt lat="45.66006" lon="6.03308">
        <ele>1065.5</ele>
        <time>2021-08-28T08:35:58Z</time>
      </trkpt>
      <trkpt lat="45.66004" lon="6.03305">
        <ele>1065.7</ele>
        <time>2021-08-28T08:36:00Z</time>
      </trkpt>
      <trkpt lat="45.66" lon="6.03302">
        <ele>1066</ele>
        <time>2021-08-28T08:36:02Z</time>
      </trkpt>
      <trkpt lat="45.65995" lon="6.03298">
        <ele>1066.3</ele>
        <time>2021-08-28T08:36:05Z</time>
      </trkpt>
      <trkpt lat="45.65992" lon="6.03295">
        <ele>1066.6</ele>
        <time>2021-08-28T08:36:06Z</time>
      </trkpt>
      <trkpt lat="45.6599" lon="6.03293">
        <ele>1066.7</ele>
        <time>2021-08-28T08:36:07Z</time>
      </trkpt>
      <trkpt lat="45.65986" lon="6.03292">
        <ele>1067</ele>
        <time>2021-08-28T08:36:09Z</time>
      </trkpt>
      <trkpt lat="45.65985" lon="6.03292">
        <ele>1067</ele>
        <time>2021-08-28T08:36:10Z</time>
      </trkpt>
      <trkpt lat="45.65981" lon="6.03291">
        <ele>1067.3</ele>
        <time>2021-08-28T08:36:11Z</time>
      </trkpt>
      <trkpt lat="45.65977" lon="6.03289">
        <ele>1067.6</ele>
        <time>2021-08-28T08:36:13Z</time>
      </trkpt>
      <trkpt lat="45.65975" lon="6.03288">
        <ele>1067.7</ele>
        <time>2021-08-28T08:36:14Z</time>
      </trkpt>
      <trkpt lat="45.65973" lon="6.03287">
        <ele>1067.9</ele>
        <time>2021-08-28T08:36:16Z</time>
      </trkpt>
      <trkpt lat="45.65969" lon="6.03285">
        <ele>1068.1</ele>
        <time>2021-08-28T08:36:18Z</time>
      </trkpt>
      <trkpt lat="45.65966" lon="6.03284">
        <ele>1068.4</ele>
        <time>2021-08-28T08:36:19Z</time>
      </trkpt>
      <trkpt lat="45.65963" lon="6.03282">
        <ele>1068.6</ele>
        <time>2021-08-28T08:36:21Z</time>
      </trkpt>
      <trkpt lat="45.65962" lon="6.03282">
        <ele>1068.6</ele>
        <time>2021-08-28T08:36:22Z</time>
      </trkpt>
      <trkpt lat="45.65959" lon="6.0328">
        <ele>1068.8</ele>
        <time>2021-08-28T08:36:24Z</time>
      </trkpt>
      <trkpt lat="45.65956" lon="6.03277">
        <ele>1069.1</ele>
        <time>2021-08-28T08:36:25Z</time>
      </trkpt>
      <trkpt lat="45.65954" lon="6.03275">
        <ele>1069.2</ele>
        <time>2021-08-28T08:36:27Z</time>
      </trkpt>
      <trkpt lat="45.65953" lon="6.03274">
        <ele>1069.3</ele>
        <time>2021-08-28T08:36:28Z</time>
      </trkpt>
      <trkpt lat="45.65949" lon="6.03271">
        <ele>1069.6</ele>
        <time>2021-08-28T08:36:30Z</time>
      </trkpt>
      <trkpt lat="45.65946" lon="6.03269">
        <ele>1069.8</ele>
        <time>2021-08-28T08:36:31Z</time>
      </trkpt>
      <trkpt lat="45.65943" lon="6.03267">
        <ele>1070.1</ele>
        <time>2021-08-28T08:36:33Z</time>
      </trkpt>
      <trkpt lat="45.65941" lon="6.03266">
        <ele>1070.2</ele>
        <time>2021-08-28T08:36:34Z</time>
      </trkpt>
      <trkpt lat="45.65939" lon="6.03265">
        <ele>1070.3</ele>
        <time>2021-08-28T08:36:36Z</time>
      </trkpt>
      <trkpt lat="45.65934" lon="6.03261">
        <ele>1070.7</ele>
        <time>2021-08-28T08:36:38Z</time>
      </trkpt>
      <trkpt lat="45.65932" lon="6.0326">
        <ele>1070.9</ele>
        <time>2021-08-28T08:36:39Z</time>
      </trkpt>
      <trkpt lat="45.6593" lon="6.03258">
        <ele>1071</ele>
        <time>2021-08-28T08:36:41Z</time>
      </trkpt>
      <trkpt lat="45.65928" lon="6.03256">
        <ele>1071.2</ele>
        <time>2021-08-28T08:36:43Z</time>
      </trkpt>
      <trkpt lat="45.65925" lon="6.03254">
        <ele>1071.4</ele>
        <time>2021-08-28T08:36:45Z</time>
      </trkpt>
      <trkpt lat="45.65921" lon="6.03252">
        <ele>1071.7</ele>
        <time>2021-08-28T08:36:47Z</time>
      </trkpt>
      <trkpt lat="45.6592" lon="6.0325">
        <ele>1071.8</ele>
        <time>2021-08-28T08:36:48Z</time>
      </trkpt>
      <trkpt lat="45.65917" lon="6.03247">
        <ele>1072.1</ele>
        <time>2021-08-28T08:36:50Z</time>
      </trkpt>
      <trkpt lat="45.65912" lon="6.03243">
        <ele>1072.5</ele>
        <time>2021-08-28T08:36:53Z</time>
      </trkpt>
      <trkpt lat="45.65911" lon="6.03241">
        <ele>1072.6</ele>
        <time>2021-08-28T08:36:54Z</time>
      </trkpt>
      <trkpt lat="45.6591" lon="6.0324">
        <ele>1072.7</ele>
        <time>2021-08-28T08:36:55Z</time>
      </trkpt>
      <trkpt lat="45.65906" lon="6.03237">
        <ele>1073</ele>
        <time>2021-08-28T08:36:57Z</time>
      </trkpt>
      <trkpt lat="45.65904" lon="6.03235">
        <ele>1073.2</ele>
        <time>2021-08-28T08:36:59Z</time>
      </trkpt>
      <trkpt lat="45.65903" lon="6.03235">
        <ele>1073.3</ele>
        <time>2021-08-28T08:37:00Z</time>
      </trkpt>
      <trkpt lat="45.65901" lon="6.03233">
        <ele>1073.5</ele>
        <time>2021-08-28T08:37:01Z</time>
      </trkpt>
      <trkpt lat="45.65898" lon="6.03231">
        <ele>1073.7</ele>
        <time>2021-08-28T08:37:03Z</time>
      </trkpt>
      <trkpt lat="45.65895" lon="6.03229">
        <ele>1073.9</ele>
        <time>2021-08-28T08:37:04Z</time>
      </trkpt>
      <trkpt lat="45.65894" lon="6.03228">
        <ele>1074</ele>
        <time>2021-08-28T08:37:06Z</time>
      </trkpt>
      <trkpt lat="45.65889" lon="6.03224">
        <ele>1074.4</ele>
        <time>2021-08-28T08:37:09Z</time>
      </trkpt>
      <trkpt lat="45.65886" lon="6.03222">
        <ele>1074.6</ele>
        <time>2021-08-28T08:37:10Z</time>
      </trkpt>
      <trkpt lat="45.65883" lon="6.03221">
        <ele>1074.8</ele>
        <time>2021-08-28T08:37:12Z</time>
      </trkpt>
      <trkpt lat="45.65879" lon="6.03218">
        <ele>1075.2</ele>
        <time>2021-08-28T08:37:15Z</time>
      </trkpt>
      <trkpt lat="45.65877" lon="6.03217">
        <ele>1075.3</ele>
        <time>2021-08-28T08:37:16Z</time>
      </trkpt>
      <trkpt lat="45.65873" lon="6.03215">
        <ele>1075.7</ele>
        <time>2021-08-28T08:37:19Z</time>
      </trkpt>
      <trkpt lat="45.6587" lon="6.03212">
        <ele>1075.9</ele>
        <time>2021-08-28T08:37:21Z</time>
      </trkpt>
      <trkpt lat="45.65868" lon="6.0321">
        <ele>1076.1</ele>
        <time>2021-08-28T08:37:22Z</time>
      </trkpt>
      <trkpt lat="45.65863" lon="6.03207">
        <ele>1076.5</ele>
        <time>2021-08-28T08:37:24Z</time>
      </trkpt>
      <trkpt lat="45.65862" lon="6.03206">
        <ele>1076.6</ele>
        <time>2021-08-28T08:37:26Z</time>
      </trkpt>
      <trkpt lat="45.65861" lon="6.03205">
        <ele>1076.7</ele>
        <time>2021-08-28T08:37:27Z</time>
      </trkpt>
      <trkpt lat="45.65857" lon="6.03202">
        <ele>1077</ele>
        <time>2021-08-28T08:37:28Z</time>
      </trkpt>
      <trkpt lat="45.65853" lon="6.03199">
        <ele>1077.3</ele>
        <time>2021-08-28T08:37:30Z</time>
      </trkpt>
      <trkpt lat="45.65852" lon="6.03199">
        <ele>1077.4</ele>
        <time>2021-08-28T08:37:31Z</time>
      </trkpt>
      <trkpt lat="45.65849" lon="6.03197">
        <ele>1077.6</ele>
        <time>2021-08-28T08:37:32Z</time>
      </trkpt>
      <trkpt lat="45.65848" lon="6.03195">
        <ele>1077.8</ele>
        <time>2021-08-28T08:37:34Z</time>
      </trkpt>
      <trkpt lat="45.65845" lon="6.03193">
        <ele>1078</ele>
        <time>2021-08-28T08:37:35Z</time>
      </trkpt>
      <trkpt lat="45.65844" lon="6.03193">
        <ele>1078.1</ele>
        <time>2021-08-28T08:37:36Z</time>
      </trkpt>
      <trkpt lat="45.65841" lon="6.0319">
        <ele>1078.4</ele>
        <time>2021-08-28T08:37:37Z</time>
      </trkpt>
      <trkpt lat="45.65839" lon="6.03188">
        <ele>1078.5</ele>
        <time>2021-08-28T08:37:38Z</time>
      </trkpt>
      <trkpt lat="45.65838" lon="6.03187">
        <ele>1078.7</ele>
        <time>2021-08-28T08:37:40Z</time>
      </trkpt>
      <trkpt lat="45.65834" lon="6.03183">
        <ele>1079</ele>
        <time>2021-08-28T08:37:41Z</time>
      </trkpt>
      <trkpt lat="45.65832" lon="6.03183">
        <ele>1079.2</ele>
        <time>2021-08-28T08:37:42Z</time>
      </trkpt>
      <trkpt lat="45.65831" lon="6.03182">
        <ele>1079.3</ele>
        <time>2021-08-28T08:37:44Z</time>
      </trkpt>
      <trkpt lat="45.65827" lon="6.03178">
        <ele>1079.6</ele>
        <time>2021-08-28T08:37:46Z</time>
      </trkpt>
      <trkpt lat="45.65825" lon="6.03177">
        <ele>1079.7</ele>
        <time>2021-08-28T08:37:47Z</time>
      </trkpt>
      <trkpt lat="45.65824" lon="6.03176">
        <ele>1079.8</ele>
        <time>2021-08-28T08:37:48Z</time>
      </trkpt>
      <trkpt lat="45.65819" lon="6.03172">
        <ele>1080.2</ele>
        <time>2021-08-28T08:37:49Z</time>
      </trkpt>
      <trkpt lat="45.65818" lon="6.03171">
        <ele>1080.4</ele>
        <time>2021-08-28T08:37:51Z</time>
      </trkpt>
      <trkpt lat="45.65813" lon="6.03168">
        <ele>1080.7</ele>
        <time>2021-08-28T08:37:53Z</time>
      </trkpt>
      <trkpt lat="45.6581" lon="6.03166">
        <ele>1080.9</ele>
        <time>2021-08-28T08:37:55Z</time>
      </trkpt>
      <trkpt lat="45.65807" lon="6.03163">
        <ele>1081.2</ele>
        <time>2021-08-28T08:37:57Z</time>
      </trkpt>
      <trkpt lat="45.65805" lon="6.03161">
        <ele>1081.3</ele>
        <time>2021-08-28T08:37:58Z</time>
      </trkpt>
      <trkpt lat="45.65801" lon="6.03158">
        <ele>1081.7</ele>
        <time>2021-08-28T08:38:01Z</time>
      </trkpt>
      <trkpt lat="45.65799" lon="6.03157">
        <ele>1081.9</ele>
        <time>2021-08-28T08:38:02Z</time>
      </trkpt>
      <trkpt lat="45.65795" lon="6.03153">
        <ele>1082.2</ele>
        <time>2021-08-28T08:38:04Z</time>
      </trkpt>
      <trkpt lat="45.65792" lon="6.0315">
        <ele>1082.4</ele>
        <time>2021-08-28T08:38:06Z</time>
      </trkpt>
      <trkpt lat="45.65789" lon="6.03148">
        <ele>1082.7</ele>
        <time>2021-08-28T08:38:08Z</time>
      </trkpt>
      <trkpt lat="45.65786" lon="6.03146">
        <ele>1082.9</ele>
        <time>2021-08-28T08:38:09Z</time>
      </trkpt>
      <trkpt lat="45.65785" lon="6.03145">
        <ele>1083</ele>
        <time>2021-08-28T08:38:10Z</time>
      </trkpt>
      <trkpt lat="45.65782" lon="6.03144">
        <ele>1083.2</ele>
        <time>2021-08-28T08:38:11Z</time>
      </trkpt>
      <trkpt lat="45.65781" lon="6.03143">
        <ele>1083.3</ele>
        <time>2021-08-28T08:38:12Z</time>
      </trkpt>
      <trkpt lat="45.65779" lon="6.03139">
        <ele>1083.5</ele>
        <time>2021-08-28T08:38:14Z</time>
      </trkpt>
      <trkpt lat="45.65776" lon="6.03136">
        <ele>1083.8</ele>
        <time>2021-08-28T08:38:15Z</time>
      </trkpt>
      <trkpt lat="45.65774" lon="6.03135">
        <ele>1083.9</ele>
        <time>2021-08-28T08:38:16Z</time>
      </trkpt>
      <trkpt lat="45.65772" lon="6.03134">
        <ele>1084</ele>
        <time>2021-08-28T08:38:18Z</time>
      </trkpt>
      <trkpt lat="45.65768" lon="6.0313">
        <ele>1084.4</ele>
        <time>2021-08-28T08:38:20Z</time>
      </trkpt>
      <trkpt lat="45.65765" lon="6.03129">
        <ele>1084.6</ele>
        <time>2021-08-28T08:38:21Z</time>
      </trkpt>
      <trkpt lat="45.65764" lon="6.03128">
        <ele>1084.7</ele>
        <time>2021-08-28T08:38:23Z</time>
      </trkpt>
      <trkpt lat="45.65761" lon="6.03126">
        <ele>1084.9</ele>
        <time>2021-08-28T08:38:24Z</time>
      </trkpt>
      <trkpt lat="45.65758" lon="6.03122">
        <ele>1085.2</ele>
        <time>2021-08-28T08:38:25Z</time>
      </trkpt>
      <trkpt lat="45.65755" lon="6.03119">
        <ele>1085.4</ele>
        <time>2021-08-28T08:38:27Z</time>
      </trkpt>
      <trkpt lat="45.65754" lon="6.03118">
        <ele>1085.5</ele>
        <time>2021-08-28T08:38:28Z</time>
      </trkpt>
      <trkpt lat="45.65751" lon="6.03116">
        <ele>1085.8</ele>
        <time>2021-08-28T08:38:29Z</time>
      </trkpt>
      <trkpt lat="45.65749" lon="6.03114">
        <ele>1086</ele>
        <time>2021-08-28T08:38:31Z</time>
      </trkpt>
      <trkpt lat="45.65745" lon="6.03112">
        <ele>1086.3</ele>
        <time>2021-08-28T08:38:33Z</time>
      </trkpt>
      <trkpt lat="45.65742" lon="6.03109">
        <ele>1086.5</ele>
        <time>2021-08-28T08:38:34Z</time>
      </trkpt>
      <trkpt lat="45.65741" lon="6.03108">
        <ele>1086.6</ele>
        <time>2021-08-28T08:38:35Z</time>
      </trkpt>
      <trkpt lat="45.65737" lon="6.03107">
        <ele>1086.9</ele>
        <time>2021-08-28T08:38:36Z</time>
      </trkpt>
      <trkpt lat="45.65733" lon="6.03105">
        <ele>1087.2</ele>
        <time>2021-08-28T08:38:38Z</time>
      </trkpt>
      <trkpt lat="45.65732" lon="6.03104">
        <ele>1087.3</ele>
        <time>2021-08-28T08:38:39Z</time>
      </trkpt>
      <trkpt lat="45.6573" lon="6.03101">
        <ele>1087.5</ele>
        <time>2021-08-28T08:38:41Z</time>
      </trkpt>
      <trkpt lat="45.65729" lon="6.031">
        <ele>1087.6</ele>
        <time>2021-08-28T08:38:42Z</time>
      </trkpt>
      <trkpt lat="45.65725" lon="6.03097">
        <ele>1087.9</ele>
        <time>2021-08-28T08:38:44Z</time>
      </trkpt>
      <trkpt lat="45.65721" lon="6.03094">
        <ele>1088.2</ele>
        <time>2021-08-28T08:38:45Z</time>
      </trkpt>
      <trkpt lat="45.6572" lon="6.03092">
        <ele>1088.4</ele>
        <time>2021-08-28T08:38:46Z</time>
      </trkpt>
      <trkpt lat="45.65719" lon="6.03092">
        <ele>1088.5</ele>
        <time>2021-08-28T08:38:47Z</time>
      </trkpt>
      <trkpt lat="45.65717" lon="6.0309">
        <ele>1088.6</ele>
        <time>2021-08-28T08:38:49Z</time>
      </trkpt>
      <trkpt lat="45.65715" lon="6.0309">
        <ele>1088.7</ele>
        <time>2021-08-28T08:38:50Z</time>
      </trkpt>
      <trkpt lat="45.65712" lon="6.03088">
        <ele>1089</ele>
        <time>2021-08-28T08:38:51Z</time>
      </trkpt>
      <trkpt lat="45.65711" lon="6.03087">
        <ele>1089.1</ele>
        <time>2021-08-28T08:38:52Z</time>
      </trkpt>
      <trkpt lat="45.65707" lon="6.03084">
        <ele>1089.4</ele>
        <time>2021-08-28T08:38:54Z</time>
      </trkpt>
      <trkpt lat="45.65706" lon="6.03081">
        <ele>1089.5</ele>
        <time>2021-08-28T08:38:55Z</time>
      </trkpt>
      <trkpt lat="45.65705" lon="6.0308">
        <ele>1089.6</ele>
        <time>2021-08-28T08:38:56Z</time>
      </trkpt>
      <trkpt lat="45.65704" lon="6.03079">
        <ele>1089.7</ele>
        <time>2021-08-28T08:38:57Z</time>
      </trkpt>
      <trkpt lat="45.65699" lon="6.03076">
        <ele>1090.1</ele>
        <time>2021-08-28T08:38:59Z</time>
      </trkpt>
      <trkpt lat="45.65696" lon="6.03073">
        <ele>1090.4</ele>
        <time>2021-08-28T08:39:00Z</time>
      </trkpt>
      <trkpt lat="45.65695" lon="6.03072">
        <ele>1090.5</ele>
        <time>2021-08-28T08:39:01Z</time>
      </trkpt>
      <trkpt lat="45.65691" lon="6.03071">
        <ele>1090.7</ele>
        <time>2021-08-28T08:39:03Z</time>
      </trkpt>
      <trkpt lat="45.65688" lon="6.03066">
        <ele>1091</ele>
        <time>2021-08-28T08:39:04Z</time>
      </trkpt>
      <trkpt lat="45.65687" lon="6.03065">
        <ele>1091.1</ele>
        <time>2021-08-28T08:39:06Z</time>
      </trkpt>
      <trkpt lat="45.65685" lon="6.03062">
        <ele>1091.4</ele>
        <time>2021-08-28T08:39:08Z</time>
      </trkpt>
      <trkpt lat="45.6568" lon="6.03059">
        <ele>1091.7</ele>
        <time>2021-08-28T08:39:09Z</time>
      </trkpt>
      <trkpt lat="45.65678" lon="6.03058">
        <ele>1091.9</ele>
        <time>2021-08-28T08:39:10Z</time>
      </trkpt>
      <trkpt lat="45.65674" lon="6.03054">
        <ele>1092.2</ele>
        <time>2021-08-28T08:39:12Z</time>
      </trkpt>
      <trkpt lat="45.65673" lon="6.03053">
        <ele>1092.4</ele>
        <time>2021-08-28T08:39:13Z</time>
      </trkpt>
      <trkpt lat="45.6567" lon="6.03051">
        <ele>1092.6</ele>
        <time>2021-08-28T08:39:14Z</time>
      </trkpt>
      <trkpt lat="45.65667" lon="6.03048">
        <ele>1092.9</ele>
        <time>2021-08-28T08:39:16Z</time>
      </trkpt>
      <trkpt lat="45.65664" lon="6.03046">
        <ele>1093.2</ele>
        <time>2021-08-28T08:39:17Z</time>
      </trkpt>
      <trkpt lat="45.65663" lon="6.03045">
        <ele>1093.3</ele>
        <time>2021-08-28T08:39:18Z</time>
      </trkpt>
      <trkpt lat="45.65658" lon="6.03041">
        <ele>1093.7</ele>
        <time>2021-08-28T08:39:20Z</time>
      </trkpt>
      <trkpt lat="45.65654" lon="6.03036">
        <ele>1094.1</ele>
        <time>2021-08-28T08:39:22Z</time>
      </trkpt>
      <trkpt lat="45.65651" lon="6.03035">
        <ele>1094.3</ele>
        <time>2021-08-28T08:39:23Z</time>
      </trkpt>
      <trkpt lat="45.65648" lon="6.03032">
        <ele>1094.6</ele>
        <time>2021-08-28T08:39:25Z</time>
      </trkpt>
      <trkpt lat="45.65644" lon="6.03028">
        <ele>1095</ele>
        <time>2021-08-28T08:39:26Z</time>
      </trkpt>
      <trkpt lat="45.65642" lon="6.03026">
        <ele>1095.2</ele>
        <time>2021-08-28T08:39:27Z</time>
      </trkpt>
      <trkpt lat="45.65639" lon="6.03023">
        <ele>1095.4</ele>
        <time>2021-08-28T08:39:28Z</time>
      </trkpt>
      <trkpt lat="45.65638" lon="6.03023">
        <ele>1095.5</ele>
        <time>2021-08-28T08:39:29Z</time>
      </trkpt>
      <trkpt lat="45.65635" lon="6.0302">
        <ele>1095.8</ele>
        <time>2021-08-28T08:39:31Z</time>
      </trkpt>
      <trkpt lat="45.65633" lon="6.03018">
        <ele>1096</ele>
        <time>2021-08-28T08:39:32Z</time>
      </trkpt>
      <trkpt lat="45.65629" lon="6.03015">
        <ele>1096.4</ele>
        <time>2021-08-28T08:39:34Z</time>
      </trkpt>
      <trkpt lat="45.65628" lon="6.03014">
        <ele>1096.5</ele>
        <time>2021-08-28T08:39:35Z</time>
      </trkpt>
      <trkpt lat="45.65627" lon="6.03013">
        <ele>1096.6</ele>
        <time>2021-08-28T08:39:36Z</time>
      </trkpt>
      <trkpt lat="45.65623" lon="6.0301">
        <ele>1097</ele>
        <time>2021-08-28T08:39:37Z</time>
      </trkpt>
      <trkpt lat="45.6562" lon="6.03008">
        <ele>1097.2</ele>
        <time>2021-08-28T08:39:39Z</time>
      </trkpt>
      <trkpt lat="45.65616" lon="6.03004">
        <ele>1097.6</ele>
        <time>2021-08-28T08:39:40Z</time>
      </trkpt>
      <trkpt lat="45.65615" lon="6.03002">
        <ele>1097.7</ele>
        <time>2021-08-28T08:39:42Z</time>
      </trkpt>
      <trkpt lat="45.65611" lon="6.02999">
        <ele>1098.1</ele>
        <time>2021-08-28T08:39:44Z</time>
      </trkpt>
      <trkpt lat="45.65607" lon="6.02996">
        <ele>1098.4</ele>
        <time>2021-08-28T08:39:45Z</time>
      </trkpt>
      <trkpt lat="45.65606" lon="6.02994">
        <ele>1098.6</ele>
        <time>2021-08-28T08:39:46Z</time>
      </trkpt>
      <trkpt lat="45.65604" lon="6.02992">
        <ele>1098.8</ele>
        <time>2021-08-28T08:39:48Z</time>
      </trkpt>
      <trkpt lat="45.65601" lon="6.0299">
        <ele>1099.1</ele>
        <time>2021-08-28T08:39:51Z</time>
      </trkpt>
      <trkpt lat="45.656" lon="6.02989">
        <ele>1099.1</ele>
        <time>2021-08-28T08:39:52Z</time>
      </trkpt>
      <trkpt lat="45.65598" lon="6.02989">
        <ele>1099.3</ele>
        <time>2021-08-28T08:39:53Z</time>
      </trkpt>
      <trkpt lat="45.65595" lon="6.02986">
        <ele>1099.6</ele>
        <time>2021-08-28T08:39:56Z</time>
      </trkpt>
      <trkpt lat="45.65592" lon="6.02984">
        <ele>1099.8</ele>
        <time>2021-08-28T08:39:57Z</time>
      </trkpt>
      <trkpt lat="45.6559" lon="6.02981">
        <ele>1100.1</ele>
        <time>2021-08-28T08:39:59Z</time>
      </trkpt>
      <trkpt lat="45.65586" lon="6.02977">
        <ele>1100.4</ele>
        <time>2021-08-28T08:40:01Z</time>
      </trkpt>
      <trkpt lat="45.65585" lon="6.02975">
        <ele>1100.6</ele>
        <time>2021-08-28T08:40:02Z</time>
      </trkpt>
      <trkpt lat="45.65582" lon="6.02971">
        <ele>1100.9</ele>
        <time>2021-08-28T08:40:04Z</time>
      </trkpt>
      <trkpt lat="45.6558" lon="6.02967">
        <ele>1101.2</ele>
        <time>2021-08-28T08:40:06Z</time>
      </trkpt>
      <trkpt lat="45.65576" lon="6.02964">
        <ele>1101.5</ele>
        <time>2021-08-28T08:40:09Z</time>
      </trkpt>
      <trkpt lat="45.65574" lon="6.02964">
        <ele>1101.7</ele>
        <time>2021-08-28T08:40:10Z</time>
      </trkpt>
      <trkpt lat="45.65573" lon="6.02963">
        <ele>1101.8</ele>
        <time>2021-08-28T08:40:11Z</time>
      </trkpt>
      <trkpt lat="45.65571" lon="6.0296">
        <ele>1102.1</ele>
        <time>2021-08-28T08:40:14Z</time>
      </trkpt>
      <trkpt lat="45.6557" lon="6.02959">
        <ele>1102.1</ele>
        <time>2021-08-28T08:40:15Z</time>
      </trkpt>
      <trkpt lat="45.65567" lon="6.02956">
        <ele>1102.4</ele>
        <time>2021-08-28T08:40:17Z</time>
      </trkpt>
      <trkpt lat="45.65564" lon="6.02953">
        <ele>1102.7</ele>
        <time>2021-08-28T08:40:19Z</time>
      </trkpt>
      <trkpt lat="45.65561" lon="6.02951">
        <ele>1103</ele>
        <time>2021-08-28T08:40:21Z</time>
      </trkpt>
      <trkpt lat="45.65558" lon="6.02949">
        <ele>1103.2</ele>
        <time>2021-08-28T08:40:22Z</time>
      </trkpt>
      <trkpt lat="45.65556" lon="6.02947">
        <ele>1103.4</ele>
        <time>2021-08-28T08:40:23Z</time>
      </trkpt>
      <trkpt lat="45.65555" lon="6.02946">
        <ele>1103.5</ele>
        <time>2021-08-28T08:40:25Z</time>
      </trkpt>
      <trkpt lat="45.65553" lon="6.02945">
        <ele>1103.7</ele>
        <time>2021-08-28T08:40:26Z</time>
      </trkpt>
      <trkpt lat="45.65551" lon="6.02941">
        <ele>1103.9</ele>
        <time>2021-08-28T08:40:28Z</time>
      </trkpt>
      <trkpt lat="45.65548" lon="6.0294">
        <ele>1104.1</ele>
        <time>2021-08-28T08:40:29Z</time>
      </trkpt>
      <trkpt lat="45.65546" lon="6.02939">
        <ele>1104.3</ele>
        <time>2021-08-28T08:40:31Z</time>
      </trkpt>
      <trkpt lat="45.65543" lon="6.02938">
        <ele>1104.6</ele>
        <time>2021-08-28T08:40:34Z</time>
      </trkpt>
      <trkpt lat="45.65539" lon="6.02935">
        <ele>1104.9</ele>
        <time>2021-08-28T08:40:36Z</time>
      </trkpt>
      <trkpt lat="45.65535" lon="6.02931">
        <ele>1105.3</ele>
        <time>2021-08-28T08:40:38Z</time>
      </trkpt>
      <trkpt lat="45.65533" lon="6.02929">
        <ele>1105.5</ele>
        <time>2021-08-28T08:40:40Z</time>
      </trkpt>
      <trkpt lat="45.65527" lon="6.02923">
        <ele>1106.1</ele>
        <time>2021-08-28T08:40:43Z</time>
      </trkpt>
      <trkpt lat="45.65523" lon="6.02919">
        <ele>1106.4</ele>
        <time>2021-08-28T08:40:46Z</time>
      </trkpt>
      <trkpt lat="45.65522" lon="6.02917">
        <ele>1106.6</ele>
        <time>2021-08-28T08:40:47Z</time>
      </trkpt>
      <trkpt lat="45.65519" lon="6.02913">
        <ele>1106.9</ele>
        <time>2021-08-28T08:40:50Z</time>
      </trkpt>
      <trkpt lat="45.65518" lon="6.02912">
        <ele>1107</ele>
        <time>2021-08-28T08:40:51Z</time>
      </trkpt>
      <trkpt lat="45.65514" lon="6.02909">
        <ele>1107.4</ele>
        <time>2021-08-28T08:40:53Z</time>
      </trkpt>
      <trkpt lat="45.65513" lon="6.02907">
        <ele>1107.5</ele>
        <time>2021-08-28T08:40:54Z</time>
      </trkpt>
      <trkpt lat="45.65508" lon="6.02902">
        <ele>1108</ele>
        <time>2021-08-28T08:40:56Z</time>
      </trkpt>
      <trkpt lat="45.65506" lon="6.029">
        <ele>1108.2</ele>
        <time>2021-08-28T08:40:58Z</time>
      </trkpt>
      <trkpt lat="45.65504" lon="6.02898">
        <ele>1108.5</ele>
        <time>2021-08-28T08:41:00Z</time>
      </trkpt>
      <trkpt lat="45.65502" lon="6.02896">
        <ele>1108.7</ele>
        <time>2021-08-28T08:41:01Z</time>
      </trkpt>
      <trkpt lat="45.655" lon="6.02894">
        <ele>1108.9</ele>
        <time>2021-08-28T08:41:03Z</time>
      </trkpt>
      <trkpt lat="45.65498" lon="6.02892">
        <ele>1109.1</ele>
        <time>2021-08-28T08:41:04Z</time>
      </trkpt>
      <trkpt lat="45.65496" lon="6.02891">
        <ele>1109.2</ele>
        <time>2021-08-28T08:41:06Z</time>
      </trkpt>
      <trkpt lat="45.65492" lon="6.02887">
        <ele>1109.6</ele>
        <time>2021-08-28T08:41:08Z</time>
      </trkpt>
      <trkpt lat="45.6549" lon="6.02885">
        <ele>1109.8</ele>
        <time>2021-08-28T08:41:10Z</time>
      </trkpt>
      <trkpt lat="45.65486" lon="6.02882">
        <ele>1110.1</ele>
        <time>2021-08-28T08:41:12Z</time>
      </trkpt>
      <trkpt lat="45.65484" lon="6.02878">
        <ele>1110.4</ele>
        <time>2021-08-28T08:41:14Z</time>
      </trkpt>
      <trkpt lat="45.65481" lon="6.02875">
        <ele>1110.7</ele>
        <time>2021-08-28T08:41:16Z</time>
      </trkpt>
      <trkpt lat="45.65475" lon="6.0287">
        <ele>1111.2</ele>
        <time>2021-08-28T08:41:18Z</time>
      </trkpt>
      <trkpt lat="45.65473" lon="6.02867">
        <ele>1111.4</ele>
        <time>2021-08-28T08:41:19Z</time>
      </trkpt>
      <trkpt lat="45.65472" lon="6.02865">
        <ele>1111.6</ele>
        <time>2021-08-28T08:41:21Z</time>
      </trkpt>
      <trkpt lat="45.65468" lon="6.02862">
        <ele>1111.9</ele>
        <time>2021-08-28T08:41:23Z</time>
      </trkpt>
      <trkpt lat="45.65466" lon="6.02859">
        <ele>1112.1</ele>
        <time>2021-08-28T08:41:24Z</time>
      </trkpt>
      <trkpt lat="45.65465" lon="6.02858">
        <ele>1112.2</ele>
        <time>2021-08-28T08:41:26Z</time>
      </trkpt>
      <trkpt lat="45.65462" lon="6.02855">
        <ele>1112.5</ele>
        <time>2021-08-28T08:41:27Z</time>
      </trkpt>
      <trkpt lat="45.65461" lon="6.02854">
        <ele>1112.6</ele>
        <time>2021-08-28T08:41:28Z</time>
      </trkpt>
      <trkpt lat="45.65459" lon="6.02852">
        <ele>1112.8</ele>
        <time>2021-08-28T08:41:29Z</time>
      </trkpt>
      <trkpt lat="45.65457" lon="6.0285">
        <ele>1112.9</ele>
        <time>2021-08-28T08:41:31Z</time>
      </trkpt>
      <trkpt lat="45.65455" lon="6.02848">
        <ele>1113.1</ele>
        <time>2021-08-28T08:41:32Z</time>
      </trkpt>
      <trkpt lat="45.65454" lon="6.02847">
        <ele>1113.2</ele>
        <time>2021-08-28T08:41:33Z</time>
      </trkpt>
      <trkpt lat="45.6545" lon="6.02844">
        <ele>1113.5</ele>
        <time>2021-08-28T08:41:35Z</time>
      </trkpt>
      <trkpt lat="45.65448" lon="6.02841">
        <ele>1113.7</ele>
        <time>2021-08-28T08:41:36Z</time>
      </trkpt>
      <trkpt lat="45.65447" lon="6.0284">
        <ele>1113.8</ele>
        <time>2021-08-28T08:41:37Z</time>
      </trkpt>
      <trkpt lat="45.65445" lon="6.02837">
        <ele>1114</ele>
        <time>2021-08-28T08:41:39Z</time>
      </trkpt>
      <trkpt lat="45.65443" lon="6.02835">
        <ele>1114.2</ele>
        <time>2021-08-28T08:41:41Z</time>
      </trkpt>
      <trkpt lat="45.65442" lon="6.02833">
        <ele>1114.3</ele>
        <time>2021-08-28T08:41:42Z</time>
      </trkpt>
      <trkpt lat="45.6544" lon="6.02832">
        <ele>1114.4</ele>
        <time>2021-08-28T08:41:43Z</time>
      </trkpt>
      <trkpt lat="45.65436" lon="6.02828">
        <ele>1114.8</ele>
        <time>2021-08-28T08:41:45Z</time>
      </trkpt>
      <trkpt lat="45.65434" lon="6.02826">
        <ele>1115</ele>
        <time>2021-08-28T08:41:46Z</time>
      </trkpt>
      <trkpt lat="45.65433" lon="6.02825">
        <ele>1115.1</ele>
        <time>2021-08-28T08:41:47Z</time>
      </trkpt>
      <trkpt lat="45.65431" lon="6.02822">
        <ele>1115.3</ele>
        <time>2021-08-28T08:41:49Z</time>
      </trkpt>
      <trkpt lat="45.65427" lon="6.02819">
        <ele>1115.6</ele>
        <time>2021-08-28T08:41:51Z</time>
      </trkpt>
      <trkpt lat="45.65425" lon="6.02817">
        <ele>1115.8</ele>
        <time>2021-08-28T08:41:52Z</time>
      </trkpt>
      <trkpt lat="45.65424" lon="6.02816">
        <ele>1116</ele>
        <time>2021-08-28T08:41:53Z</time>
      </trkpt>
      <trkpt lat="45.65422" lon="6.02814">
        <ele>1116.1</ele>
        <time>2021-08-28T08:41:54Z</time>
      </trkpt>
      <trkpt lat="45.6542" lon="6.02812">
        <ele>1116.3</ele>
        <time>2021-08-28T08:41:56Z</time>
      </trkpt>
      <trkpt lat="45.65418" lon="6.0281">
        <ele>1116.5</ele>
        <time>2021-08-28T08:41:58Z</time>
      </trkpt>
      <trkpt lat="45.65415" lon="6.02806">
        <ele>1116.8</ele>
        <time>2021-08-28T08:42:00Z</time>
      </trkpt>
      <trkpt lat="45.65411" lon="6.02803">
        <ele>1117.2</ele>
        <time>2021-08-28T08:42:02Z</time>
      </trkpt>
      <trkpt lat="45.65411" lon="6.02801">
        <ele>1117.3</ele>
        <time>2021-08-28T08:42:03Z</time>
      </trkpt>
      <trkpt lat="45.65407" lon="6.02797">
        <ele>1117.6</ele>
        <time>2021-08-28T08:42:05Z</time>
      </trkpt>
      <trkpt lat="45.65404" lon="6.02793">
        <ele>1117.9</ele>
        <time>2021-08-28T08:42:06Z</time>
      </trkpt>
      <trkpt lat="45.65403" lon="6.02793">
        <ele>1118</ele>
        <time>2021-08-28T08:42:07Z</time>
      </trkpt>
      <trkpt lat="45.654" lon="6.02789">
        <ele>1118.3</ele>
        <time>2021-08-28T08:42:09Z</time>
      </trkpt>
      <trkpt lat="45.65398" lon="6.02787">
        <ele>1118.5</ele>
        <time>2021-08-28T08:42:10Z</time>
      </trkpt>
      <trkpt lat="45.65395" lon="6.02783">
        <ele>1118.8</ele>
        <time>2021-08-28T08:42:13Z</time>
      </trkpt>
      <trkpt lat="45.65393" lon="6.02781">
        <ele>1119</ele>
        <time>2021-08-28T08:42:15Z</time>
      </trkpt>
      <trkpt lat="45.65391" lon="6.02777">
        <ele>1119.2</ele>
        <time>2021-08-28T08:42:16Z</time>
      </trkpt>
      <trkpt lat="45.65389" lon="6.02775">
        <ele>1119.4</ele>
        <time>2021-08-28T08:42:17Z</time>
      </trkpt>
      <trkpt lat="45.65385" lon="6.02771">
        <ele>1119.7</ele>
        <time>2021-08-28T08:42:19Z</time>
      </trkpt>
      <trkpt lat="45.65383" lon="6.0277">
        <ele>1119.8</ele>
        <time>2021-08-28T08:42:20Z</time>
      </trkpt>
      <trkpt lat="45.65381" lon="6.02767">
        <ele>1120</ele>
        <time>2021-08-28T08:42:22Z</time>
      </trkpt>
      <trkpt lat="45.65377" lon="6.02762">
        <ele>1120.4</ele>
        <time>2021-08-28T08:42:23Z</time>
      </trkpt>
      <trkpt lat="45.65375" lon="6.02759">
        <ele>1120.6</ele>
        <time>2021-08-28T08:42:24Z</time>
      </trkpt>
      <trkpt lat="45.65372" lon="6.02755">
        <ele>1120.9</ele>
        <time>2021-08-28T08:42:26Z</time>
      </trkpt>
      <trkpt lat="45.65369" lon="6.02751">
        <ele>1121.2</ele>
        <time>2021-08-28T08:42:28Z</time>
      </trkpt>
      <trkpt lat="45.65368" lon="6.0275">
        <ele>1121.3</ele>
        <time>2021-08-28T08:42:29Z</time>
      </trkpt>
      <trkpt lat="45.65365" lon="6.02746">
        <ele>1121.6</ele>
        <time>2021-08-28T08:42:32Z</time>
      </trkpt>
      <trkpt lat="45.65362" lon="6.02742">
        <ele>1121.9</ele>
        <time>2021-08-28T08:42:33Z</time>
      </trkpt>
      <trkpt lat="45.65361" lon="6.02741">
        <ele>1122</ele>
        <time>2021-08-28T08:42:34Z</time>
      </trkpt>
      <trkpt lat="45.65358" lon="6.02738">
        <ele>1122.2</ele>
        <time>2021-08-28T08:42:36Z</time>
      </trkpt>
      <trkpt lat="45.65357" lon="6.02736">
        <ele>1122.3</ele>
        <time>2021-08-28T08:42:37Z</time>
      </trkpt>
      <trkpt lat="45.65355" lon="6.02735">
        <ele>1122.4</ele>
        <time>2021-08-28T08:42:39Z</time>
      </trkpt>
      <trkpt lat="45.65354" lon="6.02734">
        <ele>1122.6</ele>
        <time>2021-08-28T08:42:40Z</time>
      </trkpt>
      <trkpt lat="45.65353" lon="6.02732">
        <ele>1122.7</ele>
        <time>2021-08-28T08:42:41Z</time>
      </trkpt>
      <trkpt lat="45.65349" lon="6.02729">
        <ele>1123</ele>
        <time>2021-08-28T08:42:44Z</time>
      </trkpt>
      <trkpt lat="45.65345" lon="6.02724">
        <ele>1123.3</ele>
        <time>2021-08-28T08:42:47Z</time>
      </trkpt>
      <trkpt lat="45.65343" lon="6.02722">
        <ele>1123.5</ele>
        <time>2021-08-28T08:42:48Z</time>
      </trkpt>
      <trkpt lat="45.6534" lon="6.02717">
        <ele>1123.9</ele>
        <time>2021-08-28T08:42:50Z</time>
      </trkpt>
      <trkpt lat="45.65337" lon="6.02713">
        <ele>1124.2</ele>
        <time>2021-08-28T08:42:52Z</time>
      </trkpt>
      <trkpt lat="45.65336" lon="6.02711">
        <ele>1124.3</ele>
        <time>2021-08-28T08:42:53Z</time>
      </trkpt>
      <trkpt lat="45.65334" lon="6.02709">
        <ele>1124.5</ele>
        <time>2021-08-28T08:42:55Z</time>
      </trkpt>
      <trkpt lat="45.65331" lon="6.02706">
        <ele>1124.8</ele>
        <time>2021-08-28T08:42:56Z</time>
      </trkpt>
      <trkpt lat="45.65328" lon="6.02702">
        <ele>1125.1</ele>
        <time>2021-08-28T08:42:57Z</time>
      </trkpt>
      <trkpt lat="45.65327" lon="6.027">
        <ele>1125.2</ele>
        <time>2021-08-28T08:42:59Z</time>
      </trkpt>
      <trkpt lat="45.65325" lon="6.02699">
        <ele>1125.3</ele>
        <time>2021-08-28T08:43:00Z</time>
      </trkpt>
      <trkpt lat="45.65324" lon="6.02697">
        <ele>1125.5</ele>
        <time>2021-08-28T08:43:01Z</time>
      </trkpt>
      <trkpt lat="45.65322" lon="6.02695">
        <ele>1125.6</ele>
        <time>2021-08-28T08:43:02Z</time>
      </trkpt>
      <trkpt lat="45.6532" lon="6.02692">
        <ele>1125.9</ele>
        <time>2021-08-28T08:43:04Z</time>
      </trkpt>
      <trkpt lat="45.65318" lon="6.02689">
        <ele>1126.1</ele>
        <time>2021-08-28T08:43:06Z</time>
      </trkpt>
      <trkpt lat="45.65315" lon="6.02686">
        <ele>1126.4</ele>
        <time>2021-08-28T08:43:08Z</time>
      </trkpt>
      <trkpt lat="45.65312" lon="6.02682">
        <ele>1126.7</ele>
        <time>2021-08-28T08:43:11Z</time>
      </trkpt>
      <trkpt lat="45.65309" lon="6.0268">
        <ele>1127</ele>
        <time>2021-08-28T08:43:13Z</time>
      </trkpt>
      <trkpt lat="45.65307" lon="6.02677">
        <ele>1127.2</ele>
        <time>2021-08-28T08:43:14Z</time>
      </trkpt>
      <trkpt lat="45.65304" lon="6.02673">
        <ele>1127.6</ele>
        <time>2021-08-28T08:43:17Z</time>
      </trkpt>
      <trkpt lat="45.65302" lon="6.02671">
        <ele>1127.8</ele>
        <time>2021-08-28T08:43:18Z</time>
      </trkpt>
      <trkpt lat="45.65299" lon="6.02667">
        <ele>1128.1</ele>
        <time>2021-08-28T08:43:20Z</time>
      </trkpt>
      <trkpt lat="45.65295" lon="6.02663">
        <ele>1128.5</ele>
        <time>2021-08-28T08:43:23Z</time>
      </trkpt>
      <trkpt lat="45.65292" lon="6.0266">
        <ele>1128.8</ele>
        <time>2021-08-28T08:43:25Z</time>
      </trkpt>
      <trkpt lat="45.6529" lon="6.02658">
        <ele>1129</ele>
        <time>2021-08-28T08:43:26Z</time>
      </trkpt>
      <trkpt lat="45.65285" lon="6.02653">
        <ele>1129.5</ele>
        <time>2021-08-28T08:43:29Z</time>
      </trkpt>
      <trkpt lat="45.65281" lon="6.02648">
        <ele>1129.9</ele>
        <time>2021-08-28T08:43:32Z</time>
      </trkpt>
      <trkpt lat="45.65278" lon="6.02644">
        <ele>1130.3</ele>
        <time>2021-08-28T08:43:35Z</time>
      </trkpt>
      <trkpt lat="45.65276" lon="6.02641">
        <ele>1130.6</ele>
        <time>2021-08-28T08:43:36Z</time>
      </trkpt>
      <trkpt lat="45.65271" lon="6.02636">
        <ele>1131.1</ele>
        <time>2021-08-28T08:43:39Z</time>
      </trkpt>
      <trkpt lat="45.6527" lon="6.02634">
        <ele>1131.2</ele>
        <time>2021-08-28T08:43:40Z</time>
      </trkpt>
      <trkpt lat="45.65268" lon="6.02632">
        <ele>1131.4</ele>
        <time>2021-08-28T08:43:41Z</time>
      </trkpt>
      <trkpt lat="45.65265" lon="6.02628">
        <ele>1131.8</ele>
        <time>2021-08-28T08:43:43Z</time>
      </trkpt>
      <trkpt lat="45.65262" lon="6.02625">
        <ele>1132.1</ele>
        <time>2021-08-28T08:43:44Z</time>
      </trkpt>
      <trkpt lat="45.65262" lon="6.02624">
        <ele>1132.2</ele>
        <time>2021-08-28T08:43:45Z</time>
      </trkpt>
      <trkpt lat="45.65259" lon="6.0262">
        <ele>1132.5</ele>
        <time>2021-08-28T08:43:47Z</time>
      </trkpt>
      <trkpt lat="45.65258" lon="6.02619">
        <ele>1132.6</ele>
        <time>2021-08-28T08:43:48Z</time>
      </trkpt>
      <trkpt lat="45.65257" lon="6.02618">
        <ele>1132.8</ele>
        <time>2021-08-28T08:43:50Z</time>
      </trkpt>
      <trkpt lat="45.65256" lon="6.02616">
        <ele>1132.9</ele>
        <time>2021-08-28T08:43:51Z</time>
      </trkpt>
      <trkpt lat="45.65253" lon="6.02612">
        <ele>1133.3</ele>
        <time>2021-08-28T08:43:52Z</time>
      </trkpt>
      <trkpt lat="45.65251" lon="6.02611">
        <ele>1133.5</ele>
        <time>2021-08-28T08:43:53Z</time>
      </trkpt>
      <trkpt lat="45.65251" lon="6.0261">
        <ele>1133.5</ele>
        <time>2021-08-28T08:43:55Z</time>
      </trkpt>
      <trkpt lat="45.65247" lon="6.02605">
        <ele>1134</ele>
        <time>2021-08-28T08:43:58Z</time>
      </trkpt>
      <trkpt lat="45.65245" lon="6.02604">
        <ele>1134.2</ele>
        <time>2021-08-28T08:43:59Z</time>
      </trkpt>
      <trkpt lat="45.65243" lon="6.02601">
        <ele>1134.5</ele>
        <time>2021-08-28T08:44:02Z</time>
      </trkpt>
      <trkpt lat="45.65241" lon="6.02598">
        <ele>1134.8</ele>
        <time>2021-08-28T08:44:03Z</time>
      </trkpt>
      <trkpt lat="45.65239" lon="6.02595">
        <ele>1135</ele>
        <time>2021-08-28T08:44:04Z</time>
      </trkpt>
      <trkpt lat="45.65237" lon="6.02593">
        <ele>1135.3</ele>
        <time>2021-08-28T08:44:06Z</time>
      </trkpt>
      <trkpt lat="45.65235" lon="6.02589">
        <ele>1135.6</ele>
        <time>2021-08-28T08:44:08Z</time>
      </trkpt>
      <trkpt lat="45.65232" lon="6.02586">
        <ele>1136</ele>
        <time>2021-08-28T08:44:09Z</time>
      </trkpt>
      <trkpt lat="45.6523" lon="6.02584">
        <ele>1136.2</ele>
        <time>2021-08-28T08:44:11Z</time>
      </trkpt>
      <trkpt lat="45.65229" lon="6.02583">
        <ele>1136.3</ele>
        <time>2021-08-28T08:44:12Z</time>
      </trkpt>
      <trkpt lat="45.65226" lon="6.02579">
        <ele>1136.7</ele>
        <time>2021-08-28T08:44:13Z</time>
      </trkpt>
      <trkpt lat="45.65225" lon="6.02577">
        <ele>1136.8</ele>
        <time>2021-08-28T08:44:14Z</time>
      </trkpt>
      <trkpt lat="45.65222" lon="6.02575">
        <ele>1137.1</ele>
        <time>2021-08-28T08:44:17Z</time>
      </trkpt>
      <trkpt lat="45.6522" lon="6.02572">
        <ele>1137.4</ele>
        <time>2021-08-28T08:44:19Z</time>
      </trkpt>
      <trkpt lat="45.65219" lon="6.0257">
        <ele>1137.5</ele>
        <time>2021-08-28T08:44:20Z</time>
      </trkpt>
      <trkpt lat="45.65217" lon="6.02569">
        <ele>1137.7</ele>
        <time>2021-08-28T08:44:21Z</time>
      </trkpt>
      <trkpt lat="45.65214" lon="6.02565">
        <ele>1138</ele>
        <time>2021-08-28T08:44:22Z</time>
      </trkpt>
      <trkpt lat="45.65213" lon="6.02564">
        <ele>1138.2</ele>
        <time>2021-08-28T08:44:23Z</time>
      </trkpt>
      <trkpt lat="45.65209" lon="6.0256">
        <ele>1138.6</ele>
        <time>2021-08-28T08:44:26Z</time>
      </trkpt>
      <trkpt lat="45.65208" lon="6.02558">
        <ele>1138.7</ele>
        <time>2021-08-28T08:44:27Z</time>
      </trkpt>
      <trkpt lat="45.65205" lon="6.02555">
        <ele>1139</ele>
        <time>2021-08-28T08:44:29Z</time>
      </trkpt>
      <trkpt lat="45.65205" lon="6.02554">
        <ele>1139.1</ele>
        <time>2021-08-28T08:44:30Z</time>
      </trkpt>
      <trkpt lat="45.65203" lon="6.02553">
        <ele>1139.3</ele>
        <time>2021-08-28T08:44:31Z</time>
      </trkpt>
      <trkpt lat="45.65201" lon="6.0255">
        <ele>1139.5</ele>
        <time>2021-08-28T08:44:33Z</time>
      </trkpt>
      <trkpt lat="45.65199" lon="6.02547">
        <ele>1139.9</ele>
        <time>2021-08-28T08:44:34Z</time>
      </trkpt>
      <trkpt lat="45.65197" lon="6.02546">
        <ele>1140</ele>
        <time>2021-08-28T08:44:36Z</time>
      </trkpt>
      <trkpt lat="45.65194" lon="6.02542">
        <ele>1140.4</ele>
        <time>2021-08-28T08:44:38Z</time>
      </trkpt>
      <trkpt lat="45.65192" lon="6.02539">
        <ele>1140.7</ele>
        <time>2021-08-28T08:44:39Z</time>
      </trkpt>
      <trkpt lat="45.6519" lon="6.02538">
        <ele>1140.8</ele>
        <time>2021-08-28T08:44:40Z</time>
      </trkpt>
      <trkpt lat="45.65189" lon="6.02536">
        <ele>1141</ele>
        <time>2021-08-28T08:44:42Z</time>
      </trkpt>
      <trkpt lat="45.65188" lon="6.02535">
        <ele>1141.1</ele>
        <time>2021-08-28T08:44:43Z</time>
      </trkpt>
      <trkpt lat="45.65185" lon="6.02532">
        <ele>1141.4</ele>
        <time>2021-08-28T08:44:45Z</time>
      </trkpt>
      <trkpt lat="45.65182" lon="6.02529">
        <ele>1141.8</ele>
        <time>2021-08-28T08:44:47Z</time>
      </trkpt>
      <trkpt lat="45.6518" lon="6.02527">
        <ele>1142</ele>
        <time>2021-08-28T08:44:48Z</time>
      </trkpt>
      <trkpt lat="45.65177" lon="6.02526">
        <ele>1142.3</ele>
        <time>2021-08-28T08:44:50Z</time>
      </trkpt>
      <trkpt lat="45.65173" lon="6.02521">
        <ele>1142.7</ele>
        <time>2021-08-28T08:44:53Z</time>
      </trkpt>
      <trkpt lat="45.65171" lon="6.02518">
        <ele>1143</ele>
        <time>2021-08-28T08:44:54Z</time>
      </trkpt>
      <trkpt lat="45.65165" lon="6.02513">
        <ele>1143.7</ele>
        <time>2021-08-28T08:44:57Z</time>
      </trkpt>
      <trkpt lat="45.65164" lon="6.02511">
        <ele>1143.8</ele>
        <time>2021-08-28T08:44:59Z</time>
      </trkpt>
      <trkpt lat="45.6516" lon="6.02508">
        <ele>1144.3</ele>
        <time>2021-08-28T08:45:01Z</time>
      </trkpt>
      <trkpt lat="45.65158" lon="6.02504">
        <ele>1144.5</ele>
        <time>2021-08-28T08:45:03Z</time>
      </trkpt>
      <trkpt lat="45.65155" lon="6.02501">
        <ele>1144.8</ele>
        <time>2021-08-28T08:45:05Z</time>
      </trkpt>
      <trkpt lat="45.65152" lon="6.02499">
        <ele>1145.2</ele>
        <time>2021-08-28T08:45:07Z</time>
      </trkpt>
      <trkpt lat="45.65148" lon="6.02496">
        <ele>1145.5</ele>
        <time>2021-08-28T08:45:09Z</time>
      </trkpt>
      <trkpt lat="45.65143" lon="6.0249">
        <ele>1146</ele>
        <time>2021-08-28T08:45:11Z</time>
      </trkpt>
      <trkpt lat="45.65141" lon="6.02489">
        <ele>1146.2</ele>
        <time>2021-08-28T08:45:13Z</time>
      </trkpt>
      <trkpt lat="45.65137" lon="6.02485">
        <ele>1146.7</ele>
        <time>2021-08-28T08:45:16Z</time>
      </trkpt>
      <trkpt lat="45.65136" lon="6.02483">
        <ele>1146.8</ele>
        <time>2021-08-28T08:45:17Z</time>
      </trkpt>
      <trkpt lat="45.65134" lon="6.02482">
        <ele>1146.9</ele>
        <time>2021-08-28T08:45:18Z</time>
      </trkpt>
      <trkpt lat="45.65133" lon="6.0248">
        <ele>1147.1</ele>
        <time>2021-08-28T08:45:19Z</time>
      </trkpt>
      <trkpt lat="45.65129" lon="6.02476">
        <ele>1147.5</ele>
        <time>2021-08-28T08:45:21Z</time>
      </trkpt>
      <trkpt lat="45.65127" lon="6.02475">
        <ele>1147.7</ele>
        <time>2021-08-28T08:45:22Z</time>
      </trkpt>
      <trkpt lat="45.65125" lon="6.02472">
        <ele>1147.9</ele>
        <time>2021-08-28T08:45:24Z</time>
      </trkpt>
      <trkpt lat="45.65121" lon="6.02469">
        <ele>1148.3</ele>
        <time>2021-08-28T08:45:25Z</time>
      </trkpt>
      <trkpt lat="45.6512" lon="6.02467">
        <ele>1148.4</ele>
        <time>2021-08-28T08:45:26Z</time>
      </trkpt>
      <trkpt lat="45.65118" lon="6.02465">
        <ele>1148.6</ele>
        <time>2021-08-28T08:45:28Z</time>
      </trkpt>
      <trkpt lat="45.65117" lon="6.02464">
        <ele>1148.7</ele>
        <time>2021-08-28T08:45:29Z</time>
      </trkpt>
      <trkpt lat="45.65116" lon="6.02463">
        <ele>1148.8</ele>
        <time>2021-08-28T08:45:30Z</time>
      </trkpt>
      <trkpt lat="45.65114" lon="6.02462">
        <ele>1149</ele>
        <time>2021-08-28T08:45:31Z</time>
      </trkpt>
      <trkpt lat="45.65111" lon="6.02459">
        <ele>1149.3</ele>
        <time>2021-08-28T08:45:33Z</time>
      </trkpt>
      <trkpt lat="45.65108" lon="6.02456">
        <ele>1149.6</ele>
        <time>2021-08-28T08:45:34Z</time>
      </trkpt>
      <trkpt lat="45.65107" lon="6.02455">
        <ele>1149.7</ele>
        <time>2021-08-28T08:45:35Z</time>
      </trkpt>
      <trkpt lat="45.65104" lon="6.02451">
        <ele>1150</ele>
        <time>2021-08-28T08:45:37Z</time>
      </trkpt>
      <trkpt lat="45.65102" lon="6.0245">
        <ele>1150.1</ele>
        <time>2021-08-28T08:45:38Z</time>
      </trkpt>
      <trkpt lat="45.651" lon="6.02448">
        <ele>1150.3</ele>
        <time>2021-08-28T08:45:40Z</time>
      </trkpt>
      <trkpt lat="45.65097" lon="6.02445">
        <ele>1150.6</ele>
        <time>2021-08-28T08:45:41Z</time>
      </trkpt>
      <trkpt lat="45.65094" lon="6.02441">
        <ele>1150.8</ele>
        <time>2021-08-28T08:45:43Z</time>
      </trkpt>
      <trkpt lat="45.65091" lon="6.02439">
        <ele>1151</ele>
        <time>2021-08-28T08:45:44Z</time>
      </trkpt>
      <trkpt lat="45.65089" lon="6.02437">
        <ele>1151.2</ele>
        <time>2021-08-28T08:45:45Z</time>
      </trkpt>
      <trkpt lat="45.65084" lon="6.02433">
        <ele>1151.5</ele>
        <time>2021-08-28T08:45:46Z</time>
      </trkpt>
      <trkpt lat="45.65081" lon="6.02431">
        <ele>1151.7</ele>
        <time>2021-08-28T08:45:48Z</time>
      </trkpt>
      <trkpt lat="45.65078" lon="6.02427">
        <ele>1152</ele>
        <time>2021-08-28T08:45:49Z</time>
      </trkpt>
      <trkpt lat="45.65075" lon="6.02425">
        <ele>1152.1</ele>
        <time>2021-08-28T08:45:51Z</time>
      </trkpt>
      <trkpt lat="45.65073" lon="6.02423">
        <ele>1152.3</ele>
        <time>2021-08-28T08:45:52Z</time>
      </trkpt>
      <trkpt lat="45.65072" lon="6.02421">
        <ele>1152.4</ele>
        <time>2021-08-28T08:45:53Z</time>
      </trkpt>
      <trkpt lat="45.65068" lon="6.02416">
        <ele>1152.7</ele>
        <time>2021-08-28T08:45:55Z</time>
      </trkpt>
      <trkpt lat="45.65065" lon="6.02413">
        <ele>1152.9</ele>
        <time>2021-08-28T08:45:56Z</time>
      </trkpt>
      <trkpt lat="45.65061" lon="6.02409">
        <ele>1153.2</ele>
        <time>2021-08-28T08:45:58Z</time>
      </trkpt>
      <trkpt lat="45.65058" lon="6.02406">
        <ele>1153.4</ele>
        <time>2021-08-28T08:45:59Z</time>
      </trkpt>
      <trkpt lat="45.65056" lon="6.02405">
        <ele>1153.5</ele>
        <time>2021-08-28T08:46:00Z</time>
      </trkpt>
      <trkpt lat="45.65053" lon="6.02402">
        <ele>1153.7</ele>
        <time>2021-08-28T08:46:02Z</time>
      </trkpt>
      <trkpt lat="45.65051" lon="6.024">
        <ele>1153.8</ele>
        <time>2021-08-28T08:46:03Z</time>
      </trkpt>
      <trkpt lat="45.65045" lon="6.02394">
        <ele>1154.2</ele>
        <time>2021-08-28T08:46:05Z</time>
      </trkpt>
      <trkpt lat="45.65043" lon="6.02392">
        <ele>1154.4</ele>
        <time>2021-08-28T08:46:06Z</time>
      </trkpt>
      <trkpt lat="45.65039" lon="6.02387">
        <ele>1154.6</ele>
        <time>2021-08-28T08:46:07Z</time>
      </trkpt>
      <trkpt lat="45.65037" lon="6.02384">
        <ele>1154.8</ele>
        <time>2021-08-28T08:46:08Z</time>
      </trkpt>
      <trkpt lat="45.65034" lon="6.02382">
        <ele>1154.9</ele>
        <time>2021-08-28T08:46:09Z</time>
      </trkpt>
      <trkpt lat="45.6503" lon="6.02377">
        <ele>1155.2</ele>
        <time>2021-08-28T08:46:11Z</time>
      </trkpt>
      <trkpt lat="45.65029" lon="6.02375">
        <ele>1155.3</ele>
        <time>2021-08-28T08:46:12Z</time>
      </trkpt>
      <trkpt lat="45.65027" lon="6.02372">
        <ele>1155.5</ele>
        <time>2021-08-28T08:46:13Z</time>
      </trkpt>
      <trkpt lat="45.65025" lon="6.0237">
        <ele>1155.6</ele>
        <time>2021-08-28T08:46:14Z</time>
      </trkpt>
      <trkpt lat="45.65023" lon="6.02366">
        <ele>1155.8</ele>
        <time>2021-08-28T08:46:16Z</time>
      </trkpt>
      <trkpt lat="45.65018" lon="6.02361">
        <ele>1156.1</ele>
        <time>2021-08-28T08:46:18Z</time>
      </trkpt>
      <trkpt lat="45.65015" lon="6.02355">
        <ele>1156.4</ele>
        <time>2021-08-28T08:46:20Z</time>
      </trkpt>
      <trkpt lat="45.65011" lon="6.02349">
        <ele>1156.7</ele>
        <time>2021-08-28T08:46:22Z</time>
      </trkpt>
      <trkpt lat="45.65009" lon="6.02346">
        <ele>1156.8</ele>
        <time>2021-08-28T08:46:23Z</time>
      </trkpt>
      <trkpt lat="45.65005" lon="6.02341">
        <ele>1157.1</ele>
        <time>2021-08-28T08:46:24Z</time>
      </trkpt>
      <trkpt lat="45.65002" lon="6.02337">
        <ele>1157.3</ele>
        <time>2021-08-28T08:46:25Z</time>
      </trkpt>
      <trkpt lat="45.64999" lon="6.02333">
        <ele>1157.5</ele>
        <time>2021-08-28T08:46:27Z</time>
      </trkpt>
      <trkpt lat="45.64998" lon="6.02332">
        <ele>1157.6</ele>
        <time>2021-08-28T08:46:28Z</time>
      </trkpt>
      <trkpt lat="45.64994" lon="6.02327">
        <ele>1157.9</ele>
        <time>2021-08-28T08:46:29Z</time>
      </trkpt>
      <trkpt lat="45.64992" lon="6.02321">
        <ele>1158.2</ele>
        <time>2021-08-28T08:46:31Z</time>
      </trkpt>
      <trkpt lat="45.64988" lon="6.02316">
        <ele>1158.5</ele>
        <time>2021-08-28T08:46:32Z</time>
      </trkpt>
      <trkpt lat="45.64985" lon="6.02312">
        <ele>1158.7</ele>
        <time>2021-08-28T08:46:34Z</time>
      </trkpt>
      <trkpt lat="45.64982" lon="6.02308">
        <ele>1158.9</ele>
        <time>2021-08-28T08:46:36Z</time>
      </trkpt>
      <trkpt lat="45.64978" lon="6.02303">
        <ele>1159.2</ele>
        <time>2021-08-28T08:46:38Z</time>
      </trkpt>
      <trkpt lat="45.64974" lon="6.02297">
        <ele>1159.5</ele>
        <time>2021-08-28T08:46:40Z</time>
      </trkpt>
      <trkpt lat="45.64972" lon="6.02295">
        <ele>1159.7</ele>
        <time>2021-08-28T08:46:41Z</time>
      </trkpt>
      <trkpt lat="45.64968" lon="6.02289">
        <ele>1160</ele>
        <time>2021-08-28T08:46:43Z</time>
      </trkpt>
      <trkpt lat="45.64965" lon="6.02287">
        <ele>1160.2</ele>
        <time>2021-08-28T08:46:44Z</time>
      </trkpt>
      <trkpt lat="45.64962" lon="6.02283">
        <ele>1160.4</ele>
        <time>2021-08-28T08:46:45Z</time>
      </trkpt>
      <trkpt lat="45.64959" lon="6.02277">
        <ele>1160.7</ele>
        <time>2021-08-28T08:46:47Z</time>
      </trkpt>
      <trkpt lat="45.64955" lon="6.02268">
        <ele>1161.2</ele>
        <time>2021-08-28T08:46:50Z</time>
      </trkpt>
      <trkpt lat="45.64953" lon="6.02262">
        <ele>1161.4</ele>
        <time>2021-08-28T08:46:51Z</time>
      </trkpt>
      <trkpt lat="45.64952" lon="6.02258">
        <ele>1161.6</ele>
        <time>2021-08-28T08:46:52Z</time>
      </trkpt>
      <trkpt lat="45.6495" lon="6.02256">
        <ele>1161.8</ele>
        <time>2021-08-28T08:46:53Z</time>
      </trkpt>
      <trkpt lat="45.64948" lon="6.02252">
        <ele>1162</ele>
        <time>2021-08-28T08:46:55Z</time>
      </trkpt>
      <trkpt lat="45.64945" lon="6.02247">
        <ele>1162.2</ele>
        <time>2021-08-28T08:46:57Z</time>
      </trkpt>
      <trkpt lat="45.64942" lon="6.0224">
        <ele>1162.5</ele>
        <time>2021-08-28T08:46:58Z</time>
      </trkpt>
      <trkpt lat="45.6494" lon="6.02234">
        <ele>1162.8</ele>
        <time>2021-08-28T08:47:00Z</time>
      </trkpt>
      <trkpt lat="45.64939" lon="6.02232">
        <ele>1162.9</ele>
        <time>2021-08-28T08:47:01Z</time>
      </trkpt>
      <trkpt lat="45.64938" lon="6.02231">
        <ele>1163</ele>
        <time>2021-08-28T08:47:02Z</time>
      </trkpt>
      <trkpt lat="45.64936" lon="6.02227">
        <ele>1163.2</ele>
        <time>2021-08-28T08:47:03Z</time>
      </trkpt>
      <trkpt lat="45.64933" lon="6.02219">
        <ele>1163.4</ele>
        <time>2021-08-28T08:47:04Z</time>
      </trkpt>
      <trkpt lat="45.64931" lon="6.02216">
        <ele>1163.6</ele>
        <time>2021-08-28T08:47:06Z</time>
      </trkpt>
      <trkpt lat="45.6493" lon="6.02215">
        <ele>1163.6</ele>
        <time>2021-08-28T08:47:07Z</time>
      </trkpt>
      <trkpt lat="45.64927" lon="6.02209">
        <ele>1163.8</ele>
        <time>2021-08-28T08:47:09Z</time>
      </trkpt>
      <trkpt lat="45.64926" lon="6.02206">
        <ele>1163.9</ele>
        <time>2021-08-28T08:47:10Z</time>
      </trkpt>
      <trkpt lat="45.64921" lon="6.02197">
        <ele>1164.2</ele>
        <time>2021-08-28T08:47:11Z</time>
      </trkpt>
      <trkpt lat="45.64918" lon="6.02192">
        <ele>1164.4</ele>
        <time>2021-08-28T08:47:13Z</time>
      </trkpt>
      <trkpt lat="45.64914" lon="6.02183">
        <ele>1164.7</ele>
        <time>2021-08-28T08:47:15Z</time>
      </trkpt>
      <trkpt lat="45.6491" lon="6.02177">
        <ele>1164.9</ele>
        <time>2021-08-28T08:47:17Z</time>
      </trkpt>
      <trkpt lat="45.64906" lon="6.0217">
        <ele>1165.1</ele>
        <time>2021-08-28T08:47:19Z</time>
      </trkpt>
      <trkpt lat="45.64903" lon="6.02166">
        <ele>1165.2</ele>
        <time>2021-08-28T08:47:20Z</time>
      </trkpt>
      <trkpt lat="45.64901" lon="6.02163">
        <ele>1165.3</ele>
        <time>2021-08-28T08:47:21Z</time>
      </trkpt>
      <trkpt lat="45.64896" lon="6.02156">
        <ele>1165.5</ele>
        <time>2021-08-28T08:47:23Z</time>
      </trkpt>
      <trkpt lat="45.64894" lon="6.02152">
        <ele>1165.7</ele>
        <time>2021-08-28T08:47:24Z</time>
      </trkpt>
      <trkpt lat="45.64891" lon="6.02148">
        <ele>1165.8</ele>
        <time>2021-08-28T08:47:25Z</time>
      </trkpt>
      <trkpt lat="45.64886" lon="6.0214">
        <ele>1166</ele>
        <time>2021-08-28T08:47:27Z</time>
      </trkpt>
      <trkpt lat="45.64884" lon="6.02138">
        <ele>1166.1</ele>
        <time>2021-08-28T08:47:28Z</time>
      </trkpt>
      <trkpt lat="45.64881" lon="6.02135">
        <ele>1166.3</ele>
        <time>2021-08-28T08:47:30Z</time>
      </trkpt>
      <trkpt lat="45.64879" lon="6.02132">
        <ele>1166.4</ele>
        <time>2021-08-28T08:47:31Z</time>
      </trkpt>
      <trkpt lat="45.64876" lon="6.02127">
        <ele>1166.5</ele>
        <time>2021-08-28T08:47:32Z</time>
      </trkpt>
      <trkpt lat="45.64874" lon="6.02124">
        <ele>1166.6</ele>
        <time>2021-08-28T08:47:33Z</time>
      </trkpt>
      <trkpt lat="45.6487" lon="6.02119">
        <ele>1166.8</ele>
        <time>2021-08-28T08:47:35Z</time>
      </trkpt>
      <trkpt lat="45.64868" lon="6.02115">
        <ele>1166.9</ele>
        <time>2021-08-28T08:47:36Z</time>
      </trkpt>
      <trkpt lat="45.64864" lon="6.02106">
        <ele>1167.2</ele>
        <time>2021-08-28T08:47:38Z</time>
      </trkpt>
      <trkpt lat="45.64862" lon="6.021">
        <ele>1167.3</ele>
        <time>2021-08-28T08:47:39Z</time>
      </trkpt>
      <trkpt lat="45.64859" lon="6.02096">
        <ele>1167.4</ele>
        <time>2021-08-28T08:47:40Z</time>
      </trkpt>
      <trkpt lat="45.64858" lon="6.02094">
        <ele>1167.5</ele>
        <time>2021-08-28T08:47:41Z</time>
      </trkpt>
      <trkpt lat="45.64855" lon="6.02088">
        <ele>1167.6</ele>
        <time>2021-08-28T08:47:42Z</time>
      </trkpt>
      <trkpt lat="45.64853" lon="6.02084">
        <ele>1167.7</ele>
        <time>2021-08-28T08:47:44Z</time>
      </trkpt>
      <trkpt lat="45.6485" lon="6.02079">
        <ele>1167.7</ele>
        <time>2021-08-28T08:47:45Z</time>
      </trkpt>
      <trkpt lat="45.64846" lon="6.02072">
        <ele>1167.7</ele>
        <time>2021-08-28T08:47:47Z</time>
      </trkpt>
      <trkpt lat="45.64842" lon="6.02065">
        <ele>1167.7</ele>
        <time>2021-08-28T08:47:49Z</time>
      </trkpt>
      <trkpt lat="45.64839" lon="6.0206">
        <ele>1167.7</ele>
        <time>2021-08-28T08:47:50Z</time>
      </trkpt>
      <trkpt lat="45.64834" lon="6.0205">
        <ele>1167.7</ele>
        <time>2021-08-28T08:47:51Z</time>
      </trkpt>
      <trkpt lat="45.64831" lon="6.02045">
        <ele>1167.7</ele>
        <time>2021-08-28T08:47:53Z</time>
      </trkpt>
      <trkpt lat="45.64826" lon="6.02035">
        <ele>1167.7</ele>
        <time>2021-08-28T08:47:54Z</time>
      </trkpt>
      <trkpt lat="45.64822" lon="6.0203">
        <ele>1167.7</ele>
        <time>2021-08-28T08:47:56Z</time>
      </trkpt>
      <trkpt lat="45.64819" lon="6.02025">
        <ele>1167.7</ele>
        <time>2021-08-28T08:47:57Z</time>
      </trkpt>
      <trkpt lat="45.64825" lon="6.02023">
        <ele>1167.7</ele>
        <time>2021-08-28T08:47:58Z</time>
      </trkpt>
      <trkpt lat="45.64817" lon="6.02013">
        <ele>1167.7</ele>
        <time>2021-08-28T08:48:00Z</time>
      </trkpt>
      <trkpt lat="45.64812" lon="6.02006">
        <ele>1167.7</ele>
        <time>2021-08-28T08:48:01Z</time>
      </trkpt>
      <trkpt lat="45.64808" lon="6.02001">
        <ele>1167.7</ele>
        <time>2021-08-28T08:48:02Z</time>
      </trkpt>
      <trkpt lat="45.64802" lon="6.01991">
        <ele>1167.8</ele>
        <time>2021-08-28T08:48:03Z</time>
      </trkpt>
      <trkpt lat="45.648" lon="6.01987">
        <ele>1167.8</ele>
        <time>2021-08-28T08:48:05Z</time>
      </trkpt>
      <trkpt lat="45.64796" lon="6.01982">
        <ele>1167.8</ele>
        <time>2021-08-28T08:48:06Z</time>
      </trkpt>
      <trkpt lat="45.64792" lon="6.01972">
        <ele>1167.8</ele>
        <time>2021-08-28T08:48:08Z</time>
      </trkpt>
      <trkpt lat="45.64786" lon="6.01963">
        <ele>1167.8</ele>
        <time>2021-08-28T08:48:10Z</time>
      </trkpt>
      <trkpt lat="45.64783" lon="6.0196">
        <ele>1167.8</ele>
        <time>2021-08-28T08:48:11Z</time>
      </trkpt>
      <trkpt lat="45.6478" lon="6.01955">
        <ele>1167.9</ele>
        <time>2021-08-28T08:48:12Z</time>
      </trkpt>
      <trkpt lat="45.64776" lon="6.01946">
        <ele>1167.9</ele>
        <time>2021-08-28T08:48:14Z</time>
      </trkpt>
      <trkpt lat="45.64772" lon="6.01938">
        <ele>1167.9</ele>
        <time>2021-08-28T08:48:16Z</time>
      </trkpt>
      <trkpt lat="45.64769" lon="6.01931">
        <ele>1167.9</ele>
        <time>2021-08-28T08:48:18Z</time>
      </trkpt>
      <trkpt lat="45.64764" lon="6.01924">
        <ele>1167.9</ele>
        <time>2021-08-28T08:48:20Z</time>
      </trkpt>
      <trkpt lat="45.64764" lon="6.01924">
        <ele>1167.9</ele>
        <time>2021-08-28T08:48:21Z</time>
      </trkpt>
      <trkpt lat="45.64762" lon="6.0192">
        <ele>1167.9</ele>
        <time>2021-08-28T08:48:24Z</time>
      </trkpt>
      <trkpt lat="45.6476" lon="6.01916">
        <ele>1167.9</ele>
        <time>2021-08-28T08:48:26Z</time>
      </trkpt>
      <trkpt lat="45.64759" lon="6.01913">
        <ele>1167.9</ele>
        <time>2021-08-28T08:48:27Z</time>
      </trkpt>
      <trkpt lat="45.64762" lon="6.01918">
        <ele>1167.9</ele>
        <time>2021-08-28T08:48:30Z</time>
      </trkpt>
      <trkpt lat="45.64762" lon="6.01919">
        <ele>1167.9</ele>
        <time>2021-08-28T08:48:31Z</time>
      </trkpt>
      <trkpt lat="45.64763" lon="6.0192">
        <ele>1167.9</ele>
        <time>2021-08-28T08:48:32Z</time>
      </trkpt>
      <trkpt lat="45.64763" lon="6.0192">
        <ele>1167.9</ele>
        <time>2021-08-28T08:48:33Z</time>
      </trkpt>
      <trkpt lat="45.64763" lon="6.0192">
        <ele>1167.9</ele>
        <time>2021-08-28T08:48:34Z</time>
      </trkpt>
      <trkpt lat="45.64763" lon="6.0192">
        <ele>1167.9</ele>
        <time>2021-08-28T08:48:35Z</time>
      </trkpt>
      <trkpt lat="45.64763" lon="6.0192">
        <ele>1167.9</ele>
        <time>2021-08-28T08:48:36Z</time>
      </trkpt>
      <trkpt lat="45.64762" lon="6.0192">
        <ele>1167.9</ele>
        <time>2021-08-28T08:48:37Z</time>
      </trkpt>
      <trkpt lat="45.64762" lon="6.0192">
        <ele>1167.9</ele>
        <time>2021-08-28T08:48:38Z</time>
      </trkpt>
      <trkpt lat="45.64762" lon="6.0192">
        <ele>1167.9</ele>
        <time>2021-08-28T08:48:39Z</time>
      </trkpt>
      <trkpt lat="45.64762" lon="6.0192">
        <ele>1167.9</ele>
        <time>2021-08-28T08:48:41Z</time>
      </trkpt>
      <trkpt lat="45.64762" lon="6.0192">
        <ele>1167.9</ele>
        <time>2021-08-28T08:48:42Z</time>
      </trkpt>
      <trkpt lat="45.64762" lon="6.0192">
        <ele>1167.9</ele>
        <time>2021-08-28T08:48:43Z</time>
      </trkpt>
      <trkpt lat="45.64762" lon="6.0192">
        <ele>1167.9</ele>
        <time>2021-08-28T08:48:44Z</time>
      </trkpt>
      <trkpt lat="45.64762" lon="6.0192">
        <ele>1167.9</ele>
        <time>2021-08-28T08:48:45Z</time>
      </trkpt>
      <trkpt lat="45.64762" lon="6.0192">
        <ele>1167.9</ele>
        <time>2021-08-28T08:48:46Z</time>
      </trkpt>
      <trkpt lat="45.64762" lon="6.0192">
        <ele>1167.9</ele>
        <time>2021-08-28T08:48:47Z</time>
      </trkpt>
      <trkpt lat="45.64763" lon="6.0192">
        <ele>1167.9</ele>
        <time>2021-08-28T08:48:49Z</time>
      </trkpt>
      <trkpt lat="45.64761" lon="6.01922">
        <ele>1167.9</ele>
        <time>2021-08-28T08:51:42Z</time>
      </trkpt>
      <trkpt lat="45.6476" lon="6.01923">
        <ele>1167.9</ele>
        <time>2021-08-28T08:51:43Z</time>
      </trkpt>
      <trkpt lat="45.64759" lon="6.01924">
        <ele>1167.9</ele>
        <time>2021-08-28T08:51:44Z</time>
      </trkpt>
      <trkpt lat="45.64759" lon="6.01924">
        <ele>1167.9</ele>
        <time>2021-08-28T08:51:45Z</time>
      </trkpt>
      <trkpt lat="45.64759" lon="6.01924">
        <ele>1167.9</ele>
        <time>2021-08-28T08:51:46Z</time>
      </trkpt>
      <trkpt lat="45.64759" lon="6.01924">
        <ele>1167.9</ele>
        <time>2021-08-28T08:51:47Z</time>
      </trkpt>
      <trkpt lat="45.64759" lon="6.01924">
        <ele>1167.9</ele>
        <time>2021-08-28T08:51:48Z</time>
      </trkpt>
      <trkpt lat="45.64759" lon="6.01924">
        <ele>1167.9</ele>
        <time>2021-08-28T08:51:49Z</time>
      </trkpt>
      <trkpt lat="45.64759" lon="6.01924">
        <ele>1167.9</ele>
        <time>2021-08-28T08:51:50Z</time>
      </trkpt>
      <trkpt lat="45.64759" lon="6.01924">
        <ele>1167.9</ele>
        <time>2021-08-28T08:51:51Z</time>
      </trkpt>
      <trkpt lat="45.64759" lon="6.01925">
        <ele>1167.9</ele>
        <time>2021-08-28T08:51:52Z</time>
      </trkpt>
      <trkpt lat="45.64759" lon="6.01925">
        <ele>1167.9</ele>
        <time>2021-08-28T08:51:53Z</time>
      </trkpt>
      <trkpt lat="45.64759" lon="6.01925">
        <ele>1167.9</ele>
        <time>2021-08-28T08:51:54Z</time>
      </trkpt>
      <trkpt lat="45.64759" lon="6.01925">
        <ele>1167.9</ele>
        <time>2021-08-28T08:51:55Z</time>
      </trkpt>
      <trkpt lat="45.64759" lon="6.01926">
        <ele>1167.9</ele>
        <time>2021-08-28T08:51:56Z</time>
      </trkpt>
      <trkpt lat="45.64762" lon="6.0193">
        <ele>1167.9</ele>
        <time>2021-08-28T08:52:10Z</time>
      </trkpt>
      <trkpt lat="45.64763" lon="6.01931">
        <ele>1167.9</ele>
        <time>2021-08-28T08:52:12Z</time>
      </trkpt>
      <trkpt lat="45.64765" lon="6.01933">
        <ele>1167.9</ele>
        <time>2021-08-28T08:52:15Z</time>
      </trkpt>
      <trkpt lat="45.64767" lon="6.01935">
        <ele>1167.9</ele>
        <time>2021-08-28T08:52:18Z</time>
      </trkpt>
      <trkpt lat="45.64768" lon="6.01935">
        <ele>1167.9</ele>
        <time>2021-08-28T08:52:19Z</time>
      </trkpt>
      <trkpt lat="45.64768" lon="6.01935">
        <ele>1167.9</ele>
        <time>2021-08-28T08:52:20Z</time>
      </trkpt>
      <trkpt lat="45.64768" lon="6.01935">
        <ele>1167.9</ele>
        <time>2021-08-28T08:52:21Z</time>
      </trkpt>
      <trkpt lat="45.64768" lon="6.01935">
        <ele>1167.9</ele>
        <time>2021-08-28T08:52:22Z</time>
      </trkpt>
      <trkpt lat="45.64768" lon="6.01935">
        <ele>1167.9</ele>
        <time>2021-08-28T08:52:23Z</time>
      </trkpt>
      <trkpt lat="45.64769" lon="6.01935">
        <ele>1167.9</ele>
        <time>2021-08-28T08:52:24Z</time>
      </trkpt>
      <trkpt lat="45.64769" lon="6.01936">
        <ele>1167.9</ele>
        <time>2021-08-28T08:52:25Z</time>
      </trkpt>
      <trkpt lat="45.64769" lon="6.01936">
        <ele>1167.9</ele>
        <time>2021-08-28T08:52:26Z</time>
      </trkpt>
      <trkpt lat="45.64769" lon="6.01936">
        <ele>1167.9</ele>
        <time>2021-08-28T08:52:27Z</time>
      </trkpt>
      <trkpt lat="45.64769" lon="6.01935">
        <ele>1167.9</ele>
        <time>2021-08-28T08:52:28Z</time>
      </trkpt>
      <trkpt lat="45.64769" lon="6.01935">
        <ele>1167.9</ele>
        <time>2021-08-28T08:52:29Z</time>
      </trkpt>
      <trkpt lat="45.64769" lon="6.01935">
        <ele>1167.9</ele>
        <time>2021-08-28T08:52:30Z</time>
      </trkpt>
      <trkpt lat="45.64769" lon="6.01935">
        <ele>1167.9</ele>
        <time>2021-08-28T08:52:31Z</time>
      </trkpt>
      <trkpt lat="45.64769" lon="6.01935">
        <ele>1167.9</ele>
        <time>2021-08-28T08:52:32Z</time>
      </trkpt>
      <trkpt lat="45.64769" lon="6.01935">
        <ele>1167.9</ele>
        <time>2021-08-28T08:52:33Z</time>
      </trkpt>
      <trkpt lat="45.64769" lon="6.01936">
        <ele>1167.9</ele>
        <time>2021-08-28T08:52:34Z</time>
      </trkpt>
      <trkpt lat="45.64767" lon="6.01934">
        <ele>1167.9</ele>
        <time>2021-08-28T08:52:37Z</time>
      </trkpt>
      <trkpt lat="45.64767" lon="6.01933">
        <ele>1167.9</ele>
        <time>2021-08-28T08:52:38Z</time>
      </trkpt>
      <trkpt lat="45.64767" lon="6.0193">
        <ele>1167.9</ele>
        <time>2021-08-28T08:52:40Z</time>
      </trkpt>
      <trkpt lat="45.64766" lon="6.01927">
        <ele>1167.9</ele>
        <time>2021-08-28T08:52:42Z</time>
      </trkpt>
      <trkpt lat="45.64763" lon="6.01923">
        <ele>1168</ele>
        <time>2021-08-28T08:52:45Z</time>
      </trkpt>
      <trkpt lat="45.64762" lon="6.01922">
        <ele>1168</ele>
        <time>2021-08-28T08:52:46Z</time>
      </trkpt>
      <trkpt lat="45.64762" lon="6.01921">
        <ele>1168</ele>
        <time>2021-08-28T08:52:48Z</time>
      </trkpt>
      <trkpt lat="45.64762" lon="6.0192">
        <ele>1168</ele>
        <time>2021-08-28T08:52:49Z</time>
      </trkpt>
      <trkpt lat="45.64762" lon="6.0192">
        <ele>1168</ele>
        <time>2021-08-28T08:52:50Z</time>
      </trkpt>
      <trkpt lat="45.64761" lon="6.01919">
        <ele>1168</ele>
        <time>2021-08-28T08:52:53Z</time>
      </trkpt>
      <trkpt lat="45.64761" lon="6.01918">
        <ele>1168</ele>
        <time>2021-08-28T08:52:54Z</time>
      </trkpt>
      <trkpt lat="45.64761" lon="6.01918">
        <ele>1168</ele>
        <time>2021-08-28T08:52:56Z</time>
      </trkpt>
      <trkpt lat="45.64761" lon="6.01917">
        <ele>1168</ele>
        <time>2021-08-28T08:52:58Z</time>
      </trkpt>
      <trkpt lat="45.6476" lon="6.01916">
        <ele>1168</ele>
        <time>2021-08-28T08:52:59Z</time>
      </trkpt>
      <trkpt lat="45.6476" lon="6.01915">
        <ele>1168</ele>
        <time>2021-08-28T08:53:01Z</time>
      </trkpt>
      <trkpt lat="45.6476" lon="6.01915">
        <ele>1168</ele>
        <time>2021-08-28T08:53:04Z</time>
      </trkpt>
      <trkpt lat="45.6476" lon="6.01914">
        <ele>1168</ele>
        <time>2021-08-28T08:53:07Z</time>
      </trkpt>
      <trkpt lat="45.6476" lon="6.01913">
        <ele>1168</ele>
        <time>2021-08-28T08:53:08Z</time>
      </trkpt>
      <trkpt lat="45.64759" lon="6.01913">
        <ele>1168</ele>
        <time>2021-08-28T08:53:11Z</time>
      </trkpt>
      <trkpt lat="45.64759" lon="6.01912">
        <ele>1168</ele>
        <time>2021-08-28T08:53:11Z</time>
      </trkpt>
      <trkpt lat="45.64759" lon="6.01911">
        <ele>1168</ele>
        <time>2021-08-28T08:53:12Z</time>
      </trkpt>
      <trkpt lat="45.64759" lon="6.01911">
        <ele>1168</ele>
        <time>2021-08-28T08:53:13Z</time>
      </trkpt>
      <trkpt lat="45.64759" lon="6.01911">
        <ele>1168</ele>
        <time>2021-08-28T08:53:14Z</time>
      </trkpt>
      <trkpt lat="45.64758" lon="6.0191">
        <ele>1168</ele>
        <time>2021-08-28T08:53:15Z</time>
      </trkpt>
      <trkpt lat="45.64758" lon="6.0191">
        <ele>1168</ele>
        <time>2021-08-28T08:53:16Z</time>
      </trkpt>
      <trkpt lat="45.64758" lon="6.0191">
        <ele>1168</ele>
        <time>2021-08-28T08:53:17Z</time>
      </trkpt>
      <trkpt lat="45.64757" lon="6.01909">
        <ele>1168</ele>
        <time>2021-08-28T08:53:18Z</time>
      </trkpt>
      <trkpt lat="45.64757" lon="6.01909">
        <ele>1168</ele>
        <time>2021-08-28T08:53:19Z</time>
      </trkpt>
      <trkpt lat="45.64757" lon="6.01909">
        <ele>1168</ele>
        <time>2021-08-28T08:53:20Z</time>
      </trkpt>
      <trkpt lat="45.64756" lon="6.01908">
        <ele>1168</ele>
        <time>2021-08-28T08:53:21Z</time>
      </trkpt>
      <trkpt lat="45.64756" lon="6.01908">
        <ele>1168</ele>
        <time>2021-08-28T08:53:22Z</time>
      </trkpt>
      <trkpt lat="45.64756" lon="6.01908">
        <ele>1168</ele>
        <time>2021-08-28T08:53:23Z</time>
      </trkpt>
      <trkpt lat="45.64755" lon="6.01907">
        <ele>1168</ele>
        <time>2021-08-28T09:04:10Z</time>
      </trkpt>
      <trkpt lat="45.64755" lon="6.01907">
        <ele>1168</ele>
        <time>2021-08-28T09:04:11Z</time>
      </trkpt>
      <trkpt lat="45.64755" lon="6.01907">
        <ele>1168</ele>
        <time>2021-08-28T09:04:12Z</time>
      </trkpt>
      <trkpt lat="45.64754" lon="6.01906">
        <ele>1168</ele>
        <time>2021-08-28T09:04:13Z</time>
      </trkpt>
      <trkpt lat="45.64754" lon="6.01906">
        <ele>1168</ele>
        <time>2021-08-28T09:04:14Z</time>
      </trkpt>
      <trkpt lat="45.64754" lon="6.01906">
        <ele>1168</ele>
        <time>2021-08-28T09:04:17Z</time>
      </trkpt>
      <trkpt lat="45.64754" lon="6.01905">
        <ele>1168</ele>
        <time>2021-08-28T09:04:18Z</time>
      </trkpt>
      <trkpt lat="45.64751" lon="6.01901">
        <ele>1168</ele>
        <time>2021-08-28T09:04:19Z</time>
      </trkpt>
      <trkpt lat="45.6475" lon="6.01899">
        <ele>1167.9</ele>
        <time>2021-08-28T09:04:20Z</time>
      </trkpt>
      <trkpt lat="45.64745" lon="6.01891">
        <ele>1167.9</ele>
        <time>2021-08-28T09:04:22Z</time>
      </trkpt>
      <trkpt lat="45.64739" lon="6.0188">
        <ele>1167.7</ele>
        <time>2021-08-28T09:04:24Z</time>
      </trkpt>
      <trkpt lat="45.64737" lon="6.01874">
        <ele>1167.7</ele>
        <time>2021-08-28T09:04:25Z</time>
      </trkpt>
      <trkpt lat="45.64733" lon="6.01869">
        <ele>1167.6</ele>
        <time>2021-08-28T09:04:27Z</time>
      </trkpt>
      <trkpt lat="45.64729" lon="6.0186">
        <ele>1167.4</ele>
        <time>2021-08-28T09:04:29Z</time>
      </trkpt>
      <trkpt lat="45.64722" lon="6.01852">
        <ele>1167.3</ele>
        <time>2021-08-28T09:04:30Z</time>
      </trkpt>
      <trkpt lat="45.64719" lon="6.01845">
        <ele>1167.2</ele>
        <time>2021-08-28T09:04:32Z</time>
      </trkpt>
      <trkpt lat="45.64716" lon="6.01841">
        <ele>1167.1</ele>
        <time>2021-08-28T09:04:33Z</time>
      </trkpt>
      <trkpt lat="45.6471" lon="6.01831">
        <ele>1166.9</ele>
        <time>2021-08-28T09:04:36Z</time>
      </trkpt>
      <trkpt lat="45.64707" lon="6.01825">
        <ele>1166.8</ele>
        <time>2021-08-28T09:04:37Z</time>
      </trkpt>
      <trkpt lat="45.64703" lon="6.01818">
        <ele>1166.7</ele>
        <time>2021-08-28T09:04:38Z</time>
      </trkpt>
      <trkpt lat="45.647" lon="6.01812">
        <ele>1166.6</ele>
        <time>2021-08-28T09:04:39Z</time>
      </trkpt>
      <trkpt lat="45.64696" lon="6.01806">
        <ele>1166.5</ele>
        <time>2021-08-28T09:04:40Z</time>
      </trkpt>
      <trkpt lat="45.64692" lon="6.01799">
        <ele>1166.5</ele>
        <time>2021-08-28T09:04:41Z</time>
      </trkpt>
      <trkpt lat="45.64688" lon="6.01793">
        <ele>1166.5</ele>
        <time>2021-08-28T09:04:42Z</time>
      </trkpt>
      <trkpt lat="45.64684" lon="6.01787">
        <ele>1166.5</ele>
        <time>2021-08-28T09:04:43Z</time>
      </trkpt>
      <trkpt lat="45.6468" lon="6.01781">
        <ele>1166.5</ele>
        <time>2021-08-28T09:04:44Z</time>
      </trkpt>
      <trkpt lat="45.64676" lon="6.01775">
        <ele>1166.5</ele>
        <time>2021-08-28T09:04:45Z</time>
      </trkpt>
      <trkpt lat="45.64672" lon="6.01769">
        <ele>1166.5</ele>
        <time>2021-08-28T09:04:46Z</time>
      </trkpt>
      <trkpt lat="45.64668" lon="6.01764">
        <ele>1166.6</ele>
        <time>2021-08-28T09:04:47Z</time>
      </trkpt>
      <trkpt lat="45.64663" lon="6.01759">
        <ele>1166.6</ele>
        <time>2021-08-28T09:04:48Z</time>
      </trkpt>
      <trkpt lat="45.64659" lon="6.01754">
        <ele>1166.6</ele>
        <time>2021-08-28T09:04:49Z</time>
      </trkpt>
      <trkpt lat="45.64655" lon="6.01749">
        <ele>1166.7</ele>
        <time>2021-08-28T09:04:50Z</time>
      </trkpt>
      <trkpt lat="45.64651" lon="6.01744">
        <ele>1166.7</ele>
        <time>2021-08-28T09:04:51Z</time>
      </trkpt>
      <trkpt lat="45.64647" lon="6.01738">
        <ele>1166.7</ele>
        <time>2021-08-28T09:04:52Z</time>
      </trkpt>
      <trkpt lat="45.64643" lon="6.01733">
        <ele>1166.7</ele>
        <time>2021-08-28T09:04:53Z</time>
      </trkpt>
      <trkpt lat="45.64638" lon="6.01728">
        <ele>1166.7</ele>
        <time>2021-08-28T09:04:54Z</time>
      </trkpt>
      <trkpt lat="45.64633" lon="6.01724">
        <ele>1166.7</ele>
        <time>2021-08-28T09:04:55Z</time>
      </trkpt>
      <trkpt lat="45.64629" lon="6.01719">
        <ele>1166.7</ele>
        <time>2021-08-28T09:04:56Z</time>
      </trkpt>
      <trkpt lat="45.64625" lon="6.01714">
        <ele>1166.8</ele>
        <time>2021-08-28T09:04:57Z</time>
      </trkpt>
      <trkpt lat="45.6462" lon="6.01709">
        <ele>1166.8</ele>
        <time>2021-08-28T09:04:58Z</time>
      </trkpt>
      <trkpt lat="45.64616" lon="6.01704">
        <ele>1166.9</ele>
        <time>2021-08-28T09:04:59Z</time>
      </trkpt>
      <trkpt lat="45.64612" lon="6.017">
        <ele>1166.9</ele>
        <time>2021-08-28T09:05:00Z</time>
      </trkpt>
      <trkpt lat="45.64608" lon="6.01695">
        <ele>1166.9</ele>
        <time>2021-08-28T09:05:01Z</time>
      </trkpt>
      <trkpt lat="45.64604" lon="6.0169">
        <ele>1166.8</ele>
        <time>2021-08-28T09:05:02Z</time>
      </trkpt>
      <trkpt lat="45.646" lon="6.01685">
        <ele>1166.8</ele>
        <time>2021-08-28T09:05:03Z</time>
      </trkpt>
      <trkpt lat="45.64596" lon="6.01681">
        <ele>1166.8</ele>
        <time>2021-08-28T09:05:04Z</time>
      </trkpt>
      <trkpt lat="45.64591" lon="6.01676">
        <ele>1166.8</ele>
        <time>2021-08-28T09:05:05Z</time>
      </trkpt>
      <trkpt lat="45.64587" lon="6.01672">
        <ele>1166.8</ele>
        <time>2021-08-28T09:05:06Z</time>
      </trkpt>
      <trkpt lat="45.64583" lon="6.01667">
        <ele>1166.8</ele>
        <time>2021-08-28T09:05:07Z</time>
      </trkpt>
      <trkpt lat="45.64579" lon="6.01662">
        <ele>1166.7</ele>
        <time>2021-08-28T09:05:08Z</time>
      </trkpt>
      <trkpt lat="45.64575" lon="6.01658">
        <ele>1166.7</ele>
        <time>2021-08-28T09:05:09Z</time>
      </trkpt>
      <trkpt lat="45.64571" lon="6.01654">
        <ele>1166.7</ele>
        <time>2021-08-28T09:05:10Z</time>
      </trkpt>
      <trkpt lat="45.64567" lon="6.01649">
        <ele>1166.7</ele>
        <time>2021-08-28T09:05:11Z</time>
      </trkpt>
      <trkpt lat="45.64562" lon="6.01645">
        <ele>1166.7</ele>
        <time>2021-08-28T09:05:12Z</time>
      </trkpt>
      <trkpt lat="45.64558" lon="6.01641">
        <ele>1166.7</ele>
        <time>2021-08-28T09:05:13Z</time>
      </trkpt>
      <trkpt lat="45.64554" lon="6.01636">
        <ele>1166.6</ele>
        <time>2021-08-28T09:05:14Z</time>
      </trkpt>
      <trkpt lat="45.6455" lon="6.0163">
        <ele>1166.6</ele>
        <time>2021-08-28T09:05:15Z</time>
      </trkpt>
      <trkpt lat="45.64546" lon="6.01625">
        <ele>1166.5</ele>
        <time>2021-08-28T09:05:16Z</time>
      </trkpt>
      <trkpt lat="45.64541" lon="6.0162">
        <ele>1166.5</ele>
        <time>2021-08-28T09:05:17Z</time>
      </trkpt>
      <trkpt lat="45.64537" lon="6.01615">
        <ele>1166.4</ele>
        <time>2021-08-28T09:05:18Z</time>
      </trkpt>
      <trkpt lat="45.64532" lon="6.0161">
        <ele>1166.2</ele>
        <time>2021-08-28T09:05:19Z</time>
      </trkpt>
      <trkpt lat="45.64527" lon="6.01605">
        <ele>1166.1</ele>
        <time>2021-08-28T09:05:20Z</time>
      </trkpt>
      <trkpt lat="45.64523" lon="6.016">
        <ele>1165.9</ele>
        <time>2021-08-28T09:05:21Z</time>
      </trkpt>
      <trkpt lat="45.64518" lon="6.01595">
        <ele>1165.8</ele>
        <time>2021-08-28T09:05:22Z</time>
      </trkpt>
      <trkpt lat="45.64513" lon="6.0159">
        <ele>1165.6</ele>
        <time>2021-08-28T09:05:23Z</time>
      </trkpt>
      <trkpt lat="45.64507" lon="6.01585">
        <ele>1165.4</ele>
        <time>2021-08-28T09:05:24Z</time>
      </trkpt>
      <trkpt lat="45.64501" lon="6.01581">
        <ele>1165.2</ele>
        <time>2021-08-28T09:05:25Z</time>
      </trkpt>
      <trkpt lat="45.64496" lon="6.01577">
        <ele>1165</ele>
        <time>2021-08-28T09:05:26Z</time>
      </trkpt>
      <trkpt lat="45.6449" lon="6.01572">
        <ele>1164.8</ele>
        <time>2021-08-28T09:05:27Z</time>
      </trkpt>
      <trkpt lat="45.64484" lon="6.01566">
        <ele>1164.7</ele>
        <time>2021-08-28T09:05:28Z</time>
      </trkpt>
      <trkpt lat="45.64479" lon="6.0156">
        <ele>1164.5</ele>
        <time>2021-08-28T09:05:29Z</time>
      </trkpt>
      <trkpt lat="45.64473" lon="6.01553">
        <ele>1164.4</ele>
        <time>2021-08-28T09:05:30Z</time>
      </trkpt>
      <trkpt lat="45.64469" lon="6.01546">
        <ele>1164.3</ele>
        <time>2021-08-28T09:05:31Z</time>
      </trkpt>
      <trkpt lat="45.64466" lon="6.01536">
        <ele>1164.3</ele>
        <time>2021-08-28T09:05:32Z</time>
      </trkpt>
      <trkpt lat="45.64464" lon="6.01526">
        <ele>1164.2</ele>
        <time>2021-08-28T09:05:33Z</time>
      </trkpt>
      <trkpt lat="45.64461" lon="6.01518">
        <ele>1164.2</ele>
        <time>2021-08-28T09:05:34Z</time>
      </trkpt>
      <trkpt lat="45.64457" lon="6.01512">
        <ele>1164</ele>
        <time>2021-08-28T09:05:35Z</time>
      </trkpt>
      <trkpt lat="45.64451" lon="6.01509">
        <ele>1163.7</ele>
        <time>2021-08-28T09:05:36Z</time>
      </trkpt>
      <trkpt lat="45.64446" lon="6.01506">
        <ele>1163.4</ele>
        <time>2021-08-28T09:05:37Z</time>
      </trkpt>
      <trkpt lat="45.6444" lon="6.01502">
        <ele>1163.1</ele>
        <time>2021-08-28T09:05:38Z</time>
      </trkpt>
      <trkpt lat="45.64434" lon="6.01498">
        <ele>1162.8</ele>
        <time>2021-08-28T09:05:39Z</time>
      </trkpt>
      <trkpt lat="45.64429" lon="6.01493">
        <ele>1162.5</ele>
        <time>2021-08-28T09:05:40Z</time>
      </trkpt>
      <trkpt lat="45.64424" lon="6.01489">
        <ele>1162.2</ele>
        <time>2021-08-28T09:05:41Z</time>
      </trkpt>
      <trkpt lat="45.64418" lon="6.01484">
        <ele>1161.9</ele>
        <time>2021-08-28T09:05:42Z</time>
      </trkpt>
      <trkpt lat="45.64412" lon="6.0148">
        <ele>1161.6</ele>
        <time>2021-08-28T09:05:43Z</time>
      </trkpt>
      <trkpt lat="45.64406" lon="6.01475">
        <ele>1161.2</ele>
        <time>2021-08-28T09:05:44Z</time>
      </trkpt>
      <trkpt lat="45.644" lon="6.0147">
        <ele>1160.7</ele>
        <time>2021-08-28T09:05:45Z</time>
      </trkpt>
      <trkpt lat="45.64393" lon="6.01466">
        <ele>1160.2</ele>
        <time>2021-08-28T09:05:46Z</time>
      </trkpt>
      <trkpt lat="45.64386" lon="6.01462">
        <ele>1159.7</ele>
        <time>2021-08-28T09:05:47Z</time>
      </trkpt>
      <trkpt lat="45.64378" lon="6.01459">
        <ele>1159</ele>
        <time>2021-08-28T09:05:48Z</time>
      </trkpt>
      <trkpt lat="45.6437" lon="6.01455">
        <ele>1158.3</ele>
        <time>2021-08-28T09:05:49Z</time>
      </trkpt>
      <trkpt lat="45.64362" lon="6.01452">
        <ele>1157.5</ele>
        <time>2021-08-28T09:05:50Z</time>
      </trkpt>
      <trkpt lat="45.64353" lon="6.01449">
        <ele>1156.7</ele>
        <time>2021-08-28T09:05:51Z</time>
      </trkpt>
      <trkpt lat="45.64343" lon="6.01446">
        <ele>1155.9</ele>
        <time>2021-08-28T09:05:52Z</time>
      </trkpt>
      <trkpt lat="45.64334" lon="6.01443">
        <ele>1155.1</ele>
        <time>2021-08-28T09:05:53Z</time>
      </trkpt>
      <trkpt lat="45.64324" lon="6.01439">
        <ele>1154.2</ele>
        <time>2021-08-28T09:05:54Z</time>
      </trkpt>
      <trkpt lat="45.64314" lon="6.01436">
        <ele>1153.3</ele>
        <time>2021-08-28T09:05:55Z</time>
      </trkpt>
      <trkpt lat="45.64303" lon="6.01431">
        <ele>1152.4</ele>
        <time>2021-08-28T09:05:56Z</time>
      </trkpt>
      <trkpt lat="45.64293" lon="6.01425">
        <ele>1151.4</ele>
        <time>2021-08-28T09:05:57Z</time>
      </trkpt>
      <trkpt lat="45.64283" lon="6.01418">
        <ele>1150.3</ele>
        <time>2021-08-28T09:05:58Z</time>
      </trkpt>
      <trkpt lat="45.64273" lon="6.0141">
        <ele>1149.2</ele>
        <time>2021-08-28T09:05:59Z</time>
      </trkpt>
      <trkpt lat="45.64263" lon="6.01402">
        <ele>1148.2</ele>
        <time>2021-08-28T09:06:00Z</time>
      </trkpt>
      <trkpt lat="45.64252" lon="6.01394">
        <ele>1147</ele>
        <time>2021-08-28T09:06:01Z</time>
      </trkpt>
      <trkpt lat="45.64242" lon="6.01386">
        <ele>1147.7</ele>
        <time>2021-08-28T09:06:02Z</time>
      </trkpt>
      <trkpt lat="45.64231" lon="6.01377">
        <ele>1146.6</ele>
        <time>2021-08-28T09:06:03Z</time>
      </trkpt>
      <trkpt lat="45.6422" lon="6.01369">
        <ele>1145.3</ele>
        <time>2021-08-28T09:06:04Z</time>
      </trkpt>
      <trkpt lat="45.64208" lon="6.01361">
        <ele>1144</ele>
        <time>2021-08-28T09:06:05Z</time>
      </trkpt>
      <trkpt lat="45.64197" lon="6.01354">
        <ele>1142.7</ele>
        <time>2021-08-28T09:06:06Z</time>
      </trkpt>
      <trkpt lat="45.64186" lon="6.01346">
        <ele>1141.5</ele>
        <time>2021-08-28T09:06:07Z</time>
      </trkpt>
      <trkpt lat="45.64174" lon="6.01338">
        <ele>1140.2</ele>
        <time>2021-08-28T09:06:08Z</time>
      </trkpt>
      <trkpt lat="45.64162" lon="6.01329">
        <ele>1139</ele>
        <time>2021-08-28T09:06:09Z</time>
      </trkpt>
      <trkpt lat="45.6415" lon="6.01321">
        <ele>1137.7</ele>
        <time>2021-08-28T09:06:10Z</time>
      </trkpt>
      <trkpt lat="45.64138" lon="6.01314">
        <ele>1136.5</ele>
        <time>2021-08-28T09:06:11Z</time>
      </trkpt>
      <trkpt lat="45.64126" lon="6.01309">
        <ele>1135.3</ele>
        <time>2021-08-28T09:06:12Z</time>
      </trkpt>
      <trkpt lat="45.64113" lon="6.01306">
        <ele>1134</ele>
        <time>2021-08-28T09:06:13Z</time>
      </trkpt>
      <trkpt lat="45.64099" lon="6.01304">
        <ele>1132.7</ele>
        <time>2021-08-28T09:06:14Z</time>
      </trkpt>
      <trkpt lat="45.64086" lon="6.01301">
        <ele>1131.4</ele>
        <time>2021-08-28T09:06:15Z</time>
      </trkpt>
      <trkpt lat="45.64072" lon="6.01299">
        <ele>1130</ele>
        <time>2021-08-28T09:06:16Z</time>
      </trkpt>
      <trkpt lat="45.64059" lon="6.01295">
        <ele>1128.7</ele>
        <time>2021-08-28T09:06:17Z</time>
      </trkpt>
      <trkpt lat="45.64046" lon="6.01289">
        <ele>1127.4</ele>
        <time>2021-08-28T09:06:18Z</time>
      </trkpt>
      <trkpt lat="45.64035" lon="6.01281">
        <ele>1126</ele>
        <time>2021-08-28T09:06:19Z</time>
      </trkpt>
      <trkpt lat="45.64024" lon="6.0127">
        <ele>1124.5</ele>
        <time>2021-08-28T09:06:20Z</time>
      </trkpt>
      <trkpt lat="45.64015" lon="6.01256">
        <ele>1123</ele>
        <time>2021-08-28T09:06:21Z</time>
      </trkpt>
      <trkpt lat="45.64005" lon="6.01241">
        <ele>1121.6</ele>
        <time>2021-08-28T09:06:22Z</time>
      </trkpt>
      <trkpt lat="45.63995" lon="6.01228">
        <ele>1120.2</ele>
        <time>2021-08-28T09:06:23Z</time>
      </trkpt>
      <trkpt lat="45.63985" lon="6.01216">
        <ele>1118.9</ele>
        <time>2021-08-28T09:06:24Z</time>
      </trkpt>
      <trkpt lat="45.63973" lon="6.01206">
        <ele>1117.6</ele>
        <time>2021-08-28T09:06:25Z</time>
      </trkpt>
      <trkpt lat="45.63961" lon="6.01198">
        <ele>1116.3</ele>
        <time>2021-08-28T09:06:26Z</time>
      </trkpt>
      <trkpt lat="45.63948" lon="6.01191">
        <ele>1115</ele>
        <time>2021-08-28T09:06:27Z</time>
      </trkpt>
      <trkpt lat="45.63936" lon="6.01183">
        <ele>1113.8</ele>
        <time>2021-08-28T09:06:28Z</time>
      </trkpt>
      <trkpt lat="45.63923" lon="6.01175">
        <ele>1112.6</ele>
        <time>2021-08-28T09:06:29Z</time>
      </trkpt>
      <trkpt lat="45.63911" lon="6.01166">
        <ele>1111.4</ele>
        <time>2021-08-28T09:06:30Z</time>
      </trkpt>
      <trkpt lat="45.639" lon="6.01156">
        <ele>1110.2</ele>
        <time>2021-08-28T09:06:31Z</time>
      </trkpt>
      <trkpt lat="45.63888" lon="6.01147">
        <ele>1109.1</ele>
        <time>2021-08-28T09:06:32Z</time>
      </trkpt>
      <trkpt lat="45.63876" lon="6.01138">
        <ele>1108.1</ele>
        <time>2021-08-28T09:06:33Z</time>
      </trkpt>
      <trkpt lat="45.63864" lon="6.01129">
        <ele>1107.8</ele>
        <time>2021-08-28T09:06:34Z</time>
      </trkpt>
      <trkpt lat="45.63852" lon="6.01121">
        <ele>1107</ele>
        <time>2021-08-28T09:06:35Z</time>
      </trkpt>
      <trkpt lat="45.6384" lon="6.01113">
        <ele>1105.8</ele>
        <time>2021-08-28T09:06:36Z</time>
      </trkpt>
      <trkpt lat="45.63828" lon="6.01105">
        <ele>1104.7</ele>
        <time>2021-08-28T09:06:37Z</time>
      </trkpt>
      <trkpt lat="45.63816" lon="6.01098">
        <ele>1103.7</ele>
        <time>2021-08-28T09:06:38Z</time>
      </trkpt>
      <trkpt lat="45.63805" lon="6.01089">
        <ele>1102.6</ele>
        <time>2021-08-28T09:06:39Z</time>
      </trkpt>
      <trkpt lat="45.63794" lon="6.01081">
        <ele>1101.7</ele>
        <time>2021-08-28T09:06:40Z</time>
      </trkpt>
      <trkpt lat="45.63783" lon="6.01072">
        <ele>1100.7</ele>
        <time>2021-08-28T09:06:41Z</time>
      </trkpt>
      <trkpt lat="45.63773" lon="6.01063">
        <ele>1099.8</ele>
        <time>2021-08-28T09:06:42Z</time>
      </trkpt>
      <trkpt lat="45.63762" lon="6.01054">
        <ele>1098.9</ele>
        <time>2021-08-28T09:06:43Z</time>
      </trkpt>
      <trkpt lat="45.63752" lon="6.01045">
        <ele>1097.9</ele>
        <time>2021-08-28T09:06:44Z</time>
      </trkpt>
      <trkpt lat="45.63741" lon="6.01036">
        <ele>1096.9</ele>
        <time>2021-08-28T09:06:45Z</time>
      </trkpt>
      <trkpt lat="45.6373" lon="6.01027">
        <ele>1095.8</ele>
        <time>2021-08-28T09:06:46Z</time>
      </trkpt>
      <trkpt lat="45.63719" lon="6.01017">
        <ele>1094.9</ele>
        <time>2021-08-28T09:06:47Z</time>
      </trkpt>
      <trkpt lat="45.63709" lon="6.01008">
        <ele>1094</ele>
        <time>2021-08-28T09:06:48Z</time>
      </trkpt>
      <trkpt lat="45.63698" lon="6.00999">
        <ele>1093</ele>
        <time>2021-08-28T09:06:49Z</time>
      </trkpt>
      <trkpt lat="45.63687" lon="6.0099">
        <ele>1091.9</ele>
        <time>2021-08-28T09:06:50Z</time>
      </trkpt>
      <trkpt lat="45.63676" lon="6.00981">
        <ele>1090.9</ele>
        <time>2021-08-28T09:06:51Z</time>
      </trkpt>
      <trkpt lat="45.63664" lon="6.00972">
        <ele>1090</ele>
        <time>2021-08-28T09:06:52Z</time>
      </trkpt>
      <trkpt lat="45.63653" lon="6.00964">
        <ele>1089</ele>
        <time>2021-08-28T09:06:53Z</time>
      </trkpt>
      <trkpt lat="45.63641" lon="6.00955">
        <ele>1088</ele>
        <time>2021-08-28T09:06:54Z</time>
      </trkpt>
      <trkpt lat="45.63629" lon="6.00947">
        <ele>1087</ele>
        <time>2021-08-28T09:06:55Z</time>
      </trkpt>
      <trkpt lat="45.63617" lon="6.0094">
        <ele>1085.9</ele>
        <time>2021-08-28T09:06:56Z</time>
      </trkpt>
      <trkpt lat="45.63605" lon="6.00933">
        <ele>1084.8</ele>
        <time>2021-08-28T09:06:57Z</time>
      </trkpt>
      <trkpt lat="45.63593" lon="6.00925">
        <ele>1083.8</ele>
        <time>2021-08-28T09:06:58Z</time>
      </trkpt>
      <trkpt lat="45.63582" lon="6.00915">
        <ele>1082.8</ele>
        <time>2021-08-28T09:06:59Z</time>
      </trkpt>
      <trkpt lat="45.63572" lon="6.00904">
        <ele>1081.8</ele>
        <time>2021-08-28T09:07:00Z</time>
      </trkpt>
      <trkpt lat="45.63562" lon="6.00892">
        <ele>1080.8</ele>
        <time>2021-08-28T09:07:01Z</time>
      </trkpt>
      <trkpt lat="45.63552" lon="6.0088">
        <ele>1079.8</ele>
        <time>2021-08-28T09:07:02Z</time>
      </trkpt>
      <trkpt lat="45.63543" lon="6.00868">
        <ele>1078.9</ele>
        <time>2021-08-28T09:07:03Z</time>
      </trkpt>
      <trkpt lat="45.63533" lon="6.00858">
        <ele>1078.1</ele>
        <time>2021-08-28T09:07:04Z</time>
      </trkpt>
      <trkpt lat="45.63522" lon="6.0085">
        <ele>1077.4</ele>
        <time>2021-08-28T09:07:05Z</time>
      </trkpt>
      <trkpt lat="45.63511" lon="6.00843">
        <ele>1076.8</ele>
        <time>2021-08-28T09:07:06Z</time>
      </trkpt>
      <trkpt lat="45.635" lon="6.00837">
        <ele>1076.1</ele>
        <time>2021-08-28T09:07:07Z</time>
      </trkpt>
      <trkpt lat="45.63489" lon="6.00831">
        <ele>1075.6</ele>
        <time>2021-08-28T09:07:08Z</time>
      </trkpt>
      <trkpt lat="45.63478" lon="6.00823">
        <ele>1075.3</ele>
        <time>2021-08-28T09:07:09Z</time>
      </trkpt>
      <trkpt lat="45.63468" lon="6.00815">
        <ele>1075</ele>
        <time>2021-08-28T09:07:10Z</time>
      </trkpt>
      <trkpt lat="45.63459" lon="6.00806">
        <ele>1075</ele>
        <time>2021-08-28T09:07:11Z</time>
      </trkpt>
      <trkpt lat="45.6345" lon="6.00795">
        <ele>1075</ele>
        <time>2021-08-28T09:07:12Z</time>
      </trkpt>
      <trkpt lat="45.63443" lon="6.00787">
        <ele>1075</ele>
        <time>2021-08-28T09:07:13Z</time>
      </trkpt>
      <trkpt lat="45.63436" lon="6.00781">
        <ele>1075</ele>
        <time>2021-08-28T09:07:14Z</time>
      </trkpt>
      <trkpt lat="45.63428" lon="6.00781">
        <ele>1074.8</ele>
        <time>2021-08-28T09:07:15Z</time>
      </trkpt>
      <trkpt lat="45.63422" lon="6.00787">
        <ele>1074.4</ele>
        <time>2021-08-28T09:07:16Z</time>
      </trkpt>
      <trkpt lat="45.63418" lon="6.00799">
        <ele>1073.8</ele>
        <time>2021-08-28T09:07:17Z</time>
      </trkpt>
      <trkpt lat="45.63419" lon="6.00813">
        <ele>1072.8</ele>
        <time>2021-08-28T09:07:18Z</time>
      </trkpt>
      <trkpt lat="45.63424" lon="6.00825">
        <ele>1071.8</ele>
        <time>2021-08-28T09:07:19Z</time>
      </trkpt>
      <trkpt lat="45.6343" lon="6.00834">
        <ele>1070.7</ele>
        <time>2021-08-28T09:07:20Z</time>
      </trkpt>
      <trkpt lat="45.63438" lon="6.00843">
        <ele>1069.7</ele>
        <time>2021-08-28T09:07:21Z</time>
      </trkpt>
      <trkpt lat="45.63445" lon="6.00851">
        <ele>1068.8</ele>
        <time>2021-08-28T09:07:22Z</time>
      </trkpt>
      <trkpt lat="45.63452" lon="6.00859">
        <ele>1068</ele>
        <time>2021-08-28T09:07:23Z</time>
      </trkpt>
      <trkpt lat="45.63459" lon="6.00869">
        <ele>1067.2</ele>
        <time>2021-08-28T09:07:24Z</time>
      </trkpt>
      <trkpt lat="45.63465" lon="6.00878">
        <ele>1066.5</ele>
        <time>2021-08-28T09:07:25Z</time>
      </trkpt>
      <trkpt lat="45.6347" lon="6.00889">
        <ele>1065.8</ele>
        <time>2021-08-28T09:07:26Z</time>
      </trkpt>
      <trkpt lat="45.63476" lon="6.009">
        <ele>1065.2</ele>
        <time>2021-08-28T09:07:27Z</time>
      </trkpt>
      <trkpt lat="45.63481" lon="6.00911">
        <ele>1064.6</ele>
        <time>2021-08-28T09:07:28Z</time>
      </trkpt>
      <trkpt lat="45.63486" lon="6.00922">
        <ele>1063.9</ele>
        <time>2021-08-28T09:07:29Z</time>
      </trkpt>
      <trkpt lat="45.6349" lon="6.00934">
        <ele>1063.3</ele>
        <time>2021-08-28T09:07:30Z</time>
      </trkpt>
      <trkpt lat="45.63495" lon="6.00945">
        <ele>1062.7</ele>
        <time>2021-08-28T09:07:31Z</time>
      </trkpt>
      <trkpt lat="45.63499" lon="6.00956">
        <ele>1062.2</ele>
        <time>2021-08-28T09:07:32Z</time>
      </trkpt>
      <trkpt lat="45.63504" lon="6.00967">
        <ele>1061.7</ele>
        <time>2021-08-28T09:07:33Z</time>
      </trkpt>
      <trkpt lat="45.63509" lon="6.00977">
        <ele>1061.2</ele>
        <time>2021-08-28T09:07:34Z</time>
      </trkpt>
      <trkpt lat="45.63515" lon="6.00987">
        <ele>1060.8</ele>
        <time>2021-08-28T09:07:35Z</time>
      </trkpt>
      <trkpt lat="45.63521" lon="6.00996">
        <ele>1060.4</ele>
        <time>2021-08-28T09:07:36Z</time>
      </trkpt>
      <trkpt lat="45.63528" lon="6.01005">
        <ele>1060.1</ele>
        <time>2021-08-28T09:07:37Z</time>
      </trkpt>
      <trkpt lat="45.63535" lon="6.01013">
        <ele>1059.9</ele>
        <time>2021-08-28T09:07:38Z</time>
      </trkpt>
      <trkpt lat="45.63543" lon="6.01019">
        <ele>1059.8</ele>
        <time>2021-08-28T09:07:39Z</time>
      </trkpt>
      <trkpt lat="45.63551" lon="6.01025">
        <ele>1059.9</ele>
        <time>2021-08-28T09:07:40Z</time>
      </trkpt>
      <trkpt lat="45.63558" lon="6.01032">
        <ele>1059.9</ele>
        <time>2021-08-28T09:07:41Z</time>
      </trkpt>
      <trkpt lat="45.63562" lon="6.01042">
        <ele>1059.9</ele>
        <time>2021-08-28T09:07:42Z</time>
      </trkpt>
      <trkpt lat="45.63561" lon="6.01054">
        <ele>1059.7</ele>
        <time>2021-08-28T09:07:43Z</time>
      </trkpt>
      <trkpt lat="45.63555" lon="6.01065">
        <ele>1059.2</ele>
        <time>2021-08-28T09:07:44Z</time>
      </trkpt>
      <trkpt lat="45.63545" lon="6.0107">
        <ele>1058.2</ele>
        <time>2021-08-28T09:07:45Z</time>
      </trkpt>
      <trkpt lat="45.63535" lon="6.01067">
        <ele>1057</ele>
        <time>2021-08-28T09:07:46Z</time>
      </trkpt>
      <trkpt lat="45.63525" lon="6.0106">
        <ele>1055.8</ele>
        <time>2021-08-28T09:07:47Z</time>
      </trkpt>
      <trkpt lat="45.63518" lon="6.01051">
        <ele>1054.7</ele>
        <time>2021-08-28T09:07:48Z</time>
      </trkpt>
      <trkpt lat="45.6351" lon="6.01041">
        <ele>1053.6</ele>
        <time>2021-08-28T09:07:49Z</time>
      </trkpt>
      <trkpt lat="45.63501" lon="6.01033">
        <ele>1052.5</ele>
        <time>2021-08-28T09:07:50Z</time>
      </trkpt>
      <trkpt lat="45.63492" lon="6.01024">
        <ele>1051.4</ele>
        <time>2021-08-28T09:07:51Z</time>
      </trkpt>
      <trkpt lat="45.63482" lon="6.01016">
        <ele>1050.3</ele>
        <time>2021-08-28T09:07:52Z</time>
      </trkpt>
      <trkpt lat="45.63472" lon="6.01008">
        <ele>1049.2</ele>
        <time>2021-08-28T09:07:53Z</time>
      </trkpt>
      <trkpt lat="45.63462" lon="6.01">
        <ele>1048</ele>
        <time>2021-08-28T09:07:54Z</time>
      </trkpt>
      <trkpt lat="45.63451" lon="6.00991">
        <ele>1047</ele>
        <time>2021-08-28T09:07:55Z</time>
      </trkpt>
      <trkpt lat="45.63441" lon="6.00982">
        <ele>1045.9</ele>
        <time>2021-08-28T09:07:56Z</time>
      </trkpt>
      <trkpt lat="45.63431" lon="6.00973">
        <ele>1044.8</ele>
        <time>2021-08-28T09:07:57Z</time>
      </trkpt>
      <trkpt lat="45.63421" lon="6.00964">
        <ele>1043.7</ele>
        <time>2021-08-28T09:07:58Z</time>
      </trkpt>
      <trkpt lat="45.6341" lon="6.00955">
        <ele>1042.7</ele>
        <time>2021-08-28T09:07:59Z</time>
      </trkpt>
      <trkpt lat="45.63399" lon="6.00948">
        <ele>1041.7</ele>
        <time>2021-08-28T09:08:00Z</time>
      </trkpt>
      <trkpt lat="45.63387" lon="6.00942">
        <ele>1040.7</ele>
        <time>2021-08-28T09:08:01Z</time>
      </trkpt>
      <trkpt lat="45.63375" lon="6.00938">
        <ele>1039.7</ele>
        <time>2021-08-28T09:08:02Z</time>
      </trkpt>
      <trkpt lat="45.63363" lon="6.00935">
        <ele>1038.6</ele>
        <time>2021-08-28T09:08:03Z</time>
      </trkpt>
      <trkpt lat="45.6335" lon="6.00932">
        <ele>1037.6</ele>
        <time>2021-08-28T09:08:04Z</time>
      </trkpt>
      <trkpt lat="45.63338" lon="6.00929">
        <ele>1036.8</ele>
        <time>2021-08-28T09:08:05Z</time>
      </trkpt>
      <trkpt lat="45.63326" lon="6.00926">
        <ele>1036.1</ele>
        <time>2021-08-28T09:08:06Z</time>
      </trkpt>
      <trkpt lat="45.63314" lon="6.00921">
        <ele>1035.4</ele>
        <time>2021-08-28T09:08:07Z</time>
      </trkpt>
      <trkpt lat="45.63303" lon="6.00915">
        <ele>1034.7</ele>
        <time>2021-08-28T09:08:08Z</time>
      </trkpt>
      <trkpt lat="45.63294" lon="6.00907">
        <ele>1034</ele>
        <time>2021-08-28T09:08:09Z</time>
      </trkpt>
      <trkpt lat="45.63286" lon="6.00896">
        <ele>1033.2</ele>
        <time>2021-08-28T09:08:10Z</time>
      </trkpt>
      <trkpt lat="45.63281" lon="6.00881">
        <ele>1032.1</ele>
        <time>2021-08-28T09:08:11Z</time>
      </trkpt>
      <trkpt lat="45.63279" lon="6.00865">
        <ele>1030.9</ele>
        <time>2021-08-28T09:08:12Z</time>
      </trkpt>
      <trkpt lat="45.63276" lon="6.00848">
        <ele>1029.7</ele>
        <time>2021-08-28T09:08:13Z</time>
      </trkpt>
      <trkpt lat="45.63272" lon="6.00832">
        <ele>1028.5</ele>
        <time>2021-08-28T09:08:14Z</time>
      </trkpt>
      <trkpt lat="45.63266" lon="6.00818">
        <ele>1027.4</ele>
        <time>2021-08-28T09:08:15Z</time>
      </trkpt>
      <trkpt lat="45.63257" lon="6.00806">
        <ele>1026.3</ele>
        <time>2021-08-28T09:08:16Z</time>
      </trkpt>
      <trkpt lat="45.63246" lon="6.00795">
        <ele>1025.2</ele>
        <time>2021-08-28T09:08:17Z</time>
      </trkpt>
      <trkpt lat="45.63236" lon="6.00786">
        <ele>1024</ele>
        <time>2021-08-28T09:08:18Z</time>
      </trkpt>
      <trkpt lat="45.63225" lon="6.00778">
        <ele>1022.8</ele>
        <time>2021-08-28T09:08:19Z</time>
      </trkpt>
      <trkpt lat="45.63213" lon="6.00774">
        <ele>1021.7</ele>
        <time>2021-08-28T09:08:20Z</time>
      </trkpt>
      <trkpt lat="45.63201" lon="6.00773">
        <ele>1020.6</ele>
        <time>2021-08-28T09:08:21Z</time>
      </trkpt>
      <trkpt lat="45.63188" lon="6.00775">
        <ele>1019.5</ele>
        <time>2021-08-28T09:08:22Z</time>
      </trkpt>
      <trkpt lat="45.63176" lon="6.00775">
        <ele>1018.4</ele>
        <time>2021-08-28T09:08:23Z</time>
      </trkpt>
      <trkpt lat="45.63164" lon="6.00772">
        <ele>1017.4</ele>
        <time>2021-08-28T09:08:24Z</time>
      </trkpt>
      <trkpt lat="45.63152" lon="6.00767">
        <ele>1016.4</ele>
        <time>2021-08-28T09:08:25Z</time>
      </trkpt>
      <trkpt lat="45.6314" lon="6.00761">
        <ele>1015.5</ele>
        <time>2021-08-28T09:08:26Z</time>
      </trkpt>
      <trkpt lat="45.63129" lon="6.00755">
        <ele>1014.5</ele>
        <time>2021-08-28T09:08:27Z</time>
      </trkpt>
      <trkpt lat="45.63117" lon="6.00749">
        <ele>1013.5</ele>
        <time>2021-08-28T09:08:28Z</time>
      </trkpt>
      <trkpt lat="45.63105" lon="6.00743">
        <ele>1012.7</ele>
        <time>2021-08-28T09:08:29Z</time>
      </trkpt>
      <trkpt lat="45.63093" lon="6.00738">
        <ele>1011.8</ele>
        <time>2021-08-28T09:08:30Z</time>
      </trkpt>
      <trkpt lat="45.63081" lon="6.00732">
        <ele>1011.1</ele>
        <time>2021-08-28T09:08:31Z</time>
      </trkpt>
      <trkpt lat="45.6307" lon="6.00725">
        <ele>1010.4</ele>
        <time>2021-08-28T09:08:32Z</time>
      </trkpt>
      <trkpt lat="45.6306" lon="6.00715">
        <ele>1009.6</ele>
        <time>2021-08-28T09:08:33Z</time>
      </trkpt>
      <trkpt lat="45.63051" lon="6.00702">
        <ele>1008.8</ele>
        <time>2021-08-28T09:08:34Z</time>
      </trkpt>
      <trkpt lat="45.63044" lon="6.00687">
        <ele>1008.1</ele>
        <time>2021-08-28T09:08:35Z</time>
      </trkpt>
      <trkpt lat="45.63038" lon="6.00672">
        <ele>1007.3</ele>
        <time>2021-08-28T09:08:36Z</time>
      </trkpt>
      <trkpt lat="45.6303" lon="6.00659">
        <ele>1006.4</ele>
        <time>2021-08-28T09:08:37Z</time>
      </trkpt>
      <trkpt lat="45.63021" lon="6.00651">
        <ele>1005.5</ele>
        <time>2021-08-28T09:08:38Z</time>
      </trkpt>
      <trkpt lat="45.63009" lon="6.00649">
        <ele>1004.5</ele>
        <time>2021-08-28T09:08:39Z</time>
      </trkpt>
      <trkpt lat="45.62998" lon="6.00651">
        <ele>1003.4</ele>
        <time>2021-08-28T09:08:40Z</time>
      </trkpt>
      <trkpt lat="45.62986" lon="6.00656">
        <ele>1002.2</ele>
        <time>2021-08-28T09:08:41Z</time>
      </trkpt>
      <trkpt lat="45.62974" lon="6.00662">
        <ele>1001.1</ele>
        <time>2021-08-28T09:08:42Z</time>
      </trkpt>
      <trkpt lat="45.62963" lon="6.00668">
        <ele>1000</ele>
        <time>2021-08-28T09:08:43Z</time>
      </trkpt>
      <trkpt lat="45.62951" lon="6.00674">
        <ele>998.9</ele>
        <time>2021-08-28T09:08:44Z</time>
      </trkpt>
      <trkpt lat="45.6294" lon="6.0068">
        <ele>997.8</ele>
        <time>2021-08-28T09:08:45Z</time>
      </trkpt>
      <trkpt lat="45.62928" lon="6.00686">
        <ele>996.8</ele>
        <time>2021-08-28T09:08:46Z</time>
      </trkpt>
      <trkpt lat="45.62916" lon="6.00692">
        <ele>995.9</ele>
        <time>2021-08-28T09:08:47Z</time>
      </trkpt>
      <trkpt lat="45.62905" lon="6.00699">
        <ele>995</ele>
        <time>2021-08-28T09:08:48Z</time>
      </trkpt>
      <trkpt lat="45.62893" lon="6.00705">
        <ele>994.2</ele>
        <time>2021-08-28T09:08:49Z</time>
      </trkpt>
      <trkpt lat="45.62881" lon="6.00708">
        <ele>993.4</ele>
        <time>2021-08-28T09:08:50Z</time>
      </trkpt>
      <trkpt lat="45.6287" lon="6.00705">
        <ele>992.4</ele>
        <time>2021-08-28T09:08:51Z</time>
      </trkpt>
      <trkpt lat="45.62859" lon="6.00697">
        <ele>991.4</ele>
        <time>2021-08-28T09:08:52Z</time>
      </trkpt>
      <trkpt lat="45.6285" lon="6.00684">
        <ele>990.2</ele>
        <time>2021-08-28T09:08:53Z</time>
      </trkpt>
      <trkpt lat="45.62842" lon="6.00671">
        <ele>989.2</ele>
        <time>2021-08-28T09:08:54Z</time>
      </trkpt>
      <trkpt lat="45.62832" lon="6.00661">
        <ele>988.2</ele>
        <time>2021-08-28T09:08:55Z</time>
      </trkpt>
      <trkpt lat="45.62821" lon="6.00658">
        <ele>987.2</ele>
        <time>2021-08-28T09:08:56Z</time>
      </trkpt>
      <trkpt lat="45.6281" lon="6.00662">
        <ele>986.2</ele>
        <time>2021-08-28T09:08:57Z</time>
      </trkpt>
      <trkpt lat="45.628" lon="6.00672">
        <ele>985.1</ele>
        <time>2021-08-28T09:08:58Z</time>
      </trkpt>
      <trkpt lat="45.62792" lon="6.00685">
        <ele>983.9</ele>
        <time>2021-08-28T09:08:59Z</time>
      </trkpt>
      <trkpt lat="45.62786" lon="6.00699">
        <ele>982.8</ele>
        <time>2021-08-28T09:09:00Z</time>
      </trkpt>
      <trkpt lat="45.62779" lon="6.00712">
        <ele>981.8</ele>
        <time>2021-08-28T09:09:01Z</time>
      </trkpt>
      <trkpt lat="45.6277" lon="6.00723">
        <ele>980.7</ele>
        <time>2021-08-28T09:09:02Z</time>
      </trkpt>
      <trkpt lat="45.6276" lon="6.00731">
        <ele>979.5</ele>
        <time>2021-08-28T09:09:03Z</time>
      </trkpt>
      <trkpt lat="45.62747" lon="6.00734">
        <ele>978.2</ele>
        <time>2021-08-28T09:09:04Z</time>
      </trkpt>
      <trkpt lat="45.62735" lon="6.00735">
        <ele>976.9</ele>
        <time>2021-08-28T09:09:05Z</time>
      </trkpt>
      <trkpt lat="45.62722" lon="6.00735">
        <ele>975.7</ele>
        <time>2021-08-28T09:09:06Z</time>
      </trkpt>
      <trkpt lat="45.6271" lon="6.00736">
        <ele>974.5</ele>
        <time>2021-08-28T09:09:07Z</time>
      </trkpt>
      <trkpt lat="45.62698" lon="6.00737">
        <ele>973.4</ele>
        <time>2021-08-28T09:09:08Z</time>
      </trkpt>
      <trkpt lat="45.62685" lon="6.00738">
        <ele>972.4</ele>
        <time>2021-08-28T09:09:09Z</time>
      </trkpt>
      <trkpt lat="45.62673" lon="6.0074">
        <ele>971.3</ele>
        <time>2021-08-28T09:09:10Z</time>
      </trkpt>
      <trkpt lat="45.62661" lon="6.00742">
        <ele>970.3</ele>
        <time>2021-08-28T09:09:11Z</time>
      </trkpt>
      <trkpt lat="45.62649" lon="6.00743">
        <ele>969.4</ele>
        <time>2021-08-28T09:09:12Z</time>
      </trkpt>
      <trkpt lat="45.62638" lon="6.00744">
        <ele>968.6</ele>
        <time>2021-08-28T09:09:13Z</time>
      </trkpt>
      <trkpt lat="45.62627" lon="6.00745">
        <ele>967.9</ele>
        <time>2021-08-28T09:09:14Z</time>
      </trkpt>
      <trkpt lat="45.62615" lon="6.00746">
        <ele>967.3</ele>
        <time>2021-08-28T09:09:15Z</time>
      </trkpt>
      <trkpt lat="45.62604" lon="6.00747">
        <ele>966.5</ele>
        <time>2021-08-28T09:09:16Z</time>
      </trkpt>
      <trkpt lat="45.62592" lon="6.00747">
        <ele>965.7</ele>
        <time>2021-08-28T09:09:17Z</time>
      </trkpt>
      <trkpt lat="45.62581" lon="6.00744">
        <ele>964.7</ele>
        <time>2021-08-28T09:09:18Z</time>
      </trkpt>
      <trkpt lat="45.62572" lon="6.00737">
        <ele>963.5</ele>
        <time>2021-08-28T09:09:19Z</time>
      </trkpt>
      <trkpt lat="45.62563" lon="6.00727">
        <ele>962.3</ele>
        <time>2021-08-28T09:09:20Z</time>
      </trkpt>
      <trkpt lat="45.62554" lon="6.00715">
        <ele>961.1</ele>
        <time>2021-08-28T09:09:21Z</time>
      </trkpt>
      <trkpt lat="45.62545" lon="6.00704">
        <ele>959.9</ele>
        <time>2021-08-28T09:09:22Z</time>
      </trkpt>
      <trkpt lat="45.62535" lon="6.00696">
        <ele>958.7</ele>
        <time>2021-08-28T09:09:23Z</time>
      </trkpt>
      <trkpt lat="45.62524" lon="6.0069">
        <ele>957.5</ele>
        <time>2021-08-28T09:09:24Z</time>
      </trkpt>
      <trkpt lat="45.62512" lon="6.00689">
        <ele>956.2</ele>
        <time>2021-08-28T09:09:25Z</time>
      </trkpt>
      <trkpt lat="45.625" lon="6.00691">
        <ele>955</ele>
        <time>2021-08-28T09:09:26Z</time>
      </trkpt>
      <trkpt lat="45.62488" lon="6.00693">
        <ele>953.8</ele>
        <time>2021-08-28T09:09:27Z</time>
      </trkpt>
      <trkpt lat="45.62476" lon="6.00696">
        <ele>952.6</ele>
        <time>2021-08-28T09:09:28Z</time>
      </trkpt>
      <trkpt lat="45.62464" lon="6.00698">
        <ele>951.5</ele>
        <time>2021-08-28T09:09:29Z</time>
      </trkpt>
      <trkpt lat="45.62453" lon="6.00702">
        <ele>950.4</ele>
        <time>2021-08-28T09:09:30Z</time>
      </trkpt>
      <trkpt lat="45.62441" lon="6.00707">
        <ele>949.4</ele>
        <time>2021-08-28T09:09:31Z</time>
      </trkpt>
      <trkpt lat="45.62429" lon="6.00713">
        <ele>948.5</ele>
        <time>2021-08-28T09:09:32Z</time>
      </trkpt>
      <trkpt lat="45.62418" lon="6.0072">
        <ele>947.7</ele>
        <time>2021-08-28T09:09:33Z</time>
      </trkpt>
      <trkpt lat="45.62406" lon="6.00725">
        <ele>947</ele>
        <time>2021-08-28T09:09:34Z</time>
      </trkpt>
      <trkpt lat="45.62394" lon="6.00729">
        <ele>946.3</ele>
        <time>2021-08-28T09:09:35Z</time>
      </trkpt>
      <trkpt lat="45.62382" lon="6.00731">
        <ele>945.5</ele>
        <time>2021-08-28T09:09:36Z</time>
      </trkpt>
      <trkpt lat="45.62371" lon="6.00729">
        <ele>944.5</ele>
        <time>2021-08-28T09:09:37Z</time>
      </trkpt>
      <trkpt lat="45.6236" lon="6.00722">
        <ele>943.3</ele>
        <time>2021-08-28T09:09:38Z</time>
      </trkpt>
      <trkpt lat="45.62351" lon="6.00711">
        <ele>941.9</ele>
        <time>2021-08-28T09:09:39Z</time>
      </trkpt>
      <trkpt lat="45.62342" lon="6.00701">
        <ele>940.6</ele>
        <time>2021-08-28T09:09:40Z</time>
      </trkpt>
      <trkpt lat="45.62332" lon="6.00693">
        <ele>939.5</ele>
        <time>2021-08-28T09:09:41Z</time>
      </trkpt>
      <trkpt lat="45.62322" lon="6.0069">
        <ele>938.3</ele>
        <time>2021-08-28T09:09:42Z</time>
      </trkpt>
      <trkpt lat="45.62311" lon="6.0069">
        <ele>937</ele>
        <time>2021-08-28T09:09:43Z</time>
      </trkpt>
      <trkpt lat="45.623" lon="6.00695">
        <ele>935.6</ele>
        <time>2021-08-28T09:09:44Z</time>
      </trkpt>
      <trkpt lat="45.6229" lon="6.00701">
        <ele>934.3</ele>
        <time>2021-08-28T09:09:45Z</time>
      </trkpt>
      <trkpt lat="45.62279" lon="6.00708">
        <ele>933</ele>
        <time>2021-08-28T09:09:46Z</time>
      </trkpt>
      <trkpt lat="45.62268" lon="6.00714">
        <ele>931.8</ele>
        <time>2021-08-28T09:09:47Z</time>
      </trkpt>
      <trkpt lat="45.62257" lon="6.0072">
        <ele>930.7</ele>
        <time>2021-08-28T09:09:48Z</time>
      </trkpt>
      <trkpt lat="45.62246" lon="6.00727">
        <ele>929.7</ele>
        <time>2021-08-28T09:09:49Z</time>
      </trkpt>
      <trkpt lat="45.62234" lon="6.00732">
        <ele>928.7</ele>
        <time>2021-08-28T09:09:50Z</time>
      </trkpt>
      <trkpt lat="45.62222" lon="6.00737">
        <ele>927.7</ele>
        <time>2021-08-28T09:09:51Z</time>
      </trkpt>
      <trkpt lat="45.6221" lon="6.00739">
        <ele>926.8</ele>
        <time>2021-08-28T09:09:52Z</time>
      </trkpt>
      <trkpt lat="45.62198" lon="6.00741">
        <ele>925.8</ele>
        <time>2021-08-28T09:09:53Z</time>
      </trkpt>
      <trkpt lat="45.62186" lon="6.00744">
        <ele>924.9</ele>
        <time>2021-08-28T09:09:54Z</time>
      </trkpt>
      <trkpt lat="45.62174" lon="6.00749">
        <ele>924</ele>
        <time>2021-08-28T09:09:55Z</time>
      </trkpt>
      <trkpt lat="45.62163" lon="6.00757">
        <ele>923.2</ele>
        <time>2021-08-28T09:09:56Z</time>
      </trkpt>
      <trkpt lat="45.62152" lon="6.00766">
        <ele>922.5</ele>
        <time>2021-08-28T09:09:57Z</time>
      </trkpt>
      <trkpt lat="45.62142" lon="6.00773">
        <ele>922</ele>
        <time>2021-08-28T09:09:58Z</time>
      </trkpt>
      <trkpt lat="45.62134" lon="6.00779">
        <ele>921.4</ele>
        <time>2021-08-28T09:09:59Z</time>
      </trkpt>
      <trkpt lat="45.62125" lon="6.00785">
        <ele>920.9</ele>
        <time>2021-08-28T09:10:00Z</time>
      </trkpt>
      <trkpt lat="45.62117" lon="6.00791">
        <ele>920.3</ele>
        <time>2021-08-28T09:10:01Z</time>
      </trkpt>
      <trkpt lat="45.6211" lon="6.008">
        <ele>919.7</ele>
        <time>2021-08-28T09:10:02Z</time>
      </trkpt>
      <trkpt lat="45.62106" lon="6.00812">
        <ele>919.1</ele>
        <time>2021-08-28T09:10:03Z</time>
      </trkpt>
      <trkpt lat="45.62103" lon="6.00824">
        <ele>918.5</ele>
        <time>2021-08-28T09:10:04Z</time>
      </trkpt>
      <trkpt lat="45.62104" lon="6.00837">
        <ele>917.9</ele>
        <time>2021-08-28T09:10:05Z</time>
      </trkpt>
      <trkpt lat="45.62107" lon="6.0085">
        <ele>917.3</ele>
        <time>2021-08-28T09:10:06Z</time>
      </trkpt>
      <trkpt lat="45.62112" lon="6.00862">
        <ele>916.7</ele>
        <time>2021-08-28T09:10:07Z</time>
      </trkpt>
      <trkpt lat="45.62117" lon="6.00873">
        <ele>916.2</ele>
        <time>2021-08-28T09:10:08Z</time>
      </trkpt>
      <trkpt lat="45.62121" lon="6.00884">
        <ele>915.7</ele>
        <time>2021-08-28T09:10:09Z</time>
      </trkpt>
      <trkpt lat="45.62125" lon="6.00895">
        <ele>915.3</ele>
        <time>2021-08-28T09:10:10Z</time>
      </trkpt>
      <trkpt lat="45.62126" lon="6.00906">
        <ele>914.9</ele>
        <time>2021-08-28T09:10:11Z</time>
      </trkpt>
      <trkpt lat="45.62124" lon="6.00915">
        <ele>914.4</ele>
        <time>2021-08-28T09:10:12Z</time>
      </trkpt>
      <trkpt lat="45.62118" lon="6.00923">
        <ele>914</ele>
        <time>2021-08-28T09:10:13Z</time>
      </trkpt>
      <trkpt lat="45.62112" lon="6.00929">
        <ele>913.5</ele>
        <time>2021-08-28T09:10:14Z</time>
      </trkpt>
      <trkpt lat="45.62106" lon="6.00934">
        <ele>913.2</ele>
        <time>2021-08-28T09:10:15Z</time>
      </trkpt>
      <trkpt lat="45.62102" lon="6.00938">
        <ele>913</ele>
        <time>2021-08-28T09:10:16Z</time>
      </trkpt>
      <trkpt lat="45.62099" lon="6.00942">
        <ele>912.8</ele>
        <time>2021-08-28T09:10:17Z</time>
      </trkpt>
      <trkpt lat="45.62096" lon="6.00946">
        <ele>912.6</ele>
        <time>2021-08-28T09:10:18Z</time>
      </trkpt>
      <trkpt lat="45.62094" lon="6.0095">
        <ele>912.4</ele>
        <time>2021-08-28T09:10:19Z</time>
      </trkpt>
      <trkpt lat="45.62093" lon="6.00956">
        <ele>914.7</ele>
        <time>2021-08-28T09:10:20Z</time>
      </trkpt>
      <trkpt lat="45.62093" lon="6.00963">
        <ele>916.8</ele>
        <time>2021-08-28T09:10:21Z</time>
      </trkpt>
      <trkpt lat="45.62094" lon="6.00968">
        <ele>917</ele>
        <time>2021-08-28T09:10:22Z</time>
      </trkpt>
      <trkpt lat="45.62095" lon="6.00972">
        <ele>917.1</ele>
        <time>2021-08-28T09:10:23Z</time>
      </trkpt>
      <trkpt lat="45.62097" lon="6.00976">
        <ele>917.2</ele>
        <time>2021-08-28T09:10:24Z</time>
      </trkpt>
      <trkpt lat="45.62098" lon="6.00978">
        <ele>917.2</ele>
        <time>2021-08-28T09:10:25Z</time>
      </trkpt>
      <trkpt lat="45.62099" lon="6.00982">
        <ele>917.2</ele>
        <time>2021-08-28T09:10:26Z</time>
      </trkpt>
      <trkpt lat="45.621" lon="6.00983">
        <ele>917.2</ele>
        <time>2021-08-28T09:10:27Z</time>
      </trkpt>
      <trkpt lat="45.62103" lon="6.00981">
        <ele>917.2</ele>
        <time>2021-08-28T09:10:28Z</time>
      </trkpt>
      <trkpt lat="45.62103" lon="6.00979">
        <ele>917.2</ele>
        <time>2021-08-28T09:10:29Z</time>
      </trkpt>
      <trkpt lat="45.62101" lon="6.00974">
        <ele>917.3</ele>
        <time>2021-08-28T09:10:30Z</time>
      </trkpt>
      <trkpt lat="45.621" lon="6.00973">
        <ele>917.3</ele>
        <time>2021-08-28T09:10:31Z</time>
      </trkpt>
      <trkpt lat="45.62098" lon="6.00969">
        <ele>916.8</ele>
        <time>2021-08-28T09:10:32Z</time>
      </trkpt>
      <trkpt lat="45.62097" lon="6.00967">
        <ele>916.8</ele>
        <time>2021-08-28T09:10:33Z</time>
      </trkpt>
      <trkpt lat="45.62094" lon="6.00963">
        <ele>916.8</ele>
        <time>2021-08-28T09:10:34Z</time>
      </trkpt>
      <trkpt lat="45.62093" lon="6.00961">
        <ele>916.8</ele>
        <time>2021-08-28T09:10:35Z</time>
      </trkpt>
      <trkpt lat="45.62093" lon="6.00957">
        <ele>912.1</ele>
        <time>2021-08-28T09:10:36Z</time>
      </trkpt>
      <trkpt lat="45.62094" lon="6.00955">
        <ele>912.1</ele>
        <time>2021-08-28T09:10:37Z</time>
      </trkpt>
      <trkpt lat="45.62093" lon="6.00952">
        <ele>912.1</ele>
        <time>2021-08-28T09:10:38Z</time>
      </trkpt>
      <trkpt lat="45.62093" lon="6.00952">
        <ele>912.1</ele>
        <time>2021-08-28T09:10:41Z</time>
      </trkpt>
      <trkpt lat="45.62093" lon="6.00952">
        <ele>912.1</ele>
        <time>2021-08-28T09:10:42Z</time>
      </trkpt>
      <trkpt lat="45.62093" lon="6.00952">
        <ele>912.1</ele>
        <time>2021-08-28T09:10:43Z</time>
      </trkpt>
      <trkpt lat="45.62092" lon="6.00952">
        <ele>912.1</ele>
        <time>2021-08-28T09:10:44Z</time>
      </trkpt>
      <trkpt lat="45.62092" lon="6.00952">
        <ele>912.1</ele>
        <time>2021-08-28T09:10:45Z</time>
      </trkpt>
      <trkpt lat="45.62092" lon="6.00952">
        <ele>912.1</ele>
        <time>2021-08-28T09:10:46Z</time>
      </trkpt>
      <trkpt lat="45.62091" lon="6.00952">
        <ele>912.1</ele>
        <time>2021-08-28T09:10:47Z</time>
      </trkpt>
      <trkpt lat="45.62091" lon="6.00952">
        <ele>912.1</ele>
        <time>2021-08-28T09:10:48Z</time>
      </trkpt>
      <trkpt lat="45.62091" lon="6.00952">
        <ele>912.1</ele>
        <time>2021-08-28T09:11:31Z</time>
      </trkpt>
      <trkpt lat="45.62091" lon="6.00952">
        <ele>912</ele>
        <time>2021-08-28T09:11:32Z</time>
      </trkpt>
      <trkpt lat="45.6209" lon="6.00952">
        <ele>912</ele>
        <time>2021-08-28T09:11:33Z</time>
      </trkpt>
      <trkpt lat="45.6209" lon="6.00952">
        <ele>912</ele>
        <time>2021-08-28T09:11:34Z</time>
      </trkpt>
      <trkpt lat="45.6209" lon="6.00952">
        <ele>912</ele>
        <time>2021-08-28T09:11:35Z</time>
      </trkpt>
      <trkpt lat="45.6209" lon="6.00952">
        <ele>912</ele>
        <time>2021-08-28T09:11:36Z</time>
      </trkpt>
      <trkpt lat="45.62089" lon="6.00952">
        <ele>912</ele>
        <time>2021-08-28T09:11:37Z</time>
      </trkpt>
      <trkpt lat="45.62089" lon="6.00953">
        <ele>912</ele>
        <time>2021-08-28T09:11:38Z</time>
      </trkpt>
      <trkpt lat="45.62089" lon="6.00953">
        <ele>912</ele>
        <time>2021-08-28T09:11:39Z</time>
      </trkpt>
      <trkpt lat="45.62088" lon="6.00953">
        <ele>912</ele>
        <time>2021-08-28T09:11:41Z</time>
      </trkpt>
      <trkpt lat="45.62088" lon="6.00953">
        <ele>912</ele>
        <time>2021-08-28T09:11:42Z</time>
      </trkpt>
      <trkpt lat="45.62088" lon="6.00953">
        <ele>912</ele>
        <time>2021-08-28T09:12:38Z</time>
      </trkpt>
      <trkpt lat="45.62088" lon="6.00953">
        <ele>912</ele>
        <time>2021-08-28T09:12:39Z</time>
      </trkpt>
      <trkpt lat="45.62087" lon="6.00953">
        <ele>912</ele>
        <time>2021-08-28T09:12:40Z</time>
      </trkpt>
      <trkpt lat="45.62085" lon="6.0096">
        <ele>911.9</ele>
        <time>2021-08-28T09:12:41Z</time>
      </trkpt>
      <trkpt lat="45.62078" lon="6.00962">
        <ele>911.8</ele>
        <time>2021-08-28T09:12:43Z</time>
      </trkpt>
      <trkpt lat="45.62068" lon="6.00963">
        <ele>911.7</ele>
        <time>2021-08-28T09:12:44Z</time>
      </trkpt>
      <trkpt lat="45.6206" lon="6.00963">
        <ele>911.4</ele>
        <time>2021-08-28T09:12:45Z</time>
      </trkpt>
      <trkpt lat="45.62053" lon="6.00964">
        <ele>911</ele>
        <time>2021-08-28T09:12:48Z</time>
      </trkpt>
      <trkpt lat="45.62047" lon="6.00964">
        <ele>910.8</ele>
        <time>2021-08-28T09:12:49Z</time>
      </trkpt>
      <trkpt lat="45.62041" lon="6.00965">
        <ele>910.6</ele>
        <time>2021-08-28T09:12:50Z</time>
      </trkpt>
      <trkpt lat="45.62035" lon="6.00966">
        <ele>910.3</ele>
        <time>2021-08-28T09:12:51Z</time>
      </trkpt>
      <trkpt lat="45.62029" lon="6.00967">
        <ele>910.1</ele>
        <time>2021-08-28T09:12:52Z</time>
      </trkpt>
      <trkpt lat="45.62023" lon="6.00968">
        <ele>909.8</ele>
        <time>2021-08-28T09:12:53Z</time>
      </trkpt>
      <trkpt lat="45.62016" lon="6.00969">
        <ele>909.6</ele>
        <time>2021-08-28T09:12:54Z</time>
      </trkpt>
      <trkpt lat="45.6201" lon="6.00971">
        <ele>909.3</ele>
        <time>2021-08-28T09:12:55Z</time>
      </trkpt>
      <trkpt lat="45.62003" lon="6.00973">
        <ele>909</ele>
        <time>2021-08-28T09:12:56Z</time>
      </trkpt>
      <trkpt lat="45.61996" lon="6.00975">
        <ele>908.6</ele>
        <time>2021-08-28T09:12:57Z</time>
      </trkpt>
      <trkpt lat="45.6199" lon="6.00978">
        <ele>908.3</ele>
        <time>2021-08-28T09:12:58Z</time>
      </trkpt>
      <trkpt lat="45.61983" lon="6.00983">
        <ele>908</ele>
        <time>2021-08-28T09:12:59Z</time>
      </trkpt>
      <trkpt lat="45.61978" lon="6.00991">
        <ele>907.7</ele>
        <time>2021-08-28T09:13:00Z</time>
      </trkpt>
      <trkpt lat="45.61973" lon="6.00999">
        <ele>907.4</ele>
        <time>2021-08-28T09:13:01Z</time>
      </trkpt>
      <trkpt lat="45.61968" lon="6.01009">
        <ele>907.2</ele>
        <time>2021-08-28T09:13:02Z</time>
      </trkpt>
      <trkpt lat="45.61965" lon="6.0102">
        <ele>906.9</ele>
        <time>2021-08-28T09:13:03Z</time>
      </trkpt>
      <trkpt lat="45.61962" lon="6.01032">
        <ele>906.7</ele>
        <time>2021-08-28T09:13:04Z</time>
      </trkpt>
      <trkpt lat="45.6196" lon="6.01043">
        <ele>906.5</ele>
        <time>2021-08-28T09:13:05Z</time>
      </trkpt>
      <trkpt lat="45.61959" lon="6.01055">
        <ele>906.3</ele>
        <time>2021-08-28T09:13:06Z</time>
      </trkpt>
      <trkpt lat="45.61957" lon="6.01066">
        <ele>906.2</ele>
        <time>2021-08-28T09:13:07Z</time>
      </trkpt>
      <trkpt lat="45.61955" lon="6.01077">
        <ele>906.1</ele>
        <time>2021-08-28T09:13:08Z</time>
      </trkpt>
      <trkpt lat="45.61952" lon="6.01087">
        <ele>906</ele>
        <time>2021-08-28T09:13:09Z</time>
      </trkpt>
      <trkpt lat="45.61949" lon="6.01096">
        <ele>905.8</ele>
        <time>2021-08-28T09:13:10Z</time>
      </trkpt>
      <trkpt lat="45.61945" lon="6.01105">
        <ele>905.7</ele>
        <time>2021-08-28T09:13:11Z</time>
      </trkpt>
      <trkpt lat="45.61942" lon="6.01114">
        <ele>905.6</ele>
        <time>2021-08-28T09:13:12Z</time>
      </trkpt>
      <trkpt lat="45.61939" lon="6.01122">
        <ele>905.5</ele>
        <time>2021-08-28T09:13:13Z</time>
      </trkpt>
      <trkpt lat="45.61937" lon="6.01132">
        <ele>905.4</ele>
        <time>2021-08-28T09:13:14Z</time>
      </trkpt>
      <trkpt lat="45.61935" lon="6.01141">
        <ele>905.4</ele>
        <time>2021-08-28T09:13:15Z</time>
      </trkpt>
      <trkpt lat="45.61933" lon="6.0115">
        <ele>905.3</ele>
        <time>2021-08-28T09:13:16Z</time>
      </trkpt>
      <trkpt lat="45.61933" lon="6.0116">
        <ele>905.2</ele>
        <time>2021-08-28T09:13:17Z</time>
      </trkpt>
      <trkpt lat="45.61932" lon="6.01169">
        <ele>905.1</ele>
        <time>2021-08-28T09:13:18Z</time>
      </trkpt>
      <trkpt lat="45.61931" lon="6.01178">
        <ele>905</ele>
        <time>2021-08-28T09:13:19Z</time>
      </trkpt>
      <trkpt lat="45.61929" lon="6.01187">
        <ele>904.9</ele>
        <time>2021-08-28T09:13:20Z</time>
      </trkpt>
      <trkpt lat="45.61926" lon="6.01196">
        <ele>904.8</ele>
        <time>2021-08-28T09:13:21Z</time>
      </trkpt>
      <trkpt lat="45.61923" lon="6.01204">
        <ele>904.7</ele>
        <time>2021-08-28T09:13:22Z</time>
      </trkpt>
      <trkpt lat="45.6192" lon="6.01212">
        <ele>904.5</ele>
        <time>2021-08-28T09:13:23Z</time>
      </trkpt>
      <trkpt lat="45.61916" lon="6.0122">
        <ele>904.4</ele>
        <time>2021-08-28T09:13:24Z</time>
      </trkpt>
      <trkpt lat="45.61911" lon="6.01227">
        <ele>904.2</ele>
        <time>2021-08-28T09:13:25Z</time>
      </trkpt>
      <trkpt lat="45.61907" lon="6.01234">
        <ele>904.1</ele>
        <time>2021-08-28T09:13:26Z</time>
      </trkpt>
      <trkpt lat="45.61903" lon="6.01241">
        <ele>904</ele>
        <time>2021-08-28T09:13:27Z</time>
      </trkpt>
      <trkpt lat="45.61898" lon="6.01247">
        <ele>903.8</ele>
        <time>2021-08-28T09:13:28Z</time>
      </trkpt>
      <trkpt lat="45.61894" lon="6.01254">
        <ele>903.7</ele>
        <time>2021-08-28T09:13:29Z</time>
      </trkpt>
      <trkpt lat="45.61889" lon="6.0126">
        <ele>903.6</ele>
        <time>2021-08-28T09:13:30Z</time>
      </trkpt>
      <trkpt lat="45.61884" lon="6.01267">
        <ele>903.4</ele>
        <time>2021-08-28T09:13:31Z</time>
      </trkpt>
      <trkpt lat="45.61879" lon="6.01274">
        <ele>903.2</ele>
        <time>2021-08-28T09:13:32Z</time>
      </trkpt>
      <trkpt lat="45.61874" lon="6.01282">
        <ele>903.1</ele>
        <time>2021-08-28T09:13:33Z</time>
      </trkpt>
      <trkpt lat="45.61869" lon="6.01289">
        <ele>902.9</ele>
        <time>2021-08-28T09:13:34Z</time>
      </trkpt>
      <trkpt lat="45.61864" lon="6.01296">
        <ele>902.8</ele>
        <time>2021-08-28T09:13:35Z</time>
      </trkpt>
      <trkpt lat="45.61858" lon="6.01303">
        <ele>902.6</ele>
        <time>2021-08-28T09:13:36Z</time>
      </trkpt>
      <trkpt lat="45.61852" lon="6.0131">
        <ele>902.4</ele>
        <time>2021-08-28T09:13:37Z</time>
      </trkpt>
      <trkpt lat="45.61846" lon="6.01317">
        <ele>902.2</ele>
        <time>2021-08-28T09:13:38Z</time>
      </trkpt>
      <trkpt lat="45.6184" lon="6.01323">
        <ele>902.1</ele>
        <time>2021-08-28T09:13:39Z</time>
      </trkpt>
      <trkpt lat="45.61834" lon="6.01329">
        <ele>901.9</ele>
        <time>2021-08-28T09:13:40Z</time>
      </trkpt>
      <trkpt lat="45.61828" lon="6.01335">
        <ele>901.8</ele>
        <time>2021-08-28T09:13:41Z</time>
      </trkpt>
      <trkpt lat="45.61821" lon="6.01341">
        <ele>901.7</ele>
        <time>2021-08-28T09:13:42Z</time>
      </trkpt>
      <trkpt lat="45.61815" lon="6.01346">
        <ele>901.5</ele>
        <time>2021-08-28T09:13:43Z</time>
      </trkpt>
      <trkpt lat="45.61808" lon="6.01351">
        <ele>901.4</ele>
        <time>2021-08-28T09:13:44Z</time>
      </trkpt>
      <trkpt lat="45.61801" lon="6.01356">
        <ele>901.3</ele>
        <time>2021-08-28T09:13:45Z</time>
      </trkpt>
      <trkpt lat="45.61794" lon="6.01361">
        <ele>901.2</ele>
        <time>2021-08-28T09:13:46Z</time>
      </trkpt>
      <trkpt lat="45.61787" lon="6.01365">
        <ele>901.1</ele>
        <time>2021-08-28T09:13:47Z</time>
      </trkpt>
      <trkpt lat="45.6178" lon="6.01369">
        <ele>900.9</ele>
        <time>2021-08-28T09:13:48Z</time>
      </trkpt>
      <trkpt lat="45.61773" lon="6.01373">
        <ele>900.8</ele>
        <time>2021-08-28T09:13:49Z</time>
      </trkpt>
      <trkpt lat="45.61766" lon="6.01377">
        <ele>900.7</ele>
        <time>2021-08-28T09:13:50Z</time>
      </trkpt>
      <trkpt lat="45.61759" lon="6.0138">
        <ele>900.5</ele>
        <time>2021-08-28T09:13:51Z</time>
      </trkpt>
      <trkpt lat="45.61751" lon="6.01383">
        <ele>900.4</ele>
        <time>2021-08-28T09:13:52Z</time>
      </trkpt>
      <trkpt lat="45.61744" lon="6.01385">
        <ele>900.2</ele>
        <time>2021-08-28T09:13:53Z</time>
      </trkpt>
      <trkpt lat="45.61738" lon="6.01387">
        <ele>900</ele>
        <time>2021-08-28T09:13:54Z</time>
      </trkpt>
      <trkpt lat="45.61731" lon="6.01388">
        <ele>899.9</ele>
        <time>2021-08-28T09:13:55Z</time>
      </trkpt>
      <trkpt lat="45.61724" lon="6.0139">
        <ele>899.7</ele>
        <time>2021-08-28T09:13:56Z</time>
      </trkpt>
      <trkpt lat="45.61717" lon="6.01392">
        <ele>899.4</ele>
        <time>2021-08-28T09:13:57Z</time>
      </trkpt>
      <trkpt lat="45.6171" lon="6.01393">
        <ele>899.2</ele>
        <time>2021-08-28T09:13:58Z</time>
      </trkpt>
      <trkpt lat="45.61702" lon="6.01394">
        <ele>898.8</ele>
        <time>2021-08-28T09:13:59Z</time>
      </trkpt>
      <trkpt lat="45.61695" lon="6.01394">
        <ele>898.4</ele>
        <time>2021-08-28T09:14:00Z</time>
      </trkpt>
      <trkpt lat="45.61687" lon="6.01395">
        <ele>898</ele>
        <time>2021-08-28T09:14:01Z</time>
      </trkpt>
      <trkpt lat="45.61679" lon="6.01396">
        <ele>897.6</ele>
        <time>2021-08-28T09:14:02Z</time>
      </trkpt>
      <trkpt lat="45.61671" lon="6.01397">
        <ele>897.2</ele>
        <time>2021-08-28T09:14:03Z</time>
      </trkpt>
      <trkpt lat="45.61663" lon="6.01399">
        <ele>896.9</ele>
        <time>2021-08-28T09:14:04Z</time>
      </trkpt>
      <trkpt lat="45.61655" lon="6.01402">
        <ele>896.5</ele>
        <time>2021-08-28T09:14:05Z</time>
      </trkpt>
      <trkpt lat="45.61647" lon="6.01405">
        <ele>896.1</ele>
        <time>2021-08-28T09:14:06Z</time>
      </trkpt>
      <trkpt lat="45.61639" lon="6.01409">
        <ele>895.7</ele>
        <time>2021-08-28T09:14:07Z</time>
      </trkpt>
      <trkpt lat="45.61631" lon="6.01414">
        <ele>895.3</ele>
        <time>2021-08-28T09:14:08Z</time>
      </trkpt>
      <trkpt lat="45.61623" lon="6.01418">
        <ele>894.8</ele>
        <time>2021-08-28T09:14:09Z</time>
      </trkpt>
      <trkpt lat="45.61615" lon="6.01424">
        <ele>894.3</ele>
        <time>2021-08-28T09:14:10Z</time>
      </trkpt>
      <trkpt lat="45.61608" lon="6.0143">
        <ele>893.8</ele>
        <time>2021-08-28T09:14:11Z</time>
      </trkpt>
      <trkpt lat="45.61601" lon="6.01437">
        <ele>893.2</ele>
        <time>2021-08-28T09:14:12Z</time>
      </trkpt>
      <trkpt lat="45.61595" lon="6.01445">
        <ele>892.6</ele>
        <time>2021-08-28T09:14:13Z</time>
      </trkpt>
      <trkpt lat="45.61589" lon="6.01454">
        <ele>892</ele>
        <time>2021-08-28T09:14:14Z</time>
      </trkpt>
      <trkpt lat="45.61583" lon="6.01464">
        <ele>891.3</ele>
        <time>2021-08-28T09:14:15Z</time>
      </trkpt>
      <trkpt lat="45.61577" lon="6.01474">
        <ele>890.6</ele>
        <time>2021-08-28T09:14:16Z</time>
      </trkpt>
      <trkpt lat="45.61571" lon="6.01484">
        <ele>889.8</ele>
        <time>2021-08-28T09:14:17Z</time>
      </trkpt>
      <trkpt lat="45.61564" lon="6.01495">
        <ele>889</ele>
        <time>2021-08-28T09:14:18Z</time>
      </trkpt>
      <trkpt lat="45.61557" lon="6.01504">
        <ele>888.2</ele>
        <time>2021-08-28T09:14:19Z</time>
      </trkpt>
      <trkpt lat="45.61549" lon="6.01512">
        <ele>887.4</ele>
        <time>2021-08-28T09:14:20Z</time>
      </trkpt>
      <trkpt lat="45.6154" lon="6.0152">
        <ele>886.4</ele>
        <time>2021-08-28T09:14:21Z</time>
      </trkpt>
      <trkpt lat="45.6153" lon="6.01527">
        <ele>885.5</ele>
        <time>2021-08-28T09:14:22Z</time>
      </trkpt>
      <trkpt lat="45.61519" lon="6.0153">
        <ele>884.6</ele>
        <time>2021-08-28T09:14:23Z</time>
      </trkpt>
      <trkpt lat="45.61507" lon="6.0153">
        <ele>883.8</ele>
        <time>2021-08-28T09:14:24Z</time>
      </trkpt>
      <trkpt lat="45.61496" lon="6.01528">
        <ele>882.9</ele>
        <time>2021-08-28T09:14:25Z</time>
      </trkpt>
      <trkpt lat="45.61485" lon="6.01523">
        <ele>882</ele>
        <time>2021-08-28T09:14:26Z</time>
      </trkpt>
      <trkpt lat="45.61475" lon="6.01516">
        <ele>881.1</ele>
        <time>2021-08-28T09:14:27Z</time>
      </trkpt>
      <trkpt lat="45.61465" lon="6.01509">
        <ele>880.3</ele>
        <time>2021-08-28T09:14:28Z</time>
      </trkpt>
      <trkpt lat="45.61454" lon="6.01502">
        <ele>879.4</ele>
        <time>2021-08-28T09:14:29Z</time>
      </trkpt>
      <trkpt lat="45.61445" lon="6.01495">
        <ele>878.5</ele>
        <time>2021-08-28T09:14:30Z</time>
      </trkpt>
      <trkpt lat="45.61435" lon="6.01487">
        <ele>877.7</ele>
        <time>2021-08-28T09:14:31Z</time>
      </trkpt>
      <trkpt lat="45.61426" lon="6.0148">
        <ele>876.9</ele>
        <time>2021-08-28T09:14:32Z</time>
      </trkpt>
      <trkpt lat="45.61416" lon="6.01473">
        <ele>876.1</ele>
        <time>2021-08-28T09:14:33Z</time>
      </trkpt>
      <trkpt lat="45.61407" lon="6.01467">
        <ele>875.4</ele>
        <time>2021-08-28T09:14:34Z</time>
      </trkpt>
      <trkpt lat="45.61398" lon="6.0146">
        <ele>874.7</ele>
        <time>2021-08-28T09:14:35Z</time>
      </trkpt>
      <trkpt lat="45.61389" lon="6.01452">
        <ele>874</ele>
        <time>2021-08-28T09:14:36Z</time>
      </trkpt>
      <trkpt lat="45.61381" lon="6.01443">
        <ele>873.3</ele>
        <time>2021-08-28T09:14:37Z</time>
      </trkpt>
      <trkpt lat="45.61374" lon="6.01433">
        <ele>872.5</ele>
        <time>2021-08-28T09:14:38Z</time>
      </trkpt>
      <trkpt lat="45.61368" lon="6.01421">
        <ele>871.7</ele>
        <time>2021-08-28T09:14:39Z</time>
      </trkpt>
      <trkpt lat="45.61361" lon="6.01409">
        <ele>871</ele>
        <time>2021-08-28T09:14:40Z</time>
      </trkpt>
      <trkpt lat="45.61355" lon="6.01397">
        <ele>870.2</ele>
        <time>2021-08-28T09:14:41Z</time>
      </trkpt>
      <trkpt lat="45.61348" lon="6.01385">
        <ele>869.4</ele>
        <time>2021-08-28T09:14:42Z</time>
      </trkpt>
      <trkpt lat="45.6134" lon="6.01375">
        <ele>868.7</ele>
        <time>2021-08-28T09:14:43Z</time>
      </trkpt>
      <trkpt lat="45.61333" lon="6.01364">
        <ele>867.9</ele>
        <time>2021-08-28T09:14:44Z</time>
      </trkpt>
      <trkpt lat="45.61325" lon="6.01354">
        <ele>867.2</ele>
        <time>2021-08-28T09:14:45Z</time>
      </trkpt>
      <trkpt lat="45.61317" lon="6.01343">
        <ele>866.5</ele>
        <time>2021-08-28T09:14:46Z</time>
      </trkpt>
      <trkpt lat="45.61309" lon="6.01333">
        <ele>865.8</ele>
        <time>2021-08-28T09:14:47Z</time>
      </trkpt>
      <trkpt lat="45.61301" lon="6.01323">
        <ele>865.2</ele>
        <time>2021-08-28T09:14:48Z</time>
      </trkpt>
      <trkpt lat="45.61292" lon="6.01314">
        <ele>864.5</ele>
        <time>2021-08-28T09:14:49Z</time>
      </trkpt>
      <trkpt lat="45.61283" lon="6.01306">
        <ele>863.8</ele>
        <time>2021-08-28T09:14:50Z</time>
      </trkpt>
      <trkpt lat="45.61274" lon="6.013">
        <ele>863.2</ele>
        <time>2021-08-28T09:14:51Z</time>
      </trkpt>
      <trkpt lat="45.61264" lon="6.01294">
        <ele>862.5</ele>
        <time>2021-08-28T09:14:52Z</time>
      </trkpt>
      <trkpt lat="45.61254" lon="6.01289">
        <ele>861.8</ele>
        <time>2021-08-28T09:14:53Z</time>
      </trkpt>
      <trkpt lat="45.61243" lon="6.01284">
        <ele>861.1</ele>
        <time>2021-08-28T09:14:54Z</time>
      </trkpt>
      <trkpt lat="45.61233" lon="6.01281">
        <ele>860.3</ele>
        <time>2021-08-28T09:14:55Z</time>
      </trkpt>
      <trkpt lat="45.61222" lon="6.0128">
        <ele>859.6</ele>
        <time>2021-08-28T09:14:56Z</time>
      </trkpt>
      <trkpt lat="45.61211" lon="6.01279">
        <ele>858.8</ele>
        <time>2021-08-28T09:14:57Z</time>
      </trkpt>
      <trkpt lat="45.612" lon="6.01278">
        <ele>858.1</ele>
        <time>2021-08-28T09:14:58Z</time>
      </trkpt>
      <trkpt lat="45.61189" lon="6.01276">
        <ele>857.4</ele>
        <time>2021-08-28T09:14:59Z</time>
      </trkpt>
      <trkpt lat="45.61178" lon="6.01275">
        <ele>856.7</ele>
        <time>2021-08-28T09:15:00Z</time>
      </trkpt>
      <trkpt lat="45.61167" lon="6.01274">
        <ele>856</ele>
        <time>2021-08-28T09:15:01Z</time>
      </trkpt>
      <trkpt lat="45.61155" lon="6.01275">
        <ele>855.3</ele>
        <time>2021-08-28T09:15:02Z</time>
      </trkpt>
      <trkpt lat="45.61144" lon="6.01277">
        <ele>854.5</ele>
        <time>2021-08-28T09:15:03Z</time>
      </trkpt>
      <trkpt lat="45.61133" lon="6.01281">
        <ele>853.6</ele>
        <time>2021-08-28T09:15:04Z</time>
      </trkpt>
      <trkpt lat="45.61112" lon="6.01293">
        <ele>851.9</ele>
        <time>2021-08-28T09:15:06Z</time>
      </trkpt>
      <trkpt lat="45.61102" lon="6.013">
        <ele>851.1</ele>
        <time>2021-08-28T09:15:07Z</time>
      </trkpt>
      <trkpt lat="45.61091" lon="6.01307">
        <ele>850.3</ele>
        <time>2021-08-28T09:15:08Z</time>
      </trkpt>
      <trkpt lat="45.61081" lon="6.01315">
        <ele>849.5</ele>
        <time>2021-08-28T09:15:09Z</time>
      </trkpt>
      <trkpt lat="45.61071" lon="6.01321">
        <ele>848.8</ele>
        <time>2021-08-28T09:15:10Z</time>
      </trkpt>
      <trkpt lat="45.61061" lon="6.01328">
        <ele>848.1</ele>
        <time>2021-08-28T09:15:11Z</time>
      </trkpt>
      <trkpt lat="45.6105" lon="6.01336">
        <ele>847.4</ele>
        <time>2021-08-28T09:15:12Z</time>
      </trkpt>
      <trkpt lat="45.6104" lon="6.01343">
        <ele>846.6</ele>
        <time>2021-08-28T09:15:13Z</time>
      </trkpt>
      <trkpt lat="45.6103" lon="6.0135">
        <ele>845.9</ele>
        <time>2021-08-28T09:15:14Z</time>
      </trkpt>
      <trkpt lat="45.6102" lon="6.01357">
        <ele>845.2</ele>
        <time>2021-08-28T09:15:15Z</time>
      </trkpt>
      <trkpt lat="45.6101" lon="6.01362">
        <ele>844.5</ele>
        <time>2021-08-28T09:15:16Z</time>
      </trkpt>
      <trkpt lat="45.60999" lon="6.01366">
        <ele>843.8</ele>
        <time>2021-08-28T09:15:17Z</time>
      </trkpt>
      <trkpt lat="45.60988" lon="6.01371">
        <ele>843.1</ele>
        <time>2021-08-28T09:15:18Z</time>
      </trkpt>
      <trkpt lat="45.60978" lon="6.01377">
        <ele>842.4</ele>
        <time>2021-08-28T09:15:19Z</time>
      </trkpt>
      <trkpt lat="45.60968" lon="6.01385">
        <ele>841.7</ele>
        <time>2021-08-28T09:15:20Z</time>
      </trkpt>
      <trkpt lat="45.60959" lon="6.01393">
        <ele>841.1</ele>
        <time>2021-08-28T09:15:21Z</time>
      </trkpt>
      <trkpt lat="45.60948" lon="6.01399">
        <ele>840.4</ele>
        <time>2021-08-28T09:15:22Z</time>
      </trkpt>
      <trkpt lat="45.60937" lon="6.01403">
        <ele>839.7</ele>
        <time>2021-08-28T09:15:23Z</time>
      </trkpt>
      <trkpt lat="45.60926" lon="6.01407">
        <ele>839.1</ele>
        <time>2021-08-28T09:15:24Z</time>
      </trkpt>
      <trkpt lat="45.60915" lon="6.01413">
        <ele>838.5</ele>
        <time>2021-08-28T09:15:25Z</time>
      </trkpt>
      <trkpt lat="45.60906" lon="6.01421">
        <ele>837.9</ele>
        <time>2021-08-28T09:15:26Z</time>
      </trkpt>
      <trkpt lat="45.60897" lon="6.01431">
        <ele>837.2</ele>
        <time>2021-08-28T09:15:27Z</time>
      </trkpt>
      <trkpt lat="45.60888" lon="6.0144">
        <ele>836.6</ele>
        <time>2021-08-28T09:15:28Z</time>
      </trkpt>
      <trkpt lat="45.60879" lon="6.01448">
        <ele>835.9</ele>
        <time>2021-08-28T09:15:29Z</time>
      </trkpt>
      <trkpt lat="45.60868" lon="6.01453">
        <ele>835.2</ele>
        <time>2021-08-28T09:15:30Z</time>
      </trkpt>
      <trkpt lat="45.60857" lon="6.01454">
        <ele>834.5</ele>
        <time>2021-08-28T09:15:31Z</time>
      </trkpt>
      <trkpt lat="45.60846" lon="6.01452">
        <ele>833.7</ele>
        <time>2021-08-28T09:15:32Z</time>
      </trkpt>
      <trkpt lat="45.60835" lon="6.01451">
        <ele>832.8</ele>
        <time>2021-08-28T09:15:33Z</time>
      </trkpt>
      <trkpt lat="45.60824" lon="6.01453">
        <ele>832</ele>
        <time>2021-08-28T09:15:34Z</time>
      </trkpt>
      <trkpt lat="45.60813" lon="6.01457">
        <ele>831.2</ele>
        <time>2021-08-28T09:15:35Z</time>
      </trkpt>
      <trkpt lat="45.60803" lon="6.01462">
        <ele>830.3</ele>
        <time>2021-08-28T09:15:36Z</time>
      </trkpt>
      <trkpt lat="45.60792" lon="6.01467">
        <ele>829.5</ele>
        <time>2021-08-28T09:15:37Z</time>
      </trkpt>
      <trkpt lat="45.6078" lon="6.01469">
        <ele>828.8</ele>
        <time>2021-08-28T09:15:38Z</time>
      </trkpt>
      <trkpt lat="45.60769" lon="6.01471">
        <ele>828</ele>
        <time>2021-08-28T09:15:39Z</time>
      </trkpt>
      <trkpt lat="45.60758" lon="6.01473">
        <ele>827.3</ele>
        <time>2021-08-28T09:15:40Z</time>
      </trkpt>
      <trkpt lat="45.60747" lon="6.01476">
        <ele>826.5</ele>
        <time>2021-08-28T09:15:41Z</time>
      </trkpt>
      <trkpt lat="45.60737" lon="6.0148">
        <ele>825.8</ele>
        <time>2021-08-28T09:15:42Z</time>
      </trkpt>
      <trkpt lat="45.60726" lon="6.01484">
        <ele>825.1</ele>
        <time>2021-08-28T09:15:43Z</time>
      </trkpt>
      <trkpt lat="45.60715" lon="6.01489">
        <ele>824.3</ele>
        <time>2021-08-28T09:15:44Z</time>
      </trkpt>
      <trkpt lat="45.60705" lon="6.01494">
        <ele>823.6</ele>
        <time>2021-08-28T09:15:45Z</time>
      </trkpt>
      <trkpt lat="45.60694" lon="6.01499">
        <ele>822.8</ele>
        <time>2021-08-28T09:15:46Z</time>
      </trkpt>
      <trkpt lat="45.60684" lon="6.01503">
        <ele>822</ele>
        <time>2021-08-28T09:15:47Z</time>
      </trkpt>
      <trkpt lat="45.60674" lon="6.01508">
        <ele>821.3</ele>
        <time>2021-08-28T09:15:48Z</time>
      </trkpt>
      <trkpt lat="45.60663" lon="6.01512">
        <ele>820.5</ele>
        <time>2021-08-28T09:15:49Z</time>
      </trkpt>
      <trkpt lat="45.60652" lon="6.01515">
        <ele>819.8</ele>
        <time>2021-08-28T09:15:50Z</time>
      </trkpt>
      <trkpt lat="45.60641" lon="6.01518">
        <ele>819</ele>
        <time>2021-08-28T09:15:51Z</time>
      </trkpt>
      <trkpt lat="45.60631" lon="6.0152">
        <ele>818.3</ele>
        <time>2021-08-28T09:15:52Z</time>
      </trkpt>
      <trkpt lat="45.60621" lon="6.01522">
        <ele>817.7</ele>
        <time>2021-08-28T09:15:53Z</time>
      </trkpt>
      <trkpt lat="45.6061" lon="6.01524">
        <ele>817</ele>
        <time>2021-08-28T09:15:54Z</time>
      </trkpt>
      <trkpt lat="45.606" lon="6.01525">
        <ele>816.3</ele>
        <time>2021-08-28T09:15:55Z</time>
      </trkpt>
      <trkpt lat="45.60589" lon="6.01526">
        <ele>815.6</ele>
        <time>2021-08-28T09:15:56Z</time>
      </trkpt>
      <trkpt lat="45.60579" lon="6.01528">
        <ele>814.9</ele>
        <time>2021-08-28T09:15:57Z</time>
      </trkpt>
      <trkpt lat="45.60568" lon="6.01531">
        <ele>814.2</ele>
        <time>2021-08-28T09:15:58Z</time>
      </trkpt>
      <trkpt lat="45.60558" lon="6.01533">
        <ele>813.5</ele>
        <time>2021-08-28T09:15:59Z</time>
      </trkpt>
      <trkpt lat="45.60547" lon="6.01535">
        <ele>812.8</ele>
        <time>2021-08-28T09:16:00Z</time>
      </trkpt>
      <trkpt lat="45.60536" lon="6.01538">
        <ele>812.1</ele>
        <time>2021-08-28T09:16:01Z</time>
      </trkpt>
      <trkpt lat="45.60526" lon="6.01541">
        <ele>811.4</ele>
        <time>2021-08-28T09:16:02Z</time>
      </trkpt>
      <trkpt lat="45.60515" lon="6.01543">
        <ele>810.8</ele>
        <time>2021-08-28T09:16:03Z</time>
      </trkpt>
      <trkpt lat="45.60505" lon="6.01547">
        <ele>810.1</ele>
        <time>2021-08-28T09:16:04Z</time>
      </trkpt>
      <trkpt lat="45.60494" lon="6.01552">
        <ele>809.4</ele>
        <time>2021-08-28T09:16:05Z</time>
      </trkpt>
      <trkpt lat="45.60484" lon="6.01558">
        <ele>808.6</ele>
        <time>2021-08-28T09:16:06Z</time>
      </trkpt>
      <trkpt lat="45.60474" lon="6.01564">
        <ele>807.8</ele>
        <time>2021-08-28T09:16:07Z</time>
      </trkpt>
      <trkpt lat="45.60463" lon="6.01569">
        <ele>807.1</ele>
        <time>2021-08-28T09:16:08Z</time>
      </trkpt>
      <trkpt lat="45.60452" lon="6.01572">
        <ele>806.4</ele>
        <time>2021-08-28T09:16:09Z</time>
      </trkpt>
      <trkpt lat="45.60441" lon="6.01575">
        <ele>805.7</ele>
        <time>2021-08-28T09:16:10Z</time>
      </trkpt>
      <trkpt lat="45.6043" lon="6.01577">
        <ele>805</ele>
        <time>2021-08-28T09:16:11Z</time>
      </trkpt>
      <trkpt lat="45.60419" lon="6.01578">
        <ele>804.4</ele>
        <time>2021-08-28T09:16:12Z</time>
      </trkpt>
      <trkpt lat="45.60408" lon="6.0158">
        <ele>803.7</ele>
        <time>2021-08-28T09:16:13Z</time>
      </trkpt>
      <trkpt lat="45.60397" lon="6.01581">
        <ele>803.1</ele>
        <time>2021-08-28T09:16:14Z</time>
      </trkpt>
      <trkpt lat="45.60386" lon="6.01582">
        <ele>802.4</ele>
        <time>2021-08-28T09:16:15Z</time>
      </trkpt>
      <trkpt lat="45.60375" lon="6.01585">
        <ele>801.7</ele>
        <time>2021-08-28T09:16:16Z</time>
      </trkpt>
      <trkpt lat="45.60364" lon="6.0159">
        <ele>801</ele>
        <time>2021-08-28T09:16:17Z</time>
      </trkpt>
      <trkpt lat="45.60354" lon="6.01597">
        <ele>800.2</ele>
        <time>2021-08-28T09:16:18Z</time>
      </trkpt>
      <trkpt lat="45.60343" lon="6.01604">
        <ele>799.5</ele>
        <time>2021-08-28T09:16:19Z</time>
      </trkpt>
      <trkpt lat="45.60333" lon="6.01609">
        <ele>798.7</ele>
        <time>2021-08-28T09:16:20Z</time>
      </trkpt>
      <trkpt lat="45.60322" lon="6.01613">
        <ele>797.9</ele>
        <time>2021-08-28T09:16:21Z</time>
      </trkpt>
      <trkpt lat="45.6031" lon="6.01615">
        <ele>797.1</ele>
        <time>2021-08-28T09:16:22Z</time>
      </trkpt>
      <trkpt lat="45.60299" lon="6.01619">
        <ele>796.3</ele>
        <time>2021-08-28T09:16:23Z</time>
      </trkpt>
      <trkpt lat="45.60288" lon="6.01623">
        <ele>795.6</ele>
        <time>2021-08-28T09:16:24Z</time>
      </trkpt>
      <trkpt lat="45.60277" lon="6.01627">
        <ele>794.8</ele>
        <time>2021-08-28T09:16:25Z</time>
      </trkpt>
      <trkpt lat="45.60267" lon="6.01631">
        <ele>794</ele>
        <time>2021-08-28T09:16:26Z</time>
      </trkpt>
      <trkpt lat="45.60257" lon="6.01636">
        <ele>793.3</ele>
        <time>2021-08-28T09:16:27Z</time>
      </trkpt>
      <trkpt lat="45.60246" lon="6.01641">
        <ele>792.5</ele>
        <time>2021-08-28T09:16:28Z</time>
      </trkpt>
      <trkpt lat="45.60236" lon="6.01644">
        <ele>791.8</ele>
        <time>2021-08-28T09:16:29Z</time>
      </trkpt>
      <trkpt lat="45.60225" lon="6.01645">
        <ele>791</ele>
        <time>2021-08-28T09:16:30Z</time>
      </trkpt>
      <trkpt lat="45.60215" lon="6.01644">
        <ele>790.3</ele>
        <time>2021-08-28T09:16:31Z</time>
      </trkpt>
      <trkpt lat="45.60204" lon="6.01644">
        <ele>789.7</ele>
        <time>2021-08-28T09:16:32Z</time>
      </trkpt>
      <trkpt lat="45.60194" lon="6.01647">
        <ele>789.1</ele>
        <time>2021-08-28T09:16:33Z</time>
      </trkpt>
      <trkpt lat="45.60184" lon="6.01651">
        <ele>788.5</ele>
        <time>2021-08-28T09:16:34Z</time>
      </trkpt>
      <trkpt lat="45.60174" lon="6.01654">
        <ele>787.9</ele>
        <time>2021-08-28T09:16:35Z</time>
      </trkpt>
      <trkpt lat="45.60164" lon="6.01657">
        <ele>787.3</ele>
        <time>2021-08-28T09:16:36Z</time>
      </trkpt>
      <trkpt lat="45.60154" lon="6.0166">
        <ele>786.8</ele>
        <time>2021-08-28T09:16:37Z</time>
      </trkpt>
      <trkpt lat="45.60144" lon="6.01662">
        <ele>786.2</ele>
        <time>2021-08-28T09:16:38Z</time>
      </trkpt>
      <trkpt lat="45.60134" lon="6.01662">
        <ele>785.6</ele>
        <time>2021-08-28T09:16:39Z</time>
      </trkpt>
      <trkpt lat="45.60124" lon="6.0166">
        <ele>785</ele>
        <time>2021-08-28T09:16:40Z</time>
      </trkpt>
      <trkpt lat="45.60114" lon="6.01655">
        <ele>784.3</ele>
        <time>2021-08-28T09:16:41Z</time>
      </trkpt>
      <trkpt lat="45.60104" lon="6.0165">
        <ele>783.5</ele>
        <time>2021-08-28T09:16:42Z</time>
      </trkpt>
      <trkpt lat="45.60094" lon="6.01646">
        <ele>782.8</ele>
        <time>2021-08-28T09:16:43Z</time>
      </trkpt>
      <trkpt lat="45.60084" lon="6.01644">
        <ele>782</ele>
        <time>2021-08-28T09:16:44Z</time>
      </trkpt>
      <trkpt lat="45.60074" lon="6.01645">
        <ele>781.3</ele>
        <time>2021-08-28T09:16:45Z</time>
      </trkpt>
      <trkpt lat="45.60063" lon="6.01648">
        <ele>780.5</ele>
        <time>2021-08-28T09:16:46Z</time>
      </trkpt>
      <trkpt lat="45.60053" lon="6.0165">
        <ele>779.7</ele>
        <time>2021-08-28T09:16:47Z</time>
      </trkpt>
      <trkpt lat="45.60042" lon="6.01652">
        <ele>779</ele>
        <time>2021-08-28T09:16:48Z</time>
      </trkpt>
      <trkpt lat="45.60032" lon="6.01651">
        <ele>778.3</ele>
        <time>2021-08-28T09:16:49Z</time>
      </trkpt>
      <trkpt lat="45.60022" lon="6.0165">
        <ele>777.6</ele>
        <time>2021-08-28T09:16:50Z</time>
      </trkpt>
      <trkpt lat="45.60012" lon="6.01647">
        <ele>776.9</ele>
        <time>2021-08-28T09:16:51Z</time>
      </trkpt>
      <trkpt lat="45.60002" lon="6.01645">
        <ele>776.2</ele>
        <time>2021-08-28T09:16:52Z</time>
      </trkpt>
      <trkpt lat="45.59992" lon="6.01642">
        <ele>775.5</ele>
        <time>2021-08-28T09:16:53Z</time>
      </trkpt>
      <trkpt lat="45.59982" lon="6.01639">
        <ele>774.8</ele>
        <time>2021-08-28T09:16:54Z</time>
      </trkpt>
      <trkpt lat="45.59972" lon="6.01636">
        <ele>774</ele>
        <time>2021-08-28T09:16:55Z</time>
      </trkpt>
      <trkpt lat="45.59962" lon="6.01633">
        <ele>773.3</ele>
        <time>2021-08-28T09:16:56Z</time>
      </trkpt>
      <trkpt lat="45.59952" lon="6.0163">
        <ele>772.6</ele>
        <time>2021-08-28T09:16:57Z</time>
      </trkpt>
      <trkpt lat="45.59943" lon="6.01627">
        <ele>771.9</ele>
        <time>2021-08-28T09:16:58Z</time>
      </trkpt>
      <trkpt lat="45.59933" lon="6.01623">
        <ele>771.1</ele>
        <time>2021-08-28T09:16:59Z</time>
      </trkpt>
      <trkpt lat="45.59922" lon="6.01617">
        <ele>770.3</ele>
        <time>2021-08-28T09:17:00Z</time>
      </trkpt>
      <trkpt lat="45.59913" lon="6.01611">
        <ele>769.5</ele>
        <time>2021-08-28T09:17:01Z</time>
      </trkpt>
      <trkpt lat="45.59904" lon="6.01604">
        <ele>768.8</ele>
        <time>2021-08-28T09:17:02Z</time>
      </trkpt>
      <trkpt lat="45.59894" lon="6.01598">
        <ele>768.1</ele>
        <time>2021-08-28T09:17:03Z</time>
      </trkpt>
      <trkpt lat="45.59884" lon="6.01591">
        <ele>767.4</ele>
        <time>2021-08-28T09:17:04Z</time>
      </trkpt>
      <trkpt lat="45.59875" lon="6.01584">
        <ele>766.8</ele>
        <time>2021-08-28T09:17:05Z</time>
      </trkpt>
      <trkpt lat="45.59865" lon="6.01578">
        <ele>766.1</ele>
        <time>2021-08-28T09:17:06Z</time>
      </trkpt>
      <trkpt lat="45.59855" lon="6.01571">
        <ele>765.3</ele>
        <time>2021-08-28T09:17:07Z</time>
      </trkpt>
      <trkpt lat="45.59846" lon="6.01565">
        <ele>764.6</ele>
        <time>2021-08-28T09:17:08Z</time>
      </trkpt>
      <trkpt lat="45.59835" lon="6.01561">
        <ele>763.7</ele>
        <time>2021-08-28T09:17:09Z</time>
      </trkpt>
      <trkpt lat="45.59824" lon="6.01559">
        <ele>762.8</ele>
        <time>2021-08-28T09:17:10Z</time>
      </trkpt>
      <trkpt lat="45.59812" lon="6.01557">
        <ele>761.9</ele>
        <time>2021-08-28T09:17:11Z</time>
      </trkpt>
      <trkpt lat="45.59801" lon="6.01557">
        <ele>760.9</ele>
        <time>2021-08-28T09:17:12Z</time>
      </trkpt>
      <trkpt lat="45.59789" lon="6.01557">
        <ele>760</ele>
        <time>2021-08-28T09:17:13Z</time>
      </trkpt>
      <trkpt lat="45.59777" lon="6.01557">
        <ele>759.2</ele>
        <time>2021-08-28T09:17:14Z</time>
      </trkpt>
      <trkpt lat="45.59765" lon="6.01557">
        <ele>758.5</ele>
        <time>2021-08-28T09:17:15Z</time>
      </trkpt>
      <trkpt lat="45.59753" lon="6.01557">
        <ele>757.7</ele>
        <time>2021-08-28T09:17:16Z</time>
      </trkpt>
      <trkpt lat="45.59741" lon="6.01558">
        <ele>756.9</ele>
        <time>2021-08-28T09:17:17Z</time>
      </trkpt>
      <trkpt lat="45.5973" lon="6.01559">
        <ele>756.1</ele>
        <time>2021-08-28T09:17:18Z</time>
      </trkpt>
      <trkpt lat="45.59719" lon="6.01559">
        <ele>755.4</ele>
        <time>2021-08-28T09:17:19Z</time>
      </trkpt>
      <trkpt lat="45.59707" lon="6.0156">
        <ele>754.6</ele>
        <time>2021-08-28T09:17:20Z</time>
      </trkpt>
      <trkpt lat="45.59696" lon="6.0156">
        <ele>753.8</ele>
        <time>2021-08-28T09:17:21Z</time>
      </trkpt>
      <trkpt lat="45.59685" lon="6.01557">
        <ele>753</ele>
        <time>2021-08-28T09:17:22Z</time>
      </trkpt>
      <trkpt lat="45.59674" lon="6.01553">
        <ele>752.2</ele>
        <time>2021-08-28T09:17:23Z</time>
      </trkpt>
      <trkpt lat="45.59663" lon="6.01547">
        <ele>751.3</ele>
        <time>2021-08-28T09:17:24Z</time>
      </trkpt>
      <trkpt lat="45.59652" lon="6.01539">
        <ele>750.4</ele>
        <time>2021-08-28T09:17:25Z</time>
      </trkpt>
      <trkpt lat="45.59642" lon="6.0153">
        <ele>749.4</ele>
        <time>2021-08-28T09:17:26Z</time>
      </trkpt>
      <trkpt lat="45.59633" lon="6.01521">
        <ele>748.4</ele>
        <time>2021-08-28T09:17:27Z</time>
      </trkpt>
      <trkpt lat="45.59623" lon="6.01511">
        <ele>747.5</ele>
        <time>2021-08-28T09:17:28Z</time>
      </trkpt>
      <trkpt lat="45.59614" lon="6.01502">
        <ele>746.6</ele>
        <time>2021-08-28T09:17:29Z</time>
      </trkpt>
      <trkpt lat="45.59604" lon="6.01495">
        <ele>745.7</ele>
        <time>2021-08-28T09:17:30Z</time>
      </trkpt>
      <trkpt lat="45.59594" lon="6.01489">
        <ele>744.8</ele>
        <time>2021-08-28T09:17:31Z</time>
      </trkpt>
      <trkpt lat="45.59584" lon="6.01484">
        <ele>743.9</ele>
        <time>2021-08-28T09:17:32Z</time>
      </trkpt>
      <trkpt lat="45.59573" lon="6.0148">
        <ele>743</ele>
        <time>2021-08-28T09:17:33Z</time>
      </trkpt>
      <trkpt lat="45.59562" lon="6.01476">
        <ele>742.1</ele>
        <time>2021-08-28T09:17:34Z</time>
      </trkpt>
      <trkpt lat="45.59552" lon="6.01472">
        <ele>741.2</ele>
        <time>2021-08-28T09:17:35Z</time>
      </trkpt>
      <trkpt lat="45.59541" lon="6.01469">
        <ele>740.4</ele>
        <time>2021-08-28T09:17:36Z</time>
      </trkpt>
      <trkpt lat="45.5953" lon="6.01466">
        <ele>739.6</ele>
        <time>2021-08-28T09:17:37Z</time>
      </trkpt>
      <trkpt lat="45.59519" lon="6.01462">
        <ele>738.9</ele>
        <time>2021-08-28T09:17:38Z</time>
      </trkpt>
      <trkpt lat="45.59509" lon="6.01458">
        <ele>738.1</ele>
        <time>2021-08-28T09:17:39Z</time>
      </trkpt>
      <trkpt lat="45.59498" lon="6.01454">
        <ele>737.3</ele>
        <time>2021-08-28T09:17:40Z</time>
      </trkpt>
      <trkpt lat="45.59487" lon="6.0145">
        <ele>736.6</ele>
        <time>2021-08-28T09:17:41Z</time>
      </trkpt>
      <trkpt lat="45.59477" lon="6.01446">
        <ele>735.8</ele>
        <time>2021-08-28T09:17:42Z</time>
      </trkpt>
      <trkpt lat="45.59466" lon="6.01442">
        <ele>735</ele>
        <time>2021-08-28T09:17:43Z</time>
      </trkpt>
      <trkpt lat="45.59456" lon="6.01436">
        <ele>734.1</ele>
        <time>2021-08-28T09:17:44Z</time>
      </trkpt>
      <trkpt lat="45.59447" lon="6.01428">
        <ele>733.3</ele>
        <time>2021-08-28T09:17:45Z</time>
      </trkpt>
      <trkpt lat="45.59438" lon="6.01419">
        <ele>732.4</ele>
        <time>2021-08-28T09:17:46Z</time>
      </trkpt>
      <trkpt lat="45.59429" lon="6.0141">
        <ele>731.6</ele>
        <time>2021-08-28T09:17:47Z</time>
      </trkpt>
      <trkpt lat="45.5942" lon="6.014">
        <ele>730.7</ele>
        <time>2021-08-28T09:17:48Z</time>
      </trkpt>
      <trkpt lat="45.59411" lon="6.01391">
        <ele>729.8</ele>
        <time>2021-08-28T09:17:49Z</time>
      </trkpt>
      <trkpt lat="45.59402" lon="6.01382">
        <ele>729</ele>
        <time>2021-08-28T09:17:50Z</time>
      </trkpt>
      <trkpt lat="45.59394" lon="6.01373">
        <ele>728.1</ele>
        <time>2021-08-28T09:17:51Z</time>
      </trkpt>
      <trkpt lat="45.59385" lon="6.01364">
        <ele>727.3</ele>
        <time>2021-08-28T09:17:52Z</time>
      </trkpt>
      <trkpt lat="45.59377" lon="6.01355">
        <ele>726.5</ele>
        <time>2021-08-28T09:17:53Z</time>
      </trkpt>
      <trkpt lat="45.59368" lon="6.01346">
        <ele>725.7</ele>
        <time>2021-08-28T09:17:54Z</time>
      </trkpt>
      <trkpt lat="45.59359" lon="6.01337">
        <ele>724.8</ele>
        <time>2021-08-28T09:17:55Z</time>
      </trkpt>
      <trkpt lat="45.5935" lon="6.01328">
        <ele>723.8</ele>
        <time>2021-08-28T09:17:56Z</time>
      </trkpt>
      <trkpt lat="45.59341" lon="6.01318">
        <ele>723</ele>
        <time>2021-08-28T09:17:57Z</time>
      </trkpt>
      <trkpt lat="45.59332" lon="6.01308">
        <ele>722.1</ele>
        <time>2021-08-28T09:17:58Z</time>
      </trkpt>
      <trkpt lat="45.59324" lon="6.01297">
        <ele>721.3</ele>
        <time>2021-08-28T09:17:59Z</time>
      </trkpt>
      <trkpt lat="45.59317" lon="6.01286">
        <ele>720.4</ele>
        <time>2021-08-28T09:18:00Z</time>
      </trkpt>
      <trkpt lat="45.59309" lon="6.01274">
        <ele>719.5</ele>
        <time>2021-08-28T09:18:01Z</time>
      </trkpt>
      <trkpt lat="45.59302" lon="6.01261">
        <ele>718.6</ele>
        <time>2021-08-28T09:18:02Z</time>
      </trkpt>
      <trkpt lat="45.59295" lon="6.01249">
        <ele>717.7</ele>
        <time>2021-08-28T09:18:03Z</time>
      </trkpt>
      <trkpt lat="45.59287" lon="6.01237">
        <ele>716.8</ele>
        <time>2021-08-28T09:18:04Z</time>
      </trkpt>
      <trkpt lat="45.5928" lon="6.01225">
        <ele>716</ele>
        <time>2021-08-28T09:18:05Z</time>
      </trkpt>
      <trkpt lat="45.59273" lon="6.01213">
        <ele>715.1</ele>
        <time>2021-08-28T09:18:06Z</time>
      </trkpt>
      <trkpt lat="45.59266" lon="6.012">
        <ele>714.3</ele>
        <time>2021-08-28T09:18:07Z</time>
      </trkpt>
      <trkpt lat="45.59258" lon="6.01188">
        <ele>713.5</ele>
        <time>2021-08-28T09:18:08Z</time>
      </trkpt>
      <trkpt lat="45.59251" lon="6.01176">
        <ele>712.6</ele>
        <time>2021-08-28T09:18:09Z</time>
      </trkpt>
      <trkpt lat="45.59243" lon="6.01165">
        <ele>711.7</ele>
        <time>2021-08-28T09:18:10Z</time>
      </trkpt>
      <trkpt lat="45.59236" lon="6.01153">
        <ele>710.9</ele>
        <time>2021-08-28T09:18:11Z</time>
      </trkpt>
      <trkpt lat="45.59228" lon="6.0114">
        <ele>710</ele>
        <time>2021-08-28T09:18:12Z</time>
      </trkpt>
      <trkpt lat="45.59221" lon="6.01129">
        <ele>709.1</ele>
        <time>2021-08-28T09:18:13Z</time>
      </trkpt>
      <trkpt lat="45.59213" lon="6.01116">
        <ele>708.1</ele>
        <time>2021-08-28T09:18:14Z</time>
      </trkpt>
      <trkpt lat="45.59206" lon="6.01103">
        <ele>707.2</ele>
        <time>2021-08-28T09:18:15Z</time>
      </trkpt>
      <trkpt lat="45.59199" lon="6.01091">
        <ele>706.3</ele>
        <time>2021-08-28T09:18:16Z</time>
      </trkpt>
      <trkpt lat="45.59193" lon="6.01078">
        <ele>705.4</ele>
        <time>2021-08-28T09:18:17Z</time>
      </trkpt>
      <trkpt lat="45.59186" lon="6.01066">
        <ele>704.5</ele>
        <time>2021-08-28T09:18:18Z</time>
      </trkpt>
      <trkpt lat="45.59179" lon="6.01053">
        <ele>703.7</ele>
        <time>2021-08-28T09:18:19Z</time>
      </trkpt>
      <trkpt lat="45.59172" lon="6.01041">
        <ele>702.9</ele>
        <time>2021-08-28T09:18:20Z</time>
      </trkpt>
      <trkpt lat="45.59166" lon="6.01028">
        <ele>702.1</ele>
        <time>2021-08-28T09:18:21Z</time>
      </trkpt>
      <trkpt lat="45.5916" lon="6.01016">
        <ele>701.4</ele>
        <time>2021-08-28T09:18:22Z</time>
      </trkpt>
      <trkpt lat="45.59153" lon="6.01003">
        <ele>700.6</ele>
        <time>2021-08-28T09:18:23Z</time>
      </trkpt>
      <trkpt lat="45.59147" lon="6.00991">
        <ele>699.9</ele>
        <time>2021-08-28T09:18:24Z</time>
      </trkpt>
      <trkpt lat="45.59141" lon="6.00979">
        <ele>699.2</ele>
        <time>2021-08-28T09:18:25Z</time>
      </trkpt>
      <trkpt lat="45.59135" lon="6.00966">
        <ele>698.5</ele>
        <time>2021-08-28T09:18:26Z</time>
      </trkpt>
      <trkpt lat="45.59129" lon="6.00954">
        <ele>697.7</ele>
        <time>2021-08-28T09:18:27Z</time>
      </trkpt>
      <trkpt lat="45.59123" lon="6.00942">
        <ele>697</ele>
        <time>2021-08-28T09:18:28Z</time>
      </trkpt>
      <trkpt lat="45.59118" lon="6.00929">
        <ele>696.2</ele>
        <time>2021-08-28T09:18:29Z</time>
      </trkpt>
      <trkpt lat="45.59113" lon="6.00917">
        <ele>695.4</ele>
        <time>2021-08-28T09:18:30Z</time>
      </trkpt>
      <trkpt lat="45.59107" lon="6.00905">
        <ele>694.7</ele>
        <time>2021-08-28T09:18:31Z</time>
      </trkpt>
      <trkpt lat="45.59102" lon="6.00892">
        <ele>693.9</ele>
        <time>2021-08-28T09:18:32Z</time>
      </trkpt>
      <trkpt lat="45.59097" lon="6.0088">
        <ele>693.2</ele>
        <time>2021-08-28T09:18:33Z</time>
      </trkpt>
      <trkpt lat="45.59092" lon="6.00868">
        <ele>692.6</ele>
        <time>2021-08-28T09:18:34Z</time>
      </trkpt>
      <trkpt lat="45.59086" lon="6.00855">
        <ele>692</ele>
        <time>2021-08-28T09:18:35Z</time>
      </trkpt>
      <trkpt lat="45.59081" lon="6.00843">
        <ele>691.5</ele>
        <time>2021-08-28T09:18:36Z</time>
      </trkpt>
      <trkpt lat="45.59076" lon="6.0083">
        <ele>691</ele>
        <time>2021-08-28T09:18:37Z</time>
      </trkpt>
      <trkpt lat="45.59071" lon="6.00817">
        <ele>690.6</ele>
        <time>2021-08-28T09:18:38Z</time>
      </trkpt>
      <trkpt lat="45.59065" lon="6.00804">
        <ele>690.2</ele>
        <time>2021-08-28T09:18:39Z</time>
      </trkpt>
      <trkpt lat="45.5906" lon="6.00791">
        <ele>690</ele>
        <time>2021-08-28T09:18:40Z</time>
      </trkpt>
      <trkpt lat="45.59054" lon="6.00778">
        <ele>689.8</ele>
        <time>2021-08-28T09:18:41Z</time>
      </trkpt>
      <trkpt lat="45.59049" lon="6.00765">
        <ele>689.7</ele>
        <time>2021-08-28T09:18:42Z</time>
      </trkpt>
      <trkpt lat="45.59044" lon="6.00753">
        <ele>689.6</ele>
        <time>2021-08-28T09:18:43Z</time>
      </trkpt>
      <trkpt lat="45.59035" lon="6.00733">
        <ele>689.5</ele>
        <time>2021-08-28T09:18:45Z</time>
      </trkpt>
      <trkpt lat="45.59028" lon="6.00729">
        <ele>689.3</ele>
        <time>2021-08-28T09:18:46Z</time>
      </trkpt>
      <trkpt lat="45.5902" lon="6.00732">
        <ele>689.1</ele>
        <time>2021-08-28T09:18:47Z</time>
      </trkpt>
      <trkpt lat="45.59013" lon="6.00741">
        <ele>688.4</ele>
        <time>2021-08-28T09:18:48Z</time>
      </trkpt>
      <trkpt lat="45.5901" lon="6.00754">
        <ele>687.6</ele>
        <time>2021-08-28T09:18:49Z</time>
      </trkpt>
      <trkpt lat="45.59011" lon="6.00768">
        <ele>686.9</ele>
        <time>2021-08-28T09:18:50Z</time>
      </trkpt>
      <trkpt lat="45.59015" lon="6.00781">
        <ele>686.2</ele>
        <time>2021-08-28T09:18:51Z</time>
      </trkpt>
      <trkpt lat="45.59019" lon="6.00793">
        <ele>685.5</ele>
        <time>2021-08-28T09:18:52Z</time>
      </trkpt>
      <trkpt lat="45.59024" lon="6.00806">
        <ele>684.9</ele>
        <time>2021-08-28T09:18:53Z</time>
      </trkpt>
      <trkpt lat="45.59028" lon="6.00818">
        <ele>684.3</ele>
        <time>2021-08-28T09:18:54Z</time>
      </trkpt>
      <trkpt lat="45.59031" lon="6.00831">
        <ele>683.8</ele>
        <time>2021-08-28T09:18:55Z</time>
      </trkpt>
      <trkpt lat="45.59035" lon="6.00843">
        <ele>683.2</ele>
        <time>2021-08-28T09:18:56Z</time>
      </trkpt>
      <trkpt lat="45.59039" lon="6.00856">
        <ele>682.4</ele>
        <time>2021-08-28T09:18:57Z</time>
      </trkpt>
      <trkpt lat="45.59043" lon="6.0087">
        <ele>681.6</ele>
        <time>2021-08-28T09:18:58Z</time>
      </trkpt>
      <trkpt lat="45.59047" lon="6.00883">
        <ele>680.8</ele>
        <time>2021-08-28T09:18:59Z</time>
      </trkpt>
      <trkpt lat="45.59051" lon="6.00897">
        <ele>679.9</ele>
        <time>2021-08-28T09:19:00Z</time>
      </trkpt>
      <trkpt lat="45.59056" lon="6.00911">
        <ele>679.1</ele>
        <time>2021-08-28T09:19:01Z</time>
      </trkpt>
      <trkpt lat="45.5906" lon="6.00924">
        <ele>678.3</ele>
        <time>2021-08-28T09:19:02Z</time>
      </trkpt>
      <trkpt lat="45.59065" lon="6.00938">
        <ele>677.6</ele>
        <time>2021-08-28T09:19:03Z</time>
      </trkpt>
      <trkpt lat="45.59071" lon="6.00951">
        <ele>676.9</ele>
        <time>2021-08-28T09:19:04Z</time>
      </trkpt>
      <trkpt lat="45.59076" lon="6.00964">
        <ele>676.2</ele>
        <time>2021-08-28T09:19:05Z</time>
      </trkpt>
      <trkpt lat="45.59081" lon="6.00978">
        <ele>675.5</ele>
        <time>2021-08-28T09:19:06Z</time>
      </trkpt>
      <trkpt lat="45.59086" lon="6.00992">
        <ele>675</ele>
        <time>2021-08-28T09:19:07Z</time>
      </trkpt>
      <trkpt lat="45.59092" lon="6.01003">
        <ele>674.5</ele>
        <time>2021-08-28T09:19:08Z</time>
      </trkpt>
      <trkpt lat="45.59095" lon="6.01013">
        <ele>674.1</ele>
        <time>2021-08-28T09:19:09Z</time>
      </trkpt>
      <trkpt lat="45.59096" lon="6.01023">
        <ele>673.8</ele>
        <time>2021-08-28T09:19:10Z</time>
      </trkpt>
      <trkpt lat="45.59091" lon="6.01031">
        <ele>673.3</ele>
        <time>2021-08-28T09:19:11Z</time>
      </trkpt>
      <trkpt lat="45.59083" lon="6.01034">
        <ele>672.6</ele>
        <time>2021-08-28T09:19:12Z</time>
      </trkpt>
      <trkpt lat="45.59074" lon="6.0103">
        <ele>671.9</ele>
        <time>2021-08-28T09:19:13Z</time>
      </trkpt>
      <trkpt lat="45.59067" lon="6.0102">
        <ele>671</ele>
        <time>2021-08-28T09:19:14Z</time>
      </trkpt>
      <trkpt lat="45.59063" lon="6.01007">
        <ele>670.1</ele>
        <time>2021-08-28T09:19:15Z</time>
      </trkpt>
      <trkpt lat="45.59058" lon="6.00996">
        <ele>669.3</ele>
        <time>2021-08-28T09:19:16Z</time>
      </trkpt>
      <trkpt lat="45.59054" lon="6.00984">
        <ele>668.6</ele>
        <time>2021-08-28T09:19:17Z</time>
      </trkpt>
      <trkpt lat="45.59048" lon="6.00974">
        <ele>667.8</ele>
        <time>2021-08-28T09:19:18Z</time>
      </trkpt>
      <trkpt lat="45.59042" lon="6.00966">
        <ele>667.1</ele>
        <time>2021-08-28T09:19:19Z</time>
      </trkpt>
      <trkpt lat="45.59035" lon="6.00958">
        <ele>666.4</ele>
        <time>2021-08-28T09:19:20Z</time>
      </trkpt>
      <trkpt lat="45.59027" lon="6.0095">
        <ele>665.5</ele>
        <time>2021-08-28T09:19:21Z</time>
      </trkpt>
      <trkpt lat="45.5902" lon="6.00944">
        <ele>664.8</ele>
        <time>2021-08-28T09:19:22Z</time>
      </trkpt>
      <trkpt lat="45.59012" lon="6.00937">
        <ele>664</ele>
        <time>2021-08-28T09:19:23Z</time>
      </trkpt>
      <trkpt lat="45.59004" lon="6.00931">
        <ele>663.2</ele>
        <time>2021-08-28T09:19:24Z</time>
      </trkpt>
      <trkpt lat="45.58996" lon="6.00924">
        <ele>662.4</ele>
        <time>2021-08-28T09:19:25Z</time>
      </trkpt>
      <trkpt lat="45.58988" lon="6.00918">
        <ele>661.8</ele>
        <time>2021-08-28T09:19:26Z</time>
      </trkpt>
      <trkpt lat="45.58979" lon="6.00911">
        <ele>661.5</ele>
        <time>2021-08-28T09:19:27Z</time>
      </trkpt>
      <trkpt lat="45.58971" lon="6.00903">
        <ele>661.1</ele>
        <time>2021-08-28T09:19:28Z</time>
      </trkpt>
      <trkpt lat="45.58963" lon="6.00896">
        <ele>660.2</ele>
        <time>2021-08-28T09:19:29Z</time>
      </trkpt>
      <trkpt lat="45.58955" lon="6.00889">
        <ele>659.2</ele>
        <time>2021-08-28T09:19:30Z</time>
      </trkpt>
      <trkpt lat="45.58947" lon="6.00881">
        <ele>658.3</ele>
        <time>2021-08-28T09:19:31Z</time>
      </trkpt>
      <trkpt lat="45.58939" lon="6.00873">
        <ele>657.3</ele>
        <time>2021-08-28T09:19:32Z</time>
      </trkpt>
      <trkpt lat="45.5893" lon="6.00866">
        <ele>656.4</ele>
        <time>2021-08-28T09:19:33Z</time>
      </trkpt>
      <trkpt lat="45.58922" lon="6.00858">
        <ele>655.4</ele>
        <time>2021-08-28T09:19:34Z</time>
      </trkpt>
      <trkpt lat="45.58914" lon="6.0085">
        <ele>654.5</ele>
        <time>2021-08-28T09:19:35Z</time>
      </trkpt>
      <trkpt lat="45.58906" lon="6.00842">
        <ele>653.6</ele>
        <time>2021-08-28T09:19:36Z</time>
      </trkpt>
      <trkpt lat="45.589" lon="6.00832">
        <ele>652.8</ele>
        <time>2021-08-28T09:19:37Z</time>
      </trkpt>
      <trkpt lat="45.58894" lon="6.00822">
        <ele>651.9</ele>
        <time>2021-08-28T09:19:38Z</time>
      </trkpt>
      <trkpt lat="45.58889" lon="6.00812">
        <ele>651.1</ele>
        <time>2021-08-28T09:19:39Z</time>
      </trkpt>
      <trkpt lat="45.58884" lon="6.00801">
        <ele>650.2</ele>
        <time>2021-08-28T09:19:40Z</time>
      </trkpt>
      <trkpt lat="45.5888" lon="6.00789">
        <ele>649.5</ele>
        <time>2021-08-28T09:19:41Z</time>
      </trkpt>
      <trkpt lat="45.58876" lon="6.00777">
        <ele>648.7</ele>
        <time>2021-08-28T09:19:42Z</time>
      </trkpt>
      <trkpt lat="45.58872" lon="6.00766">
        <ele>648</ele>
        <time>2021-08-28T09:19:43Z</time>
      </trkpt>
      <trkpt lat="45.58868" lon="6.00754">
        <ele>647.3</ele>
        <time>2021-08-28T09:19:44Z</time>
      </trkpt>
      <trkpt lat="45.58864" lon="6.00742">
        <ele>646.5</ele>
        <time>2021-08-28T09:19:45Z</time>
      </trkpt>
      <trkpt lat="45.5886" lon="6.0073">
        <ele>645.8</ele>
        <time>2021-08-28T09:19:46Z</time>
      </trkpt>
      <trkpt lat="45.58856" lon="6.00718">
        <ele>645</ele>
        <time>2021-08-28T09:19:47Z</time>
      </trkpt>
      <trkpt lat="45.58852" lon="6.00705">
        <ele>644.2</ele>
        <time>2021-08-28T09:19:48Z</time>
      </trkpt>
      <trkpt lat="45.58847" lon="6.00693">
        <ele>643.5</ele>
        <time>2021-08-28T09:19:49Z</time>
      </trkpt>
      <trkpt lat="45.58843" lon="6.00681">
        <ele>642.8</ele>
        <time>2021-08-28T09:19:50Z</time>
      </trkpt>
      <trkpt lat="45.58838" lon="6.00668">
        <ele>642</ele>
        <time>2021-08-28T09:19:51Z</time>
      </trkpt>
      <trkpt lat="45.58834" lon="6.00654">
        <ele>641.2</ele>
        <time>2021-08-28T09:19:52Z</time>
      </trkpt>
      <trkpt lat="45.58829" lon="6.00641">
        <ele>640.4</ele>
        <time>2021-08-28T09:19:53Z</time>
      </trkpt>
      <trkpt lat="45.58824" lon="6.00628">
        <ele>639.6</ele>
        <time>2021-08-28T09:19:54Z</time>
      </trkpt>
      <trkpt lat="45.5882" lon="6.00614">
        <ele>638.8</ele>
        <time>2021-08-28T09:19:55Z</time>
      </trkpt>
      <trkpt lat="45.58815" lon="6.00601">
        <ele>638</ele>
        <time>2021-08-28T09:19:56Z</time>
      </trkpt>
      <trkpt lat="45.5881" lon="6.00587">
        <ele>637.2</ele>
        <time>2021-08-28T09:19:57Z</time>
      </trkpt>
      <trkpt lat="45.58806" lon="6.00573">
        <ele>636.9</ele>
        <time>2021-08-28T09:19:58Z</time>
      </trkpt>
      <trkpt lat="45.58801" lon="6.0056">
        <ele>636.6</ele>
        <time>2021-08-28T09:19:59Z</time>
      </trkpt>
      <trkpt lat="45.58796" lon="6.00546">
        <ele>637.7</ele>
        <time>2021-08-28T09:20:00Z</time>
      </trkpt>
      <trkpt lat="45.58792" lon="6.00532">
        <ele>636.5</ele>
        <time>2021-08-28T09:20:01Z</time>
      </trkpt>
      <trkpt lat="45.58788" lon="6.00518">
        <ele>635.2</ele>
        <time>2021-08-28T09:20:02Z</time>
      </trkpt>
      <trkpt lat="45.58784" lon="6.00504">
        <ele>633.9</ele>
        <time>2021-08-28T09:20:03Z</time>
      </trkpt>
      <trkpt lat="45.5878" lon="6.0049">
        <ele>632.6</ele>
        <time>2021-08-28T09:20:04Z</time>
      </trkpt>
      <trkpt lat="45.58777" lon="6.00475">
        <ele>631.3</ele>
        <time>2021-08-28T09:20:05Z</time>
      </trkpt>
      <trkpt lat="45.58774" lon="6.00459">
        <ele>630.1</ele>
        <time>2021-08-28T09:20:06Z</time>
      </trkpt>
      <trkpt lat="45.58771" lon="6.00444">
        <ele>628.7</ele>
        <time>2021-08-28T09:20:07Z</time>
      </trkpt>
      <trkpt lat="45.58768" lon="6.00429">
        <ele>627.4</ele>
        <time>2021-08-28T09:20:08Z</time>
      </trkpt>
      <trkpt lat="45.58764" lon="6.00414">
        <ele>626.5</ele>
        <time>2021-08-28T09:20:09Z</time>
      </trkpt>
      <trkpt lat="45.58761" lon="6.00398">
        <ele>625.7</ele>
        <time>2021-08-28T09:20:10Z</time>
      </trkpt>
      <trkpt lat="45.58758" lon="6.00383">
        <ele>624.7</ele>
        <time>2021-08-28T09:20:11Z</time>
      </trkpt>
      <trkpt lat="45.58755" lon="6.00367">
        <ele>623.8</ele>
        <time>2021-08-28T09:20:12Z</time>
      </trkpt>
      <trkpt lat="45.58752" lon="6.00351">
        <ele>622.9</ele>
        <time>2021-08-28T09:20:13Z</time>
      </trkpt>
      <trkpt lat="45.58749" lon="6.00336">
        <ele>621.9</ele>
        <time>2021-08-28T09:20:14Z</time>
      </trkpt>
      <trkpt lat="45.58746" lon="6.00319">
        <ele>621</ele>
        <time>2021-08-28T09:20:15Z</time>
      </trkpt>
      <trkpt lat="45.58743" lon="6.00303">
        <ele>620.1</ele>
        <time>2021-08-28T09:20:16Z</time>
      </trkpt>
      <trkpt lat="45.58741" lon="6.00286">
        <ele>619.2</ele>
        <time>2021-08-28T09:20:17Z</time>
      </trkpt>
      <trkpt lat="45.5874" lon="6.0027">
        <ele>618.3</ele>
        <time>2021-08-28T09:20:18Z</time>
      </trkpt>
      <trkpt lat="45.58738" lon="6.00253">
        <ele>617.4</ele>
        <time>2021-08-28T09:20:19Z</time>
      </trkpt>
      <trkpt lat="45.58737" lon="6.00237">
        <ele>616.6</ele>
        <time>2021-08-28T09:20:20Z</time>
      </trkpt>
      <trkpt lat="45.58737" lon="6.0022">
        <ele>615.7</ele>
        <time>2021-08-28T09:20:21Z</time>
      </trkpt>
      <trkpt lat="45.58735" lon="6.00203">
        <ele>614.9</ele>
        <time>2021-08-28T09:20:22Z</time>
      </trkpt>
      <trkpt lat="45.58735" lon="6.00186">
        <ele>614</ele>
        <time>2021-08-28T09:20:23Z</time>
      </trkpt>
      <trkpt lat="45.58734" lon="6.0017">
        <ele>613.2</ele>
        <time>2021-08-28T09:20:24Z</time>
      </trkpt>
      <trkpt lat="45.58733" lon="6.00153">
        <ele>612.3</ele>
        <time>2021-08-28T09:20:25Z</time>
      </trkpt>
      <trkpt lat="45.58732" lon="6.00136">
        <ele>611.5</ele>
        <time>2021-08-28T09:20:26Z</time>
      </trkpt>
      <trkpt lat="45.58731" lon="6.00119">
        <ele>610.6</ele>
        <time>2021-08-28T09:20:27Z</time>
      </trkpt>
      <trkpt lat="45.5873" lon="6.00102">
        <ele>609.8</ele>
        <time>2021-08-28T09:20:28Z</time>
      </trkpt>
      <trkpt lat="45.58728" lon="6.00085">
        <ele>608.9</ele>
        <time>2021-08-28T09:20:29Z</time>
      </trkpt>
      <trkpt lat="45.58727" lon="6.00068">
        <ele>608.1</ele>
        <time>2021-08-28T09:20:30Z</time>
      </trkpt>
      <trkpt lat="45.58726" lon="6.00051">
        <ele>607.2</ele>
        <time>2021-08-28T09:20:31Z</time>
      </trkpt>
      <trkpt lat="45.58725" lon="6.00035">
        <ele>607.2</ele>
        <time>2021-08-28T09:20:32Z</time>
      </trkpt>
      <trkpt lat="45.58723" lon="6.00018">
        <ele>606.5</ele>
        <time>2021-08-28T09:20:33Z</time>
      </trkpt>
      <trkpt lat="45.5872" lon="6.00001">
        <ele>605.4</ele>
        <time>2021-08-28T09:20:34Z</time>
      </trkpt>
      <trkpt lat="45.58716" lon="5.99985">
        <ele>604.4</ele>
        <time>2021-08-28T09:20:35Z</time>
      </trkpt>
      <trkpt lat="45.58711" lon="5.9997">
        <ele>603.3</ele>
        <time>2021-08-28T09:20:36Z</time>
      </trkpt>
      <trkpt lat="45.58706" lon="5.99954">
        <ele>602.2</ele>
        <time>2021-08-28T09:20:37Z</time>
      </trkpt>
      <trkpt lat="45.58701" lon="5.99939">
        <ele>601.1</ele>
        <time>2021-08-28T09:20:38Z</time>
      </trkpt>
      <trkpt lat="45.58696" lon="5.99924">
        <ele>600.1</ele>
        <time>2021-08-28T09:20:39Z</time>
      </trkpt>
      <trkpt lat="45.5869" lon="5.99909">
        <ele>599</ele>
        <time>2021-08-28T09:20:40Z</time>
      </trkpt>
      <trkpt lat="45.58685" lon="5.99894">
        <ele>597.9</ele>
        <time>2021-08-28T09:20:41Z</time>
      </trkpt>
      <trkpt lat="45.58679" lon="5.99878">
        <ele>596.9</ele>
        <time>2021-08-28T09:20:42Z</time>
      </trkpt>
      <trkpt lat="45.58674" lon="5.99863">
        <ele>595.9</ele>
        <time>2021-08-28T09:20:43Z</time>
      </trkpt>
      <trkpt lat="45.58669" lon="5.99847">
        <ele>594.9</ele>
        <time>2021-08-28T09:20:44Z</time>
      </trkpt>
      <trkpt lat="45.58663" lon="5.99832">
        <ele>593.9</ele>
        <time>2021-08-28T09:20:45Z</time>
      </trkpt>
      <trkpt lat="45.58658" lon="5.99817">
        <ele>593</ele>
        <time>2021-08-28T09:20:46Z</time>
      </trkpt>
      <trkpt lat="45.58653" lon="5.99803">
        <ele>592.1</ele>
        <time>2021-08-28T09:20:47Z</time>
      </trkpt>
      <trkpt lat="45.58649" lon="5.99789">
        <ele>591.5</ele>
        <time>2021-08-28T09:20:48Z</time>
      </trkpt>
      <trkpt lat="45.58645" lon="5.99777">
        <ele>591.5</ele>
        <time>2021-08-28T09:20:49Z</time>
      </trkpt>
      <trkpt lat="45.58641" lon="5.99766">
        <ele>591.8</ele>
        <time>2021-08-28T09:20:50Z</time>
      </trkpt>
      <trkpt lat="45.58638" lon="5.99756">
        <ele>591.8</ele>
        <time>2021-08-28T09:20:51Z</time>
      </trkpt>
      <trkpt lat="45.58635" lon="5.99747">
        <ele>591</ele>
        <time>2021-08-28T09:20:52Z</time>
      </trkpt>
      <trkpt lat="45.58632" lon="5.99738">
        <ele>590.3</ele>
        <time>2021-08-28T09:20:53Z</time>
      </trkpt>
      <trkpt lat="45.58631" lon="5.99731">
        <ele>589.6</ele>
        <time>2021-08-28T09:20:54Z</time>
      </trkpt>
      <trkpt lat="45.58629" lon="5.99723">
        <ele>588.9</ele>
        <time>2021-08-28T09:20:55Z</time>
      </trkpt>
      <trkpt lat="45.58627" lon="5.99716">
        <ele>588.3</ele>
        <time>2021-08-28T09:20:56Z</time>
      </trkpt>
      <trkpt lat="45.58626" lon="5.99711">
        <ele>587.9</ele>
        <time>2021-08-28T09:20:57Z</time>
      </trkpt>
      <trkpt lat="45.58624" lon="5.99706">
        <ele>587.5</ele>
        <time>2021-08-28T09:20:58Z</time>
      </trkpt>
      <trkpt lat="45.58623" lon="5.99704">
        <ele>587.3</ele>
        <time>2021-08-28T09:20:59Z</time>
      </trkpt>
      <trkpt lat="45.58622" lon="5.99699">
        <ele>587.5</ele>
        <time>2021-08-28T09:21:00Z</time>
      </trkpt>
      <trkpt lat="45.58621" lon="5.99694">
        <ele>587.7</ele>
        <time>2021-08-28T09:21:01Z</time>
      </trkpt>
      <trkpt lat="45.5862" lon="5.99689">
        <ele>587.1</ele>
        <time>2021-08-28T09:21:02Z</time>
      </trkpt>
      <trkpt lat="45.5862" lon="5.99684">
        <ele>586.5</ele>
        <time>2021-08-28T09:21:03Z</time>
      </trkpt>
      <trkpt lat="45.5862" lon="5.99682">
        <ele>586.3</ele>
        <time>2021-08-28T09:21:04Z</time>
      </trkpt>
      <trkpt lat="45.58618" lon="5.99679">
        <ele>585.8</ele>
        <time>2021-08-28T09:21:05Z</time>
      </trkpt>
      <trkpt lat="45.58616" lon="5.99675">
        <ele>585.4</ele>
        <time>2021-08-28T09:21:06Z</time>
      </trkpt>
      <trkpt lat="45.58614" lon="5.99671">
        <ele>584.9</ele>
        <time>2021-08-28T09:21:07Z</time>
      </trkpt>
      <trkpt lat="45.58612" lon="5.99667">
        <ele>584.5</ele>
        <time>2021-08-28T09:21:08Z</time>
      </trkpt>
      <trkpt lat="45.58611" lon="5.99667">
        <ele>584.4</ele>
        <time>2021-08-28T09:21:09Z</time>
      </trkpt>
      <trkpt lat="45.5861" lon="5.99666">
        <ele>584.3</ele>
        <time>2021-08-28T09:21:10Z</time>
      </trkpt>
      <trkpt lat="45.58608" lon="5.99665">
        <ele>584.2</ele>
        <time>2021-08-28T09:21:11Z</time>
      </trkpt>
      <trkpt lat="45.58608" lon="5.99665">
        <ele>584.2</ele>
        <time>2021-08-28T09:21:12Z</time>
      </trkpt>
      <trkpt lat="45.58608" lon="5.99663">
        <ele>584.1</ele>
        <time>2021-08-28T09:21:13Z</time>
      </trkpt>
      <trkpt lat="45.58608" lon="5.99661">
        <ele>584</ele>
        <time>2021-08-28T09:21:14Z</time>
      </trkpt>
      <trkpt lat="45.58607" lon="5.99659">
        <ele>583.9</ele>
        <time>2021-08-28T09:21:15Z</time>
      </trkpt>
      <trkpt lat="45.58606" lon="5.99659">
        <ele>583.8</ele>
        <time>2021-08-28T09:21:16Z</time>
      </trkpt>
      <trkpt lat="45.58604" lon="5.9966">
        <ele>583.8</ele>
        <time>2021-08-28T09:21:17Z</time>
      </trkpt>
      <trkpt lat="45.58603" lon="5.99663">
        <ele>583.9</ele>
        <time>2021-08-28T09:21:18Z</time>
      </trkpt>
      <trkpt lat="45.58604" lon="5.99666">
        <ele>584</ele>
        <time>2021-08-28T09:21:19Z</time>
      </trkpt>
      <trkpt lat="45.58604" lon="5.99668">
        <ele>584</ele>
        <time>2021-08-28T09:21:20Z</time>
      </trkpt>
      <trkpt lat="45.58604" lon="5.99669">
        <ele>584.1</ele>
        <time>2021-08-28T09:21:21Z</time>
      </trkpt>
      <trkpt lat="45.58604" lon="5.99672">
        <ele>584.1</ele>
        <time>2021-08-28T09:21:22Z</time>
      </trkpt>
      <trkpt lat="45.58603" lon="5.99674">
        <ele>584.2</ele>
        <time>2021-08-28T09:21:23Z</time>
      </trkpt>
      <trkpt lat="45.58602" lon="5.99675">
        <ele>584.2</ele>
        <time>2021-08-28T09:21:24Z</time>
      </trkpt>
      <trkpt lat="45.58601" lon="5.99679">
        <ele>584.3</ele>
        <time>2021-08-28T09:21:25Z</time>
      </trkpt>
      <trkpt lat="45.586" lon="5.9968">
        <ele>584.4</ele>
        <time>2021-08-28T09:21:26Z</time>
      </trkpt>
      <trkpt lat="45.586" lon="5.99683">
        <ele>584.4</ele>
        <time>2021-08-28T09:21:27Z</time>
      </trkpt>
      <trkpt lat="45.586" lon="5.99685">
        <ele>584.5</ele>
        <time>2021-08-28T09:21:28Z</time>
      </trkpt>
      <trkpt lat="45.58599" lon="5.9969">
        <ele>584.6</ele>
        <time>2021-08-28T09:21:29Z</time>
      </trkpt>
      <trkpt lat="45.58599" lon="5.99692">
        <ele>584.6</ele>
        <time>2021-08-28T09:21:30Z</time>
      </trkpt>
      <trkpt lat="45.586" lon="5.99696">
        <ele>584.7</ele>
        <time>2021-08-28T09:21:31Z</time>
      </trkpt>
      <trkpt lat="45.58605" lon="5.99696">
        <ele>584.7</ele>
        <time>2021-08-28T09:21:32Z</time>
      </trkpt>
      <trkpt lat="45.58607" lon="5.99689">
        <ele>584.7</ele>
        <time>2021-08-28T09:21:34Z</time>
      </trkpt>
      <trkpt lat="45.58607" lon="5.99682">
        <ele>584.6</ele>
        <time>2021-08-28T09:21:35Z</time>
      </trkpt>
      <trkpt lat="45.58607" lon="5.99678">
        <ele>584.6</ele>
        <time>2021-08-28T09:21:37Z</time>
      </trkpt>
      <trkpt lat="45.58607" lon="5.99677">
        <ele>584.6</ele>
        <time>2021-08-28T09:21:38Z</time>
      </trkpt>
      <trkpt lat="45.58608" lon="5.99668">
        <ele>584.3</ele>
        <time>2021-08-28T09:21:40Z</time>
      </trkpt>
      <trkpt lat="45.58607" lon="5.99662">
        <ele>584.1</ele>
        <time>2021-08-28T09:21:41Z</time>
      </trkpt>
      <trkpt lat="45.58607" lon="5.99659">
        <ele>583.9</ele>
        <time>2021-08-28T09:21:42Z</time>
      </trkpt>
      <trkpt lat="45.58607" lon="5.99656">
        <ele>583.7</ele>
        <time>2021-08-28T09:21:44Z</time>
      </trkpt>
      <trkpt lat="45.58602" lon="5.99651">
        <ele>583.5</ele>
        <time>2021-08-28T09:21:47Z</time>
      </trkpt>
      <trkpt lat="45.58599" lon="5.99649">
        <ele>583.4</ele>
        <time>2021-08-28T09:21:48Z</time>
      </trkpt>
      <trkpt lat="45.58598" lon="5.99644">
        <ele>583.3</ele>
        <time>2021-08-28T09:21:50Z</time>
      </trkpt>
      <trkpt lat="45.586" lon="5.99636">
        <ele>583.1</ele>
        <time>2021-08-28T09:21:53Z</time>
      </trkpt>
      <trkpt lat="45.58601" lon="5.99631">
        <ele>583</ele>
        <time>2021-08-28T09:21:54Z</time>
      </trkpt>
      <trkpt lat="45.58601" lon="5.99622">
        <ele>582.7</ele>
        <time>2021-08-28T09:21:55Z</time>
      </trkpt>
      <trkpt lat="45.58601" lon="5.99617">
        <ele>582.6</ele>
        <time>2021-08-28T09:21:56Z</time>
      </trkpt>
      <trkpt lat="45.58601" lon="5.99609">
        <ele>582.4</ele>
        <time>2021-08-28T09:21:58Z</time>
      </trkpt>
      <trkpt lat="45.58601" lon="5.99604">
        <ele>582.2</ele>
        <time>2021-08-28T09:21:59Z</time>
      </trkpt>
      <trkpt lat="45.58602" lon="5.99591">
        <ele>581.9</ele>
        <time>2021-08-28T09:22:00Z</time>
      </trkpt>
      <trkpt lat="45.58602" lon="5.99586">
        <ele>581.7</ele>
        <time>2021-08-28T09:22:02Z</time>
      </trkpt>
      <trkpt lat="45.58604" lon="5.99574">
        <ele>581.4</ele>
        <time>2021-08-28T09:22:04Z</time>
      </trkpt>
      <trkpt lat="45.58604" lon="5.99557">
        <ele>581</ele>
        <time>2021-08-28T09:22:07Z</time>
      </trkpt>
      <trkpt lat="45.58606" lon="5.9955">
        <ele>580.8</ele>
        <time>2021-08-28T09:22:08Z</time>
      </trkpt>
      <trkpt lat="45.58607" lon="5.99543">
        <ele>580.7</ele>
        <time>2021-08-28T09:22:09Z</time>
      </trkpt>
      <trkpt lat="45.58609" lon="5.99535">
        <ele>580.5</ele>
        <time>2021-08-28T09:22:12Z</time>
      </trkpt>
      <trkpt lat="45.5861" lon="5.99519">
        <ele>580.2</ele>
        <time>2021-08-28T09:22:13Z</time>
      </trkpt>
      <trkpt lat="45.58606" lon="5.99506">
        <ele>580</ele>
        <time>2021-08-28T09:22:15Z</time>
      </trkpt>
      <trkpt lat="45.58607" lon="5.99496">
        <ele>579.7</ele>
        <time>2021-08-28T09:22:18Z</time>
      </trkpt>
      <trkpt lat="45.58607" lon="5.9949">
        <ele>579.5</ele>
        <time>2021-08-28T09:22:19Z</time>
      </trkpt>
      <trkpt lat="45.58608" lon="5.99481">
        <ele>579.2</ele>
        <time>2021-08-28T09:22:20Z</time>
      </trkpt>
      <trkpt lat="45.58609" lon="5.99474">
        <ele>579</ele>
        <time>2021-08-28T09:22:22Z</time>
      </trkpt>
      <trkpt lat="45.58611" lon="5.99464">
        <ele>578.7</ele>
        <time>2021-08-28T09:22:23Z</time>
      </trkpt>
      <trkpt lat="45.5861" lon="5.99457">
        <ele>578.5</ele>
        <time>2021-08-28T09:22:24Z</time>
      </trkpt>
      <trkpt lat="45.5861" lon="5.9945">
        <ele>578.3</ele>
        <time>2021-08-28T09:22:26Z</time>
      </trkpt>
      <trkpt lat="45.58611" lon="5.99441">
        <ele>578.1</ele>
        <time>2021-08-28T09:22:28Z</time>
      </trkpt>
      <trkpt lat="45.5861" lon="5.99436">
        <ele>577.9</ele>
        <time>2021-08-28T09:22:29Z</time>
      </trkpt>
      <trkpt lat="45.58609" lon="5.99428">
        <ele>577.6</ele>
        <time>2021-08-28T09:22:30Z</time>
      </trkpt>
      <trkpt lat="45.58607" lon="5.99417">
        <ele>577.1</ele>
        <time>2021-08-28T09:22:32Z</time>
      </trkpt>
      <trkpt lat="45.58606" lon="5.9941">
        <ele>576.8</ele>
        <time>2021-08-28T09:22:33Z</time>
      </trkpt>
      <trkpt lat="45.58605" lon="5.994">
        <ele>576.4</ele>
        <time>2021-08-28T09:22:36Z</time>
      </trkpt>
      <trkpt lat="45.58603" lon="5.99391">
        <ele>575.9</ele>
        <time>2021-08-28T09:22:37Z</time>
      </trkpt>
      <trkpt lat="45.58605" lon="5.99381">
        <ele>575.5</ele>
        <time>2021-08-28T09:22:39Z</time>
      </trkpt>
      <trkpt lat="45.58606" lon="5.99373">
        <ele>575.1</ele>
        <time>2021-08-28T09:22:40Z</time>
      </trkpt>
      <trkpt lat="45.58607" lon="5.99362">
        <ele>574.6</ele>
        <time>2021-08-28T09:22:41Z</time>
      </trkpt>
      <trkpt lat="45.58609" lon="5.99356">
        <ele>574.5</ele>
        <time>2021-08-28T09:22:43Z</time>
      </trkpt>
      <trkpt lat="45.58609" lon="5.99342">
        <ele>574.3</ele>
        <time>2021-08-28T09:22:44Z</time>
      </trkpt>
      <trkpt lat="45.58608" lon="5.99336">
        <ele>574.2</ele>
        <time>2021-08-28T09:22:46Z</time>
      </trkpt>
      <trkpt lat="45.58608" lon="5.99333">
        <ele>574.2</ele>
        <time>2021-08-28T09:22:47Z</time>
      </trkpt>
      <trkpt lat="45.58607" lon="5.99333">
        <ele>574.2</ele>
        <time>2021-08-28T09:22:49Z</time>
      </trkpt>
      <trkpt lat="45.58607" lon="5.9934">
        <ele>574.1</ele>
        <time>2021-08-28T09:22:52Z</time>
      </trkpt>
      <trkpt lat="45.58607" lon="5.99341">
        <ele>574.1</ele>
        <time>2021-08-28T09:22:53Z</time>
      </trkpt>
      <trkpt lat="45.58606" lon="5.99342">
        <ele>574.1</ele>
        <time>2021-08-28T09:22:54Z</time>
      </trkpt>
      <trkpt lat="45.58607" lon="5.99341">
        <ele>574.1</ele>
        <time>2021-08-28T09:22:55Z</time>
      </trkpt>
      <trkpt lat="45.58607" lon="5.9934">
        <ele>574.1</ele>
        <time>2021-08-28T09:22:58Z</time>
      </trkpt>
      <trkpt lat="45.58607" lon="5.99341">
        <ele>574.1</ele>
        <time>2021-08-28T09:22:59Z</time>
      </trkpt>
      <trkpt lat="45.58606" lon="5.9934">
        <ele>574.1</ele>
        <time>2021-08-28T09:23:00Z</time>
      </trkpt>
      <trkpt lat="45.58606" lon="5.9934">
        <ele>574</ele>
        <time>2021-08-28T09:23:01Z</time>
      </trkpt>
      <trkpt lat="45.58606" lon="5.9934">
        <ele>574</ele>
        <time>2021-08-28T09:23:02Z</time>
      </trkpt>
      <trkpt lat="45.58606" lon="5.9934">
        <ele>574</ele>
        <time>2021-08-28T09:23:03Z</time>
      </trkpt>
      <trkpt lat="45.58606" lon="5.99339">
        <ele>574</ele>
        <time>2021-08-28T09:23:04Z</time>
      </trkpt>
      <trkpt lat="45.58604" lon="5.99335">
        <ele>574</ele>
        <time>2021-08-28T09:23:06Z</time>
      </trkpt>
      <trkpt lat="45.58601" lon="5.99328">
        <ele>573.6</ele>
        <time>2021-08-28T09:23:08Z</time>
      </trkpt>
      <trkpt lat="45.58601" lon="5.99327">
        <ele>573.7</ele>
        <time>2021-08-28T09:23:11Z</time>
      </trkpt>
      <trkpt lat="45.58601" lon="5.99328">
        <ele>573.7</ele>
        <time>2021-08-28T09:23:12Z</time>
      </trkpt>
      <trkpt lat="45.58601" lon="5.99329">
        <ele>573.7</ele>
        <time>2021-08-28T09:23:13Z</time>
      </trkpt>
      <trkpt lat="45.58601" lon="5.99329">
        <ele>573.8</ele>
        <time>2021-08-28T09:23:14Z</time>
      </trkpt>
      <trkpt lat="45.58601" lon="5.9933">
        <ele>573.8</ele>
        <time>2021-08-28T09:23:15Z</time>
      </trkpt>
      <trkpt lat="45.58601" lon="5.9933">
        <ele>573.8</ele>
        <time>2021-08-28T09:23:16Z</time>
      </trkpt>
      <trkpt lat="45.58601" lon="5.9933">
        <ele>573.8</ele>
        <time>2021-08-28T09:23:17Z</time>
      </trkpt>
      <trkpt lat="45.58604" lon="5.99334">
        <ele>574</ele>
        <time>2021-08-28T09:25:00Z</time>
      </trkpt>
      <trkpt lat="45.58603" lon="5.99338">
        <ele>574.1</ele>
        <time>2021-08-28T09:25:01Z</time>
      </trkpt>
      <trkpt lat="45.58603" lon="5.9934">
        <ele>574.2</ele>
        <time>2021-08-28T09:25:03Z</time>
      </trkpt>
      <trkpt lat="45.58602" lon="5.99344">
        <ele>574.4</ele>
        <time>2021-08-28T09:25:04Z</time>
      </trkpt>
      <trkpt lat="45.58602" lon="5.99346">
        <ele>574.4</ele>
        <time>2021-08-28T09:25:05Z</time>
      </trkpt>
      <trkpt lat="45.58602" lon="5.99349">
        <ele>574.4</ele>
        <time>2021-08-28T09:25:06Z</time>
      </trkpt>
      <trkpt lat="45.58601" lon="5.9935">
        <ele>574.4</ele>
        <time>2021-08-28T09:25:07Z</time>
      </trkpt>
      <trkpt lat="45.586" lon="5.99353">
        <ele>574.4</ele>
        <time>2021-08-28T09:25:09Z</time>
      </trkpt>
      <trkpt lat="45.586" lon="5.99353">
        <ele>574.4</ele>
        <time>2021-08-28T09:25:12Z</time>
      </trkpt>
      <trkpt lat="45.586" lon="5.99353">
        <ele>574.4</ele>
        <time>2021-08-28T09:25:13Z</time>
      </trkpt>
      <trkpt lat="45.586" lon="5.99353">
        <ele>574.4</ele>
        <time>2021-08-28T09:25:14Z</time>
      </trkpt>
      <trkpt lat="45.586" lon="5.99352">
        <ele>574.4</ele>
        <time>2021-08-28T09:25:15Z</time>
      </trkpt>
      <trkpt lat="45.586" lon="5.99352">
        <ele>574.4</ele>
        <time>2021-08-28T09:25:16Z</time>
      </trkpt>
      <trkpt lat="45.586" lon="5.99352">
        <ele>574.4</ele>
        <time>2021-08-28T09:25:17Z</time>
      </trkpt>
      <trkpt lat="45.586" lon="5.99352">
        <ele>574.4</ele>
        <time>2021-08-28T09:25:18Z</time>
      </trkpt>
      <trkpt lat="45.58599" lon="5.99352">
        <ele>574.4</ele>
        <time>2021-08-28T09:25:19Z</time>
      </trkpt>
      <trkpt lat="45.58608" lon="5.99356">
        <ele>574.4</ele>
        <time>2021-08-28T09:25:29Z</time>
      </trkpt>
      <trkpt lat="45.5861" lon="5.99358">
        <ele>574.4</ele>
        <time>2021-08-28T09:25:30Z</time>
      </trkpt>
      <trkpt lat="45.58611" lon="5.99347">
        <ele>574.4</ele>
        <time>2021-08-28T09:25:31Z</time>
      </trkpt>
      <trkpt lat="45.58605" lon="5.9934">
        <ele>574.4</ele>
        <time>2021-08-28T09:25:32Z</time>
      </trkpt>
      <trkpt lat="45.58599" lon="5.9934">
        <ele>574.4</ele>
        <time>2021-08-28T09:25:34Z</time>
      </trkpt>
      <trkpt lat="45.58596" lon="5.99345">
        <ele>574.4</ele>
        <time>2021-08-28T09:25:35Z</time>
      </trkpt>
      <trkpt lat="45.58596" lon="5.99349">
        <ele>574.5</ele>
        <time>2021-08-28T09:25:36Z</time>
      </trkpt>
      <trkpt lat="45.58595" lon="5.99355">
        <ele>574.5</ele>
        <time>2021-08-28T09:25:38Z</time>
      </trkpt>
      <trkpt lat="45.58597" lon="5.99365">
        <ele>574.7</ele>
        <time>2021-08-28T09:25:41Z</time>
      </trkpt>
      <trkpt lat="45.58597" lon="5.99369">
        <ele>574.9</ele>
        <time>2021-08-28T09:25:42Z</time>
      </trkpt>
      <trkpt lat="45.58598" lon="5.99373">
        <ele>575.1</ele>
        <time>2021-08-28T09:25:43Z</time>
      </trkpt>
      <trkpt lat="45.58598" lon="5.99379">
        <ele>575.3</ele>
        <time>2021-08-28T09:25:45Z</time>
      </trkpt>
      <trkpt lat="45.58598" lon="5.99382">
        <ele>575.4</ele>
        <time>2021-08-28T09:25:46Z</time>
      </trkpt>
      <trkpt lat="45.586" lon="5.99395">
        <ele>576</ele>
        <time>2021-08-28T09:25:49Z</time>
      </trkpt>
      <trkpt lat="45.58597" lon="5.99403">
        <ele>576.4</ele>
        <time>2021-08-28T09:25:50Z</time>
      </trkpt>
      <trkpt lat="45.58597" lon="5.99407">
        <ele>576.6</ele>
        <time>2021-08-28T09:25:52Z</time>
      </trkpt>
      <trkpt lat="45.58598" lon="5.99409">
        <ele>576.7</ele>
        <time>2021-08-28T09:25:53Z</time>
      </trkpt>
      <trkpt lat="45.58599" lon="5.99416">
        <ele>577</ele>
        <time>2021-08-28T09:25:55Z</time>
      </trkpt>
      <trkpt lat="45.58599" lon="5.99421">
        <ele>577.2</ele>
        <time>2021-08-28T09:25:57Z</time>
      </trkpt>
      <trkpt lat="45.58599" lon="5.99426">
        <ele>577.4</ele>
        <time>2021-08-28T09:25:58Z</time>
      </trkpt>
      <trkpt lat="45.58599" lon="5.99428">
        <ele>577.5</ele>
        <time>2021-08-28T09:25:59Z</time>
      </trkpt>
      <trkpt lat="45.58599" lon="5.99435">
        <ele>577.8</ele>
        <time>2021-08-28T09:26:00Z</time>
      </trkpt>
      <trkpt lat="45.586" lon="5.99438">
        <ele>577.9</ele>
        <time>2021-08-28T09:26:02Z</time>
      </trkpt>
      <trkpt lat="45.586" lon="5.99443">
        <ele>578.1</ele>
        <time>2021-08-28T09:26:04Z</time>
      </trkpt>
      <trkpt lat="45.58601" lon="5.99446">
        <ele>578.2</ele>
        <time>2021-08-28T09:26:05Z</time>
      </trkpt>
      <trkpt lat="45.58603" lon="5.99451">
        <ele>578.3</ele>
        <time>2021-08-28T09:26:07Z</time>
      </trkpt>
      <trkpt lat="45.58606" lon="5.99457">
        <ele>578.5</ele>
        <time>2021-08-28T09:26:10Z</time>
      </trkpt>
      <trkpt lat="45.58606" lon="5.9946">
        <ele>578.6</ele>
        <time>2021-08-28T09:26:11Z</time>
      </trkpt>
      <trkpt lat="45.58606" lon="5.99468">
        <ele>578.8</ele>
        <time>2021-08-28T09:26:13Z</time>
      </trkpt>
      <trkpt lat="45.58606" lon="5.99473">
        <ele>579</ele>
        <time>2021-08-28T09:26:14Z</time>
      </trkpt>
      <trkpt lat="45.58606" lon="5.99477">
        <ele>579.1</ele>
        <time>2021-08-28T09:26:15Z</time>
      </trkpt>
      <trkpt lat="45.58606" lon="5.99482">
        <ele>579.2</ele>
        <time>2021-08-28T09:26:16Z</time>
      </trkpt>
      <trkpt lat="45.58606" lon="5.99487">
        <ele>579.4</ele>
        <time>2021-08-28T09:26:18Z</time>
      </trkpt>
      <trkpt lat="45.58605" lon="5.99492">
        <ele>579.5</ele>
        <time>2021-08-28T09:26:19Z</time>
      </trkpt>
      <trkpt lat="45.58605" lon="5.99493">
        <ele>579.6</ele>
        <time>2021-08-28T09:26:20Z</time>
      </trkpt>
      <trkpt lat="45.58605" lon="5.99497">
        <ele>579.7</ele>
        <time>2021-08-28T09:26:21Z</time>
      </trkpt>
      <trkpt lat="45.58604" lon="5.99504">
        <ele>579.9</ele>
        <time>2021-08-28T09:26:23Z</time>
      </trkpt>
      <trkpt lat="45.58604" lon="5.99506">
        <ele>579.9</ele>
        <time>2021-08-28T09:26:24Z</time>
      </trkpt>
      <trkpt lat="45.58604" lon="5.99508">
        <ele>580</ele>
        <time>2021-08-28T09:26:25Z</time>
      </trkpt>
      <trkpt lat="45.58605" lon="5.99515">
        <ele>580.1</ele>
        <time>2021-08-28T09:26:27Z</time>
      </trkpt>
      <trkpt lat="45.58605" lon="5.99521">
        <ele>580.2</ele>
        <time>2021-08-28T09:26:29Z</time>
      </trkpt>
      <trkpt lat="45.58605" lon="5.99525">
        <ele>580.3</ele>
        <time>2021-08-28T09:26:30Z</time>
      </trkpt>
      <trkpt lat="45.58606" lon="5.99529">
        <ele>580.4</ele>
        <time>2021-08-28T09:26:32Z</time>
      </trkpt>
      <trkpt lat="45.58607" lon="5.99538">
        <ele>580.6</ele>
        <time>2021-08-28T09:26:35Z</time>
      </trkpt>
      <trkpt lat="45.58607" lon="5.99547">
        <ele>580.8</ele>
        <time>2021-08-28T09:26:36Z</time>
      </trkpt>
      <trkpt lat="45.58606" lon="5.99551">
        <ele>580.9</ele>
        <time>2021-08-28T09:26:38Z</time>
      </trkpt>
      <trkpt lat="45.58605" lon="5.99557">
        <ele>581</ele>
        <time>2021-08-28T09:26:40Z</time>
      </trkpt>
      <trkpt lat="45.58604" lon="5.9956">
        <ele>581.1</ele>
        <time>2021-08-28T09:26:41Z</time>
      </trkpt>
      <trkpt lat="45.58603" lon="5.99568">
        <ele>581.3</ele>
        <time>2021-08-28T09:26:43Z</time>
      </trkpt>
      <trkpt lat="45.58603" lon="5.99573">
        <ele>581.4</ele>
        <time>2021-08-28T09:26:45Z</time>
      </trkpt>
      <trkpt lat="45.58602" lon="5.99576">
        <ele>581.5</ele>
        <time>2021-08-28T09:26:46Z</time>
      </trkpt>
      <trkpt lat="45.58602" lon="5.99582">
        <ele>581.7</ele>
        <time>2021-08-28T09:26:48Z</time>
      </trkpt>
      <trkpt lat="45.58602" lon="5.99588">
        <ele>581.8</ele>
        <time>2021-08-28T09:26:50Z</time>
      </trkpt>
      <trkpt lat="45.58603" lon="5.99596">
        <ele>582</ele>
        <time>2021-08-28T09:26:52Z</time>
      </trkpt>
      <trkpt lat="45.58602" lon="5.99603">
        <ele>582.2</ele>
        <time>2021-08-28T09:26:53Z</time>
      </trkpt>
      <trkpt lat="45.58602" lon="5.99607">
        <ele>582.3</ele>
        <time>2021-08-28T09:26:54Z</time>
      </trkpt>
      <trkpt lat="45.58602" lon="5.99613">
        <ele>582.5</ele>
        <time>2021-08-28T09:26:56Z</time>
      </trkpt>
      <trkpt lat="45.58602" lon="5.99615">
        <ele>582.6</ele>
        <time>2021-08-28T09:26:57Z</time>
      </trkpt>
      <trkpt lat="45.58602" lon="5.99617">
        <ele>582.6</ele>
        <time>2021-08-28T09:26:58Z</time>
      </trkpt>
      <trkpt lat="45.58602" lon="5.99621">
        <ele>582.7</ele>
        <time>2021-08-28T09:26:59Z</time>
      </trkpt>
      <trkpt lat="45.58601" lon="5.99628">
        <ele>582.9</ele>
        <time>2021-08-28T09:27:01Z</time>
      </trkpt>
      <trkpt lat="45.58601" lon="5.99631">
        <ele>583</ele>
        <time>2021-08-28T09:27:02Z</time>
      </trkpt>
      <trkpt lat="45.586" lon="5.99642">
        <ele>583.3</ele>
        <time>2021-08-28T09:27:05Z</time>
      </trkpt>
      <trkpt lat="45.586" lon="5.99647">
        <ele>583.4</ele>
        <time>2021-08-28T09:27:06Z</time>
      </trkpt>
      <trkpt lat="45.58598" lon="5.99653">
        <ele>583.6</ele>
        <time>2021-08-28T09:27:08Z</time>
      </trkpt>
      <trkpt lat="45.58598" lon="5.99659">
        <ele>583.7</ele>
        <time>2021-08-28T09:27:10Z</time>
      </trkpt>
      <trkpt lat="45.58599" lon="5.99664">
        <ele>583.8</ele>
        <time>2021-08-28T09:27:12Z</time>
      </trkpt>
      <trkpt lat="45.58598" lon="5.99665">
        <ele>583.8</ele>
        <time>2021-08-28T09:27:13Z</time>
      </trkpt>
      <trkpt lat="45.58597" lon="5.9966">
        <ele>583.7</ele>
        <time>2021-08-28T09:27:14Z</time>
      </trkpt>
      <trkpt lat="45.58597" lon="5.99658">
        <ele>583.7</ele>
        <time>2021-08-28T09:27:15Z</time>
      </trkpt>
      <trkpt lat="45.58598" lon="5.99658">
        <ele>583.6</ele>
        <time>2021-08-28T09:27:17Z</time>
      </trkpt>
      <trkpt lat="45.58599" lon="5.99657">
        <ele>583.6</ele>
        <time>2021-08-28T09:27:20Z</time>
      </trkpt>
      <trkpt lat="45.58599" lon="5.99657">
        <ele>583.6</ele>
        <time>2021-08-28T09:27:23Z</time>
      </trkpt>
      <trkpt lat="45.586" lon="5.99657">
        <ele>583.6</ele>
        <time>2021-08-28T09:27:24Z</time>
      </trkpt>
      <trkpt lat="45.58601" lon="5.99657">
        <ele>583.6</ele>
        <time>2021-08-28T09:27:25Z</time>
      </trkpt>
      <trkpt lat="45.58601" lon="5.99657">
        <ele>583.6</ele>
        <time>2021-08-28T09:27:26Z</time>
      </trkpt>
      <trkpt lat="45.58602" lon="5.99656">
        <ele>583.5</ele>
        <time>2021-08-28T09:27:27Z</time>
      </trkpt>
      <trkpt lat="45.58603" lon="5.99656">
        <ele>583.5</ele>
        <time>2021-08-28T09:27:30Z</time>
      </trkpt>
      <trkpt lat="45.58603" lon="5.99656">
        <ele>583.5</ele>
        <time>2021-08-28T09:27:31Z</time>
      </trkpt>
      <trkpt lat="45.58604" lon="5.99656">
        <ele>583.5</ele>
        <time>2021-08-28T09:27:32Z</time>
      </trkpt>
      <trkpt lat="45.58605" lon="5.99656">
        <ele>583.5</ele>
        <time>2021-08-28T09:27:33Z</time>
      </trkpt>
      <trkpt lat="45.58605" lon="5.99656">
        <ele>583.4</ele>
        <time>2021-08-28T09:29:21Z</time>
      </trkpt>
      <trkpt lat="45.58606" lon="5.99655">
        <ele>583.4</ele>
        <time>2021-08-28T09:29:22Z</time>
      </trkpt>
      <trkpt lat="45.58607" lon="5.99655">
        <ele>583.4</ele>
        <time>2021-08-28T09:29:23Z</time>
      </trkpt>
      <trkpt lat="45.58607" lon="5.99647">
        <ele>583.2</ele>
        <time>2021-08-28T09:29:25Z</time>
      </trkpt>
      <trkpt lat="45.58605" lon="5.9964">
        <ele>583.1</ele>
        <time>2021-08-28T09:29:26Z</time>
      </trkpt>
      <trkpt lat="45.58603" lon="5.99633">
        <ele>583</ele>
        <time>2021-08-28T09:29:27Z</time>
      </trkpt>
      <trkpt lat="45.58604" lon="5.9962">
        <ele>582.7</ele>
        <time>2021-08-28T09:29:29Z</time>
      </trkpt>
      <trkpt lat="45.58606" lon="5.99608">
        <ele>582.3</ele>
        <time>2021-08-28T09:29:30Z</time>
      </trkpt>
      <trkpt lat="45.58607" lon="5.99602">
        <ele>582.1</ele>
        <time>2021-08-28T09:29:32Z</time>
      </trkpt>
      <trkpt lat="45.58607" lon="5.99595">
        <ele>582</ele>
        <time>2021-08-28T09:29:33Z</time>
      </trkpt>
      <trkpt lat="45.58608" lon="5.99583">
        <ele>581.6</ele>
        <time>2021-08-28T09:29:35Z</time>
      </trkpt>
      <trkpt lat="45.58608" lon="5.9957">
        <ele>581.2</ele>
        <time>2021-08-28T09:29:37Z</time>
      </trkpt>
      <trkpt lat="45.5861" lon="5.9956">
        <ele>581</ele>
        <time>2021-08-28T09:29:40Z</time>
      </trkpt>
      <trkpt lat="45.5861" lon="5.99553">
        <ele>580.9</ele>
        <time>2021-08-28T09:29:41Z</time>
      </trkpt>
      <trkpt lat="45.58611" lon="5.99546">
        <ele>580.7</ele>
        <time>2021-08-28T09:29:42Z</time>
      </trkpt>
      <trkpt lat="45.58611" lon="5.99538">
        <ele>580.6</ele>
        <time>2021-08-28T09:29:43Z</time>
      </trkpt>
      <trkpt lat="45.58611" lon="5.99529">
        <ele>580.4</ele>
        <time>2021-08-28T09:29:44Z</time>
      </trkpt>
      <trkpt lat="45.58611" lon="5.99521">
        <ele>580.2</ele>
        <time>2021-08-28T09:29:45Z</time>
      </trkpt>
      <trkpt lat="45.5861" lon="5.99513">
        <ele>580.1</ele>
        <time>2021-08-28T09:29:46Z</time>
      </trkpt>
      <trkpt lat="45.5861" lon="5.99504">
        <ele>579.9</ele>
        <time>2021-08-28T09:29:47Z</time>
      </trkpt>
      <trkpt lat="45.5861" lon="5.99496">
        <ele>579.7</ele>
        <time>2021-08-28T09:29:48Z</time>
      </trkpt>
      <trkpt lat="45.58611" lon="5.99487">
        <ele>579.4</ele>
        <time>2021-08-28T09:29:49Z</time>
      </trkpt>
      <trkpt lat="45.58611" lon="5.99479">
        <ele>579.1</ele>
        <time>2021-08-28T09:29:50Z</time>
      </trkpt>
      <trkpt lat="45.58611" lon="5.9947">
        <ele>578.9</ele>
        <time>2021-08-28T09:29:51Z</time>
      </trkpt>
      <trkpt lat="45.5861" lon="5.99461">
        <ele>578.6</ele>
        <time>2021-08-28T09:29:52Z</time>
      </trkpt>
      <trkpt lat="45.5861" lon="5.99453">
        <ele>578.4</ele>
        <time>2021-08-28T09:29:53Z</time>
      </trkpt>
      <trkpt lat="45.58609" lon="5.99444">
        <ele>578.1</ele>
        <time>2021-08-28T09:29:54Z</time>
      </trkpt>
      <trkpt lat="45.58608" lon="5.99435">
        <ele>577.9</ele>
        <time>2021-08-28T09:29:55Z</time>
      </trkpt>
      <trkpt lat="45.58607" lon="5.99426">
        <ele>577.5</ele>
        <time>2021-08-28T09:29:56Z</time>
      </trkpt>
      <trkpt lat="45.58607" lon="5.99417">
        <ele>577.1</ele>
        <time>2021-08-28T09:29:57Z</time>
      </trkpt>
      <trkpt lat="45.58606" lon="5.99409">
        <ele>576.7</ele>
        <time>2021-08-28T09:29:58Z</time>
      </trkpt>
      <trkpt lat="45.58605" lon="5.994">
        <ele>576.3</ele>
        <time>2021-08-28T09:29:59Z</time>
      </trkpt>
      <trkpt lat="45.58604" lon="5.99392">
        <ele>575.9</ele>
        <time>2021-08-28T09:30:00Z</time>
      </trkpt>
      <trkpt lat="45.58604" lon="5.99383">
        <ele>575.5</ele>
        <time>2021-08-28T09:30:01Z</time>
      </trkpt>
      <trkpt lat="45.58604" lon="5.99373">
        <ele>575.1</ele>
        <time>2021-08-28T09:30:02Z</time>
      </trkpt>
      <trkpt lat="45.58604" lon="5.99364">
        <ele>574.7</ele>
        <time>2021-08-28T09:30:03Z</time>
      </trkpt>
      <trkpt lat="45.58604" lon="5.99353">
        <ele>574.4</ele>
        <time>2021-08-28T09:30:04Z</time>
      </trkpt>
      <trkpt lat="45.58604" lon="5.99343">
        <ele>574.4</ele>
        <time>2021-08-28T09:30:05Z</time>
      </trkpt>
      <trkpt lat="45.58603" lon="5.99332">
        <ele>573.8</ele>
        <time>2021-08-28T09:30:06Z</time>
      </trkpt>
      <trkpt lat="45.58603" lon="5.99321">
        <ele>573.3</ele>
        <time>2021-08-28T09:30:07Z</time>
      </trkpt>
      <trkpt lat="45.58603" lon="5.9931">
        <ele>572.7</ele>
        <time>2021-08-28T09:30:08Z</time>
      </trkpt>
      <trkpt lat="45.58603" lon="5.99298">
        <ele>572.1</ele>
        <time>2021-08-28T09:30:09Z</time>
      </trkpt>
      <trkpt lat="45.58603" lon="5.99287">
        <ele>571.6</ele>
        <time>2021-08-28T09:30:10Z</time>
      </trkpt>
      <trkpt lat="45.58602" lon="5.99275">
        <ele>571</ele>
        <time>2021-08-28T09:30:11Z</time>
      </trkpt>
      <trkpt lat="45.58601" lon="5.99263">
        <ele>570.5</ele>
        <time>2021-08-28T09:30:12Z</time>
      </trkpt>
      <trkpt lat="45.58599" lon="5.99251">
        <ele>569.9</ele>
        <time>2021-08-28T09:30:13Z</time>
      </trkpt>
      <trkpt lat="45.58597" lon="5.99239">
        <ele>569.3</ele>
        <time>2021-08-28T09:30:14Z</time>
      </trkpt>
      <trkpt lat="45.58595" lon="5.99227">
        <ele>568.7</ele>
        <time>2021-08-28T09:30:15Z</time>
      </trkpt>
      <trkpt lat="45.58593" lon="5.99215">
        <ele>568.1</ele>
        <time>2021-08-28T09:30:16Z</time>
      </trkpt>
      <trkpt lat="45.58591" lon="5.99202">
        <ele>567.5</ele>
        <time>2021-08-28T09:30:17Z</time>
      </trkpt>
      <trkpt lat="45.5859" lon="5.9919">
        <ele>566.9</ele>
        <time>2021-08-28T09:30:18Z</time>
      </trkpt>
      <trkpt lat="45.5859" lon="5.99177">
        <ele>566.3</ele>
        <time>2021-08-28T09:30:19Z</time>
      </trkpt>
      <trkpt lat="45.5859" lon="5.99164">
        <ele>565.7</ele>
        <time>2021-08-28T09:30:20Z</time>
      </trkpt>
      <trkpt lat="45.58591" lon="5.99152">
        <ele>565.1</ele>
        <time>2021-08-28T09:30:21Z</time>
      </trkpt>
      <trkpt lat="45.58593" lon="5.99139">
        <ele>564.5</ele>
        <time>2021-08-28T09:30:22Z</time>
      </trkpt>
      <trkpt lat="45.58595" lon="5.99125">
        <ele>563.9</ele>
        <time>2021-08-28T09:30:23Z</time>
      </trkpt>
      <trkpt lat="45.58596" lon="5.99112">
        <ele>563.4</ele>
        <time>2021-08-28T09:30:24Z</time>
      </trkpt>
      <trkpt lat="45.58597" lon="5.991">
        <ele>562.8</ele>
        <time>2021-08-28T09:30:25Z</time>
      </trkpt>
      <trkpt lat="45.58598" lon="5.99087">
        <ele>562.3</ele>
        <time>2021-08-28T09:30:26Z</time>
      </trkpt>
      <trkpt lat="45.586" lon="5.99074">
        <ele>561.7</ele>
        <time>2021-08-28T09:30:27Z</time>
      </trkpt>
      <trkpt lat="45.58601" lon="5.99061">
        <ele>561</ele>
        <time>2021-08-28T09:30:28Z</time>
      </trkpt>
      <trkpt lat="45.58603" lon="5.99048">
        <ele>560.3</ele>
        <time>2021-08-28T09:30:29Z</time>
      </trkpt>
      <trkpt lat="45.58604" lon="5.99037">
        <ele>559.7</ele>
        <time>2021-08-28T09:30:30Z</time>
      </trkpt>
      <trkpt lat="45.58606" lon="5.99026">
        <ele>559.1</ele>
        <time>2021-08-28T09:30:31Z</time>
      </trkpt>
      <trkpt lat="45.58608" lon="5.99015">
        <ele>558.4</ele>
        <time>2021-08-28T09:30:32Z</time>
      </trkpt>
      <trkpt lat="45.5861" lon="5.99004">
        <ele>557.6</ele>
        <time>2021-08-28T09:30:33Z</time>
      </trkpt>
      <trkpt lat="45.58611" lon="5.98991">
        <ele>556.8</ele>
        <time>2021-08-28T09:30:34Z</time>
      </trkpt>
      <trkpt lat="45.58613" lon="5.98978">
        <ele>555.8</ele>
        <time>2021-08-28T09:30:35Z</time>
      </trkpt>
      <trkpt lat="45.58614" lon="5.98964">
        <ele>554.8</ele>
        <time>2021-08-28T09:30:36Z</time>
      </trkpt>
      <trkpt lat="45.58614" lon="5.98951">
        <ele>553.9</ele>
        <time>2021-08-28T09:30:37Z</time>
      </trkpt>
      <trkpt lat="45.58614" lon="5.98937">
        <ele>552.8</ele>
        <time>2021-08-28T09:30:38Z</time>
      </trkpt>
      <trkpt lat="45.58613" lon="5.98923">
        <ele>551.7</ele>
        <time>2021-08-28T09:30:39Z</time>
      </trkpt>
      <trkpt lat="45.58612" lon="5.98908">
        <ele>550.6</ele>
        <time>2021-08-28T09:30:40Z</time>
      </trkpt>
      <trkpt lat="45.58612" lon="5.98892">
        <ele>549.7</ele>
        <time>2021-08-28T09:30:41Z</time>
      </trkpt>
      <trkpt lat="45.58612" lon="5.98878">
        <ele>548.8</ele>
        <time>2021-08-28T09:30:42Z</time>
      </trkpt>
      <trkpt lat="45.58611" lon="5.98863">
        <ele>547.9</ele>
        <time>2021-08-28T09:30:43Z</time>
      </trkpt>
      <trkpt lat="45.5861" lon="5.98848">
        <ele>546.7</ele>
        <time>2021-08-28T09:30:44Z</time>
      </trkpt>
      <trkpt lat="45.5861" lon="5.98832">
        <ele>545.4</ele>
        <time>2021-08-28T09:30:45Z</time>
      </trkpt>
      <trkpt lat="45.58609" lon="5.98816">
        <ele>544.1</ele>
        <time>2021-08-28T09:30:46Z</time>
      </trkpt>
      <trkpt lat="45.58607" lon="5.988">
        <ele>542.9</ele>
        <time>2021-08-28T09:30:47Z</time>
      </trkpt>
      <trkpt lat="45.58606" lon="5.98784">
        <ele>541.6</ele>
        <time>2021-08-28T09:30:48Z</time>
      </trkpt>
      <trkpt lat="45.58604" lon="5.98769">
        <ele>540.5</ele>
        <time>2021-08-28T09:30:49Z</time>
      </trkpt>
      <trkpt lat="45.58601" lon="5.98756">
        <ele>539.4</ele>
        <time>2021-08-28T09:30:50Z</time>
      </trkpt>
      <trkpt lat="45.58597" lon="5.98744">
        <ele>538.4</ele>
        <time>2021-08-28T09:30:51Z</time>
      </trkpt>
      <trkpt lat="45.58593" lon="5.98731">
        <ele>537.4</ele>
        <time>2021-08-28T09:30:52Z</time>
      </trkpt>
      <trkpt lat="45.58589" lon="5.98719">
        <ele>536.3</ele>
        <time>2021-08-28T09:30:53Z</time>
      </trkpt>
      <trkpt lat="45.58583" lon="5.98707">
        <ele>535.2</ele>
        <time>2021-08-28T09:30:54Z</time>
      </trkpt>
      <trkpt lat="45.58576" lon="5.98696">
        <ele>534.1</ele>
        <time>2021-08-28T09:30:55Z</time>
      </trkpt>
      <trkpt lat="45.58568" lon="5.98686">
        <ele>533</ele>
        <time>2021-08-28T09:30:56Z</time>
      </trkpt>
      <trkpt lat="45.5856" lon="5.98676">
        <ele>532.1</ele>
        <time>2021-08-28T09:30:57Z</time>
      </trkpt>
      <trkpt lat="45.58554" lon="5.98664">
        <ele>531.2</ele>
        <time>2021-08-28T09:30:58Z</time>
      </trkpt>
      <trkpt lat="45.58548" lon="5.98652">
        <ele>530.1</ele>
        <time>2021-08-28T09:30:59Z</time>
      </trkpt>
      <trkpt lat="45.58545" lon="5.98637">
        <ele>528.9</ele>
        <time>2021-08-28T09:31:00Z</time>
      </trkpt>
      <trkpt lat="45.58544" lon="5.98621">
        <ele>527.6</ele>
        <time>2021-08-28T09:31:01Z</time>
      </trkpt>
      <trkpt lat="45.58545" lon="5.98604">
        <ele>526.3</ele>
        <time>2021-08-28T09:31:02Z</time>
      </trkpt>
      <trkpt lat="45.58547" lon="5.98588">
        <ele>525.1</ele>
        <time>2021-08-28T09:31:03Z</time>
      </trkpt>
      <trkpt lat="45.58548" lon="5.98572">
        <ele>524</ele>
        <time>2021-08-28T09:31:04Z</time>
      </trkpt>
      <trkpt lat="45.58551" lon="5.98555">
        <ele>522.9</ele>
        <time>2021-08-28T09:31:05Z</time>
      </trkpt>
      <trkpt lat="45.58554" lon="5.98539">
        <ele>521.8</ele>
        <time>2021-08-28T09:31:06Z</time>
      </trkpt>
      <trkpt lat="45.58558" lon="5.98523">
        <ele>520.8</ele>
        <time>2021-08-28T09:31:07Z</time>
      </trkpt>
      <trkpt lat="45.58562" lon="5.98507">
        <ele>519.7</ele>
        <time>2021-08-28T09:31:08Z</time>
      </trkpt>
      <trkpt lat="45.58565" lon="5.9849">
        <ele>518.7</ele>
        <time>2021-08-28T09:31:09Z</time>
      </trkpt>
      <trkpt lat="45.58569" lon="5.98473">
        <ele>517.7</ele>
        <time>2021-08-28T09:31:10Z</time>
      </trkpt>
      <trkpt lat="45.58573" lon="5.98455">
        <ele>516.8</ele>
        <time>2021-08-28T09:31:11Z</time>
      </trkpt>
      <trkpt lat="45.58577" lon="5.98438">
        <ele>515.9</ele>
        <time>2021-08-28T09:31:12Z</time>
      </trkpt>
      <trkpt lat="45.58579" lon="5.98422">
        <ele>515.2</ele>
        <time>2021-08-28T09:31:13Z</time>
      </trkpt>
      <trkpt lat="45.5858" lon="5.98409">
        <ele>515.1</ele>
        <time>2021-08-28T09:31:14Z</time>
      </trkpt>
      <trkpt lat="45.58582" lon="5.98395">
        <ele>515</ele>
        <time>2021-08-28T09:31:15Z</time>
      </trkpt>
      <trkpt lat="45.58582" lon="5.98381">
        <ele>515.6</ele>
        <time>2021-08-28T09:31:16Z</time>
      </trkpt>
      <trkpt lat="45.58582" lon="5.98367">
        <ele>514.3</ele>
        <time>2021-08-28T09:31:17Z</time>
      </trkpt>
      <trkpt lat="45.58581" lon="5.98353">
        <ele>512.7</ele>
        <time>2021-08-28T09:31:18Z</time>
      </trkpt>
      <trkpt lat="45.5858" lon="5.98338">
        <ele>511.2</ele>
        <time>2021-08-28T09:31:19Z</time>
      </trkpt>
      <trkpt lat="45.5858" lon="5.98324">
        <ele>509.7</ele>
        <time>2021-08-28T09:31:20Z</time>
      </trkpt>
      <trkpt lat="45.5858" lon="5.9831">
        <ele>508.8</ele>
        <time>2021-08-28T09:31:21Z</time>
      </trkpt>
      <trkpt lat="45.58579" lon="5.98298">
        <ele>508</ele>
        <time>2021-08-28T09:31:22Z</time>
      </trkpt>
      <trkpt lat="45.58575" lon="5.98287">
        <ele>507.2</ele>
        <time>2021-08-28T09:31:23Z</time>
      </trkpt>
      <trkpt lat="45.58567" lon="5.98278">
        <ele>506.3</ele>
        <time>2021-08-28T09:31:24Z</time>
      </trkpt>
      <trkpt lat="45.58557" lon="5.98274">
        <ele>505.3</ele>
        <time>2021-08-28T09:31:25Z</time>
      </trkpt>
      <trkpt lat="45.58546" lon="5.98274">
        <ele>504.5</ele>
        <time>2021-08-28T09:31:26Z</time>
      </trkpt>
      <trkpt lat="45.58535" lon="5.98279">
        <ele>503.6</ele>
        <time>2021-08-28T09:31:27Z</time>
      </trkpt>
      <trkpt lat="45.58527" lon="5.98288">
        <ele>502.8</ele>
        <time>2021-08-28T09:31:28Z</time>
      </trkpt>
      <trkpt lat="45.5852" lon="5.983">
        <ele>501.9</ele>
        <time>2021-08-28T09:31:29Z</time>
      </trkpt>
      <trkpt lat="45.58515" lon="5.98314">
        <ele>501.1</ele>
        <time>2021-08-28T09:31:30Z</time>
      </trkpt>
      <trkpt lat="45.5851" lon="5.98327">
        <ele>500.3</ele>
        <time>2021-08-28T09:31:31Z</time>
      </trkpt>
      <trkpt lat="45.58506" lon="5.98342">
        <ele>499.6</ele>
        <time>2021-08-28T09:31:32Z</time>
      </trkpt>
      <trkpt lat="45.58501" lon="5.98356">
        <ele>498.9</ele>
        <time>2021-08-28T09:31:33Z</time>
      </trkpt>
      <trkpt lat="45.58497" lon="5.98371">
        <ele>498.4</ele>
        <time>2021-08-28T09:31:34Z</time>
      </trkpt>
      <trkpt lat="45.58493" lon="5.98386">
        <ele>497.9</ele>
        <time>2021-08-28T09:31:35Z</time>
      </trkpt>
      <trkpt lat="45.5849" lon="5.984">
        <ele>497.6</ele>
        <time>2021-08-28T09:31:36Z</time>
      </trkpt>
      <trkpt lat="45.58488" lon="5.98412">
        <ele>497.3</ele>
        <time>2021-08-28T09:31:37Z</time>
      </trkpt>
      <trkpt lat="45.58486" lon="5.9842">
        <ele>497.1</ele>
        <time>2021-08-28T09:31:38Z</time>
      </trkpt>
      <trkpt lat="45.58481" lon="5.98423">
        <ele>496.8</ele>
        <time>2021-08-28T09:31:39Z</time>
      </trkpt>
      <trkpt lat="45.58476" lon="5.98419">
        <ele>496.3</ele>
        <time>2021-08-28T09:31:40Z</time>
      </trkpt>
      <trkpt lat="45.58474" lon="5.9841">
        <ele>495.8</ele>
        <time>2021-08-28T09:31:41Z</time>
      </trkpt>
      <trkpt lat="45.58475" lon="5.98399">
        <ele>495.1</ele>
        <time>2021-08-28T09:31:42Z</time>
      </trkpt>
      <trkpt lat="45.58478" lon="5.9839">
        <ele>494.5</ele>
        <time>2021-08-28T09:31:43Z</time>
      </trkpt>
      <trkpt lat="45.58483" lon="5.98381">
        <ele>493.7</ele>
        <time>2021-08-28T09:31:44Z</time>
      </trkpt>
      <trkpt lat="45.58487" lon="5.98371">
        <ele>493.1</ele>
        <time>2021-08-28T09:31:45Z</time>
      </trkpt>
      <trkpt lat="45.5849" lon="5.9836">
        <ele>492.4</ele>
        <time>2021-08-28T09:31:46Z</time>
      </trkpt>
      <trkpt lat="45.58493" lon="5.98349">
        <ele>491.7</ele>
        <time>2021-08-28T09:31:47Z</time>
      </trkpt>
      <trkpt lat="45.58495" lon="5.98337">
        <ele>491.1</ele>
        <time>2021-08-28T09:31:48Z</time>
      </trkpt>
      <trkpt lat="45.58496" lon="5.98324">
        <ele>490.4</ele>
        <time>2021-08-28T09:31:49Z</time>
      </trkpt>
      <trkpt lat="45.58495" lon="5.98312">
        <ele>489.8</ele>
        <time>2021-08-28T09:31:50Z</time>
      </trkpt>
      <trkpt lat="45.58492" lon="5.983">
        <ele>489.1</ele>
        <time>2021-08-28T09:31:51Z</time>
      </trkpt>
      <trkpt lat="45.58487" lon="5.98288">
        <ele>488.3</ele>
        <time>2021-08-28T09:31:52Z</time>
      </trkpt>
      <trkpt lat="45.58481" lon="5.98278">
        <ele>487.4</ele>
        <time>2021-08-28T09:31:53Z</time>
      </trkpt>
      <trkpt lat="45.58474" lon="5.98267">
        <ele>486.5</ele>
        <time>2021-08-28T09:31:54Z</time>
      </trkpt>
      <trkpt lat="45.58468" lon="5.98255">
        <ele>485.5</ele>
        <time>2021-08-28T09:31:55Z</time>
      </trkpt>
      <trkpt lat="45.58462" lon="5.98243">
        <ele>484.6</ele>
        <time>2021-08-28T09:31:56Z</time>
      </trkpt>
      <trkpt lat="45.58457" lon="5.9823">
        <ele>483.6</ele>
        <time>2021-08-28T09:31:57Z</time>
      </trkpt>
      <trkpt lat="45.58451" lon="5.98218">
        <ele>482.7</ele>
        <time>2021-08-28T09:31:58Z</time>
      </trkpt>
      <trkpt lat="45.58447" lon="5.98205">
        <ele>481.7</ele>
        <time>2021-08-28T09:31:59Z</time>
      </trkpt>
      <trkpt lat="45.58443" lon="5.98191">
        <ele>480.8</ele>
        <time>2021-08-28T09:32:00Z</time>
      </trkpt>
      <trkpt lat="45.58438" lon="5.98177">
        <ele>479.9</ele>
        <time>2021-08-28T09:32:01Z</time>
      </trkpt>
      <trkpt lat="45.58434" lon="5.98163">
        <ele>479</ele>
        <time>2021-08-28T09:32:02Z</time>
      </trkpt>
      <trkpt lat="45.5843" lon="5.98148">
        <ele>478.1</ele>
        <time>2021-08-28T09:32:03Z</time>
      </trkpt>
      <trkpt lat="45.58426" lon="5.98133">
        <ele>477.3</ele>
        <time>2021-08-28T09:32:04Z</time>
      </trkpt>
      <trkpt lat="45.58422" lon="5.98119">
        <ele>476.5</ele>
        <time>2021-08-28T09:32:05Z</time>
      </trkpt>
      <trkpt lat="45.58418" lon="5.98104">
        <ele>475.7</ele>
        <time>2021-08-28T09:32:06Z</time>
      </trkpt>
      <trkpt lat="45.58416" lon="5.98088">
        <ele>474.7</ele>
        <time>2021-08-28T09:32:07Z</time>
      </trkpt>
      <trkpt lat="45.58416" lon="5.98072">
        <ele>473.8</ele>
        <time>2021-08-28T09:32:08Z</time>
      </trkpt>
      <trkpt lat="45.58418" lon="5.98056">
        <ele>472.8</ele>
        <time>2021-08-28T09:32:09Z</time>
      </trkpt>
      <trkpt lat="45.58422" lon="5.98041">
        <ele>471.9</ele>
        <time>2021-08-28T09:32:10Z</time>
      </trkpt>
      <trkpt lat="45.58429" lon="5.98027">
        <ele>470.9</ele>
        <time>2021-08-28T09:32:11Z</time>
      </trkpt>
      <trkpt lat="45.58437" lon="5.98016">
        <ele>469.9</ele>
        <time>2021-08-28T09:32:12Z</time>
      </trkpt>
      <trkpt lat="45.58446" lon="5.98008">
        <ele>468.9</ele>
        <time>2021-08-28T09:32:13Z</time>
      </trkpt>
      <trkpt lat="45.58457" lon="5.98002">
        <ele>467.8</ele>
        <time>2021-08-28T09:32:14Z</time>
      </trkpt>
      <trkpt lat="45.5847" lon="5.97999">
        <ele>466.8</ele>
        <time>2021-08-28T09:32:15Z</time>
      </trkpt>
      <trkpt lat="45.58481" lon="5.97996">
        <ele>465.9</ele>
        <time>2021-08-28T09:32:16Z</time>
      </trkpt>
      <trkpt lat="45.58492" lon="5.97991">
        <ele>465</ele>
        <time>2021-08-28T09:32:17Z</time>
      </trkpt>
      <trkpt lat="45.58501" lon="5.97981">
        <ele>464.3</ele>
        <time>2021-08-28T09:32:18Z</time>
      </trkpt>
      <trkpt lat="45.58509" lon="5.97969">
        <ele>463.6</ele>
        <time>2021-08-28T09:32:19Z</time>
      </trkpt>
      <trkpt lat="45.58516" lon="5.97955">
        <ele>463.1</ele>
        <time>2021-08-28T09:32:20Z</time>
      </trkpt>
      <trkpt lat="45.58523" lon="5.97942">
        <ele>462.7</ele>
        <time>2021-08-28T09:32:21Z</time>
      </trkpt>
      <trkpt lat="45.58531" lon="5.97933">
        <ele>462.4</ele>
        <time>2021-08-28T09:32:22Z</time>
      </trkpt>
      <trkpt lat="45.5854" lon="5.97929">
        <ele>462</ele>
        <time>2021-08-28T09:32:23Z</time>
      </trkpt>
      <trkpt lat="45.58547" lon="5.97927">
        <ele>461.5</ele>
        <time>2021-08-28T09:32:24Z</time>
      </trkpt>
      <trkpt lat="45.58549" lon="5.97921">
        <ele>461.4</ele>
        <time>2021-08-28T09:32:25Z</time>
      </trkpt>
      <trkpt lat="45.58547" lon="5.97913">
        <ele>460.7</ele>
        <time>2021-08-28T09:32:26Z</time>
      </trkpt>
      <trkpt lat="45.58541" lon="5.97908">
        <ele>460</ele>
        <time>2021-08-28T09:32:27Z</time>
      </trkpt>
      <trkpt lat="45.58534" lon="5.97907">
        <ele>459.3</ele>
        <time>2021-08-28T09:32:28Z</time>
      </trkpt>
      <trkpt lat="45.58527" lon="5.97912">
        <ele>458.6</ele>
        <time>2021-08-28T09:32:29Z</time>
      </trkpt>
      <trkpt lat="45.5852" lon="5.97918">
        <ele>457.9</ele>
        <time>2021-08-28T09:32:30Z</time>
      </trkpt>
      <trkpt lat="45.58514" lon="5.97925">
        <ele>457.3</ele>
        <time>2021-08-28T09:32:31Z</time>
      </trkpt>
      <trkpt lat="45.58507" lon="5.97932">
        <ele>456.6</ele>
        <time>2021-08-28T09:32:32Z</time>
      </trkpt>
      <trkpt lat="45.58499" lon="5.97939">
        <ele>455.9</ele>
        <time>2021-08-28T09:32:33Z</time>
      </trkpt>
      <trkpt lat="45.58492" lon="5.97946">
        <ele>455.3</ele>
        <time>2021-08-28T09:32:34Z</time>
      </trkpt>
      <trkpt lat="45.58483" lon="5.97951">
        <ele>454.6</ele>
        <time>2021-08-28T09:32:35Z</time>
      </trkpt>
      <trkpt lat="45.58474" lon="5.97953">
        <ele>453.9</ele>
        <time>2021-08-28T09:32:36Z</time>
      </trkpt>
      <trkpt lat="45.58464" lon="5.97952">
        <ele>453.3</ele>
        <time>2021-08-28T09:32:37Z</time>
      </trkpt>
      <trkpt lat="45.58455" lon="5.97949">
        <ele>452.6</ele>
        <time>2021-08-28T09:32:38Z</time>
      </trkpt>
      <trkpt lat="45.58445" lon="5.97944">
        <ele>451.9</ele>
        <time>2021-08-28T09:32:39Z</time>
      </trkpt>
      <trkpt lat="45.58436" lon="5.97939">
        <ele>451.2</ele>
        <time>2021-08-28T09:32:40Z</time>
      </trkpt>
      <trkpt lat="45.58427" lon="5.97935">
        <ele>450.4</ele>
        <time>2021-08-28T09:32:41Z</time>
      </trkpt>
      <trkpt lat="45.58417" lon="5.97931">
        <ele>449.5</ele>
        <time>2021-08-28T09:32:42Z</time>
      </trkpt>
      <trkpt lat="45.58406" lon="5.9793">
        <ele>448.6</ele>
        <time>2021-08-28T09:32:43Z</time>
      </trkpt>
      <trkpt lat="45.58395" lon="5.97933">
        <ele>447.8</ele>
        <time>2021-08-28T09:32:44Z</time>
      </trkpt>
      <trkpt lat="45.58385" lon="5.97937">
        <ele>447</ele>
        <time>2021-08-28T09:32:45Z</time>
      </trkpt>
      <trkpt lat="45.58375" lon="5.97941">
        <ele>446.2</ele>
        <time>2021-08-28T09:32:46Z</time>
      </trkpt>
      <trkpt lat="45.58365" lon="5.97944">
        <ele>445.5</ele>
        <time>2021-08-28T09:32:47Z</time>
      </trkpt>
      <trkpt lat="45.58354" lon="5.97947">
        <ele>444.9</ele>
        <time>2021-08-28T09:32:48Z</time>
      </trkpt>
      <trkpt lat="45.58343" lon="5.97946">
        <ele>444.3</ele>
        <time>2021-08-28T09:32:49Z</time>
      </trkpt>
      <trkpt lat="45.58333" lon="5.97943">
        <ele>443.9</ele>
        <time>2021-08-28T09:32:50Z</time>
      </trkpt>
      <trkpt lat="45.58323" lon="5.97942">
        <ele>443.5</ele>
        <time>2021-08-28T09:32:51Z</time>
      </trkpt>
      <trkpt lat="45.58314" lon="5.97944">
        <ele>443.2</ele>
        <time>2021-08-28T09:32:52Z</time>
      </trkpt>
      <trkpt lat="45.58307" lon="5.97948">
        <ele>442.9</ele>
        <time>2021-08-28T09:32:53Z</time>
      </trkpt>
      <trkpt lat="45.58301" lon="5.97952">
        <ele>442.7</ele>
        <time>2021-08-28T09:32:54Z</time>
      </trkpt>
      <trkpt lat="45.58296" lon="5.97952">
        <ele>442.3</ele>
        <time>2021-08-28T09:32:55Z</time>
      </trkpt>
      <trkpt lat="45.58293" lon="5.97945">
        <ele>441.8</ele>
        <time>2021-08-28T09:32:56Z</time>
      </trkpt>
      <trkpt lat="45.58296" lon="5.97936">
        <ele>441</ele>
        <time>2021-08-28T09:32:57Z</time>
      </trkpt>
      <trkpt lat="45.58303" lon="5.97931">
        <ele>440.2</ele>
        <time>2021-08-28T09:32:58Z</time>
      </trkpt>
      <trkpt lat="45.58311" lon="5.97929">
        <ele>439.3</ele>
        <time>2021-08-28T09:32:59Z</time>
      </trkpt>
      <trkpt lat="45.58318" lon="5.9793">
        <ele>438.5</ele>
        <time>2021-08-28T09:33:00Z</time>
      </trkpt>
      <trkpt lat="45.58326" lon="5.9793">
        <ele>437.6</ele>
        <time>2021-08-28T09:33:01Z</time>
      </trkpt>
      <trkpt lat="45.58334" lon="5.9793">
        <ele>436.8</ele>
        <time>2021-08-28T09:33:02Z</time>
      </trkpt>
      <trkpt lat="45.58343" lon="5.9793">
        <ele>436</ele>
        <time>2021-08-28T09:33:03Z</time>
      </trkpt>
      <trkpt lat="45.58353" lon="5.97929">
        <ele>435.1</ele>
        <time>2021-08-28T09:33:04Z</time>
      </trkpt>
      <trkpt lat="45.58361" lon="5.97926">
        <ele>434.3</ele>
        <time>2021-08-28T09:33:05Z</time>
      </trkpt>
      <trkpt lat="45.58369" lon="5.9792">
        <ele>433.6</ele>
        <time>2021-08-28T09:33:06Z</time>
      </trkpt>
      <trkpt lat="45.58376" lon="5.97912">
        <ele>432.8</ele>
        <time>2021-08-28T09:33:07Z</time>
      </trkpt>
      <trkpt lat="45.58384" lon="5.97904">
        <ele>431.9</ele>
        <time>2021-08-28T09:33:08Z</time>
      </trkpt>
      <trkpt lat="45.58393" lon="5.97896">
        <ele>431.1</ele>
        <time>2021-08-28T09:33:09Z</time>
      </trkpt>
      <trkpt lat="45.58402" lon="5.97888">
        <ele>430.3</ele>
        <time>2021-08-28T09:33:10Z</time>
      </trkpt>
      <trkpt lat="45.5841" lon="5.97881">
        <ele>429.7</ele>
        <time>2021-08-28T09:33:11Z</time>
      </trkpt>
      <trkpt lat="45.58419" lon="5.97876">
        <ele>429</ele>
        <time>2021-08-28T09:33:12Z</time>
      </trkpt>
      <trkpt lat="45.58428" lon="5.97872">
        <ele>428.4</ele>
        <time>2021-08-28T09:33:13Z</time>
      </trkpt>
      <trkpt lat="45.58438" lon="5.9787">
        <ele>427.6</ele>
        <time>2021-08-28T09:33:14Z</time>
      </trkpt>
      <trkpt lat="45.58448" lon="5.97866">
        <ele>426.9</ele>
        <time>2021-08-28T09:33:15Z</time>
      </trkpt>
      <trkpt lat="45.58456" lon="5.97857">
        <ele>426.1</ele>
        <time>2021-08-28T09:33:16Z</time>
      </trkpt>
      <trkpt lat="45.58462" lon="5.97845">
        <ele>425.2</ele>
        <time>2021-08-28T09:33:17Z</time>
      </trkpt>
      <trkpt lat="45.58464" lon="5.9783">
        <ele>424.4</ele>
        <time>2021-08-28T09:33:18Z</time>
      </trkpt>
      <trkpt lat="45.58466" lon="5.97816">
        <ele>423.6</ele>
        <time>2021-08-28T09:33:19Z</time>
      </trkpt>
      <trkpt lat="45.58471" lon="5.97803">
        <ele>422.8</ele>
        <time>2021-08-28T09:33:20Z</time>
      </trkpt>
      <trkpt lat="45.58477" lon="5.9779">
        <ele>421.8</ele>
        <time>2021-08-28T09:33:21Z</time>
      </trkpt>
      <trkpt lat="45.58486" lon="5.97779">
        <ele>420.9</ele>
        <time>2021-08-28T09:33:22Z</time>
      </trkpt>
      <trkpt lat="45.58495" lon="5.97771">
        <ele>419.9</ele>
        <time>2021-08-28T09:33:23Z</time>
      </trkpt>
      <trkpt lat="45.58506" lon="5.97764">
        <ele>419</ele>
        <time>2021-08-28T09:33:24Z</time>
      </trkpt>
      <trkpt lat="45.58517" lon="5.97761">
        <ele>418</ele>
        <time>2021-08-28T09:33:25Z</time>
      </trkpt>
      <trkpt lat="45.58528" lon="5.97758">
        <ele>417.2</ele>
        <time>2021-08-28T09:33:26Z</time>
      </trkpt>
      <trkpt lat="45.58539" lon="5.97756">
        <ele>416.5</ele>
        <time>2021-08-28T09:33:27Z</time>
      </trkpt>
      <trkpt lat="45.58549" lon="5.97753">
        <ele>415.9</ele>
        <time>2021-08-28T09:33:28Z</time>
      </trkpt>
      <trkpt lat="45.58559" lon="5.9775">
        <ele>415.4</ele>
        <time>2021-08-28T09:33:29Z</time>
      </trkpt>
      <trkpt lat="45.58568" lon="5.97744">
        <ele>415</ele>
        <time>2021-08-28T09:33:30Z</time>
      </trkpt>
      <trkpt lat="45.58573" lon="5.97734">
        <ele>415</ele>
        <time>2021-08-28T09:33:31Z</time>
      </trkpt>
      <trkpt lat="45.58574" lon="5.97721">
        <ele>415</ele>
        <time>2021-08-28T09:33:32Z</time>
      </trkpt>
      <trkpt lat="45.58571" lon="5.97709">
        <ele>415</ele>
        <time>2021-08-28T09:33:33Z</time>
      </trkpt>
      <trkpt lat="45.58565" lon="5.977">
        <ele>415.1</ele>
        <time>2021-08-28T09:33:34Z</time>
      </trkpt>
      <trkpt lat="45.58557" lon="5.97694">
        <ele>414.9</ele>
        <time>2021-08-28T09:33:35Z</time>
      </trkpt>
      <trkpt lat="45.58549" lon="5.97692">
        <ele>414.7</ele>
        <time>2021-08-28T09:33:36Z</time>
      </trkpt>
      <trkpt lat="45.58542" lon="5.97691">
        <ele>414.5</ele>
        <time>2021-08-28T09:33:37Z</time>
      </trkpt>
      <trkpt lat="45.58534" lon="5.97692">
        <ele>414.3</ele>
        <time>2021-08-28T09:33:38Z</time>
      </trkpt>
      <trkpt lat="45.58527" lon="5.97692">
        <ele>414.2</ele>
        <time>2021-08-28T09:33:39Z</time>
      </trkpt>
      <trkpt lat="45.5852" lon="5.97691">
        <ele>414.1</ele>
        <time>2021-08-28T09:33:40Z</time>
      </trkpt>
      <trkpt lat="45.58513" lon="5.9769">
        <ele>414.1</ele>
        <time>2021-08-28T09:33:41Z</time>
      </trkpt>
      <trkpt lat="45.58506" lon="5.97689">
        <ele>414</ele>
        <time>2021-08-28T09:33:42Z</time>
      </trkpt>
      <trkpt lat="45.58499" lon="5.97687">
        <ele>413.9</ele>
        <time>2021-08-28T09:33:43Z</time>
      </trkpt>
      <trkpt lat="45.58492" lon="5.97686">
        <ele>413.8</ele>
        <time>2021-08-28T09:33:44Z</time>
      </trkpt>
      <trkpt lat="45.58485" lon="5.97685">
        <ele>413.8</ele>
        <time>2021-08-28T09:33:45Z</time>
      </trkpt>
      <trkpt lat="45.58478" lon="5.97685">
        <ele>413.7</ele>
        <time>2021-08-28T09:33:46Z</time>
      </trkpt>
      <trkpt lat="45.58472" lon="5.97684">
        <ele>413.7</ele>
        <time>2021-08-28T09:33:47Z</time>
      </trkpt>
      <trkpt lat="45.58466" lon="5.97683">
        <ele>413.6</ele>
        <time>2021-08-28T09:33:48Z</time>
      </trkpt>
      <trkpt lat="45.58459" lon="5.97682">
        <ele>413.6</ele>
        <time>2021-08-28T09:33:49Z</time>
      </trkpt>
      <trkpt lat="45.58453" lon="5.97679">
        <ele>413.5</ele>
        <time>2021-08-28T09:33:50Z</time>
      </trkpt>
      <trkpt lat="45.58447" lon="5.97675">
        <ele>413.5</ele>
        <time>2021-08-28T09:33:51Z</time>
      </trkpt>
      <trkpt lat="45.58441" lon="5.9767">
        <ele>413.4</ele>
        <time>2021-08-28T09:33:52Z</time>
      </trkpt>
      <trkpt lat="45.58435" lon="5.97665">
        <ele>413.3</ele>
        <time>2021-08-28T09:33:53Z</time>
      </trkpt>
      <trkpt lat="45.5843" lon="5.97659">
        <ele>413.1</ele>
        <time>2021-08-28T09:33:54Z</time>
      </trkpt>
      <trkpt lat="45.58425" lon="5.97653">
        <ele>413</ele>
        <time>2021-08-28T09:33:55Z</time>
      </trkpt>
      <trkpt lat="45.5842" lon="5.97648">
        <ele>412.9</ele>
        <time>2021-08-28T09:33:56Z</time>
      </trkpt>
      <trkpt lat="45.58413" lon="5.97643">
        <ele>412.7</ele>
        <time>2021-08-28T09:33:57Z</time>
      </trkpt>
      <trkpt lat="45.58407" lon="5.97639">
        <ele>412.6</ele>
        <time>2021-08-28T09:33:58Z</time>
      </trkpt>
      <trkpt lat="45.584" lon="5.97635">
        <ele>412.4</ele>
        <time>2021-08-28T09:33:59Z</time>
      </trkpt>
      <trkpt lat="45.58394" lon="5.9763">
        <ele>412.3</ele>
        <time>2021-08-28T09:34:00Z</time>
      </trkpt>
      <trkpt lat="45.5836" lon="5.9761">
        <ele>410.8</ele>
        <time>2021-08-28T09:34:05Z</time>
      </trkpt>
      <trkpt lat="45.58353" lon="5.97609">
        <ele>410.4</ele>
        <time>2021-08-28T09:34:06Z</time>
      </trkpt>
      <trkpt lat="45.58345" lon="5.97607">
        <ele>409.9</ele>
        <time>2021-08-28T09:34:07Z</time>
      </trkpt>
      <trkpt lat="45.58337" lon="5.97606">
        <ele>409.2</ele>
        <time>2021-08-28T09:34:08Z</time>
      </trkpt>
      <trkpt lat="45.58328" lon="5.97604">
        <ele>408.5</ele>
        <time>2021-08-28T09:34:09Z</time>
      </trkpt>
      <trkpt lat="45.58319" lon="5.976">
        <ele>407.8</ele>
        <time>2021-08-28T09:34:10Z</time>
      </trkpt>
      <trkpt lat="45.5831" lon="5.97597">
        <ele>407</ele>
        <time>2021-08-28T09:34:11Z</time>
      </trkpt>
      <trkpt lat="45.58301" lon="5.97593">
        <ele>406.2</ele>
        <time>2021-08-28T09:34:12Z</time>
      </trkpt>
      <trkpt lat="45.58291" lon="5.97588">
        <ele>405.4</ele>
        <time>2021-08-28T09:34:13Z</time>
      </trkpt>
      <trkpt lat="45.58281" lon="5.97583">
        <ele>404.5</ele>
        <time>2021-08-28T09:34:14Z</time>
      </trkpt>
      <trkpt lat="45.58272" lon="5.97578">
        <ele>403.7</ele>
        <time>2021-08-28T09:34:15Z</time>
      </trkpt>
      <trkpt lat="45.58262" lon="5.97572">
        <ele>402.9</ele>
        <time>2021-08-28T09:34:16Z</time>
      </trkpt>
      <trkpt lat="45.58252" lon="5.97565">
        <ele>402</ele>
        <time>2021-08-28T09:34:17Z</time>
      </trkpt>
      <trkpt lat="45.58242" lon="5.9756">
        <ele>401.2</ele>
        <time>2021-08-28T09:34:18Z</time>
      </trkpt>
      <trkpt lat="45.58232" lon="5.97557">
        <ele>400.3</ele>
        <time>2021-08-28T09:34:19Z</time>
      </trkpt>
      <trkpt lat="45.58221" lon="5.97555">
        <ele>399.4</ele>
        <time>2021-08-28T09:34:20Z</time>
      </trkpt>
      <trkpt lat="45.58211" lon="5.97553">
        <ele>398.4</ele>
        <time>2021-08-28T09:34:21Z</time>
      </trkpt>
      <trkpt lat="45.58202" lon="5.97546">
        <ele>397.3</ele>
        <time>2021-08-28T09:34:22Z</time>
      </trkpt>
      <trkpt lat="45.58193" lon="5.97534">
        <ele>396</ele>
        <time>2021-08-28T09:34:23Z</time>
      </trkpt>
      <trkpt lat="45.58187" lon="5.97521">
        <ele>394.8</ele>
        <time>2021-08-28T09:34:24Z</time>
      </trkpt>
      <trkpt lat="45.58181" lon="5.97508">
        <ele>393.6</ele>
        <time>2021-08-28T09:34:25Z</time>
      </trkpt>
      <trkpt lat="45.58175" lon="5.97494">
        <ele>392.4</ele>
        <time>2021-08-28T09:34:26Z</time>
      </trkpt>
      <trkpt lat="45.58168" lon="5.97481">
        <ele>391.2</ele>
        <time>2021-08-28T09:34:27Z</time>
      </trkpt>
      <trkpt lat="45.58161" lon="5.97468">
        <ele>390.1</ele>
        <time>2021-08-28T09:34:28Z</time>
      </trkpt>
      <trkpt lat="45.58153" lon="5.97457">
        <ele>389.1</ele>
        <time>2021-08-28T09:34:29Z</time>
      </trkpt>
      <trkpt lat="45.58144" lon="5.97448">
        <ele>388</ele>
        <time>2021-08-28T09:34:30Z</time>
      </trkpt>
      <trkpt lat="45.58134" lon="5.97438">
        <ele>386.9</ele>
        <time>2021-08-28T09:34:31Z</time>
      </trkpt>
      <trkpt lat="45.58124" lon="5.97429">
        <ele>385.7</ele>
        <time>2021-08-28T09:34:32Z</time>
      </trkpt>
      <trkpt lat="45.58114" lon="5.9742">
        <ele>384.7</ele>
        <time>2021-08-28T09:34:33Z</time>
      </trkpt>
      <trkpt lat="45.58104" lon="5.9741">
        <ele>383.7</ele>
        <time>2021-08-28T09:34:34Z</time>
      </trkpt>
      <trkpt lat="45.58093" lon="5.97401">
        <ele>382.8</ele>
        <time>2021-08-28T09:34:35Z</time>
      </trkpt>
      <trkpt lat="45.58083" lon="5.97392">
        <ele>381.8</ele>
        <time>2021-08-28T09:34:36Z</time>
      </trkpt>
      <trkpt lat="45.58073" lon="5.97383">
        <ele>380.7</ele>
        <time>2021-08-28T09:34:37Z</time>
      </trkpt>
      <trkpt lat="45.58063" lon="5.97374">
        <ele>379.6</ele>
        <time>2021-08-28T09:34:38Z</time>
      </trkpt>
      <trkpt lat="45.58052" lon="5.97369">
        <ele>378.5</ele>
        <time>2021-08-28T09:34:39Z</time>
      </trkpt>
      <trkpt lat="45.5804" lon="5.97368">
        <ele>377.3</ele>
        <time>2021-08-28T09:34:40Z</time>
      </trkpt>
      <trkpt lat="45.58028" lon="5.97368">
        <ele>376.3</ele>
        <time>2021-08-28T09:34:41Z</time>
      </trkpt>
      <trkpt lat="45.58015" lon="5.97367">
        <ele>375.2</ele>
        <time>2021-08-28T09:34:42Z</time>
      </trkpt>
      <trkpt lat="45.58004" lon="5.97364">
        <ele>374.1</ele>
        <time>2021-08-28T09:34:43Z</time>
      </trkpt>
      <trkpt lat="45.57993" lon="5.97357">
        <ele>373.1</ele>
        <time>2021-08-28T09:34:44Z</time>
      </trkpt>
      <trkpt lat="45.57982" lon="5.9735">
        <ele>372.4</ele>
        <time>2021-08-28T09:34:45Z</time>
      </trkpt>
      <trkpt lat="45.5797" lon="5.97344">
        <ele>371.7</ele>
        <time>2021-08-28T09:34:46Z</time>
      </trkpt>
      <trkpt lat="45.5796" lon="5.97339">
        <ele>371.2</ele>
        <time>2021-08-28T09:34:47Z</time>
      </trkpt>
      <trkpt lat="45.57952" lon="5.97334">
        <ele>370.7</ele>
        <time>2021-08-28T09:34:48Z</time>
      </trkpt>
      <trkpt lat="45.57947" lon="5.97329">
        <ele>370.3</ele>
        <time>2021-08-28T09:34:49Z</time>
      </trkpt>
      <trkpt lat="45.57944" lon="5.9732">
        <ele>369.7</ele>
        <time>2021-08-28T09:34:50Z</time>
      </trkpt>
      <trkpt lat="45.57946" lon="5.97311">
        <ele>369</ele>
        <time>2021-08-28T09:34:51Z</time>
      </trkpt>
      <trkpt lat="45.57952" lon="5.97303">
        <ele>368.1</ele>
        <time>2021-08-28T09:34:52Z</time>
      </trkpt>
      <trkpt lat="45.5796" lon="5.97299">
        <ele>367.3</ele>
        <time>2021-08-28T09:34:53Z</time>
      </trkpt>
      <trkpt lat="45.57968" lon="5.97295">
        <ele>366.4</ele>
        <time>2021-08-28T09:34:54Z</time>
      </trkpt>
      <trkpt lat="45.57974" lon="5.97288">
        <ele>365.6</ele>
        <time>2021-08-28T09:34:55Z</time>
      </trkpt>
      <trkpt lat="45.57981" lon="5.9728">
        <ele>364.7</ele>
        <time>2021-08-28T09:34:56Z</time>
      </trkpt>
      <trkpt lat="45.57986" lon="5.97269">
        <ele>363.9</ele>
        <time>2021-08-28T09:34:57Z</time>
      </trkpt>
      <trkpt lat="45.5799" lon="5.97257">
        <ele>363.1</ele>
        <time>2021-08-28T09:34:58Z</time>
      </trkpt>
      <trkpt lat="45.57993" lon="5.97244">
        <ele>362.2</ele>
        <time>2021-08-28T09:34:59Z</time>
      </trkpt>
      <trkpt lat="45.57996" lon="5.97232">
        <ele>361.4</ele>
        <time>2021-08-28T09:35:00Z</time>
      </trkpt>
      <trkpt lat="45.58" lon="5.97219">
        <ele>360.5</ele>
        <time>2021-08-28T09:35:01Z</time>
      </trkpt>
      <trkpt lat="45.58004" lon="5.97206">
        <ele>359.7</ele>
        <time>2021-08-28T09:35:02Z</time>
      </trkpt>
      <trkpt lat="45.58008" lon="5.97192">
        <ele>358.8</ele>
        <time>2021-08-28T09:35:03Z</time>
      </trkpt>
      <trkpt lat="45.58011" lon="5.97178">
        <ele>358</ele>
        <time>2021-08-28T09:35:04Z</time>
      </trkpt>
      <trkpt lat="45.58015" lon="5.97164">
        <ele>357.2</ele>
        <time>2021-08-28T09:35:05Z</time>
      </trkpt>
      <trkpt lat="45.5802" lon="5.97151">
        <ele>356.5</ele>
        <time>2021-08-28T09:35:06Z</time>
      </trkpt>
      <trkpt lat="45.58024" lon="5.97137">
        <ele>355.9</ele>
        <time>2021-08-28T09:35:07Z</time>
      </trkpt>
      <trkpt lat="45.58027" lon="5.97125">
        <ele>355.4</ele>
        <time>2021-08-28T09:35:08Z</time>
      </trkpt>
      <trkpt lat="45.5803" lon="5.97114">
        <ele>354.9</ele>
        <time>2021-08-28T09:35:09Z</time>
      </trkpt>
      <trkpt lat="45.58031" lon="5.97105">
        <ele>354.5</ele>
        <time>2021-08-28T09:35:10Z</time>
      </trkpt>
      <trkpt lat="45.58029" lon="5.97096">
        <ele>354</ele>
        <time>2021-08-28T09:35:11Z</time>
      </trkpt>
      <trkpt lat="45.58024" lon="5.97091">
        <ele>353.4</ele>
        <time>2021-08-28T09:35:12Z</time>
      </trkpt>
      <trkpt lat="45.58016" lon="5.97094">
        <ele>352.6</ele>
        <time>2021-08-28T09:35:13Z</time>
      </trkpt>
      <trkpt lat="45.5801" lon="5.97102">
        <ele>351.7</ele>
        <time>2021-08-28T09:35:14Z</time>
      </trkpt>
      <trkpt lat="45.58006" lon="5.97112">
        <ele>350.9</ele>
        <time>2021-08-28T09:35:15Z</time>
      </trkpt>
      <trkpt lat="45.58003" lon="5.97124">
        <ele>350.2</ele>
        <time>2021-08-28T09:35:16Z</time>
      </trkpt>
      <trkpt lat="45.57999" lon="5.97135">
        <ele>349.6</ele>
        <time>2021-08-28T09:35:17Z</time>
      </trkpt>
      <trkpt lat="45.57995" lon="5.97146">
        <ele>349.1</ele>
        <time>2021-08-28T09:35:18Z</time>
      </trkpt>
      <trkpt lat="45.5799" lon="5.97157">
        <ele>348.7</ele>
        <time>2021-08-28T09:35:19Z</time>
      </trkpt>
      <trkpt lat="45.57983" lon="5.97166">
        <ele>348.4</ele>
        <time>2021-08-28T09:35:20Z</time>
      </trkpt>
      <trkpt lat="45.57977" lon="5.97174">
        <ele>348.2</ele>
        <time>2021-08-28T09:35:21Z</time>
      </trkpt>
      <trkpt lat="45.57972" lon="5.97179">
        <ele>347.8</ele>
        <time>2021-08-28T09:35:22Z</time>
      </trkpt>
      <trkpt lat="45.57966" lon="5.97179">
        <ele>347.5</ele>
        <time>2021-08-28T09:35:23Z</time>
      </trkpt>
      <trkpt lat="45.57962" lon="5.97174">
        <ele>347</ele>
        <time>2021-08-28T09:35:24Z</time>
      </trkpt>
      <trkpt lat="45.57961" lon="5.97166">
        <ele>346.4</ele>
        <time>2021-08-28T09:35:25Z</time>
      </trkpt>
      <trkpt lat="45.57962" lon="5.97158">
        <ele>345.8</ele>
        <time>2021-08-28T09:35:26Z</time>
      </trkpt>
      <trkpt lat="45.57965" lon="5.97151">
        <ele>345.1</ele>
        <time>2021-08-28T09:35:27Z</time>
      </trkpt>
      <trkpt lat="45.57969" lon="5.97143">
        <ele>344.4</ele>
        <time>2021-08-28T09:35:28Z</time>
      </trkpt>
      <trkpt lat="45.57973" lon="5.97134">
        <ele>343.6</ele>
        <time>2021-08-28T09:35:29Z</time>
      </trkpt>
      <trkpt lat="45.57975" lon="5.97124">
        <ele>342.8</ele>
        <time>2021-08-28T09:35:30Z</time>
      </trkpt>
      <trkpt lat="45.57977" lon="5.97113">
        <ele>342.1</ele>
        <time>2021-08-28T09:35:31Z</time>
      </trkpt>
      <trkpt lat="45.57979" lon="5.97102">
        <ele>341.3</ele>
        <time>2021-08-28T09:35:32Z</time>
      </trkpt>
      <trkpt lat="45.57981" lon="5.9709">
        <ele>340.6</ele>
        <time>2021-08-28T09:35:33Z</time>
      </trkpt>
      <trkpt lat="45.57983" lon="5.97078">
        <ele>339.8</ele>
        <time>2021-08-28T09:35:34Z</time>
      </trkpt>
      <trkpt lat="45.57984" lon="5.97066">
        <ele>338.9</ele>
        <time>2021-08-28T09:35:35Z</time>
      </trkpt>
      <trkpt lat="45.57987" lon="5.97052">
        <ele>338.1</ele>
        <time>2021-08-28T09:35:36Z</time>
      </trkpt>
      <trkpt lat="45.57989" lon="5.97039">
        <ele>337.3</ele>
        <time>2021-08-28T09:35:37Z</time>
      </trkpt>
      <trkpt lat="45.57992" lon="5.97025">
        <ele>336.3</ele>
        <time>2021-08-28T09:35:38Z</time>
      </trkpt>
      <trkpt lat="45.57994" lon="5.97011">
        <ele>335.4</ele>
        <time>2021-08-28T09:35:39Z</time>
      </trkpt>
      <trkpt lat="45.57996" lon="5.96997">
        <ele>334.5</ele>
        <time>2021-08-28T09:35:40Z</time>
      </trkpt>
      <trkpt lat="45.57998" lon="5.96981">
        <ele>333.6</ele>
        <time>2021-08-28T09:35:41Z</time>
      </trkpt>
      <trkpt lat="45.58001" lon="5.96966">
        <ele>332.8</ele>
        <time>2021-08-28T09:35:42Z</time>
      </trkpt>
      <trkpt lat="45.58002" lon="5.96951">
        <ele>331.9</ele>
        <time>2021-08-28T09:35:43Z</time>
      </trkpt>
      <trkpt lat="45.58003" lon="5.96936">
        <ele>331</ele>
        <time>2021-08-28T09:35:44Z</time>
      </trkpt>
      <trkpt lat="45.58004" lon="5.96921">
        <ele>330.1</ele>
        <time>2021-08-28T09:35:45Z</time>
      </trkpt>
      <trkpt lat="45.58004" lon="5.96905">
        <ele>329.2</ele>
        <time>2021-08-28T09:35:46Z</time>
      </trkpt>
      <trkpt lat="45.58004" lon="5.9689">
        <ele>328.3</ele>
        <time>2021-08-28T09:35:47Z</time>
      </trkpt>
      <trkpt lat="45.58003" lon="5.96876">
        <ele>327.4</ele>
        <time>2021-08-28T09:35:48Z</time>
      </trkpt>
      <trkpt lat="45.58" lon="5.96862">
        <ele>326.4</ele>
        <time>2021-08-28T09:35:49Z</time>
      </trkpt>
      <trkpt lat="45.57996" lon="5.96849">
        <ele>325.2</ele>
        <time>2021-08-28T09:35:50Z</time>
      </trkpt>
      <trkpt lat="45.57989" lon="5.96837">
        <ele>323.9</ele>
        <time>2021-08-28T09:35:51Z</time>
      </trkpt>
      <trkpt lat="45.5798" lon="5.96827">
        <ele>322.6</ele>
        <time>2021-08-28T09:35:52Z</time>
      </trkpt>
      <trkpt lat="45.5797" lon="5.9682">
        <ele>321.3</ele>
        <time>2021-08-28T09:35:53Z</time>
      </trkpt>
      <trkpt lat="45.57958" lon="5.96815">
        <ele>320</ele>
        <time>2021-08-28T09:35:54Z</time>
      </trkpt>
      <trkpt lat="45.57947" lon="5.9681">
        <ele>318.7</ele>
        <time>2021-08-28T09:35:55Z</time>
      </trkpt>
      <trkpt lat="45.57937" lon="5.96805">
        <ele>317.8</ele>
        <time>2021-08-28T09:35:56Z</time>
      </trkpt>
      <trkpt lat="45.5793" lon="5.968">
        <ele>317.3</ele>
        <time>2021-08-28T09:35:57Z</time>
      </trkpt>
      <trkpt lat="45.57923" lon="5.96794">
        <ele>316.9</ele>
        <time>2021-08-28T09:35:58Z</time>
      </trkpt>
      <trkpt lat="45.57919" lon="5.96789">
        <ele>316.6</ele>
        <time>2021-08-28T09:35:59Z</time>
      </trkpt>
      <trkpt lat="45.57916" lon="5.96783">
        <ele>316.3</ele>
        <time>2021-08-28T09:36:00Z</time>
      </trkpt>
      <trkpt lat="45.57913" lon="5.96777">
        <ele>316.1</ele>
        <time>2021-08-28T09:36:01Z</time>
      </trkpt>
      <trkpt lat="45.57909" lon="5.96771">
        <ele>314.8</ele>
        <time>2021-08-28T09:36:02Z</time>
      </trkpt>
      <trkpt lat="45.57904" lon="5.96767">
        <ele>313.6</ele>
        <time>2021-08-28T09:36:03Z</time>
      </trkpt>
      <trkpt lat="45.57897" lon="5.96767">
        <ele>312.4</ele>
        <time>2021-08-28T09:36:04Z</time>
      </trkpt>
      <trkpt lat="45.5789" lon="5.9677">
        <ele>312.2</ele>
        <time>2021-08-28T09:36:05Z</time>
      </trkpt>
      <trkpt lat="45.57884" lon="5.96773">
        <ele>312.1</ele>
        <time>2021-08-28T09:36:06Z</time>
      </trkpt>
      <trkpt lat="45.57877" lon="5.96777">
        <ele>312</ele>
        <time>2021-08-28T09:36:07Z</time>
      </trkpt>
      <trkpt lat="45.57872" lon="5.96784">
        <ele>312</ele>
        <time>2021-08-28T09:36:08Z</time>
      </trkpt>
      <trkpt lat="45.57869" lon="5.96792">
        <ele>311.9</ele>
        <time>2021-08-28T09:36:09Z</time>
      </trkpt>
      <trkpt lat="45.57866" lon="5.96802">
        <ele>311.9</ele>
        <time>2021-08-28T09:36:10Z</time>
      </trkpt>
      <trkpt lat="45.57865" lon="5.96811">
        <ele>311.9</ele>
        <time>2021-08-28T09:36:11Z</time>
      </trkpt>
      <trkpt lat="45.57864" lon="5.9682">
        <ele>311.9</ele>
        <time>2021-08-28T09:36:12Z</time>
      </trkpt>
      <trkpt lat="45.57863" lon="5.96829">
        <ele>311.9</ele>
        <time>2021-08-28T09:36:13Z</time>
      </trkpt>
      <trkpt lat="45.57862" lon="5.96838">
        <ele>311.9</ele>
        <time>2021-08-28T09:36:14Z</time>
      </trkpt>
      <trkpt lat="45.57861" lon="5.96846">
        <ele>311.9</ele>
        <time>2021-08-28T09:36:15Z</time>
      </trkpt>
      <trkpt lat="45.57861" lon="5.96855">
        <ele>311.9</ele>
        <time>2021-08-28T09:36:16Z</time>
      </trkpt>
      <trkpt lat="45.57861" lon="5.96864">
        <ele>311.9</ele>
        <time>2021-08-28T09:36:17Z</time>
      </trkpt>
      <trkpt lat="45.57861" lon="5.96871">
        <ele>312</ele>
        <time>2021-08-28T09:36:18Z</time>
      </trkpt>
      <trkpt lat="45.57861" lon="5.96879">
        <ele>312</ele>
        <time>2021-08-28T09:36:19Z</time>
      </trkpt>
      <trkpt lat="45.57861" lon="5.96887">
        <ele>312.1</ele>
        <time>2021-08-28T09:36:20Z</time>
      </trkpt>
      <trkpt lat="45.5786" lon="5.96895">
        <ele>312.2</ele>
        <time>2021-08-28T09:36:21Z</time>
      </trkpt>
      <trkpt lat="45.5786" lon="5.96902">
        <ele>312.2</ele>
        <time>2021-08-28T09:36:22Z</time>
      </trkpt>
      <trkpt lat="45.5786" lon="5.96909">
        <ele>312.3</ele>
        <time>2021-08-28T09:36:23Z</time>
      </trkpt>
      <trkpt lat="45.5786" lon="5.96916">
        <ele>312.4</ele>
        <time>2021-08-28T09:36:24Z</time>
      </trkpt>
      <trkpt lat="45.5786" lon="5.96924">
        <ele>312.4</ele>
        <time>2021-08-28T09:36:25Z</time>
      </trkpt>
      <trkpt lat="45.57861" lon="5.96931">
        <ele>312.5</ele>
        <time>2021-08-28T09:36:26Z</time>
      </trkpt>
      <trkpt lat="45.57861" lon="5.96938">
        <ele>312.6</ele>
        <time>2021-08-28T09:36:27Z</time>
      </trkpt>
      <trkpt lat="45.57861" lon="5.96944">
        <ele>312.7</ele>
        <time>2021-08-28T09:36:28Z</time>
      </trkpt>
      <trkpt lat="45.57862" lon="5.9695">
        <ele>312.8</ele>
        <time>2021-08-28T09:36:29Z</time>
      </trkpt>
      <trkpt lat="45.57863" lon="5.96955">
        <ele>312.8</ele>
        <time>2021-08-28T09:36:30Z</time>
      </trkpt>
      <trkpt lat="45.57864" lon="5.9696">
        <ele>312.9</ele>
        <time>2021-08-28T09:36:31Z</time>
      </trkpt>
      <trkpt lat="45.57865" lon="5.96966">
        <ele>313</ele>
        <time>2021-08-28T09:36:32Z</time>
      </trkpt>
      <trkpt lat="45.57865" lon="5.96971">
        <ele>313.1</ele>
        <time>2021-08-28T09:36:33Z</time>
      </trkpt>
      <trkpt lat="45.57865" lon="5.96977">
        <ele>313.1</ele>
        <time>2021-08-28T09:36:34Z</time>
      </trkpt>
      <trkpt lat="45.57865" lon="5.96983">
        <ele>313.2</ele>
        <time>2021-08-28T09:36:35Z</time>
      </trkpt>
      <trkpt lat="45.57865" lon="5.96989">
        <ele>313.3</ele>
        <time>2021-08-28T09:36:36Z</time>
      </trkpt>
      <trkpt lat="45.57865" lon="5.96995">
        <ele>313.3</ele>
        <time>2021-08-28T09:36:37Z</time>
      </trkpt>
      <trkpt lat="45.57865" lon="5.97001">
        <ele>313.4</ele>
        <time>2021-08-28T09:36:38Z</time>
      </trkpt>
      <trkpt lat="45.57866" lon="5.97006">
        <ele>313.5</ele>
        <time>2021-08-28T09:36:39Z</time>
      </trkpt>
      <trkpt lat="45.57865" lon="5.97011">
        <ele>313.5</ele>
        <time>2021-08-28T09:36:40Z</time>
      </trkpt>
      <trkpt lat="45.57864" lon="5.97016">
        <ele>313.6</ele>
        <time>2021-08-28T09:36:41Z</time>
      </trkpt>
      <trkpt lat="45.57863" lon="5.97022">
        <ele>313.6</ele>
        <time>2021-08-28T09:36:42Z</time>
      </trkpt>
      <trkpt lat="45.57863" lon="5.97027">
        <ele>313.7</ele>
        <time>2021-08-28T09:36:43Z</time>
      </trkpt>
      <trkpt lat="45.57862" lon="5.97033">
        <ele>313.7</ele>
        <time>2021-08-28T09:36:44Z</time>
      </trkpt>
      <trkpt lat="45.57861" lon="5.97038">
        <ele>313.8</ele>
        <time>2021-08-28T09:36:45Z</time>
      </trkpt>
      <trkpt lat="45.5786" lon="5.97045">
        <ele>313.9</ele>
        <time>2021-08-28T09:36:46Z</time>
      </trkpt>
      <trkpt lat="45.57859" lon="5.9705">
        <ele>313.9</ele>
        <time>2021-08-28T09:36:47Z</time>
      </trkpt>
      <trkpt lat="45.57858" lon="5.97054">
        <ele>313.9</ele>
        <time>2021-08-28T09:36:48Z</time>
      </trkpt>
      <trkpt lat="45.57856" lon="5.97058">
        <ele>314</ele>
        <time>2021-08-28T09:36:49Z</time>
      </trkpt>
      <trkpt lat="45.57855" lon="5.97063">
        <ele>314</ele>
        <time>2021-08-28T09:36:50Z</time>
      </trkpt>
      <trkpt lat="45.57853" lon="5.97068">
        <ele>314.1</ele>
        <time>2021-08-28T09:36:51Z</time>
      </trkpt>
      <trkpt lat="45.57851" lon="5.97073">
        <ele>314.1</ele>
        <time>2021-08-28T09:36:52Z</time>
      </trkpt>
      <trkpt lat="45.57848" lon="5.97078">
        <ele>314.2</ele>
        <time>2021-08-28T09:36:53Z</time>
      </trkpt>
      <trkpt lat="45.57846" lon="5.97083">
        <ele>314.3</ele>
        <time>2021-08-28T09:36:54Z</time>
      </trkpt>
      <trkpt lat="45.57844" lon="5.97086">
        <ele>314.3</ele>
        <time>2021-08-28T09:36:55Z</time>
      </trkpt>
      <trkpt lat="45.57842" lon="5.97091">
        <ele>314.4</ele>
        <time>2021-08-28T09:36:56Z</time>
      </trkpt>
      <trkpt lat="45.5784" lon="5.97097">
        <ele>314.5</ele>
        <time>2021-08-28T09:36:57Z</time>
      </trkpt>
      <trkpt lat="45.57838" lon="5.97101">
        <ele>314.6</ele>
        <time>2021-08-28T09:36:58Z</time>
      </trkpt>
      <trkpt lat="45.57836" lon="5.97105">
        <ele>314.6</ele>
        <time>2021-08-28T09:36:59Z</time>
      </trkpt>
      <trkpt lat="45.57834" lon="5.97109">
        <ele>314.7</ele>
        <time>2021-08-28T09:37:00Z</time>
      </trkpt>
      <trkpt lat="45.57832" lon="5.97114">
        <ele>314.7</ele>
        <time>2021-08-28T09:37:01Z</time>
      </trkpt>
      <trkpt lat="45.57829" lon="5.97117">
        <ele>314.8</ele>
        <time>2021-08-28T09:37:02Z</time>
      </trkpt>
      <trkpt lat="45.57827" lon="5.97121">
        <ele>314.9</ele>
        <time>2021-08-28T09:37:03Z</time>
      </trkpt>
      <trkpt lat="45.57826" lon="5.97125">
        <ele>314.9</ele>
        <time>2021-08-28T09:37:04Z</time>
      </trkpt>
      <trkpt lat="45.57825" lon="5.9713">
        <ele>315</ele>
        <time>2021-08-28T09:37:05Z</time>
      </trkpt>
      <trkpt lat="45.57823" lon="5.97135">
        <ele>315.1</ele>
        <time>2021-08-28T09:37:06Z</time>
      </trkpt>
      <trkpt lat="45.57822" lon="5.97138">
        <ele>315.1</ele>
        <time>2021-08-28T09:37:07Z</time>
      </trkpt>
      <trkpt lat="45.5782" lon="5.97142">
        <ele>315.2</ele>
        <time>2021-08-28T09:37:08Z</time>
      </trkpt>
      <trkpt lat="45.57817" lon="5.97146">
        <ele>315.3</ele>
        <time>2021-08-28T09:37:09Z</time>
      </trkpt>
      <trkpt lat="45.57814" lon="5.97156">
        <ele>315.5</ele>
        <time>2021-08-28T09:37:10Z</time>
      </trkpt>
      <trkpt lat="45.57809" lon="5.97165">
        <ele>315.6</ele>
        <time>2021-08-28T09:37:12Z</time>
      </trkpt>
      <trkpt lat="45.57805" lon="5.97173">
        <ele>315.8</ele>
        <time>2021-08-28T09:37:14Z</time>
      </trkpt>
      <trkpt lat="45.57803" lon="5.97176">
        <ele>315.8</ele>
        <time>2021-08-28T09:37:15Z</time>
      </trkpt>
      <trkpt lat="45.578" lon="5.97181">
        <ele>315.9</ele>
        <time>2021-08-28T09:37:16Z</time>
      </trkpt>
      <trkpt lat="45.57796" lon="5.97186">
        <ele>316</ele>
        <time>2021-08-28T09:37:17Z</time>
      </trkpt>
      <trkpt lat="45.57794" lon="5.9719">
        <ele>316.1</ele>
        <time>2021-08-28T09:37:18Z</time>
      </trkpt>
      <trkpt lat="45.5779" lon="5.97195">
        <ele>316.2</ele>
        <time>2021-08-28T09:37:20Z</time>
      </trkpt>
      <trkpt lat="45.57787" lon="5.97201">
        <ele>316.3</ele>
        <time>2021-08-28T09:37:21Z</time>
      </trkpt>
      <trkpt lat="45.57784" lon="5.97205">
        <ele>316.4</ele>
        <time>2021-08-28T09:37:23Z</time>
      </trkpt>
      <trkpt lat="45.57779" lon="5.97213">
        <ele>316.5</ele>
        <time>2021-08-28T09:37:25Z</time>
      </trkpt>
      <trkpt lat="45.57777" lon="5.97216">
        <ele>316.6</ele>
        <time>2021-08-28T09:37:26Z</time>
      </trkpt>
      <trkpt lat="45.57773" lon="5.97224">
        <ele>316.7</ele>
        <time>2021-08-28T09:37:28Z</time>
      </trkpt>
      <trkpt lat="45.5777" lon="5.97229">
        <ele>316.8</ele>
        <time>2021-08-28T09:37:29Z</time>
      </trkpt>
      <trkpt lat="45.57766" lon="5.97235">
        <ele>316.9</ele>
        <time>2021-08-28T09:37:30Z</time>
      </trkpt>
      <trkpt lat="45.57763" lon="5.9724">
        <ele>317</ele>
        <time>2021-08-28T09:37:32Z</time>
      </trkpt>
      <trkpt lat="45.57761" lon="5.97245">
        <ele>317</ele>
        <time>2021-08-28T09:37:33Z</time>
      </trkpt>
      <trkpt lat="45.57755" lon="5.97255">
        <ele>317.2</ele>
        <time>2021-08-28T09:37:36Z</time>
      </trkpt>
      <trkpt lat="45.57751" lon="5.97262">
        <ele>317.3</ele>
        <time>2021-08-28T09:37:37Z</time>
      </trkpt>
      <trkpt lat="45.57746" lon="5.9727">
        <ele>317.4</ele>
        <time>2021-08-28T09:37:40Z</time>
      </trkpt>
      <trkpt lat="45.57741" lon="5.97278">
        <ele>317.4</ele>
        <time>2021-08-28T09:37:41Z</time>
      </trkpt>
      <trkpt lat="45.57738" lon="5.97283">
        <ele>317.5</ele>
        <time>2021-08-28T09:37:43Z</time>
      </trkpt>
      <trkpt lat="45.57738" lon="5.97292">
        <ele>317.5</ele>
        <time>2021-08-28T09:37:46Z</time>
      </trkpt>
      <trkpt lat="45.57738" lon="5.97298">
        <ele>317.6</ele>
        <time>2021-08-28T09:37:47Z</time>
      </trkpt>
      <trkpt lat="45.57739" lon="5.97308">
        <ele>317.6</ele>
        <time>2021-08-28T09:37:48Z</time>
      </trkpt>
      <trkpt lat="45.5774" lon="5.97314">
        <ele>317.7</ele>
        <time>2021-08-28T09:37:50Z</time>
      </trkpt>
      <trkpt lat="45.57742" lon="5.97319">
        <ele>317.7</ele>
        <time>2021-08-28T09:37:51Z</time>
      </trkpt>
      <trkpt lat="45.57746" lon="5.97329">
        <ele>317.8</ele>
        <time>2021-08-28T09:37:53Z</time>
      </trkpt>
      <trkpt lat="45.5775" lon="5.97338">
        <ele>317.9</ele>
        <time>2021-08-28T09:37:55Z</time>
      </trkpt>
      <trkpt lat="45.57754" lon="5.97349">
        <ele>318.1</ele>
        <time>2021-08-28T09:37:57Z</time>
      </trkpt>
      <trkpt lat="45.57757" lon="5.97355">
        <ele>318.3</ele>
        <time>2021-08-28T09:37:58Z</time>
      </trkpt>
      <trkpt lat="45.57761" lon="5.97358">
        <ele>318.4</ele>
        <time>2021-08-28T09:38:00Z</time>
      </trkpt>
      <trkpt lat="45.57764" lon="5.97361">
        <ele>318.5</ele>
        <time>2021-08-28T09:38:01Z</time>
      </trkpt>
      <trkpt lat="45.57765" lon="5.97363">
        <ele>318.5</ele>
        <time>2021-08-28T09:38:02Z</time>
      </trkpt>
      <trkpt lat="45.57769" lon="5.97368">
        <ele>318.6</ele>
        <time>2021-08-28T09:38:03Z</time>
      </trkpt>
      <trkpt lat="45.5777" lon="5.97372">
        <ele>318.7</ele>
        <time>2021-08-28T09:38:05Z</time>
      </trkpt>
      <trkpt lat="45.57771" lon="5.97377">
        <ele>318.7</ele>
        <time>2021-08-28T09:38:06Z</time>
      </trkpt>
      <trkpt lat="45.5777" lon="5.97382">
        <ele>318.7</ele>
        <time>2021-08-28T09:38:07Z</time>
      </trkpt>
      <trkpt lat="45.57764" lon="5.97392">
        <ele>318.7</ele>
        <time>2021-08-28T09:38:09Z</time>
      </trkpt>
      <trkpt lat="45.57761" lon="5.97396">
        <ele>318.7</ele>
        <time>2021-08-28T09:38:11Z</time>
      </trkpt>
      <trkpt lat="45.57753" lon="5.97402">
        <ele>318.7</ele>
        <time>2021-08-28T09:38:13Z</time>
      </trkpt>
      <trkpt lat="45.57748" lon="5.97404">
        <ele>318.6</ele>
        <time>2021-08-28T09:38:14Z</time>
      </trkpt>
      <trkpt lat="45.5774" lon="5.97406">
        <ele>318.6</ele>
        <time>2021-08-28T09:38:16Z</time>
      </trkpt>
      <trkpt lat="45.57734" lon="5.97412">
        <ele>318.6</ele>
        <time>2021-08-28T09:38:17Z</time>
      </trkpt>
      <trkpt lat="45.57729" lon="5.97414">
        <ele>318.6</ele>
        <time>2021-08-28T09:38:18Z</time>
      </trkpt>
      <trkpt lat="45.57724" lon="5.97415">
        <ele>318.6</ele>
        <time>2021-08-28T09:38:20Z</time>
      </trkpt>
      <trkpt lat="45.57717" lon="5.97421">
        <ele>318.6</ele>
        <time>2021-08-28T09:38:21Z</time>
      </trkpt>
      <trkpt lat="45.57713" lon="5.97425">
        <ele>318.7</ele>
        <time>2021-08-28T09:38:23Z</time>
      </trkpt>
      <trkpt lat="45.57711" lon="5.97427">
        <ele>318.7</ele>
        <time>2021-08-28T09:38:24Z</time>
      </trkpt>
      <trkpt lat="45.57705" lon="5.97432">
        <ele>318.8</ele>
        <time>2021-08-28T09:38:26Z</time>
      </trkpt>
      <trkpt lat="45.577" lon="5.97438">
        <ele>318.9</ele>
        <time>2021-08-28T09:38:27Z</time>
      </trkpt>
      <trkpt lat="45.57698" lon="5.9744">
        <ele>318.9</ele>
        <time>2021-08-28T09:38:28Z</time>
      </trkpt>
      <trkpt lat="45.57694" lon="5.97444">
        <ele>319</ele>
        <time>2021-08-28T09:38:30Z</time>
      </trkpt>
      <trkpt lat="45.57689" lon="5.97447">
        <ele>319.1</ele>
        <time>2021-08-28T09:38:31Z</time>
      </trkpt>
      <trkpt lat="45.57684" lon="5.9745">
        <ele>319.2</ele>
        <time>2021-08-28T09:38:32Z</time>
      </trkpt>
      <trkpt lat="45.57681" lon="5.97453">
        <ele>319.2</ele>
        <time>2021-08-28T09:38:34Z</time>
      </trkpt>
      <trkpt lat="45.57676" lon="5.97455">
        <ele>319</ele>
        <time>2021-08-28T09:38:35Z</time>
      </trkpt>
      <trkpt lat="45.57673" lon="5.97452">
        <ele>318.8</ele>
        <time>2021-08-28T09:38:37Z</time>
      </trkpt>
      <trkpt lat="45.5767" lon="5.97447">
        <ele>318.7</ele>
        <time>2021-08-28T09:38:38Z</time>
      </trkpt>
      <trkpt lat="45.57665" lon="5.97443">
        <ele>318.4</ele>
        <time>2021-08-28T09:38:39Z</time>
      </trkpt>
      <trkpt lat="45.57657" lon="5.97432">
        <ele>318</ele>
        <time>2021-08-28T09:38:42Z</time>
      </trkpt>
      <trkpt lat="45.57653" lon="5.97427">
        <ele>317.8</ele>
        <time>2021-08-28T09:38:43Z</time>
      </trkpt>
      <trkpt lat="45.57648" lon="5.97423">
        <ele>317.6</ele>
        <time>2021-08-28T09:38:44Z</time>
      </trkpt>
      <trkpt lat="45.57643" lon="5.97419">
        <ele>317.5</ele>
        <time>2021-08-28T09:38:45Z</time>
      </trkpt>
      <trkpt lat="45.57638" lon="5.97414">
        <ele>317.3</ele>
        <time>2021-08-28T09:38:46Z</time>
      </trkpt>
      <trkpt lat="45.57633" lon="5.9741">
        <ele>317.2</ele>
        <time>2021-08-28T09:38:47Z</time>
      </trkpt>
      <trkpt lat="45.57629" lon="5.97406">
        <ele>317.1</ele>
        <time>2021-08-28T09:38:48Z</time>
      </trkpt>
      <trkpt lat="45.57623" lon="5.97402">
        <ele>317</ele>
        <time>2021-08-28T09:38:49Z</time>
      </trkpt>
      <trkpt lat="45.57618" lon="5.97398">
        <ele>316.9</ele>
        <time>2021-08-28T09:38:50Z</time>
      </trkpt>
      <trkpt lat="45.57612" lon="5.97397">
        <ele>316.9</ele>
        <time>2021-08-28T09:38:51Z</time>
      </trkpt>
      <trkpt lat="45.57607" lon="5.97397">
        <ele>316.8</ele>
        <time>2021-08-28T09:38:52Z</time>
      </trkpt>
      <trkpt lat="45.57602" lon="5.974">
        <ele>316.8</ele>
        <time>2021-08-28T09:38:53Z</time>
      </trkpt>
      <trkpt lat="45.57597" lon="5.97403">
        <ele>316.8</ele>
        <time>2021-08-28T09:38:54Z</time>
      </trkpt>
      <trkpt lat="45.57592" lon="5.97406">
        <ele>316.7</ele>
        <time>2021-08-28T09:38:55Z</time>
      </trkpt>
      <trkpt lat="45.57587" lon="5.97409">
        <ele>316.7</ele>
        <time>2021-08-28T09:38:56Z</time>
      </trkpt>
      <trkpt lat="45.57583" lon="5.97413">
        <ele>316.6</ele>
        <time>2021-08-28T09:38:57Z</time>
      </trkpt>
      <trkpt lat="45.57578" lon="5.97417">
        <ele>316.6</ele>
        <time>2021-08-28T09:38:58Z</time>
      </trkpt>
      <trkpt lat="45.57574" lon="5.97421">
        <ele>316.5</ele>
        <time>2021-08-28T09:38:59Z</time>
      </trkpt>
      <trkpt lat="45.57569" lon="5.97424">
        <ele>316.4</ele>
        <time>2021-08-28T09:39:00Z</time>
      </trkpt>
      <trkpt lat="45.57564" lon="5.97427">
        <ele>316.3</ele>
        <time>2021-08-28T09:39:01Z</time>
      </trkpt>
      <trkpt lat="45.57559" lon="5.97431">
        <ele>316.2</ele>
        <time>2021-08-28T09:39:02Z</time>
      </trkpt>
      <trkpt lat="45.57553" lon="5.97434">
        <ele>316.2</ele>
        <time>2021-08-28T09:39:03Z</time>
      </trkpt>
      <trkpt lat="45.57548" lon="5.97438">
        <ele>316.1</ele>
        <time>2021-08-28T09:39:04Z</time>
      </trkpt>
      <trkpt lat="45.57543" lon="5.97441">
        <ele>315.9</ele>
        <time>2021-08-28T09:39:05Z</time>
      </trkpt>
      <trkpt lat="45.57537" lon="5.97445">
        <ele>315.8</ele>
        <time>2021-08-28T09:39:06Z</time>
      </trkpt>
      <trkpt lat="45.57532" lon="5.97448">
        <ele>315.7</ele>
        <time>2021-08-28T09:39:07Z</time>
      </trkpt>
      <trkpt lat="45.57526" lon="5.97452">
        <ele>315.6</ele>
        <time>2021-08-28T09:39:08Z</time>
      </trkpt>
      <trkpt lat="45.57521" lon="5.97457">
        <ele>315.5</ele>
        <time>2021-08-28T09:39:09Z</time>
      </trkpt>
      <trkpt lat="45.57516" lon="5.97461">
        <ele>315.4</ele>
        <time>2021-08-28T09:39:10Z</time>
      </trkpt>
      <trkpt lat="45.5751" lon="5.97465">
        <ele>315.3</ele>
        <time>2021-08-28T09:39:11Z</time>
      </trkpt>
      <trkpt lat="45.57504" lon="5.97469">
        <ele>315.2</ele>
        <time>2021-08-28T09:39:12Z</time>
      </trkpt>
      <trkpt lat="45.57498" lon="5.97474">
        <ele>315</ele>
        <time>2021-08-28T09:39:13Z</time>
      </trkpt>
      <trkpt lat="45.57493" lon="5.9748">
        <ele>314.9</ele>
        <time>2021-08-28T09:39:14Z</time>
      </trkpt>
      <trkpt lat="45.57487" lon="5.97486">
        <ele>314.8</ele>
        <time>2021-08-28T09:39:15Z</time>
      </trkpt>
      <trkpt lat="45.57482" lon="5.97492">
        <ele>314.7</ele>
        <time>2021-08-28T09:39:16Z</time>
      </trkpt>
      <trkpt lat="45.57477" lon="5.97499">
        <ele>314.7</ele>
        <time>2021-08-28T09:39:17Z</time>
      </trkpt>
      <trkpt lat="45.57472" lon="5.97505">
        <ele>314.6</ele>
        <time>2021-08-28T09:39:18Z</time>
      </trkpt>
      <trkpt lat="45.57467" lon="5.97511">
        <ele>314.5</ele>
        <time>2021-08-28T09:39:19Z</time>
      </trkpt>
      <trkpt lat="45.57462" lon="5.97516">
        <ele>314.4</ele>
        <time>2021-08-28T09:39:20Z</time>
      </trkpt>
      <trkpt lat="45.57457" lon="5.97521">
        <ele>314.3</ele>
        <time>2021-08-28T09:39:21Z</time>
      </trkpt>
      <trkpt lat="45.57451" lon="5.97526">
        <ele>314.2</ele>
        <time>2021-08-28T09:39:22Z</time>
      </trkpt>
      <trkpt lat="45.57446" lon="5.97531">
        <ele>314.1</ele>
        <time>2021-08-28T09:39:23Z</time>
      </trkpt>
      <trkpt lat="45.57441" lon="5.97537">
        <ele>314</ele>
        <time>2021-08-28T09:39:24Z</time>
      </trkpt>
      <trkpt lat="45.57436" lon="5.97543">
        <ele>313.9</ele>
        <time>2021-08-28T09:39:25Z</time>
      </trkpt>
      <trkpt lat="45.57431" lon="5.97548">
        <ele>313.8</ele>
        <time>2021-08-28T09:39:26Z</time>
      </trkpt>
      <trkpt lat="45.57426" lon="5.97554">
        <ele>313.7</ele>
        <time>2021-08-28T09:39:27Z</time>
      </trkpt>
      <trkpt lat="45.5742" lon="5.97559">
        <ele>313.5</ele>
        <time>2021-08-28T09:39:28Z</time>
      </trkpt>
      <trkpt lat="45.57415" lon="5.97565">
        <ele>313.4</ele>
        <time>2021-08-28T09:39:29Z</time>
      </trkpt>
      <trkpt lat="45.57409" lon="5.97571">
        <ele>313.3</ele>
        <time>2021-08-28T09:39:30Z</time>
      </trkpt>
      <trkpt lat="45.57404" lon="5.97576">
        <ele>313.1</ele>
        <time>2021-08-28T09:39:31Z</time>
      </trkpt>
      <trkpt lat="45.57399" lon="5.97582">
        <ele>313</ele>
        <time>2021-08-28T09:39:32Z</time>
      </trkpt>
      <trkpt lat="45.57393" lon="5.97588">
        <ele>312.8</ele>
        <time>2021-08-28T09:39:33Z</time>
      </trkpt>
      <trkpt lat="45.57388" lon="5.97593">
        <ele>312.6</ele>
        <time>2021-08-28T09:39:34Z</time>
      </trkpt>
      <trkpt lat="45.57382" lon="5.97598">
        <ele>312.5</ele>
        <time>2021-08-28T09:39:35Z</time>
      </trkpt>
      <trkpt lat="45.57376" lon="5.97603">
        <ele>312.4</ele>
        <time>2021-08-28T09:39:36Z</time>
      </trkpt>
      <trkpt lat="45.5737" lon="5.97608">
        <ele>312.2</ele>
        <time>2021-08-28T09:39:37Z</time>
      </trkpt>
      <trkpt lat="45.57365" lon="5.97614">
        <ele>312.1</ele>
        <time>2021-08-28T09:39:38Z</time>
      </trkpt>
      <trkpt lat="45.57359" lon="5.97619">
        <ele>312</ele>
        <time>2021-08-28T09:39:39Z</time>
      </trkpt>
      <trkpt lat="45.57354" lon="5.97624">
        <ele>311.8</ele>
        <time>2021-08-28T09:39:40Z</time>
      </trkpt>
      <trkpt lat="45.57349" lon="5.97628">
        <ele>311.6</ele>
        <time>2021-08-28T09:39:41Z</time>
      </trkpt>
      <trkpt lat="45.57343" lon="5.97633">
        <ele>311.4</ele>
        <time>2021-08-28T09:39:42Z</time>
      </trkpt>
      <trkpt lat="45.57336" lon="5.97637">
        <ele>311.2</ele>
        <time>2021-08-28T09:39:43Z</time>
      </trkpt>
      <trkpt lat="45.5733" lon="5.97642">
        <ele>311.1</ele>
        <time>2021-08-28T09:39:44Z</time>
      </trkpt>
      <trkpt lat="45.57324" lon="5.97646">
        <ele>310.9</ele>
        <time>2021-08-28T09:39:45Z</time>
      </trkpt>
      <trkpt lat="45.57317" lon="5.97651">
        <ele>310.7</ele>
        <time>2021-08-28T09:39:46Z</time>
      </trkpt>
      <trkpt lat="45.5731" lon="5.97654">
        <ele>310.6</ele>
        <time>2021-08-28T09:39:47Z</time>
      </trkpt>
      <trkpt lat="45.57304" lon="5.97659">
        <ele>310.4</ele>
        <time>2021-08-28T09:39:48Z</time>
      </trkpt>
      <trkpt lat="45.57298" lon="5.97664">
        <ele>310.3</ele>
        <time>2021-08-28T09:39:49Z</time>
      </trkpt>
      <trkpt lat="45.57292" lon="5.97669">
        <ele>310.1</ele>
        <time>2021-08-28T09:39:50Z</time>
      </trkpt>
      <trkpt lat="45.57285" lon="5.97675">
        <ele>310</ele>
        <time>2021-08-28T09:39:51Z</time>
      </trkpt>
      <trkpt lat="45.57279" lon="5.97679">
        <ele>309.8</ele>
        <time>2021-08-28T09:39:52Z</time>
      </trkpt>
      <trkpt lat="45.57272" lon="5.97684">
        <ele>309.7</ele>
        <time>2021-08-28T09:39:53Z</time>
      </trkpt>
      <trkpt lat="45.57266" lon="5.97689">
        <ele>309.5</ele>
        <time>2021-08-28T09:39:54Z</time>
      </trkpt>
      <trkpt lat="45.57259" lon="5.97693">
        <ele>309.4</ele>
        <time>2021-08-28T09:39:55Z</time>
      </trkpt>
      <trkpt lat="45.57253" lon="5.97698">
        <ele>309.3</ele>
        <time>2021-08-28T09:39:56Z</time>
      </trkpt>
      <trkpt lat="45.57246" lon="5.97703">
        <ele>309.1</ele>
        <time>2021-08-28T09:39:57Z</time>
      </trkpt>
      <trkpt lat="45.5724" lon="5.97708">
        <ele>309</ele>
        <time>2021-08-28T09:39:58Z</time>
      </trkpt>
      <trkpt lat="45.57233" lon="5.97713">
        <ele>308.9</ele>
        <time>2021-08-28T09:39:59Z</time>
      </trkpt>
      <trkpt lat="45.57227" lon="5.97717">
        <ele>308.9</ele>
        <time>2021-08-28T09:40:00Z</time>
      </trkpt>
      <trkpt lat="45.57221" lon="5.97722">
        <ele>308.8</ele>
        <time>2021-08-28T09:40:01Z</time>
      </trkpt>
      <trkpt lat="45.57214" lon="5.97724">
        <ele>308.8</ele>
        <time>2021-08-28T09:40:02Z</time>
      </trkpt>
      <trkpt lat="45.57208" lon="5.97725">
        <ele>308.8</ele>
        <time>2021-08-28T09:40:03Z</time>
      </trkpt>
      <trkpt lat="45.57202" lon="5.97728">
        <ele>308.6</ele>
        <time>2021-08-28T09:40:04Z</time>
      </trkpt>
      <trkpt lat="45.57196" lon="5.97732">
        <ele>308.4</ele>
        <time>2021-08-28T09:40:05Z</time>
      </trkpt>
      <trkpt lat="45.5719" lon="5.97735">
        <ele>308.3</ele>
        <time>2021-08-28T09:40:06Z</time>
      </trkpt>
      <trkpt lat="45.57184" lon="5.97736">
        <ele>308.2</ele>
        <time>2021-08-28T09:40:07Z</time>
      </trkpt>
      <trkpt lat="45.57177" lon="5.97738">
        <ele>308.1</ele>
        <time>2021-08-28T09:40:08Z</time>
      </trkpt>
      <trkpt lat="45.57171" lon="5.97739">
        <ele>308</ele>
        <time>2021-08-28T09:40:09Z</time>
      </trkpt>
      <trkpt lat="45.57164" lon="5.97739">
        <ele>307.9</ele>
        <time>2021-08-28T09:40:10Z</time>
      </trkpt>
      <trkpt lat="45.57158" lon="5.9774">
        <ele>307.9</ele>
        <time>2021-08-28T09:40:11Z</time>
      </trkpt>
      <trkpt lat="45.57152" lon="5.97741">
        <ele>307.8</ele>
        <time>2021-08-28T09:40:12Z</time>
      </trkpt>
      <trkpt lat="45.57146" lon="5.97743">
        <ele>307.7</ele>
        <time>2021-08-28T09:40:13Z</time>
      </trkpt>
      <trkpt lat="45.5714" lon="5.97745">
        <ele>307.6</ele>
        <time>2021-08-28T09:40:14Z</time>
      </trkpt>
      <trkpt lat="45.57134" lon="5.97746">
        <ele>307.6</ele>
        <time>2021-08-28T09:40:15Z</time>
      </trkpt>
      <trkpt lat="45.57128" lon="5.97746">
        <ele>307.5</ele>
        <time>2021-08-28T09:40:16Z</time>
      </trkpt>
      <trkpt lat="45.57123" lon="5.97748">
        <ele>307.4</ele>
        <time>2021-08-28T09:40:17Z</time>
      </trkpt>
      <trkpt lat="45.57117" lon="5.97749">
        <ele>307.3</ele>
        <time>2021-08-28T09:40:18Z</time>
      </trkpt>
      <trkpt lat="45.57112" lon="5.9775">
        <ele>307.3</ele>
        <time>2021-08-28T09:40:19Z</time>
      </trkpt>
      <trkpt lat="45.57106" lon="5.9775">
        <ele>307.2</ele>
        <time>2021-08-28T09:40:20Z</time>
      </trkpt>
      <trkpt lat="45.57101" lon="5.97751">
        <ele>307.2</ele>
        <time>2021-08-28T09:40:21Z</time>
      </trkpt>
      <trkpt lat="45.57095" lon="5.97752">
        <ele>307.2</ele>
        <time>2021-08-28T09:40:22Z</time>
      </trkpt>
      <trkpt lat="45.5709" lon="5.97753">
        <ele>307.2</ele>
        <time>2021-08-28T09:40:23Z</time>
      </trkpt>
      <trkpt lat="45.57085" lon="5.97754">
        <ele>307.1</ele>
        <time>2021-08-28T09:40:24Z</time>
      </trkpt>
      <trkpt lat="45.5708" lon="5.97756">
        <ele>307</ele>
        <time>2021-08-28T09:40:25Z</time>
      </trkpt>
      <trkpt lat="45.57075" lon="5.97759">
        <ele>306.9</ele>
        <time>2021-08-28T09:40:26Z</time>
      </trkpt>
      <trkpt lat="45.5707" lon="5.97761">
        <ele>306.9</ele>
        <time>2021-08-28T09:40:27Z</time>
      </trkpt>
      <trkpt lat="45.57066" lon="5.97765">
        <ele>306.8</ele>
        <time>2021-08-28T09:40:28Z</time>
      </trkpt>
      <trkpt lat="45.57061" lon="5.97768">
        <ele>306.7</ele>
        <time>2021-08-28T09:40:29Z</time>
      </trkpt>
      <trkpt lat="45.57056" lon="5.97772">
        <ele>306.6</ele>
        <time>2021-08-28T09:40:30Z</time>
      </trkpt>
      <trkpt lat="45.5705" lon="5.97776">
        <ele>306.5</ele>
        <time>2021-08-28T09:40:31Z</time>
      </trkpt>
      <trkpt lat="45.57045" lon="5.97779">
        <ele>306.4</ele>
        <time>2021-08-28T09:40:32Z</time>
      </trkpt>
      <trkpt lat="45.5704" lon="5.97783">
        <ele>306.3</ele>
        <time>2021-08-28T09:40:33Z</time>
      </trkpt>
      <trkpt lat="45.57036" lon="5.97788">
        <ele>306.2</ele>
        <time>2021-08-28T09:40:34Z</time>
      </trkpt>
      <trkpt lat="45.57033" lon="5.97795">
        <ele>306.1</ele>
        <time>2021-08-28T09:40:35Z</time>
      </trkpt>
      <trkpt lat="45.5703" lon="5.97802">
        <ele>306.1</ele>
        <time>2021-08-28T09:40:36Z</time>
      </trkpt>
      <trkpt lat="45.57027" lon="5.97809">
        <ele>306</ele>
        <time>2021-08-28T09:40:37Z</time>
      </trkpt>
      <trkpt lat="45.57024" lon="5.97815">
        <ele>306</ele>
        <time>2021-08-28T09:40:38Z</time>
      </trkpt>
      <trkpt lat="45.57021" lon="5.97821">
        <ele>306</ele>
        <time>2021-08-28T09:40:39Z</time>
      </trkpt>
      <trkpt lat="45.57017" lon="5.97828">
        <ele>305.9</ele>
        <time>2021-08-28T09:40:40Z</time>
      </trkpt>
      <trkpt lat="45.57014" lon="5.97834">
        <ele>305.9</ele>
        <time>2021-08-28T09:40:41Z</time>
      </trkpt>
      <trkpt lat="45.5701" lon="5.9784">
        <ele>305.8</ele>
        <time>2021-08-28T09:40:42Z</time>
      </trkpt>
      <trkpt lat="45.57006" lon="5.97846">
        <ele>305.7</ele>
        <time>2021-08-28T09:40:43Z</time>
      </trkpt>
      <trkpt lat="45.57002" lon="5.97852">
        <ele>305.7</ele>
        <time>2021-08-28T09:40:44Z</time>
      </trkpt>
      <trkpt lat="45.56998" lon="5.97859">
        <ele>305.6</ele>
        <time>2021-08-28T09:40:45Z</time>
      </trkpt>
      <trkpt lat="45.56995" lon="5.97865">
        <ele>305.5</ele>
        <time>2021-08-28T09:40:46Z</time>
      </trkpt>
      <trkpt lat="45.56991" lon="5.97872">
        <ele>305.5</ele>
        <time>2021-08-28T09:40:47Z</time>
      </trkpt>
      <trkpt lat="45.56987" lon="5.97878">
        <ele>305.4</ele>
        <time>2021-08-28T09:40:48Z</time>
      </trkpt>
      <trkpt lat="45.56984" lon="5.97884">
        <ele>305.3</ele>
        <time>2021-08-28T09:40:49Z</time>
      </trkpt>
      <trkpt lat="45.5698" lon="5.97891">
        <ele>305.2</ele>
        <time>2021-08-28T09:40:50Z</time>
      </trkpt>
      <trkpt lat="45.56976" lon="5.97898">
        <ele>305.2</ele>
        <time>2021-08-28T09:40:51Z</time>
      </trkpt>
      <trkpt lat="45.56972" lon="5.97904">
        <ele>305.1</ele>
        <time>2021-08-28T09:40:52Z</time>
      </trkpt>
      <trkpt lat="45.56968" lon="5.97911">
        <ele>305.1</ele>
        <time>2021-08-28T09:40:53Z</time>
      </trkpt>
      <trkpt lat="45.56964" lon="5.97917">
        <ele>305</ele>
        <time>2021-08-28T09:40:54Z</time>
      </trkpt>
      <trkpt lat="45.56959" lon="5.97923">
        <ele>304.9</ele>
        <time>2021-08-28T09:40:55Z</time>
      </trkpt>
      <trkpt lat="45.56955" lon="5.97929">
        <ele>304.8</ele>
        <time>2021-08-28T09:40:56Z</time>
      </trkpt>
      <trkpt lat="45.5695" lon="5.97935">
        <ele>304.7</ele>
        <time>2021-08-28T09:40:57Z</time>
      </trkpt>
      <trkpt lat="45.56945" lon="5.9794">
        <ele>304.6</ele>
        <time>2021-08-28T09:40:58Z</time>
      </trkpt>
      <trkpt lat="45.5694" lon="5.97946">
        <ele>304.5</ele>
        <time>2021-08-28T09:40:59Z</time>
      </trkpt>
      <trkpt lat="45.56935" lon="5.97951">
        <ele>304.3</ele>
        <time>2021-08-28T09:41:00Z</time>
      </trkpt>
      <trkpt lat="45.56929" lon="5.97955">
        <ele>304.2</ele>
        <time>2021-08-28T09:41:01Z</time>
      </trkpt>
      <trkpt lat="45.56923" lon="5.97959">
        <ele>304</ele>
        <time>2021-08-28T09:41:02Z</time>
      </trkpt>
      <trkpt lat="45.56917" lon="5.97962">
        <ele>303.8</ele>
        <time>2021-08-28T09:41:03Z</time>
      </trkpt>
      <trkpt lat="45.5691" lon="5.97965">
        <ele>303.6</ele>
        <time>2021-08-28T09:41:04Z</time>
      </trkpt>
      <trkpt lat="45.56903" lon="5.97968">
        <ele>303.4</ele>
        <time>2021-08-28T09:41:05Z</time>
      </trkpt>
      <trkpt lat="45.56897" lon="5.97971">
        <ele>303.2</ele>
        <time>2021-08-28T09:41:06Z</time>
      </trkpt>
      <trkpt lat="45.5689" lon="5.97973">
        <ele>303</ele>
        <time>2021-08-28T09:41:07Z</time>
      </trkpt>
      <trkpt lat="45.56883" lon="5.97975">
        <ele>302.8</ele>
        <time>2021-08-28T09:41:08Z</time>
      </trkpt>
      <trkpt lat="45.56877" lon="5.97977">
        <ele>302.6</ele>
        <time>2021-08-28T09:41:09Z</time>
      </trkpt>
      <trkpt lat="45.5687" lon="5.97978">
        <ele>302.5</ele>
        <time>2021-08-28T09:41:10Z</time>
      </trkpt>
      <trkpt lat="45.56863" lon="5.97979">
        <ele>302.4</ele>
        <time>2021-08-28T09:41:11Z</time>
      </trkpt>
      <trkpt lat="45.56856" lon="5.9798">
        <ele>302.3</ele>
        <time>2021-08-28T09:41:12Z</time>
      </trkpt>
      <trkpt lat="45.5685" lon="5.97981">
        <ele>302.2</ele>
        <time>2021-08-28T09:41:13Z</time>
      </trkpt>
      <trkpt lat="45.56843" lon="5.97982">
        <ele>302</ele>
        <time>2021-08-28T09:41:14Z</time>
      </trkpt>
      <trkpt lat="45.56836" lon="5.97983">
        <ele>301.9</ele>
        <time>2021-08-28T09:41:15Z</time>
      </trkpt>
      <trkpt lat="45.56829" lon="5.97984">
        <ele>301.8</ele>
        <time>2021-08-28T09:41:16Z</time>
      </trkpt>
      <trkpt lat="45.56822" lon="5.97985">
        <ele>301.7</ele>
        <time>2021-08-28T09:41:17Z</time>
      </trkpt>
      <trkpt lat="45.56815" lon="5.97986">
        <ele>301.6</ele>
        <time>2021-08-28T09:41:18Z</time>
      </trkpt>
      <trkpt lat="45.56809" lon="5.97987">
        <ele>301.5</ele>
        <time>2021-08-28T09:41:19Z</time>
      </trkpt>
      <trkpt lat="45.56802" lon="5.97988">
        <ele>301.5</ele>
        <time>2021-08-28T09:41:20Z</time>
      </trkpt>
      <trkpt lat="45.56796" lon="5.9799">
        <ele>301.4</ele>
        <time>2021-08-28T09:41:21Z</time>
      </trkpt>
      <trkpt lat="45.5679" lon="5.97991">
        <ele>301.3</ele>
        <time>2021-08-28T09:41:22Z</time>
      </trkpt>
      <trkpt lat="45.56784" lon="5.97991">
        <ele>301.3</ele>
        <time>2021-08-28T09:41:23Z</time>
      </trkpt>
      <trkpt lat="45.56779" lon="5.97993">
        <ele>301.2</ele>
        <time>2021-08-28T09:41:24Z</time>
      </trkpt>
      <trkpt lat="45.56773" lon="5.97994">
        <ele>301.1</ele>
        <time>2021-08-28T09:41:25Z</time>
      </trkpt>
      <trkpt lat="45.56766" lon="5.97995">
        <ele>301.1</ele>
        <time>2021-08-28T09:41:26Z</time>
      </trkpt>
      <trkpt lat="45.5676" lon="5.97995">
        <ele>301</ele>
        <time>2021-08-28T09:41:27Z</time>
      </trkpt>
      <trkpt lat="45.56755" lon="5.97995">
        <ele>300.9</ele>
        <time>2021-08-28T09:41:28Z</time>
      </trkpt>
      <trkpt lat="45.56749" lon="5.97995">
        <ele>300.9</ele>
        <time>2021-08-28T09:41:29Z</time>
      </trkpt>
      <trkpt lat="45.56743" lon="5.97995">
        <ele>300.8</ele>
        <time>2021-08-28T09:41:30Z</time>
      </trkpt>
      <trkpt lat="45.56739" lon="5.97995">
        <ele>300.8</ele>
        <time>2021-08-28T09:41:31Z</time>
      </trkpt>
      <trkpt lat="45.56735" lon="5.97994">
        <ele>300.8</ele>
        <time>2021-08-28T09:41:32Z</time>
      </trkpt>
      <trkpt lat="45.56734" lon="5.97994">
        <ele>300.7</ele>
        <time>2021-08-28T09:41:33Z</time>
      </trkpt>
      <trkpt lat="45.56731" lon="5.97993">
        <ele>300.7</ele>
        <time>2021-08-28T09:41:34Z</time>
      </trkpt>
      <trkpt lat="45.56729" lon="5.97992">
        <ele>300.7</ele>
        <time>2021-08-28T09:41:35Z</time>
      </trkpt>
      <trkpt lat="45.56726" lon="5.97992">
        <ele>300.7</ele>
        <time>2021-08-28T09:41:36Z</time>
      </trkpt>
      <trkpt lat="45.56724" lon="5.97992">
        <ele>300.7</ele>
        <time>2021-08-28T09:41:37Z</time>
      </trkpt>
      <trkpt lat="45.56718" lon="5.97989">
        <ele>300.7</ele>
        <time>2021-08-28T09:41:38Z</time>
      </trkpt>
      <trkpt lat="45.56715" lon="5.9799">
        <ele>300.6</ele>
        <time>2021-08-28T09:41:39Z</time>
      </trkpt>
      <trkpt lat="45.56712" lon="5.9799">
        <ele>300.6</ele>
        <time>2021-08-28T09:41:40Z</time>
      </trkpt>
      <trkpt lat="45.56714" lon="5.97992">
        <ele>300.6</ele>
        <time>2021-08-28T09:41:43Z</time>
      </trkpt>
      <trkpt lat="45.56715" lon="5.97993">
        <ele>300.6</ele>
        <time>2021-08-28T09:41:44Z</time>
      </trkpt>
      <trkpt lat="45.56716" lon="5.97993">
        <ele>300.5</ele>
        <time>2021-08-28T09:41:45Z</time>
      </trkpt>
      <trkpt lat="45.56716" lon="5.97993">
        <ele>300.5</ele>
        <time>2021-08-28T09:41:46Z</time>
      </trkpt>
      <trkpt lat="45.56716" lon="5.97993">
        <ele>300.5</ele>
        <time>2021-08-28T09:41:48Z</time>
      </trkpt>
      <trkpt lat="45.56717" lon="5.97993">
        <ele>300.5</ele>
        <time>2021-08-28T09:41:49Z</time>
      </trkpt>
      <trkpt lat="45.56717" lon="5.97994">
        <ele>300.5</ele>
        <time>2021-08-28T09:41:52Z</time>
      </trkpt>
      <trkpt lat="45.56717" lon="5.97994">
        <ele>300.5</ele>
        <time>2021-08-28T09:41:53Z</time>
      </trkpt>
      <trkpt lat="45.56714" lon="5.97996">
        <ele>300.5</ele>
        <time>2021-08-28T09:44:15Z</time>
      </trkpt>
      <trkpt lat="45.56713" lon="5.97997">
        <ele>300.5</ele>
        <time>2021-08-28T09:44:16Z</time>
      </trkpt>
      <trkpt lat="45.5671" lon="5.97997">
        <ele>300.4</ele>
        <time>2021-08-28T09:44:17Z</time>
      </trkpt>
      <trkpt lat="45.56704" lon="5.97998">
        <ele>300.4</ele>
        <time>2021-08-28T09:44:19Z</time>
      </trkpt>
      <trkpt lat="45.56697" lon="5.97997">
        <ele>300.3</ele>
        <time>2021-08-28T09:44:20Z</time>
      </trkpt>
      <trkpt lat="45.56689" lon="5.97999">
        <ele>300.2</ele>
        <time>2021-08-28T09:44:23Z</time>
      </trkpt>
      <trkpt lat="45.56685" lon="5.97999">
        <ele>300.1</ele>
        <time>2021-08-28T09:44:24Z</time>
      </trkpt>
      <trkpt lat="45.56677" lon="5.97998">
        <ele>300</ele>
        <time>2021-08-28T09:44:26Z</time>
      </trkpt>
      <trkpt lat="45.56669" lon="5.97999">
        <ele>299.9</ele>
        <time>2021-08-28T09:44:27Z</time>
      </trkpt>
      <trkpt lat="45.56662" lon="5.98001">
        <ele>299.9</ele>
        <time>2021-08-28T09:44:29Z</time>
      </trkpt>
      <trkpt lat="45.56653" lon="5.98003">
        <ele>299.8</ele>
        <time>2021-08-28T09:44:31Z</time>
      </trkpt>
      <trkpt lat="45.56646" lon="5.98004">
        <ele>299.8</ele>
        <time>2021-08-28T09:44:33Z</time>
      </trkpt>
      <trkpt lat="45.56641" lon="5.98007">
        <ele>299.8</ele>
        <time>2021-08-28T09:44:34Z</time>
      </trkpt>
      <trkpt lat="45.56634" lon="5.98007">
        <ele>299.7</ele>
        <time>2021-08-28T09:44:37Z</time>
      </trkpt>
      <trkpt lat="45.56629" lon="5.98007">
        <ele>299.7</ele>
        <time>2021-08-28T09:44:38Z</time>
      </trkpt>
      <trkpt lat="45.56625" lon="5.98008">
        <ele>299.7</ele>
        <time>2021-08-28T09:44:39Z</time>
      </trkpt>
      <trkpt lat="45.5662" lon="5.98008">
        <ele>299.6</ele>
        <time>2021-08-28T09:44:40Z</time>
      </trkpt>
      <trkpt lat="45.56615" lon="5.98009">
        <ele>299.6</ele>
        <time>2021-08-28T09:44:41Z</time>
      </trkpt>
      <trkpt lat="45.5661" lon="5.9801">
        <ele>299.6</ele>
        <time>2021-08-28T09:44:42Z</time>
      </trkpt>
      <trkpt lat="45.56605" lon="5.98011">
        <ele>299.6</ele>
        <time>2021-08-28T09:44:43Z</time>
      </trkpt>
      <trkpt lat="45.566" lon="5.98012">
        <ele>299.6</ele>
        <time>2021-08-28T09:44:44Z</time>
      </trkpt>
      <trkpt lat="45.56595" lon="5.98012">
        <ele>299.5</ele>
        <time>2021-08-28T09:44:45Z</time>
      </trkpt>
      <trkpt lat="45.5659" lon="5.98013">
        <ele>299.5</ele>
        <time>2021-08-28T09:44:46Z</time>
      </trkpt>
      <trkpt lat="45.56585" lon="5.98014">
        <ele>299.5</ele>
        <time>2021-08-28T09:44:47Z</time>
      </trkpt>
      <trkpt lat="45.5658" lon="5.98015">
        <ele>299.4</ele>
        <time>2021-08-28T09:44:48Z</time>
      </trkpt>
      <trkpt lat="45.56575" lon="5.98016">
        <ele>299.4</ele>
        <time>2021-08-28T09:44:49Z</time>
      </trkpt>
      <trkpt lat="45.56569" lon="5.98017">
        <ele>299.4</ele>
        <time>2021-08-28T09:44:50Z</time>
      </trkpt>
      <trkpt lat="45.56564" lon="5.98018">
        <ele>299.4</ele>
        <time>2021-08-28T09:44:51Z</time>
      </trkpt>
      <trkpt lat="45.56559" lon="5.9802">
        <ele>299.4</ele>
        <time>2021-08-28T09:44:52Z</time>
      </trkpt>
      <trkpt lat="45.56553" lon="5.98021">
        <ele>299.3</ele>
        <time>2021-08-28T09:44:53Z</time>
      </trkpt>
      <trkpt lat="45.56548" lon="5.98022">
        <ele>299.3</ele>
        <time>2021-08-28T09:44:54Z</time>
      </trkpt>
      <trkpt lat="45.56542" lon="5.98023">
        <ele>299.3</ele>
        <time>2021-08-28T09:44:55Z</time>
      </trkpt>
      <trkpt lat="45.56537" lon="5.98024">
        <ele>299.3</ele>
        <time>2021-08-28T09:44:56Z</time>
      </trkpt>
      <trkpt lat="45.56531" lon="5.98025">
        <ele>299.3</ele>
        <time>2021-08-28T09:44:57Z</time>
      </trkpt>
      <trkpt lat="45.56526" lon="5.98026">
        <ele>299.2</ele>
        <time>2021-08-28T09:44:58Z</time>
      </trkpt>
      <trkpt lat="45.5652" lon="5.98027">
        <ele>299.2</ele>
        <time>2021-08-28T09:44:59Z</time>
      </trkpt>
      <trkpt lat="45.56514" lon="5.98027">
        <ele>299.2</ele>
        <time>2021-08-28T09:45:00Z</time>
      </trkpt>
      <trkpt lat="45.56509" lon="5.98029">
        <ele>299.2</ele>
        <time>2021-08-28T09:45:01Z</time>
      </trkpt>
      <trkpt lat="45.56503" lon="5.9803">
        <ele>299.2</ele>
        <time>2021-08-28T09:45:02Z</time>
      </trkpt>
      <trkpt lat="45.56498" lon="5.98031">
        <ele>299.1</ele>
        <time>2021-08-28T09:45:03Z</time>
      </trkpt>
      <trkpt lat="45.56492" lon="5.98032">
        <ele>299.1</ele>
        <time>2021-08-28T09:45:04Z</time>
      </trkpt>
      <trkpt lat="45.56487" lon="5.98034">
        <ele>299.1</ele>
        <time>2021-08-28T09:45:05Z</time>
      </trkpt>
      <trkpt lat="45.56482" lon="5.98037">
        <ele>299</ele>
        <time>2021-08-28T09:45:06Z</time>
      </trkpt>
      <trkpt lat="45.56477" lon="5.98041">
        <ele>299</ele>
        <time>2021-08-28T09:45:07Z</time>
      </trkpt>
      <trkpt lat="45.56472" lon="5.98046">
        <ele>298.9</ele>
        <time>2021-08-28T09:45:08Z</time>
      </trkpt>
      <trkpt lat="45.56468" lon="5.98051">
        <ele>298.9</ele>
        <time>2021-08-28T09:45:09Z</time>
      </trkpt>
      <trkpt lat="45.56464" lon="5.98057">
        <ele>298.9</ele>
        <time>2021-08-28T09:45:10Z</time>
      </trkpt>
      <trkpt lat="45.5646" lon="5.98063">
        <ele>298.8</ele>
        <time>2021-08-28T09:45:11Z</time>
      </trkpt>
      <trkpt lat="45.56457" lon="5.98069">
        <ele>298.8</ele>
        <time>2021-08-28T09:45:12Z</time>
      </trkpt>
      <trkpt lat="45.56453" lon="5.98076">
        <ele>298.8</ele>
        <time>2021-08-28T09:45:13Z</time>
      </trkpt>
      <trkpt lat="45.5645" lon="5.98082">
        <ele>298.7</ele>
        <time>2021-08-28T09:45:14Z</time>
      </trkpt>
      <trkpt lat="45.56445" lon="5.98089">
        <ele>298.7</ele>
        <time>2021-08-28T09:45:15Z</time>
      </trkpt>
      <trkpt lat="45.56441" lon="5.98095">
        <ele>298.7</ele>
        <time>2021-08-28T09:45:16Z</time>
      </trkpt>
      <trkpt lat="45.56437" lon="5.98101">
        <ele>298.7</ele>
        <time>2021-08-28T09:45:17Z</time>
      </trkpt>
      <trkpt lat="45.56433" lon="5.98108">
        <ele>298.7</ele>
        <time>2021-08-28T09:45:18Z</time>
      </trkpt>
      <trkpt lat="45.56429" lon="5.98115">
        <ele>298.7</ele>
        <time>2021-08-28T09:45:19Z</time>
      </trkpt>
      <trkpt lat="45.56425" lon="5.98122">
        <ele>298.7</ele>
        <time>2021-08-28T09:45:20Z</time>
      </trkpt>
      <trkpt lat="45.56421" lon="5.98128">
        <ele>298.7</ele>
        <time>2021-08-28T09:45:21Z</time>
      </trkpt>
      <trkpt lat="45.56417" lon="5.98134">
        <ele>298.7</ele>
        <time>2021-08-28T09:45:22Z</time>
      </trkpt>
      <trkpt lat="45.56413" lon="5.98139">
        <ele>298.7</ele>
        <time>2021-08-28T09:45:23Z</time>
      </trkpt>
      <trkpt lat="45.56409" lon="5.98145">
        <ele>298.7</ele>
        <time>2021-08-28T09:45:24Z</time>
      </trkpt>
      <trkpt lat="45.56405" lon="5.98151">
        <ele>298.7</ele>
        <time>2021-08-28T09:45:25Z</time>
      </trkpt>
      <trkpt lat="45.56401" lon="5.98156">
        <ele>298.7</ele>
        <time>2021-08-28T09:45:26Z</time>
      </trkpt>
      <trkpt lat="45.56397" lon="5.98162">
        <ele>298.6</ele>
        <time>2021-08-28T09:45:27Z</time>
      </trkpt>
      <trkpt lat="45.56392" lon="5.98166">
        <ele>298.6</ele>
        <time>2021-08-28T09:45:28Z</time>
      </trkpt>
      <trkpt lat="45.56387" lon="5.98169">
        <ele>298.6</ele>
        <time>2021-08-28T09:45:29Z</time>
      </trkpt>
      <trkpt lat="45.56382" lon="5.98171">
        <ele>298.6</ele>
        <time>2021-08-28T09:45:30Z</time>
      </trkpt>
      <trkpt lat="45.56376" lon="5.98174">
        <ele>298.5</ele>
        <time>2021-08-28T09:45:31Z</time>
      </trkpt>
      <trkpt lat="45.56371" lon="5.98175">
        <ele>298.5</ele>
        <time>2021-08-28T09:45:32Z</time>
      </trkpt>
      <trkpt lat="45.56365" lon="5.98176">
        <ele>298.5</ele>
        <time>2021-08-28T09:45:33Z</time>
      </trkpt>
      <trkpt lat="45.56359" lon="5.98177">
        <ele>298.5</ele>
        <time>2021-08-28T09:45:34Z</time>
      </trkpt>
      <trkpt lat="45.56354" lon="5.98178">
        <ele>298.5</ele>
        <time>2021-08-28T09:45:35Z</time>
      </trkpt>
      <trkpt lat="45.56349" lon="5.98178">
        <ele>298.6</ele>
        <time>2021-08-28T09:45:36Z</time>
      </trkpt>
      <trkpt lat="45.56344" lon="5.98179">
        <ele>298.6</ele>
        <time>2021-08-28T09:45:37Z</time>
      </trkpt>
      <trkpt lat="45.56339" lon="5.9818">
        <ele>298.6</ele>
        <time>2021-08-28T09:45:38Z</time>
      </trkpt>
      <trkpt lat="45.56333" lon="5.9818">
        <ele>298.7</ele>
        <time>2021-08-28T09:45:39Z</time>
      </trkpt>
      <trkpt lat="45.56328" lon="5.98181">
        <ele>298.7</ele>
        <time>2021-08-28T09:45:40Z</time>
      </trkpt>
      <trkpt lat="45.56322" lon="5.98181">
        <ele>298.8</ele>
        <time>2021-08-28T09:45:41Z</time>
      </trkpt>
      <trkpt lat="45.56317" lon="5.98181">
        <ele>298.8</ele>
        <time>2021-08-28T09:45:42Z</time>
      </trkpt>
      <trkpt lat="45.56312" lon="5.98182">
        <ele>298.8</ele>
        <time>2021-08-28T09:45:43Z</time>
      </trkpt>
      <trkpt lat="45.56307" lon="5.98183">
        <ele>298.9</ele>
        <time>2021-08-28T09:45:44Z</time>
      </trkpt>
      <trkpt lat="45.56301" lon="5.98185">
        <ele>298.9</ele>
        <time>2021-08-28T09:45:45Z</time>
      </trkpt>
      <trkpt lat="45.56296" lon="5.98186">
        <ele>298.9</ele>
        <time>2021-08-28T09:45:46Z</time>
      </trkpt>
      <trkpt lat="45.5629" lon="5.98187">
        <ele>299</ele>
        <time>2021-08-28T09:45:47Z</time>
      </trkpt>
      <trkpt lat="45.56285" lon="5.98187">
        <ele>299</ele>
        <time>2021-08-28T09:45:48Z</time>
      </trkpt>
      <trkpt lat="45.5628" lon="5.98186">
        <ele>299.1</ele>
        <time>2021-08-28T09:45:49Z</time>
      </trkpt>
      <trkpt lat="45.56275" lon="5.98185">
        <ele>299.1</ele>
        <time>2021-08-28T09:45:50Z</time>
      </trkpt>
      <trkpt lat="45.5627" lon="5.98185">
        <ele>299.1</ele>
        <time>2021-08-28T09:45:51Z</time>
      </trkpt>
      <trkpt lat="45.56264" lon="5.98184">
        <ele>299.2</ele>
        <time>2021-08-28T09:45:52Z</time>
      </trkpt>
      <trkpt lat="45.56259" lon="5.98185">
        <ele>299.2</ele>
        <time>2021-08-28T09:45:53Z</time>
      </trkpt>
      <trkpt lat="45.56255" lon="5.98185">
        <ele>299.2</ele>
        <time>2021-08-28T09:45:54Z</time>
      </trkpt>
      <trkpt lat="45.5625" lon="5.98187">
        <ele>299.3</ele>
        <time>2021-08-28T09:45:55Z</time>
      </trkpt>
      <trkpt lat="45.56245" lon="5.98187">
        <ele>299.3</ele>
        <time>2021-08-28T09:45:56Z</time>
      </trkpt>
      <trkpt lat="45.5624" lon="5.98188">
        <ele>299.3</ele>
        <time>2021-08-28T09:45:57Z</time>
      </trkpt>
      <trkpt lat="45.56235" lon="5.9819">
        <ele>299.4</ele>
        <time>2021-08-28T09:45:58Z</time>
      </trkpt>
      <trkpt lat="45.56231" lon="5.98191">
        <ele>299.4</ele>
        <time>2021-08-28T09:45:59Z</time>
      </trkpt>
      <trkpt lat="45.56226" lon="5.98192">
        <ele>299.4</ele>
        <time>2021-08-28T09:46:00Z</time>
      </trkpt>
      <trkpt lat="45.56221" lon="5.98194">
        <ele>299.5</ele>
        <time>2021-08-28T09:46:01Z</time>
      </trkpt>
      <trkpt lat="45.56216" lon="5.98196">
        <ele>299.5</ele>
        <time>2021-08-28T09:46:02Z</time>
      </trkpt>
      <trkpt lat="45.56211" lon="5.98198">
        <ele>299.6</ele>
        <time>2021-08-28T09:46:03Z</time>
      </trkpt>
      <trkpt lat="45.56206" lon="5.98199">
        <ele>299.6</ele>
        <time>2021-08-28T09:46:04Z</time>
      </trkpt>
      <trkpt lat="45.56202" lon="5.98201">
        <ele>299.6</ele>
        <time>2021-08-28T09:46:05Z</time>
      </trkpt>
      <trkpt lat="45.56198" lon="5.98202">
        <ele>299.6</ele>
        <time>2021-08-28T09:46:06Z</time>
      </trkpt>
      <trkpt lat="45.56193" lon="5.98204">
        <ele>299.6</ele>
        <time>2021-08-28T09:46:07Z</time>
      </trkpt>
      <trkpt lat="45.56188" lon="5.98206">
        <ele>299.6</ele>
        <time>2021-08-28T09:46:08Z</time>
      </trkpt>
      <trkpt lat="45.56182" lon="5.98208">
        <ele>299.6</ele>
        <time>2021-08-28T09:46:09Z</time>
      </trkpt>
      <trkpt lat="45.56177" lon="5.98209">
        <ele>299.5</ele>
        <time>2021-08-28T09:46:10Z</time>
      </trkpt>
      <trkpt lat="45.56171" lon="5.98211">
        <ele>299.5</ele>
        <time>2021-08-28T09:46:11Z</time>
      </trkpt>
      <trkpt lat="45.56165" lon="5.98212">
        <ele>299.4</ele>
        <time>2021-08-28T09:46:12Z</time>
      </trkpt>
      <trkpt lat="45.56159" lon="5.98214">
        <ele>299.3</ele>
        <time>2021-08-28T09:46:13Z</time>
      </trkpt>
      <trkpt lat="45.56153" lon="5.98216">
        <ele>299.2</ele>
        <time>2021-08-28T09:46:14Z</time>
      </trkpt>
      <trkpt lat="45.56147" lon="5.98219">
        <ele>299.1</ele>
        <time>2021-08-28T09:46:15Z</time>
      </trkpt>
      <trkpt lat="45.56142" lon="5.98221">
        <ele>299</ele>
        <time>2021-08-28T09:46:16Z</time>
      </trkpt>
      <trkpt lat="45.56136" lon="5.98223">
        <ele>298.9</ele>
        <time>2021-08-28T09:46:17Z</time>
      </trkpt>
      <trkpt lat="45.5613" lon="5.98226">
        <ele>298.9</ele>
        <time>2021-08-28T09:46:18Z</time>
      </trkpt>
      <trkpt lat="45.56124" lon="5.98229">
        <ele>298.8</ele>
        <time>2021-08-28T09:46:19Z</time>
      </trkpt>
      <trkpt lat="45.56119" lon="5.98232">
        <ele>298.8</ele>
        <time>2021-08-28T09:46:20Z</time>
      </trkpt>
      <trkpt lat="45.56114" lon="5.98235">
        <ele>298.8</ele>
        <time>2021-08-28T09:46:21Z</time>
      </trkpt>
      <trkpt lat="45.56109" lon="5.98238">
        <ele>298.8</ele>
        <time>2021-08-28T09:46:22Z</time>
      </trkpt>
      <trkpt lat="45.56104" lon="5.98241">
        <ele>298.7</ele>
        <time>2021-08-28T09:46:23Z</time>
      </trkpt>
      <trkpt lat="45.56098" lon="5.98244">
        <ele>298.7</ele>
        <time>2021-08-28T09:46:24Z</time>
      </trkpt>
      <trkpt lat="45.56093" lon="5.98247">
        <ele>298.6</ele>
        <time>2021-08-28T09:46:25Z</time>
      </trkpt>
      <trkpt lat="45.56089" lon="5.98249">
        <ele>298.6</ele>
        <time>2021-08-28T09:46:26Z</time>
      </trkpt>
      <trkpt lat="45.56083" lon="5.98252">
        <ele>298.5</ele>
        <time>2021-08-28T09:46:27Z</time>
      </trkpt>
      <trkpt lat="45.56078" lon="5.98252">
        <ele>298.4</ele>
        <time>2021-08-28T09:46:28Z</time>
      </trkpt>
      <trkpt lat="45.56073" lon="5.98253">
        <ele>298.3</ele>
        <time>2021-08-28T09:46:29Z</time>
      </trkpt>
      <trkpt lat="45.56067" lon="5.98253">
        <ele>298.2</ele>
        <time>2021-08-28T09:46:30Z</time>
      </trkpt>
      <trkpt lat="45.56061" lon="5.98254">
        <ele>298.1</ele>
        <time>2021-08-28T09:46:31Z</time>
      </trkpt>
      <trkpt lat="45.56056" lon="5.98256">
        <ele>298</ele>
        <time>2021-08-28T09:46:32Z</time>
      </trkpt>
      <trkpt lat="45.5605" lon="5.98258">
        <ele>298.1</ele>
        <time>2021-08-28T09:46:33Z</time>
      </trkpt>
      <trkpt lat="45.56044" lon="5.98259">
        <ele>298.8</ele>
        <time>2021-08-28T09:46:34Z</time>
      </trkpt>
      <trkpt lat="45.56037" lon="5.9826">
        <ele>299.7</ele>
        <time>2021-08-28T09:46:35Z</time>
      </trkpt>
      <trkpt lat="45.5603" lon="5.9826">
        <ele>300.5</ele>
        <time>2021-08-28T09:46:36Z</time>
      </trkpt>
      <trkpt lat="45.56025" lon="5.9826">
        <ele>301.2</ele>
        <time>2021-08-28T09:46:37Z</time>
      </trkpt>
      <trkpt lat="45.56019" lon="5.9826">
        <ele>301.9</ele>
        <time>2021-08-28T09:46:38Z</time>
      </trkpt>
      <trkpt lat="45.56014" lon="5.98261">
        <ele>302.6</ele>
        <time>2021-08-28T09:46:39Z</time>
      </trkpt>
      <trkpt lat="45.56008" lon="5.98261">
        <ele>303.3</ele>
        <time>2021-08-28T09:46:40Z</time>
      </trkpt>
      <trkpt lat="45.56003" lon="5.98262">
        <ele>303.9</ele>
        <time>2021-08-28T09:46:41Z</time>
      </trkpt>
      <trkpt lat="45.55997" lon="5.98262">
        <ele>304.6</ele>
        <time>2021-08-28T09:46:42Z</time>
      </trkpt>
      <trkpt lat="45.55991" lon="5.98262">
        <ele>305.3</ele>
        <time>2021-08-28T09:46:43Z</time>
      </trkpt>
      <trkpt lat="45.55985" lon="5.98262">
        <ele>303.3</ele>
        <time>2021-08-28T09:46:44Z</time>
      </trkpt>
      <trkpt lat="45.55979" lon="5.98261">
        <ele>301.2</ele>
        <time>2021-08-28T09:46:45Z</time>
      </trkpt>
      <trkpt lat="45.55974" lon="5.98262">
        <ele>299.1</ele>
        <time>2021-08-28T09:46:46Z</time>
      </trkpt>
      <trkpt lat="45.55968" lon="5.98263">
        <ele>297.1</ele>
        <time>2021-08-28T09:46:47Z</time>
      </trkpt>
      <trkpt lat="45.55962" lon="5.98264">
        <ele>297</ele>
        <time>2021-08-28T09:46:48Z</time>
      </trkpt>
      <trkpt lat="45.55956" lon="5.98265">
        <ele>297</ele>
        <time>2021-08-28T09:46:49Z</time>
      </trkpt>
      <trkpt lat="45.55951" lon="5.98267">
        <ele>297</ele>
        <time>2021-08-28T09:46:50Z</time>
      </trkpt>
      <trkpt lat="45.55945" lon="5.98268">
        <ele>297</ele>
        <time>2021-08-28T09:46:51Z</time>
      </trkpt>
      <trkpt lat="45.5594" lon="5.9827">
        <ele>297</ele>
        <time>2021-08-28T09:46:52Z</time>
      </trkpt>
      <trkpt lat="45.55935" lon="5.98271">
        <ele>297</ele>
        <time>2021-08-28T09:46:53Z</time>
      </trkpt>
      <trkpt lat="45.5593" lon="5.98274">
        <ele>297</ele>
        <time>2021-08-28T09:46:54Z</time>
      </trkpt>
      <trkpt lat="45.55925" lon="5.98276">
        <ele>297</ele>
        <time>2021-08-28T09:46:55Z</time>
      </trkpt>
      <trkpt lat="45.5592" lon="5.98278">
        <ele>296.9</ele>
        <time>2021-08-28T09:46:56Z</time>
      </trkpt>
      <trkpt lat="45.55915" lon="5.9828">
        <ele>296.9</ele>
        <time>2021-08-28T09:46:57Z</time>
      </trkpt>
      <trkpt lat="45.5591" lon="5.98283">
        <ele>296.9</ele>
        <time>2021-08-28T09:46:58Z</time>
      </trkpt>
      <trkpt lat="45.55905" lon="5.98285">
        <ele>296.9</ele>
        <time>2021-08-28T09:46:59Z</time>
      </trkpt>
      <trkpt lat="45.559" lon="5.98287">
        <ele>296.9</ele>
        <time>2021-08-28T09:47:00Z</time>
      </trkpt>
      <trkpt lat="45.55895" lon="5.98289">
        <ele>296.9</ele>
        <time>2021-08-28T09:47:01Z</time>
      </trkpt>
      <trkpt lat="45.5589" lon="5.98291">
        <ele>296.8</ele>
        <time>2021-08-28T09:47:02Z</time>
      </trkpt>
      <trkpt lat="45.55885" lon="5.98293">
        <ele>296.8</ele>
        <time>2021-08-28T09:47:03Z</time>
      </trkpt>
      <trkpt lat="45.55882" lon="5.98294">
        <ele>296.8</ele>
        <time>2021-08-28T09:47:04Z</time>
      </trkpt>
      <trkpt lat="45.55877" lon="5.98295">
        <ele>296.8</ele>
        <time>2021-08-28T09:47:05Z</time>
      </trkpt>
      <trkpt lat="45.55872" lon="5.98294">
        <ele>296.8</ele>
        <time>2021-08-28T09:47:06Z</time>
      </trkpt>
      <trkpt lat="45.55867" lon="5.98295">
        <ele>296.8</ele>
        <time>2021-08-28T09:47:07Z</time>
      </trkpt>
      <trkpt lat="45.55863" lon="5.98296">
        <ele>296.8</ele>
        <time>2021-08-28T09:47:08Z</time>
      </trkpt>
      <trkpt lat="45.55859" lon="5.98298">
        <ele>296.8</ele>
        <time>2021-08-28T09:47:09Z</time>
      </trkpt>
      <trkpt lat="45.55848" lon="5.98303">
        <ele>296.8</ele>
        <time>2021-08-28T09:47:10Z</time>
      </trkpt>
      <trkpt lat="45.55843" lon="5.98308">
        <ele>296.8</ele>
        <time>2021-08-28T09:47:13Z</time>
      </trkpt>
      <trkpt lat="45.5584" lon="5.98313">
        <ele>296.9</ele>
        <time>2021-08-28T09:47:14Z</time>
      </trkpt>
      <trkpt lat="45.55836" lon="5.98319">
        <ele>296.9</ele>
        <time>2021-08-28T09:47:15Z</time>
      </trkpt>
      <trkpt lat="45.55833" lon="5.98324">
        <ele>297</ele>
        <time>2021-08-28T09:47:16Z</time>
      </trkpt>
      <trkpt lat="45.55831" lon="5.9833">
        <ele>297</ele>
        <time>2021-08-28T09:47:17Z</time>
      </trkpt>
      <trkpt lat="45.55828" lon="5.98336">
        <ele>297.1</ele>
        <time>2021-08-28T09:47:18Z</time>
      </trkpt>
      <trkpt lat="45.55826" lon="5.9834">
        <ele>297.2</ele>
        <time>2021-08-28T09:47:19Z</time>
      </trkpt>
      <trkpt lat="45.55823" lon="5.98345">
        <ele>297.3</ele>
        <time>2021-08-28T09:47:20Z</time>
      </trkpt>
      <trkpt lat="45.55821" lon="5.9835">
        <ele>297.3</ele>
        <time>2021-08-28T09:47:21Z</time>
      </trkpt>
      <trkpt lat="45.55818" lon="5.98355">
        <ele>297.4</ele>
        <time>2021-08-28T09:47:22Z</time>
      </trkpt>
      <trkpt lat="45.55815" lon="5.9836">
        <ele>297.5</ele>
        <time>2021-08-28T09:47:23Z</time>
      </trkpt>
      <trkpt lat="45.55812" lon="5.98365">
        <ele>297.5</ele>
        <time>2021-08-28T09:47:24Z</time>
      </trkpt>
      <trkpt lat="45.55809" lon="5.9837">
        <ele>297.5</ele>
        <time>2021-08-28T09:47:25Z</time>
      </trkpt>
      <trkpt lat="45.55806" lon="5.98374">
        <ele>297.5</ele>
        <time>2021-08-28T09:47:26Z</time>
      </trkpt>
      <trkpt lat="45.55803" lon="5.98379">
        <ele>297.6</ele>
        <time>2021-08-28T09:47:27Z</time>
      </trkpt>
      <trkpt lat="45.558" lon="5.98385">
        <ele>297.6</ele>
        <time>2021-08-28T09:47:28Z</time>
      </trkpt>
      <trkpt lat="45.55795" lon="5.9839">
        <ele>297.6</ele>
        <time>2021-08-28T09:47:29Z</time>
      </trkpt>
      <trkpt lat="45.55792" lon="5.98396">
        <ele>297.7</ele>
        <time>2021-08-28T09:47:30Z</time>
      </trkpt>
      <trkpt lat="45.55788" lon="5.98401">
        <ele>297.7</ele>
        <time>2021-08-28T09:47:31Z</time>
      </trkpt>
      <trkpt lat="45.55784" lon="5.98405">
        <ele>297.7</ele>
        <time>2021-08-28T09:47:32Z</time>
      </trkpt>
      <trkpt lat="45.55781" lon="5.98409">
        <ele>297.7</ele>
        <time>2021-08-28T09:47:33Z</time>
      </trkpt>
      <trkpt lat="45.55777" lon="5.98413">
        <ele>297.7</ele>
        <time>2021-08-28T09:47:34Z</time>
      </trkpt>
      <trkpt lat="45.55773" lon="5.98416">
        <ele>297.7</ele>
        <time>2021-08-28T09:47:35Z</time>
      </trkpt>
      <trkpt lat="45.55768" lon="5.98419">
        <ele>297.7</ele>
        <time>2021-08-28T09:47:36Z</time>
      </trkpt>
      <trkpt lat="45.55764" lon="5.98423">
        <ele>297.7</ele>
        <time>2021-08-28T09:47:37Z</time>
      </trkpt>
      <trkpt lat="45.5576" lon="5.98427">
        <ele>297.7</ele>
        <time>2021-08-28T09:47:38Z</time>
      </trkpt>
      <trkpt lat="45.55756" lon="5.9843">
        <ele>297.6</ele>
        <time>2021-08-28T09:47:39Z</time>
      </trkpt>
      <trkpt lat="45.55751" lon="5.98433">
        <ele>297.6</ele>
        <time>2021-08-28T09:47:40Z</time>
      </trkpt>
      <trkpt lat="45.55746" lon="5.98437">
        <ele>297.6</ele>
        <time>2021-08-28T09:47:41Z</time>
      </trkpt>
      <trkpt lat="45.55741" lon="5.9844">
        <ele>297.6</ele>
        <time>2021-08-28T09:47:42Z</time>
      </trkpt>
      <trkpt lat="45.55736" lon="5.98443">
        <ele>297.6</ele>
        <time>2021-08-28T09:47:43Z</time>
      </trkpt>
      <trkpt lat="45.55731" lon="5.98445">
        <ele>297.6</ele>
        <time>2021-08-28T09:47:44Z</time>
      </trkpt>
      <trkpt lat="45.55725" lon="5.98449">
        <ele>297.6</ele>
        <time>2021-08-28T09:47:45Z</time>
      </trkpt>
      <trkpt lat="45.5572" lon="5.98452">
        <ele>297.6</ele>
        <time>2021-08-28T09:47:46Z</time>
      </trkpt>
      <trkpt lat="45.55715" lon="5.98455">
        <ele>297.6</ele>
        <time>2021-08-28T09:47:47Z</time>
      </trkpt>
      <trkpt lat="45.5571" lon="5.98459">
        <ele>297.6</ele>
        <time>2021-08-28T09:47:48Z</time>
      </trkpt>
      <trkpt lat="45.55705" lon="5.98463">
        <ele>297.7</ele>
        <time>2021-08-28T09:47:49Z</time>
      </trkpt>
      <trkpt lat="45.557" lon="5.98467">
        <ele>297.7</ele>
        <time>2021-08-28T09:47:50Z</time>
      </trkpt>
      <trkpt lat="45.55695" lon="5.98471">
        <ele>297.8</ele>
        <time>2021-08-28T09:47:51Z</time>
      </trkpt>
      <trkpt lat="45.5569" lon="5.98475">
        <ele>297.8</ele>
        <time>2021-08-28T09:47:52Z</time>
      </trkpt>
      <trkpt lat="45.55685" lon="5.9848">
        <ele>297.8</ele>
        <time>2021-08-28T09:47:53Z</time>
      </trkpt>
      <trkpt lat="45.5568" lon="5.98483">
        <ele>297.8</ele>
        <time>2021-08-28T09:47:54Z</time>
      </trkpt>
      <trkpt lat="45.55675" lon="5.98487">
        <ele>297.8</ele>
        <time>2021-08-28T09:47:55Z</time>
      </trkpt>
      <trkpt lat="45.55669" lon="5.98489">
        <ele>297.8</ele>
        <time>2021-08-28T09:47:56Z</time>
      </trkpt>
      <trkpt lat="45.55664" lon="5.98491">
        <ele>297.8</ele>
        <time>2021-08-28T09:47:57Z</time>
      </trkpt>
      <trkpt lat="45.55658" lon="5.98493">
        <ele>297.8</ele>
        <time>2021-08-28T09:47:58Z</time>
      </trkpt>
      <trkpt lat="45.55652" lon="5.98494">
        <ele>297.7</ele>
        <time>2021-08-28T09:47:59Z</time>
      </trkpt>
      <trkpt lat="45.55646" lon="5.98495">
        <ele>297.7</ele>
        <time>2021-08-28T09:48:00Z</time>
      </trkpt>
      <trkpt lat="45.5564" lon="5.98495">
        <ele>297.7</ele>
        <time>2021-08-28T09:48:01Z</time>
      </trkpt>
      <trkpt lat="45.55634" lon="5.98495">
        <ele>297.7</ele>
        <time>2021-08-28T09:48:02Z</time>
      </trkpt>
      <trkpt lat="45.55628" lon="5.98496">
        <ele>297.8</ele>
        <time>2021-08-28T09:48:03Z</time>
      </trkpt>
      <trkpt lat="45.55622" lon="5.98496">
        <ele>297.8</ele>
        <time>2021-08-28T09:48:04Z</time>
      </trkpt>
      <trkpt lat="45.55616" lon="5.98496">
        <ele>297.9</ele>
        <time>2021-08-28T09:48:05Z</time>
      </trkpt>
      <trkpt lat="45.5561" lon="5.98496">
        <ele>298</ele>
        <time>2021-08-28T09:48:06Z</time>
      </trkpt>
      <trkpt lat="45.55604" lon="5.98496">
        <ele>298.1</ele>
        <time>2021-08-28T09:48:07Z</time>
      </trkpt>
      <trkpt lat="45.55599" lon="5.98497">
        <ele>298.2</ele>
        <time>2021-08-28T09:48:08Z</time>
      </trkpt>
      <trkpt lat="45.55594" lon="5.98499">
        <ele>298.3</ele>
        <time>2021-08-28T09:48:09Z</time>
      </trkpt>
      <trkpt lat="45.55589" lon="5.98502">
        <ele>298.4</ele>
        <time>2021-08-28T09:48:10Z</time>
      </trkpt>
      <trkpt lat="45.55584" lon="5.98504">
        <ele>298.5</ele>
        <time>2021-08-28T09:48:11Z</time>
      </trkpt>
      <trkpt lat="45.5558" lon="5.98505">
        <ele>298.6</ele>
        <time>2021-08-28T09:48:12Z</time>
      </trkpt>
      <trkpt lat="45.55576" lon="5.98507">
        <ele>298.7</ele>
        <time>2021-08-28T09:48:13Z</time>
      </trkpt>
      <trkpt lat="45.55572" lon="5.98509">
        <ele>298.7</ele>
        <time>2021-08-28T09:48:14Z</time>
      </trkpt>
      <trkpt lat="45.55568" lon="5.98511">
        <ele>298.8</ele>
        <time>2021-08-28T09:48:15Z</time>
      </trkpt>
      <trkpt lat="45.55564" lon="5.98513">
        <ele>298.9</ele>
        <time>2021-08-28T09:48:16Z</time>
      </trkpt>
      <trkpt lat="45.55559" lon="5.98515">
        <ele>299</ele>
        <time>2021-08-28T09:48:17Z</time>
      </trkpt>
      <trkpt lat="45.55556" lon="5.98517">
        <ele>299.1</ele>
        <time>2021-08-28T09:48:18Z</time>
      </trkpt>
      <trkpt lat="45.55552" lon="5.98519">
        <ele>299.2</ele>
        <time>2021-08-28T09:48:19Z</time>
      </trkpt>
      <trkpt lat="45.55548" lon="5.9852">
        <ele>299.3</ele>
        <time>2021-08-28T09:48:20Z</time>
      </trkpt>
      <trkpt lat="45.55544" lon="5.98521">
        <ele>299.4</ele>
        <time>2021-08-28T09:48:21Z</time>
      </trkpt>
      <trkpt lat="45.5554" lon="5.98522">
        <ele>299.6</ele>
        <time>2021-08-28T09:48:22Z</time>
      </trkpt>
      <trkpt lat="45.55536" lon="5.98524">
        <ele>299.7</ele>
        <time>2021-08-28T09:48:23Z</time>
      </trkpt>
      <trkpt lat="45.55533" lon="5.98525">
        <ele>299.8</ele>
        <time>2021-08-28T09:48:24Z</time>
      </trkpt>
      <trkpt lat="45.55529" lon="5.98527">
        <ele>299.9</ele>
        <time>2021-08-28T09:48:25Z</time>
      </trkpt>
      <trkpt lat="45.55525" lon="5.98529">
        <ele>300</ele>
        <time>2021-08-28T09:48:26Z</time>
      </trkpt>
      <trkpt lat="45.5552" lon="5.98531">
        <ele>300.1</ele>
        <time>2021-08-28T09:48:27Z</time>
      </trkpt>
      <trkpt lat="45.55517" lon="5.98532">
        <ele>300.2</ele>
        <time>2021-08-28T09:48:28Z</time>
      </trkpt>
      <trkpt lat="45.55513" lon="5.98533">
        <ele>300.3</ele>
        <time>2021-08-28T09:48:29Z</time>
      </trkpt>
      <trkpt lat="45.55509" lon="5.98535">
        <ele>300.4</ele>
        <time>2021-08-28T09:48:30Z</time>
      </trkpt>
      <trkpt lat="45.55505" lon="5.98536">
        <ele>300.5</ele>
        <time>2021-08-28T09:48:31Z</time>
      </trkpt>
      <trkpt lat="45.55502" lon="5.98537">
        <ele>300.5</ele>
        <time>2021-08-28T09:48:32Z</time>
      </trkpt>
      <trkpt lat="45.55498" lon="5.98538">
        <ele>300.6</ele>
        <time>2021-08-28T09:48:33Z</time>
      </trkpt>
      <trkpt lat="45.55495" lon="5.98539">
        <ele>300.7</ele>
        <time>2021-08-28T09:48:34Z</time>
      </trkpt>
      <trkpt lat="45.55491" lon="5.9854">
        <ele>300.7</ele>
        <time>2021-08-28T09:48:35Z</time>
      </trkpt>
      <trkpt lat="45.55487" lon="5.98541">
        <ele>300.8</ele>
        <time>2021-08-28T09:48:36Z</time>
      </trkpt>
      <trkpt lat="45.55483" lon="5.98542">
        <ele>300.9</ele>
        <time>2021-08-28T09:48:37Z</time>
      </trkpt>
      <trkpt lat="45.55479" lon="5.98544">
        <ele>301</ele>
        <time>2021-08-28T09:48:38Z</time>
      </trkpt>
      <trkpt lat="45.55474" lon="5.98545">
        <ele>301</ele>
        <time>2021-08-28T09:48:39Z</time>
      </trkpt>
      <trkpt lat="45.55471" lon="5.98546">
        <ele>301.1</ele>
        <time>2021-08-28T09:48:40Z</time>
      </trkpt>
      <trkpt lat="45.55467" lon="5.98547">
        <ele>301.1</ele>
        <time>2021-08-28T09:48:41Z</time>
      </trkpt>
      <trkpt lat="45.55464" lon="5.98549">
        <ele>301.2</ele>
        <time>2021-08-28T09:48:42Z</time>
      </trkpt>
      <trkpt lat="45.5546" lon="5.9855">
        <ele>301.2</ele>
        <time>2021-08-28T09:48:43Z</time>
      </trkpt>
      <trkpt lat="45.55449" lon="5.98554">
        <ele>301.4</ele>
        <time>2021-08-28T09:48:44Z</time>
      </trkpt>
      <trkpt lat="45.55442" lon="5.98556">
        <ele>301.4</ele>
        <time>2021-08-28T09:48:45Z</time>
      </trkpt>
      <trkpt lat="45.55436" lon="5.98559">
        <ele>301.4</ele>
        <time>2021-08-28T09:48:46Z</time>
      </trkpt>
      <trkpt lat="45.55431" lon="5.98562">
        <ele>301.4</ele>
        <time>2021-08-28T09:48:48Z</time>
      </trkpt>
      <trkpt lat="45.55428" lon="5.98567">
        <ele>301.4</ele>
        <time>2021-08-28T09:48:51Z</time>
      </trkpt>
      <trkpt lat="45.55424" lon="5.9857">
        <ele>301.4</ele>
        <time>2021-08-28T09:48:52Z</time>
      </trkpt>
      <trkpt lat="45.55421" lon="5.98574">
        <ele>301.4</ele>
        <time>2021-08-28T09:48:53Z</time>
      </trkpt>
      <trkpt lat="45.55417" lon="5.98578">
        <ele>301.4</ele>
        <time>2021-08-28T09:48:54Z</time>
      </trkpt>
      <trkpt lat="45.55413" lon="5.98582">
        <ele>301.4</ele>
        <time>2021-08-28T09:48:55Z</time>
      </trkpt>
      <trkpt lat="45.55409" lon="5.98587">
        <ele>301.4</ele>
        <time>2021-08-28T09:48:56Z</time>
      </trkpt>
      <trkpt lat="45.55405" lon="5.98592">
        <ele>301.5</ele>
        <time>2021-08-28T09:48:57Z</time>
      </trkpt>
      <trkpt lat="45.55401" lon="5.98598">
        <ele>301.5</ele>
        <time>2021-08-28T09:48:58Z</time>
      </trkpt>
      <trkpt lat="45.55398" lon="5.98604">
        <ele>301.5</ele>
        <time>2021-08-28T09:48:59Z</time>
      </trkpt>
      <trkpt lat="45.55394" lon="5.9861">
        <ele>301.5</ele>
        <time>2021-08-28T09:49:00Z</time>
      </trkpt>
      <trkpt lat="45.55391" lon="5.98617">
        <ele>301.5</ele>
        <time>2021-08-28T09:49:01Z</time>
      </trkpt>
      <trkpt lat="45.55387" lon="5.98623">
        <ele>301.5</ele>
        <time>2021-08-28T09:49:02Z</time>
      </trkpt>
      <trkpt lat="45.55384" lon="5.98629">
        <ele>301.5</ele>
        <time>2021-08-28T09:49:03Z</time>
      </trkpt>
      <trkpt lat="45.55381" lon="5.98635">
        <ele>301.5</ele>
        <time>2021-08-28T09:49:04Z</time>
      </trkpt>
      <trkpt lat="45.55377" lon="5.98641">
        <ele>301.5</ele>
        <time>2021-08-28T09:49:05Z</time>
      </trkpt>
      <trkpt lat="45.55374" lon="5.98648">
        <ele>301.5</ele>
        <time>2021-08-28T09:49:06Z</time>
      </trkpt>
      <trkpt lat="45.55371" lon="5.98654">
        <ele>301.4</ele>
        <time>2021-08-28T09:49:07Z</time>
      </trkpt>
      <trkpt lat="45.55367" lon="5.98661">
        <ele>301.3</ele>
        <time>2021-08-28T09:49:08Z</time>
      </trkpt>
      <trkpt lat="45.55363" lon="5.98668">
        <ele>301.3</ele>
        <time>2021-08-28T09:49:09Z</time>
      </trkpt>
      <trkpt lat="45.55358" lon="5.98674">
        <ele>301.2</ele>
        <time>2021-08-28T09:49:10Z</time>
      </trkpt>
      <trkpt lat="45.55353" lon="5.98681">
        <ele>301.1</ele>
        <time>2021-08-28T09:49:11Z</time>
      </trkpt>
      <trkpt lat="45.55348" lon="5.98687">
        <ele>301.1</ele>
        <time>2021-08-28T09:49:12Z</time>
      </trkpt>
      <trkpt lat="45.55342" lon="5.98693">
        <ele>301</ele>
        <time>2021-08-28T09:49:13Z</time>
      </trkpt>
      <trkpt lat="45.55337" lon="5.98699">
        <ele>301</ele>
        <time>2021-08-28T09:49:14Z</time>
      </trkpt>
      <trkpt lat="45.55332" lon="5.98704">
        <ele>301</ele>
        <time>2021-08-28T09:49:15Z</time>
      </trkpt>
      <trkpt lat="45.55326" lon="5.98709">
        <ele>300.9</ele>
        <time>2021-08-28T09:49:16Z</time>
      </trkpt>
      <trkpt lat="45.5532" lon="5.98713">
        <ele>300.9</ele>
        <time>2021-08-28T09:49:17Z</time>
      </trkpt>
      <trkpt lat="45.55314" lon="5.98717">
        <ele>300.9</ele>
        <time>2021-08-28T09:49:18Z</time>
      </trkpt>
      <trkpt lat="45.55308" lon="5.9872">
        <ele>300.9</ele>
        <time>2021-08-28T09:49:19Z</time>
      </trkpt>
      <trkpt lat="45.55302" lon="5.98723">
        <ele>300.8</ele>
        <time>2021-08-28T09:49:20Z</time>
      </trkpt>
      <trkpt lat="45.55295" lon="5.98726">
        <ele>300.8</ele>
        <time>2021-08-28T09:49:21Z</time>
      </trkpt>
      <trkpt lat="45.55289" lon="5.98729">
        <ele>300.8</ele>
        <time>2021-08-28T09:49:22Z</time>
      </trkpt>
      <trkpt lat="45.55282" lon="5.98731">
        <ele>300.7</ele>
        <time>2021-08-28T09:49:23Z</time>
      </trkpt>
      <trkpt lat="45.55275" lon="5.98733">
        <ele>300.6</ele>
        <time>2021-08-28T09:49:24Z</time>
      </trkpt>
      <trkpt lat="45.55268" lon="5.98736">
        <ele>300.6</ele>
        <time>2021-08-28T09:49:25Z</time>
      </trkpt>
      <trkpt lat="45.55261" lon="5.98738">
        <ele>300.5</ele>
        <time>2021-08-28T09:49:26Z</time>
      </trkpt>
      <trkpt lat="45.55254" lon="5.98741">
        <ele>300.5</ele>
        <time>2021-08-28T09:49:27Z</time>
      </trkpt>
      <trkpt lat="45.55248" lon="5.98743">
        <ele>300.4</ele>
        <time>2021-08-28T09:49:28Z</time>
      </trkpt>
      <trkpt lat="45.55241" lon="5.98746">
        <ele>300.4</ele>
        <time>2021-08-28T09:49:29Z</time>
      </trkpt>
      <trkpt lat="45.55235" lon="5.98748">
        <ele>300.4</ele>
        <time>2021-08-28T09:49:30Z</time>
      </trkpt>
      <trkpt lat="45.55229" lon="5.9875">
        <ele>300.4</ele>
        <time>2021-08-28T09:49:31Z</time>
      </trkpt>
      <trkpt lat="45.55223" lon="5.98753">
        <ele>300.5</ele>
        <time>2021-08-28T09:49:32Z</time>
      </trkpt>
      <trkpt lat="45.55218" lon="5.98756">
        <ele>300.4</ele>
        <time>2021-08-28T09:49:33Z</time>
      </trkpt>
      <trkpt lat="45.55213" lon="5.9876">
        <ele>300.3</ele>
        <time>2021-08-28T09:49:34Z</time>
      </trkpt>
      <trkpt lat="45.55208" lon="5.98764">
        <ele>300.1</ele>
        <time>2021-08-28T09:49:35Z</time>
      </trkpt>
      <trkpt lat="45.55203" lon="5.98767">
        <ele>300</ele>
        <time>2021-08-28T09:49:36Z</time>
      </trkpt>
      <trkpt lat="45.55197" lon="5.9877">
        <ele>299.9</ele>
        <time>2021-08-28T09:49:37Z</time>
      </trkpt>
      <trkpt lat="45.55191" lon="5.98771">
        <ele>299.8</ele>
        <time>2021-08-28T09:49:38Z</time>
      </trkpt>
      <trkpt lat="45.55185" lon="5.9877">
        <ele>299.7</ele>
        <time>2021-08-28T09:49:39Z</time>
      </trkpt>
      <trkpt lat="45.55178" lon="5.98768">
        <ele>299.5</ele>
        <time>2021-08-28T09:49:40Z</time>
      </trkpt>
      <trkpt lat="45.55172" lon="5.98769">
        <ele>299.4</ele>
        <time>2021-08-28T09:49:41Z</time>
      </trkpt>
      <trkpt lat="45.55166" lon="5.9877">
        <ele>299.4</ele>
        <time>2021-08-28T09:49:42Z</time>
      </trkpt>
      <trkpt lat="45.5516" lon="5.98772">
        <ele>299.3</ele>
        <time>2021-08-28T09:49:43Z</time>
      </trkpt>
      <trkpt lat="45.55154" lon="5.98774">
        <ele>299.2</ele>
        <time>2021-08-28T09:49:44Z</time>
      </trkpt>
      <trkpt lat="45.55147" lon="5.98776">
        <ele>299.1</ele>
        <time>2021-08-28T09:49:45Z</time>
      </trkpt>
      <trkpt lat="45.55141" lon="5.98779">
        <ele>299.1</ele>
        <time>2021-08-28T09:49:46Z</time>
      </trkpt>
      <trkpt lat="45.55135" lon="5.98781">
        <ele>299</ele>
        <time>2021-08-28T09:49:47Z</time>
      </trkpt>
      <trkpt lat="45.55128" lon="5.98783">
        <ele>298.9</ele>
        <time>2021-08-28T09:49:48Z</time>
      </trkpt>
      <trkpt lat="45.55122" lon="5.98786">
        <ele>298.9</ele>
        <time>2021-08-28T09:49:49Z</time>
      </trkpt>
      <trkpt lat="45.55116" lon="5.98788">
        <ele>298.8</ele>
        <time>2021-08-28T09:49:50Z</time>
      </trkpt>
      <trkpt lat="45.5511" lon="5.98789">
        <ele>298.8</ele>
        <time>2021-08-28T09:49:51Z</time>
      </trkpt>
      <trkpt lat="45.55104" lon="5.9879">
        <ele>298.7</ele>
        <time>2021-08-28T09:49:52Z</time>
      </trkpt>
      <trkpt lat="45.55098" lon="5.98789">
        <ele>298.7</ele>
        <time>2021-08-28T09:49:53Z</time>
      </trkpt>
      <trkpt lat="45.55092" lon="5.98787">
        <ele>298.6</ele>
        <time>2021-08-28T09:49:54Z</time>
      </trkpt>
      <trkpt lat="45.55086" lon="5.98784">
        <ele>298.6</ele>
        <time>2021-08-28T09:49:55Z</time>
      </trkpt>
      <trkpt lat="45.5508" lon="5.98782">
        <ele>298.5</ele>
        <time>2021-08-28T09:49:56Z</time>
      </trkpt>
      <trkpt lat="45.55075" lon="5.9878">
        <ele>298.5</ele>
        <time>2021-08-28T09:49:57Z</time>
      </trkpt>
      <trkpt lat="45.55069" lon="5.98778">
        <ele>298.5</ele>
        <time>2021-08-28T09:49:58Z</time>
      </trkpt>
      <trkpt lat="45.55063" lon="5.98776">
        <ele>298.4</ele>
        <time>2021-08-28T09:49:59Z</time>
      </trkpt>
      <trkpt lat="45.55058" lon="5.98775">
        <ele>298.4</ele>
        <time>2021-08-28T09:50:00Z</time>
      </trkpt>
      <trkpt lat="45.55053" lon="5.98773">
        <ele>298.4</ele>
        <time>2021-08-28T09:50:01Z</time>
      </trkpt>
      <trkpt lat="45.55049" lon="5.98771">
        <ele>298.3</ele>
        <time>2021-08-28T09:50:02Z</time>
      </trkpt>
      <trkpt lat="45.55045" lon="5.98769">
        <ele>298.3</ele>
        <time>2021-08-28T09:50:03Z</time>
      </trkpt>
      <trkpt lat="45.55042" lon="5.98767">
        <ele>298.3</ele>
        <time>2021-08-28T09:50:04Z</time>
      </trkpt>
      <trkpt lat="45.5504" lon="5.98764">
        <ele>298.3</ele>
        <time>2021-08-28T09:50:05Z</time>
      </trkpt>
      <trkpt lat="45.55039" lon="5.98763">
        <ele>298.3</ele>
        <time>2021-08-28T09:50:06Z</time>
      </trkpt>
      <trkpt lat="45.5504" lon="5.98761">
        <ele>298.3</ele>
        <time>2021-08-28T09:50:07Z</time>
      </trkpt>
      <trkpt lat="45.55039" lon="5.9876">
        <ele>298.3</ele>
        <time>2021-08-28T09:50:08Z</time>
      </trkpt>
      <trkpt lat="45.55039" lon="5.98759">
        <ele>298.3</ele>
        <time>2021-08-28T09:50:09Z</time>
      </trkpt>
      <trkpt lat="45.5504" lon="5.98759">
        <ele>298.3</ele>
        <time>2021-08-28T09:50:10Z</time>
      </trkpt>
      <trkpt lat="45.55041" lon="5.98759">
        <ele>298.3</ele>
        <time>2021-08-28T09:50:11Z</time>
      </trkpt>
      <trkpt lat="45.55041" lon="5.98759">
        <ele>298.3</ele>
        <time>2021-08-28T09:50:12Z</time>
      </trkpt>
      <trkpt lat="45.55041" lon="5.98759">
        <ele>298.3</ele>
        <time>2021-08-28T09:50:13Z</time>
      </trkpt>
      <trkpt lat="45.55041" lon="5.98758">
        <ele>298.3</ele>
        <time>2021-08-28T09:50:14Z</time>
      </trkpt>
      <trkpt lat="45.55041" lon="5.98759">
        <ele>298.3</ele>
        <time>2021-08-28T09:50:15Z</time>
      </trkpt>
      <trkpt lat="45.55041" lon="5.98759">
        <ele>298.3</ele>
        <time>2021-08-28T09:50:16Z</time>
      </trkpt>
      <trkpt lat="45.55041" lon="5.98759">
        <ele>298.3</ele>
        <time>2021-08-28T09:50:19Z</time>
      </trkpt>
      <trkpt lat="45.55041" lon="5.98759">
        <ele>298.3</ele>
        <time>2021-08-28T09:50:20Z</time>
      </trkpt>
      <trkpt lat="45.55041" lon="5.98759">
        <ele>298.3</ele>
        <time>2021-08-28T09:50:21Z</time>
      </trkpt>
      <trkpt lat="45.55041" lon="5.98759">
        <ele>298.3</ele>
        <time>2021-08-28T09:50:22Z</time>
      </trkpt>
      <trkpt lat="45.55042" lon="5.98759">
        <ele>298.3</ele>
        <time>2021-08-28T09:52:13Z</time>
      </trkpt>
      <trkpt lat="45.55043" lon="5.98759">
        <ele>298.3</ele>
        <time>2021-08-28T09:52:14Z</time>
      </trkpt>
      <trkpt lat="45.55044" lon="5.98759">
        <ele>298.3</ele>
        <time>2021-08-28T09:52:15Z</time>
      </trkpt>
      <trkpt lat="45.55044" lon="5.98759">
        <ele>298.3</ele>
        <time>2021-08-28T09:52:16Z</time>
      </trkpt>
      <trkpt lat="45.55045" lon="5.9876">
        <ele>298.3</ele>
        <time>2021-08-28T09:52:17Z</time>
      </trkpt>
      <trkpt lat="45.55045" lon="5.9876">
        <ele>298.3</ele>
        <time>2021-08-28T09:52:18Z</time>
      </trkpt>
      <trkpt lat="45.55046" lon="5.9876">
        <ele>298.3</ele>
        <time>2021-08-28T09:52:19Z</time>
      </trkpt>
      <trkpt lat="45.55046" lon="5.9876">
        <ele>298.3</ele>
        <time>2021-08-28T09:52:20Z</time>
      </trkpt>
      <trkpt lat="45.55047" lon="5.9876">
        <ele>298.3</ele>
        <time>2021-08-28T09:52:21Z</time>
      </trkpt>
      <trkpt lat="45.55047" lon="5.9876">
        <ele>298.3</ele>
        <time>2021-08-28T09:52:22Z</time>
      </trkpt>
      <trkpt lat="45.55047" lon="5.9876">
        <ele>298.3</ele>
        <time>2021-08-28T09:52:23Z</time>
      </trkpt>
      <trkpt lat="45.55046" lon="5.9876">
        <ele>298.3</ele>
        <time>2021-08-28T09:52:24Z</time>
      </trkpt>
      <trkpt lat="45.55047" lon="5.9876">
        <ele>298.3</ele>
        <time>2021-08-28T09:52:25Z</time>
      </trkpt>
      <trkpt lat="45.55047" lon="5.9876">
        <ele>298.3</ele>
        <time>2021-08-28T09:52:26Z</time>
      </trkpt>
      <trkpt lat="45.55048" lon="5.98759">
        <ele>298.3</ele>
        <time>2021-08-28T09:52:27Z</time>
      </trkpt>
      <trkpt lat="45.55048" lon="5.9876">
        <ele>298.3</ele>
        <time>2021-08-28T09:52:28Z</time>
      </trkpt>
      <trkpt lat="45.55048" lon="5.9876">
        <ele>298.3</ele>
        <time>2021-08-28T09:52:29Z</time>
      </trkpt>
      <trkpt lat="45.55048" lon="5.9876">
        <ele>298.3</ele>
        <time>2021-08-28T09:52:30Z</time>
      </trkpt>
      <trkpt lat="45.55048" lon="5.98759">
        <ele>298.3</ele>
        <time>2021-08-28T09:52:31Z</time>
      </trkpt>
      <trkpt lat="45.55048" lon="5.98759">
        <ele>298.3</ele>
        <time>2021-08-28T09:52:32Z</time>
      </trkpt>
      <trkpt lat="45.55048" lon="5.98759">
        <ele>298.3</ele>
        <time>2021-08-28T09:52:33Z</time>
      </trkpt>
      <trkpt lat="45.55048" lon="5.98759">
        <ele>298.3</ele>
        <time>2021-08-28T09:52:34Z</time>
      </trkpt>
      <trkpt lat="45.55048" lon="5.98759">
        <ele>298.3</ele>
        <time>2021-08-28T09:52:35Z</time>
      </trkpt>
      <trkpt lat="45.55048" lon="5.98759">
        <ele>298.3</ele>
        <time>2021-08-28T09:52:36Z</time>
      </trkpt>
      <trkpt lat="45.55048" lon="5.98759">
        <ele>298.3</ele>
        <time>2021-08-28T09:52:37Z</time>
      </trkpt>
      <trkpt lat="45.55048" lon="5.98759">
        <ele>298.3</ele>
        <time>2021-08-28T09:52:38Z</time>
      </trkpt>
      <trkpt lat="45.55048" lon="5.98759">
        <ele>298.3</ele>
        <time>2021-08-28T09:53:25Z</time>
      </trkpt>
      <trkpt lat="45.55047" lon="5.98759">
        <ele>298.3</ele>
        <time>2021-08-28T09:53:26Z</time>
      </trkpt>
      <trkpt lat="45.55047" lon="5.98759">
        <ele>298.3</ele>
        <time>2021-08-28T09:53:27Z</time>
      </trkpt>
      <trkpt lat="45.55047" lon="5.98759">
        <ele>298.3</ele>
        <time>2021-08-28T09:53:28Z</time>
      </trkpt>
      <trkpt lat="45.55047" lon="5.98759">
        <ele>298.3</ele>
        <time>2021-08-28T09:53:29Z</time>
      </trkpt>
      <trkpt lat="45.55047" lon="5.98759">
        <ele>298.3</ele>
        <time>2021-08-28T09:53:30Z</time>
      </trkpt>
      <trkpt lat="45.55047" lon="5.98759">
        <ele>298.3</ele>
        <time>2021-08-28T09:53:31Z</time>
      </trkpt>
      <trkpt lat="45.55047" lon="5.98759">
        <ele>298.3</ele>
        <time>2021-08-28T09:53:32Z</time>
      </trkpt>
      <trkpt lat="45.55047" lon="5.98759">
        <ele>298.3</ele>
        <time>2021-08-28T09:53:33Z</time>
      </trkpt>
      <trkpt lat="45.55047" lon="5.98759">
        <ele>298.3</ele>
        <time>2021-08-28T09:53:34Z</time>
      </trkpt>
      <trkpt lat="45.55047" lon="5.98759">
        <ele>298.3</ele>
        <time>2021-08-28T09:53:35Z</time>
      </trkpt>
      <trkpt lat="45.55047" lon="5.98759">
        <ele>298.3</ele>
        <time>2021-08-28T09:53:36Z</time>
      </trkpt>
      <trkpt lat="45.55047" lon="5.98759">
        <ele>298.3</ele>
        <time>2021-08-28T09:53:37Z</time>
      </trkpt>
      <trkpt lat="45.55047" lon="5.98759">
        <ele>298.3</ele>
        <time>2021-08-28T09:53:38Z</time>
      </trkpt>
      <trkpt lat="45.55047" lon="5.98759">
        <ele>298.3</ele>
        <time>2021-08-28T09:53:39Z</time>
      </trkpt>
      <trkpt lat="45.55047" lon="5.98759">
        <ele>298.3</ele>
        <time>2021-08-28T09:53:40Z</time>
      </trkpt>
      <trkpt lat="45.55047" lon="5.98759">
        <ele>298.3</ele>
        <time>2021-08-28T10:31:13Z</time>
      </trkpt>
      <trkpt lat="45.55047" lon="5.98759">
        <ele>298.3</ele>
        <time>2021-08-28T10:31:15Z</time>
      </trkpt>
      <trkpt lat="45.55047" lon="5.98759">
        <ele>298.3</ele>
        <time>2021-08-28T10:31:17Z</time>
      </trkpt>
      <trkpt lat="45.55047" lon="5.98759">
        <ele>298.3</ele>
        <time>2021-08-28T10:31:20Z</time>
      </trkpt>
      <trkpt lat="45.55046" lon="5.98759">
        <ele>298.3</ele>
        <time>2021-08-28T10:31:21Z</time>
      </trkpt>
      <trkpt lat="45.55044" lon="5.98763">
        <ele>298.3</ele>
        <time>2021-08-28T10:31:22Z</time>
      </trkpt>
      <trkpt lat="45.55043" lon="5.98764">
        <ele>298.3</ele>
        <time>2021-08-28T10:31:23Z</time>
      </trkpt>
      <trkpt lat="45.55043" lon="5.98764">
        <ele>298.3</ele>
        <time>2021-08-28T10:31:24Z</time>
      </trkpt>
      <trkpt lat="45.55042" lon="5.98763">
        <ele>298.3</ele>
        <time>2021-08-28T10:31:27Z</time>
      </trkpt>
      <trkpt lat="45.55041" lon="5.98763">
        <ele>298.3</ele>
        <time>2021-08-28T10:31:29Z</time>
      </trkpt>
      <trkpt lat="45.5504" lon="5.98762">
        <ele>298.3</ele>
        <time>2021-08-28T10:31:32Z</time>
      </trkpt>
      <trkpt lat="45.55039" lon="5.98761">
        <ele>298.3</ele>
        <time>2021-08-28T10:31:35Z</time>
      </trkpt>
      <trkpt lat="45.55038" lon="5.98761">
        <ele>298.3</ele>
        <time>2021-08-28T10:32:26Z</time>
      </trkpt>
      <trkpt lat="45.55038" lon="5.9876">
        <ele>298.3</ele>
        <time>2021-08-28T10:32:27Z</time>
      </trkpt>
      <trkpt lat="45.55034" lon="5.98761">
        <ele>298.3</ele>
        <time>2021-08-28T10:32:28Z</time>
      </trkpt>
      <trkpt lat="45.5503" lon="5.98758">
        <ele>298.3</ele>
        <time>2021-08-28T10:32:29Z</time>
      </trkpt>
      <trkpt lat="45.55025" lon="5.98754">
        <ele>298.3</ele>
        <time>2021-08-28T10:32:31Z</time>
      </trkpt>
      <trkpt lat="45.55019" lon="5.98748">
        <ele>298.4</ele>
        <time>2021-08-28T10:32:33Z</time>
      </trkpt>
      <trkpt lat="45.55012" lon="5.98741">
        <ele>298.4</ele>
        <time>2021-08-28T10:32:35Z</time>
      </trkpt>
      <trkpt lat="45.54998" lon="5.98738">
        <ele>298.5</ele>
        <time>2021-08-28T10:32:38Z</time>
      </trkpt>
      <trkpt lat="45.54988" lon="5.98736">
        <ele>298.6</ele>
        <time>2021-08-28T10:32:40Z</time>
      </trkpt>
      <trkpt lat="45.54985" lon="5.98731">
        <ele>298.7</ele>
        <time>2021-08-28T10:32:44Z</time>
      </trkpt>
      <trkpt lat="45.54981" lon="5.98731">
        <ele>298.7</ele>
        <time>2021-08-28T10:32:45Z</time>
      </trkpt>
      <trkpt lat="45.54978" lon="5.98731">
        <ele>298.8</ele>
        <time>2021-08-28T10:32:46Z</time>
      </trkpt>
      <trkpt lat="45.54975" lon="5.98729">
        <ele>298.8</ele>
        <time>2021-08-28T10:32:47Z</time>
      </trkpt>
      <trkpt lat="45.54972" lon="5.98727">
        <ele>298.8</ele>
        <time>2021-08-28T10:32:48Z</time>
      </trkpt>
      <trkpt lat="45.54968" lon="5.98726">
        <ele>298.9</ele>
        <time>2021-08-28T10:32:49Z</time>
      </trkpt>
      <trkpt lat="45.54965" lon="5.98724">
        <ele>298.9</ele>
        <time>2021-08-28T10:32:50Z</time>
      </trkpt>
      <trkpt lat="45.54963" lon="5.98724">
        <ele>298.9</ele>
        <time>2021-08-28T10:32:51Z</time>
      </trkpt>
      <trkpt lat="45.5496" lon="5.98723">
        <ele>299</ele>
        <time>2021-08-28T10:32:52Z</time>
      </trkpt>
      <trkpt lat="45.54956" lon="5.98722">
        <ele>299</ele>
        <time>2021-08-28T10:32:53Z</time>
      </trkpt>
      <trkpt lat="45.54954" lon="5.98721">
        <ele>299</ele>
        <time>2021-08-28T10:32:54Z</time>
      </trkpt>
      <trkpt lat="45.5495" lon="5.98719">
        <ele>299.1</ele>
        <time>2021-08-28T10:32:55Z</time>
      </trkpt>
      <trkpt lat="45.54948" lon="5.98719">
        <ele>299.1</ele>
        <time>2021-08-28T10:32:56Z</time>
      </trkpt>
      <trkpt lat="45.54944" lon="5.98717">
        <ele>299.2</ele>
        <time>2021-08-28T10:32:57Z</time>
      </trkpt>
      <trkpt lat="45.54941" lon="5.98716">
        <ele>299.2</ele>
        <time>2021-08-28T10:32:58Z</time>
      </trkpt>
      <trkpt lat="45.54938" lon="5.98715">
        <ele>299.2</ele>
        <time>2021-08-28T10:32:59Z</time>
      </trkpt>
      <trkpt lat="45.54934" lon="5.98714">
        <ele>299.3</ele>
        <time>2021-08-28T10:33:00Z</time>
      </trkpt>
      <trkpt lat="45.54931" lon="5.98713">
        <ele>299.3</ele>
        <time>2021-08-28T10:33:01Z</time>
      </trkpt>
      <trkpt lat="45.54928" lon="5.98711">
        <ele>299.4</ele>
        <time>2021-08-28T10:33:02Z</time>
      </trkpt>
      <trkpt lat="45.54923" lon="5.9871">
        <ele>299.4</ele>
        <time>2021-08-28T10:33:03Z</time>
      </trkpt>
      <trkpt lat="45.54921" lon="5.98708">
        <ele>299.4</ele>
        <time>2021-08-28T10:33:04Z</time>
      </trkpt>
      <trkpt lat="45.54917" lon="5.98706">
        <ele>299.5</ele>
        <time>2021-08-28T10:33:05Z</time>
      </trkpt>
      <trkpt lat="45.54914" lon="5.98704">
        <ele>299.5</ele>
        <time>2021-08-28T10:33:06Z</time>
      </trkpt>
      <trkpt lat="45.54911" lon="5.98702">
        <ele>299.6</ele>
        <time>2021-08-28T10:33:07Z</time>
      </trkpt>
      <trkpt lat="45.54907" lon="5.98701">
        <ele>299.6</ele>
        <time>2021-08-28T10:33:08Z</time>
      </trkpt>
      <trkpt lat="45.54903" lon="5.987">
        <ele>299.7</ele>
        <time>2021-08-28T10:33:09Z</time>
      </trkpt>
      <trkpt lat="45.549" lon="5.98699">
        <ele>299.7</ele>
        <time>2021-08-28T10:33:10Z</time>
      </trkpt>
      <trkpt lat="45.54895" lon="5.98698">
        <ele>299.8</ele>
        <time>2021-08-28T10:33:11Z</time>
      </trkpt>
      <trkpt lat="45.54892" lon="5.98697">
        <ele>299.9</ele>
        <time>2021-08-28T10:33:12Z</time>
      </trkpt>
      <trkpt lat="45.54889" lon="5.98695">
        <ele>300</ele>
        <time>2021-08-28T10:33:13Z</time>
      </trkpt>
      <trkpt lat="45.54885" lon="5.98693">
        <ele>300.1</ele>
        <time>2021-08-28T10:33:14Z</time>
      </trkpt>
      <trkpt lat="45.54883" lon="5.98692">
        <ele>300.1</ele>
        <time>2021-08-28T10:33:15Z</time>
      </trkpt>
      <trkpt lat="45.54879" lon="5.98689">
        <ele>300.2</ele>
        <time>2021-08-28T10:33:16Z</time>
      </trkpt>
      <trkpt lat="45.54876" lon="5.98686">
        <ele>300.4</ele>
        <time>2021-08-28T10:33:17Z</time>
      </trkpt>
      <trkpt lat="45.54874" lon="5.98684">
        <ele>300.5</ele>
        <time>2021-08-28T10:33:18Z</time>
      </trkpt>
      <trkpt lat="45.54873" lon="5.9868">
        <ele>300.6</ele>
        <time>2021-08-28T10:33:19Z</time>
      </trkpt>
      <trkpt lat="45.54871" lon="5.98675">
        <ele>300.6</ele>
        <time>2021-08-28T10:33:20Z</time>
      </trkpt>
      <trkpt lat="45.5487" lon="5.98669">
        <ele>300.7</ele>
        <time>2021-08-28T10:33:21Z</time>
      </trkpt>
      <trkpt lat="45.5487" lon="5.98667">
        <ele>300.7</ele>
        <time>2021-08-28T10:33:22Z</time>
      </trkpt>
      <trkpt lat="45.54869" lon="5.98662">
        <ele>300.7</ele>
        <time>2021-08-28T10:33:23Z</time>
      </trkpt>
      <trkpt lat="45.54869" lon="5.98656">
        <ele>300.8</ele>
        <time>2021-08-28T10:33:24Z</time>
      </trkpt>
      <trkpt lat="45.54868" lon="5.9865">
        <ele>300.8</ele>
        <time>2021-08-28T10:33:25Z</time>
      </trkpt>
      <trkpt lat="45.54868" lon="5.98646">
        <ele>300.8</ele>
        <time>2021-08-28T10:33:26Z</time>
      </trkpt>
      <trkpt lat="45.54868" lon="5.98641">
        <ele>300.9</ele>
        <time>2021-08-28T10:33:27Z</time>
      </trkpt>
      <trkpt lat="45.54867" lon="5.98635">
        <ele>300.9</ele>
        <time>2021-08-28T10:33:28Z</time>
      </trkpt>
      <trkpt lat="45.54866" lon="5.98631">
        <ele>301</ele>
        <time>2021-08-28T10:33:29Z</time>
      </trkpt>
      <trkpt lat="45.54866" lon="5.98626">
        <ele>301</ele>
        <time>2021-08-28T10:33:30Z</time>
      </trkpt>
      <trkpt lat="45.54865" lon="5.9862">
        <ele>301</ele>
        <time>2021-08-28T10:33:31Z</time>
      </trkpt>
      <trkpt lat="45.54864" lon="5.98616">
        <ele>301.1</ele>
        <time>2021-08-28T10:33:32Z</time>
      </trkpt>
      <trkpt lat="45.54863" lon="5.98611">
        <ele>301.1</ele>
        <time>2021-08-28T10:33:33Z</time>
      </trkpt>
      <trkpt lat="45.54862" lon="5.98606">
        <ele>301.1</ele>
        <time>2021-08-28T10:33:34Z</time>
      </trkpt>
      <trkpt lat="45.54861" lon="5.98601">
        <ele>301.2</ele>
        <time>2021-08-28T10:33:35Z</time>
      </trkpt>
      <trkpt lat="45.5486" lon="5.98596">
        <ele>301.2</ele>
        <time>2021-08-28T10:33:36Z</time>
      </trkpt>
      <trkpt lat="45.54858" lon="5.9859">
        <ele>301.2</ele>
        <time>2021-08-28T10:33:37Z</time>
      </trkpt>
      <trkpt lat="45.54857" lon="5.98586">
        <ele>301.2</ele>
        <time>2021-08-28T10:33:38Z</time>
      </trkpt>
      <trkpt lat="45.54856" lon="5.98579">
        <ele>301.2</ele>
        <time>2021-08-28T10:33:39Z</time>
      </trkpt>
      <trkpt lat="45.54854" lon="5.98574">
        <ele>301.3</ele>
        <time>2021-08-28T10:33:40Z</time>
      </trkpt>
      <trkpt lat="45.54853" lon="5.98569">
        <ele>301.3</ele>
        <time>2021-08-28T10:33:41Z</time>
      </trkpt>
      <trkpt lat="45.54852" lon="5.98563">
        <ele>301.3</ele>
        <time>2021-08-28T10:33:42Z</time>
      </trkpt>
      <trkpt lat="45.54852" lon="5.98561">
        <ele>301.3</ele>
        <time>2021-08-28T10:33:43Z</time>
      </trkpt>
      <trkpt lat="45.54851" lon="5.98556">
        <ele>301.3</ele>
        <time>2021-08-28T10:33:44Z</time>
      </trkpt>
      <trkpt lat="45.54851" lon="5.98555">
        <ele>301.3</ele>
        <time>2021-08-28T10:33:45Z</time>
      </trkpt>
      <trkpt lat="45.5485" lon="5.98552">
        <ele>301.3</ele>
        <time>2021-08-28T10:33:46Z</time>
      </trkpt>
      <trkpt lat="45.5485" lon="5.98551">
        <ele>301.3</ele>
        <time>2021-08-28T10:33:47Z</time>
      </trkpt>
      <trkpt lat="45.5485" lon="5.9855">
        <ele>301.3</ele>
        <time>2021-08-28T10:33:48Z</time>
      </trkpt>
      <trkpt lat="45.5485" lon="5.98549">
        <ele>301.3</ele>
        <time>2021-08-28T10:33:49Z</time>
      </trkpt>
      <trkpt lat="45.5485" lon="5.98548">
        <ele>301.3</ele>
        <time>2021-08-28T10:33:50Z</time>
      </trkpt>
      <trkpt lat="45.5485" lon="5.98548">
        <ele>301.3</ele>
        <time>2021-08-28T10:33:51Z</time>
      </trkpt>
      <trkpt lat="45.5485" lon="5.98547">
        <ele>301.3</ele>
        <time>2021-08-28T10:33:52Z</time>
      </trkpt>
      <trkpt lat="45.5485" lon="5.98546">
        <ele>301.3</ele>
        <time>2021-08-28T10:33:53Z</time>
      </trkpt>
      <trkpt lat="45.54849" lon="5.98545">
        <ele>301.3</ele>
        <time>2021-08-28T10:33:56Z</time>
      </trkpt>
      <trkpt lat="45.54849" lon="5.98544">
        <ele>301.3</ele>
        <time>2021-08-28T10:33:57Z</time>
      </trkpt>
      <trkpt lat="45.54849" lon="5.98543">
        <ele>301.3</ele>
        <time>2021-08-28T10:33:58Z</time>
      </trkpt>
      <trkpt lat="45.54849" lon="5.98542">
        <ele>301.3</ele>
        <time>2021-08-28T10:34:01Z</time>
      </trkpt>
      <trkpt lat="45.54849" lon="5.98541">
        <ele>301.3</ele>
        <time>2021-08-28T10:34:11Z</time>
      </trkpt>
      <trkpt lat="45.54849" lon="5.9854">
        <ele>301.3</ele>
        <time>2021-08-28T10:34:12Z</time>
      </trkpt>
      <trkpt lat="45.54849" lon="5.98539">
        <ele>301.3</ele>
        <time>2021-08-28T10:34:13Z</time>
      </trkpt>
      <trkpt lat="45.54846" lon="5.98535">
        <ele>301.1</ele>
        <time>2021-08-28T10:34:14Z</time>
      </trkpt>
      <trkpt lat="45.54843" lon="5.98532">
        <ele>301.1</ele>
        <time>2021-08-28T10:34:15Z</time>
      </trkpt>
      <trkpt lat="45.54838" lon="5.98532">
        <ele>301.2</ele>
        <time>2021-08-28T10:34:16Z</time>
      </trkpt>
      <trkpt lat="45.54833" lon="5.98532">
        <ele>301.2</ele>
        <time>2021-08-28T10:34:17Z</time>
      </trkpt>
      <trkpt lat="45.54829" lon="5.98534">
        <ele>301.3</ele>
        <time>2021-08-28T10:34:18Z</time>
      </trkpt>
      <trkpt lat="45.54826" lon="5.98536">
        <ele>301.3</ele>
        <time>2021-08-28T10:34:19Z</time>
      </trkpt>
      <trkpt lat="45.54822" lon="5.98538">
        <ele>301.4</ele>
        <time>2021-08-28T10:34:20Z</time>
      </trkpt>
      <trkpt lat="45.54818" lon="5.9854">
        <ele>301.4</ele>
        <time>2021-08-28T10:34:21Z</time>
      </trkpt>
      <trkpt lat="45.54815" lon="5.98542">
        <ele>301.4</ele>
        <time>2021-08-28T10:34:22Z</time>
      </trkpt>
      <trkpt lat="45.5481" lon="5.98544">
        <ele>301.5</ele>
        <time>2021-08-28T10:34:23Z</time>
      </trkpt>
      <trkpt lat="45.54806" lon="5.98546">
        <ele>301.5</ele>
        <time>2021-08-28T10:34:24Z</time>
      </trkpt>
      <trkpt lat="45.54803" lon="5.98548">
        <ele>301.6</ele>
        <time>2021-08-28T10:34:25Z</time>
      </trkpt>
      <trkpt lat="45.54798" lon="5.9855">
        <ele>301.6</ele>
        <time>2021-08-28T10:34:26Z</time>
      </trkpt>
      <trkpt lat="45.54794" lon="5.98552">
        <ele>301.7</ele>
        <time>2021-08-28T10:34:27Z</time>
      </trkpt>
      <trkpt lat="45.5479" lon="5.98554">
        <ele>301.7</ele>
        <time>2021-08-28T10:34:28Z</time>
      </trkpt>
      <trkpt lat="45.54787" lon="5.98555">
        <ele>301.8</ele>
        <time>2021-08-28T10:34:29Z</time>
      </trkpt>
      <trkpt lat="45.54783" lon="5.98557">
        <ele>301.9</ele>
        <time>2021-08-28T10:34:30Z</time>
      </trkpt>
      <trkpt lat="45.5478" lon="5.98558">
        <ele>301.9</ele>
        <time>2021-08-28T10:34:31Z</time>
      </trkpt>
      <trkpt lat="45.54779" lon="5.98558">
        <ele>301.9</ele>
        <time>2021-08-28T10:34:32Z</time>
      </trkpt>
      <trkpt lat="45.54775" lon="5.9856">
        <ele>302</ele>
        <time>2021-08-28T10:34:33Z</time>
      </trkpt>
      <trkpt lat="45.54774" lon="5.98561">
        <ele>302</ele>
        <time>2021-08-28T10:34:34Z</time>
      </trkpt>
      <trkpt lat="45.54772" lon="5.98561">
        <ele>302</ele>
        <time>2021-08-28T10:34:35Z</time>
      </trkpt>
      <trkpt lat="45.54771" lon="5.98562">
        <ele>302.1</ele>
        <time>2021-08-28T10:34:36Z</time>
      </trkpt>
      <trkpt lat="45.54769" lon="5.98563">
        <ele>302.1</ele>
        <time>2021-08-28T10:34:37Z</time>
      </trkpt>
      <trkpt lat="45.54769" lon="5.98563">
        <ele>302.1</ele>
        <time>2021-08-28T10:34:38Z</time>
      </trkpt>
      <trkpt lat="45.54768" lon="5.98563">
        <ele>302.1</ele>
        <time>2021-08-28T10:34:39Z</time>
      </trkpt>
      <trkpt lat="45.54768" lon="5.98564">
        <ele>302.1</ele>
        <time>2021-08-28T10:34:40Z</time>
      </trkpt>
      <trkpt lat="45.54768" lon="5.98564">
        <ele>302.1</ele>
        <time>2021-08-28T10:34:41Z</time>
      </trkpt>
      <trkpt lat="45.54768" lon="5.98564">
        <ele>302.1</ele>
        <time>2021-08-28T10:34:42Z</time>
      </trkpt>
      <trkpt lat="45.54767" lon="5.98564">
        <ele>302.1</ele>
        <time>2021-08-28T10:34:43Z</time>
      </trkpt>
      <trkpt lat="45.54767" lon="5.98565">
        <ele>302.1</ele>
        <time>2021-08-28T10:34:44Z</time>
      </trkpt>
      <trkpt lat="45.54764" lon="5.98565">
        <ele>302.2</ele>
        <time>2021-08-28T10:34:45Z</time>
      </trkpt>
      <trkpt lat="45.54763" lon="5.98566">
        <ele>302.2</ele>
        <time>2021-08-28T10:34:46Z</time>
      </trkpt>
      <trkpt lat="45.5476" lon="5.98567">
        <ele>302.2</ele>
        <time>2021-08-28T10:34:47Z</time>
      </trkpt>
      <trkpt lat="45.54757" lon="5.98569">
        <ele>302.3</ele>
        <time>2021-08-28T10:34:48Z</time>
      </trkpt>
      <trkpt lat="45.54756" lon="5.9857">
        <ele>302.3</ele>
        <time>2021-08-28T10:34:49Z</time>
      </trkpt>
      <trkpt lat="45.54753" lon="5.98572">
        <ele>302.4</ele>
        <time>2021-08-28T10:34:50Z</time>
      </trkpt>
      <trkpt lat="45.5475" lon="5.98574">
        <ele>302.5</ele>
        <time>2021-08-28T10:34:51Z</time>
      </trkpt>
      <trkpt lat="45.54745" lon="5.98575">
        <ele>302.6</ele>
        <time>2021-08-28T10:34:52Z</time>
      </trkpt>
      <trkpt lat="45.54741" lon="5.98577">
        <ele>302.7</ele>
        <time>2021-08-28T10:34:53Z</time>
      </trkpt>
      <trkpt lat="45.54737" lon="5.9858">
        <ele>302.9</ele>
        <time>2021-08-28T10:34:54Z</time>
      </trkpt>
      <trkpt lat="45.54733" lon="5.98581">
        <ele>302.9</ele>
        <time>2021-08-28T10:34:55Z</time>
      </trkpt>
      <trkpt lat="45.5473" lon="5.98583">
        <ele>303</ele>
        <time>2021-08-28T10:34:56Z</time>
      </trkpt>
      <trkpt lat="45.54727" lon="5.98585">
        <ele>303.1</ele>
        <time>2021-08-28T10:34:57Z</time>
      </trkpt>
      <trkpt lat="45.54724" lon="5.98588">
        <ele>303.1</ele>
        <time>2021-08-28T10:34:58Z</time>
      </trkpt>
      <trkpt lat="45.54719" lon="5.98591">
        <ele>303.2</ele>
        <time>2021-08-28T10:34:59Z</time>
      </trkpt>
      <trkpt lat="45.54716" lon="5.98593">
        <ele>303.3</ele>
        <time>2021-08-28T10:35:00Z</time>
      </trkpt>
      <trkpt lat="45.54712" lon="5.98595">
        <ele>303.3</ele>
        <time>2021-08-28T10:35:01Z</time>
      </trkpt>
      <trkpt lat="45.54708" lon="5.98597">
        <ele>303.4</ele>
        <time>2021-08-28T10:35:02Z</time>
      </trkpt>
      <trkpt lat="45.54705" lon="5.98598">
        <ele>303.4</ele>
        <time>2021-08-28T10:35:03Z</time>
      </trkpt>
      <trkpt lat="45.54701" lon="5.986">
        <ele>303.5</ele>
        <time>2021-08-28T10:35:04Z</time>
      </trkpt>
      <trkpt lat="45.54697" lon="5.98603">
        <ele>303.6</ele>
        <time>2021-08-28T10:35:05Z</time>
      </trkpt>
      <trkpt lat="45.54693" lon="5.98605">
        <ele>303.7</ele>
        <time>2021-08-28T10:35:06Z</time>
      </trkpt>
      <trkpt lat="45.54689" lon="5.98607">
        <ele>303.7</ele>
        <time>2021-08-28T10:35:07Z</time>
      </trkpt>
      <trkpt lat="45.54684" lon="5.98609">
        <ele>303.9</ele>
        <time>2021-08-28T10:35:08Z</time>
      </trkpt>
      <trkpt lat="45.54681" lon="5.98611">
        <ele>303.9</ele>
        <time>2021-08-28T10:35:09Z</time>
      </trkpt>
      <trkpt lat="45.54676" lon="5.98613">
        <ele>304</ele>
        <time>2021-08-28T10:35:10Z</time>
      </trkpt>
      <trkpt lat="45.54675" lon="5.98614">
        <ele>304.1</ele>
        <time>2021-08-28T10:35:11Z</time>
      </trkpt>
      <trkpt lat="45.54671" lon="5.98616">
        <ele>304.2</ele>
        <time>2021-08-28T10:35:12Z</time>
      </trkpt>
      <trkpt lat="45.54667" lon="5.98618">
        <ele>304.3</ele>
        <time>2021-08-28T10:35:13Z</time>
      </trkpt>
      <trkpt lat="45.54657" lon="5.98624">
        <ele>304.6</ele>
        <time>2021-08-28T10:35:14Z</time>
      </trkpt>
      <trkpt lat="45.54649" lon="5.98627">
        <ele>304.8</ele>
        <time>2021-08-28T10:35:16Z</time>
      </trkpt>
      <trkpt lat="45.54644" lon="5.98631">
        <ele>304.9</ele>
        <time>2021-08-28T10:35:17Z</time>
      </trkpt>
      <trkpt lat="45.54638" lon="5.98633">
        <ele>305.1</ele>
        <time>2021-08-28T10:35:19Z</time>
      </trkpt>
      <trkpt lat="45.54635" lon="5.98635">
        <ele>305.1</ele>
        <time>2021-08-28T10:35:20Z</time>
      </trkpt>
      <trkpt lat="45.54632" lon="5.98638">
        <ele>305.2</ele>
        <time>2021-08-28T10:35:21Z</time>
      </trkpt>
      <trkpt lat="45.54627" lon="5.98641">
        <ele>305.3</ele>
        <time>2021-08-28T10:35:22Z</time>
      </trkpt>
      <trkpt lat="45.54619" lon="5.98645">
        <ele>305.5</ele>
        <time>2021-08-28T10:35:24Z</time>
      </trkpt>
      <trkpt lat="45.54614" lon="5.98649">
        <ele>305.7</ele>
        <time>2021-08-28T10:35:27Z</time>
      </trkpt>
      <trkpt lat="45.54607" lon="5.98652">
        <ele>305.9</ele>
        <time>2021-08-28T10:35:29Z</time>
      </trkpt>
      <trkpt lat="45.54599" lon="5.98656">
        <ele>306.1</ele>
        <time>2021-08-28T10:35:30Z</time>
      </trkpt>
      <trkpt lat="45.54595" lon="5.98658">
        <ele>306.2</ele>
        <time>2021-08-28T10:35:32Z</time>
      </trkpt>
      <trkpt lat="45.54591" lon="5.98659">
        <ele>306.3</ele>
        <time>2021-08-28T10:35:33Z</time>
      </trkpt>
      <trkpt lat="45.54588" lon="5.98662">
        <ele>306.4</ele>
        <time>2021-08-28T10:35:34Z</time>
      </trkpt>
      <trkpt lat="45.54581" lon="5.98666">
        <ele>306.6</ele>
        <time>2021-08-28T10:35:36Z</time>
      </trkpt>
      <trkpt lat="45.54574" lon="5.9867">
        <ele>306.8</ele>
        <time>2021-08-28T10:35:37Z</time>
      </trkpt>
      <trkpt lat="45.54568" lon="5.98672">
        <ele>307</ele>
        <time>2021-08-28T10:35:39Z</time>
      </trkpt>
      <trkpt lat="45.54565" lon="5.98674">
        <ele>307.1</ele>
        <time>2021-08-28T10:35:40Z</time>
      </trkpt>
      <trkpt lat="45.54561" lon="5.98676">
        <ele>307.2</ele>
        <time>2021-08-28T10:35:42Z</time>
      </trkpt>
      <trkpt lat="45.54559" lon="5.98677">
        <ele>307.2</ele>
        <time>2021-08-28T10:35:43Z</time>
      </trkpt>
      <trkpt lat="45.54555" lon="5.98679">
        <ele>307.3</ele>
        <time>2021-08-28T10:35:44Z</time>
      </trkpt>
      <trkpt lat="45.54551" lon="5.98682">
        <ele>307.4</ele>
        <time>2021-08-28T10:35:45Z</time>
      </trkpt>
      <trkpt lat="45.54547" lon="5.98684">
        <ele>307.5</ele>
        <time>2021-08-28T10:35:46Z</time>
      </trkpt>
      <trkpt lat="45.54538" lon="5.98688">
        <ele>307.6</ele>
        <time>2021-08-28T10:35:48Z</time>
      </trkpt>
      <trkpt lat="45.54533" lon="5.98691">
        <ele>307.7</ele>
        <time>2021-08-28T10:35:49Z</time>
      </trkpt>
      <trkpt lat="45.5453" lon="5.98693">
        <ele>307.8</ele>
        <time>2021-08-28T10:35:50Z</time>
      </trkpt>
      <trkpt lat="45.54526" lon="5.98695">
        <ele>308</ele>
        <time>2021-08-28T10:35:51Z</time>
      </trkpt>
      <trkpt lat="45.54523" lon="5.98697">
        <ele>308</ele>
        <time>2021-08-28T10:35:53Z</time>
      </trkpt>
      <trkpt lat="45.5452" lon="5.98699">
        <ele>308.1</ele>
        <time>2021-08-28T10:35:54Z</time>
      </trkpt>
      <trkpt lat="45.5451" lon="5.98703">
        <ele>308.4</ele>
        <time>2021-08-28T10:35:56Z</time>
      </trkpt>
      <trkpt lat="45.54506" lon="5.98705">
        <ele>308.5</ele>
        <time>2021-08-28T10:35:57Z</time>
      </trkpt>
      <trkpt lat="45.54504" lon="5.98706">
        <ele>308.5</ele>
        <time>2021-08-28T10:35:58Z</time>
      </trkpt>
      <trkpt lat="45.54497" lon="5.9871">
        <ele>308.7</ele>
        <time>2021-08-28T10:35:59Z</time>
      </trkpt>
      <trkpt lat="45.54493" lon="5.98712">
        <ele>308.8</ele>
        <time>2021-08-28T10:36:01Z</time>
      </trkpt>
      <trkpt lat="45.54487" lon="5.98716">
        <ele>309</ele>
        <time>2021-08-28T10:36:03Z</time>
      </trkpt>
      <trkpt lat="45.54479" lon="5.9872">
        <ele>309.2</ele>
        <time>2021-08-28T10:36:05Z</time>
      </trkpt>
      <trkpt lat="45.54474" lon="5.98723">
        <ele>309.3</ele>
        <time>2021-08-28T10:36:07Z</time>
      </trkpt>
      <trkpt lat="45.5447" lon="5.98724">
        <ele>309.4</ele>
        <time>2021-08-28T10:36:08Z</time>
      </trkpt>
      <trkpt lat="45.54462" lon="5.98728">
        <ele>309.5</ele>
        <time>2021-08-28T10:36:09Z</time>
      </trkpt>
      <trkpt lat="45.54458" lon="5.9873">
        <ele>309.6</ele>
        <time>2021-08-28T10:36:10Z</time>
      </trkpt>
      <trkpt lat="45.54454" lon="5.98732">
        <ele>309.7</ele>
        <time>2021-08-28T10:36:12Z</time>
      </trkpt>
      <trkpt lat="45.54448" lon="5.98735">
        <ele>309.8</ele>
        <time>2021-08-28T10:36:13Z</time>
      </trkpt>
      <trkpt lat="45.54442" lon="5.98739">
        <ele>310</ele>
        <time>2021-08-28T10:36:14Z</time>
      </trkpt>
      <trkpt lat="45.54439" lon="5.98741">
        <ele>310</ele>
        <time>2021-08-28T10:36:16Z</time>
      </trkpt>
      <trkpt lat="45.54433" lon="5.98745">
        <ele>310.2</ele>
        <time>2021-08-28T10:36:18Z</time>
      </trkpt>
      <trkpt lat="45.54428" lon="5.98747">
        <ele>310.3</ele>
        <time>2021-08-28T10:36:19Z</time>
      </trkpt>
      <trkpt lat="45.5442" lon="5.98752">
        <ele>310.5</ele>
        <time>2021-08-28T10:36:21Z</time>
      </trkpt>
      <trkpt lat="45.54415" lon="5.98755">
        <ele>310.6</ele>
        <time>2021-08-28T10:36:22Z</time>
      </trkpt>
      <trkpt lat="45.54409" lon="5.98758">
        <ele>310.7</ele>
        <time>2021-08-28T10:36:24Z</time>
      </trkpt>
      <trkpt lat="45.54401" lon="5.9876">
        <ele>310.8</ele>
        <time>2021-08-28T10:36:26Z</time>
      </trkpt>
      <trkpt lat="45.54392" lon="5.98765">
        <ele>311.1</ele>
        <time>2021-08-28T10:36:28Z</time>
      </trkpt>
      <trkpt lat="45.54384" lon="5.9877">
        <ele>311.4</ele>
        <time>2021-08-28T10:36:30Z</time>
      </trkpt>
      <trkpt lat="45.5438" lon="5.98769">
        <ele>311.6</ele>
        <time>2021-08-28T10:36:31Z</time>
      </trkpt>
      <trkpt lat="45.54373" lon="5.98773">
        <ele>311.8</ele>
        <time>2021-08-28T10:36:33Z</time>
      </trkpt>
      <trkpt lat="45.54369" lon="5.98776">
        <ele>311.9</ele>
        <time>2021-08-28T10:36:34Z</time>
      </trkpt>
      <trkpt lat="45.54361" lon="5.98781">
        <ele>312.2</ele>
        <time>2021-08-28T10:36:35Z</time>
      </trkpt>
      <trkpt lat="45.54356" lon="5.98784">
        <ele>312.4</ele>
        <time>2021-08-28T10:36:37Z</time>
      </trkpt>
      <trkpt lat="45.54353" lon="5.98785">
        <ele>312.5</ele>
        <time>2021-08-28T10:36:38Z</time>
      </trkpt>
      <trkpt lat="45.54349" lon="5.98787">
        <ele>312.5</ele>
        <time>2021-08-28T10:36:39Z</time>
      </trkpt>
      <trkpt lat="45.54345" lon="5.9879">
        <ele>312.6</ele>
        <time>2021-08-28T10:36:41Z</time>
      </trkpt>
      <trkpt lat="45.54342" lon="5.98791">
        <ele>312.6</ele>
        <time>2021-08-28T10:36:42Z</time>
      </trkpt>
      <trkpt lat="45.54336" lon="5.98793">
        <ele>312.8</ele>
        <time>2021-08-28T10:36:43Z</time>
      </trkpt>
      <trkpt lat="45.54333" lon="5.98795">
        <ele>312.8</ele>
        <time>2021-08-28T10:36:45Z</time>
      </trkpt>
      <trkpt lat="45.5433" lon="5.98798">
        <ele>312.9</ele>
        <time>2021-08-28T10:36:48Z</time>
      </trkpt>
      <trkpt lat="45.54328" lon="5.98799">
        <ele>313</ele>
        <time>2021-08-28T10:36:49Z</time>
      </trkpt>
      <trkpt lat="45.54325" lon="5.98801">
        <ele>313</ele>
        <time>2021-08-28T10:36:50Z</time>
      </trkpt>
      <trkpt lat="45.54322" lon="5.98802">
        <ele>313.1</ele>
        <time>2021-08-28T10:36:51Z</time>
      </trkpt>
      <trkpt lat="45.54319" lon="5.98804">
        <ele>313.2</ele>
        <time>2021-08-28T10:36:52Z</time>
      </trkpt>
      <trkpt lat="45.54315" lon="5.98806">
        <ele>313.3</ele>
        <time>2021-08-28T10:36:53Z</time>
      </trkpt>
      <trkpt lat="45.54312" lon="5.98808">
        <ele>313.4</ele>
        <time>2021-08-28T10:36:54Z</time>
      </trkpt>
      <trkpt lat="45.54309" lon="5.98809">
        <ele>313.5</ele>
        <time>2021-08-28T10:36:55Z</time>
      </trkpt>
      <trkpt lat="45.54305" lon="5.98811">
        <ele>313.6</ele>
        <time>2021-08-28T10:36:56Z</time>
      </trkpt>
      <trkpt lat="45.54302" lon="5.98813">
        <ele>313.7</ele>
        <time>2021-08-28T10:36:57Z</time>
      </trkpt>
      <trkpt lat="45.54299" lon="5.98815">
        <ele>313.8</ele>
        <time>2021-08-28T10:36:58Z</time>
      </trkpt>
      <trkpt lat="45.54295" lon="5.98816">
        <ele>313.9</ele>
        <time>2021-08-28T10:36:59Z</time>
      </trkpt>
      <trkpt lat="45.54292" lon="5.98818">
        <ele>314</ele>
        <time>2021-08-28T10:37:00Z</time>
      </trkpt>
      <trkpt lat="45.54289" lon="5.9882">
        <ele>314.1</ele>
        <time>2021-08-28T10:37:01Z</time>
      </trkpt>
      <trkpt lat="45.54285" lon="5.98822">
        <ele>314.2</ele>
        <time>2021-08-28T10:37:02Z</time>
      </trkpt>
      <trkpt lat="45.54281" lon="5.98824">
        <ele>314.3</ele>
        <time>2021-08-28T10:37:03Z</time>
      </trkpt>
      <trkpt lat="45.54279" lon="5.98825">
        <ele>314.4</ele>
        <time>2021-08-28T10:37:04Z</time>
      </trkpt>
      <trkpt lat="45.54276" lon="5.98827">
        <ele>314.5</ele>
        <time>2021-08-28T10:37:05Z</time>
      </trkpt>
      <trkpt lat="45.54272" lon="5.98829">
        <ele>314.6</ele>
        <time>2021-08-28T10:37:06Z</time>
      </trkpt>
      <trkpt lat="45.54269" lon="5.98831">
        <ele>314.7</ele>
        <time>2021-08-28T10:37:07Z</time>
      </trkpt>
      <trkpt lat="45.54265" lon="5.98833">
        <ele>314.8</ele>
        <time>2021-08-28T10:37:08Z</time>
      </trkpt>
      <trkpt lat="45.54262" lon="5.98835">
        <ele>314.8</ele>
        <time>2021-08-28T10:37:09Z</time>
      </trkpt>
      <trkpt lat="45.54259" lon="5.98837">
        <ele>314.9</ele>
        <time>2021-08-28T10:37:10Z</time>
      </trkpt>
      <trkpt lat="45.54255" lon="5.98839">
        <ele>315</ele>
        <time>2021-08-28T10:37:11Z</time>
      </trkpt>
      <trkpt lat="45.54253" lon="5.9884">
        <ele>315.1</ele>
        <time>2021-08-28T10:37:12Z</time>
      </trkpt>
      <trkpt lat="45.54249" lon="5.98842">
        <ele>315.2</ele>
        <time>2021-08-28T10:37:13Z</time>
      </trkpt>
      <trkpt lat="45.54246" lon="5.98844">
        <ele>315.3</ele>
        <time>2021-08-28T10:37:14Z</time>
      </trkpt>
      <trkpt lat="45.54243" lon="5.98845">
        <ele>315.4</ele>
        <time>2021-08-28T10:37:15Z</time>
      </trkpt>
      <trkpt lat="45.54239" lon="5.98847">
        <ele>315.5</ele>
        <time>2021-08-28T10:37:16Z</time>
      </trkpt>
      <trkpt lat="45.54236" lon="5.98848">
        <ele>315.6</ele>
        <time>2021-08-28T10:37:17Z</time>
      </trkpt>
      <trkpt lat="45.54233" lon="5.9885">
        <ele>315.7</ele>
        <time>2021-08-28T10:37:18Z</time>
      </trkpt>
      <trkpt lat="45.5423" lon="5.98852">
        <ele>315.7</ele>
        <time>2021-08-28T10:37:19Z</time>
      </trkpt>
      <trkpt lat="45.54226" lon="5.98854">
        <ele>315.8</ele>
        <time>2021-08-28T10:37:20Z</time>
      </trkpt>
      <trkpt lat="45.54223" lon="5.98856">
        <ele>315.9</ele>
        <time>2021-08-28T10:37:21Z</time>
      </trkpt>
      <trkpt lat="45.54219" lon="5.98858">
        <ele>316</ele>
        <time>2021-08-28T10:37:22Z</time>
      </trkpt>
      <trkpt lat="45.54215" lon="5.9886">
        <ele>316.1</ele>
        <time>2021-08-28T10:37:23Z</time>
      </trkpt>
      <trkpt lat="45.54212" lon="5.98862">
        <ele>316.2</ele>
        <time>2021-08-28T10:37:24Z</time>
      </trkpt>
      <trkpt lat="45.54208" lon="5.98864">
        <ele>316.3</ele>
        <time>2021-08-28T10:37:25Z</time>
      </trkpt>
      <trkpt lat="45.54204" lon="5.98866">
        <ele>316.4</ele>
        <time>2021-08-28T10:37:26Z</time>
      </trkpt>
      <trkpt lat="45.542" lon="5.98868">
        <ele>316.5</ele>
        <time>2021-08-28T10:37:27Z</time>
      </trkpt>
      <trkpt lat="45.54197" lon="5.9887">
        <ele>316.6</ele>
        <time>2021-08-28T10:37:28Z</time>
      </trkpt>
      <trkpt lat="45.54194" lon="5.98872">
        <ele>316.6</ele>
        <time>2021-08-28T10:37:29Z</time>
      </trkpt>
      <trkpt lat="45.5419" lon="5.98874">
        <ele>316.7</ele>
        <time>2021-08-28T10:37:30Z</time>
      </trkpt>
      <trkpt lat="45.54187" lon="5.98875">
        <ele>316.8</ele>
        <time>2021-08-28T10:37:31Z</time>
      </trkpt>
      <trkpt lat="45.54184" lon="5.98877">
        <ele>316.9</ele>
        <time>2021-08-28T10:37:32Z</time>
      </trkpt>
      <trkpt lat="45.5418" lon="5.98879">
        <ele>317</ele>
        <time>2021-08-28T10:37:33Z</time>
      </trkpt>
      <trkpt lat="45.54176" lon="5.98881">
        <ele>317.1</ele>
        <time>2021-08-28T10:37:34Z</time>
      </trkpt>
      <trkpt lat="45.54172" lon="5.98883">
        <ele>317.2</ele>
        <time>2021-08-28T10:37:35Z</time>
      </trkpt>
      <trkpt lat="45.54169" lon="5.98885">
        <ele>317.3</ele>
        <time>2021-08-28T10:37:36Z</time>
      </trkpt>
      <trkpt lat="45.54165" lon="5.98887">
        <ele>317.4</ele>
        <time>2021-08-28T10:37:37Z</time>
      </trkpt>
      <trkpt lat="45.54161" lon="5.98889">
        <ele>317.5</ele>
        <time>2021-08-28T10:37:38Z</time>
      </trkpt>
      <trkpt lat="45.54158" lon="5.9889">
        <ele>317.5</ele>
        <time>2021-08-28T10:37:39Z</time>
      </trkpt>
      <trkpt lat="45.54155" lon="5.98892">
        <ele>317.6</ele>
        <time>2021-08-28T10:37:40Z</time>
      </trkpt>
      <trkpt lat="45.54151" lon="5.98894">
        <ele>317.7</ele>
        <time>2021-08-28T10:37:41Z</time>
      </trkpt>
      <trkpt lat="45.54147" lon="5.98897">
        <ele>317.8</ele>
        <time>2021-08-28T10:37:42Z</time>
      </trkpt>
      <trkpt lat="45.54144" lon="5.98898">
        <ele>317.9</ele>
        <time>2021-08-28T10:37:43Z</time>
      </trkpt>
      <trkpt lat="45.5414" lon="5.989">
        <ele>318</ele>
        <time>2021-08-28T10:37:44Z</time>
      </trkpt>
      <trkpt lat="45.54136" lon="5.98902">
        <ele>318.1</ele>
        <time>2021-08-28T10:37:45Z</time>
      </trkpt>
      <trkpt lat="45.54133" lon="5.98904">
        <ele>318.1</ele>
        <time>2021-08-28T10:37:46Z</time>
      </trkpt>
      <trkpt lat="45.54129" lon="5.98906">
        <ele>318.2</ele>
        <time>2021-08-28T10:37:47Z</time>
      </trkpt>
      <trkpt lat="45.54125" lon="5.98908">
        <ele>318.4</ele>
        <time>2021-08-28T10:37:48Z</time>
      </trkpt>
      <trkpt lat="45.54122" lon="5.9891">
        <ele>318.5</ele>
        <time>2021-08-28T10:37:49Z</time>
      </trkpt>
      <trkpt lat="45.54118" lon="5.98912">
        <ele>318.6</ele>
        <time>2021-08-28T10:37:50Z</time>
      </trkpt>
      <trkpt lat="45.54113" lon="5.98914">
        <ele>318.7</ele>
        <time>2021-08-28T10:37:51Z</time>
      </trkpt>
      <trkpt lat="45.5411" lon="5.98916">
        <ele>318.8</ele>
        <time>2021-08-28T10:37:52Z</time>
      </trkpt>
      <trkpt lat="45.54106" lon="5.98917">
        <ele>319</ele>
        <time>2021-08-28T10:37:53Z</time>
      </trkpt>
      <trkpt lat="45.54102" lon="5.98919">
        <ele>319.1</ele>
        <time>2021-08-28T10:37:54Z</time>
      </trkpt>
      <trkpt lat="45.54099" lon="5.98921">
        <ele>319.2</ele>
        <time>2021-08-28T10:37:55Z</time>
      </trkpt>
      <trkpt lat="45.54095" lon="5.98923">
        <ele>319.3</ele>
        <time>2021-08-28T10:37:56Z</time>
      </trkpt>
      <trkpt lat="45.54092" lon="5.98925">
        <ele>319.4</ele>
        <time>2021-08-28T10:37:57Z</time>
      </trkpt>
      <trkpt lat="45.54088" lon="5.98927">
        <ele>319.5</ele>
        <time>2021-08-28T10:37:58Z</time>
      </trkpt>
      <trkpt lat="45.54084" lon="5.98929">
        <ele>319.7</ele>
        <time>2021-08-28T10:37:59Z</time>
      </trkpt>
      <trkpt lat="45.54082" lon="5.9893">
        <ele>319.8</ele>
        <time>2021-08-28T10:38:00Z</time>
      </trkpt>
      <trkpt lat="45.54078" lon="5.98932">
        <ele>319.9</ele>
        <time>2021-08-28T10:38:01Z</time>
      </trkpt>
      <trkpt lat="45.54075" lon="5.98934">
        <ele>320.1</ele>
        <time>2021-08-28T10:38:02Z</time>
      </trkpt>
      <trkpt lat="45.54072" lon="5.98935">
        <ele>320.1</ele>
        <time>2021-08-28T10:38:03Z</time>
      </trkpt>
      <trkpt lat="45.54068" lon="5.98937">
        <ele>320.2</ele>
        <time>2021-08-28T10:38:04Z</time>
      </trkpt>
      <trkpt lat="45.54064" lon="5.98939">
        <ele>320.3</ele>
        <time>2021-08-28T10:38:05Z</time>
      </trkpt>
      <trkpt lat="45.54062" lon="5.9894">
        <ele>320.4</ele>
        <time>2021-08-28T10:38:06Z</time>
      </trkpt>
      <trkpt lat="45.54059" lon="5.98942">
        <ele>320.5</ele>
        <time>2021-08-28T10:38:07Z</time>
      </trkpt>
      <trkpt lat="45.54056" lon="5.98943">
        <ele>320.6</ele>
        <time>2021-08-28T10:38:08Z</time>
      </trkpt>
      <trkpt lat="45.54052" lon="5.98945">
        <ele>320.7</ele>
        <time>2021-08-28T10:38:09Z</time>
      </trkpt>
      <trkpt lat="45.54048" lon="5.98946">
        <ele>320.7</ele>
        <time>2021-08-28T10:38:10Z</time>
      </trkpt>
      <trkpt lat="45.54044" lon="5.98948">
        <ele>320.8</ele>
        <time>2021-08-28T10:38:11Z</time>
      </trkpt>
      <trkpt lat="45.54041" lon="5.9895">
        <ele>321</ele>
        <time>2021-08-28T10:38:12Z</time>
      </trkpt>
      <trkpt lat="45.54038" lon="5.98952">
        <ele>321.1</ele>
        <time>2021-08-28T10:38:13Z</time>
      </trkpt>
      <trkpt lat="45.54034" lon="5.98954">
        <ele>321.2</ele>
        <time>2021-08-28T10:38:14Z</time>
      </trkpt>
      <trkpt lat="45.5403" lon="5.98956">
        <ele>321.3</ele>
        <time>2021-08-28T10:38:15Z</time>
      </trkpt>
      <trkpt lat="45.54027" lon="5.98958">
        <ele>321.5</ele>
        <time>2021-08-28T10:38:16Z</time>
      </trkpt>
      <trkpt lat="45.54023" lon="5.9896">
        <ele>321.6</ele>
        <time>2021-08-28T10:38:17Z</time>
      </trkpt>
      <trkpt lat="45.5402" lon="5.98962">
        <ele>321.8</ele>
        <time>2021-08-28T10:38:18Z</time>
      </trkpt>
      <trkpt lat="45.54016" lon="5.98964">
        <ele>321.9</ele>
        <time>2021-08-28T10:38:19Z</time>
      </trkpt>
      <trkpt lat="45.54013" lon="5.98965">
        <ele>322.1</ele>
        <time>2021-08-28T10:38:20Z</time>
      </trkpt>
      <trkpt lat="45.54009" lon="5.98967">
        <ele>322.2</ele>
        <time>2021-08-28T10:38:21Z</time>
      </trkpt>
      <trkpt lat="45.54006" lon="5.98968">
        <ele>322.4</ele>
        <time>2021-08-28T10:38:22Z</time>
      </trkpt>
      <trkpt lat="45.54003" lon="5.98969">
        <ele>322.5</ele>
        <time>2021-08-28T10:38:23Z</time>
      </trkpt>
      <trkpt lat="45.53999" lon="5.98971">
        <ele>322.7</ele>
        <time>2021-08-28T10:38:24Z</time>
      </trkpt>
      <trkpt lat="45.53995" lon="5.98973">
        <ele>323</ele>
        <time>2021-08-28T10:38:25Z</time>
      </trkpt>
      <trkpt lat="45.53992" lon="5.98973">
        <ele>323.1</ele>
        <time>2021-08-28T10:38:26Z</time>
      </trkpt>
      <trkpt lat="45.53989" lon="5.98972">
        <ele>323.6</ele>
        <time>2021-08-28T10:38:27Z</time>
      </trkpt>
      <trkpt lat="45.53986" lon="5.98968">
        <ele>323.5</ele>
        <time>2021-08-28T10:38:28Z</time>
      </trkpt>
      <trkpt lat="45.53982" lon="5.98964">
        <ele>323.4</ele>
        <time>2021-08-28T10:38:29Z</time>
      </trkpt>
      <trkpt lat="45.53979" lon="5.98962">
        <ele>323.3</ele>
        <time>2021-08-28T10:38:30Z</time>
      </trkpt>
      <trkpt lat="45.53976" lon="5.98961">
        <ele>323.2</ele>
        <time>2021-08-28T10:38:31Z</time>
      </trkpt>
      <trkpt lat="45.53971" lon="5.98959">
        <ele>323.1</ele>
        <time>2021-08-28T10:38:32Z</time>
      </trkpt>
      <trkpt lat="45.53968" lon="5.98961">
        <ele>323.1</ele>
        <time>2021-08-28T10:38:33Z</time>
      </trkpt>
      <trkpt lat="45.53963" lon="5.98962">
        <ele>323.2</ele>
        <time>2021-08-28T10:38:34Z</time>
      </trkpt>
      <trkpt lat="45.53959" lon="5.98967">
        <ele>323.2</ele>
        <time>2021-08-28T10:38:35Z</time>
      </trkpt>
      <trkpt lat="45.53955" lon="5.98972">
        <ele>323.3</ele>
        <time>2021-08-28T10:38:36Z</time>
      </trkpt>
      <trkpt lat="45.53953" lon="5.98977">
        <ele>323.4</ele>
        <time>2021-08-28T10:38:37Z</time>
      </trkpt>
      <trkpt lat="45.53952" lon="5.98983">
        <ele>323.4</ele>
        <time>2021-08-28T10:38:38Z</time>
      </trkpt>
      <trkpt lat="45.53951" lon="5.98988">
        <ele>323.5</ele>
        <time>2021-08-28T10:38:39Z</time>
      </trkpt>
      <trkpt lat="45.5395" lon="5.98994">
        <ele>323.6</ele>
        <time>2021-08-28T10:38:40Z</time>
      </trkpt>
      <trkpt lat="45.53949" lon="5.98998">
        <ele>323.7</ele>
        <time>2021-08-28T10:38:41Z</time>
      </trkpt>
      <trkpt lat="45.53947" lon="5.99003">
        <ele>323.8</ele>
        <time>2021-08-28T10:38:42Z</time>
      </trkpt>
      <trkpt lat="45.53943" lon="5.99008">
        <ele>323.9</ele>
        <time>2021-08-28T10:38:43Z</time>
      </trkpt>
      <trkpt lat="45.53939" lon="5.9901">
        <ele>324</ele>
        <time>2021-08-28T10:38:44Z</time>
      </trkpt>
      <trkpt lat="45.53929" lon="5.99016">
        <ele>324.2</ele>
        <time>2021-08-28T10:38:45Z</time>
      </trkpt>
      <trkpt lat="45.53916" lon="5.99021">
        <ele>324.4</ele>
        <time>2021-08-28T10:38:48Z</time>
      </trkpt>
      <trkpt lat="45.53908" lon="5.99023">
        <ele>324.6</ele>
        <time>2021-08-28T10:38:50Z</time>
      </trkpt>
      <trkpt lat="45.53903" lon="5.99026">
        <ele>324.6</ele>
        <time>2021-08-28T10:38:51Z</time>
      </trkpt>
      <trkpt lat="45.53898" lon="5.99029">
        <ele>324.7</ele>
        <time>2021-08-28T10:38:54Z</time>
      </trkpt>
      <trkpt lat="45.53893" lon="5.99031">
        <ele>324.8</ele>
        <time>2021-08-28T10:38:55Z</time>
      </trkpt>
      <trkpt lat="45.53889" lon="5.99034">
        <ele>324.9</ele>
        <time>2021-08-28T10:38:56Z</time>
      </trkpt>
      <trkpt lat="45.53884" lon="5.99036">
        <ele>324.9</ele>
        <time>2021-08-28T10:38:57Z</time>
      </trkpt>
      <trkpt lat="45.53879" lon="5.99039">
        <ele>325</ele>
        <time>2021-08-28T10:38:58Z</time>
      </trkpt>
      <trkpt lat="45.53874" lon="5.99042">
        <ele>325</ele>
        <time>2021-08-28T10:38:59Z</time>
      </trkpt>
      <trkpt lat="45.53869" lon="5.99045">
        <ele>325.1</ele>
        <time>2021-08-28T10:39:00Z</time>
      </trkpt>
      <trkpt lat="45.53858" lon="5.9905">
        <ele>325.2</ele>
        <time>2021-08-28T10:39:01Z</time>
      </trkpt>
      <trkpt lat="45.5385" lon="5.99056">
        <ele>325.2</ele>
        <time>2021-08-28T10:39:04Z</time>
      </trkpt>
      <trkpt lat="45.53845" lon="5.99059">
        <ele>325.3</ele>
        <time>2021-08-28T10:39:05Z</time>
      </trkpt>
      <trkpt lat="45.5384" lon="5.99062">
        <ele>325.3</ele>
        <time>2021-08-28T10:39:06Z</time>
      </trkpt>
      <trkpt lat="45.53834" lon="5.99065">
        <ele>325.3</ele>
        <time>2021-08-28T10:39:07Z</time>
      </trkpt>
      <trkpt lat="45.53828" lon="5.99068">
        <ele>325.3</ele>
        <time>2021-08-28T10:39:08Z</time>
      </trkpt>
      <trkpt lat="45.53823" lon="5.99071">
        <ele>325.4</ele>
        <time>2021-08-28T10:39:09Z</time>
      </trkpt>
      <trkpt lat="45.53818" lon="5.99074">
        <ele>325.4</ele>
        <time>2021-08-28T10:39:10Z</time>
      </trkpt>
      <trkpt lat="45.53814" lon="5.99078">
        <ele>325.4</ele>
        <time>2021-08-28T10:39:11Z</time>
      </trkpt>
      <trkpt lat="45.53808" lon="5.99081">
        <ele>325.4</ele>
        <time>2021-08-28T10:39:12Z</time>
      </trkpt>
      <trkpt lat="45.53803" lon="5.99083">
        <ele>325.4</ele>
        <time>2021-08-28T10:39:13Z</time>
      </trkpt>
      <trkpt lat="45.53797" lon="5.99086">
        <ele>325.4</ele>
        <time>2021-08-28T10:39:14Z</time>
      </trkpt>
      <trkpt lat="45.53792" lon="5.99088">
        <ele>325.5</ele>
        <time>2021-08-28T10:39:15Z</time>
      </trkpt>
      <trkpt lat="45.53786" lon="5.9909">
        <ele>325.5</ele>
        <time>2021-08-28T10:39:16Z</time>
      </trkpt>
      <trkpt lat="45.5378" lon="5.99093">
        <ele>325.5</ele>
        <time>2021-08-28T10:39:17Z</time>
      </trkpt>
      <trkpt lat="45.53775" lon="5.99096">
        <ele>325.5</ele>
        <time>2021-08-28T10:39:18Z</time>
      </trkpt>
      <trkpt lat="45.53769" lon="5.99099">
        <ele>325.4</ele>
        <time>2021-08-28T10:39:19Z</time>
      </trkpt>
      <trkpt lat="45.53763" lon="5.99102">
        <ele>325.4</ele>
        <time>2021-08-28T10:39:20Z</time>
      </trkpt>
      <trkpt lat="45.53758" lon="5.99105">
        <ele>325.4</ele>
        <time>2021-08-28T10:39:21Z</time>
      </trkpt>
      <trkpt lat="45.53752" lon="5.99108">
        <ele>325.4</ele>
        <time>2021-08-28T10:39:22Z</time>
      </trkpt>
      <trkpt lat="45.53747" lon="5.99112">
        <ele>325.4</ele>
        <time>2021-08-28T10:39:23Z</time>
      </trkpt>
      <trkpt lat="45.53741" lon="5.99115">
        <ele>325.4</ele>
        <time>2021-08-28T10:39:24Z</time>
      </trkpt>
      <trkpt lat="45.53735" lon="5.99118">
        <ele>325.4</ele>
        <time>2021-08-28T10:39:25Z</time>
      </trkpt>
      <trkpt lat="45.53729" lon="5.99121">
        <ele>325.4</ele>
        <time>2021-08-28T10:39:26Z</time>
      </trkpt>
      <trkpt lat="45.53724" lon="5.99124">
        <ele>325.4</ele>
        <time>2021-08-28T10:39:27Z</time>
      </trkpt>
      <trkpt lat="45.53718" lon="5.99127">
        <ele>325.4</ele>
        <time>2021-08-28T10:39:28Z</time>
      </trkpt>
      <trkpt lat="45.53712" lon="5.9913">
        <ele>325.4</ele>
        <time>2021-08-28T10:39:29Z</time>
      </trkpt>
      <trkpt lat="45.53706" lon="5.99133">
        <ele>325.5</ele>
        <time>2021-08-28T10:39:30Z</time>
      </trkpt>
      <trkpt lat="45.53701" lon="5.99136">
        <ele>325.5</ele>
        <time>2021-08-28T10:39:31Z</time>
      </trkpt>
      <trkpt lat="45.53695" lon="5.99139">
        <ele>325.5</ele>
        <time>2021-08-28T10:39:32Z</time>
      </trkpt>
      <trkpt lat="45.53689" lon="5.99143">
        <ele>325.6</ele>
        <time>2021-08-28T10:39:33Z</time>
      </trkpt>
      <trkpt lat="45.53684" lon="5.99146">
        <ele>325.6</ele>
        <time>2021-08-28T10:39:34Z</time>
      </trkpt>
      <trkpt lat="45.53678" lon="5.99148">
        <ele>325.6</ele>
        <time>2021-08-28T10:39:35Z</time>
      </trkpt>
      <trkpt lat="45.53672" lon="5.99151">
        <ele>325.7</ele>
        <time>2021-08-28T10:39:36Z</time>
      </trkpt>
      <trkpt lat="45.53666" lon="5.99154">
        <ele>325.8</ele>
        <time>2021-08-28T10:39:37Z</time>
      </trkpt>
      <trkpt lat="45.5366" lon="5.99157">
        <ele>325.8</ele>
        <time>2021-08-28T10:39:38Z</time>
      </trkpt>
      <trkpt lat="45.53654" lon="5.9916">
        <ele>325.9</ele>
        <time>2021-08-28T10:39:39Z</time>
      </trkpt>
      <trkpt lat="45.53648" lon="5.99164">
        <ele>326</ele>
        <time>2021-08-28T10:39:40Z</time>
      </trkpt>
      <trkpt lat="45.53642" lon="5.99167">
        <ele>326.1</ele>
        <time>2021-08-28T10:39:41Z</time>
      </trkpt>
      <trkpt lat="45.53636" lon="5.99171">
        <ele>326</ele>
        <time>2021-08-28T10:39:42Z</time>
      </trkpt>
      <trkpt lat="45.53631" lon="5.99175">
        <ele>325.9</ele>
        <time>2021-08-28T10:39:43Z</time>
      </trkpt>
      <trkpt lat="45.53625" lon="5.99178">
        <ele>325.9</ele>
        <time>2021-08-28T10:39:44Z</time>
      </trkpt>
      <trkpt lat="45.53619" lon="5.99182">
        <ele>325.9</ele>
        <time>2021-08-28T10:39:45Z</time>
      </trkpt>
      <trkpt lat="45.53614" lon="5.99184">
        <ele>326</ele>
        <time>2021-08-28T10:39:46Z</time>
      </trkpt>
      <trkpt lat="45.53608" lon="5.99187">
        <ele>326</ele>
        <time>2021-08-28T10:39:47Z</time>
      </trkpt>
      <trkpt lat="45.53603" lon="5.99191">
        <ele>326</ele>
        <time>2021-08-28T10:39:48Z</time>
      </trkpt>
      <trkpt lat="45.53597" lon="5.99195">
        <ele>326</ele>
        <time>2021-08-28T10:39:49Z</time>
      </trkpt>
      <trkpt lat="45.53591" lon="5.99197">
        <ele>326</ele>
        <time>2021-08-28T10:39:50Z</time>
      </trkpt>
      <trkpt lat="45.53585" lon="5.992">
        <ele>326</ele>
        <time>2021-08-28T10:39:51Z</time>
      </trkpt>
      <trkpt lat="45.5358" lon="5.99203">
        <ele>326</ele>
        <time>2021-08-28T10:39:52Z</time>
      </trkpt>
      <trkpt lat="45.53574" lon="5.99206">
        <ele>326</ele>
        <time>2021-08-28T10:39:53Z</time>
      </trkpt>
      <trkpt lat="45.53568" lon="5.99209">
        <ele>326</ele>
        <time>2021-08-28T10:39:54Z</time>
      </trkpt>
      <trkpt lat="45.53562" lon="5.99213">
        <ele>326</ele>
        <time>2021-08-28T10:39:55Z</time>
      </trkpt>
      <trkpt lat="45.53556" lon="5.99217">
        <ele>326</ele>
        <time>2021-08-28T10:39:56Z</time>
      </trkpt>
      <trkpt lat="45.5355" lon="5.9922">
        <ele>325.9</ele>
        <time>2021-08-28T10:39:57Z</time>
      </trkpt>
      <trkpt lat="45.53544" lon="5.99224">
        <ele>325.9</ele>
        <time>2021-08-28T10:39:58Z</time>
      </trkpt>
      <trkpt lat="45.53538" lon="5.99227">
        <ele>325.9</ele>
        <time>2021-08-28T10:39:59Z</time>
      </trkpt>
      <trkpt lat="45.53532" lon="5.99229">
        <ele>325.9</ele>
        <time>2021-08-28T10:40:00Z</time>
      </trkpt>
      <trkpt lat="45.53525" lon="5.99231">
        <ele>325.9</ele>
        <time>2021-08-28T10:40:01Z</time>
      </trkpt>
      <trkpt lat="45.53519" lon="5.99233">
        <ele>325.9</ele>
        <time>2021-08-28T10:40:02Z</time>
      </trkpt>
      <trkpt lat="45.53513" lon="5.99235">
        <ele>325.9</ele>
        <time>2021-08-28T10:40:03Z</time>
      </trkpt>
      <trkpt lat="45.53506" lon="5.99236">
        <ele>325.8</ele>
        <time>2021-08-28T10:40:04Z</time>
      </trkpt>
      <trkpt lat="45.53499" lon="5.99237">
        <ele>325.8</ele>
        <time>2021-08-28T10:40:05Z</time>
      </trkpt>
      <trkpt lat="45.53492" lon="5.99238">
        <ele>325.8</ele>
        <time>2021-08-28T10:40:06Z</time>
      </trkpt>
      <trkpt lat="45.53485" lon="5.99238">
        <ele>325.7</ele>
        <time>2021-08-28T10:40:07Z</time>
      </trkpt>
      <trkpt lat="45.53479" lon="5.99236">
        <ele>325.7</ele>
        <time>2021-08-28T10:40:08Z</time>
      </trkpt>
      <trkpt lat="45.53472" lon="5.99235">
        <ele>325.6</ele>
        <time>2021-08-28T10:40:09Z</time>
      </trkpt>
      <trkpt lat="45.53465" lon="5.99233">
        <ele>325.5</ele>
        <time>2021-08-28T10:40:10Z</time>
      </trkpt>
      <trkpt lat="45.53458" lon="5.99231">
        <ele>325.4</ele>
        <time>2021-08-28T10:40:11Z</time>
      </trkpt>
      <trkpt lat="45.53451" lon="5.99229">
        <ele>325.3</ele>
        <time>2021-08-28T10:40:12Z</time>
      </trkpt>
      <trkpt lat="45.53444" lon="5.99227">
        <ele>325.1</ele>
        <time>2021-08-28T10:40:13Z</time>
      </trkpt>
      <trkpt lat="45.53437" lon="5.99224">
        <ele>325</ele>
        <time>2021-08-28T10:40:14Z</time>
      </trkpt>
      <trkpt lat="45.53429" lon="5.99222">
        <ele>324.8</ele>
        <time>2021-08-28T10:40:15Z</time>
      </trkpt>
      <trkpt lat="45.53422" lon="5.99219">
        <ele>324.6</ele>
        <time>2021-08-28T10:40:16Z</time>
      </trkpt>
      <trkpt lat="45.53414" lon="5.99217">
        <ele>324.4</ele>
        <time>2021-08-28T10:40:17Z</time>
      </trkpt>
      <trkpt lat="45.53406" lon="5.99214">
        <ele>324.3</ele>
        <time>2021-08-28T10:40:18Z</time>
      </trkpt>
      <trkpt lat="45.53398" lon="5.99211">
        <ele>324.1</ele>
        <time>2021-08-28T10:40:19Z</time>
      </trkpt>
      <trkpt lat="45.5339" lon="5.99209">
        <ele>323.9</ele>
        <time>2021-08-28T10:40:20Z</time>
      </trkpt>
      <trkpt lat="45.53382" lon="5.99206">
        <ele>323.7</ele>
        <time>2021-08-28T10:40:21Z</time>
      </trkpt>
      <trkpt lat="45.53374" lon="5.99203">
        <ele>323.5</ele>
        <time>2021-08-28T10:40:22Z</time>
      </trkpt>
      <trkpt lat="45.53365" lon="5.99201">
        <ele>323.4</ele>
        <time>2021-08-28T10:40:23Z</time>
      </trkpt>
      <trkpt lat="45.53356" lon="5.992">
        <ele>323.3</ele>
        <time>2021-08-28T10:40:24Z</time>
      </trkpt>
      <trkpt lat="45.53348" lon="5.99199">
        <ele>323.3</ele>
        <time>2021-08-28T10:40:25Z</time>
      </trkpt>
      <trkpt lat="45.53339" lon="5.99199">
        <ele>323.2</ele>
        <time>2021-08-28T10:40:26Z</time>
      </trkpt>
      <trkpt lat="45.5333" lon="5.99199">
        <ele>323</ele>
        <time>2021-08-28T10:40:27Z</time>
      </trkpt>
      <trkpt lat="45.53322" lon="5.99199">
        <ele>322.8</ele>
        <time>2021-08-28T10:40:28Z</time>
      </trkpt>
      <trkpt lat="45.53314" lon="5.992">
        <ele>322.5</ele>
        <time>2021-08-28T10:40:29Z</time>
      </trkpt>
      <trkpt lat="45.53305" lon="5.99202">
        <ele>322.3</ele>
        <time>2021-08-28T10:40:30Z</time>
      </trkpt>
      <trkpt lat="45.53297" lon="5.99205">
        <ele>322</ele>
        <time>2021-08-28T10:40:31Z</time>
      </trkpt>
      <trkpt lat="45.53288" lon="5.99208">
        <ele>321.7</ele>
        <time>2021-08-28T10:40:32Z</time>
      </trkpt>
      <trkpt lat="45.5328" lon="5.9921">
        <ele>321.6</ele>
        <time>2021-08-28T10:40:33Z</time>
      </trkpt>
      <trkpt lat="45.53271" lon="5.99212">
        <ele>321.4</ele>
        <time>2021-08-28T10:40:34Z</time>
      </trkpt>
      <trkpt lat="45.53262" lon="5.99215">
        <ele>321.1</ele>
        <time>2021-08-28T10:40:35Z</time>
      </trkpt>
      <trkpt lat="45.53254" lon="5.99217">
        <ele>320.9</ele>
        <time>2021-08-28T10:40:36Z</time>
      </trkpt>
      <trkpt lat="45.53246" lon="5.99218">
        <ele>320.7</ele>
        <time>2021-08-28T10:40:37Z</time>
      </trkpt>
      <trkpt lat="45.53238" lon="5.99219">
        <ele>320.5</ele>
        <time>2021-08-28T10:40:38Z</time>
      </trkpt>
      <trkpt lat="45.53231" lon="5.9922">
        <ele>320.3</ele>
        <time>2021-08-28T10:40:39Z</time>
      </trkpt>
      <trkpt lat="45.53222" lon="5.99221">
        <ele>320.2</ele>
        <time>2021-08-28T10:40:40Z</time>
      </trkpt>
      <trkpt lat="45.53214" lon="5.99222">
        <ele>320</ele>
        <time>2021-08-28T10:40:41Z</time>
      </trkpt>
      <trkpt lat="45.53206" lon="5.99223">
        <ele>319.8</ele>
        <time>2021-08-28T10:40:42Z</time>
      </trkpt>
      <trkpt lat="45.53197" lon="5.99224">
        <ele>319.6</ele>
        <time>2021-08-28T10:40:43Z</time>
      </trkpt>
      <trkpt lat="45.53189" lon="5.99226">
        <ele>319.5</ele>
        <time>2021-08-28T10:40:44Z</time>
      </trkpt>
      <trkpt lat="45.5318" lon="5.99227">
        <ele>319.3</ele>
        <time>2021-08-28T10:40:45Z</time>
      </trkpt>
      <trkpt lat="45.53172" lon="5.99228">
        <ele>319.2</ele>
        <time>2021-08-28T10:40:46Z</time>
      </trkpt>
      <trkpt lat="45.53163" lon="5.99229">
        <ele>319</ele>
        <time>2021-08-28T10:40:47Z</time>
      </trkpt>
      <trkpt lat="45.53154" lon="5.9923">
        <ele>318.9</ele>
        <time>2021-08-28T10:40:48Z</time>
      </trkpt>
      <trkpt lat="45.53146" lon="5.9923">
        <ele>318.8</ele>
        <time>2021-08-28T10:40:49Z</time>
      </trkpt>
      <trkpt lat="45.53138" lon="5.99231">
        <ele>318.7</ele>
        <time>2021-08-28T10:40:50Z</time>
      </trkpt>
      <trkpt lat="45.53129" lon="5.99231">
        <ele>318.6</ele>
        <time>2021-08-28T10:40:51Z</time>
      </trkpt>
      <trkpt lat="45.53121" lon="5.99232">
        <ele>318.5</ele>
        <time>2021-08-28T10:40:52Z</time>
      </trkpt>
      <trkpt lat="45.53113" lon="5.99233">
        <ele>318.3</ele>
        <time>2021-08-28T10:40:53Z</time>
      </trkpt>
      <trkpt lat="45.53104" lon="5.99234">
        <ele>318.2</ele>
        <time>2021-08-28T10:40:54Z</time>
      </trkpt>
      <trkpt lat="45.53096" lon="5.99235">
        <ele>318.1</ele>
        <time>2021-08-28T10:40:55Z</time>
      </trkpt>
      <trkpt lat="45.53088" lon="5.99236">
        <ele>317.9</ele>
        <time>2021-08-28T10:40:56Z</time>
      </trkpt>
      <trkpt lat="45.5308" lon="5.99238">
        <ele>317.8</ele>
        <time>2021-08-28T10:40:57Z</time>
      </trkpt>
      <trkpt lat="45.53072" lon="5.99239">
        <ele>317.7</ele>
        <time>2021-08-28T10:40:58Z</time>
      </trkpt>
      <trkpt lat="45.53064" lon="5.99241">
        <ele>317.6</ele>
        <time>2021-08-28T10:40:59Z</time>
      </trkpt>
      <trkpt lat="45.53056" lon="5.99243">
        <ele>317.5</ele>
        <time>2021-08-28T10:41:00Z</time>
      </trkpt>
      <trkpt lat="45.53048" lon="5.99244">
        <ele>317.4</ele>
        <time>2021-08-28T10:41:01Z</time>
      </trkpt>
      <trkpt lat="45.5304" lon="5.99245">
        <ele>317.3</ele>
        <time>2021-08-28T10:41:02Z</time>
      </trkpt>
      <trkpt lat="45.53032" lon="5.99246">
        <ele>317.2</ele>
        <time>2021-08-28T10:41:03Z</time>
      </trkpt>
      <trkpt lat="45.53024" lon="5.99248">
        <ele>317.1</ele>
        <time>2021-08-28T10:41:04Z</time>
      </trkpt>
      <trkpt lat="45.53016" lon="5.99249">
        <ele>316.9</ele>
        <time>2021-08-28T10:41:05Z</time>
      </trkpt>
      <trkpt lat="45.53008" lon="5.9925">
        <ele>316.7</ele>
        <time>2021-08-28T10:41:06Z</time>
      </trkpt>
      <trkpt lat="45.52999" lon="5.9925">
        <ele>316.5</ele>
        <time>2021-08-28T10:41:07Z</time>
      </trkpt>
      <trkpt lat="45.52991" lon="5.99251">
        <ele>316.4</ele>
        <time>2021-08-28T10:41:08Z</time>
      </trkpt>
      <trkpt lat="45.52983" lon="5.99251">
        <ele>316.3</ele>
        <time>2021-08-28T10:41:09Z</time>
      </trkpt>
      <trkpt lat="45.52975" lon="5.99252">
        <ele>316.1</ele>
        <time>2021-08-28T10:41:10Z</time>
      </trkpt>
      <trkpt lat="45.52966" lon="5.99252">
        <ele>316</ele>
        <time>2021-08-28T10:41:11Z</time>
      </trkpt>
      <trkpt lat="45.52957" lon="5.99253">
        <ele>315.9</ele>
        <time>2021-08-28T10:41:12Z</time>
      </trkpt>
      <trkpt lat="45.52949" lon="5.99253">
        <ele>315.8</ele>
        <time>2021-08-28T10:41:13Z</time>
      </trkpt>
      <trkpt lat="45.5294" lon="5.99254">
        <ele>315.6</ele>
        <time>2021-08-28T10:41:14Z</time>
      </trkpt>
      <trkpt lat="45.52932" lon="5.99254">
        <ele>315.5</ele>
        <time>2021-08-28T10:41:15Z</time>
      </trkpt>
      <trkpt lat="45.52923" lon="5.99255">
        <ele>315.4</ele>
        <time>2021-08-28T10:41:16Z</time>
      </trkpt>
      <trkpt lat="45.52915" lon="5.99255">
        <ele>315.3</ele>
        <time>2021-08-28T10:41:17Z</time>
      </trkpt>
      <trkpt lat="45.52906" lon="5.99256">
        <ele>315.2</ele>
        <time>2021-08-28T10:41:18Z</time>
      </trkpt>
      <trkpt lat="45.52897" lon="5.99257">
        <ele>315</ele>
        <time>2021-08-28T10:41:19Z</time>
      </trkpt>
      <trkpt lat="45.52888" lon="5.99257">
        <ele>314.9</ele>
        <time>2021-08-28T10:41:20Z</time>
      </trkpt>
      <trkpt lat="45.5288" lon="5.99258">
        <ele>314.8</ele>
        <time>2021-08-28T10:41:21Z</time>
      </trkpt>
      <trkpt lat="45.52871" lon="5.99259">
        <ele>314.7</ele>
        <time>2021-08-28T10:41:22Z</time>
      </trkpt>
      <trkpt lat="45.52863" lon="5.9926">
        <ele>314.6</ele>
        <time>2021-08-28T10:41:23Z</time>
      </trkpt>
      <trkpt lat="45.52854" lon="5.99261">
        <ele>314.5</ele>
        <time>2021-08-28T10:41:24Z</time>
      </trkpt>
      <trkpt lat="45.52846" lon="5.99262">
        <ele>314.3</ele>
        <time>2021-08-28T10:41:25Z</time>
      </trkpt>
      <trkpt lat="45.52838" lon="5.99263">
        <ele>314.2</ele>
        <time>2021-08-28T10:41:26Z</time>
      </trkpt>
      <trkpt lat="45.52829" lon="5.99264">
        <ele>314.1</ele>
        <time>2021-08-28T10:41:27Z</time>
      </trkpt>
      <trkpt lat="45.52821" lon="5.99264">
        <ele>313.9</ele>
        <time>2021-08-28T10:41:28Z</time>
      </trkpt>
      <trkpt lat="45.52813" lon="5.99265">
        <ele>313.8</ele>
        <time>2021-08-28T10:41:29Z</time>
      </trkpt>
      <trkpt lat="45.52804" lon="5.99265">
        <ele>313.7</ele>
        <time>2021-08-28T10:41:30Z</time>
      </trkpt>
      <trkpt lat="45.52796" lon="5.99265">
        <ele>313.5</ele>
        <time>2021-08-28T10:41:31Z</time>
      </trkpt>
      <trkpt lat="45.52788" lon="5.99267">
        <ele>313.4</ele>
        <time>2021-08-28T10:41:32Z</time>
      </trkpt>
      <trkpt lat="45.52779" lon="5.99267">
        <ele>313.3</ele>
        <time>2021-08-28T10:41:33Z</time>
      </trkpt>
      <trkpt lat="45.52772" lon="5.99268">
        <ele>313.2</ele>
        <time>2021-08-28T10:41:34Z</time>
      </trkpt>
      <trkpt lat="45.52763" lon="5.99269">
        <ele>313.1</ele>
        <time>2021-08-28T10:41:35Z</time>
      </trkpt>
      <trkpt lat="45.52755" lon="5.99269">
        <ele>312.9</ele>
        <time>2021-08-28T10:41:36Z</time>
      </trkpt>
      <trkpt lat="45.52747" lon="5.9927">
        <ele>312.8</ele>
        <time>2021-08-28T10:41:37Z</time>
      </trkpt>
      <trkpt lat="45.52739" lon="5.99271">
        <ele>312.7</ele>
        <time>2021-08-28T10:41:38Z</time>
      </trkpt>
      <trkpt lat="45.5273" lon="5.99271">
        <ele>312.6</ele>
        <time>2021-08-28T10:41:39Z</time>
      </trkpt>
      <trkpt lat="45.52721" lon="5.99273">
        <ele>312.5</ele>
        <time>2021-08-28T10:41:40Z</time>
      </trkpt>
      <trkpt lat="45.52712" lon="5.99274">
        <ele>312.4</ele>
        <time>2021-08-28T10:41:41Z</time>
      </trkpt>
      <trkpt lat="45.52704" lon="5.99276">
        <ele>312.2</ele>
        <time>2021-08-28T10:41:42Z</time>
      </trkpt>
      <trkpt lat="45.52695" lon="5.99278">
        <ele>312.1</ele>
        <time>2021-08-28T10:41:43Z</time>
      </trkpt>
      <trkpt lat="45.52687" lon="5.9928">
        <ele>312</ele>
        <time>2021-08-28T10:41:44Z</time>
      </trkpt>
      <trkpt lat="45.52678" lon="5.99282">
        <ele>311.9</ele>
        <time>2021-08-28T10:41:45Z</time>
      </trkpt>
      <trkpt lat="45.5267" lon="5.99285">
        <ele>311.8</ele>
        <time>2021-08-28T10:41:46Z</time>
      </trkpt>
      <trkpt lat="45.52662" lon="5.99288">
        <ele>311.6</ele>
        <time>2021-08-28T10:41:47Z</time>
      </trkpt>
      <trkpt lat="45.52653" lon="5.99291">
        <ele>311.5</ele>
        <time>2021-08-28T10:41:48Z</time>
      </trkpt>
      <trkpt lat="45.52645" lon="5.99294">
        <ele>311.3</ele>
        <time>2021-08-28T10:41:49Z</time>
      </trkpt>
      <trkpt lat="45.52637" lon="5.99296">
        <ele>311.2</ele>
        <time>2021-08-28T10:41:50Z</time>
      </trkpt>
      <trkpt lat="45.52628" lon="5.99299">
        <ele>311.1</ele>
        <time>2021-08-28T10:41:51Z</time>
      </trkpt>
      <trkpt lat="45.5262" lon="5.99302">
        <ele>311</ele>
        <time>2021-08-28T10:41:52Z</time>
      </trkpt>
      <trkpt lat="45.52612" lon="5.99305">
        <ele>310.9</ele>
        <time>2021-08-28T10:41:53Z</time>
      </trkpt>
      <trkpt lat="45.52604" lon="5.99308">
        <ele>310.8</ele>
        <time>2021-08-28T10:41:54Z</time>
      </trkpt>
      <trkpt lat="45.52596" lon="5.99312">
        <ele>310.6</ele>
        <time>2021-08-28T10:41:55Z</time>
      </trkpt>
      <trkpt lat="45.52588" lon="5.99315">
        <ele>310.5</ele>
        <time>2021-08-28T10:41:56Z</time>
      </trkpt>
      <trkpt lat="45.52581" lon="5.99319">
        <ele>310.4</ele>
        <time>2021-08-28T10:41:57Z</time>
      </trkpt>
      <trkpt lat="45.52574" lon="5.99323">
        <ele>310.2</ele>
        <time>2021-08-28T10:41:58Z</time>
      </trkpt>
      <trkpt lat="45.52566" lon="5.99327">
        <ele>310.1</ele>
        <time>2021-08-28T10:41:59Z</time>
      </trkpt>
      <trkpt lat="45.52559" lon="5.99331">
        <ele>310</ele>
        <time>2021-08-28T10:42:00Z</time>
      </trkpt>
      <trkpt lat="45.52552" lon="5.99336">
        <ele>309.9</ele>
        <time>2021-08-28T10:42:01Z</time>
      </trkpt>
      <trkpt lat="45.52544" lon="5.9934">
        <ele>309.7</ele>
        <time>2021-08-28T10:42:02Z</time>
      </trkpt>
      <trkpt lat="45.52537" lon="5.99345">
        <ele>309.5</ele>
        <time>2021-08-28T10:42:03Z</time>
      </trkpt>
      <trkpt lat="45.52529" lon="5.9935">
        <ele>309.4</ele>
        <time>2021-08-28T10:42:04Z</time>
      </trkpt>
      <trkpt lat="45.52522" lon="5.99355">
        <ele>309.2</ele>
        <time>2021-08-28T10:42:05Z</time>
      </trkpt>
      <trkpt lat="45.52513" lon="5.9936">
        <ele>309</ele>
        <time>2021-08-28T10:42:06Z</time>
      </trkpt>
      <trkpt lat="45.52505" lon="5.99365">
        <ele>308.8</ele>
        <time>2021-08-28T10:42:07Z</time>
      </trkpt>
      <trkpt lat="45.52497" lon="5.9937">
        <ele>308.6</ele>
        <time>2021-08-28T10:42:08Z</time>
      </trkpt>
      <trkpt lat="45.52489" lon="5.99374">
        <ele>308.4</ele>
        <time>2021-08-28T10:42:09Z</time>
      </trkpt>
      <trkpt lat="45.52482" lon="5.9938">
        <ele>308.3</ele>
        <time>2021-08-28T10:42:10Z</time>
      </trkpt>
      <trkpt lat="45.52474" lon="5.99385">
        <ele>308.2</ele>
        <time>2021-08-28T10:42:11Z</time>
      </trkpt>
      <trkpt lat="45.52466" lon="5.9939">
        <ele>308</ele>
        <time>2021-08-28T10:42:12Z</time>
      </trkpt>
      <trkpt lat="45.52458" lon="5.99395">
        <ele>307.9</ele>
        <time>2021-08-28T10:42:13Z</time>
      </trkpt>
      <trkpt lat="45.52451" lon="5.99401">
        <ele>307.7</ele>
        <time>2021-08-28T10:42:14Z</time>
      </trkpt>
      <trkpt lat="45.52443" lon="5.99406">
        <ele>307.6</ele>
        <time>2021-08-28T10:42:15Z</time>
      </trkpt>
      <trkpt lat="45.52436" lon="5.99411">
        <ele>307.5</ele>
        <time>2021-08-28T10:42:16Z</time>
      </trkpt>
      <trkpt lat="45.52428" lon="5.99416">
        <ele>307.4</ele>
        <time>2021-08-28T10:42:17Z</time>
      </trkpt>
      <trkpt lat="45.5242" lon="5.99421">
        <ele>307.3</ele>
        <time>2021-08-28T10:42:18Z</time>
      </trkpt>
      <trkpt lat="45.52412" lon="5.99425">
        <ele>307.2</ele>
        <time>2021-08-28T10:42:19Z</time>
      </trkpt>
      <trkpt lat="45.52405" lon="5.99429">
        <ele>307.1</ele>
        <time>2021-08-28T10:42:20Z</time>
      </trkpt>
      <trkpt lat="45.52397" lon="5.99433">
        <ele>307</ele>
        <time>2021-08-28T10:42:21Z</time>
      </trkpt>
      <trkpt lat="45.5239" lon="5.99438">
        <ele>306.9</ele>
        <time>2021-08-28T10:42:22Z</time>
      </trkpt>
      <trkpt lat="45.52383" lon="5.99442">
        <ele>306.8</ele>
        <time>2021-08-28T10:42:23Z</time>
      </trkpt>
      <trkpt lat="45.52376" lon="5.99446">
        <ele>306.7</ele>
        <time>2021-08-28T10:42:24Z</time>
      </trkpt>
      <trkpt lat="45.52369" lon="5.9945">
        <ele>306.6</ele>
        <time>2021-08-28T10:42:25Z</time>
      </trkpt>
      <trkpt lat="45.52362" lon="5.99455">
        <ele>306.5</ele>
        <time>2021-08-28T10:42:26Z</time>
      </trkpt>
      <trkpt lat="45.52354" lon="5.99459">
        <ele>306.4</ele>
        <time>2021-08-28T10:42:27Z</time>
      </trkpt>
      <trkpt lat="45.52347" lon="5.99462">
        <ele>306.3</ele>
        <time>2021-08-28T10:42:28Z</time>
      </trkpt>
      <trkpt lat="45.52341" lon="5.99466">
        <ele>306.2</ele>
        <time>2021-08-28T10:42:29Z</time>
      </trkpt>
      <trkpt lat="45.52334" lon="5.9947">
        <ele>306.1</ele>
        <time>2021-08-28T10:42:30Z</time>
      </trkpt>
      <trkpt lat="45.52328" lon="5.99474">
        <ele>306</ele>
        <time>2021-08-28T10:42:31Z</time>
      </trkpt>
      <trkpt lat="45.52321" lon="5.99478">
        <ele>305.9</ele>
        <time>2021-08-28T10:42:32Z</time>
      </trkpt>
      <trkpt lat="45.52315" lon="5.99483">
        <ele>305.8</ele>
        <time>2021-08-28T10:42:33Z</time>
      </trkpt>
      <trkpt lat="45.52308" lon="5.99486">
        <ele>305.7</ele>
        <time>2021-08-28T10:42:34Z</time>
      </trkpt>
      <trkpt lat="45.52301" lon="5.9949">
        <ele>305.6</ele>
        <time>2021-08-28T10:42:35Z</time>
      </trkpt>
      <trkpt lat="45.52294" lon="5.99494">
        <ele>305.5</ele>
        <time>2021-08-28T10:42:36Z</time>
      </trkpt>
      <trkpt lat="45.52288" lon="5.99498">
        <ele>305.5</ele>
        <time>2021-08-28T10:42:37Z</time>
      </trkpt>
      <trkpt lat="45.52282" lon="5.99503">
        <ele>305.4</ele>
        <time>2021-08-28T10:42:38Z</time>
      </trkpt>
      <trkpt lat="45.52275" lon="5.99507">
        <ele>305.2</ele>
        <time>2021-08-28T10:42:39Z</time>
      </trkpt>
      <trkpt lat="45.52269" lon="5.99511">
        <ele>305.1</ele>
        <time>2021-08-28T10:42:40Z</time>
      </trkpt>
      <trkpt lat="45.52263" lon="5.99516">
        <ele>305</ele>
        <time>2021-08-28T10:42:41Z</time>
      </trkpt>
      <trkpt lat="45.52257" lon="5.99522">
        <ele>305</ele>
        <time>2021-08-28T10:42:42Z</time>
      </trkpt>
      <trkpt lat="45.52252" lon="5.99527">
        <ele>304.9</ele>
        <time>2021-08-28T10:42:43Z</time>
      </trkpt>
      <trkpt lat="45.52245" lon="5.99532">
        <ele>304.8</ele>
        <time>2021-08-28T10:42:44Z</time>
      </trkpt>
      <trkpt lat="45.52239" lon="5.99538">
        <ele>304.7</ele>
        <time>2021-08-28T10:42:45Z</time>
      </trkpt>
      <trkpt lat="45.52233" lon="5.99543">
        <ele>304.6</ele>
        <time>2021-08-28T10:42:46Z</time>
      </trkpt>
      <trkpt lat="45.52227" lon="5.99549">
        <ele>304.5</ele>
        <time>2021-08-28T10:42:47Z</time>
      </trkpt>
      <trkpt lat="45.52221" lon="5.99554">
        <ele>304.5</ele>
        <time>2021-08-28T10:42:48Z</time>
      </trkpt>
      <trkpt lat="45.52215" lon="5.99559">
        <ele>304.4</ele>
        <time>2021-08-28T10:42:49Z</time>
      </trkpt>
      <trkpt lat="45.5221" lon="5.99564">
        <ele>304.3</ele>
        <time>2021-08-28T10:42:50Z</time>
      </trkpt>
      <trkpt lat="45.52205" lon="5.99571">
        <ele>304.2</ele>
        <time>2021-08-28T10:42:51Z</time>
      </trkpt>
      <trkpt lat="45.522" lon="5.99577">
        <ele>304.1</ele>
        <time>2021-08-28T10:42:52Z</time>
      </trkpt>
      <trkpt lat="45.52194" lon="5.99583">
        <ele>304.1</ele>
        <time>2021-08-28T10:42:53Z</time>
      </trkpt>
      <trkpt lat="45.52189" lon="5.99589">
        <ele>304</ele>
        <time>2021-08-28T10:42:54Z</time>
      </trkpt>
      <trkpt lat="45.52183" lon="5.99596">
        <ele>303.8</ele>
        <time>2021-08-28T10:42:55Z</time>
      </trkpt>
      <trkpt lat="45.52178" lon="5.99602">
        <ele>303.7</ele>
        <time>2021-08-28T10:42:56Z</time>
      </trkpt>
      <trkpt lat="45.52173" lon="5.99609">
        <ele>303.7</ele>
        <time>2021-08-28T10:42:57Z</time>
      </trkpt>
      <trkpt lat="45.52168" lon="5.99616">
        <ele>303.6</ele>
        <time>2021-08-28T10:42:58Z</time>
      </trkpt>
      <trkpt lat="45.52163" lon="5.99624">
        <ele>303.5</ele>
        <time>2021-08-28T10:42:59Z</time>
      </trkpt>
      <trkpt lat="45.52158" lon="5.99631">
        <ele>303.3</ele>
        <time>2021-08-28T10:43:00Z</time>
      </trkpt>
      <trkpt lat="45.52152" lon="5.99638">
        <ele>303.2</ele>
        <time>2021-08-28T10:43:01Z</time>
      </trkpt>
      <trkpt lat="45.52147" lon="5.99645">
        <ele>303.1</ele>
        <time>2021-08-28T10:43:02Z</time>
      </trkpt>
      <trkpt lat="45.52143" lon="5.99652">
        <ele>303</ele>
        <time>2021-08-28T10:43:03Z</time>
      </trkpt>
      <trkpt lat="45.52137" lon="5.9966">
        <ele>302.9</ele>
        <time>2021-08-28T10:43:04Z</time>
      </trkpt>
      <trkpt lat="45.52132" lon="5.99667">
        <ele>302.8</ele>
        <time>2021-08-28T10:43:05Z</time>
      </trkpt>
      <trkpt lat="45.52127" lon="5.99674">
        <ele>302.7</ele>
        <time>2021-08-28T10:43:06Z</time>
      </trkpt>
      <trkpt lat="45.52122" lon="5.99682">
        <ele>302.5</ele>
        <time>2021-08-28T10:43:07Z</time>
      </trkpt>
      <trkpt lat="45.52116" lon="5.9969">
        <ele>302.4</ele>
        <time>2021-08-28T10:43:08Z</time>
      </trkpt>
      <trkpt lat="45.52111" lon="5.99698">
        <ele>302.2</ele>
        <time>2021-08-28T10:43:09Z</time>
      </trkpt>
      <trkpt lat="45.52105" lon="5.99706">
        <ele>302.1</ele>
        <time>2021-08-28T10:43:10Z</time>
      </trkpt>
      <trkpt lat="45.521" lon="5.99713">
        <ele>302</ele>
        <time>2021-08-28T10:43:11Z</time>
      </trkpt>
      <trkpt lat="45.52095" lon="5.99721">
        <ele>301.8</ele>
        <time>2021-08-28T10:43:12Z</time>
      </trkpt>
      <trkpt lat="45.52089" lon="5.99729">
        <ele>301.7</ele>
        <time>2021-08-28T10:43:13Z</time>
      </trkpt>
      <trkpt lat="45.52084" lon="5.99737">
        <ele>301.6</ele>
        <time>2021-08-28T10:43:14Z</time>
      </trkpt>
      <trkpt lat="45.52078" lon="5.99746">
        <ele>301.5</ele>
        <time>2021-08-28T10:43:15Z</time>
      </trkpt>
      <trkpt lat="45.52072" lon="5.99755">
        <ele>301.3</ele>
        <time>2021-08-28T10:43:16Z</time>
      </trkpt>
      <trkpt lat="45.52066" lon="5.99763">
        <ele>301.2</ele>
        <time>2021-08-28T10:43:17Z</time>
      </trkpt>
      <trkpt lat="45.5206" lon="5.99772">
        <ele>301</ele>
        <time>2021-08-28T10:43:18Z</time>
      </trkpt>
      <trkpt lat="45.52054" lon="5.99781">
        <ele>300.9</ele>
        <time>2021-08-28T10:43:19Z</time>
      </trkpt>
      <trkpt lat="45.52047" lon="5.99789">
        <ele>300.8</ele>
        <time>2021-08-28T10:43:20Z</time>
      </trkpt>
      <trkpt lat="45.52041" lon="5.99798">
        <ele>300.6</ele>
        <time>2021-08-28T10:43:21Z</time>
      </trkpt>
      <trkpt lat="45.52034" lon="5.99806">
        <ele>300.5</ele>
        <time>2021-08-28T10:43:22Z</time>
      </trkpt>
      <trkpt lat="45.52028" lon="5.99814">
        <ele>300.4</ele>
        <time>2021-08-28T10:43:23Z</time>
      </trkpt>
      <trkpt lat="45.52022" lon="5.99822">
        <ele>300.3</ele>
        <time>2021-08-28T10:43:24Z</time>
      </trkpt>
      <trkpt lat="45.52016" lon="5.9983">
        <ele>300.2</ele>
        <time>2021-08-28T10:43:25Z</time>
      </trkpt>
      <trkpt lat="45.5201" lon="5.99838">
        <ele>300.2</ele>
        <time>2021-08-28T10:43:26Z</time>
      </trkpt>
      <trkpt lat="45.52005" lon="5.99846">
        <ele>300.1</ele>
        <time>2021-08-28T10:43:27Z</time>
      </trkpt>
      <trkpt lat="45.51999" lon="5.99854">
        <ele>300.1</ele>
        <time>2021-08-28T10:43:28Z</time>
      </trkpt>
      <trkpt lat="45.51994" lon="5.99861">
        <ele>300.1</ele>
        <time>2021-08-28T10:43:29Z</time>
      </trkpt>
      <trkpt lat="45.51989" lon="5.99868">
        <ele>300.1</ele>
        <time>2021-08-28T10:43:30Z</time>
      </trkpt>
      <trkpt lat="45.51983" lon="5.99875">
        <ele>300.1</ele>
        <time>2021-08-28T10:43:31Z</time>
      </trkpt>
      <trkpt lat="45.51978" lon="5.99883">
        <ele>300.1</ele>
        <time>2021-08-28T10:43:32Z</time>
      </trkpt>
      <trkpt lat="45.51973" lon="5.99891">
        <ele>300</ele>
        <time>2021-08-28T10:43:33Z</time>
      </trkpt>
      <trkpt lat="45.51967" lon="5.99899">
        <ele>299.9</ele>
        <time>2021-08-28T10:43:34Z</time>
      </trkpt>
      <trkpt lat="45.51962" lon="5.99906">
        <ele>299.9</ele>
        <time>2021-08-28T10:43:35Z</time>
      </trkpt>
      <trkpt lat="45.51958" lon="5.99913">
        <ele>299.9</ele>
        <time>2021-08-28T10:43:36Z</time>
      </trkpt>
      <trkpt lat="45.51953" lon="5.99919">
        <ele>299.9</ele>
        <time>2021-08-28T10:43:37Z</time>
      </trkpt>
      <trkpt lat="45.51948" lon="5.99926">
        <ele>299.9</ele>
        <time>2021-08-28T10:43:38Z</time>
      </trkpt>
      <trkpt lat="45.51944" lon="5.99931">
        <ele>299.9</ele>
        <time>2021-08-28T10:43:39Z</time>
      </trkpt>
      <trkpt lat="45.51939" lon="5.99937">
        <ele>299.9</ele>
        <time>2021-08-28T10:43:40Z</time>
      </trkpt>
      <trkpt lat="45.51935" lon="5.99944">
        <ele>299.9</ele>
        <time>2021-08-28T10:43:41Z</time>
      </trkpt>
      <trkpt lat="45.5193" lon="5.9995">
        <ele>299.9</ele>
        <time>2021-08-28T10:43:42Z</time>
      </trkpt>
      <trkpt lat="45.51926" lon="5.99957">
        <ele>299.9</ele>
        <time>2021-08-28T10:43:43Z</time>
      </trkpt>
      <trkpt lat="45.51923" lon="5.99963">
        <ele>299.9</ele>
        <time>2021-08-28T10:43:44Z</time>
      </trkpt>
      <trkpt lat="45.51918" lon="5.9997">
        <ele>299.8</ele>
        <time>2021-08-28T10:43:45Z</time>
      </trkpt>
      <trkpt lat="45.51913" lon="5.99978">
        <ele>299.8</ele>
        <time>2021-08-28T10:43:46Z</time>
      </trkpt>
      <trkpt lat="45.51908" lon="5.99985">
        <ele>299.8</ele>
        <time>2021-08-28T10:43:47Z</time>
      </trkpt>
      <trkpt lat="45.51903" lon="5.99991">
        <ele>299.7</ele>
        <time>2021-08-28T10:43:48Z</time>
      </trkpt>
      <trkpt lat="45.51898" lon="5.99998">
        <ele>299.7</ele>
        <time>2021-08-28T10:43:49Z</time>
      </trkpt>
      <trkpt lat="45.51893" lon="6.00006">
        <ele>299.6</ele>
        <time>2021-08-28T10:43:50Z</time>
      </trkpt>
      <trkpt lat="45.51887" lon="6.00013">
        <ele>299.6</ele>
        <time>2021-08-28T10:43:51Z</time>
      </trkpt>
      <trkpt lat="45.51882" lon="6.00021">
        <ele>299.6</ele>
        <time>2021-08-28T10:43:52Z</time>
      </trkpt>
      <trkpt lat="45.51877" lon="6.00028">
        <ele>299.6</ele>
        <time>2021-08-28T10:43:53Z</time>
      </trkpt>
      <trkpt lat="45.51872" lon="6.00034">
        <ele>299.6</ele>
        <time>2021-08-28T10:43:54Z</time>
      </trkpt>
      <trkpt lat="45.51868" lon="6.0004">
        <ele>299.6</ele>
        <time>2021-08-28T10:43:55Z</time>
      </trkpt>
      <trkpt lat="45.51863" lon="6.00046">
        <ele>299.7</ele>
        <time>2021-08-28T10:43:56Z</time>
      </trkpt>
      <trkpt lat="45.51858" lon="6.00053">
        <ele>299.7</ele>
        <time>2021-08-28T10:43:57Z</time>
      </trkpt>
      <trkpt lat="45.51853" lon="6.0006">
        <ele>299.8</ele>
        <time>2021-08-28T10:43:58Z</time>
      </trkpt>
      <trkpt lat="45.51849" lon="6.00068">
        <ele>299.7</ele>
        <time>2021-08-28T10:43:59Z</time>
      </trkpt>
      <trkpt lat="45.51844" lon="6.00075">
        <ele>299.7</ele>
        <time>2021-08-28T10:44:00Z</time>
      </trkpt>
      <trkpt lat="45.5184" lon="6.00083">
        <ele>299.7</ele>
        <time>2021-08-28T10:44:01Z</time>
      </trkpt>
      <trkpt lat="45.51836" lon="6.0009">
        <ele>299.7</ele>
        <time>2021-08-28T10:44:02Z</time>
      </trkpt>
      <trkpt lat="45.51831" lon="6.00096">
        <ele>299.7</ele>
        <time>2021-08-28T10:44:03Z</time>
      </trkpt>
      <trkpt lat="45.51827" lon="6.00102">
        <ele>299.6</ele>
        <time>2021-08-28T10:44:04Z</time>
      </trkpt>
      <trkpt lat="45.51823" lon="6.00108">
        <ele>299.6</ele>
        <time>2021-08-28T10:44:05Z</time>
      </trkpt>
      <trkpt lat="45.51818" lon="6.00113">
        <ele>299.6</ele>
        <time>2021-08-28T10:44:06Z</time>
      </trkpt>
      <trkpt lat="45.51814" lon="6.0012">
        <ele>299.5</ele>
        <time>2021-08-28T10:44:07Z</time>
      </trkpt>
      <trkpt lat="45.51809" lon="6.00126">
        <ele>299.5</ele>
        <time>2021-08-28T10:44:08Z</time>
      </trkpt>
      <trkpt lat="45.51805" lon="6.00132">
        <ele>299.5</ele>
        <time>2021-08-28T10:44:09Z</time>
      </trkpt>
      <trkpt lat="45.51801" lon="6.00138">
        <ele>299.4</ele>
        <time>2021-08-28T10:44:10Z</time>
      </trkpt>
      <trkpt lat="45.51796" lon="6.00145">
        <ele>299.4</ele>
        <time>2021-08-28T10:44:11Z</time>
      </trkpt>
      <trkpt lat="45.51791" lon="6.00151">
        <ele>299.4</ele>
        <time>2021-08-28T10:44:12Z</time>
      </trkpt>
      <trkpt lat="45.51786" lon="6.00158">
        <ele>299.4</ele>
        <time>2021-08-28T10:44:13Z</time>
      </trkpt>
      <trkpt lat="45.51781" lon="6.00165">
        <ele>299.3</ele>
        <time>2021-08-28T10:44:14Z</time>
      </trkpt>
      <trkpt lat="45.51776" lon="6.00172">
        <ele>299.2</ele>
        <time>2021-08-28T10:44:15Z</time>
      </trkpt>
      <trkpt lat="45.51772" lon="6.00179">
        <ele>299.1</ele>
        <time>2021-08-28T10:44:16Z</time>
      </trkpt>
      <trkpt lat="45.51767" lon="6.00185">
        <ele>299.1</ele>
        <time>2021-08-28T10:44:17Z</time>
      </trkpt>
      <trkpt lat="45.51762" lon="6.00192">
        <ele>299</ele>
        <time>2021-08-28T10:44:18Z</time>
      </trkpt>
      <trkpt lat="45.51757" lon="6.00198">
        <ele>299</ele>
        <time>2021-08-28T10:44:19Z</time>
      </trkpt>
      <trkpt lat="45.51753" lon="6.00204">
        <ele>299</ele>
        <time>2021-08-28T10:44:20Z</time>
      </trkpt>
      <trkpt lat="45.51748" lon="6.00211">
        <ele>298.9</ele>
        <time>2021-08-28T10:44:21Z</time>
      </trkpt>
      <trkpt lat="45.51743" lon="6.00218">
        <ele>298.9</ele>
        <time>2021-08-28T10:44:22Z</time>
      </trkpt>
      <trkpt lat="45.51739" lon="6.00225">
        <ele>298.9</ele>
        <time>2021-08-28T10:44:23Z</time>
      </trkpt>
      <trkpt lat="45.51734" lon="6.00232">
        <ele>298.9</ele>
        <time>2021-08-28T10:44:24Z</time>
      </trkpt>
      <trkpt lat="45.5173" lon="6.00239">
        <ele>298.9</ele>
        <time>2021-08-28T10:44:25Z</time>
      </trkpt>
      <trkpt lat="45.51726" lon="6.00246">
        <ele>298.9</ele>
        <time>2021-08-28T10:44:26Z</time>
      </trkpt>
      <trkpt lat="45.5172" lon="6.00253">
        <ele>298.9</ele>
        <time>2021-08-28T10:44:27Z</time>
      </trkpt>
      <trkpt lat="45.51715" lon="6.0026">
        <ele>298.8</ele>
        <time>2021-08-28T10:44:28Z</time>
      </trkpt>
      <trkpt lat="45.5171" lon="6.00267">
        <ele>298.8</ele>
        <time>2021-08-28T10:44:29Z</time>
      </trkpt>
      <trkpt lat="45.51705" lon="6.00274">
        <ele>298.8</ele>
        <time>2021-08-28T10:44:30Z</time>
      </trkpt>
      <trkpt lat="45.517" lon="6.00281">
        <ele>298.8</ele>
        <time>2021-08-28T10:44:31Z</time>
      </trkpt>
      <trkpt lat="45.51695" lon="6.00288">
        <ele>298.9</ele>
        <time>2021-08-28T10:44:32Z</time>
      </trkpt>
      <trkpt lat="45.5169" lon="6.00296">
        <ele>298.9</ele>
        <time>2021-08-28T10:44:33Z</time>
      </trkpt>
      <trkpt lat="45.51685" lon="6.00303">
        <ele>299</ele>
        <time>2021-08-28T10:44:34Z</time>
      </trkpt>
      <trkpt lat="45.51679" lon="6.0031">
        <ele>299</ele>
        <time>2021-08-28T10:44:35Z</time>
      </trkpt>
      <trkpt lat="45.51674" lon="6.00318">
        <ele>299.1</ele>
        <time>2021-08-28T10:44:36Z</time>
      </trkpt>
      <trkpt lat="45.51669" lon="6.00325">
        <ele>299.1</ele>
        <time>2021-08-28T10:44:37Z</time>
      </trkpt>
      <trkpt lat="45.51665" lon="6.00331">
        <ele>299.2</ele>
        <time>2021-08-28T10:44:38Z</time>
      </trkpt>
      <trkpt lat="45.5166" lon="6.00338">
        <ele>299.2</ele>
        <time>2021-08-28T10:44:39Z</time>
      </trkpt>
      <trkpt lat="45.51655" lon="6.00345">
        <ele>299.2</ele>
        <time>2021-08-28T10:44:40Z</time>
      </trkpt>
      <trkpt lat="45.5165" lon="6.00352">
        <ele>299.2</ele>
        <time>2021-08-28T10:44:41Z</time>
      </trkpt>
      <trkpt lat="45.51646" lon="6.00358">
        <ele>299.1</ele>
        <time>2021-08-28T10:44:42Z</time>
      </trkpt>
      <trkpt lat="45.51642" lon="6.00364">
        <ele>299.1</ele>
        <time>2021-08-28T10:44:43Z</time>
      </trkpt>
      <trkpt lat="45.51638" lon="6.00369">
        <ele>299.1</ele>
        <time>2021-08-28T10:44:44Z</time>
      </trkpt>
      <trkpt lat="45.51633" lon="6.00375">
        <ele>299.1</ele>
        <time>2021-08-28T10:44:45Z</time>
      </trkpt>
      <trkpt lat="45.51628" lon="6.00381">
        <ele>299.1</ele>
        <time>2021-08-28T10:44:46Z</time>
      </trkpt>
      <trkpt lat="45.51624" lon="6.00387">
        <ele>299.1</ele>
        <time>2021-08-28T10:44:47Z</time>
      </trkpt>
      <trkpt lat="45.51619" lon="6.00393">
        <ele>299.1</ele>
        <time>2021-08-28T10:44:48Z</time>
      </trkpt>
      <trkpt lat="45.51615" lon="6.004">
        <ele>299.2</ele>
        <time>2021-08-28T10:44:49Z</time>
      </trkpt>
      <trkpt lat="45.5161" lon="6.00406">
        <ele>299.2</ele>
        <time>2021-08-28T10:44:50Z</time>
      </trkpt>
      <trkpt lat="45.51607" lon="6.00413">
        <ele>299.3</ele>
        <time>2021-08-28T10:44:51Z</time>
      </trkpt>
      <trkpt lat="45.51603" lon="6.0042">
        <ele>299.4</ele>
        <time>2021-08-28T10:44:52Z</time>
      </trkpt>
      <trkpt lat="45.51599" lon="6.00428">
        <ele>299.5</ele>
        <time>2021-08-28T10:44:53Z</time>
      </trkpt>
      <trkpt lat="45.51596" lon="6.00435">
        <ele>299.6</ele>
        <time>2021-08-28T10:44:54Z</time>
      </trkpt>
      <trkpt lat="45.51592" lon="6.00441">
        <ele>299.8</ele>
        <time>2021-08-28T10:44:55Z</time>
      </trkpt>
      <trkpt lat="45.5159" lon="6.00447">
        <ele>299.9</ele>
        <time>2021-08-28T10:44:56Z</time>
      </trkpt>
      <trkpt lat="45.51587" lon="6.00454">
        <ele>300.1</ele>
        <time>2021-08-28T10:44:57Z</time>
      </trkpt>
      <trkpt lat="45.51584" lon="6.0046">
        <ele>300.3</ele>
        <time>2021-08-28T10:44:58Z</time>
      </trkpt>
      <trkpt lat="45.51582" lon="6.00467">
        <ele>300.4</ele>
        <time>2021-08-28T10:44:59Z</time>
      </trkpt>
      <trkpt lat="45.5158" lon="6.00473">
        <ele>300.6</ele>
        <time>2021-08-28T10:45:00Z</time>
      </trkpt>
      <trkpt lat="45.51578" lon="6.00479">
        <ele>300.7</ele>
        <time>2021-08-28T10:45:01Z</time>
      </trkpt>
      <trkpt lat="45.51576" lon="6.00485">
        <ele>300.8</ele>
        <time>2021-08-28T10:45:02Z</time>
      </trkpt>
      <trkpt lat="45.51574" lon="6.0049">
        <ele>301</ele>
        <time>2021-08-28T10:45:03Z</time>
      </trkpt>
      <trkpt lat="45.51573" lon="6.00497">
        <ele>301.1</ele>
        <time>2021-08-28T10:45:04Z</time>
      </trkpt>
      <trkpt lat="45.51572" lon="6.00504">
        <ele>301.3</ele>
        <time>2021-08-28T10:45:05Z</time>
      </trkpt>
      <trkpt lat="45.5157" lon="6.0051">
        <ele>301.4</ele>
        <time>2021-08-28T10:45:06Z</time>
      </trkpt>
      <trkpt lat="45.51569" lon="6.00516">
        <ele>301.6</ele>
        <time>2021-08-28T10:45:07Z</time>
      </trkpt>
      <trkpt lat="45.51568" lon="6.00521">
        <ele>301.7</ele>
        <time>2021-08-28T10:45:08Z</time>
      </trkpt>
      <trkpt lat="45.51565" lon="6.00532">
        <ele>302</ele>
        <time>2021-08-28T10:45:10Z</time>
      </trkpt>
      <trkpt lat="45.51564" lon="6.00536">
        <ele>302.1</ele>
        <time>2021-08-28T10:45:11Z</time>
      </trkpt>
      <trkpt lat="45.51562" lon="6.0054">
        <ele>302.3</ele>
        <time>2021-08-28T10:45:12Z</time>
      </trkpt>
      <trkpt lat="45.5156" lon="6.00546">
        <ele>302.5</ele>
        <time>2021-08-28T10:45:13Z</time>
      </trkpt>
      <trkpt lat="45.51558" lon="6.00551">
        <ele>302.6</ele>
        <time>2021-08-28T10:45:14Z</time>
      </trkpt>
      <trkpt lat="45.51557" lon="6.00555">
        <ele>302.8</ele>
        <time>2021-08-28T10:45:15Z</time>
      </trkpt>
      <trkpt lat="45.51555" lon="6.0056">
        <ele>302.9</ele>
        <time>2021-08-28T10:45:16Z</time>
      </trkpt>
      <trkpt lat="45.51553" lon="6.00564">
        <ele>303.1</ele>
        <time>2021-08-28T10:45:17Z</time>
      </trkpt>
      <trkpt lat="45.51551" lon="6.00568">
        <ele>303.2</ele>
        <time>2021-08-28T10:45:18Z</time>
      </trkpt>
      <trkpt lat="45.51548" lon="6.00573">
        <ele>303.4</ele>
        <time>2021-08-28T10:45:19Z</time>
      </trkpt>
      <trkpt lat="45.51546" lon="6.00578">
        <ele>303.5</ele>
        <time>2021-08-28T10:45:20Z</time>
      </trkpt>
      <trkpt lat="45.51544" lon="6.00582">
        <ele>303.6</ele>
        <time>2021-08-28T10:45:21Z</time>
      </trkpt>
      <trkpt lat="45.51541" lon="6.00586">
        <ele>303.7</ele>
        <time>2021-08-28T10:45:22Z</time>
      </trkpt>
      <trkpt lat="45.51539" lon="6.00589">
        <ele>303.7</ele>
        <time>2021-08-28T10:45:23Z</time>
      </trkpt>
      <trkpt lat="45.51536" lon="6.00594">
        <ele>303.8</ele>
        <time>2021-08-28T10:45:24Z</time>
      </trkpt>
      <trkpt lat="45.51534" lon="6.00597">
        <ele>303.9</ele>
        <time>2021-08-28T10:45:25Z</time>
      </trkpt>
      <trkpt lat="45.51531" lon="6.00601">
        <ele>304</ele>
        <time>2021-08-28T10:45:26Z</time>
      </trkpt>
      <trkpt lat="45.51527" lon="6.00605">
        <ele>304.1</ele>
        <time>2021-08-28T10:45:27Z</time>
      </trkpt>
      <trkpt lat="45.51525" lon="6.00608">
        <ele>304.1</ele>
        <time>2021-08-28T10:45:28Z</time>
      </trkpt>
      <trkpt lat="45.51522" lon="6.00612">
        <ele>304.2</ele>
        <time>2021-08-28T10:45:29Z</time>
      </trkpt>
      <trkpt lat="45.51518" lon="6.00616">
        <ele>304.2</ele>
        <time>2021-08-28T10:45:30Z</time>
      </trkpt>
      <trkpt lat="45.51514" lon="6.00621">
        <ele>304.3</ele>
        <time>2021-08-28T10:45:31Z</time>
      </trkpt>
      <trkpt lat="45.51511" lon="6.00625">
        <ele>304.4</ele>
        <time>2021-08-28T10:45:32Z</time>
      </trkpt>
      <trkpt lat="45.51508" lon="6.00627">
        <ele>304.5</ele>
        <time>2021-08-28T10:45:33Z</time>
      </trkpt>
      <trkpt lat="45.51505" lon="6.00631">
        <ele>304.5</ele>
        <time>2021-08-28T10:45:34Z</time>
      </trkpt>
      <trkpt lat="45.51501" lon="6.00635">
        <ele>304.6</ele>
        <time>2021-08-28T10:45:35Z</time>
      </trkpt>
      <trkpt lat="45.51497" lon="6.00638">
        <ele>304.6</ele>
        <time>2021-08-28T10:45:36Z</time>
      </trkpt>
      <trkpt lat="45.51494" lon="6.00642">
        <ele>304.7</ele>
        <time>2021-08-28T10:45:37Z</time>
      </trkpt>
      <trkpt lat="45.5149" lon="6.00646">
        <ele>304.7</ele>
        <time>2021-08-28T10:45:38Z</time>
      </trkpt>
      <trkpt lat="45.51486" lon="6.00651">
        <ele>304.7</ele>
        <time>2021-08-28T10:45:39Z</time>
      </trkpt>
      <trkpt lat="45.51482" lon="6.00655">
        <ele>304.7</ele>
        <time>2021-08-28T10:45:40Z</time>
      </trkpt>
      <trkpt lat="45.51477" lon="6.00658">
        <ele>304.7</ele>
        <time>2021-08-28T10:45:41Z</time>
      </trkpt>
      <trkpt lat="45.51473" lon="6.00662">
        <ele>304.7</ele>
        <time>2021-08-28T10:45:42Z</time>
      </trkpt>
      <trkpt lat="45.51469" lon="6.00666">
        <ele>304.8</ele>
        <time>2021-08-28T10:45:43Z</time>
      </trkpt>
      <trkpt lat="45.51465" lon="6.00671">
        <ele>304.8</ele>
        <time>2021-08-28T10:45:44Z</time>
      </trkpt>
      <trkpt lat="45.5146" lon="6.00676">
        <ele>304.7</ele>
        <time>2021-08-28T10:45:45Z</time>
      </trkpt>
      <trkpt lat="45.51456" lon="6.00681">
        <ele>304.6</ele>
        <time>2021-08-28T10:45:46Z</time>
      </trkpt>
      <trkpt lat="45.51451" lon="6.00686">
        <ele>304.4</ele>
        <time>2021-08-28T10:45:47Z</time>
      </trkpt>
      <trkpt lat="45.51447" lon="6.00692">
        <ele>304.3</ele>
        <time>2021-08-28T10:45:48Z</time>
      </trkpt>
      <trkpt lat="45.51442" lon="6.00698">
        <ele>304.1</ele>
        <time>2021-08-28T10:45:49Z</time>
      </trkpt>
      <trkpt lat="45.51438" lon="6.00705">
        <ele>303.9</ele>
        <time>2021-08-28T10:45:50Z</time>
      </trkpt>
      <trkpt lat="45.51433" lon="6.00712">
        <ele>303.7</ele>
        <time>2021-08-28T10:45:51Z</time>
      </trkpt>
      <trkpt lat="45.51429" lon="6.0072">
        <ele>303.5</ele>
        <time>2021-08-28T10:45:52Z</time>
      </trkpt>
      <trkpt lat="45.51424" lon="6.00729">
        <ele>303.3</ele>
        <time>2021-08-28T10:45:53Z</time>
      </trkpt>
      <trkpt lat="45.5142" lon="6.00736">
        <ele>303</ele>
        <time>2021-08-28T10:45:54Z</time>
      </trkpt>
      <trkpt lat="45.51415" lon="6.00745">
        <ele>302.8</ele>
        <time>2021-08-28T10:45:55Z</time>
      </trkpt>
      <trkpt lat="45.5141" lon="6.00753">
        <ele>302.5</ele>
        <time>2021-08-28T10:45:56Z</time>
      </trkpt>
      <trkpt lat="45.51405" lon="6.00762">
        <ele>302.2</ele>
        <time>2021-08-28T10:45:57Z</time>
      </trkpt>
      <trkpt lat="45.514" lon="6.00771">
        <ele>301.8</ele>
        <time>2021-08-28T10:45:58Z</time>
      </trkpt>
      <trkpt lat="45.51395" lon="6.00779">
        <ele>301.4</ele>
        <time>2021-08-28T10:45:59Z</time>
      </trkpt>
      <trkpt lat="45.51389" lon="6.00787">
        <ele>301.1</ele>
        <time>2021-08-28T10:46:00Z</time>
      </trkpt>
      <trkpt lat="45.51383" lon="6.00795">
        <ele>300.7</ele>
        <time>2021-08-28T10:46:01Z</time>
      </trkpt>
      <trkpt lat="45.51376" lon="6.00803">
        <ele>300.2</ele>
        <time>2021-08-28T10:46:02Z</time>
      </trkpt>
      <trkpt lat="45.51369" lon="6.0081">
        <ele>300</ele>
        <time>2021-08-28T10:46:03Z</time>
      </trkpt>
      <trkpt lat="45.51361" lon="6.00817">
        <ele>299.8</ele>
        <time>2021-08-28T10:46:04Z</time>
      </trkpt>
      <trkpt lat="45.51354" lon="6.00822">
        <ele>299.6</ele>
        <time>2021-08-28T10:46:05Z</time>
      </trkpt>
      <trkpt lat="45.51346" lon="6.00827">
        <ele>299.4</ele>
        <time>2021-08-28T10:46:06Z</time>
      </trkpt>
      <trkpt lat="45.51338" lon="6.00832">
        <ele>299.3</ele>
        <time>2021-08-28T10:46:07Z</time>
      </trkpt>
      <trkpt lat="45.51331" lon="6.00833">
        <ele>299.1</ele>
        <time>2021-08-28T10:46:08Z</time>
      </trkpt>
      <trkpt lat="45.51323" lon="6.00829">
        <ele>299</ele>
        <time>2021-08-28T10:46:09Z</time>
      </trkpt>
      <trkpt lat="45.51316" lon="6.00824">
        <ele>298.8</ele>
        <time>2021-08-28T10:46:10Z</time>
      </trkpt>
      <trkpt lat="45.51309" lon="6.00822">
        <ele>298.7</ele>
        <time>2021-08-28T10:46:11Z</time>
      </trkpt>
      <trkpt lat="45.51301" lon="6.00822">
        <ele>298.5</ele>
        <time>2021-08-28T10:46:12Z</time>
      </trkpt>
      <trkpt lat="45.51294" lon="6.00824">
        <ele>298.4</ele>
        <time>2021-08-28T10:46:13Z</time>
      </trkpt>
      <trkpt lat="45.51287" lon="6.00829">
        <ele>298.2</ele>
        <time>2021-08-28T10:46:14Z</time>
      </trkpt>
      <trkpt lat="45.51281" lon="6.00836">
        <ele>298.1</ele>
        <time>2021-08-28T10:46:15Z</time>
      </trkpt>
      <trkpt lat="45.51276" lon="6.00845">
        <ele>297.9</ele>
        <time>2021-08-28T10:46:16Z</time>
      </trkpt>
      <trkpt lat="45.51273" lon="6.00855">
        <ele>297.8</ele>
        <time>2021-08-28T10:46:17Z</time>
      </trkpt>
      <trkpt lat="45.51271" lon="6.00866">
        <ele>297.7</ele>
        <time>2021-08-28T10:46:18Z</time>
      </trkpt>
      <trkpt lat="45.5127" lon="6.00878">
        <ele>297.7</ele>
        <time>2021-08-28T10:46:19Z</time>
      </trkpt>
      <trkpt lat="45.51271" lon="6.00889">
        <ele>297.6</ele>
        <time>2021-08-28T10:46:20Z</time>
      </trkpt>
      <trkpt lat="45.51273" lon="6.00899">
        <ele>297.6</ele>
        <time>2021-08-28T10:46:21Z</time>
      </trkpt>
      <trkpt lat="45.51275" lon="6.00909">
        <ele>297.6</ele>
        <time>2021-08-28T10:46:22Z</time>
      </trkpt>
      <trkpt lat="45.51279" lon="6.00918">
        <ele>297.7</ele>
        <time>2021-08-28T10:46:23Z</time>
      </trkpt>
      <trkpt lat="45.51282" lon="6.00927">
        <ele>297.6</ele>
        <time>2021-08-28T10:46:24Z</time>
      </trkpt>
      <trkpt lat="45.51284" lon="6.00937">
        <ele>297.6</ele>
        <time>2021-08-28T10:46:25Z</time>
      </trkpt>
      <trkpt lat="45.51284" lon="6.00946">
        <ele>297.6</ele>
        <time>2021-08-28T10:46:26Z</time>
      </trkpt>
      <trkpt lat="45.51283" lon="6.00957">
        <ele>297.5</ele>
        <time>2021-08-28T10:46:27Z</time>
      </trkpt>
      <trkpt lat="45.51279" lon="6.00966">
        <ele>297.3</ele>
        <time>2021-08-28T10:46:28Z</time>
      </trkpt>
      <trkpt lat="45.51275" lon="6.00975">
        <ele>297.2</ele>
        <time>2021-08-28T10:46:29Z</time>
      </trkpt>
      <trkpt lat="45.51271" lon="6.00985">
        <ele>297</ele>
        <time>2021-08-28T10:46:30Z</time>
      </trkpt>
      <trkpt lat="45.51267" lon="6.00994">
        <ele>296.9</ele>
        <time>2021-08-28T10:46:31Z</time>
      </trkpt>
      <trkpt lat="45.51263" lon="6.01003">
        <ele>296.8</ele>
        <time>2021-08-28T10:46:32Z</time>
      </trkpt>
      <trkpt lat="45.51259" lon="6.01013">
        <ele>296.8</ele>
        <time>2021-08-28T10:46:33Z</time>
      </trkpt>
      <trkpt lat="45.51255" lon="6.01023">
        <ele>296.7</ele>
        <time>2021-08-28T10:46:34Z</time>
      </trkpt>
      <trkpt lat="45.51251" lon="6.01033">
        <ele>296.6</ele>
        <time>2021-08-28T10:46:35Z</time>
      </trkpt>
      <trkpt lat="45.51246" lon="6.01042">
        <ele>296.6</ele>
        <time>2021-08-28T10:46:36Z</time>
      </trkpt>
      <trkpt lat="45.51241" lon="6.01051">
        <ele>296.5</ele>
        <time>2021-08-28T10:46:37Z</time>
      </trkpt>
      <trkpt lat="45.51237" lon="6.01061">
        <ele>296.5</ele>
        <time>2021-08-28T10:46:38Z</time>
      </trkpt>
      <trkpt lat="45.51233" lon="6.01071">
        <ele>296.4</ele>
        <time>2021-08-28T10:46:39Z</time>
      </trkpt>
      <trkpt lat="45.51229" lon="6.0108">
        <ele>296.4</ele>
        <time>2021-08-28T10:46:40Z</time>
      </trkpt>
      <trkpt lat="45.51224" lon="6.0109">
        <ele>296.3</ele>
        <time>2021-08-28T10:46:41Z</time>
      </trkpt>
      <trkpt lat="45.51219" lon="6.01101">
        <ele>296.3</ele>
        <time>2021-08-28T10:46:42Z</time>
      </trkpt>
      <trkpt lat="45.51215" lon="6.01111">
        <ele>296.2</ele>
        <time>2021-08-28T10:46:43Z</time>
      </trkpt>
      <trkpt lat="45.51212" lon="6.01121">
        <ele>296.1</ele>
        <time>2021-08-28T10:46:44Z</time>
      </trkpt>
      <trkpt lat="45.51208" lon="6.0113">
        <ele>296.1</ele>
        <time>2021-08-28T10:46:45Z</time>
      </trkpt>
      <trkpt lat="45.51204" lon="6.01139">
        <ele>296</ele>
        <time>2021-08-28T10:46:46Z</time>
      </trkpt>
      <trkpt lat="45.512" lon="6.01149">
        <ele>295.9</ele>
        <time>2021-08-28T10:46:47Z</time>
      </trkpt>
      <trkpt lat="45.51195" lon="6.01159">
        <ele>295.9</ele>
        <time>2021-08-28T10:46:48Z</time>
      </trkpt>
      <trkpt lat="45.51191" lon="6.01168">
        <ele>295.8</ele>
        <time>2021-08-28T10:46:49Z</time>
      </trkpt>
      <trkpt lat="45.51187" lon="6.01178">
        <ele>295.8</ele>
        <time>2021-08-28T10:46:50Z</time>
      </trkpt>
      <trkpt lat="45.51182" lon="6.01188">
        <ele>295.7</ele>
        <time>2021-08-28T10:46:51Z</time>
      </trkpt>
      <trkpt lat="45.51178" lon="6.01197">
        <ele>295.6</ele>
        <time>2021-08-28T10:46:52Z</time>
      </trkpt>
      <trkpt lat="45.51173" lon="6.01206">
        <ele>295.5</ele>
        <time>2021-08-28T10:46:53Z</time>
      </trkpt>
      <trkpt lat="45.51169" lon="6.01215">
        <ele>295.4</ele>
        <time>2021-08-28T10:46:54Z</time>
      </trkpt>
      <trkpt lat="45.51165" lon="6.01224">
        <ele>295.3</ele>
        <time>2021-08-28T10:46:55Z</time>
      </trkpt>
      <trkpt lat="45.5116" lon="6.01233">
        <ele>295.3</ele>
        <time>2021-08-28T10:46:56Z</time>
      </trkpt>
      <trkpt lat="45.51156" lon="6.01241">
        <ele>295.2</ele>
        <time>2021-08-28T10:46:57Z</time>
      </trkpt>
      <trkpt lat="45.51152" lon="6.0125">
        <ele>295.2</ele>
        <time>2021-08-28T10:46:58Z</time>
      </trkpt>
      <trkpt lat="45.51147" lon="6.01259">
        <ele>295.1</ele>
        <time>2021-08-28T10:46:59Z</time>
      </trkpt>
      <trkpt lat="45.51143" lon="6.01267">
        <ele>295.1</ele>
        <time>2021-08-28T10:47:00Z</time>
      </trkpt>
      <trkpt lat="45.51139" lon="6.01275">
        <ele>295</ele>
        <time>2021-08-28T10:47:01Z</time>
      </trkpt>
      <trkpt lat="45.51135" lon="6.01283">
        <ele>295</ele>
        <time>2021-08-28T10:47:02Z</time>
      </trkpt>
      <trkpt lat="45.51131" lon="6.01292">
        <ele>295</ele>
        <time>2021-08-28T10:47:03Z</time>
      </trkpt>
      <trkpt lat="45.51128" lon="6.01299">
        <ele>295</ele>
        <time>2021-08-28T10:47:04Z</time>
      </trkpt>
      <trkpt lat="45.51124" lon="6.01307">
        <ele>294.9</ele>
        <time>2021-08-28T10:47:05Z</time>
      </trkpt>
      <trkpt lat="45.5112" lon="6.01315">
        <ele>294.9</ele>
        <time>2021-08-28T10:47:06Z</time>
      </trkpt>
      <trkpt lat="45.51116" lon="6.01324">
        <ele>294.8</ele>
        <time>2021-08-28T10:47:07Z</time>
      </trkpt>
      <trkpt lat="45.51112" lon="6.01332">
        <ele>294.8</ele>
        <time>2021-08-28T10:47:08Z</time>
      </trkpt>
      <trkpt lat="45.51108" lon="6.0134">
        <ele>294.8</ele>
        <time>2021-08-28T10:47:09Z</time>
      </trkpt>
      <trkpt lat="45.51104" lon="6.01348">
        <ele>294.7</ele>
        <time>2021-08-28T10:47:10Z</time>
      </trkpt>
      <trkpt lat="45.511" lon="6.01355">
        <ele>294.7</ele>
        <time>2021-08-28T10:47:11Z</time>
      </trkpt>
      <trkpt lat="45.51096" lon="6.01363">
        <ele>294.7</ele>
        <time>2021-08-28T10:47:12Z</time>
      </trkpt>
      <trkpt lat="45.51092" lon="6.0137">
        <ele>294.7</ele>
        <time>2021-08-28T10:47:13Z</time>
      </trkpt>
      <trkpt lat="45.51088" lon="6.01378">
        <ele>294.6</ele>
        <time>2021-08-28T10:47:14Z</time>
      </trkpt>
      <trkpt lat="45.51084" lon="6.01386">
        <ele>294.6</ele>
        <time>2021-08-28T10:47:15Z</time>
      </trkpt>
      <trkpt lat="45.51081" lon="6.01393">
        <ele>294.5</ele>
        <time>2021-08-28T10:47:16Z</time>
      </trkpt>
      <trkpt lat="45.51077" lon="6.01401">
        <ele>294.5</ele>
        <time>2021-08-28T10:47:17Z</time>
      </trkpt>
      <trkpt lat="45.51073" lon="6.01408">
        <ele>294.5</ele>
        <time>2021-08-28T10:47:18Z</time>
      </trkpt>
      <trkpt lat="45.51069" lon="6.01416">
        <ele>294.4</ele>
        <time>2021-08-28T10:47:19Z</time>
      </trkpt>
      <trkpt lat="45.51065" lon="6.01424">
        <ele>294.4</ele>
        <time>2021-08-28T10:47:20Z</time>
      </trkpt>
      <trkpt lat="45.51061" lon="6.01431">
        <ele>294.4</ele>
        <time>2021-08-28T10:47:21Z</time>
      </trkpt>
      <trkpt lat="45.51057" lon="6.01439">
        <ele>294.4</ele>
        <time>2021-08-28T10:47:22Z</time>
      </trkpt>
      <trkpt lat="45.51053" lon="6.01446">
        <ele>294.3</ele>
        <time>2021-08-28T10:47:23Z</time>
      </trkpt>
      <trkpt lat="45.51049" lon="6.01454">
        <ele>294.2</ele>
        <time>2021-08-28T10:47:24Z</time>
      </trkpt>
      <trkpt lat="45.51046" lon="6.01461">
        <ele>294.2</ele>
        <time>2021-08-28T10:47:25Z</time>
      </trkpt>
      <trkpt lat="45.51043" lon="6.01468">
        <ele>294.1</ele>
        <time>2021-08-28T10:47:26Z</time>
      </trkpt>
      <trkpt lat="45.51039" lon="6.01475">
        <ele>294</ele>
        <time>2021-08-28T10:47:27Z</time>
      </trkpt>
      <trkpt lat="45.51035" lon="6.01483">
        <ele>293.9</ele>
        <time>2021-08-28T10:47:28Z</time>
      </trkpt>
      <trkpt lat="45.51031" lon="6.0149">
        <ele>293.8</ele>
        <time>2021-08-28T10:47:29Z</time>
      </trkpt>
      <trkpt lat="45.51027" lon="6.01497">
        <ele>293.8</ele>
        <time>2021-08-28T10:47:30Z</time>
      </trkpt>
      <trkpt lat="45.51023" lon="6.01505">
        <ele>293.7</ele>
        <time>2021-08-28T10:47:31Z</time>
      </trkpt>
      <trkpt lat="45.51019" lon="6.01512">
        <ele>293.7</ele>
        <time>2021-08-28T10:47:32Z</time>
      </trkpt>
      <trkpt lat="45.51016" lon="6.0152">
        <ele>293.6</ele>
        <time>2021-08-28T10:47:33Z</time>
      </trkpt>
      <trkpt lat="45.51012" lon="6.01527">
        <ele>293.6</ele>
        <time>2021-08-28T10:47:34Z</time>
      </trkpt>
      <trkpt lat="45.51007" lon="6.01534">
        <ele>293.5</ele>
        <time>2021-08-28T10:47:35Z</time>
      </trkpt>
      <trkpt lat="45.51003" lon="6.01542">
        <ele>293.5</ele>
        <time>2021-08-28T10:47:36Z</time>
      </trkpt>
      <trkpt lat="45.50998" lon="6.0155">
        <ele>293.4</ele>
        <time>2021-08-28T10:47:37Z</time>
      </trkpt>
      <trkpt lat="45.50994" lon="6.01558">
        <ele>293.3</ele>
        <time>2021-08-28T10:47:38Z</time>
      </trkpt>
      <trkpt lat="45.5099" lon="6.01566">
        <ele>293.2</ele>
        <time>2021-08-28T10:47:39Z</time>
      </trkpt>
      <trkpt lat="45.50986" lon="6.01575">
        <ele>293.2</ele>
        <time>2021-08-28T10:47:40Z</time>
      </trkpt>
      <trkpt lat="45.50981" lon="6.01584">
        <ele>293.1</ele>
        <time>2021-08-28T10:47:41Z</time>
      </trkpt>
      <trkpt lat="45.50977" lon="6.01593">
        <ele>293</ele>
        <time>2021-08-28T10:47:42Z</time>
      </trkpt>
      <trkpt lat="45.50972" lon="6.01601">
        <ele>292.9</ele>
        <time>2021-08-28T10:47:43Z</time>
      </trkpt>
      <trkpt lat="45.50967" lon="6.0161">
        <ele>292.9</ele>
        <time>2021-08-28T10:47:44Z</time>
      </trkpt>
      <trkpt lat="45.50963" lon="6.01618">
        <ele>292.8</ele>
        <time>2021-08-28T10:47:45Z</time>
      </trkpt>
      <trkpt lat="45.50958" lon="6.01626">
        <ele>292.8</ele>
        <time>2021-08-28T10:47:46Z</time>
      </trkpt>
      <trkpt lat="45.50954" lon="6.01634">
        <ele>292.7</ele>
        <time>2021-08-28T10:47:47Z</time>
      </trkpt>
      <trkpt lat="45.50949" lon="6.01643">
        <ele>292.6</ele>
        <time>2021-08-28T10:47:48Z</time>
      </trkpt>
      <trkpt lat="45.50944" lon="6.01653">
        <ele>292.5</ele>
        <time>2021-08-28T10:47:49Z</time>
      </trkpt>
      <trkpt lat="45.50939" lon="6.01663">
        <ele>292.4</ele>
        <time>2021-08-28T10:47:50Z</time>
      </trkpt>
      <trkpt lat="45.50935" lon="6.01672">
        <ele>292.3</ele>
        <time>2021-08-28T10:47:51Z</time>
      </trkpt>
      <trkpt lat="45.5093" lon="6.01682">
        <ele>292.2</ele>
        <time>2021-08-28T10:47:52Z</time>
      </trkpt>
      <trkpt lat="45.50925" lon="6.01691">
        <ele>292.1</ele>
        <time>2021-08-28T10:47:53Z</time>
      </trkpt>
      <trkpt lat="45.50921" lon="6.01701">
        <ele>292</ele>
        <time>2021-08-28T10:47:54Z</time>
      </trkpt>
      <trkpt lat="45.50916" lon="6.0171">
        <ele>291.9</ele>
        <time>2021-08-28T10:47:55Z</time>
      </trkpt>
      <trkpt lat="45.50912" lon="6.01719">
        <ele>291.8</ele>
        <time>2021-08-28T10:47:56Z</time>
      </trkpt>
      <trkpt lat="45.50907" lon="6.01728">
        <ele>291.8</ele>
        <time>2021-08-28T10:47:57Z</time>
      </trkpt>
      <trkpt lat="45.50902" lon="6.01738">
        <ele>291.7</ele>
        <time>2021-08-28T10:47:58Z</time>
      </trkpt>
      <trkpt lat="45.50898" lon="6.01746">
        <ele>291.6</ele>
        <time>2021-08-28T10:47:59Z</time>
      </trkpt>
      <trkpt lat="45.50893" lon="6.01755">
        <ele>291.6</ele>
        <time>2021-08-28T10:48:00Z</time>
      </trkpt>
      <trkpt lat="45.50889" lon="6.01764">
        <ele>291.6</ele>
        <time>2021-08-28T10:48:01Z</time>
      </trkpt>
      <trkpt lat="45.50885" lon="6.01773">
        <ele>291.6</ele>
        <time>2021-08-28T10:48:02Z</time>
      </trkpt>
      <trkpt lat="45.5088" lon="6.01781">
        <ele>291.5</ele>
        <time>2021-08-28T10:48:03Z</time>
      </trkpt>
      <trkpt lat="45.50876" lon="6.0179">
        <ele>291.5</ele>
        <time>2021-08-28T10:48:04Z</time>
      </trkpt>
      <trkpt lat="45.50872" lon="6.01798">
        <ele>291.5</ele>
        <time>2021-08-28T10:48:05Z</time>
      </trkpt>
      <trkpt lat="45.50868" lon="6.01806">
        <ele>291.4</ele>
        <time>2021-08-28T10:48:06Z</time>
      </trkpt>
      <trkpt lat="45.50864" lon="6.01814">
        <ele>291.4</ele>
        <time>2021-08-28T10:48:07Z</time>
      </trkpt>
      <trkpt lat="45.50859" lon="6.01823">
        <ele>291.3</ele>
        <time>2021-08-28T10:48:08Z</time>
      </trkpt>
      <trkpt lat="45.50855" lon="6.01831">
        <ele>291.3</ele>
        <time>2021-08-28T10:48:09Z</time>
      </trkpt>
      <trkpt lat="45.50851" lon="6.0184">
        <ele>291.2</ele>
        <time>2021-08-28T10:48:10Z</time>
      </trkpt>
      <trkpt lat="45.50847" lon="6.01848">
        <ele>291.1</ele>
        <time>2021-08-28T10:48:11Z</time>
      </trkpt>
      <trkpt lat="45.50842" lon="6.01857">
        <ele>291.1</ele>
        <time>2021-08-28T10:48:12Z</time>
      </trkpt>
      <trkpt lat="45.50839" lon="6.01866">
        <ele>291</ele>
        <time>2021-08-28T10:48:13Z</time>
      </trkpt>
      <trkpt lat="45.50836" lon="6.01874">
        <ele>290.9</ele>
        <time>2021-08-28T10:48:14Z</time>
      </trkpt>
      <trkpt lat="45.50832" lon="6.01883">
        <ele>290.9</ele>
        <time>2021-08-28T10:48:15Z</time>
      </trkpt>
      <trkpt lat="45.50829" lon="6.01891">
        <ele>290.8</ele>
        <time>2021-08-28T10:48:16Z</time>
      </trkpt>
      <trkpt lat="45.50826" lon="6.019">
        <ele>290.7</ele>
        <time>2021-08-28T10:48:17Z</time>
      </trkpt>
      <trkpt lat="45.50823" lon="6.01909">
        <ele>290.7</ele>
        <time>2021-08-28T10:48:18Z</time>
      </trkpt>
      <trkpt lat="45.5082" lon="6.01918">
        <ele>290.6</ele>
        <time>2021-08-28T10:48:19Z</time>
      </trkpt>
      <trkpt lat="45.50817" lon="6.01927">
        <ele>290.6</ele>
        <time>2021-08-28T10:48:20Z</time>
      </trkpt>
      <trkpt lat="45.50814" lon="6.01936">
        <ele>290.6</ele>
        <time>2021-08-28T10:48:21Z</time>
      </trkpt>
      <trkpt lat="45.50811" lon="6.01946">
        <ele>290.5</ele>
        <time>2021-08-28T10:48:22Z</time>
      </trkpt>
      <trkpt lat="45.50809" lon="6.01956">
        <ele>290.4</ele>
        <time>2021-08-28T10:48:23Z</time>
      </trkpt>
      <trkpt lat="45.50806" lon="6.01966">
        <ele>290.4</ele>
        <time>2021-08-28T10:48:24Z</time>
      </trkpt>
      <trkpt lat="45.50804" lon="6.01975">
        <ele>290.3</ele>
        <time>2021-08-28T10:48:25Z</time>
      </trkpt>
      <trkpt lat="45.50801" lon="6.01984">
        <ele>290.3</ele>
        <time>2021-08-28T10:48:26Z</time>
      </trkpt>
      <trkpt lat="45.50799" lon="6.01993">
        <ele>290.2</ele>
        <time>2021-08-28T10:48:27Z</time>
      </trkpt>
      <trkpt lat="45.50797" lon="6.02002">
        <ele>290.2</ele>
        <time>2021-08-28T10:48:28Z</time>
      </trkpt>
      <trkpt lat="45.50795" lon="6.02011">
        <ele>290.2</ele>
        <time>2021-08-28T10:48:29Z</time>
      </trkpt>
      <trkpt lat="45.50793" lon="6.0202">
        <ele>290.1</ele>
        <time>2021-08-28T10:48:30Z</time>
      </trkpt>
      <trkpt lat="45.50792" lon="6.02029">
        <ele>290.1</ele>
        <time>2021-08-28T10:48:31Z</time>
      </trkpt>
      <trkpt lat="45.5079" lon="6.02039">
        <ele>290</ele>
        <time>2021-08-28T10:48:32Z</time>
      </trkpt>
      <trkpt lat="45.50788" lon="6.02048">
        <ele>289.9</ele>
        <time>2021-08-28T10:48:33Z</time>
      </trkpt>
      <trkpt lat="45.50786" lon="6.02057">
        <ele>289.9</ele>
        <time>2021-08-28T10:48:34Z</time>
      </trkpt>
      <trkpt lat="45.50784" lon="6.02066">
        <ele>289.8</ele>
        <time>2021-08-28T10:48:35Z</time>
      </trkpt>
      <trkpt lat="45.50782" lon="6.02075">
        <ele>289.7</ele>
        <time>2021-08-28T10:48:36Z</time>
      </trkpt>
      <trkpt lat="45.5078" lon="6.02084">
        <ele>289.7</ele>
        <time>2021-08-28T10:48:37Z</time>
      </trkpt>
      <trkpt lat="45.50779" lon="6.02092">
        <ele>289.6</ele>
        <time>2021-08-28T10:48:38Z</time>
      </trkpt>
      <trkpt lat="45.50778" lon="6.02101">
        <ele>289.6</ele>
        <time>2021-08-28T10:48:39Z</time>
      </trkpt>
      <trkpt lat="45.50776" lon="6.02109">
        <ele>289.5</ele>
        <time>2021-08-28T10:48:40Z</time>
      </trkpt>
      <trkpt lat="45.50775" lon="6.02117">
        <ele>289.5</ele>
        <time>2021-08-28T10:48:41Z</time>
      </trkpt>
      <trkpt lat="45.50773" lon="6.02126">
        <ele>289.4</ele>
        <time>2021-08-28T10:48:42Z</time>
      </trkpt>
      <trkpt lat="45.50771" lon="6.02135">
        <ele>289.4</ele>
        <time>2021-08-28T10:48:43Z</time>
      </trkpt>
      <trkpt lat="45.50769" lon="6.02144">
        <ele>289.3</ele>
        <time>2021-08-28T10:48:44Z</time>
      </trkpt>
      <trkpt lat="45.50767" lon="6.02153">
        <ele>289.3</ele>
        <time>2021-08-28T10:48:45Z</time>
      </trkpt>
      <trkpt lat="45.50766" lon="6.02161">
        <ele>289.3</ele>
        <time>2021-08-28T10:48:46Z</time>
      </trkpt>
      <trkpt lat="45.50764" lon="6.02169">
        <ele>289.2</ele>
        <time>2021-08-28T10:48:47Z</time>
      </trkpt>
      <trkpt lat="45.50762" lon="6.02178">
        <ele>289.2</ele>
        <time>2021-08-28T10:48:48Z</time>
      </trkpt>
      <trkpt lat="45.5076" lon="6.02187">
        <ele>289.2</ele>
        <time>2021-08-28T10:48:49Z</time>
      </trkpt>
      <trkpt lat="45.50758" lon="6.02196">
        <ele>289.1</ele>
        <time>2021-08-28T10:48:50Z</time>
      </trkpt>
      <trkpt lat="45.50757" lon="6.02204">
        <ele>289.1</ele>
        <time>2021-08-28T10:48:51Z</time>
      </trkpt>
      <trkpt lat="45.50755" lon="6.02213">
        <ele>289</ele>
        <time>2021-08-28T10:48:52Z</time>
      </trkpt>
      <trkpt lat="45.50753" lon="6.02222">
        <ele>289</ele>
        <time>2021-08-28T10:48:53Z</time>
      </trkpt>
      <trkpt lat="45.50751" lon="6.0223">
        <ele>289</ele>
        <time>2021-08-28T10:48:54Z</time>
      </trkpt>
      <trkpt lat="45.5075" lon="6.02239">
        <ele>288.9</ele>
        <time>2021-08-28T10:48:55Z</time>
      </trkpt>
      <trkpt lat="45.50748" lon="6.02248">
        <ele>288.9</ele>
        <time>2021-08-28T10:48:56Z</time>
      </trkpt>
      <trkpt lat="45.50746" lon="6.02257">
        <ele>288.9</ele>
        <time>2021-08-28T10:48:57Z</time>
      </trkpt>
      <trkpt lat="45.50745" lon="6.02266">
        <ele>288.8</ele>
        <time>2021-08-28T10:48:58Z</time>
      </trkpt>
      <trkpt lat="45.50744" lon="6.02275">
        <ele>288.7</ele>
        <time>2021-08-28T10:48:59Z</time>
      </trkpt>
      <trkpt lat="45.50742" lon="6.02283">
        <ele>288.7</ele>
        <time>2021-08-28T10:49:00Z</time>
      </trkpt>
      <trkpt lat="45.5074" lon="6.02291">
        <ele>288.6</ele>
        <time>2021-08-28T10:49:01Z</time>
      </trkpt>
      <trkpt lat="45.50738" lon="6.023">
        <ele>288.6</ele>
        <time>2021-08-28T10:49:02Z</time>
      </trkpt>
      <trkpt lat="45.50736" lon="6.0231">
        <ele>288.5</ele>
        <time>2021-08-28T10:49:03Z</time>
      </trkpt>
      <trkpt lat="45.50734" lon="6.02319">
        <ele>288.5</ele>
        <time>2021-08-28T10:49:04Z</time>
      </trkpt>
      <trkpt lat="45.50732" lon="6.02329">
        <ele>288.4</ele>
        <time>2021-08-28T10:49:05Z</time>
      </trkpt>
      <trkpt lat="45.50729" lon="6.0234">
        <ele>288.4</ele>
        <time>2021-08-28T10:49:06Z</time>
      </trkpt>
      <trkpt lat="45.50728" lon="6.0235">
        <ele>288.4</ele>
        <time>2021-08-28T10:49:07Z</time>
      </trkpt>
      <trkpt lat="45.50726" lon="6.0236">
        <ele>288.5</ele>
        <time>2021-08-28T10:49:08Z</time>
      </trkpt>
      <trkpt lat="45.50725" lon="6.0237">
        <ele>288.4</ele>
        <time>2021-08-28T10:49:09Z</time>
      </trkpt>
      <trkpt lat="45.50723" lon="6.02381">
        <ele>288.4</ele>
        <time>2021-08-28T10:49:10Z</time>
      </trkpt>
      <trkpt lat="45.50721" lon="6.0239">
        <ele>288.3</ele>
        <time>2021-08-28T10:49:11Z</time>
      </trkpt>
      <trkpt lat="45.50719" lon="6.024">
        <ele>288.2</ele>
        <time>2021-08-28T10:49:12Z</time>
      </trkpt>
      <trkpt lat="45.50716" lon="6.0241">
        <ele>288.1</ele>
        <time>2021-08-28T10:49:13Z</time>
      </trkpt>
      <trkpt lat="45.50713" lon="6.0242">
        <ele>288</ele>
        <time>2021-08-28T10:49:14Z</time>
      </trkpt>
      <trkpt lat="45.50711" lon="6.02431">
        <ele>288</ele>
        <time>2021-08-28T10:49:15Z</time>
      </trkpt>
      <trkpt lat="45.50709" lon="6.02441">
        <ele>287.9</ele>
        <time>2021-08-28T10:49:16Z</time>
      </trkpt>
      <trkpt lat="45.50706" lon="6.02452">
        <ele>287.8</ele>
        <time>2021-08-28T10:49:17Z</time>
      </trkpt>
      <trkpt lat="45.50704" lon="6.02461">
        <ele>287.8</ele>
        <time>2021-08-28T10:49:18Z</time>
      </trkpt>
      <trkpt lat="45.50701" lon="6.02471">
        <ele>287.7</ele>
        <time>2021-08-28T10:49:19Z</time>
      </trkpt>
      <trkpt lat="45.50699" lon="6.02481">
        <ele>287.6</ele>
        <time>2021-08-28T10:49:20Z</time>
      </trkpt>
      <trkpt lat="45.50697" lon="6.02491">
        <ele>287.6</ele>
        <time>2021-08-28T10:49:21Z</time>
      </trkpt>
      <trkpt lat="45.50694" lon="6.02502">
        <ele>287.5</ele>
        <time>2021-08-28T10:49:22Z</time>
      </trkpt>
      <trkpt lat="45.50692" lon="6.02512">
        <ele>287.4</ele>
        <time>2021-08-28T10:49:23Z</time>
      </trkpt>
      <trkpt lat="45.5069" lon="6.02523">
        <ele>287.3</ele>
        <time>2021-08-28T10:49:24Z</time>
      </trkpt>
      <trkpt lat="45.50688" lon="6.02534">
        <ele>287.2</ele>
        <time>2021-08-28T10:49:25Z</time>
      </trkpt>
      <trkpt lat="45.50687" lon="6.02545">
        <ele>287.1</ele>
        <time>2021-08-28T10:49:26Z</time>
      </trkpt>
      <trkpt lat="45.50684" lon="6.02555">
        <ele>287.1</ele>
        <time>2021-08-28T10:49:27Z</time>
      </trkpt>
      <trkpt lat="45.50682" lon="6.02566">
        <ele>287</ele>
        <time>2021-08-28T10:49:28Z</time>
      </trkpt>
      <trkpt lat="45.5068" lon="6.02577">
        <ele>286.9</ele>
        <time>2021-08-28T10:49:29Z</time>
      </trkpt>
      <trkpt lat="45.50678" lon="6.02587">
        <ele>286.9</ele>
        <time>2021-08-28T10:49:30Z</time>
      </trkpt>
      <trkpt lat="45.50676" lon="6.02597">
        <ele>286.8</ele>
        <time>2021-08-28T10:49:31Z</time>
      </trkpt>
      <trkpt lat="45.50674" lon="6.02607">
        <ele>286.8</ele>
        <time>2021-08-28T10:49:32Z</time>
      </trkpt>
      <trkpt lat="45.50671" lon="6.02616">
        <ele>286.7</ele>
        <time>2021-08-28T10:49:33Z</time>
      </trkpt>
      <trkpt lat="45.50668" lon="6.02626">
        <ele>286.6</ele>
        <time>2021-08-28T10:49:34Z</time>
      </trkpt>
      <trkpt lat="45.50666" lon="6.02636">
        <ele>286.6</ele>
        <time>2021-08-28T10:49:35Z</time>
      </trkpt>
      <trkpt lat="45.50664" lon="6.02646">
        <ele>286.5</ele>
        <time>2021-08-28T10:49:36Z</time>
      </trkpt>
      <trkpt lat="45.50662" lon="6.02657">
        <ele>286.4</ele>
        <time>2021-08-28T10:49:37Z</time>
      </trkpt>
      <trkpt lat="45.5066" lon="6.02667">
        <ele>286.3</ele>
        <time>2021-08-28T10:49:38Z</time>
      </trkpt>
      <trkpt lat="45.50658" lon="6.02678">
        <ele>286.2</ele>
        <time>2021-08-28T10:49:39Z</time>
      </trkpt>
      <trkpt lat="45.50657" lon="6.02689">
        <ele>286.1</ele>
        <time>2021-08-28T10:49:40Z</time>
      </trkpt>
      <trkpt lat="45.50655" lon="6.02699">
        <ele>286.1</ele>
        <time>2021-08-28T10:49:41Z</time>
      </trkpt>
      <trkpt lat="45.50653" lon="6.02709">
        <ele>286</ele>
        <time>2021-08-28T10:49:42Z</time>
      </trkpt>
      <trkpt lat="45.50651" lon="6.0272">
        <ele>286</ele>
        <time>2021-08-28T10:49:43Z</time>
      </trkpt>
      <trkpt lat="45.50649" lon="6.0273">
        <ele>286</ele>
        <time>2021-08-28T10:49:44Z</time>
      </trkpt>
      <trkpt lat="45.50647" lon="6.0274">
        <ele>285.9</ele>
        <time>2021-08-28T10:49:45Z</time>
      </trkpt>
      <trkpt lat="45.50644" lon="6.0275">
        <ele>285.9</ele>
        <time>2021-08-28T10:49:46Z</time>
      </trkpt>
      <trkpt lat="45.50642" lon="6.0276">
        <ele>285.9</ele>
        <time>2021-08-28T10:49:47Z</time>
      </trkpt>
      <trkpt lat="45.50641" lon="6.0277">
        <ele>285.8</ele>
        <time>2021-08-28T10:49:48Z</time>
      </trkpt>
      <trkpt lat="45.50639" lon="6.02781">
        <ele>285.8</ele>
        <time>2021-08-28T10:49:49Z</time>
      </trkpt>
      <trkpt lat="45.50637" lon="6.02791">
        <ele>285.8</ele>
        <time>2021-08-28T10:49:50Z</time>
      </trkpt>
      <trkpt lat="45.50635" lon="6.02801">
        <ele>285.7</ele>
        <time>2021-08-28T10:49:51Z</time>
      </trkpt>
      <trkpt lat="45.50633" lon="6.02811">
        <ele>285.7</ele>
        <time>2021-08-28T10:49:52Z</time>
      </trkpt>
      <trkpt lat="45.50631" lon="6.02822">
        <ele>285.7</ele>
        <time>2021-08-28T10:49:53Z</time>
      </trkpt>
      <trkpt lat="45.50629" lon="6.02832">
        <ele>285.6</ele>
        <time>2021-08-28T10:49:54Z</time>
      </trkpt>
      <trkpt lat="45.50628" lon="6.02843">
        <ele>285.6</ele>
        <time>2021-08-28T10:49:55Z</time>
      </trkpt>
      <trkpt lat="45.50625" lon="6.02853">
        <ele>285.6</ele>
        <time>2021-08-28T10:49:56Z</time>
      </trkpt>
      <trkpt lat="45.50623" lon="6.02863">
        <ele>285.5</ele>
        <time>2021-08-28T10:49:57Z</time>
      </trkpt>
      <trkpt lat="45.50621" lon="6.02874">
        <ele>285.5</ele>
        <time>2021-08-28T10:49:58Z</time>
      </trkpt>
      <trkpt lat="45.50619" lon="6.02885">
        <ele>285.5</ele>
        <time>2021-08-28T10:49:59Z</time>
      </trkpt>
      <trkpt lat="45.50617" lon="6.02895">
        <ele>285.4</ele>
        <time>2021-08-28T10:50:00Z</time>
      </trkpt>
      <trkpt lat="45.50615" lon="6.02905">
        <ele>285.4</ele>
        <time>2021-08-28T10:50:01Z</time>
      </trkpt>
      <trkpt lat="45.50612" lon="6.02916">
        <ele>285.3</ele>
        <time>2021-08-28T10:50:02Z</time>
      </trkpt>
      <trkpt lat="45.5061" lon="6.02926">
        <ele>285.3</ele>
        <time>2021-08-28T10:50:03Z</time>
      </trkpt>
      <trkpt lat="45.50608" lon="6.02937">
        <ele>285.3</ele>
        <time>2021-08-28T10:50:04Z</time>
      </trkpt>
      <trkpt lat="45.50606" lon="6.02947">
        <ele>285.2</ele>
        <time>2021-08-28T10:50:05Z</time>
      </trkpt>
      <trkpt lat="45.50604" lon="6.02957">
        <ele>285.2</ele>
        <time>2021-08-28T10:50:06Z</time>
      </trkpt>
      <trkpt lat="45.50602" lon="6.02968">
        <ele>285.2</ele>
        <time>2021-08-28T10:50:07Z</time>
      </trkpt>
      <trkpt lat="45.506" lon="6.02978">
        <ele>285.2</ele>
        <time>2021-08-28T10:50:08Z</time>
      </trkpt>
      <trkpt lat="45.50598" lon="6.02988">
        <ele>285.1</ele>
        <time>2021-08-28T10:50:09Z</time>
      </trkpt>
      <trkpt lat="45.50596" lon="6.02998">
        <ele>285.1</ele>
        <time>2021-08-28T10:50:10Z</time>
      </trkpt>
      <trkpt lat="45.50594" lon="6.03009">
        <ele>285.1</ele>
        <time>2021-08-28T10:50:11Z</time>
      </trkpt>
      <trkpt lat="45.50592" lon="6.03019">
        <ele>285</ele>
        <time>2021-08-28T10:50:12Z</time>
      </trkpt>
      <trkpt lat="45.5059" lon="6.03029">
        <ele>285</ele>
        <time>2021-08-28T10:50:13Z</time>
      </trkpt>
      <trkpt lat="45.50588" lon="6.03039">
        <ele>284.9</ele>
        <time>2021-08-28T10:50:14Z</time>
      </trkpt>
      <trkpt lat="45.50586" lon="6.03049">
        <ele>284.9</ele>
        <time>2021-08-28T10:50:15Z</time>
      </trkpt>
      <trkpt lat="45.50583" lon="6.03059">
        <ele>284.8</ele>
        <time>2021-08-28T10:50:16Z</time>
      </trkpt>
      <trkpt lat="45.50581" lon="6.03068">
        <ele>284.8</ele>
        <time>2021-08-28T10:50:17Z</time>
      </trkpt>
      <trkpt lat="45.50579" lon="6.03078">
        <ele>284.7</ele>
        <time>2021-08-28T10:50:18Z</time>
      </trkpt>
      <trkpt lat="45.50577" lon="6.03088">
        <ele>284.7</ele>
        <time>2021-08-28T10:50:19Z</time>
      </trkpt>
      <trkpt lat="45.50575" lon="6.03098">
        <ele>284.6</ele>
        <time>2021-08-28T10:50:20Z</time>
      </trkpt>
      <trkpt lat="45.50573" lon="6.03108">
        <ele>284.6</ele>
        <time>2021-08-28T10:50:21Z</time>
      </trkpt>
      <trkpt lat="45.50571" lon="6.03118">
        <ele>284.5</ele>
        <time>2021-08-28T10:50:22Z</time>
      </trkpt>
      <trkpt lat="45.50569" lon="6.03128">
        <ele>284.5</ele>
        <time>2021-08-28T10:50:23Z</time>
      </trkpt>
      <trkpt lat="45.50567" lon="6.03137">
        <ele>284.4</ele>
        <time>2021-08-28T10:50:24Z</time>
      </trkpt>
      <trkpt lat="45.50565" lon="6.03147">
        <ele>284.4</ele>
        <time>2021-08-28T10:50:25Z</time>
      </trkpt>
      <trkpt lat="45.50563" lon="6.03156">
        <ele>284.4</ele>
        <time>2021-08-28T10:50:26Z</time>
      </trkpt>
      <trkpt lat="45.50561" lon="6.03166">
        <ele>284.3</ele>
        <time>2021-08-28T10:50:27Z</time>
      </trkpt>
      <trkpt lat="45.50559" lon="6.03175">
        <ele>284.3</ele>
        <time>2021-08-28T10:50:28Z</time>
      </trkpt>
      <trkpt lat="45.50557" lon="6.03184">
        <ele>284.2</ele>
        <time>2021-08-28T10:50:29Z</time>
      </trkpt>
      <trkpt lat="45.50556" lon="6.03193">
        <ele>284.2</ele>
        <time>2021-08-28T10:50:30Z</time>
      </trkpt>
      <trkpt lat="45.50554" lon="6.03202">
        <ele>284.1</ele>
        <time>2021-08-28T10:50:31Z</time>
      </trkpt>
      <trkpt lat="45.50552" lon="6.03211">
        <ele>284.1</ele>
        <time>2021-08-28T10:50:32Z</time>
      </trkpt>
      <trkpt lat="45.5055" lon="6.0322">
        <ele>284</ele>
        <time>2021-08-28T10:50:33Z</time>
      </trkpt>
      <trkpt lat="45.50548" lon="6.03229">
        <ele>284</ele>
        <time>2021-08-28T10:50:34Z</time>
      </trkpt>
      <trkpt lat="45.50547" lon="6.03238">
        <ele>283.9</ele>
        <time>2021-08-28T10:50:35Z</time>
      </trkpt>
      <trkpt lat="45.50545" lon="6.03247">
        <ele>283.9</ele>
        <time>2021-08-28T10:50:36Z</time>
      </trkpt>
      <trkpt lat="45.50543" lon="6.03257">
        <ele>283.8</ele>
        <time>2021-08-28T10:50:37Z</time>
      </trkpt>
      <trkpt lat="45.50541" lon="6.03266">
        <ele>283.7</ele>
        <time>2021-08-28T10:50:38Z</time>
      </trkpt>
      <trkpt lat="45.50539" lon="6.03275">
        <ele>283.7</ele>
        <time>2021-08-28T10:50:39Z</time>
      </trkpt>
      <trkpt lat="45.50537" lon="6.03284">
        <ele>283.7</ele>
        <time>2021-08-28T10:50:40Z</time>
      </trkpt>
      <trkpt lat="45.50535" lon="6.03294">
        <ele>283.6</ele>
        <time>2021-08-28T10:50:41Z</time>
      </trkpt>
      <trkpt lat="45.50533" lon="6.03304">
        <ele>283.6</ele>
        <time>2021-08-28T10:50:42Z</time>
      </trkpt>
      <trkpt lat="45.50531" lon="6.03313">
        <ele>283.5</ele>
        <time>2021-08-28T10:50:43Z</time>
      </trkpt>
      <trkpt lat="45.50529" lon="6.03323">
        <ele>283.5</ele>
        <time>2021-08-28T10:50:44Z</time>
      </trkpt>
      <trkpt lat="45.50527" lon="6.03332">
        <ele>283.5</ele>
        <time>2021-08-28T10:50:45Z</time>
      </trkpt>
      <trkpt lat="45.50525" lon="6.03341">
        <ele>283.4</ele>
        <time>2021-08-28T10:50:46Z</time>
      </trkpt>
      <trkpt lat="45.50523" lon="6.03351">
        <ele>283.4</ele>
        <time>2021-08-28T10:50:47Z</time>
      </trkpt>
      <trkpt lat="45.50521" lon="6.03361">
        <ele>283.4</ele>
        <time>2021-08-28T10:50:48Z</time>
      </trkpt>
      <trkpt lat="45.50519" lon="6.03371">
        <ele>283.3</ele>
        <time>2021-08-28T10:50:49Z</time>
      </trkpt>
      <trkpt lat="45.50517" lon="6.0338">
        <ele>283.3</ele>
        <time>2021-08-28T10:50:50Z</time>
      </trkpt>
      <trkpt lat="45.50515" lon="6.0339">
        <ele>283.2</ele>
        <time>2021-08-28T10:50:51Z</time>
      </trkpt>
      <trkpt lat="45.50513" lon="6.034">
        <ele>283.2</ele>
        <time>2021-08-28T10:50:52Z</time>
      </trkpt>
      <trkpt lat="45.50511" lon="6.0341">
        <ele>283.1</ele>
        <time>2021-08-28T10:50:53Z</time>
      </trkpt>
      <trkpt lat="45.50509" lon="6.0342">
        <ele>283</ele>
        <time>2021-08-28T10:50:54Z</time>
      </trkpt>
      <trkpt lat="45.50507" lon="6.03431">
        <ele>283</ele>
        <time>2021-08-28T10:50:55Z</time>
      </trkpt>
      <trkpt lat="45.50506" lon="6.03441">
        <ele>282.9</ele>
        <time>2021-08-28T10:50:56Z</time>
      </trkpt>
      <trkpt lat="45.50504" lon="6.03452">
        <ele>282.9</ele>
        <time>2021-08-28T10:50:57Z</time>
      </trkpt>
      <trkpt lat="45.50502" lon="6.03462">
        <ele>282.8</ele>
        <time>2021-08-28T10:50:58Z</time>
      </trkpt>
      <trkpt lat="45.505" lon="6.03473">
        <ele>282.8</ele>
        <time>2021-08-28T10:50:59Z</time>
      </trkpt>
      <trkpt lat="45.50498" lon="6.03483">
        <ele>282.7</ele>
        <time>2021-08-28T10:51:00Z</time>
      </trkpt>
      <trkpt lat="45.50497" lon="6.03493">
        <ele>282.7</ele>
        <time>2021-08-28T10:51:01Z</time>
      </trkpt>
      <trkpt lat="45.50494" lon="6.03503">
        <ele>282.7</ele>
        <time>2021-08-28T10:51:02Z</time>
      </trkpt>
      <trkpt lat="45.50492" lon="6.03514">
        <ele>282.7</ele>
        <time>2021-08-28T10:51:03Z</time>
      </trkpt>
      <trkpt lat="45.5049" lon="6.03524">
        <ele>282.7</ele>
        <time>2021-08-28T10:51:04Z</time>
      </trkpt>
      <trkpt lat="45.50488" lon="6.03534">
        <ele>282.7</ele>
        <time>2021-08-28T10:51:05Z</time>
      </trkpt>
      <trkpt lat="45.50486" lon="6.03545">
        <ele>282.7</ele>
        <time>2021-08-28T10:51:06Z</time>
      </trkpt>
      <trkpt lat="45.50484" lon="6.03555">
        <ele>282.7</ele>
        <time>2021-08-28T10:51:07Z</time>
      </trkpt>
      <trkpt lat="45.50482" lon="6.03565">
        <ele>282.7</ele>
        <time>2021-08-28T10:51:08Z</time>
      </trkpt>
      <trkpt lat="45.5048" lon="6.03576">
        <ele>282.7</ele>
        <time>2021-08-28T10:51:09Z</time>
      </trkpt>
      <trkpt lat="45.50478" lon="6.03587">
        <ele>282.7</ele>
        <time>2021-08-28T10:51:10Z</time>
      </trkpt>
      <trkpt lat="45.50476" lon="6.03597">
        <ele>282.7</ele>
        <time>2021-08-28T10:51:11Z</time>
      </trkpt>
      <trkpt lat="45.50473" lon="6.03608">
        <ele>282.8</ele>
        <time>2021-08-28T10:51:12Z</time>
      </trkpt>
      <trkpt lat="45.50472" lon="6.03618">
        <ele>282.8</ele>
        <time>2021-08-28T10:51:13Z</time>
      </trkpt>
      <trkpt lat="45.5047" lon="6.03628">
        <ele>282.8</ele>
        <time>2021-08-28T10:51:14Z</time>
      </trkpt>
      <trkpt lat="45.50468" lon="6.03637">
        <ele>282.8</ele>
        <time>2021-08-28T10:51:15Z</time>
      </trkpt>
      <trkpt lat="45.50466" lon="6.03647">
        <ele>282.8</ele>
        <time>2021-08-28T10:51:16Z</time>
      </trkpt>
      <trkpt lat="45.50464" lon="6.03657">
        <ele>282.9</ele>
        <time>2021-08-28T10:51:17Z</time>
      </trkpt>
      <trkpt lat="45.50462" lon="6.03666">
        <ele>282.9</ele>
        <time>2021-08-28T10:51:18Z</time>
      </trkpt>
      <trkpt lat="45.5046" lon="6.03675">
        <ele>282.9</ele>
        <time>2021-08-28T10:51:19Z</time>
      </trkpt>
      <trkpt lat="45.50459" lon="6.03685">
        <ele>282.9</ele>
        <time>2021-08-28T10:51:20Z</time>
      </trkpt>
      <trkpt lat="45.50457" lon="6.03695">
        <ele>282.9</ele>
        <time>2021-08-28T10:51:21Z</time>
      </trkpt>
      <trkpt lat="45.50455" lon="6.03705">
        <ele>282.9</ele>
        <time>2021-08-28T10:51:22Z</time>
      </trkpt>
      <trkpt lat="45.50453" lon="6.03714">
        <ele>282.9</ele>
        <time>2021-08-28T10:51:23Z</time>
      </trkpt>
      <trkpt lat="45.50451" lon="6.03724">
        <ele>282.9</ele>
        <time>2021-08-28T10:51:24Z</time>
      </trkpt>
      <trkpt lat="45.50449" lon="6.03734">
        <ele>282.8</ele>
        <time>2021-08-28T10:51:25Z</time>
      </trkpt>
      <trkpt lat="45.50447" lon="6.03744">
        <ele>282.8</ele>
        <time>2021-08-28T10:51:26Z</time>
      </trkpt>
      <trkpt lat="45.50445" lon="6.03753">
        <ele>282.8</ele>
        <time>2021-08-28T10:51:27Z</time>
      </trkpt>
      <trkpt lat="45.50443" lon="6.03763">
        <ele>282.8</ele>
        <time>2021-08-28T10:51:28Z</time>
      </trkpt>
      <trkpt lat="45.50441" lon="6.03772">
        <ele>282.8</ele>
        <time>2021-08-28T10:51:29Z</time>
      </trkpt>
      <trkpt lat="45.5044" lon="6.03782">
        <ele>282.8</ele>
        <time>2021-08-28T10:51:30Z</time>
      </trkpt>
      <trkpt lat="45.50438" lon="6.03791">
        <ele>282.8</ele>
        <time>2021-08-28T10:51:31Z</time>
      </trkpt>
      <trkpt lat="45.50436" lon="6.03801">
        <ele>282.8</ele>
        <time>2021-08-28T10:51:32Z</time>
      </trkpt>
      <trkpt lat="45.50433" lon="6.0381">
        <ele>282.8</ele>
        <time>2021-08-28T10:51:33Z</time>
      </trkpt>
      <trkpt lat="45.50431" lon="6.03819">
        <ele>282.8</ele>
        <time>2021-08-28T10:51:34Z</time>
      </trkpt>
      <trkpt lat="45.50429" lon="6.03829">
        <ele>282.7</ele>
        <time>2021-08-28T10:51:35Z</time>
      </trkpt>
      <trkpt lat="45.50427" lon="6.03839">
        <ele>282.7</ele>
        <time>2021-08-28T10:51:36Z</time>
      </trkpt>
      <trkpt lat="45.50425" lon="6.03848">
        <ele>282.7</ele>
        <time>2021-08-28T10:51:37Z</time>
      </trkpt>
      <trkpt lat="45.50421" lon="6.03856">
        <ele>282.6</ele>
        <time>2021-08-28T10:51:38Z</time>
      </trkpt>
      <trkpt lat="45.50417" lon="6.03864">
        <ele>282.6</ele>
        <time>2021-08-28T10:51:39Z</time>
      </trkpt>
      <trkpt lat="45.50412" lon="6.03871">
        <ele>282.5</ele>
        <time>2021-08-28T10:51:40Z</time>
      </trkpt>
      <trkpt lat="45.50405" lon="6.03874">
        <ele>282.5</ele>
        <time>2021-08-28T10:51:41Z</time>
      </trkpt>
      <trkpt lat="45.50398" lon="6.03874">
        <ele>282.5</ele>
        <time>2021-08-28T10:51:42Z</time>
      </trkpt>
      <trkpt lat="45.50391" lon="6.03874">
        <ele>282.5</ele>
        <time>2021-08-28T10:51:43Z</time>
      </trkpt>
      <trkpt lat="45.50385" lon="6.03876">
        <ele>282.5</ele>
        <time>2021-08-28T10:51:44Z</time>
      </trkpt>
      <trkpt lat="45.5038" lon="6.03881">
        <ele>282.5</ele>
        <time>2021-08-28T10:51:45Z</time>
      </trkpt>
      <trkpt lat="45.50376" lon="6.03887">
        <ele>282.5</ele>
        <time>2021-08-28T10:51:46Z</time>
      </trkpt>
      <trkpt lat="45.50373" lon="6.03893">
        <ele>282.6</ele>
        <time>2021-08-28T10:51:47Z</time>
      </trkpt>
      <trkpt lat="45.50372" lon="6.039">
        <ele>282.7</ele>
        <time>2021-08-28T10:51:48Z</time>
      </trkpt>
      <trkpt lat="45.50372" lon="6.03907">
        <ele>282.8</ele>
        <time>2021-08-28T10:51:49Z</time>
      </trkpt>
      <trkpt lat="45.50374" lon="6.03913">
        <ele>282.9</ele>
        <time>2021-08-28T10:51:50Z</time>
      </trkpt>
      <trkpt lat="45.50376" lon="6.03919">
        <ele>282.9</ele>
        <time>2021-08-28T10:51:51Z</time>
      </trkpt>
      <trkpt lat="45.50379" lon="6.03925">
        <ele>283</ele>
        <time>2021-08-28T10:51:52Z</time>
      </trkpt>
      <trkpt lat="45.50382" lon="6.0393">
        <ele>282.9</ele>
        <time>2021-08-28T10:51:53Z</time>
      </trkpt>
      <trkpt lat="45.50385" lon="6.03935">
        <ele>282.8</ele>
        <time>2021-08-28T10:51:54Z</time>
      </trkpt>
      <trkpt lat="45.50387" lon="6.03941">
        <ele>282.6</ele>
        <time>2021-08-28T10:51:55Z</time>
      </trkpt>
      <trkpt lat="45.50389" lon="6.03947">
        <ele>282.5</ele>
        <time>2021-08-28T10:51:56Z</time>
      </trkpt>
      <trkpt lat="45.5039" lon="6.03954">
        <ele>282.5</ele>
        <time>2021-08-28T10:51:57Z</time>
      </trkpt>
      <trkpt lat="45.5039" lon="6.03961">
        <ele>282.4</ele>
        <time>2021-08-28T10:51:58Z</time>
      </trkpt>
      <trkpt lat="45.5039" lon="6.03969">
        <ele>282.3</ele>
        <time>2021-08-28T10:51:59Z</time>
      </trkpt>
      <trkpt lat="45.50389" lon="6.03976">
        <ele>282.3</ele>
        <time>2021-08-28T10:52:00Z</time>
      </trkpt>
      <trkpt lat="45.50388" lon="6.03983">
        <ele>282.2</ele>
        <time>2021-08-28T10:52:01Z</time>
      </trkpt>
      <trkpt lat="45.50386" lon="6.03991">
        <ele>282.1</ele>
        <time>2021-08-28T10:52:02Z</time>
      </trkpt>
      <trkpt lat="45.50384" lon="6.03998">
        <ele>282.1</ele>
        <time>2021-08-28T10:52:03Z</time>
      </trkpt>
      <trkpt lat="45.50381" lon="6.04005">
        <ele>282.1</ele>
        <time>2021-08-28T10:52:04Z</time>
      </trkpt>
      <trkpt lat="45.50378" lon="6.04012">
        <ele>282</ele>
        <time>2021-08-28T10:52:05Z</time>
      </trkpt>
      <trkpt lat="45.50374" lon="6.04018">
        <ele>282</ele>
        <time>2021-08-28T10:52:06Z</time>
      </trkpt>
      <trkpt lat="45.50371" lon="6.04025">
        <ele>282</ele>
        <time>2021-08-28T10:52:07Z</time>
      </trkpt>
      <trkpt lat="45.50367" lon="6.04032">
        <ele>282</ele>
        <time>2021-08-28T10:52:08Z</time>
      </trkpt>
      <trkpt lat="45.50363" lon="6.04038">
        <ele>281.9</ele>
        <time>2021-08-28T10:52:09Z</time>
      </trkpt>
      <trkpt lat="45.50359" lon="6.04044">
        <ele>281.9</ele>
        <time>2021-08-28T10:52:10Z</time>
      </trkpt>
      <trkpt lat="45.50355" lon="6.04051">
        <ele>281.9</ele>
        <time>2021-08-28T10:52:11Z</time>
      </trkpt>
      <trkpt lat="45.50351" lon="6.04058">
        <ele>281.8</ele>
        <time>2021-08-28T10:52:12Z</time>
      </trkpt>
      <trkpt lat="45.50347" lon="6.04064">
        <ele>281.8</ele>
        <time>2021-08-28T10:52:13Z</time>
      </trkpt>
      <trkpt lat="45.50343" lon="6.0407">
        <ele>281.7</ele>
        <time>2021-08-28T10:52:14Z</time>
      </trkpt>
      <trkpt lat="45.5034" lon="6.04076">
        <ele>281.7</ele>
        <time>2021-08-28T10:52:15Z</time>
      </trkpt>
      <trkpt lat="45.50338" lon="6.04079">
        <ele>281.7</ele>
        <time>2021-08-28T10:52:16Z</time>
      </trkpt>
      <trkpt lat="45.50336" lon="6.0408">
        <ele>281.6</ele>
        <time>2021-08-28T10:52:17Z</time>
      </trkpt>
      <trkpt lat="45.50334" lon="6.04082">
        <ele>281.6</ele>
        <time>2021-08-28T10:52:18Z</time>
      </trkpt>
      <trkpt lat="45.50335" lon="6.04082">
        <ele>281.6</ele>
        <time>2021-08-28T10:52:19Z</time>
      </trkpt>
      <trkpt lat="45.50336" lon="6.04082">
        <ele>281.6</ele>
        <time>2021-08-28T10:52:20Z</time>
      </trkpt>
      <trkpt lat="45.50337" lon="6.04081">
        <ele>281.6</ele>
        <time>2021-08-28T10:52:21Z</time>
      </trkpt>
      <trkpt lat="45.50338" lon="6.04081">
        <ele>281.6</ele>
        <time>2021-08-28T10:52:24Z</time>
      </trkpt>
      <trkpt lat="45.50339" lon="6.04081">
        <ele>281.6</ele>
        <time>2021-08-28T10:52:25Z</time>
      </trkpt>
      <trkpt lat="45.50339" lon="6.04081">
        <ele>281.6</ele>
        <time>2021-08-28T10:52:26Z</time>
      </trkpt>
      <trkpt lat="45.5034" lon="6.04081">
        <ele>281.6</ele>
        <time>2021-08-28T10:52:29Z</time>
      </trkpt>
      <trkpt lat="45.50341" lon="6.04081">
        <ele>281.6</ele>
        <time>2021-08-28T10:52:31Z</time>
      </trkpt>
      <trkpt lat="45.50342" lon="6.04081">
        <ele>281.5</ele>
        <time>2021-08-28T10:54:29Z</time>
      </trkpt>
      <trkpt lat="45.50343" lon="6.04081">
        <ele>281.5</ele>
        <time>2021-08-28T10:54:30Z</time>
      </trkpt>
      <trkpt lat="45.50344" lon="6.04081">
        <ele>281.5</ele>
        <time>2021-08-28T10:54:31Z</time>
      </trkpt>
      <trkpt lat="45.50347" lon="6.04078">
        <ele>281.5</ele>
        <time>2021-08-28T10:54:32Z</time>
      </trkpt>
      <trkpt lat="45.50348" lon="6.04077">
        <ele>281.5</ele>
        <time>2021-08-28T10:54:33Z</time>
      </trkpt>
      <trkpt lat="45.5035" lon="6.04072">
        <ele>281.5</ele>
        <time>2021-08-28T10:54:34Z</time>
      </trkpt>
      <trkpt lat="45.50352" lon="6.04068">
        <ele>281.5</ele>
        <time>2021-08-28T10:54:35Z</time>
      </trkpt>
      <trkpt lat="45.50354" lon="6.04064">
        <ele>281.6</ele>
        <time>2021-08-28T10:54:36Z</time>
      </trkpt>
      <trkpt lat="45.50356" lon="6.0406">
        <ele>281.6</ele>
        <time>2021-08-28T10:54:37Z</time>
      </trkpt>
      <trkpt lat="45.50359" lon="6.04056">
        <ele>281.6</ele>
        <time>2021-08-28T10:54:38Z</time>
      </trkpt>
      <trkpt lat="45.50361" lon="6.04053">
        <ele>281.6</ele>
        <time>2021-08-28T10:54:39Z</time>
      </trkpt>
      <trkpt lat="45.50364" lon="6.0405">
        <ele>281.7</ele>
        <time>2021-08-28T10:54:40Z</time>
      </trkpt>
      <trkpt lat="45.50366" lon="6.04045">
        <ele>281.7</ele>
        <time>2021-08-28T10:54:41Z</time>
      </trkpt>
      <trkpt lat="45.50368" lon="6.04042">
        <ele>281.7</ele>
        <time>2021-08-28T10:54:42Z</time>
      </trkpt>
      <trkpt lat="45.5037" lon="6.04038">
        <ele>281.7</ele>
        <time>2021-08-28T10:54:43Z</time>
      </trkpt>
      <trkpt lat="45.50372" lon="6.04034">
        <ele>281.7</ele>
        <time>2021-08-28T10:54:44Z</time>
      </trkpt>
      <trkpt lat="45.50374" lon="6.04029">
        <ele>281.8</ele>
        <time>2021-08-28T10:54:45Z</time>
      </trkpt>
      <trkpt lat="45.50376" lon="6.04025">
        <ele>281.8</ele>
        <time>2021-08-28T10:54:46Z</time>
      </trkpt>
      <trkpt lat="45.50379" lon="6.04021">
        <ele>281.8</ele>
        <time>2021-08-28T10:54:47Z</time>
      </trkpt>
      <trkpt lat="45.50381" lon="6.04017">
        <ele>281.8</ele>
        <time>2021-08-28T10:54:48Z</time>
      </trkpt>
      <trkpt lat="45.50383" lon="6.04012">
        <ele>281.8</ele>
        <time>2021-08-28T10:54:49Z</time>
      </trkpt>
      <trkpt lat="45.50385" lon="6.04008">
        <ele>281.8</ele>
        <time>2021-08-28T10:54:50Z</time>
      </trkpt>
      <trkpt lat="45.50387" lon="6.04003">
        <ele>281.9</ele>
        <time>2021-08-28T10:54:51Z</time>
      </trkpt>
      <trkpt lat="45.50389" lon="6.03997">
        <ele>281.9</ele>
        <time>2021-08-28T10:54:52Z</time>
      </trkpt>
      <trkpt lat="45.5039" lon="6.03993">
        <ele>281.9</ele>
        <time>2021-08-28T10:54:53Z</time>
      </trkpt>
      <trkpt lat="45.50391" lon="6.0399">
        <ele>281.9</ele>
        <time>2021-08-28T10:54:54Z</time>
      </trkpt>
      <trkpt lat="45.50392" lon="6.03989">
        <ele>281.9</ele>
        <time>2021-08-28T10:54:55Z</time>
      </trkpt>
      <trkpt lat="45.50394" lon="6.03994">
        <ele>281.9</ele>
        <time>2021-08-28T10:54:56Z</time>
      </trkpt>
      <trkpt lat="45.50394" lon="6.03995">
        <ele>281.9</ele>
        <time>2021-08-28T10:54:57Z</time>
      </trkpt>
      <trkpt lat="45.50395" lon="6.03999">
        <ele>281.9</ele>
        <time>2021-08-28T10:54:58Z</time>
      </trkpt>
      <trkpt lat="45.50394" lon="6.04002">
        <ele>281.9</ele>
        <time>2021-08-28T10:54:59Z</time>
      </trkpt>
      <trkpt lat="45.50391" lon="6.04008">
        <ele>281.9</ele>
        <time>2021-08-28T10:55:00Z</time>
      </trkpt>
      <trkpt lat="45.50387" lon="6.04014">
        <ele>282</ele>
        <time>2021-08-28T10:55:01Z</time>
      </trkpt>
      <trkpt lat="45.50384" lon="6.04019">
        <ele>282</ele>
        <time>2021-08-28T10:55:02Z</time>
      </trkpt>
      <trkpt lat="45.50382" lon="6.04023">
        <ele>282</ele>
        <time>2021-08-28T10:55:03Z</time>
      </trkpt>
      <trkpt lat="45.5038" lon="6.04026">
        <ele>282</ele>
        <time>2021-08-28T10:55:04Z</time>
      </trkpt>
      <trkpt lat="45.50379" lon="6.04029">
        <ele>282</ele>
        <time>2021-08-28T10:55:05Z</time>
      </trkpt>
      <trkpt lat="45.50377" lon="6.04033">
        <ele>282</ele>
        <time>2021-08-28T10:55:06Z</time>
      </trkpt>
      <trkpt lat="45.50376" lon="6.04036">
        <ele>282</ele>
        <time>2021-08-28T10:55:07Z</time>
      </trkpt>
      <trkpt lat="45.50375" lon="6.04037">
        <ele>282</ele>
        <time>2021-08-28T10:55:08Z</time>
      </trkpt>
      <trkpt lat="45.50376" lon="6.04037">
        <ele>282</ele>
        <time>2021-08-28T10:55:09Z</time>
      </trkpt>
      <trkpt lat="45.50376" lon="6.04037">
        <ele>282</ele>
        <time>2021-08-28T10:55:10Z</time>
      </trkpt>
      <trkpt lat="45.50377" lon="6.04037">
        <ele>282</ele>
        <time>2021-08-28T10:55:11Z</time>
      </trkpt>
      <trkpt lat="45.50378" lon="6.04037">
        <ele>282</ele>
        <time>2021-08-28T10:55:12Z</time>
      </trkpt>
      <trkpt lat="45.50378" lon="6.04036">
        <ele>282</ele>
        <time>2021-08-28T10:55:13Z</time>
      </trkpt>
      <trkpt lat="45.50379" lon="6.04036">
        <ele>282</ele>
        <time>2021-08-28T10:55:14Z</time>
      </trkpt>
      <trkpt lat="45.5038" lon="6.04036">
        <ele>282</ele>
        <time>2021-08-28T10:55:17Z</time>
      </trkpt>
      <trkpt lat="45.5038" lon="6.04036">
        <ele>282</ele>
        <time>2021-08-28T10:55:18Z</time>
      </trkpt>
      <trkpt lat="45.50381" lon="6.04035">
        <ele>282</ele>
        <time>2021-08-28T10:55:20Z</time>
      </trkpt>
      <trkpt lat="45.50382" lon="6.04035">
        <ele>282</ele>
        <time>2021-08-28T10:55:23Z</time>
      </trkpt>
      <trkpt lat="45.50382" lon="6.04035">
        <ele>282</ele>
        <time>2021-08-28T10:56:07Z</time>
      </trkpt>
      <trkpt lat="45.50383" lon="6.04035">
        <ele>282</ele>
        <time>2021-08-28T10:56:08Z</time>
      </trkpt>
      <trkpt lat="45.50388" lon="6.0403">
        <ele>282.1</ele>
        <time>2021-08-28T10:56:10Z</time>
      </trkpt>
      <trkpt lat="45.50392" lon="6.04022">
        <ele>282.1</ele>
        <time>2021-08-28T10:56:11Z</time>
      </trkpt>
      <trkpt lat="45.50395" lon="6.04016">
        <ele>282.1</ele>
        <time>2021-08-28T10:56:12Z</time>
      </trkpt>
      <trkpt lat="45.50397" lon="6.0401">
        <ele>282.1</ele>
        <time>2021-08-28T10:56:14Z</time>
      </trkpt>
      <trkpt lat="45.50401" lon="6.04">
        <ele>282.1</ele>
        <time>2021-08-28T10:56:15Z</time>
      </trkpt>
      <trkpt lat="45.50402" lon="6.03993">
        <ele>282.2</ele>
        <time>2021-08-28T10:56:16Z</time>
      </trkpt>
      <trkpt lat="45.50404" lon="6.03987">
        <ele>282.2</ele>
        <time>2021-08-28T10:56:18Z</time>
      </trkpt>
      <trkpt lat="45.50407" lon="6.03977">
        <ele>282.2</ele>
        <time>2021-08-28T10:56:19Z</time>
      </trkpt>
      <trkpt lat="45.50408" lon="6.0397">
        <ele>282.3</ele>
        <time>2021-08-28T10:56:20Z</time>
      </trkpt>
      <trkpt lat="45.5041" lon="6.03965">
        <ele>282.3</ele>
        <time>2021-08-28T10:56:22Z</time>
      </trkpt>
      <trkpt lat="45.50413" lon="6.03956">
        <ele>282.4</ele>
        <time>2021-08-28T10:56:23Z</time>
      </trkpt>
      <trkpt lat="45.50419" lon="6.03955">
        <ele>283</ele>
        <time>2021-08-28T10:56:24Z</time>
      </trkpt>
      <trkpt lat="45.50427" lon="6.03961">
        <ele>283</ele>
        <time>2021-08-28T10:56:26Z</time>
      </trkpt>
      <trkpt lat="45.50442" lon="6.03978">
        <ele>283.7</ele>
        <time>2021-08-28T10:56:29Z</time>
      </trkpt>
      <trkpt lat="45.50438" lon="6.03983">
        <ele>283.6</ele>
        <time>2021-08-28T10:56:30Z</time>
      </trkpt>
      <trkpt lat="45.50445" lon="6.03986">
        <ele>283.9</ele>
        <time>2021-08-28T10:56:32Z</time>
      </trkpt>
      <trkpt lat="45.50454" lon="6.03991">
        <ele>284</ele>
        <time>2021-08-28T10:56:33Z</time>
      </trkpt>
      <trkpt lat="45.50457" lon="6.03998">
        <ele>284.2</ele>
        <time>2021-08-28T10:56:35Z</time>
      </trkpt>
      <trkpt lat="45.50453" lon="6.04012">
        <ele>284.4</ele>
        <time>2021-08-28T10:56:38Z</time>
      </trkpt>
      <trkpt lat="45.50446" lon="6.04022">
        <ele>284.7</ele>
        <time>2021-08-28T10:56:40Z</time>
      </trkpt>
      <trkpt lat="45.50441" lon="6.04033">
        <ele>285</ele>
        <time>2021-08-28T10:56:42Z</time>
      </trkpt>
      <trkpt lat="45.50439" lon="6.0404">
        <ele>285.2</ele>
        <time>2021-08-28T10:56:43Z</time>
      </trkpt>
      <trkpt lat="45.50436" lon="6.04048">
        <ele>285.4</ele>
        <time>2021-08-28T10:56:45Z</time>
      </trkpt>
      <trkpt lat="45.50432" lon="6.04058">
        <ele>285.7</ele>
        <time>2021-08-28T10:56:46Z</time>
      </trkpt>
      <trkpt lat="45.50429" lon="6.04063">
        <ele>286</ele>
        <time>2021-08-28T10:56:49Z</time>
      </trkpt>
      <trkpt lat="45.50425" lon="6.04075">
        <ele>286.4</ele>
        <time>2021-08-28T10:56:52Z</time>
      </trkpt>
      <trkpt lat="45.50421" lon="6.04083">
        <ele>286.8</ele>
        <time>2021-08-28T10:56:54Z</time>
      </trkpt>
      <trkpt lat="45.50418" lon="6.04092">
        <ele>287.2</ele>
        <time>2021-08-28T10:56:55Z</time>
      </trkpt>
      <trkpt lat="45.50413" lon="6.04102">
        <ele>287.6</ele>
        <time>2021-08-28T10:56:58Z</time>
      </trkpt>
      <trkpt lat="45.50412" lon="6.04106">
        <ele>287.8</ele>
        <time>2021-08-28T10:56:59Z</time>
      </trkpt>
      <trkpt lat="45.5041" lon="6.04111">
        <ele>288</ele>
        <time>2021-08-28T10:57:01Z</time>
      </trkpt>
      <trkpt lat="45.50409" lon="6.04115">
        <ele>288.2</ele>
        <time>2021-08-28T10:57:03Z</time>
      </trkpt>
      <trkpt lat="45.50408" lon="6.04118">
        <ele>288.3</ele>
        <time>2021-08-28T10:57:04Z</time>
      </trkpt>
      <trkpt lat="45.50405" lon="6.04123">
        <ele>288.5</ele>
        <time>2021-08-28T10:57:06Z</time>
      </trkpt>
      <trkpt lat="45.50403" lon="6.04129">
        <ele>288.7</ele>
        <time>2021-08-28T10:57:08Z</time>
      </trkpt>
      <trkpt lat="45.50401" lon="6.04133">
        <ele>288.8</ele>
        <time>2021-08-28T10:57:09Z</time>
      </trkpt>
      <trkpt lat="45.50399" lon="6.04141">
        <ele>288.9</ele>
        <time>2021-08-28T10:57:11Z</time>
      </trkpt>
      <trkpt lat="45.50398" lon="6.04144">
        <ele>289</ele>
        <time>2021-08-28T10:57:12Z</time>
      </trkpt>
      <trkpt lat="45.50397" lon="6.04147">
        <ele>289.1</ele>
        <time>2021-08-28T10:57:13Z</time>
      </trkpt>
      <trkpt lat="45.50397" lon="6.04151">
        <ele>289.1</ele>
        <time>2021-08-28T10:57:15Z</time>
      </trkpt>
      <trkpt lat="45.50395" lon="6.04157">
        <ele>289.2</ele>
        <time>2021-08-28T10:57:16Z</time>
      </trkpt>
      <trkpt lat="45.50394" lon="6.0416">
        <ele>289.3</ele>
        <time>2021-08-28T10:57:17Z</time>
      </trkpt>
      <trkpt lat="45.50391" lon="6.04168">
        <ele>289.4</ele>
        <time>2021-08-28T10:57:19Z</time>
      </trkpt>
      <trkpt lat="45.5039" lon="6.04173">
        <ele>289.5</ele>
        <time>2021-08-28T10:57:21Z</time>
      </trkpt>
      <trkpt lat="45.50387" lon="6.04182">
        <ele>289.7</ele>
        <time>2021-08-28T10:57:23Z</time>
      </trkpt>
      <trkpt lat="45.50385" lon="6.04188">
        <ele>289.8</ele>
        <time>2021-08-28T10:57:24Z</time>
      </trkpt>
      <trkpt lat="45.50383" lon="6.04197">
        <ele>290</ele>
        <time>2021-08-28T10:57:26Z</time>
      </trkpt>
      <trkpt lat="45.50382" lon="6.04202">
        <ele>290.1</ele>
        <time>2021-08-28T10:57:27Z</time>
      </trkpt>
      <trkpt lat="45.5038" lon="6.04208">
        <ele>290.2</ele>
        <time>2021-08-28T10:57:28Z</time>
      </trkpt>
      <trkpt lat="45.50378" lon="6.04216">
        <ele>290.4</ele>
        <time>2021-08-28T10:57:29Z</time>
      </trkpt>
      <trkpt lat="45.50376" lon="6.04221">
        <ele>290.5</ele>
        <time>2021-08-28T10:57:31Z</time>
      </trkpt>
      <trkpt lat="45.50373" lon="6.04229">
        <ele>290.6</ele>
        <time>2021-08-28T10:57:32Z</time>
      </trkpt>
      <trkpt lat="45.50372" lon="6.04234">
        <ele>290.7</ele>
        <time>2021-08-28T10:57:34Z</time>
      </trkpt>
      <trkpt lat="45.5037" lon="6.04241">
        <ele>290.9</ele>
        <time>2021-08-28T10:57:35Z</time>
      </trkpt>
      <trkpt lat="45.50369" lon="6.04244">
        <ele>291</ele>
        <time>2021-08-28T10:57:36Z</time>
      </trkpt>
      <trkpt lat="45.50365" lon="6.04254">
        <ele>291.2</ele>
        <time>2021-08-28T10:57:38Z</time>
      </trkpt>
      <trkpt lat="45.50363" lon="6.04259">
        <ele>291.3</ele>
        <time>2021-08-28T10:57:39Z</time>
      </trkpt>
      <trkpt lat="45.50361" lon="6.04264">
        <ele>291.4</ele>
        <time>2021-08-28T10:57:41Z</time>
      </trkpt>
      <trkpt lat="45.50359" lon="6.04272">
        <ele>291.6</ele>
        <time>2021-08-28T10:57:42Z</time>
      </trkpt>
      <trkpt lat="45.50357" lon="6.04277">
        <ele>291.7</ele>
        <time>2021-08-28T10:57:43Z</time>
      </trkpt>
      <trkpt lat="45.50356" lon="6.04283">
        <ele>291.8</ele>
        <time>2021-08-28T10:57:45Z</time>
      </trkpt>
      <trkpt lat="45.50353" lon="6.04289">
        <ele>292</ele>
        <time>2021-08-28T10:57:46Z</time>
      </trkpt>
      <trkpt lat="45.50351" lon="6.04293">
        <ele>292.1</ele>
        <time>2021-08-28T10:57:47Z</time>
      </trkpt>
      <trkpt lat="45.50349" lon="6.04298">
        <ele>292.3</ele>
        <time>2021-08-28T10:57:49Z</time>
      </trkpt>
      <trkpt lat="45.50348" lon="6.04304">
        <ele>292.5</ele>
        <time>2021-08-28T10:57:50Z</time>
      </trkpt>
      <trkpt lat="45.50345" lon="6.04316">
        <ele>292.8</ele>
        <time>2021-08-28T10:57:52Z</time>
      </trkpt>
      <trkpt lat="45.50345" lon="6.04322">
        <ele>293</ele>
        <time>2021-08-28T10:57:54Z</time>
      </trkpt>
      <trkpt lat="45.50342" lon="6.04329">
        <ele>293.3</ele>
        <time>2021-08-28T10:57:56Z</time>
      </trkpt>
      <trkpt lat="45.5034" lon="6.04333">
        <ele>293.4</ele>
        <time>2021-08-28T10:57:57Z</time>
      </trkpt>
      <trkpt lat="45.50337" lon="6.04342">
        <ele>293.7</ele>
        <time>2021-08-28T10:57:58Z</time>
      </trkpt>
      <trkpt lat="45.50335" lon="6.04346">
        <ele>293.9</ele>
        <time>2021-08-28T10:57:59Z</time>
      </trkpt>
      <trkpt lat="45.50334" lon="6.04351">
        <ele>294.1</ele>
        <time>2021-08-28T10:58:01Z</time>
      </trkpt>
      <trkpt lat="45.50334" lon="6.04353">
        <ele>294.1</ele>
        <time>2021-08-28T10:58:02Z</time>
      </trkpt>
      <trkpt lat="45.50332" lon="6.04356">
        <ele>294.3</ele>
        <time>2021-08-28T10:58:03Z</time>
      </trkpt>
      <trkpt lat="45.50331" lon="6.04361">
        <ele>294.4</ele>
        <time>2021-08-28T10:58:04Z</time>
      </trkpt>
      <trkpt lat="45.50329" lon="6.0437">
        <ele>294.7</ele>
        <time>2021-08-28T10:58:06Z</time>
      </trkpt>
      <trkpt lat="45.50326" lon="6.04376">
        <ele>295</ele>
        <time>2021-08-28T10:58:08Z</time>
      </trkpt>
      <trkpt lat="45.50324" lon="6.04384">
        <ele>295.3</ele>
        <time>2021-08-28T10:58:10Z</time>
      </trkpt>
      <trkpt lat="45.50323" lon="6.04391">
        <ele>295.5</ele>
        <time>2021-08-28T10:58:11Z</time>
      </trkpt>
      <trkpt lat="45.50322" lon="6.04394">
        <ele>295.6</ele>
        <time>2021-08-28T10:58:12Z</time>
      </trkpt>
      <trkpt lat="45.50321" lon="6.044">
        <ele>295.6</ele>
        <time>2021-08-28T10:58:14Z</time>
      </trkpt>
      <trkpt lat="45.5032" lon="6.04408">
        <ele>295.7</ele>
        <time>2021-08-28T10:58:16Z</time>
      </trkpt>
      <trkpt lat="45.50319" lon="6.04412">
        <ele>295.7</ele>
        <time>2021-08-28T10:58:17Z</time>
      </trkpt>
      <trkpt lat="45.50319" lon="6.04413">
        <ele>295.7</ele>
        <time>2021-08-28T10:58:18Z</time>
      </trkpt>
      <trkpt lat="45.50318" lon="6.0442">
        <ele>295.6</ele>
        <time>2021-08-28T10:58:19Z</time>
      </trkpt>
      <trkpt lat="45.50317" lon="6.04425">
        <ele>295.6</ele>
        <time>2021-08-28T10:58:22Z</time>
      </trkpt>
      <trkpt lat="45.50316" lon="6.0443">
        <ele>295.5</ele>
        <time>2021-08-28T10:58:24Z</time>
      </trkpt>
      <trkpt lat="45.50316" lon="6.04433">
        <ele>295.4</ele>
        <time>2021-08-28T10:58:25Z</time>
      </trkpt>
      <trkpt lat="45.50316" lon="6.04435">
        <ele>295.4</ele>
        <time>2021-08-28T10:58:28Z</time>
      </trkpt>
      <trkpt lat="45.50316" lon="6.04437">
        <ele>295.4</ele>
        <time>2021-08-28T10:58:31Z</time>
      </trkpt>
      <trkpt lat="45.50316" lon="6.04439">
        <ele>295.3</ele>
        <time>2021-08-28T10:58:32Z</time>
      </trkpt>
      <trkpt lat="45.50316" lon="6.04441">
        <ele>295.3</ele>
        <time>2021-08-28T10:58:33Z</time>
      </trkpt>
      <trkpt lat="45.50316" lon="6.04442">
        <ele>295.3</ele>
        <time>2021-08-28T10:58:36Z</time>
      </trkpt>
      <trkpt lat="45.50316" lon="6.04444">
        <ele>295.3</ele>
        <time>2021-08-28T10:58:39Z</time>
      </trkpt>
      <trkpt lat="45.50316" lon="6.04446">
        <ele>295.2</ele>
        <time>2021-08-28T10:59:34Z</time>
      </trkpt>
      <trkpt lat="45.50316" lon="6.04448">
        <ele>295.2</ele>
        <time>2021-08-28T10:59:36Z</time>
      </trkpt>
      <trkpt lat="45.50316" lon="6.0445">
        <ele>295.2</ele>
        <time>2021-08-28T10:59:37Z</time>
      </trkpt>
      <trkpt lat="45.50314" lon="6.04463">
        <ele>295</ele>
        <time>2021-08-28T10:59:39Z</time>
      </trkpt>
      <trkpt lat="45.50314" lon="6.04471">
        <ele>294.9</ele>
        <time>2021-08-28T10:59:40Z</time>
      </trkpt>
      <trkpt lat="45.50312" lon="6.04485">
        <ele>294.9</ele>
        <time>2021-08-28T10:59:41Z</time>
      </trkpt>
      <trkpt lat="45.50311" lon="6.04493">
        <ele>294.9</ele>
        <time>2021-08-28T10:59:42Z</time>
      </trkpt>
      <trkpt lat="45.5031" lon="6.045">
        <ele>294.9</ele>
        <time>2021-08-28T10:59:43Z</time>
      </trkpt>
      <trkpt lat="45.50309" lon="6.04508">
        <ele>294.9</ele>
        <time>2021-08-28T10:59:45Z</time>
      </trkpt>
      <trkpt lat="45.50308" lon="6.04514">
        <ele>295</ele>
        <time>2021-08-28T10:59:46Z</time>
      </trkpt>
      <trkpt lat="45.50308" lon="6.04525">
        <ele>295.1</ele>
        <time>2021-08-28T10:59:47Z</time>
      </trkpt>
      <trkpt lat="45.50307" lon="6.04532">
        <ele>295.1</ele>
        <time>2021-08-28T10:59:48Z</time>
      </trkpt>
      <trkpt lat="45.50307" lon="6.0454">
        <ele>295.2</ele>
        <time>2021-08-28T10:59:50Z</time>
      </trkpt>
      <trkpt lat="45.50306" lon="6.04544">
        <ele>295.2</ele>
        <time>2021-08-28T10:59:51Z</time>
      </trkpt>
      <trkpt lat="45.50305" lon="6.04551">
        <ele>295.3</ele>
        <time>2021-08-28T10:59:52Z</time>
      </trkpt>
      <trkpt lat="45.50304" lon="6.04558">
        <ele>295.3</ele>
        <time>2021-08-28T10:59:53Z</time>
      </trkpt>
      <trkpt lat="45.50304" lon="6.04571">
        <ele>295.4</ele>
        <time>2021-08-28T10:59:54Z</time>
      </trkpt>
      <trkpt lat="45.50304" lon="6.04578">
        <ele>295.4</ele>
        <time>2021-08-28T10:59:55Z</time>
      </trkpt>
      <trkpt lat="45.50304" lon="6.04583">
        <ele>295.4</ele>
        <time>2021-08-28T10:59:57Z</time>
      </trkpt>
      <trkpt lat="45.50304" lon="6.04594">
        <ele>295.4</ele>
        <time>2021-08-28T10:59:59Z</time>
      </trkpt>
      <trkpt lat="45.50304" lon="6.046">
        <ele>295.4</ele>
        <time>2021-08-28T11:00:00Z</time>
      </trkpt>
      <trkpt lat="45.50304" lon="6.0461">
        <ele>295.4</ele>
        <time>2021-08-28T11:00:02Z</time>
      </trkpt>
      <trkpt lat="45.50304" lon="6.04617">
        <ele>295.4</ele>
        <time>2021-08-28T11:00:03Z</time>
      </trkpt>
      <trkpt lat="45.50305" lon="6.04624">
        <ele>295.4</ele>
        <time>2021-08-28T11:00:04Z</time>
      </trkpt>
      <trkpt lat="45.50303" lon="6.0463">
        <ele>295.4</ele>
        <time>2021-08-28T11:00:07Z</time>
      </trkpt>
      <trkpt lat="45.50303" lon="6.04636">
        <ele>295.4</ele>
        <time>2021-08-28T11:00:08Z</time>
      </trkpt>
      <trkpt lat="45.50303" lon="6.04642">
        <ele>295.4</ele>
        <time>2021-08-28T11:00:09Z</time>
      </trkpt>
      <trkpt lat="45.50303" lon="6.04648">
        <ele>295.4</ele>
        <time>2021-08-28T11:00:10Z</time>
      </trkpt>
      <trkpt lat="45.50303" lon="6.04654">
        <ele>295.4</ele>
        <time>2021-08-28T11:00:11Z</time>
      </trkpt>
      <trkpt lat="45.50303" lon="6.04661">
        <ele>295.4</ele>
        <time>2021-08-28T11:00:12Z</time>
      </trkpt>
      <trkpt lat="45.50303" lon="6.04668">
        <ele>295.4</ele>
        <time>2021-08-28T11:00:13Z</time>
      </trkpt>
      <trkpt lat="45.50303" lon="6.04675">
        <ele>295.4</ele>
        <time>2021-08-28T11:00:14Z</time>
      </trkpt>
      <trkpt lat="45.50303" lon="6.04682">
        <ele>295.4</ele>
        <time>2021-08-28T11:00:15Z</time>
      </trkpt>
      <trkpt lat="45.50303" lon="6.04689">
        <ele>295.4</ele>
        <time>2021-08-28T11:00:16Z</time>
      </trkpt>
      <trkpt lat="45.50304" lon="6.04696">
        <ele>295.4</ele>
        <time>2021-08-28T11:00:17Z</time>
      </trkpt>
      <trkpt lat="45.50304" lon="6.04703">
        <ele>295.4</ele>
        <time>2021-08-28T11:00:18Z</time>
      </trkpt>
      <trkpt lat="45.50305" lon="6.0471">
        <ele>295.4</ele>
        <time>2021-08-28T11:00:19Z</time>
      </trkpt>
      <trkpt lat="45.50306" lon="6.04718">
        <ele>295.4</ele>
        <time>2021-08-28T11:00:20Z</time>
      </trkpt>
      <trkpt lat="45.50306" lon="6.04725">
        <ele>295.4</ele>
        <time>2021-08-28T11:00:21Z</time>
      </trkpt>
      <trkpt lat="45.50307" lon="6.04733">
        <ele>295.5</ele>
        <time>2021-08-28T11:00:22Z</time>
      </trkpt>
      <trkpt lat="45.50308" lon="6.04741">
        <ele>295.5</ele>
        <time>2021-08-28T11:00:23Z</time>
      </trkpt>
      <trkpt lat="45.50309" lon="6.04748">
        <ele>295.5</ele>
        <time>2021-08-28T11:00:24Z</time>
      </trkpt>
      <trkpt lat="45.5031" lon="6.04755">
        <ele>295.5</ele>
        <time>2021-08-28T11:00:25Z</time>
      </trkpt>
      <trkpt lat="45.50311" lon="6.04762">
        <ele>295.5</ele>
        <time>2021-08-28T11:00:26Z</time>
      </trkpt>
      <trkpt lat="45.50312" lon="6.0477">
        <ele>295.5</ele>
        <time>2021-08-28T11:00:27Z</time>
      </trkpt>
      <trkpt lat="45.50312" lon="6.04778">
        <ele>295.5</ele>
        <time>2021-08-28T11:00:28Z</time>
      </trkpt>
      <trkpt lat="45.50313" lon="6.04785">
        <ele>295.5</ele>
        <time>2021-08-28T11:00:29Z</time>
      </trkpt>
      <trkpt lat="45.50314" lon="6.04792">
        <ele>295.5</ele>
        <time>2021-08-28T11:00:30Z</time>
      </trkpt>
      <trkpt lat="45.50315" lon="6.048">
        <ele>295.5</ele>
        <time>2021-08-28T11:00:31Z</time>
      </trkpt>
      <trkpt lat="45.50316" lon="6.04807">
        <ele>295.6</ele>
        <time>2021-08-28T11:00:32Z</time>
      </trkpt>
      <trkpt lat="45.50317" lon="6.04814">
        <ele>295.6</ele>
        <time>2021-08-28T11:00:33Z</time>
      </trkpt>
      <trkpt lat="45.50318" lon="6.04822">
        <ele>295.6</ele>
        <time>2021-08-28T11:00:34Z</time>
      </trkpt>
      <trkpt lat="45.50319" lon="6.04829">
        <ele>295.6</ele>
        <time>2021-08-28T11:00:35Z</time>
      </trkpt>
      <trkpt lat="45.5032" lon="6.04836">
        <ele>295.6</ele>
        <time>2021-08-28T11:00:36Z</time>
      </trkpt>
      <trkpt lat="45.50321" lon="6.04844">
        <ele>295.6</ele>
        <time>2021-08-28T11:00:37Z</time>
      </trkpt>
      <trkpt lat="45.50323" lon="6.04851">
        <ele>295.6</ele>
        <time>2021-08-28T11:00:38Z</time>
      </trkpt>
      <trkpt lat="45.50324" lon="6.04858">
        <ele>295.6</ele>
        <time>2021-08-28T11:00:39Z</time>
      </trkpt>
      <trkpt lat="45.50325" lon="6.04865">
        <ele>295.6</ele>
        <time>2021-08-28T11:00:40Z</time>
      </trkpt>
      <trkpt lat="45.50327" lon="6.04873">
        <ele>295.6</ele>
        <time>2021-08-28T11:00:41Z</time>
      </trkpt>
      <trkpt lat="45.50329" lon="6.0488">
        <ele>295.6</ele>
        <time>2021-08-28T11:00:42Z</time>
      </trkpt>
      <trkpt lat="45.5033" lon="6.04887">
        <ele>295.6</ele>
        <time>2021-08-28T11:00:43Z</time>
      </trkpt>
      <trkpt lat="45.50332" lon="6.04895">
        <ele>295.6</ele>
        <time>2021-08-28T11:00:44Z</time>
      </trkpt>
      <trkpt lat="45.50334" lon="6.04902">
        <ele>295.7</ele>
        <time>2021-08-28T11:00:45Z</time>
      </trkpt>
      <trkpt lat="45.50335" lon="6.0491">
        <ele>295.6</ele>
        <time>2021-08-28T11:00:46Z</time>
      </trkpt>
      <trkpt lat="45.50337" lon="6.04918">
        <ele>295.6</ele>
        <time>2021-08-28T11:00:47Z</time>
      </trkpt>
      <trkpt lat="45.50339" lon="6.04926">
        <ele>295.6</ele>
        <time>2021-08-28T11:00:48Z</time>
      </trkpt>
      <trkpt lat="45.50341" lon="6.04934">
        <ele>295.6</ele>
        <time>2021-08-28T11:00:49Z</time>
      </trkpt>
      <trkpt lat="45.50343" lon="6.04942">
        <ele>295.6</ele>
        <time>2021-08-28T11:00:50Z</time>
      </trkpt>
      <trkpt lat="45.50345" lon="6.0495">
        <ele>295.5</ele>
        <time>2021-08-28T11:00:51Z</time>
      </trkpt>
      <trkpt lat="45.50347" lon="6.04957">
        <ele>295.5</ele>
        <time>2021-08-28T11:00:52Z</time>
      </trkpt>
      <trkpt lat="45.50349" lon="6.04965">
        <ele>295.4</ele>
        <time>2021-08-28T11:00:53Z</time>
      </trkpt>
      <trkpt lat="45.50351" lon="6.04973">
        <ele>295.4</ele>
        <time>2021-08-28T11:00:54Z</time>
      </trkpt>
      <trkpt lat="45.50353" lon="6.04981">
        <ele>295.4</ele>
        <time>2021-08-28T11:00:55Z</time>
      </trkpt>
      <trkpt lat="45.50356" lon="6.04989">
        <ele>295.3</ele>
        <time>2021-08-28T11:00:56Z</time>
      </trkpt>
      <trkpt lat="45.50358" lon="6.04997">
        <ele>295.3</ele>
        <time>2021-08-28T11:00:57Z</time>
      </trkpt>
      <trkpt lat="45.5036" lon="6.05005">
        <ele>295.3</ele>
        <time>2021-08-28T11:00:58Z</time>
      </trkpt>
      <trkpt lat="45.50362" lon="6.05014">
        <ele>295.3</ele>
        <time>2021-08-28T11:00:59Z</time>
      </trkpt>
      <trkpt lat="45.50365" lon="6.05022">
        <ele>295.2</ele>
        <time>2021-08-28T11:01:00Z</time>
      </trkpt>
      <trkpt lat="45.50367" lon="6.0503">
        <ele>295.2</ele>
        <time>2021-08-28T11:01:01Z</time>
      </trkpt>
      <trkpt lat="45.5037" lon="6.05038">
        <ele>295.2</ele>
        <time>2021-08-28T11:01:02Z</time>
      </trkpt>
      <trkpt lat="45.50372" lon="6.05046">
        <ele>295.2</ele>
        <time>2021-08-28T11:01:03Z</time>
      </trkpt>
      <trkpt lat="45.50375" lon="6.05055">
        <ele>295.1</ele>
        <time>2021-08-28T11:01:04Z</time>
      </trkpt>
      <trkpt lat="45.50377" lon="6.05063">
        <ele>295.1</ele>
        <time>2021-08-28T11:01:05Z</time>
      </trkpt>
      <trkpt lat="45.5038" lon="6.05072">
        <ele>295.1</ele>
        <time>2021-08-28T11:01:06Z</time>
      </trkpt>
      <trkpt lat="45.50383" lon="6.0508">
        <ele>295.1</ele>
        <time>2021-08-28T11:01:07Z</time>
      </trkpt>
      <trkpt lat="45.50385" lon="6.05089">
        <ele>295.2</ele>
        <time>2021-08-28T11:01:08Z</time>
      </trkpt>
      <trkpt lat="45.50388" lon="6.05097">
        <ele>295.2</ele>
        <time>2021-08-28T11:01:09Z</time>
      </trkpt>
      <trkpt lat="45.50391" lon="6.05105">
        <ele>295.3</ele>
        <time>2021-08-28T11:01:10Z</time>
      </trkpt>
      <trkpt lat="45.50394" lon="6.05113">
        <ele>295.3</ele>
        <time>2021-08-28T11:01:11Z</time>
      </trkpt>
      <trkpt lat="45.50397" lon="6.0512">
        <ele>295.4</ele>
        <time>2021-08-28T11:01:12Z</time>
      </trkpt>
      <trkpt lat="45.504" lon="6.05128">
        <ele>295.5</ele>
        <time>2021-08-28T11:01:13Z</time>
      </trkpt>
      <trkpt lat="45.50403" lon="6.05135">
        <ele>295.5</ele>
        <time>2021-08-28T11:01:14Z</time>
      </trkpt>
      <trkpt lat="45.50403" lon="6.05142">
        <ele>295.4</ele>
        <time>2021-08-28T11:01:15Z</time>
      </trkpt>
      <trkpt lat="45.50401" lon="6.0515">
        <ele>295.3</ele>
        <time>2021-08-28T11:01:16Z</time>
      </trkpt>
      <trkpt lat="45.50396" lon="6.05156">
        <ele>295.2</ele>
        <time>2021-08-28T11:01:17Z</time>
      </trkpt>
      <trkpt lat="45.5039" lon="6.0516">
        <ele>295.1</ele>
        <time>2021-08-28T11:01:18Z</time>
      </trkpt>
      <trkpt lat="45.50385" lon="6.05165">
        <ele>295</ele>
        <time>2021-08-28T11:01:19Z</time>
      </trkpt>
      <trkpt lat="45.50379" lon="6.0517">
        <ele>294.9</ele>
        <time>2021-08-28T11:01:20Z</time>
      </trkpt>
      <trkpt lat="45.50373" lon="6.05173">
        <ele>294.8</ele>
        <time>2021-08-28T11:01:21Z</time>
      </trkpt>
      <trkpt lat="45.50366" lon="6.05174">
        <ele>294.8</ele>
        <time>2021-08-28T11:01:22Z</time>
      </trkpt>
      <trkpt lat="45.5036" lon="6.05173">
        <ele>294.9</ele>
        <time>2021-08-28T11:01:23Z</time>
      </trkpt>
      <trkpt lat="45.50354" lon="6.05171">
        <ele>294.9</ele>
        <time>2021-08-28T11:01:24Z</time>
      </trkpt>
      <trkpt lat="45.50349" lon="6.0517">
        <ele>295.1</ele>
        <time>2021-08-28T11:01:25Z</time>
      </trkpt>
      <trkpt lat="45.50343" lon="6.0517">
        <ele>295.2</ele>
        <time>2021-08-28T11:01:26Z</time>
      </trkpt>
      <trkpt lat="45.50338" lon="6.0517">
        <ele>295.3</ele>
        <time>2021-08-28T11:01:27Z</time>
      </trkpt>
      <trkpt lat="45.50333" lon="6.05171">
        <ele>295.4</ele>
        <time>2021-08-28T11:01:28Z</time>
      </trkpt>
      <trkpt lat="45.50329" lon="6.05172">
        <ele>295.5</ele>
        <time>2021-08-28T11:01:29Z</time>
      </trkpt>
      <trkpt lat="45.50325" lon="6.05173">
        <ele>295.6</ele>
        <time>2021-08-28T11:01:30Z</time>
      </trkpt>
      <trkpt lat="45.50321" lon="6.05173">
        <ele>295.8</ele>
        <time>2021-08-28T11:01:31Z</time>
      </trkpt>
      <trkpt lat="45.50317" lon="6.05174">
        <ele>295.9</ele>
        <time>2021-08-28T11:01:32Z</time>
      </trkpt>
      <trkpt lat="45.50306" lon="6.05175">
        <ele>296.2</ele>
        <time>2021-08-28T11:01:33Z</time>
      </trkpt>
      <trkpt lat="45.50302" lon="6.05177">
        <ele>296.3</ele>
        <time>2021-08-28T11:01:36Z</time>
      </trkpt>
      <trkpt lat="45.50299" lon="6.05179">
        <ele>296.4</ele>
        <time>2021-08-28T11:01:37Z</time>
      </trkpt>
      <trkpt lat="45.50295" lon="6.05182">
        <ele>296.5</ele>
        <time>2021-08-28T11:01:38Z</time>
      </trkpt>
      <trkpt lat="45.50291" lon="6.05183">
        <ele>296.6</ele>
        <time>2021-08-28T11:01:39Z</time>
      </trkpt>
      <trkpt lat="45.50287" lon="6.05185">
        <ele>296.7</ele>
        <time>2021-08-28T11:01:40Z</time>
      </trkpt>
      <trkpt lat="45.50282" lon="6.05187">
        <ele>296.9</ele>
        <time>2021-08-28T11:01:41Z</time>
      </trkpt>
      <trkpt lat="45.50279" lon="6.05189">
        <ele>297</ele>
        <time>2021-08-28T11:01:42Z</time>
      </trkpt>
      <trkpt lat="45.50274" lon="6.05191">
        <ele>297.1</ele>
        <time>2021-08-28T11:01:43Z</time>
      </trkpt>
      <trkpt lat="45.50271" lon="6.05192">
        <ele>297.2</ele>
        <time>2021-08-28T11:01:44Z</time>
      </trkpt>
      <trkpt lat="45.50267" lon="6.05193">
        <ele>297.1</ele>
        <time>2021-08-28T11:01:45Z</time>
      </trkpt>
      <trkpt lat="45.50263" lon="6.05192">
        <ele>297.2</ele>
        <time>2021-08-28T11:01:46Z</time>
      </trkpt>
      <trkpt lat="45.5026" lon="6.05195">
        <ele>297.2</ele>
        <time>2021-08-28T11:01:47Z</time>
      </trkpt>
      <trkpt lat="45.50259" lon="6.05197">
        <ele>297.3</ele>
        <time>2021-08-28T11:01:48Z</time>
      </trkpt>
      <trkpt lat="45.50257" lon="6.05201">
        <ele>297.3</ele>
        <time>2021-08-28T11:01:49Z</time>
      </trkpt>
      <trkpt lat="45.50256" lon="6.05204">
        <ele>297.4</ele>
        <time>2021-08-28T11:01:50Z</time>
      </trkpt>
      <trkpt lat="45.50253" lon="6.05208">
        <ele>297.5</ele>
        <time>2021-08-28T11:01:51Z</time>
      </trkpt>
      <trkpt lat="45.5025" lon="6.05211">
        <ele>297.6</ele>
        <time>2021-08-28T11:01:52Z</time>
      </trkpt>
      <trkpt lat="45.50248" lon="6.05213">
        <ele>297.7</ele>
        <time>2021-08-28T11:01:53Z</time>
      </trkpt>
      <trkpt lat="45.50244" lon="6.05213">
        <ele>297.8</ele>
        <time>2021-08-28T11:01:54Z</time>
      </trkpt>
      <trkpt lat="45.50241" lon="6.05214">
        <ele>297.7</ele>
        <time>2021-08-28T11:01:55Z</time>
      </trkpt>
      <trkpt lat="45.50238" lon="6.05215">
        <ele>297.6</ele>
        <time>2021-08-28T11:01:56Z</time>
      </trkpt>
      <trkpt lat="45.50233" lon="6.05214">
        <ele>297.5</ele>
        <time>2021-08-28T11:01:57Z</time>
      </trkpt>
      <trkpt lat="45.50229" lon="6.05212">
        <ele>297.4</ele>
        <time>2021-08-28T11:01:58Z</time>
      </trkpt>
      <trkpt lat="45.50225" lon="6.0521">
        <ele>297.3</ele>
        <time>2021-08-28T11:01:59Z</time>
      </trkpt>
      <trkpt lat="45.50221" lon="6.05207">
        <ele>297.2</ele>
        <time>2021-08-28T11:02:00Z</time>
      </trkpt>
      <trkpt lat="45.50217" lon="6.05201">
        <ele>297.1</ele>
        <time>2021-08-28T11:02:01Z</time>
      </trkpt>
      <trkpt lat="45.50213" lon="6.05196">
        <ele>297</ele>
        <time>2021-08-28T11:02:02Z</time>
      </trkpt>
      <trkpt lat="45.50209" lon="6.0519">
        <ele>296.8</ele>
        <time>2021-08-28T11:02:03Z</time>
      </trkpt>
      <trkpt lat="45.50205" lon="6.05184">
        <ele>296.7</ele>
        <time>2021-08-28T11:02:04Z</time>
      </trkpt>
      <trkpt lat="45.50201" lon="6.05178">
        <ele>296.6</ele>
        <time>2021-08-28T11:02:05Z</time>
      </trkpt>
      <trkpt lat="45.50198" lon="6.05171">
        <ele>296.5</ele>
        <time>2021-08-28T11:02:06Z</time>
      </trkpt>
      <trkpt lat="45.50194" lon="6.05164">
        <ele>296.3</ele>
        <time>2021-08-28T11:02:07Z</time>
      </trkpt>
      <trkpt lat="45.5019" lon="6.05158">
        <ele>296.3</ele>
        <time>2021-08-28T11:02:08Z</time>
      </trkpt>
      <trkpt lat="45.50187" lon="6.05151">
        <ele>296.2</ele>
        <time>2021-08-28T11:02:09Z</time>
      </trkpt>
      <trkpt lat="45.50183" lon="6.05144">
        <ele>296.2</ele>
        <time>2021-08-28T11:02:10Z</time>
      </trkpt>
      <trkpt lat="45.5018" lon="6.05138">
        <ele>296.2</ele>
        <time>2021-08-28T11:02:11Z</time>
      </trkpt>
      <trkpt lat="45.50177" lon="6.0513">
        <ele>296.1</ele>
        <time>2021-08-28T11:02:12Z</time>
      </trkpt>
      <trkpt lat="45.50176" lon="6.05122">
        <ele>296.1</ele>
        <time>2021-08-28T11:02:13Z</time>
      </trkpt>
      <trkpt lat="45.50177" lon="6.05115">
        <ele>296.1</ele>
        <time>2021-08-28T11:02:14Z</time>
      </trkpt>
      <trkpt lat="45.50179" lon="6.05107">
        <ele>296.2</ele>
        <time>2021-08-28T11:02:15Z</time>
      </trkpt>
      <trkpt lat="45.50179" lon="6.05099">
        <ele>296.2</ele>
        <time>2021-08-28T11:02:16Z</time>
      </trkpt>
      <trkpt lat="45.50178" lon="6.05092">
        <ele>296.2</ele>
        <time>2021-08-28T11:02:17Z</time>
      </trkpt>
      <trkpt lat="45.50176" lon="6.05084">
        <ele>296.1</ele>
        <time>2021-08-28T11:02:18Z</time>
      </trkpt>
      <trkpt lat="45.50174" lon="6.05077">
        <ele>296</ele>
        <time>2021-08-28T11:02:19Z</time>
      </trkpt>
      <trkpt lat="45.50172" lon="6.0507">
        <ele>295.8</ele>
        <time>2021-08-28T11:02:20Z</time>
      </trkpt>
      <trkpt lat="45.5017" lon="6.05062">
        <ele>295.8</ele>
        <time>2021-08-28T11:02:21Z</time>
      </trkpt>
      <trkpt lat="45.50169" lon="6.05055">
        <ele>295.7</ele>
        <time>2021-08-28T11:02:22Z</time>
      </trkpt>
      <trkpt lat="45.50169" lon="6.05048">
        <ele>295.7</ele>
        <time>2021-08-28T11:02:23Z</time>
      </trkpt>
      <trkpt lat="45.50168" lon="6.05042">
        <ele>295.6</ele>
        <time>2021-08-28T11:02:24Z</time>
      </trkpt>
      <trkpt lat="45.50167" lon="6.05035">
        <ele>295.6</ele>
        <time>2021-08-28T11:02:25Z</time>
      </trkpt>
      <trkpt lat="45.50166" lon="6.05028">
        <ele>295.6</ele>
        <time>2021-08-28T11:02:26Z</time>
      </trkpt>
      <trkpt lat="45.50165" lon="6.05022">
        <ele>295.5</ele>
        <time>2021-08-28T11:02:27Z</time>
      </trkpt>
      <trkpt lat="45.50164" lon="6.05017">
        <ele>295.5</ele>
        <time>2021-08-28T11:02:28Z</time>
      </trkpt>
      <trkpt lat="45.50163" lon="6.0501">
        <ele>295.4</ele>
        <time>2021-08-28T11:02:29Z</time>
      </trkpt>
      <trkpt lat="45.50162" lon="6.05003">
        <ele>295.4</ele>
        <time>2021-08-28T11:02:30Z</time>
      </trkpt>
      <trkpt lat="45.50161" lon="6.04997">
        <ele>295.3</ele>
        <time>2021-08-28T11:02:31Z</time>
      </trkpt>
      <trkpt lat="45.5016" lon="6.0499">
        <ele>295.2</ele>
        <time>2021-08-28T11:02:32Z</time>
      </trkpt>
      <trkpt lat="45.50159" lon="6.04983">
        <ele>295.1</ele>
        <time>2021-08-28T11:02:33Z</time>
      </trkpt>
      <trkpt lat="45.50159" lon="6.04975">
        <ele>295.1</ele>
        <time>2021-08-28T11:02:34Z</time>
      </trkpt>
      <trkpt lat="45.50158" lon="6.04968">
        <ele>295</ele>
        <time>2021-08-28T11:02:35Z</time>
      </trkpt>
      <trkpt lat="45.50157" lon="6.04961">
        <ele>294.9</ele>
        <time>2021-08-28T11:02:36Z</time>
      </trkpt>
      <trkpt lat="45.50157" lon="6.04953">
        <ele>294.8</ele>
        <time>2021-08-28T11:02:37Z</time>
      </trkpt>
      <trkpt lat="45.50156" lon="6.04945">
        <ele>294.7</ele>
        <time>2021-08-28T11:02:38Z</time>
      </trkpt>
      <trkpt lat="45.50156" lon="6.04938">
        <ele>294.7</ele>
        <time>2021-08-28T11:02:39Z</time>
      </trkpt>
      <trkpt lat="45.50156" lon="6.0493">
        <ele>294.6</ele>
        <time>2021-08-28T11:02:40Z</time>
      </trkpt>
      <trkpt lat="45.50156" lon="6.04923">
        <ele>294.5</ele>
        <time>2021-08-28T11:02:41Z</time>
      </trkpt>
      <trkpt lat="45.50157" lon="6.04916">
        <ele>294.5</ele>
        <time>2021-08-28T11:02:42Z</time>
      </trkpt>
      <trkpt lat="45.50157" lon="6.04909">
        <ele>294.4</ele>
        <time>2021-08-28T11:02:43Z</time>
      </trkpt>
      <trkpt lat="45.50157" lon="6.04901">
        <ele>294.4</ele>
        <time>2021-08-28T11:02:44Z</time>
      </trkpt>
      <trkpt lat="45.50158" lon="6.04894">
        <ele>294.4</ele>
        <time>2021-08-28T11:02:45Z</time>
      </trkpt>
      <trkpt lat="45.50158" lon="6.04886">
        <ele>294.3</ele>
        <time>2021-08-28T11:02:46Z</time>
      </trkpt>
      <trkpt lat="45.50159" lon="6.04878">
        <ele>294.3</ele>
        <time>2021-08-28T11:02:47Z</time>
      </trkpt>
      <trkpt lat="45.50159" lon="6.04871">
        <ele>294.4</ele>
        <time>2021-08-28T11:02:48Z</time>
      </trkpt>
      <trkpt lat="45.50159" lon="6.04863">
        <ele>294.4</ele>
        <time>2021-08-28T11:02:49Z</time>
      </trkpt>
      <trkpt lat="45.50159" lon="6.04855">
        <ele>294.4</ele>
        <time>2021-08-28T11:02:50Z</time>
      </trkpt>
      <trkpt lat="45.50159" lon="6.04848">
        <ele>294.5</ele>
        <time>2021-08-28T11:02:51Z</time>
      </trkpt>
      <trkpt lat="45.50161" lon="6.0484">
        <ele>294.4</ele>
        <time>2021-08-28T11:02:52Z</time>
      </trkpt>
      <trkpt lat="45.50161" lon="6.04832">
        <ele>294.3</ele>
        <time>2021-08-28T11:02:53Z</time>
      </trkpt>
      <trkpt lat="45.50162" lon="6.04825">
        <ele>294.2</ele>
        <time>2021-08-28T11:02:54Z</time>
      </trkpt>
      <trkpt lat="45.50163" lon="6.04817">
        <ele>294.1</ele>
        <time>2021-08-28T11:02:55Z</time>
      </trkpt>
      <trkpt lat="45.50163" lon="6.04809">
        <ele>294</ele>
        <time>2021-08-28T11:02:56Z</time>
      </trkpt>
      <trkpt lat="45.50164" lon="6.04801">
        <ele>293.9</ele>
        <time>2021-08-28T11:02:57Z</time>
      </trkpt>
      <trkpt lat="45.50165" lon="6.04793">
        <ele>293.7</ele>
        <time>2021-08-28T11:02:58Z</time>
      </trkpt>
      <trkpt lat="45.50165" lon="6.04786">
        <ele>293.6</ele>
        <time>2021-08-28T11:02:59Z</time>
      </trkpt>
      <trkpt lat="45.50165" lon="6.04778">
        <ele>293.5</ele>
        <time>2021-08-28T11:03:00Z</time>
      </trkpt>
      <trkpt lat="45.50165" lon="6.04771">
        <ele>293.5</ele>
        <time>2021-08-28T11:03:01Z</time>
      </trkpt>
      <trkpt lat="45.50166" lon="6.04762">
        <ele>293.3</ele>
        <time>2021-08-28T11:03:02Z</time>
      </trkpt>
      <trkpt lat="45.50166" lon="6.04754">
        <ele>293.2</ele>
        <time>2021-08-28T11:03:03Z</time>
      </trkpt>
      <trkpt lat="45.50166" lon="6.04745">
        <ele>293.1</ele>
        <time>2021-08-28T11:03:04Z</time>
      </trkpt>
      <trkpt lat="45.50166" lon="6.04737">
        <ele>292.9</ele>
        <time>2021-08-28T11:03:05Z</time>
      </trkpt>
      <trkpt lat="45.50167" lon="6.04729">
        <ele>292.8</ele>
        <time>2021-08-28T11:03:06Z</time>
      </trkpt>
      <trkpt lat="45.50167" lon="6.04721">
        <ele>292.7</ele>
        <time>2021-08-28T11:03:07Z</time>
      </trkpt>
      <trkpt lat="45.50168" lon="6.04713">
        <ele>292.5</ele>
        <time>2021-08-28T11:03:08Z</time>
      </trkpt>
      <trkpt lat="45.50169" lon="6.04705">
        <ele>292.4</ele>
        <time>2021-08-28T11:03:09Z</time>
      </trkpt>
      <trkpt lat="45.5017" lon="6.04697">
        <ele>292.2</ele>
        <time>2021-08-28T11:03:10Z</time>
      </trkpt>
      <trkpt lat="45.50171" lon="6.04688">
        <ele>292.1</ele>
        <time>2021-08-28T11:03:11Z</time>
      </trkpt>
      <trkpt lat="45.50171" lon="6.0468">
        <ele>291.9</ele>
        <time>2021-08-28T11:03:12Z</time>
      </trkpt>
      <trkpt lat="45.50172" lon="6.04671">
        <ele>291.7</ele>
        <time>2021-08-28T11:03:13Z</time>
      </trkpt>
      <trkpt lat="45.50173" lon="6.04663">
        <ele>291.5</ele>
        <time>2021-08-28T11:03:14Z</time>
      </trkpt>
      <trkpt lat="45.50173" lon="6.04654">
        <ele>291.4</ele>
        <time>2021-08-28T11:03:15Z</time>
      </trkpt>
      <trkpt lat="45.50174" lon="6.04645">
        <ele>291.2</ele>
        <time>2021-08-28T11:03:16Z</time>
      </trkpt>
      <trkpt lat="45.50175" lon="6.04636">
        <ele>290.9</ele>
        <time>2021-08-28T11:03:17Z</time>
      </trkpt>
      <trkpt lat="45.50176" lon="6.04627">
        <ele>290.7</ele>
        <time>2021-08-28T11:03:18Z</time>
      </trkpt>
      <trkpt lat="45.50178" lon="6.04618">
        <ele>290.6</ele>
        <time>2021-08-28T11:03:19Z</time>
      </trkpt>
      <trkpt lat="45.5018" lon="6.04608">
        <ele>290.6</ele>
        <time>2021-08-28T11:03:20Z</time>
      </trkpt>
      <trkpt lat="45.50183" lon="6.046">
        <ele>290.5</ele>
        <time>2021-08-28T11:03:21Z</time>
      </trkpt>
      <trkpt lat="45.50186" lon="6.04592">
        <ele>290.4</ele>
        <time>2021-08-28T11:03:22Z</time>
      </trkpt>
      <trkpt lat="45.50189" lon="6.04583">
        <ele>290.6</ele>
        <time>2021-08-28T11:03:23Z</time>
      </trkpt>
      <trkpt lat="45.50191" lon="6.04576">
        <ele>290</ele>
        <time>2021-08-28T11:03:24Z</time>
      </trkpt>
      <trkpt lat="45.50194" lon="6.04568">
        <ele>289.5</ele>
        <time>2021-08-28T11:03:25Z</time>
      </trkpt>
      <trkpt lat="45.50198" lon="6.04561">
        <ele>288.9</ele>
        <time>2021-08-28T11:03:26Z</time>
      </trkpt>
      <trkpt lat="45.50201" lon="6.04554">
        <ele>288.4</ele>
        <time>2021-08-28T11:03:27Z</time>
      </trkpt>
      <trkpt lat="45.50204" lon="6.04547">
        <ele>288.4</ele>
        <time>2021-08-28T11:03:28Z</time>
      </trkpt>
      <trkpt lat="45.50206" lon="6.04541">
        <ele>288.3</ele>
        <time>2021-08-28T11:03:29Z</time>
      </trkpt>
      <trkpt lat="45.50209" lon="6.04534">
        <ele>288.2</ele>
        <time>2021-08-28T11:03:30Z</time>
      </trkpt>
      <trkpt lat="45.50212" lon="6.04528">
        <ele>288.2</ele>
        <time>2021-08-28T11:03:31Z</time>
      </trkpt>
      <trkpt lat="45.50215" lon="6.04522">
        <ele>288.1</ele>
        <time>2021-08-28T11:03:32Z</time>
      </trkpt>
      <trkpt lat="45.50217" lon="6.04517">
        <ele>288.1</ele>
        <time>2021-08-28T11:03:33Z</time>
      </trkpt>
      <trkpt lat="45.5022" lon="6.04512">
        <ele>288.1</ele>
        <time>2021-08-28T11:03:34Z</time>
      </trkpt>
      <trkpt lat="45.50222" lon="6.04506">
        <ele>288</ele>
        <time>2021-08-28T11:03:35Z</time>
      </trkpt>
      <trkpt lat="45.50225" lon="6.045">
        <ele>288</ele>
        <time>2021-08-28T11:03:36Z</time>
      </trkpt>
      <trkpt lat="45.50226" lon="6.04493">
        <ele>287.7</ele>
        <time>2021-08-28T11:03:37Z</time>
      </trkpt>
      <trkpt lat="45.50223" lon="6.04479">
        <ele>287.2</ele>
        <time>2021-08-28T11:03:38Z</time>
      </trkpt>
      <trkpt lat="45.50217" lon="6.04476">
        <ele>286.7</ele>
        <time>2021-08-28T11:03:41Z</time>
      </trkpt>
      <trkpt lat="45.50214" lon="6.04473">
        <ele>286.5</ele>
        <time>2021-08-28T11:03:42Z</time>
      </trkpt>
      <trkpt lat="45.5021" lon="6.04472">
        <ele>286.3</ele>
        <time>2021-08-28T11:03:43Z</time>
      </trkpt>
      <trkpt lat="45.50207" lon="6.04472">
        <ele>286.1</ele>
        <time>2021-08-28T11:03:44Z</time>
      </trkpt>
      <trkpt lat="45.50205" lon="6.04471">
        <ele>286</ele>
        <time>2021-08-28T11:03:45Z</time>
      </trkpt>
      <trkpt lat="45.50205" lon="6.04468">
        <ele>285.8</ele>
        <time>2021-08-28T11:03:46Z</time>
      </trkpt>
      <trkpt lat="45.50205" lon="6.04464">
        <ele>285.7</ele>
        <time>2021-08-28T11:03:47Z</time>
      </trkpt>
      <trkpt lat="45.50206" lon="6.04463">
        <ele>285.6</ele>
        <time>2021-08-28T11:03:48Z</time>
      </trkpt>
      <trkpt lat="45.50206" lon="6.04463">
        <ele>285.6</ele>
        <time>2021-08-28T11:03:49Z</time>
      </trkpt>
      <trkpt lat="45.50206" lon="6.04463">
        <ele>285.6</ele>
        <time>2021-08-28T11:03:50Z</time>
      </trkpt>
      <trkpt lat="45.50206" lon="6.04463">
        <ele>285.6</ele>
        <time>2021-08-28T11:03:51Z</time>
      </trkpt>
      <trkpt lat="45.50206" lon="6.04463">
        <ele>285.6</ele>
        <time>2021-08-28T11:03:52Z</time>
      </trkpt>
      <trkpt lat="45.50206" lon="6.04463">
        <ele>285.6</ele>
        <time>2021-08-28T11:03:53Z</time>
      </trkpt>
      <trkpt lat="45.50206" lon="6.04463">
        <ele>285.6</ele>
        <time>2021-08-28T11:03:54Z</time>
      </trkpt>
      <trkpt lat="45.50206" lon="6.04463">
        <ele>285.5</ele>
        <time>2021-08-28T11:03:57Z</time>
      </trkpt>
      <trkpt lat="45.50206" lon="6.04463">
        <ele>285.5</ele>
        <time>2021-08-28T11:03:58Z</time>
      </trkpt>
      <trkpt lat="45.50205" lon="6.04463">
        <ele>285.5</ele>
        <time>2021-08-28T11:03:59Z</time>
      </trkpt>
    </trkseg>
  </trk>
</gpx>